<?xml version="1.0" encoding="UTF-8"?>
<gpx xmlns="http://www.topografix.com/GPX/1/1"
     creator="GpsDumpMac 0.29"
     version="1.1"
     xmlns:xsi="http://www.w3.org/2001/XMLSchema-instance"
     xsi:schemaLocation="http://www.topografix.com/GPX/1/1 http://www.topografix.com/GPX/1/1/gpx.xsd">
  <metadata>
    <link href="http://www.gethome.no/stein.sorensen/">
      <text>GPS dump for www.flightlog.org</text>
    </link>
    <time>2015-08-12T17:17:16Z</time>
    <bounds minlat="40.416017" minlon="-5.519717" maxlat="40.486483" maxlon="-5.248750"/>
  </metadata>
  <trk>
    <name>Track 001</name>
    <trkseg>
      <trkpt lat="40.421800" lon="-5.301750">
        <ele>1925.0</ele>
        <time>2015-07-25T11:57:57Z</time>
      </trkpt>
      <trkpt lat="40.421850" lon="-5.301767">
        <ele>1925.0</ele>
        <time>2015-07-25T11:57:58Z</time>
      </trkpt>
      <trkpt lat="40.421900" lon="-5.301767">
        <ele>1927.0</ele>
        <time>2015-07-25T11:57:59Z</time>
      </trkpt>
      <trkpt lat="40.421950" lon="-5.301750">
        <ele>1928.0</ele>
        <time>2015-07-25T11:58:00Z</time>
      </trkpt>
      <trkpt lat="40.421967" lon="-5.301750">
        <ele>1927.0</ele>
        <time>2015-07-25T11:58:01Z</time>
      </trkpt>
      <trkpt lat="40.422000" lon="-5.301767">
        <ele>1926.0</ele>
        <time>2015-07-25T11:58:02Z</time>
      </trkpt>
      <trkpt lat="40.422033" lon="-5.301783">
        <ele>1923.0</ele>
        <time>2015-07-25T11:58:03Z</time>
      </trkpt>
      <trkpt lat="40.422067" lon="-5.301800">
        <ele>1920.0</ele>
        <time>2015-07-25T11:58:04Z</time>
      </trkpt>
      <trkpt lat="40.422133" lon="-5.301800">
        <ele>1917.0</ele>
        <time>2015-07-25T11:58:05Z</time>
      </trkpt>
      <trkpt lat="40.422183" lon="-5.301783">
        <ele>1914.0</ele>
        <time>2015-07-25T11:58:06Z</time>
      </trkpt>
      <trkpt lat="40.422267" lon="-5.301783">
        <ele>1911.0</ele>
        <time>2015-07-25T11:58:07Z</time>
      </trkpt>
      <trkpt lat="40.422333" lon="-5.301817">
        <ele>1909.0</ele>
        <time>2015-07-25T11:58:08Z</time>
      </trkpt>
      <trkpt lat="40.422400" lon="-5.301850">
        <ele>1907.0</ele>
        <time>2015-07-25T11:58:09Z</time>
      </trkpt>
      <trkpt lat="40.422467" lon="-5.301883">
        <ele>1905.0</ele>
        <time>2015-07-25T11:58:10Z</time>
      </trkpt>
      <trkpt lat="40.422533" lon="-5.301900">
        <ele>1904.0</ele>
        <time>2015-07-25T11:58:11Z</time>
      </trkpt>
      <trkpt lat="40.422617" lon="-5.301883">
        <ele>1902.0</ele>
        <time>2015-07-25T11:58:12Z</time>
      </trkpt>
      <trkpt lat="40.422700" lon="-5.301850">
        <ele>1901.0</ele>
        <time>2015-07-25T11:58:13Z</time>
      </trkpt>
      <trkpt lat="40.422783" lon="-5.301817">
        <ele>1901.0</ele>
        <time>2015-07-25T11:58:14Z</time>
      </trkpt>
      <trkpt lat="40.422867" lon="-5.301800">
        <ele>1901.0</ele>
        <time>2015-07-25T11:58:15Z</time>
      </trkpt>
      <trkpt lat="40.422933" lon="-5.301783">
        <ele>1900.0</ele>
        <time>2015-07-25T11:58:16Z</time>
      </trkpt>
      <trkpt lat="40.423000" lon="-5.301783">
        <ele>1899.0</ele>
        <time>2015-07-25T11:58:17Z</time>
      </trkpt>
      <trkpt lat="40.423067" lon="-5.301783">
        <ele>1898.0</ele>
        <time>2015-07-25T11:58:18Z</time>
      </trkpt>
      <trkpt lat="40.423150" lon="-5.301767">
        <ele>1897.0</ele>
        <time>2015-07-25T11:58:19Z</time>
      </trkpt>
      <trkpt lat="40.423217" lon="-5.301767">
        <ele>1896.0</ele>
        <time>2015-07-25T11:58:20Z</time>
      </trkpt>
      <trkpt lat="40.423300" lon="-5.301767">
        <ele>1895.0</ele>
        <time>2015-07-25T11:58:21Z</time>
      </trkpt>
      <trkpt lat="40.423400" lon="-5.301767">
        <ele>1895.0</ele>
        <time>2015-07-25T11:58:22Z</time>
      </trkpt>
      <trkpt lat="40.423483" lon="-5.301750">
        <ele>1896.0</ele>
        <time>2015-07-25T11:58:23Z</time>
      </trkpt>
      <trkpt lat="40.423567" lon="-5.301733">
        <ele>1898.0</ele>
        <time>2015-07-25T11:58:24Z</time>
      </trkpt>
      <trkpt lat="40.423633" lon="-5.301717">
        <ele>1899.0</ele>
        <time>2015-07-25T11:58:25Z</time>
      </trkpt>
      <trkpt lat="40.423700" lon="-5.301700">
        <ele>1900.0</ele>
        <time>2015-07-25T11:58:26Z</time>
      </trkpt>
      <trkpt lat="40.423783" lon="-5.301667">
        <ele>1901.0</ele>
        <time>2015-07-25T11:58:27Z</time>
      </trkpt>
      <trkpt lat="40.423850" lon="-5.301633">
        <ele>1902.0</ele>
        <time>2015-07-25T11:58:28Z</time>
      </trkpt>
      <trkpt lat="40.423917" lon="-5.301583">
        <ele>1903.0</ele>
        <time>2015-07-25T11:58:29Z</time>
      </trkpt>
      <trkpt lat="40.423983" lon="-5.301533">
        <ele>1904.0</ele>
        <time>2015-07-25T11:58:30Z</time>
      </trkpt>
      <trkpt lat="40.424050" lon="-5.301483">
        <ele>1905.0</ele>
        <time>2015-07-25T11:58:31Z</time>
      </trkpt>
      <trkpt lat="40.424117" lon="-5.301433">
        <ele>1906.0</ele>
        <time>2015-07-25T11:58:32Z</time>
      </trkpt>
      <trkpt lat="40.424167" lon="-5.301367">
        <ele>1907.0</ele>
        <time>2015-07-25T11:58:33Z</time>
      </trkpt>
      <trkpt lat="40.424217" lon="-5.301317">
        <ele>1908.0</ele>
        <time>2015-07-25T11:58:34Z</time>
      </trkpt>
      <trkpt lat="40.424250" lon="-5.301283">
        <ele>1908.0</ele>
        <time>2015-07-25T11:58:35Z</time>
      </trkpt>
      <trkpt lat="40.424300" lon="-5.301267">
        <ele>1908.0</ele>
        <time>2015-07-25T11:58:36Z</time>
      </trkpt>
      <trkpt lat="40.424350" lon="-5.301217">
        <ele>1908.0</ele>
        <time>2015-07-25T11:58:37Z</time>
      </trkpt>
      <trkpt lat="40.424400" lon="-5.301167">
        <ele>1907.0</ele>
        <time>2015-07-25T11:58:38Z</time>
      </trkpt>
      <trkpt lat="40.424450" lon="-5.301100">
        <ele>1906.0</ele>
        <time>2015-07-25T11:58:39Z</time>
      </trkpt>
      <trkpt lat="40.424500" lon="-5.301033">
        <ele>1906.0</ele>
        <time>2015-07-25T11:58:40Z</time>
      </trkpt>
      <trkpt lat="40.424550" lon="-5.300950">
        <ele>1905.0</ele>
        <time>2015-07-25T11:58:41Z</time>
      </trkpt>
      <trkpt lat="40.424583" lon="-5.300883">
        <ele>1904.0</ele>
        <time>2015-07-25T11:58:42Z</time>
      </trkpt>
      <trkpt lat="40.424633" lon="-5.300833">
        <ele>1902.0</ele>
        <time>2015-07-25T11:58:43Z</time>
      </trkpt>
      <trkpt lat="40.424683" lon="-5.300767">
        <ele>1900.0</ele>
        <time>2015-07-25T11:58:44Z</time>
      </trkpt>
      <trkpt lat="40.424750" lon="-5.300700">
        <ele>1899.0</ele>
        <time>2015-07-25T11:58:45Z</time>
      </trkpt>
      <trkpt lat="40.424800" lon="-5.300633">
        <ele>1898.0</ele>
        <time>2015-07-25T11:58:46Z</time>
      </trkpt>
      <trkpt lat="40.424867" lon="-5.300583">
        <ele>1898.0</ele>
        <time>2015-07-25T11:58:47Z</time>
      </trkpt>
      <trkpt lat="40.424917" lon="-5.300533">
        <ele>1898.0</ele>
        <time>2015-07-25T11:58:48Z</time>
      </trkpt>
      <trkpt lat="40.424967" lon="-5.300500">
        <ele>1898.0</ele>
        <time>2015-07-25T11:58:49Z</time>
      </trkpt>
      <trkpt lat="40.425017" lon="-5.300450">
        <ele>1897.0</ele>
        <time>2015-07-25T11:58:50Z</time>
      </trkpt>
      <trkpt lat="40.425067" lon="-5.300400">
        <ele>1896.0</ele>
        <time>2015-07-25T11:58:51Z</time>
      </trkpt>
      <trkpt lat="40.425117" lon="-5.300333">
        <ele>1894.0</ele>
        <time>2015-07-25T11:58:52Z</time>
      </trkpt>
      <trkpt lat="40.425183" lon="-5.300300">
        <ele>1894.0</ele>
        <time>2015-07-25T11:58:53Z</time>
      </trkpt>
      <trkpt lat="40.425233" lon="-5.300250">
        <ele>1894.0</ele>
        <time>2015-07-25T11:58:54Z</time>
      </trkpt>
      <trkpt lat="40.425283" lon="-5.300217">
        <ele>1894.0</ele>
        <time>2015-07-25T11:58:55Z</time>
      </trkpt>
      <trkpt lat="40.425350" lon="-5.300167">
        <ele>1895.0</ele>
        <time>2015-07-25T11:58:56Z</time>
      </trkpt>
      <trkpt lat="40.425400" lon="-5.300117">
        <ele>1895.0</ele>
        <time>2015-07-25T11:58:57Z</time>
      </trkpt>
      <trkpt lat="40.425450" lon="-5.300083">
        <ele>1896.0</ele>
        <time>2015-07-25T11:58:58Z</time>
      </trkpt>
      <trkpt lat="40.425500" lon="-5.300067">
        <ele>1897.0</ele>
        <time>2015-07-25T11:58:59Z</time>
      </trkpt>
      <trkpt lat="40.425550" lon="-5.300067">
        <ele>1898.0</ele>
        <time>2015-07-25T11:59:00Z</time>
      </trkpt>
      <trkpt lat="40.425583" lon="-5.300100">
        <ele>1898.0</ele>
        <time>2015-07-25T11:59:01Z</time>
      </trkpt>
      <trkpt lat="40.425600" lon="-5.300150">
        <ele>1897.0</ele>
        <time>2015-07-25T11:59:02Z</time>
      </trkpt>
      <trkpt lat="40.425600" lon="-5.300250">
        <ele>1894.0</ele>
        <time>2015-07-25T11:59:03Z</time>
      </trkpt>
      <trkpt lat="40.425583" lon="-5.300383">
        <ele>1892.0</ele>
        <time>2015-07-25T11:59:04Z</time>
      </trkpt>
      <trkpt lat="40.425517" lon="-5.300500">
        <ele>1890.0</ele>
        <time>2015-07-25T11:59:05Z</time>
      </trkpt>
      <trkpt lat="40.425400" lon="-5.300617">
        <ele>1890.0</ele>
        <time>2015-07-25T11:59:06Z</time>
      </trkpt>
      <trkpt lat="40.425267" lon="-5.300683">
        <ele>1889.0</ele>
        <time>2015-07-25T11:59:07Z</time>
      </trkpt>
      <trkpt lat="40.425133" lon="-5.300717">
        <ele>1890.0</ele>
        <time>2015-07-25T11:59:08Z</time>
      </trkpt>
      <trkpt lat="40.425000" lon="-5.300767">
        <ele>1890.0</ele>
        <time>2015-07-25T11:59:09Z</time>
      </trkpt>
      <trkpt lat="40.424867" lon="-5.300817">
        <ele>1890.0</ele>
        <time>2015-07-25T11:59:10Z</time>
      </trkpt>
      <trkpt lat="40.424750" lon="-5.300883">
        <ele>1891.0</ele>
        <time>2015-07-25T11:59:11Z</time>
      </trkpt>
      <trkpt lat="40.424633" lon="-5.300950">
        <ele>1892.0</ele>
        <time>2015-07-25T11:59:12Z</time>
      </trkpt>
      <trkpt lat="40.424517" lon="-5.301000">
        <ele>1893.0</ele>
        <time>2015-07-25T11:59:13Z</time>
      </trkpt>
      <trkpt lat="40.424400" lon="-5.301050">
        <ele>1894.0</ele>
        <time>2015-07-25T11:59:14Z</time>
      </trkpt>
      <trkpt lat="40.424300" lon="-5.301100">
        <ele>1894.0</ele>
        <time>2015-07-25T11:59:15Z</time>
      </trkpt>
      <trkpt lat="40.424183" lon="-5.301167">
        <ele>1893.0</ele>
        <time>2015-07-25T11:59:16Z</time>
      </trkpt>
      <trkpt lat="40.424067" lon="-5.301233">
        <ele>1894.0</ele>
        <time>2015-07-25T11:59:17Z</time>
      </trkpt>
      <trkpt lat="40.423967" lon="-5.301300">
        <ele>1896.0</ele>
        <time>2015-07-25T11:59:18Z</time>
      </trkpt>
      <trkpt lat="40.423850" lon="-5.301350">
        <ele>1897.0</ele>
        <time>2015-07-25T11:59:19Z</time>
      </trkpt>
      <trkpt lat="40.423733" lon="-5.301400">
        <ele>1897.0</ele>
        <time>2015-07-25T11:59:20Z</time>
      </trkpt>
      <trkpt lat="40.423617" lon="-5.301433">
        <ele>1897.0</ele>
        <time>2015-07-25T11:59:21Z</time>
      </trkpt>
      <trkpt lat="40.423500" lon="-5.301483">
        <ele>1898.0</ele>
        <time>2015-07-25T11:59:22Z</time>
      </trkpt>
      <trkpt lat="40.423367" lon="-5.301517">
        <ele>1899.0</ele>
        <time>2015-07-25T11:59:23Z</time>
      </trkpt>
      <trkpt lat="40.423250" lon="-5.301533">
        <ele>1900.0</ele>
        <time>2015-07-25T11:59:24Z</time>
      </trkpt>
      <trkpt lat="40.423117" lon="-5.301567">
        <ele>1901.0</ele>
        <time>2015-07-25T11:59:25Z</time>
      </trkpt>
      <trkpt lat="40.423017" lon="-5.301633">
        <ele>1900.0</ele>
        <time>2015-07-25T11:59:26Z</time>
      </trkpt>
      <trkpt lat="40.422917" lon="-5.301717">
        <ele>1899.0</ele>
        <time>2015-07-25T11:59:27Z</time>
      </trkpt>
      <trkpt lat="40.422850" lon="-5.301833">
        <ele>1897.0</ele>
        <time>2015-07-25T11:59:28Z</time>
      </trkpt>
      <trkpt lat="40.422800" lon="-5.301950">
        <ele>1896.0</ele>
        <time>2015-07-25T11:59:29Z</time>
      </trkpt>
      <trkpt lat="40.422750" lon="-5.302067">
        <ele>1895.0</ele>
        <time>2015-07-25T11:59:30Z</time>
      </trkpt>
      <trkpt lat="40.422700" lon="-5.302167">
        <ele>1895.0</ele>
        <time>2015-07-25T11:59:31Z</time>
      </trkpt>
      <trkpt lat="40.422650" lon="-5.302283">
        <ele>1894.0</ele>
        <time>2015-07-25T11:59:32Z</time>
      </trkpt>
      <trkpt lat="40.422633" lon="-5.302400">
        <ele>1892.0</ele>
        <time>2015-07-25T11:59:33Z</time>
      </trkpt>
      <trkpt lat="40.422617" lon="-5.302517">
        <ele>1890.0</ele>
        <time>2015-07-25T11:59:34Z</time>
      </trkpt>
      <trkpt lat="40.422600" lon="-5.302650">
        <ele>1890.0</ele>
        <time>2015-07-25T11:59:35Z</time>
      </trkpt>
      <trkpt lat="40.422583" lon="-5.302783">
        <ele>1890.0</ele>
        <time>2015-07-25T11:59:36Z</time>
      </trkpt>
      <trkpt lat="40.422533" lon="-5.302900">
        <ele>1891.0</ele>
        <time>2015-07-25T11:59:37Z</time>
      </trkpt>
      <trkpt lat="40.422500" lon="-5.303017">
        <ele>1893.0</ele>
        <time>2015-07-25T11:59:38Z</time>
      </trkpt>
      <trkpt lat="40.422483" lon="-5.303117">
        <ele>1896.0</ele>
        <time>2015-07-25T11:59:39Z</time>
      </trkpt>
      <trkpt lat="40.422483" lon="-5.303200">
        <ele>1899.0</ele>
        <time>2015-07-25T11:59:40Z</time>
      </trkpt>
      <trkpt lat="40.422500" lon="-5.303267">
        <ele>1901.0</ele>
        <time>2015-07-25T11:59:41Z</time>
      </trkpt>
      <trkpt lat="40.422533" lon="-5.303300">
        <ele>1903.0</ele>
        <time>2015-07-25T11:59:42Z</time>
      </trkpt>
      <trkpt lat="40.422567" lon="-5.303300">
        <ele>1905.0</ele>
        <time>2015-07-25T11:59:43Z</time>
      </trkpt>
      <trkpt lat="40.422600" lon="-5.303233">
        <ele>1907.0</ele>
        <time>2015-07-25T11:59:44Z</time>
      </trkpt>
      <trkpt lat="40.422617" lon="-5.303133">
        <ele>1907.0</ele>
        <time>2015-07-25T11:59:45Z</time>
      </trkpt>
      <trkpt lat="40.422583" lon="-5.303000">
        <ele>1907.0</ele>
        <time>2015-07-25T11:59:46Z</time>
      </trkpt>
      <trkpt lat="40.422500" lon="-5.302850">
        <ele>1909.0</ele>
        <time>2015-07-25T11:59:47Z</time>
      </trkpt>
      <trkpt lat="40.422400" lon="-5.302733">
        <ele>1912.0</ele>
        <time>2015-07-25T11:59:48Z</time>
      </trkpt>
      <trkpt lat="40.422333" lon="-5.302633">
        <ele>1917.0</ele>
        <time>2015-07-25T11:59:49Z</time>
      </trkpt>
      <trkpt lat="40.422283" lon="-5.302517">
        <ele>1920.0</ele>
        <time>2015-07-25T11:59:50Z</time>
      </trkpt>
      <trkpt lat="40.422283" lon="-5.302417">
        <ele>1919.0</ele>
        <time>2015-07-25T11:59:51Z</time>
      </trkpt>
      <trkpt lat="40.422333" lon="-5.302317">
        <ele>1915.0</ele>
        <time>2015-07-25T11:59:52Z</time>
      </trkpt>
      <trkpt lat="40.422417" lon="-5.302267">
        <ele>1912.0</ele>
        <time>2015-07-25T11:59:53Z</time>
      </trkpt>
      <trkpt lat="40.422517" lon="-5.302300">
        <ele>1910.0</ele>
        <time>2015-07-25T11:59:54Z</time>
      </trkpt>
      <trkpt lat="40.422600" lon="-5.302383">
        <ele>1912.0</ele>
        <time>2015-07-25T11:59:55Z</time>
      </trkpt>
      <trkpt lat="40.422667" lon="-5.302467">
        <ele>1915.0</ele>
        <time>2015-07-25T11:59:56Z</time>
      </trkpt>
      <trkpt lat="40.422700" lon="-5.302517">
        <ele>1919.0</ele>
        <time>2015-07-25T11:59:57Z</time>
      </trkpt>
      <trkpt lat="40.422733" lon="-5.302550">
        <ele>1921.0</ele>
        <time>2015-07-25T11:59:58Z</time>
      </trkpt>
      <trkpt lat="40.422750" lon="-5.302567">
        <ele>1921.0</ele>
        <time>2015-07-25T11:59:59Z</time>
      </trkpt>
      <trkpt lat="40.422783" lon="-5.302600">
        <ele>1921.0</ele>
        <time>2015-07-25T12:00:00Z</time>
      </trkpt>
      <trkpt lat="40.422817" lon="-5.302650">
        <ele>1920.0</ele>
        <time>2015-07-25T12:00:01Z</time>
      </trkpt>
      <trkpt lat="40.422850" lon="-5.302717">
        <ele>1920.0</ele>
        <time>2015-07-25T12:00:02Z</time>
      </trkpt>
      <trkpt lat="40.422883" lon="-5.302800">
        <ele>1920.0</ele>
        <time>2015-07-25T12:00:03Z</time>
      </trkpt>
      <trkpt lat="40.422900" lon="-5.302900">
        <ele>1921.0</ele>
        <time>2015-07-25T12:00:04Z</time>
      </trkpt>
      <trkpt lat="40.422900" lon="-5.303050">
        <ele>1922.0</ele>
        <time>2015-07-25T12:00:05Z</time>
      </trkpt>
      <trkpt lat="40.422917" lon="-5.303183">
        <ele>1925.0</ele>
        <time>2015-07-25T12:00:06Z</time>
      </trkpt>
      <trkpt lat="40.422933" lon="-5.303283">
        <ele>1928.0</ele>
        <time>2015-07-25T12:00:07Z</time>
      </trkpt>
      <trkpt lat="40.422950" lon="-5.303367">
        <ele>1931.0</ele>
        <time>2015-07-25T12:00:08Z</time>
      </trkpt>
      <trkpt lat="40.422967" lon="-5.303433">
        <ele>1933.0</ele>
        <time>2015-07-25T12:00:09Z</time>
      </trkpt>
      <trkpt lat="40.422983" lon="-5.303500">
        <ele>1934.0</ele>
        <time>2015-07-25T12:00:10Z</time>
      </trkpt>
      <trkpt lat="40.423000" lon="-5.303567">
        <ele>1935.0</ele>
        <time>2015-07-25T12:00:11Z</time>
      </trkpt>
      <trkpt lat="40.423033" lon="-5.303650">
        <ele>1935.0</ele>
        <time>2015-07-25T12:00:12Z</time>
      </trkpt>
      <trkpt lat="40.423067" lon="-5.303700">
        <ele>1935.0</ele>
        <time>2015-07-25T12:00:13Z</time>
      </trkpt>
      <trkpt lat="40.423100" lon="-5.303750">
        <ele>1935.0</ele>
        <time>2015-07-25T12:00:14Z</time>
      </trkpt>
      <trkpt lat="40.423133" lon="-5.303817">
        <ele>1935.0</ele>
        <time>2015-07-25T12:00:15Z</time>
      </trkpt>
      <trkpt lat="40.423150" lon="-5.303883">
        <ele>1934.0</ele>
        <time>2015-07-25T12:00:16Z</time>
      </trkpt>
      <trkpt lat="40.423150" lon="-5.304000">
        <ele>1932.0</ele>
        <time>2015-07-25T12:00:17Z</time>
      </trkpt>
      <trkpt lat="40.423133" lon="-5.304117">
        <ele>1931.0</ele>
        <time>2015-07-25T12:00:18Z</time>
      </trkpt>
      <trkpt lat="40.423083" lon="-5.304250">
        <ele>1930.0</ele>
        <time>2015-07-25T12:00:19Z</time>
      </trkpt>
      <trkpt lat="40.423050" lon="-5.304383">
        <ele>1930.0</ele>
        <time>2015-07-25T12:00:20Z</time>
      </trkpt>
      <trkpt lat="40.423000" lon="-5.304500">
        <ele>1930.0</ele>
        <time>2015-07-25T12:00:21Z</time>
      </trkpt>
      <trkpt lat="40.422983" lon="-5.304617">
        <ele>1930.0</ele>
        <time>2015-07-25T12:00:22Z</time>
      </trkpt>
      <trkpt lat="40.422950" lon="-5.304750">
        <ele>1929.0</ele>
        <time>2015-07-25T12:00:23Z</time>
      </trkpt>
      <trkpt lat="40.422917" lon="-5.304883">
        <ele>1927.0</ele>
        <time>2015-07-25T12:00:24Z</time>
      </trkpt>
      <trkpt lat="40.422867" lon="-5.305017">
        <ele>1925.0</ele>
        <time>2015-07-25T12:00:25Z</time>
      </trkpt>
      <trkpt lat="40.422817" lon="-5.305150">
        <ele>1924.0</ele>
        <time>2015-07-25T12:00:26Z</time>
      </trkpt>
      <trkpt lat="40.422783" lon="-5.305283">
        <ele>1923.0</ele>
        <time>2015-07-25T12:00:27Z</time>
      </trkpt>
      <trkpt lat="40.422783" lon="-5.305400">
        <ele>1921.0</ele>
        <time>2015-07-25T12:00:28Z</time>
      </trkpt>
      <trkpt lat="40.422767" lon="-5.305517">
        <ele>1920.0</ele>
        <time>2015-07-25T12:00:29Z</time>
      </trkpt>
      <trkpt lat="40.422767" lon="-5.305617">
        <ele>1919.0</ele>
        <time>2015-07-25T12:00:30Z</time>
      </trkpt>
      <trkpt lat="40.422733" lon="-5.305733">
        <ele>1916.0</ele>
        <time>2015-07-25T12:00:31Z</time>
      </trkpt>
      <trkpt lat="40.422717" lon="-5.305867">
        <ele>1913.0</ele>
        <time>2015-07-25T12:00:32Z</time>
      </trkpt>
      <trkpt lat="40.422700" lon="-5.306000">
        <ele>1911.0</ele>
        <time>2015-07-25T12:00:33Z</time>
      </trkpt>
      <trkpt lat="40.422667" lon="-5.306117">
        <ele>1909.0</ele>
        <time>2015-07-25T12:00:34Z</time>
      </trkpt>
      <trkpt lat="40.422633" lon="-5.306250">
        <ele>1908.0</ele>
        <time>2015-07-25T12:00:35Z</time>
      </trkpt>
      <trkpt lat="40.422600" lon="-5.306367">
        <ele>1906.0</ele>
        <time>2015-07-25T12:00:36Z</time>
      </trkpt>
      <trkpt lat="40.422567" lon="-5.306517">
        <ele>1904.0</ele>
        <time>2015-07-25T12:00:37Z</time>
      </trkpt>
      <trkpt lat="40.422550" lon="-5.306650">
        <ele>1902.0</ele>
        <time>2015-07-25T12:00:38Z</time>
      </trkpt>
      <trkpt lat="40.422533" lon="-5.306800">
        <ele>1902.0</ele>
        <time>2015-07-25T12:00:39Z</time>
      </trkpt>
      <trkpt lat="40.422517" lon="-5.306950">
        <ele>1902.0</ele>
        <time>2015-07-25T12:00:40Z</time>
      </trkpt>
      <trkpt lat="40.422500" lon="-5.307083">
        <ele>1903.0</ele>
        <time>2015-07-25T12:00:41Z</time>
      </trkpt>
      <trkpt lat="40.422483" lon="-5.307217">
        <ele>1903.0</ele>
        <time>2015-07-25T12:00:42Z</time>
      </trkpt>
      <trkpt lat="40.422500" lon="-5.307317">
        <ele>1904.0</ele>
        <time>2015-07-25T12:00:43Z</time>
      </trkpt>
      <trkpt lat="40.422517" lon="-5.307400">
        <ele>1904.0</ele>
        <time>2015-07-25T12:00:44Z</time>
      </trkpt>
      <trkpt lat="40.422550" lon="-5.307467">
        <ele>1903.0</ele>
        <time>2015-07-25T12:00:45Z</time>
      </trkpt>
      <trkpt lat="40.422583" lon="-5.307500">
        <ele>1902.0</ele>
        <time>2015-07-25T12:00:46Z</time>
      </trkpt>
      <trkpt lat="40.422617" lon="-5.307533">
        <ele>1901.0</ele>
        <time>2015-07-25T12:00:47Z</time>
      </trkpt>
      <trkpt lat="40.422667" lon="-5.307533">
        <ele>1900.0</ele>
        <time>2015-07-25T12:00:48Z</time>
      </trkpt>
      <trkpt lat="40.422700" lon="-5.307517">
        <ele>1899.0</ele>
        <time>2015-07-25T12:00:49Z</time>
      </trkpt>
      <trkpt lat="40.422733" lon="-5.307467">
        <ele>1898.0</ele>
        <time>2015-07-25T12:00:50Z</time>
      </trkpt>
      <trkpt lat="40.422750" lon="-5.307383">
        <ele>1897.0</ele>
        <time>2015-07-25T12:00:51Z</time>
      </trkpt>
      <trkpt lat="40.422733" lon="-5.307300">
        <ele>1896.0</ele>
        <time>2015-07-25T12:00:52Z</time>
      </trkpt>
      <trkpt lat="40.422700" lon="-5.307200">
        <ele>1894.0</ele>
        <time>2015-07-25T12:00:53Z</time>
      </trkpt>
      <trkpt lat="40.422650" lon="-5.307083">
        <ele>1892.0</ele>
        <time>2015-07-25T12:00:54Z</time>
      </trkpt>
      <trkpt lat="40.422567" lon="-5.306983">
        <ele>1891.0</ele>
        <time>2015-07-25T12:00:55Z</time>
      </trkpt>
      <trkpt lat="40.422483" lon="-5.306900">
        <ele>1890.0</ele>
        <time>2015-07-25T12:00:56Z</time>
      </trkpt>
      <trkpt lat="40.422367" lon="-5.306817">
        <ele>1888.0</ele>
        <time>2015-07-25T12:00:57Z</time>
      </trkpt>
      <trkpt lat="40.422267" lon="-5.306733">
        <ele>1887.0</ele>
        <time>2015-07-25T12:00:58Z</time>
      </trkpt>
      <trkpt lat="40.422150" lon="-5.306633">
        <ele>1887.0</ele>
        <time>2015-07-25T12:00:59Z</time>
      </trkpt>
      <trkpt lat="40.422083" lon="-5.306533">
        <ele>1887.0</ele>
        <time>2015-07-25T12:01:00Z</time>
      </trkpt>
      <trkpt lat="40.422033" lon="-5.306417">
        <ele>1887.0</ele>
        <time>2015-07-25T12:01:01Z</time>
      </trkpt>
      <trkpt lat="40.422000" lon="-5.306300">
        <ele>1887.0</ele>
        <time>2015-07-25T12:01:02Z</time>
      </trkpt>
      <trkpt lat="40.421967" lon="-5.306167">
        <ele>1887.0</ele>
        <time>2015-07-25T12:01:03Z</time>
      </trkpt>
      <trkpt lat="40.421933" lon="-5.306067">
        <ele>1888.0</ele>
        <time>2015-07-25T12:01:04Z</time>
      </trkpt>
      <trkpt lat="40.421900" lon="-5.305950">
        <ele>1889.0</ele>
        <time>2015-07-25T12:01:05Z</time>
      </trkpt>
      <trkpt lat="40.421883" lon="-5.305850">
        <ele>1889.0</ele>
        <time>2015-07-25T12:01:06Z</time>
      </trkpt>
      <trkpt lat="40.421883" lon="-5.305750">
        <ele>1889.0</ele>
        <time>2015-07-25T12:01:07Z</time>
      </trkpt>
      <trkpt lat="40.421883" lon="-5.305633">
        <ele>1887.0</ele>
        <time>2015-07-25T12:01:08Z</time>
      </trkpt>
      <trkpt lat="40.421883" lon="-5.305517">
        <ele>1886.0</ele>
        <time>2015-07-25T12:01:09Z</time>
      </trkpt>
      <trkpt lat="40.421883" lon="-5.305417">
        <ele>1885.0</ele>
        <time>2015-07-25T12:01:10Z</time>
      </trkpt>
      <trkpt lat="40.421900" lon="-5.305317">
        <ele>1883.0</ele>
        <time>2015-07-25T12:01:11Z</time>
      </trkpt>
      <trkpt lat="40.421933" lon="-5.305217">
        <ele>1881.0</ele>
        <time>2015-07-25T12:01:12Z</time>
      </trkpt>
      <trkpt lat="40.422000" lon="-5.305150">
        <ele>1878.0</ele>
        <time>2015-07-25T12:01:13Z</time>
      </trkpt>
      <trkpt lat="40.422067" lon="-5.305100">
        <ele>1877.0</ele>
        <time>2015-07-25T12:01:14Z</time>
      </trkpt>
      <trkpt lat="40.422133" lon="-5.305033">
        <ele>1877.0</ele>
        <time>2015-07-25T12:01:15Z</time>
      </trkpt>
      <trkpt lat="40.422200" lon="-5.304967">
        <ele>1877.0</ele>
        <time>2015-07-25T12:01:16Z</time>
      </trkpt>
      <trkpt lat="40.422250" lon="-5.304900">
        <ele>1878.0</ele>
        <time>2015-07-25T12:01:17Z</time>
      </trkpt>
      <trkpt lat="40.422283" lon="-5.304817">
        <ele>1879.0</ele>
        <time>2015-07-25T12:01:18Z</time>
      </trkpt>
      <trkpt lat="40.422333" lon="-5.304733">
        <ele>1880.0</ele>
        <time>2015-07-25T12:01:19Z</time>
      </trkpt>
      <trkpt lat="40.422367" lon="-5.304633">
        <ele>1880.0</ele>
        <time>2015-07-25T12:01:20Z</time>
      </trkpt>
      <trkpt lat="40.422400" lon="-5.304533">
        <ele>1880.0</ele>
        <time>2015-07-25T12:01:21Z</time>
      </trkpt>
      <trkpt lat="40.422417" lon="-5.304417">
        <ele>1879.0</ele>
        <time>2015-07-25T12:01:22Z</time>
      </trkpt>
      <trkpt lat="40.422433" lon="-5.304283">
        <ele>1879.0</ele>
        <time>2015-07-25T12:01:23Z</time>
      </trkpt>
      <trkpt lat="40.422450" lon="-5.304167">
        <ele>1879.0</ele>
        <time>2015-07-25T12:01:24Z</time>
      </trkpt>
      <trkpt lat="40.422483" lon="-5.304050">
        <ele>1879.0</ele>
        <time>2015-07-25T12:01:25Z</time>
      </trkpt>
      <trkpt lat="40.422500" lon="-5.303917">
        <ele>1878.0</ele>
        <time>2015-07-25T12:01:26Z</time>
      </trkpt>
      <trkpt lat="40.422517" lon="-5.303783">
        <ele>1878.0</ele>
        <time>2015-07-25T12:01:27Z</time>
      </trkpt>
      <trkpt lat="40.422533" lon="-5.303633">
        <ele>1878.0</ele>
        <time>2015-07-25T12:01:28Z</time>
      </trkpt>
      <trkpt lat="40.422550" lon="-5.303483">
        <ele>1878.0</ele>
        <time>2015-07-25T12:01:29Z</time>
      </trkpt>
      <trkpt lat="40.422567" lon="-5.303333">
        <ele>1880.0</ele>
        <time>2015-07-25T12:01:30Z</time>
      </trkpt>
      <trkpt lat="40.422600" lon="-5.303200">
        <ele>1881.0</ele>
        <time>2015-07-25T12:01:31Z</time>
      </trkpt>
      <trkpt lat="40.422633" lon="-5.303083">
        <ele>1882.0</ele>
        <time>2015-07-25T12:01:32Z</time>
      </trkpt>
      <trkpt lat="40.422667" lon="-5.302983">
        <ele>1883.0</ele>
        <time>2015-07-25T12:01:33Z</time>
      </trkpt>
      <trkpt lat="40.422700" lon="-5.302883">
        <ele>1884.0</ele>
        <time>2015-07-25T12:01:34Z</time>
      </trkpt>
      <trkpt lat="40.422750" lon="-5.302817">
        <ele>1884.0</ele>
        <time>2015-07-25T12:01:35Z</time>
      </trkpt>
      <trkpt lat="40.422800" lon="-5.302750">
        <ele>1884.0</ele>
        <time>2015-07-25T12:01:36Z</time>
      </trkpt>
      <trkpt lat="40.422850" lon="-5.302683">
        <ele>1884.0</ele>
        <time>2015-07-25T12:01:37Z</time>
      </trkpt>
      <trkpt lat="40.422917" lon="-5.302633">
        <ele>1884.0</ele>
        <time>2015-07-25T12:01:38Z</time>
      </trkpt>
      <trkpt lat="40.422983" lon="-5.302633">
        <ele>1884.0</ele>
        <time>2015-07-25T12:01:39Z</time>
      </trkpt>
      <trkpt lat="40.423033" lon="-5.302683">
        <ele>1883.0</ele>
        <time>2015-07-25T12:01:40Z</time>
      </trkpt>
      <trkpt lat="40.423067" lon="-5.302767">
        <ele>1884.0</ele>
        <time>2015-07-25T12:01:41Z</time>
      </trkpt>
      <trkpt lat="40.423050" lon="-5.302850">
        <ele>1885.0</ele>
        <time>2015-07-25T12:01:42Z</time>
      </trkpt>
      <trkpt lat="40.423033" lon="-5.302917">
        <ele>1885.0</ele>
        <time>2015-07-25T12:01:43Z</time>
      </trkpt>
      <trkpt lat="40.423017" lon="-5.303000">
        <ele>1885.0</ele>
        <time>2015-07-25T12:01:44Z</time>
      </trkpt>
      <trkpt lat="40.422983" lon="-5.303067">
        <ele>1884.0</ele>
        <time>2015-07-25T12:01:45Z</time>
      </trkpt>
      <trkpt lat="40.422967" lon="-5.303150">
        <ele>1883.0</ele>
        <time>2015-07-25T12:01:46Z</time>
      </trkpt>
      <trkpt lat="40.422933" lon="-5.303250">
        <ele>1881.0</ele>
        <time>2015-07-25T12:01:47Z</time>
      </trkpt>
      <trkpt lat="40.422917" lon="-5.303350">
        <ele>1881.0</ele>
        <time>2015-07-25T12:01:48Z</time>
      </trkpt>
      <trkpt lat="40.422883" lon="-5.303467">
        <ele>1881.0</ele>
        <time>2015-07-25T12:01:49Z</time>
      </trkpt>
      <trkpt lat="40.422867" lon="-5.303567">
        <ele>1881.0</ele>
        <time>2015-07-25T12:01:50Z</time>
      </trkpt>
      <trkpt lat="40.422817" lon="-5.303667">
        <ele>1881.0</ele>
        <time>2015-07-25T12:01:51Z</time>
      </trkpt>
      <trkpt lat="40.422783" lon="-5.303783">
        <ele>1881.0</ele>
        <time>2015-07-25T12:01:52Z</time>
      </trkpt>
      <trkpt lat="40.422750" lon="-5.303900">
        <ele>1880.0</ele>
        <time>2015-07-25T12:01:53Z</time>
      </trkpt>
      <trkpt lat="40.422717" lon="-5.304033">
        <ele>1879.0</ele>
        <time>2015-07-25T12:01:54Z</time>
      </trkpt>
      <trkpt lat="40.422683" lon="-5.304167">
        <ele>1878.0</ele>
        <time>2015-07-25T12:01:55Z</time>
      </trkpt>
      <trkpt lat="40.422667" lon="-5.304283">
        <ele>1878.0</ele>
        <time>2015-07-25T12:01:56Z</time>
      </trkpt>
      <trkpt lat="40.422667" lon="-5.304400">
        <ele>1878.0</ele>
        <time>2015-07-25T12:01:57Z</time>
      </trkpt>
      <trkpt lat="40.422667" lon="-5.304517">
        <ele>1879.0</ele>
        <time>2015-07-25T12:01:58Z</time>
      </trkpt>
      <trkpt lat="40.422667" lon="-5.304617">
        <ele>1880.0</ele>
        <time>2015-07-25T12:01:59Z</time>
      </trkpt>
      <trkpt lat="40.422633" lon="-5.304717">
        <ele>1881.0</ele>
        <time>2015-07-25T12:02:00Z</time>
      </trkpt>
      <trkpt lat="40.422600" lon="-5.304817">
        <ele>1881.0</ele>
        <time>2015-07-25T12:02:01Z</time>
      </trkpt>
      <trkpt lat="40.422583" lon="-5.304900">
        <ele>1880.0</ele>
        <time>2015-07-25T12:02:02Z</time>
      </trkpt>
      <trkpt lat="40.422550" lon="-5.305017">
        <ele>1879.0</ele>
        <time>2015-07-25T12:02:03Z</time>
      </trkpt>
      <trkpt lat="40.422533" lon="-5.305133">
        <ele>1878.0</ele>
        <time>2015-07-25T12:02:04Z</time>
      </trkpt>
      <trkpt lat="40.422533" lon="-5.305250">
        <ele>1877.0</ele>
        <time>2015-07-25T12:02:05Z</time>
      </trkpt>
      <trkpt lat="40.422533" lon="-5.305367">
        <ele>1877.0</ele>
        <time>2015-07-25T12:02:06Z</time>
      </trkpt>
      <trkpt lat="40.422533" lon="-5.305500">
        <ele>1877.0</ele>
        <time>2015-07-25T12:02:07Z</time>
      </trkpt>
      <trkpt lat="40.422533" lon="-5.305633">
        <ele>1877.0</ele>
        <time>2015-07-25T12:02:08Z</time>
      </trkpt>
      <trkpt lat="40.422533" lon="-5.305750">
        <ele>1878.0</ele>
        <time>2015-07-25T12:02:09Z</time>
      </trkpt>
      <trkpt lat="40.422517" lon="-5.305867">
        <ele>1880.0</ele>
        <time>2015-07-25T12:02:10Z</time>
      </trkpt>
      <trkpt lat="40.422500" lon="-5.305967">
        <ele>1880.0</ele>
        <time>2015-07-25T12:02:11Z</time>
      </trkpt>
      <trkpt lat="40.422500" lon="-5.306083">
        <ele>1879.0</ele>
        <time>2015-07-25T12:02:12Z</time>
      </trkpt>
      <trkpt lat="40.422500" lon="-5.306200">
        <ele>1879.0</ele>
        <time>2015-07-25T12:02:13Z</time>
      </trkpt>
      <trkpt lat="40.422500" lon="-5.306333">
        <ele>1879.0</ele>
        <time>2015-07-25T12:02:14Z</time>
      </trkpt>
      <trkpt lat="40.422483" lon="-5.306433">
        <ele>1879.0</ele>
        <time>2015-07-25T12:02:15Z</time>
      </trkpt>
      <trkpt lat="40.422483" lon="-5.306533">
        <ele>1878.0</ele>
        <time>2015-07-25T12:02:16Z</time>
      </trkpt>
      <trkpt lat="40.422467" lon="-5.306633">
        <ele>1876.0</ele>
        <time>2015-07-25T12:02:17Z</time>
      </trkpt>
      <trkpt lat="40.422467" lon="-5.306733">
        <ele>1874.0</ele>
        <time>2015-07-25T12:02:18Z</time>
      </trkpt>
      <trkpt lat="40.422500" lon="-5.306867">
        <ele>1871.0</ele>
        <time>2015-07-25T12:02:19Z</time>
      </trkpt>
      <trkpt lat="40.422533" lon="-5.307000">
        <ele>1869.0</ele>
        <time>2015-07-25T12:02:20Z</time>
      </trkpt>
      <trkpt lat="40.422583" lon="-5.307117">
        <ele>1871.0</ele>
        <time>2015-07-25T12:02:21Z</time>
      </trkpt>
      <trkpt lat="40.422600" lon="-5.307233">
        <ele>1872.0</ele>
        <time>2015-07-25T12:02:22Z</time>
      </trkpt>
      <trkpt lat="40.422617" lon="-5.307350">
        <ele>1873.0</ele>
        <time>2015-07-25T12:02:23Z</time>
      </trkpt>
      <trkpt lat="40.422633" lon="-5.307450">
        <ele>1873.0</ele>
        <time>2015-07-25T12:02:24Z</time>
      </trkpt>
      <trkpt lat="40.422633" lon="-5.307567">
        <ele>1872.0</ele>
        <time>2015-07-25T12:02:25Z</time>
      </trkpt>
      <trkpt lat="40.422650" lon="-5.307700">
        <ele>1871.0</ele>
        <time>2015-07-25T12:02:26Z</time>
      </trkpt>
      <trkpt lat="40.422667" lon="-5.307817">
        <ele>1870.0</ele>
        <time>2015-07-25T12:02:27Z</time>
      </trkpt>
      <trkpt lat="40.422683" lon="-5.307933">
        <ele>1870.0</ele>
        <time>2015-07-25T12:02:28Z</time>
      </trkpt>
      <trkpt lat="40.422717" lon="-5.308067">
        <ele>1869.0</ele>
        <time>2015-07-25T12:02:29Z</time>
      </trkpt>
      <trkpt lat="40.422750" lon="-5.308183">
        <ele>1869.0</ele>
        <time>2015-07-25T12:02:30Z</time>
      </trkpt>
      <trkpt lat="40.422783" lon="-5.308317">
        <ele>1869.0</ele>
        <time>2015-07-25T12:02:31Z</time>
      </trkpt>
      <trkpt lat="40.422800" lon="-5.308433">
        <ele>1869.0</ele>
        <time>2015-07-25T12:02:32Z</time>
      </trkpt>
      <trkpt lat="40.422833" lon="-5.308550">
        <ele>1868.0</ele>
        <time>2015-07-25T12:02:33Z</time>
      </trkpt>
      <trkpt lat="40.422867" lon="-5.308683">
        <ele>1868.0</ele>
        <time>2015-07-25T12:02:34Z</time>
      </trkpt>
      <trkpt lat="40.422867" lon="-5.308833">
        <ele>1868.0</ele>
        <time>2015-07-25T12:02:35Z</time>
      </trkpt>
      <trkpt lat="40.422867" lon="-5.308967">
        <ele>1869.0</ele>
        <time>2015-07-25T12:02:36Z</time>
      </trkpt>
      <trkpt lat="40.422850" lon="-5.309100">
        <ele>1869.0</ele>
        <time>2015-07-25T12:02:37Z</time>
      </trkpt>
      <trkpt lat="40.422817" lon="-5.309250">
        <ele>1870.0</ele>
        <time>2015-07-25T12:02:38Z</time>
      </trkpt>
      <trkpt lat="40.422783" lon="-5.309383">
        <ele>1870.0</ele>
        <time>2015-07-25T12:02:39Z</time>
      </trkpt>
      <trkpt lat="40.422767" lon="-5.309533">
        <ele>1870.0</ele>
        <time>2015-07-25T12:02:40Z</time>
      </trkpt>
      <trkpt lat="40.422750" lon="-5.309650">
        <ele>1871.0</ele>
        <time>2015-07-25T12:02:41Z</time>
      </trkpt>
      <trkpt lat="40.422733" lon="-5.309783">
        <ele>1872.0</ele>
        <time>2015-07-25T12:02:42Z</time>
      </trkpt>
      <trkpt lat="40.422733" lon="-5.309900">
        <ele>1874.0</ele>
        <time>2015-07-25T12:02:43Z</time>
      </trkpt>
      <trkpt lat="40.422733" lon="-5.310017">
        <ele>1877.0</ele>
        <time>2015-07-25T12:02:44Z</time>
      </trkpt>
      <trkpt lat="40.422733" lon="-5.310100">
        <ele>1879.0</ele>
        <time>2015-07-25T12:02:45Z</time>
      </trkpt>
      <trkpt lat="40.422767" lon="-5.310167">
        <ele>1881.0</ele>
        <time>2015-07-25T12:02:46Z</time>
      </trkpt>
      <trkpt lat="40.422817" lon="-5.310183">
        <ele>1882.0</ele>
        <time>2015-07-25T12:02:47Z</time>
      </trkpt>
      <trkpt lat="40.422883" lon="-5.310167">
        <ele>1883.0</ele>
        <time>2015-07-25T12:02:48Z</time>
      </trkpt>
      <trkpt lat="40.422933" lon="-5.310083">
        <ele>1885.0</ele>
        <time>2015-07-25T12:02:49Z</time>
      </trkpt>
      <trkpt lat="40.422933" lon="-5.309950">
        <ele>1886.0</ele>
        <time>2015-07-25T12:02:50Z</time>
      </trkpt>
      <trkpt lat="40.422900" lon="-5.309800">
        <ele>1888.0</ele>
        <time>2015-07-25T12:02:51Z</time>
      </trkpt>
      <trkpt lat="40.422817" lon="-5.309667">
        <ele>1890.0</ele>
        <time>2015-07-25T12:02:52Z</time>
      </trkpt>
      <trkpt lat="40.422717" lon="-5.309567">
        <ele>1893.0</ele>
        <time>2015-07-25T12:02:53Z</time>
      </trkpt>
      <trkpt lat="40.422633" lon="-5.309483">
        <ele>1897.0</ele>
        <time>2015-07-25T12:02:54Z</time>
      </trkpt>
      <trkpt lat="40.422600" lon="-5.309400">
        <ele>1899.0</ele>
        <time>2015-07-25T12:02:55Z</time>
      </trkpt>
      <trkpt lat="40.422600" lon="-5.309333">
        <ele>1897.0</ele>
        <time>2015-07-25T12:02:56Z</time>
      </trkpt>
      <trkpt lat="40.422633" lon="-5.309250">
        <ele>1895.0</ele>
        <time>2015-07-25T12:02:57Z</time>
      </trkpt>
      <trkpt lat="40.422683" lon="-5.309200">
        <ele>1892.0</ele>
        <time>2015-07-25T12:02:58Z</time>
      </trkpt>
      <trkpt lat="40.422767" lon="-5.309217">
        <ele>1891.0</ele>
        <time>2015-07-25T12:02:59Z</time>
      </trkpt>
      <trkpt lat="40.422833" lon="-5.309283">
        <ele>1889.0</ele>
        <time>2015-07-25T12:03:00Z</time>
      </trkpt>
      <trkpt lat="40.422883" lon="-5.309417">
        <ele>1889.0</ele>
        <time>2015-07-25T12:03:01Z</time>
      </trkpt>
      <trkpt lat="40.422867" lon="-5.309567">
        <ele>1890.0</ele>
        <time>2015-07-25T12:03:02Z</time>
      </trkpt>
      <trkpt lat="40.422833" lon="-5.309717">
        <ele>1894.0</ele>
        <time>2015-07-25T12:03:03Z</time>
      </trkpt>
      <trkpt lat="40.422800" lon="-5.309833">
        <ele>1899.0</ele>
        <time>2015-07-25T12:03:04Z</time>
      </trkpt>
      <trkpt lat="40.422800" lon="-5.309917">
        <ele>1904.0</ele>
        <time>2015-07-25T12:03:05Z</time>
      </trkpt>
      <trkpt lat="40.422800" lon="-5.310000">
        <ele>1906.0</ele>
        <time>2015-07-25T12:03:06Z</time>
      </trkpt>
      <trkpt lat="40.422817" lon="-5.310067">
        <ele>1909.0</ele>
        <time>2015-07-25T12:03:07Z</time>
      </trkpt>
      <trkpt lat="40.422817" lon="-5.310133">
        <ele>1910.0</ele>
        <time>2015-07-25T12:03:08Z</time>
      </trkpt>
      <trkpt lat="40.422850" lon="-5.310183">
        <ele>1910.0</ele>
        <time>2015-07-25T12:03:09Z</time>
      </trkpt>
      <trkpt lat="40.422900" lon="-5.310200">
        <ele>1909.0</ele>
        <time>2015-07-25T12:03:10Z</time>
      </trkpt>
      <trkpt lat="40.422950" lon="-5.310167">
        <ele>1908.0</ele>
        <time>2015-07-25T12:03:11Z</time>
      </trkpt>
      <trkpt lat="40.423000" lon="-5.310083">
        <ele>1909.0</ele>
        <time>2015-07-25T12:03:12Z</time>
      </trkpt>
      <trkpt lat="40.423033" lon="-5.309983">
        <ele>1910.0</ele>
        <time>2015-07-25T12:03:13Z</time>
      </trkpt>
      <trkpt lat="40.423033" lon="-5.309867">
        <ele>1911.0</ele>
        <time>2015-07-25T12:03:14Z</time>
      </trkpt>
      <trkpt lat="40.423033" lon="-5.309750">
        <ele>1912.0</ele>
        <time>2015-07-25T12:03:15Z</time>
      </trkpt>
      <trkpt lat="40.423033" lon="-5.309633">
        <ele>1913.0</ele>
        <time>2015-07-25T12:03:16Z</time>
      </trkpt>
      <trkpt lat="40.423067" lon="-5.309533">
        <ele>1914.0</ele>
        <time>2015-07-25T12:03:17Z</time>
      </trkpt>
      <trkpt lat="40.423100" lon="-5.309467">
        <ele>1915.0</ele>
        <time>2015-07-25T12:03:18Z</time>
      </trkpt>
      <trkpt lat="40.423150" lon="-5.309417">
        <ele>1916.0</ele>
        <time>2015-07-25T12:03:19Z</time>
      </trkpt>
      <trkpt lat="40.423200" lon="-5.309400">
        <ele>1917.0</ele>
        <time>2015-07-25T12:03:20Z</time>
      </trkpt>
      <trkpt lat="40.423267" lon="-5.309400">
        <ele>1918.0</ele>
        <time>2015-07-25T12:03:21Z</time>
      </trkpt>
      <trkpt lat="40.423317" lon="-5.309417">
        <ele>1918.0</ele>
        <time>2015-07-25T12:03:22Z</time>
      </trkpt>
      <trkpt lat="40.423383" lon="-5.309450">
        <ele>1919.0</ele>
        <time>2015-07-25T12:03:23Z</time>
      </trkpt>
      <trkpt lat="40.423450" lon="-5.309500">
        <ele>1921.0</ele>
        <time>2015-07-25T12:03:24Z</time>
      </trkpt>
      <trkpt lat="40.423517" lon="-5.309567">
        <ele>1923.0</ele>
        <time>2015-07-25T12:03:25Z</time>
      </trkpt>
      <trkpt lat="40.423567" lon="-5.309617">
        <ele>1925.0</ele>
        <time>2015-07-25T12:03:26Z</time>
      </trkpt>
      <trkpt lat="40.423600" lon="-5.309683">
        <ele>1928.0</ele>
        <time>2015-07-25T12:03:27Z</time>
      </trkpt>
      <trkpt lat="40.423633" lon="-5.309783">
        <ele>1929.0</ele>
        <time>2015-07-25T12:03:28Z</time>
      </trkpt>
      <trkpt lat="40.423633" lon="-5.309917">
        <ele>1929.0</ele>
        <time>2015-07-25T12:03:29Z</time>
      </trkpt>
      <trkpt lat="40.423583" lon="-5.310067">
        <ele>1927.0</ele>
        <time>2015-07-25T12:03:30Z</time>
      </trkpt>
      <trkpt lat="40.423500" lon="-5.310200">
        <ele>1926.0</ele>
        <time>2015-07-25T12:03:31Z</time>
      </trkpt>
      <trkpt lat="40.423350" lon="-5.310300">
        <ele>1925.0</ele>
        <time>2015-07-25T12:03:32Z</time>
      </trkpt>
      <trkpt lat="40.423200" lon="-5.310333">
        <ele>1924.0</ele>
        <time>2015-07-25T12:03:33Z</time>
      </trkpt>
      <trkpt lat="40.423050" lon="-5.310283">
        <ele>1923.0</ele>
        <time>2015-07-25T12:03:34Z</time>
      </trkpt>
      <trkpt lat="40.422933" lon="-5.310167">
        <ele>1922.0</ele>
        <time>2015-07-25T12:03:35Z</time>
      </trkpt>
      <trkpt lat="40.422850" lon="-5.310033">
        <ele>1921.0</ele>
        <time>2015-07-25T12:03:36Z</time>
      </trkpt>
      <trkpt lat="40.422800" lon="-5.309883">
        <ele>1922.0</ele>
        <time>2015-07-25T12:03:37Z</time>
      </trkpt>
      <trkpt lat="40.422767" lon="-5.309750">
        <ele>1924.0</ele>
        <time>2015-07-25T12:03:38Z</time>
      </trkpt>
      <trkpt lat="40.422750" lon="-5.309650">
        <ele>1927.0</ele>
        <time>2015-07-25T12:03:39Z</time>
      </trkpt>
      <trkpt lat="40.422733" lon="-5.309567">
        <ele>1929.0</ele>
        <time>2015-07-25T12:03:40Z</time>
      </trkpt>
      <trkpt lat="40.422733" lon="-5.309467">
        <ele>1931.0</ele>
        <time>2015-07-25T12:03:41Z</time>
      </trkpt>
      <trkpt lat="40.422750" lon="-5.309383">
        <ele>1933.0</ele>
        <time>2015-07-25T12:03:42Z</time>
      </trkpt>
      <trkpt lat="40.422817" lon="-5.309283">
        <ele>1934.0</ele>
        <time>2015-07-25T12:03:43Z</time>
      </trkpt>
      <trkpt lat="40.422883" lon="-5.309250">
        <ele>1936.0</ele>
        <time>2015-07-25T12:03:44Z</time>
      </trkpt>
      <trkpt lat="40.422967" lon="-5.309267">
        <ele>1938.0</ele>
        <time>2015-07-25T12:03:45Z</time>
      </trkpt>
      <trkpt lat="40.423050" lon="-5.309333">
        <ele>1943.0</ele>
        <time>2015-07-25T12:03:46Z</time>
      </trkpt>
      <trkpt lat="40.423083" lon="-5.309383">
        <ele>1948.0</ele>
        <time>2015-07-25T12:03:47Z</time>
      </trkpt>
      <trkpt lat="40.423117" lon="-5.309450">
        <ele>1952.0</ele>
        <time>2015-07-25T12:03:48Z</time>
      </trkpt>
      <trkpt lat="40.423133" lon="-5.309533">
        <ele>1954.0</ele>
        <time>2015-07-25T12:03:49Z</time>
      </trkpt>
      <trkpt lat="40.423133" lon="-5.309650">
        <ele>1954.0</ele>
        <time>2015-07-25T12:03:50Z</time>
      </trkpt>
      <trkpt lat="40.423100" lon="-5.309800">
        <ele>1954.0</ele>
        <time>2015-07-25T12:03:51Z</time>
      </trkpt>
      <trkpt lat="40.423017" lon="-5.309950">
        <ele>1954.0</ele>
        <time>2015-07-25T12:03:52Z</time>
      </trkpt>
      <trkpt lat="40.422867" lon="-5.310067">
        <ele>1954.0</ele>
        <time>2015-07-25T12:03:53Z</time>
      </trkpt>
      <trkpt lat="40.422717" lon="-5.310133">
        <ele>1955.0</ele>
        <time>2015-07-25T12:03:54Z</time>
      </trkpt>
      <trkpt lat="40.422567" lon="-5.310117">
        <ele>1956.0</ele>
        <time>2015-07-25T12:03:55Z</time>
      </trkpt>
      <trkpt lat="40.422433" lon="-5.310050">
        <ele>1957.0</ele>
        <time>2015-07-25T12:03:56Z</time>
      </trkpt>
      <trkpt lat="40.422333" lon="-5.309933">
        <ele>1958.0</ele>
        <time>2015-07-25T12:03:57Z</time>
      </trkpt>
      <trkpt lat="40.422267" lon="-5.309817">
        <ele>1958.0</ele>
        <time>2015-07-25T12:03:58Z</time>
      </trkpt>
      <trkpt lat="40.422200" lon="-5.309700">
        <ele>1960.0</ele>
        <time>2015-07-25T12:03:59Z</time>
      </trkpt>
      <trkpt lat="40.422167" lon="-5.309583">
        <ele>1961.0</ele>
        <time>2015-07-25T12:04:00Z</time>
      </trkpt>
      <trkpt lat="40.422167" lon="-5.309467">
        <ele>1962.0</ele>
        <time>2015-07-25T12:04:01Z</time>
      </trkpt>
      <trkpt lat="40.422167" lon="-5.309350">
        <ele>1963.0</ele>
        <time>2015-07-25T12:04:02Z</time>
      </trkpt>
      <trkpt lat="40.422217" lon="-5.309250">
        <ele>1963.0</ele>
        <time>2015-07-25T12:04:03Z</time>
      </trkpt>
      <trkpt lat="40.422267" lon="-5.309167">
        <ele>1964.0</ele>
        <time>2015-07-25T12:04:04Z</time>
      </trkpt>
      <trkpt lat="40.422333" lon="-5.309133">
        <ele>1965.0</ele>
        <time>2015-07-25T12:04:05Z</time>
      </trkpt>
      <trkpt lat="40.422383" lon="-5.309133">
        <ele>1967.0</ele>
        <time>2015-07-25T12:04:06Z</time>
      </trkpt>
      <trkpt lat="40.422433" lon="-5.309167">
        <ele>1969.0</ele>
        <time>2015-07-25T12:04:07Z</time>
      </trkpt>
      <trkpt lat="40.422483" lon="-5.309217">
        <ele>1970.0</ele>
        <time>2015-07-25T12:04:08Z</time>
      </trkpt>
      <trkpt lat="40.422533" lon="-5.309300">
        <ele>1971.0</ele>
        <time>2015-07-25T12:04:09Z</time>
      </trkpt>
      <trkpt lat="40.422567" lon="-5.309417">
        <ele>1971.0</ele>
        <time>2015-07-25T12:04:10Z</time>
      </trkpt>
      <trkpt lat="40.422583" lon="-5.309550">
        <ele>1973.0</ele>
        <time>2015-07-25T12:04:11Z</time>
      </trkpt>
      <trkpt lat="40.422550" lon="-5.309683">
        <ele>1974.0</ele>
        <time>2015-07-25T12:04:12Z</time>
      </trkpt>
      <trkpt lat="40.422517" lon="-5.309850">
        <ele>1975.0</ele>
        <time>2015-07-25T12:04:13Z</time>
      </trkpt>
      <trkpt lat="40.422433" lon="-5.309983">
        <ele>1976.0</ele>
        <time>2015-07-25T12:04:14Z</time>
      </trkpt>
      <trkpt lat="40.422317" lon="-5.310100">
        <ele>1976.0</ele>
        <time>2015-07-25T12:04:15Z</time>
      </trkpt>
      <trkpt lat="40.422167" lon="-5.310183">
        <ele>1975.0</ele>
        <time>2015-07-25T12:04:16Z</time>
      </trkpt>
      <trkpt lat="40.422000" lon="-5.310200">
        <ele>1974.0</ele>
        <time>2015-07-25T12:04:17Z</time>
      </trkpt>
      <trkpt lat="40.421833" lon="-5.310183">
        <ele>1974.0</ele>
        <time>2015-07-25T12:04:18Z</time>
      </trkpt>
      <trkpt lat="40.421700" lon="-5.310100">
        <ele>1973.0</ele>
        <time>2015-07-25T12:04:19Z</time>
      </trkpt>
      <trkpt lat="40.421583" lon="-5.309983">
        <ele>1972.0</ele>
        <time>2015-07-25T12:04:20Z</time>
      </trkpt>
      <trkpt lat="40.421517" lon="-5.309833">
        <ele>1971.0</ele>
        <time>2015-07-25T12:04:21Z</time>
      </trkpt>
      <trkpt lat="40.421450" lon="-5.309683">
        <ele>1972.0</ele>
        <time>2015-07-25T12:04:22Z</time>
      </trkpt>
      <trkpt lat="40.421417" lon="-5.309550">
        <ele>1973.0</ele>
        <time>2015-07-25T12:04:23Z</time>
      </trkpt>
      <trkpt lat="40.421417" lon="-5.309433">
        <ele>1974.0</ele>
        <time>2015-07-25T12:04:24Z</time>
      </trkpt>
      <trkpt lat="40.421433" lon="-5.309333">
        <ele>1974.0</ele>
        <time>2015-07-25T12:04:25Z</time>
      </trkpt>
      <trkpt lat="40.421467" lon="-5.309250">
        <ele>1973.0</ele>
        <time>2015-07-25T12:04:26Z</time>
      </trkpt>
      <trkpt lat="40.421533" lon="-5.309200">
        <ele>1973.0</ele>
        <time>2015-07-25T12:04:27Z</time>
      </trkpt>
      <trkpt lat="40.421600" lon="-5.309167">
        <ele>1973.0</ele>
        <time>2015-07-25T12:04:28Z</time>
      </trkpt>
      <trkpt lat="40.421667" lon="-5.309150">
        <ele>1973.0</ele>
        <time>2015-07-25T12:04:29Z</time>
      </trkpt>
      <trkpt lat="40.421750" lon="-5.309150">
        <ele>1975.0</ele>
        <time>2015-07-25T12:04:30Z</time>
      </trkpt>
      <trkpt lat="40.421833" lon="-5.309133">
        <ele>1977.0</ele>
        <time>2015-07-25T12:04:31Z</time>
      </trkpt>
      <trkpt lat="40.421917" lon="-5.309150">
        <ele>1980.0</ele>
        <time>2015-07-25T12:04:32Z</time>
      </trkpt>
      <trkpt lat="40.421983" lon="-5.309167">
        <ele>1985.0</ele>
        <time>2015-07-25T12:04:33Z</time>
      </trkpt>
      <trkpt lat="40.422050" lon="-5.309217">
        <ele>1990.0</ele>
        <time>2015-07-25T12:04:34Z</time>
      </trkpt>
      <trkpt lat="40.422117" lon="-5.309250">
        <ele>1994.0</ele>
        <time>2015-07-25T12:04:35Z</time>
      </trkpt>
      <trkpt lat="40.422167" lon="-5.309283">
        <ele>1998.0</ele>
        <time>2015-07-25T12:04:36Z</time>
      </trkpt>
      <trkpt lat="40.422233" lon="-5.309283">
        <ele>2003.0</ele>
        <time>2015-07-25T12:04:37Z</time>
      </trkpt>
      <trkpt lat="40.422300" lon="-5.309283">
        <ele>2008.0</ele>
        <time>2015-07-25T12:04:38Z</time>
      </trkpt>
      <trkpt lat="40.422350" lon="-5.309267">
        <ele>2013.0</ele>
        <time>2015-07-25T12:04:39Z</time>
      </trkpt>
      <trkpt lat="40.422400" lon="-5.309267">
        <ele>2018.0</ele>
        <time>2015-07-25T12:04:40Z</time>
      </trkpt>
      <trkpt lat="40.422433" lon="-5.309300">
        <ele>2022.0</ele>
        <time>2015-07-25T12:04:41Z</time>
      </trkpt>
      <trkpt lat="40.422450" lon="-5.309383">
        <ele>2025.0</ele>
        <time>2015-07-25T12:04:42Z</time>
      </trkpt>
      <trkpt lat="40.422433" lon="-5.309483">
        <ele>2027.0</ele>
        <time>2015-07-25T12:04:43Z</time>
      </trkpt>
      <trkpt lat="40.422400" lon="-5.309617">
        <ele>2027.0</ele>
        <time>2015-07-25T12:04:44Z</time>
      </trkpt>
      <trkpt lat="40.422333" lon="-5.309750">
        <ele>2026.0</ele>
        <time>2015-07-25T12:04:45Z</time>
      </trkpt>
      <trkpt lat="40.422217" lon="-5.309867">
        <ele>2024.0</ele>
        <time>2015-07-25T12:04:46Z</time>
      </trkpt>
      <trkpt lat="40.422100" lon="-5.309967">
        <ele>2023.0</ele>
        <time>2015-07-25T12:04:47Z</time>
      </trkpt>
      <trkpt lat="40.421967" lon="-5.310033">
        <ele>2023.0</ele>
        <time>2015-07-25T12:04:48Z</time>
      </trkpt>
      <trkpt lat="40.421817" lon="-5.310083">
        <ele>2023.0</ele>
        <time>2015-07-25T12:04:49Z</time>
      </trkpt>
      <trkpt lat="40.421667" lon="-5.310100">
        <ele>2022.0</ele>
        <time>2015-07-25T12:04:50Z</time>
      </trkpt>
      <trkpt lat="40.421500" lon="-5.310117">
        <ele>2023.0</ele>
        <time>2015-07-25T12:04:51Z</time>
      </trkpt>
      <trkpt lat="40.421350" lon="-5.310117">
        <ele>2025.0</ele>
        <time>2015-07-25T12:04:52Z</time>
      </trkpt>
      <trkpt lat="40.421233" lon="-5.310100">
        <ele>2029.0</ele>
        <time>2015-07-25T12:04:53Z</time>
      </trkpt>
      <trkpt lat="40.421133" lon="-5.310083">
        <ele>2031.0</ele>
        <time>2015-07-25T12:04:54Z</time>
      </trkpt>
      <trkpt lat="40.421033" lon="-5.310050">
        <ele>2032.0</ele>
        <time>2015-07-25T12:04:55Z</time>
      </trkpt>
      <trkpt lat="40.420933" lon="-5.310017">
        <ele>2032.0</ele>
        <time>2015-07-25T12:04:56Z</time>
      </trkpt>
      <trkpt lat="40.420850" lon="-5.309967">
        <ele>2032.0</ele>
        <time>2015-07-25T12:04:57Z</time>
      </trkpt>
      <trkpt lat="40.420767" lon="-5.309900">
        <ele>2031.0</ele>
        <time>2015-07-25T12:04:58Z</time>
      </trkpt>
      <trkpt lat="40.420717" lon="-5.309817">
        <ele>2029.0</ele>
        <time>2015-07-25T12:04:59Z</time>
      </trkpt>
      <trkpt lat="40.420650" lon="-5.309717">
        <ele>2028.0</ele>
        <time>2015-07-25T12:05:00Z</time>
      </trkpt>
      <trkpt lat="40.420600" lon="-5.309617">
        <ele>2028.0</ele>
        <time>2015-07-25T12:05:01Z</time>
      </trkpt>
      <trkpt lat="40.420533" lon="-5.309517">
        <ele>2028.0</ele>
        <time>2015-07-25T12:05:02Z</time>
      </trkpt>
      <trkpt lat="40.420500" lon="-5.309400">
        <ele>2029.0</ele>
        <time>2015-07-25T12:05:03Z</time>
      </trkpt>
      <trkpt lat="40.420483" lon="-5.309283">
        <ele>2030.0</ele>
        <time>2015-07-25T12:05:04Z</time>
      </trkpt>
      <trkpt lat="40.420517" lon="-5.309167">
        <ele>2032.0</ele>
        <time>2015-07-25T12:05:05Z</time>
      </trkpt>
      <trkpt lat="40.420550" lon="-5.309083">
        <ele>2036.0</ele>
        <time>2015-07-25T12:05:06Z</time>
      </trkpt>
      <trkpt lat="40.420600" lon="-5.309033">
        <ele>2040.0</ele>
        <time>2015-07-25T12:05:07Z</time>
      </trkpt>
      <trkpt lat="40.420650" lon="-5.309000">
        <ele>2045.0</ele>
        <time>2015-07-25T12:05:08Z</time>
      </trkpt>
      <trkpt lat="40.420683" lon="-5.308967">
        <ele>2049.0</ele>
        <time>2015-07-25T12:05:09Z</time>
      </trkpt>
      <trkpt lat="40.420717" lon="-5.308950">
        <ele>2054.0</ele>
        <time>2015-07-25T12:05:10Z</time>
      </trkpt>
      <trkpt lat="40.420750" lon="-5.308933">
        <ele>2058.0</ele>
        <time>2015-07-25T12:05:11Z</time>
      </trkpt>
      <trkpt lat="40.420783" lon="-5.308933">
        <ele>2060.0</ele>
        <time>2015-07-25T12:05:12Z</time>
      </trkpt>
      <trkpt lat="40.420817" lon="-5.308950">
        <ele>2062.0</ele>
        <time>2015-07-25T12:05:13Z</time>
      </trkpt>
      <trkpt lat="40.420833" lon="-5.309000">
        <ele>2063.0</ele>
        <time>2015-07-25T12:05:14Z</time>
      </trkpt>
      <trkpt lat="40.420850" lon="-5.309083">
        <ele>2064.0</ele>
        <time>2015-07-25T12:05:15Z</time>
      </trkpt>
      <trkpt lat="40.420817" lon="-5.309183">
        <ele>2064.0</ele>
        <time>2015-07-25T12:05:16Z</time>
      </trkpt>
      <trkpt lat="40.420733" lon="-5.309317">
        <ele>2062.0</ele>
        <time>2015-07-25T12:05:17Z</time>
      </trkpt>
      <trkpt lat="40.420600" lon="-5.309400">
        <ele>2060.0</ele>
        <time>2015-07-25T12:05:18Z</time>
      </trkpt>
      <trkpt lat="40.420433" lon="-5.309417">
        <ele>2059.0</ele>
        <time>2015-07-25T12:05:19Z</time>
      </trkpt>
      <trkpt lat="40.420283" lon="-5.309317">
        <ele>2061.0</ele>
        <time>2015-07-25T12:05:20Z</time>
      </trkpt>
      <trkpt lat="40.420183" lon="-5.309167">
        <ele>2066.0</ele>
        <time>2015-07-25T12:05:21Z</time>
      </trkpt>
      <trkpt lat="40.420117" lon="-5.309067">
        <ele>2076.0</ele>
        <time>2015-07-25T12:05:22Z</time>
      </trkpt>
      <trkpt lat="40.420033" lon="-5.309017">
        <ele>2084.0</ele>
        <time>2015-07-25T12:05:23Z</time>
      </trkpt>
      <trkpt lat="40.419950" lon="-5.309000">
        <ele>2090.0</ele>
        <time>2015-07-25T12:05:24Z</time>
      </trkpt>
      <trkpt lat="40.419833" lon="-5.308983">
        <ele>2094.0</ele>
        <time>2015-07-25T12:05:25Z</time>
      </trkpt>
      <trkpt lat="40.419750" lon="-5.308917">
        <ele>2095.0</ele>
        <time>2015-07-25T12:05:26Z</time>
      </trkpt>
      <trkpt lat="40.419700" lon="-5.308817">
        <ele>2092.0</ele>
        <time>2015-07-25T12:05:27Z</time>
      </trkpt>
      <trkpt lat="40.419667" lon="-5.308700">
        <ele>2092.0</ele>
        <time>2015-07-25T12:05:28Z</time>
      </trkpt>
      <trkpt lat="40.419667" lon="-5.308583">
        <ele>2093.0</ele>
        <time>2015-07-25T12:05:29Z</time>
      </trkpt>
      <trkpt lat="40.419683" lon="-5.308500">
        <ele>2096.0</ele>
        <time>2015-07-25T12:05:30Z</time>
      </trkpt>
      <trkpt lat="40.419717" lon="-5.308450">
        <ele>2097.0</ele>
        <time>2015-07-25T12:05:31Z</time>
      </trkpt>
      <trkpt lat="40.419767" lon="-5.308400">
        <ele>2098.0</ele>
        <time>2015-07-25T12:05:32Z</time>
      </trkpt>
      <trkpt lat="40.419817" lon="-5.308350">
        <ele>2099.0</ele>
        <time>2015-07-25T12:05:33Z</time>
      </trkpt>
      <trkpt lat="40.419867" lon="-5.308300">
        <ele>2101.0</ele>
        <time>2015-07-25T12:05:34Z</time>
      </trkpt>
      <trkpt lat="40.419917" lon="-5.308233">
        <ele>2103.0</ele>
        <time>2015-07-25T12:05:35Z</time>
      </trkpt>
      <trkpt lat="40.419967" lon="-5.308183">
        <ele>2106.0</ele>
        <time>2015-07-25T12:05:36Z</time>
      </trkpt>
      <trkpt lat="40.420000" lon="-5.308133">
        <ele>2109.0</ele>
        <time>2015-07-25T12:05:37Z</time>
      </trkpt>
      <trkpt lat="40.420050" lon="-5.308100">
        <ele>2113.0</ele>
        <time>2015-07-25T12:05:38Z</time>
      </trkpt>
      <trkpt lat="40.420083" lon="-5.308067">
        <ele>2115.0</ele>
        <time>2015-07-25T12:05:39Z</time>
      </trkpt>
      <trkpt lat="40.420133" lon="-5.308033">
        <ele>2117.0</ele>
        <time>2015-07-25T12:05:40Z</time>
      </trkpt>
      <trkpt lat="40.420183" lon="-5.308033">
        <ele>2117.0</ele>
        <time>2015-07-25T12:05:41Z</time>
      </trkpt>
      <trkpt lat="40.420217" lon="-5.308050">
        <ele>2117.0</ele>
        <time>2015-07-25T12:05:42Z</time>
      </trkpt>
      <trkpt lat="40.420250" lon="-5.308083">
        <ele>2116.0</ele>
        <time>2015-07-25T12:05:43Z</time>
      </trkpt>
      <trkpt lat="40.420300" lon="-5.308117">
        <ele>2114.0</ele>
        <time>2015-07-25T12:05:44Z</time>
      </trkpt>
      <trkpt lat="40.420350" lon="-5.308150">
        <ele>2110.0</ele>
        <time>2015-07-25T12:05:45Z</time>
      </trkpt>
      <trkpt lat="40.420400" lon="-5.308183">
        <ele>2108.0</ele>
        <time>2015-07-25T12:05:46Z</time>
      </trkpt>
      <trkpt lat="40.420467" lon="-5.308200">
        <ele>2106.0</ele>
        <time>2015-07-25T12:05:47Z</time>
      </trkpt>
      <trkpt lat="40.420533" lon="-5.308200">
        <ele>2105.0</ele>
        <time>2015-07-25T12:05:48Z</time>
      </trkpt>
      <trkpt lat="40.420583" lon="-5.308167">
        <ele>2103.0</ele>
        <time>2015-07-25T12:05:49Z</time>
      </trkpt>
      <trkpt lat="40.420633" lon="-5.308133">
        <ele>2101.0</ele>
        <time>2015-07-25T12:05:50Z</time>
      </trkpt>
      <trkpt lat="40.420700" lon="-5.308083">
        <ele>2100.0</ele>
        <time>2015-07-25T12:05:51Z</time>
      </trkpt>
      <trkpt lat="40.420750" lon="-5.308033">
        <ele>2098.0</ele>
        <time>2015-07-25T12:05:52Z</time>
      </trkpt>
      <trkpt lat="40.420783" lon="-5.307950">
        <ele>2096.0</ele>
        <time>2015-07-25T12:05:53Z</time>
      </trkpt>
      <trkpt lat="40.420817" lon="-5.307867">
        <ele>2094.0</ele>
        <time>2015-07-25T12:05:54Z</time>
      </trkpt>
      <trkpt lat="40.420833" lon="-5.307767">
        <ele>2092.0</ele>
        <time>2015-07-25T12:05:55Z</time>
      </trkpt>
      <trkpt lat="40.420867" lon="-5.307667">
        <ele>2091.0</ele>
        <time>2015-07-25T12:05:56Z</time>
      </trkpt>
      <trkpt lat="40.420900" lon="-5.307583">
        <ele>2090.0</ele>
        <time>2015-07-25T12:05:57Z</time>
      </trkpt>
      <trkpt lat="40.420933" lon="-5.307517">
        <ele>2089.0</ele>
        <time>2015-07-25T12:05:58Z</time>
      </trkpt>
      <trkpt lat="40.420950" lon="-5.307450">
        <ele>2087.0</ele>
        <time>2015-07-25T12:05:59Z</time>
      </trkpt>
      <trkpt lat="40.420967" lon="-5.307383">
        <ele>2084.0</ele>
        <time>2015-07-25T12:06:00Z</time>
      </trkpt>
      <trkpt lat="40.421000" lon="-5.307300">
        <ele>2080.0</ele>
        <time>2015-07-25T12:06:01Z</time>
      </trkpt>
      <trkpt lat="40.421033" lon="-5.307217">
        <ele>2077.0</ele>
        <time>2015-07-25T12:06:02Z</time>
      </trkpt>
      <trkpt lat="40.421067" lon="-5.307133">
        <ele>2075.0</ele>
        <time>2015-07-25T12:06:03Z</time>
      </trkpt>
      <trkpt lat="40.421100" lon="-5.307050">
        <ele>2072.0</ele>
        <time>2015-07-25T12:06:04Z</time>
      </trkpt>
      <trkpt lat="40.421133" lon="-5.306967">
        <ele>2070.0</ele>
        <time>2015-07-25T12:06:05Z</time>
      </trkpt>
      <trkpt lat="40.421167" lon="-5.306900">
        <ele>2067.0</ele>
        <time>2015-07-25T12:06:06Z</time>
      </trkpt>
      <trkpt lat="40.421200" lon="-5.306833">
        <ele>2064.0</ele>
        <time>2015-07-25T12:06:07Z</time>
      </trkpt>
      <trkpt lat="40.421250" lon="-5.306767">
        <ele>2061.0</ele>
        <time>2015-07-25T12:06:08Z</time>
      </trkpt>
      <trkpt lat="40.421283" lon="-5.306700">
        <ele>2057.0</ele>
        <time>2015-07-25T12:06:09Z</time>
      </trkpt>
      <trkpt lat="40.421333" lon="-5.306617">
        <ele>2053.0</ele>
        <time>2015-07-25T12:06:10Z</time>
      </trkpt>
      <trkpt lat="40.421367" lon="-5.306533">
        <ele>2049.0</ele>
        <time>2015-07-25T12:06:11Z</time>
      </trkpt>
      <trkpt lat="40.421417" lon="-5.306467">
        <ele>2046.0</ele>
        <time>2015-07-25T12:06:12Z</time>
      </trkpt>
      <trkpt lat="40.421450" lon="-5.306417">
        <ele>2042.0</ele>
        <time>2015-07-25T12:06:13Z</time>
      </trkpt>
      <trkpt lat="40.421500" lon="-5.306350">
        <ele>2038.0</ele>
        <time>2015-07-25T12:06:14Z</time>
      </trkpt>
      <trkpt lat="40.421550" lon="-5.306267">
        <ele>2033.0</ele>
        <time>2015-07-25T12:06:15Z</time>
      </trkpt>
      <trkpt lat="40.421600" lon="-5.306183">
        <ele>2029.0</ele>
        <time>2015-07-25T12:06:16Z</time>
      </trkpt>
      <trkpt lat="40.421683" lon="-5.306100">
        <ele>2027.0</ele>
        <time>2015-07-25T12:06:17Z</time>
      </trkpt>
      <trkpt lat="40.421750" lon="-5.306033">
        <ele>2026.0</ele>
        <time>2015-07-25T12:06:18Z</time>
      </trkpt>
      <trkpt lat="40.421817" lon="-5.305967">
        <ele>2026.0</ele>
        <time>2015-07-25T12:06:19Z</time>
      </trkpt>
      <trkpt lat="40.421867" lon="-5.305900">
        <ele>2026.0</ele>
        <time>2015-07-25T12:06:20Z</time>
      </trkpt>
      <trkpt lat="40.421917" lon="-5.305833">
        <ele>2026.0</ele>
        <time>2015-07-25T12:06:21Z</time>
      </trkpt>
      <trkpt lat="40.421967" lon="-5.305767">
        <ele>2025.0</ele>
        <time>2015-07-25T12:06:22Z</time>
      </trkpt>
      <trkpt lat="40.422017" lon="-5.305717">
        <ele>2023.0</ele>
        <time>2015-07-25T12:06:23Z</time>
      </trkpt>
      <trkpt lat="40.422083" lon="-5.305667">
        <ele>2021.0</ele>
        <time>2015-07-25T12:06:24Z</time>
      </trkpt>
      <trkpt lat="40.422133" lon="-5.305617">
        <ele>2019.0</ele>
        <time>2015-07-25T12:06:25Z</time>
      </trkpt>
      <trkpt lat="40.422200" lon="-5.305550">
        <ele>2018.0</ele>
        <time>2015-07-25T12:06:26Z</time>
      </trkpt>
      <trkpt lat="40.422250" lon="-5.305500">
        <ele>2017.0</ele>
        <time>2015-07-25T12:06:27Z</time>
      </trkpt>
      <trkpt lat="40.422300" lon="-5.305450">
        <ele>2015.0</ele>
        <time>2015-07-25T12:06:28Z</time>
      </trkpt>
      <trkpt lat="40.422367" lon="-5.305383">
        <ele>2014.0</ele>
        <time>2015-07-25T12:06:29Z</time>
      </trkpt>
      <trkpt lat="40.422433" lon="-5.305333">
        <ele>2012.0</ele>
        <time>2015-07-25T12:06:30Z</time>
      </trkpt>
      <trkpt lat="40.422483" lon="-5.305283">
        <ele>2010.0</ele>
        <time>2015-07-25T12:06:31Z</time>
      </trkpt>
      <trkpt lat="40.422550" lon="-5.305233">
        <ele>2009.0</ele>
        <time>2015-07-25T12:06:32Z</time>
      </trkpt>
      <trkpt lat="40.422617" lon="-5.305200">
        <ele>2007.0</ele>
        <time>2015-07-25T12:06:33Z</time>
      </trkpt>
      <trkpt lat="40.422667" lon="-5.305167">
        <ele>2004.0</ele>
        <time>2015-07-25T12:06:34Z</time>
      </trkpt>
      <trkpt lat="40.422733" lon="-5.305150">
        <ele>2002.0</ele>
        <time>2015-07-25T12:06:35Z</time>
      </trkpt>
      <trkpt lat="40.422817" lon="-5.305117">
        <ele>2000.0</ele>
        <time>2015-07-25T12:06:36Z</time>
      </trkpt>
      <trkpt lat="40.422883" lon="-5.305083">
        <ele>1998.0</ele>
        <time>2015-07-25T12:06:37Z</time>
      </trkpt>
      <trkpt lat="40.422950" lon="-5.305033">
        <ele>1997.0</ele>
        <time>2015-07-25T12:06:38Z</time>
      </trkpt>
      <trkpt lat="40.423017" lon="-5.304983">
        <ele>1997.0</ele>
        <time>2015-07-25T12:06:39Z</time>
      </trkpt>
      <trkpt lat="40.423067" lon="-5.304933">
        <ele>1996.0</ele>
        <time>2015-07-25T12:06:40Z</time>
      </trkpt>
      <trkpt lat="40.423133" lon="-5.304900">
        <ele>1994.0</ele>
        <time>2015-07-25T12:06:41Z</time>
      </trkpt>
      <trkpt lat="40.423200" lon="-5.304867">
        <ele>1991.0</ele>
        <time>2015-07-25T12:06:42Z</time>
      </trkpt>
      <trkpt lat="40.423267" lon="-5.304833">
        <ele>1988.0</ele>
        <time>2015-07-25T12:06:43Z</time>
      </trkpt>
      <trkpt lat="40.423350" lon="-5.304800">
        <ele>1985.0</ele>
        <time>2015-07-25T12:06:44Z</time>
      </trkpt>
      <trkpt lat="40.423433" lon="-5.304767">
        <ele>1983.0</ele>
        <time>2015-07-25T12:06:45Z</time>
      </trkpt>
      <trkpt lat="40.423533" lon="-5.304767">
        <ele>1982.0</ele>
        <time>2015-07-25T12:06:46Z</time>
      </trkpt>
      <trkpt lat="40.423617" lon="-5.304783">
        <ele>1981.0</ele>
        <time>2015-07-25T12:06:47Z</time>
      </trkpt>
      <trkpt lat="40.423700" lon="-5.304783">
        <ele>1980.0</ele>
        <time>2015-07-25T12:06:48Z</time>
      </trkpt>
      <trkpt lat="40.423767" lon="-5.304783">
        <ele>1979.0</ele>
        <time>2015-07-25T12:06:49Z</time>
      </trkpt>
      <trkpt lat="40.423850" lon="-5.304783">
        <ele>1977.0</ele>
        <time>2015-07-25T12:06:50Z</time>
      </trkpt>
      <trkpt lat="40.423950" lon="-5.304750">
        <ele>1976.0</ele>
        <time>2015-07-25T12:06:51Z</time>
      </trkpt>
      <trkpt lat="40.424033" lon="-5.304733">
        <ele>1974.0</ele>
        <time>2015-07-25T12:06:52Z</time>
      </trkpt>
      <trkpt lat="40.424133" lon="-5.304733">
        <ele>1974.0</ele>
        <time>2015-07-25T12:06:53Z</time>
      </trkpt>
      <trkpt lat="40.424217" lon="-5.304733">
        <ele>1974.0</ele>
        <time>2015-07-25T12:06:54Z</time>
      </trkpt>
      <trkpt lat="40.424300" lon="-5.304717">
        <ele>1974.0</ele>
        <time>2015-07-25T12:06:55Z</time>
      </trkpt>
      <trkpt lat="40.424383" lon="-5.304700">
        <ele>1973.0</ele>
        <time>2015-07-25T12:06:56Z</time>
      </trkpt>
      <trkpt lat="40.424450" lon="-5.304667">
        <ele>1972.0</ele>
        <time>2015-07-25T12:06:57Z</time>
      </trkpt>
      <trkpt lat="40.424533" lon="-5.304617">
        <ele>1970.0</ele>
        <time>2015-07-25T12:06:58Z</time>
      </trkpt>
      <trkpt lat="40.424617" lon="-5.304567">
        <ele>1969.0</ele>
        <time>2015-07-25T12:06:59Z</time>
      </trkpt>
      <trkpt lat="40.424700" lon="-5.304500">
        <ele>1968.0</ele>
        <time>2015-07-25T12:07:00Z</time>
      </trkpt>
      <trkpt lat="40.424783" lon="-5.304450">
        <ele>1966.0</ele>
        <time>2015-07-25T12:07:01Z</time>
      </trkpt>
      <trkpt lat="40.424867" lon="-5.304383">
        <ele>1965.0</ele>
        <time>2015-07-25T12:07:02Z</time>
      </trkpt>
      <trkpt lat="40.424950" lon="-5.304317">
        <ele>1964.0</ele>
        <time>2015-07-25T12:07:03Z</time>
      </trkpt>
      <trkpt lat="40.425033" lon="-5.304233">
        <ele>1963.0</ele>
        <time>2015-07-25T12:07:04Z</time>
      </trkpt>
      <trkpt lat="40.425133" lon="-5.304183">
        <ele>1964.0</ele>
        <time>2015-07-25T12:07:05Z</time>
      </trkpt>
      <trkpt lat="40.425200" lon="-5.304117">
        <ele>1966.0</ele>
        <time>2015-07-25T12:07:06Z</time>
      </trkpt>
      <trkpt lat="40.425267" lon="-5.304033">
        <ele>1968.0</ele>
        <time>2015-07-25T12:07:07Z</time>
      </trkpt>
      <trkpt lat="40.425317" lon="-5.303933">
        <ele>1969.0</ele>
        <time>2015-07-25T12:07:08Z</time>
      </trkpt>
      <trkpt lat="40.425383" lon="-5.303833">
        <ele>1969.0</ele>
        <time>2015-07-25T12:07:09Z</time>
      </trkpt>
      <trkpt lat="40.425450" lon="-5.303767">
        <ele>1970.0</ele>
        <time>2015-07-25T12:07:10Z</time>
      </trkpt>
      <trkpt lat="40.425533" lon="-5.303733">
        <ele>1971.0</ele>
        <time>2015-07-25T12:07:11Z</time>
      </trkpt>
      <trkpt lat="40.425600" lon="-5.303750">
        <ele>1971.0</ele>
        <time>2015-07-25T12:07:12Z</time>
      </trkpt>
      <trkpt lat="40.425667" lon="-5.303800">
        <ele>1972.0</ele>
        <time>2015-07-25T12:07:13Z</time>
      </trkpt>
      <trkpt lat="40.425717" lon="-5.303883">
        <ele>1972.0</ele>
        <time>2015-07-25T12:07:14Z</time>
      </trkpt>
      <trkpt lat="40.425733" lon="-5.304000">
        <ele>1971.0</ele>
        <time>2015-07-25T12:07:15Z</time>
      </trkpt>
      <trkpt lat="40.425717" lon="-5.304117">
        <ele>1969.0</ele>
        <time>2015-07-25T12:07:16Z</time>
      </trkpt>
      <trkpt lat="40.425650" lon="-5.304217">
        <ele>1969.0</ele>
        <time>2015-07-25T12:07:17Z</time>
      </trkpt>
      <trkpt lat="40.425550" lon="-5.304300">
        <ele>1968.0</ele>
        <time>2015-07-25T12:07:18Z</time>
      </trkpt>
      <trkpt lat="40.425433" lon="-5.304317">
        <ele>1967.0</ele>
        <time>2015-07-25T12:07:19Z</time>
      </trkpt>
      <trkpt lat="40.425333" lon="-5.304300">
        <ele>1968.0</ele>
        <time>2015-07-25T12:07:20Z</time>
      </trkpt>
      <trkpt lat="40.425233" lon="-5.304217">
        <ele>1968.0</ele>
        <time>2015-07-25T12:07:21Z</time>
      </trkpt>
      <trkpt lat="40.425167" lon="-5.304100">
        <ele>1967.0</ele>
        <time>2015-07-25T12:07:22Z</time>
      </trkpt>
      <trkpt lat="40.425133" lon="-5.303950">
        <ele>1966.0</ele>
        <time>2015-07-25T12:07:23Z</time>
      </trkpt>
      <trkpt lat="40.425117" lon="-5.303783">
        <ele>1967.0</ele>
        <time>2015-07-25T12:07:24Z</time>
      </trkpt>
      <trkpt lat="40.425100" lon="-5.303650">
        <ele>1969.0</ele>
        <time>2015-07-25T12:07:25Z</time>
      </trkpt>
      <trkpt lat="40.425067" lon="-5.303533">
        <ele>1970.0</ele>
        <time>2015-07-25T12:07:26Z</time>
      </trkpt>
      <trkpt lat="40.425017" lon="-5.303417">
        <ele>1971.0</ele>
        <time>2015-07-25T12:07:27Z</time>
      </trkpt>
      <trkpt lat="40.424967" lon="-5.303300">
        <ele>1971.0</ele>
        <time>2015-07-25T12:07:28Z</time>
      </trkpt>
      <trkpt lat="40.424950" lon="-5.303183">
        <ele>1971.0</ele>
        <time>2015-07-25T12:07:29Z</time>
      </trkpt>
      <trkpt lat="40.424967" lon="-5.303050">
        <ele>1969.0</ele>
        <time>2015-07-25T12:07:30Z</time>
      </trkpt>
      <trkpt lat="40.425000" lon="-5.302917">
        <ele>1968.0</ele>
        <time>2015-07-25T12:07:31Z</time>
      </trkpt>
      <trkpt lat="40.425050" lon="-5.302817">
        <ele>1968.0</ele>
        <time>2015-07-25T12:07:32Z</time>
      </trkpt>
      <trkpt lat="40.425100" lon="-5.302700">
        <ele>1969.0</ele>
        <time>2015-07-25T12:07:33Z</time>
      </trkpt>
      <trkpt lat="40.425150" lon="-5.302600">
        <ele>1970.0</ele>
        <time>2015-07-25T12:07:34Z</time>
      </trkpt>
      <trkpt lat="40.425183" lon="-5.302483">
        <ele>1971.0</ele>
        <time>2015-07-25T12:07:35Z</time>
      </trkpt>
      <trkpt lat="40.425233" lon="-5.302383">
        <ele>1973.0</ele>
        <time>2015-07-25T12:07:36Z</time>
      </trkpt>
      <trkpt lat="40.425267" lon="-5.302300">
        <ele>1974.0</ele>
        <time>2015-07-25T12:07:37Z</time>
      </trkpt>
      <trkpt lat="40.425317" lon="-5.302200">
        <ele>1976.0</ele>
        <time>2015-07-25T12:07:38Z</time>
      </trkpt>
      <trkpt lat="40.425367" lon="-5.302100">
        <ele>1977.0</ele>
        <time>2015-07-25T12:07:39Z</time>
      </trkpt>
      <trkpt lat="40.425417" lon="-5.302050">
        <ele>1978.0</ele>
        <time>2015-07-25T12:07:40Z</time>
      </trkpt>
      <trkpt lat="40.425500" lon="-5.302017">
        <ele>1979.0</ele>
        <time>2015-07-25T12:07:41Z</time>
      </trkpt>
      <trkpt lat="40.425567" lon="-5.302050">
        <ele>1978.0</ele>
        <time>2015-07-25T12:07:42Z</time>
      </trkpt>
      <trkpt lat="40.425617" lon="-5.302150">
        <ele>1978.0</ele>
        <time>2015-07-25T12:07:43Z</time>
      </trkpt>
      <trkpt lat="40.425650" lon="-5.302267">
        <ele>1978.0</ele>
        <time>2015-07-25T12:07:44Z</time>
      </trkpt>
      <trkpt lat="40.425617" lon="-5.302383">
        <ele>1980.0</ele>
        <time>2015-07-25T12:07:45Z</time>
      </trkpt>
      <trkpt lat="40.425567" lon="-5.302483">
        <ele>1981.0</ele>
        <time>2015-07-25T12:07:46Z</time>
      </trkpt>
      <trkpt lat="40.425483" lon="-5.302567">
        <ele>1981.0</ele>
        <time>2015-07-25T12:07:47Z</time>
      </trkpt>
      <trkpt lat="40.425367" lon="-5.302600">
        <ele>1979.0</ele>
        <time>2015-07-25T12:07:48Z</time>
      </trkpt>
      <trkpt lat="40.425233" lon="-5.302617">
        <ele>1978.0</ele>
        <time>2015-07-25T12:07:49Z</time>
      </trkpt>
      <trkpt lat="40.425100" lon="-5.302583">
        <ele>1977.0</ele>
        <time>2015-07-25T12:07:50Z</time>
      </trkpt>
      <trkpt lat="40.424967" lon="-5.302500">
        <ele>1978.0</ele>
        <time>2015-07-25T12:07:51Z</time>
      </trkpt>
      <trkpt lat="40.424867" lon="-5.302383">
        <ele>1980.0</ele>
        <time>2015-07-25T12:07:52Z</time>
      </trkpt>
      <trkpt lat="40.424800" lon="-5.302250">
        <ele>1981.0</ele>
        <time>2015-07-25T12:07:53Z</time>
      </trkpt>
      <trkpt lat="40.424750" lon="-5.302117">
        <ele>1981.0</ele>
        <time>2015-07-25T12:07:54Z</time>
      </trkpt>
      <trkpt lat="40.424733" lon="-5.301967">
        <ele>1981.0</ele>
        <time>2015-07-25T12:07:55Z</time>
      </trkpt>
      <trkpt lat="40.424717" lon="-5.301800">
        <ele>1982.0</ele>
        <time>2015-07-25T12:07:56Z</time>
      </trkpt>
      <trkpt lat="40.424717" lon="-5.301667">
        <ele>1983.0</ele>
        <time>2015-07-25T12:07:57Z</time>
      </trkpt>
      <trkpt lat="40.424733" lon="-5.301533">
        <ele>1984.0</ele>
        <time>2015-07-25T12:07:58Z</time>
      </trkpt>
      <trkpt lat="40.424750" lon="-5.301400">
        <ele>1986.0</ele>
        <time>2015-07-25T12:07:59Z</time>
      </trkpt>
      <trkpt lat="40.424800" lon="-5.301283">
        <ele>1987.0</ele>
        <time>2015-07-25T12:08:00Z</time>
      </trkpt>
      <trkpt lat="40.424833" lon="-5.301150">
        <ele>1989.0</ele>
        <time>2015-07-25T12:08:01Z</time>
      </trkpt>
      <trkpt lat="40.424883" lon="-5.301033">
        <ele>1992.0</ele>
        <time>2015-07-25T12:08:02Z</time>
      </trkpt>
      <trkpt lat="40.424917" lon="-5.300933">
        <ele>1994.0</ele>
        <time>2015-07-25T12:08:03Z</time>
      </trkpt>
      <trkpt lat="40.424950" lon="-5.300833">
        <ele>1996.0</ele>
        <time>2015-07-25T12:08:04Z</time>
      </trkpt>
      <trkpt lat="40.424983" lon="-5.300717">
        <ele>1997.0</ele>
        <time>2015-07-25T12:08:05Z</time>
      </trkpt>
      <trkpt lat="40.425017" lon="-5.300617">
        <ele>1998.0</ele>
        <time>2015-07-25T12:08:06Z</time>
      </trkpt>
      <trkpt lat="40.425050" lon="-5.300500">
        <ele>1999.0</ele>
        <time>2015-07-25T12:08:07Z</time>
      </trkpt>
      <trkpt lat="40.425083" lon="-5.300383">
        <ele>2000.0</ele>
        <time>2015-07-25T12:08:08Z</time>
      </trkpt>
      <trkpt lat="40.425117" lon="-5.300267">
        <ele>2002.0</ele>
        <time>2015-07-25T12:08:09Z</time>
      </trkpt>
      <trkpt lat="40.425167" lon="-5.300150">
        <ele>2004.0</ele>
        <time>2015-07-25T12:08:10Z</time>
      </trkpt>
      <trkpt lat="40.425200" lon="-5.300050">
        <ele>2006.0</ele>
        <time>2015-07-25T12:08:11Z</time>
      </trkpt>
      <trkpt lat="40.425250" lon="-5.299967">
        <ele>2008.0</ele>
        <time>2015-07-25T12:08:12Z</time>
      </trkpt>
      <trkpt lat="40.425283" lon="-5.299900">
        <ele>2011.0</ele>
        <time>2015-07-25T12:08:13Z</time>
      </trkpt>
      <trkpt lat="40.425333" lon="-5.299867">
        <ele>2012.0</ele>
        <time>2015-07-25T12:08:14Z</time>
      </trkpt>
      <trkpt lat="40.425400" lon="-5.299850">
        <ele>2012.0</ele>
        <time>2015-07-25T12:08:15Z</time>
      </trkpt>
      <trkpt lat="40.425450" lon="-5.299867">
        <ele>2013.0</ele>
        <time>2015-07-25T12:08:16Z</time>
      </trkpt>
      <trkpt lat="40.425483" lon="-5.299933">
        <ele>2014.0</ele>
        <time>2015-07-25T12:08:17Z</time>
      </trkpt>
      <trkpt lat="40.425483" lon="-5.300017">
        <ele>2015.0</ele>
        <time>2015-07-25T12:08:18Z</time>
      </trkpt>
      <trkpt lat="40.425417" lon="-5.300100">
        <ele>2017.0</ele>
        <time>2015-07-25T12:08:19Z</time>
      </trkpt>
      <trkpt lat="40.425333" lon="-5.300167">
        <ele>2018.0</ele>
        <time>2015-07-25T12:08:20Z</time>
      </trkpt>
      <trkpt lat="40.425233" lon="-5.300183">
        <ele>2020.0</ele>
        <time>2015-07-25T12:08:21Z</time>
      </trkpt>
      <trkpt lat="40.425100" lon="-5.300167">
        <ele>2021.0</ele>
        <time>2015-07-25T12:08:22Z</time>
      </trkpt>
      <trkpt lat="40.424967" lon="-5.300117">
        <ele>2022.0</ele>
        <time>2015-07-25T12:08:23Z</time>
      </trkpt>
      <trkpt lat="40.424850" lon="-5.300000">
        <ele>2024.0</ele>
        <time>2015-07-25T12:08:24Z</time>
      </trkpt>
      <trkpt lat="40.424767" lon="-5.299833">
        <ele>2026.0</ele>
        <time>2015-07-25T12:08:25Z</time>
      </trkpt>
      <trkpt lat="40.424750" lon="-5.299667">
        <ele>2027.0</ele>
        <time>2015-07-25T12:08:26Z</time>
      </trkpt>
      <trkpt lat="40.424750" lon="-5.299483">
        <ele>2029.0</ele>
        <time>2015-07-25T12:08:27Z</time>
      </trkpt>
      <trkpt lat="40.424783" lon="-5.299350">
        <ele>2031.0</ele>
        <time>2015-07-25T12:08:28Z</time>
      </trkpt>
      <trkpt lat="40.424817" lon="-5.299233">
        <ele>2034.0</ele>
        <time>2015-07-25T12:08:29Z</time>
      </trkpt>
      <trkpt lat="40.424867" lon="-5.299133">
        <ele>2036.0</ele>
        <time>2015-07-25T12:08:30Z</time>
      </trkpt>
      <trkpt lat="40.424917" lon="-5.299050">
        <ele>2038.0</ele>
        <time>2015-07-25T12:08:31Z</time>
      </trkpt>
      <trkpt lat="40.424983" lon="-5.298983">
        <ele>2040.0</ele>
        <time>2015-07-25T12:08:32Z</time>
      </trkpt>
      <trkpt lat="40.425033" lon="-5.298917">
        <ele>2041.0</ele>
        <time>2015-07-25T12:08:33Z</time>
      </trkpt>
      <trkpt lat="40.425100" lon="-5.298900">
        <ele>2042.0</ele>
        <time>2015-07-25T12:08:34Z</time>
      </trkpt>
      <trkpt lat="40.425167" lon="-5.298900">
        <ele>2042.0</ele>
        <time>2015-07-25T12:08:35Z</time>
      </trkpt>
      <trkpt lat="40.425217" lon="-5.298950">
        <ele>2043.0</ele>
        <time>2015-07-25T12:08:36Z</time>
      </trkpt>
      <trkpt lat="40.425267" lon="-5.299017">
        <ele>2045.0</ele>
        <time>2015-07-25T12:08:37Z</time>
      </trkpt>
      <trkpt lat="40.425283" lon="-5.299100">
        <ele>2047.0</ele>
        <time>2015-07-25T12:08:38Z</time>
      </trkpt>
      <trkpt lat="40.425283" lon="-5.299183">
        <ele>2048.0</ele>
        <time>2015-07-25T12:08:39Z</time>
      </trkpt>
      <trkpt lat="40.425250" lon="-5.299283">
        <ele>2047.0</ele>
        <time>2015-07-25T12:08:40Z</time>
      </trkpt>
      <trkpt lat="40.425200" lon="-5.299400">
        <ele>2045.0</ele>
        <time>2015-07-25T12:08:41Z</time>
      </trkpt>
      <trkpt lat="40.425133" lon="-5.299517">
        <ele>2044.0</ele>
        <time>2015-07-25T12:08:42Z</time>
      </trkpt>
      <trkpt lat="40.425050" lon="-5.299617">
        <ele>2043.0</ele>
        <time>2015-07-25T12:08:43Z</time>
      </trkpt>
      <trkpt lat="40.424950" lon="-5.299667">
        <ele>2044.0</ele>
        <time>2015-07-25T12:08:44Z</time>
      </trkpt>
      <trkpt lat="40.424833" lon="-5.299683">
        <ele>2045.0</ele>
        <time>2015-07-25T12:08:45Z</time>
      </trkpt>
      <trkpt lat="40.424717" lon="-5.299667">
        <ele>2045.0</ele>
        <time>2015-07-25T12:08:46Z</time>
      </trkpt>
      <trkpt lat="40.424583" lon="-5.299567">
        <ele>2042.0</ele>
        <time>2015-07-25T12:08:47Z</time>
      </trkpt>
      <trkpt lat="40.424483" lon="-5.299417">
        <ele>2039.0</ele>
        <time>2015-07-25T12:08:48Z</time>
      </trkpt>
      <trkpt lat="40.424400" lon="-5.299233">
        <ele>2038.0</ele>
        <time>2015-07-25T12:08:49Z</time>
      </trkpt>
      <trkpt lat="40.424383" lon="-5.299033">
        <ele>2039.0</ele>
        <time>2015-07-25T12:08:50Z</time>
      </trkpt>
      <trkpt lat="40.424400" lon="-5.298867">
        <ele>2040.0</ele>
        <time>2015-07-25T12:08:51Z</time>
      </trkpt>
      <trkpt lat="40.424450" lon="-5.298733">
        <ele>2040.0</ele>
        <time>2015-07-25T12:08:52Z</time>
      </trkpt>
      <trkpt lat="40.424517" lon="-5.298650">
        <ele>2040.0</ele>
        <time>2015-07-25T12:08:53Z</time>
      </trkpt>
      <trkpt lat="40.424583" lon="-5.298583">
        <ele>2040.0</ele>
        <time>2015-07-25T12:08:54Z</time>
      </trkpt>
      <trkpt lat="40.424667" lon="-5.298567">
        <ele>2040.0</ele>
        <time>2015-07-25T12:08:55Z</time>
      </trkpt>
      <trkpt lat="40.424750" lon="-5.298550">
        <ele>2041.0</ele>
        <time>2015-07-25T12:08:56Z</time>
      </trkpt>
      <trkpt lat="40.424817" lon="-5.298550">
        <ele>2042.0</ele>
        <time>2015-07-25T12:08:57Z</time>
      </trkpt>
      <trkpt lat="40.424883" lon="-5.298550">
        <ele>2044.0</ele>
        <time>2015-07-25T12:08:58Z</time>
      </trkpt>
      <trkpt lat="40.424933" lon="-5.298550">
        <ele>2046.0</ele>
        <time>2015-07-25T12:08:59Z</time>
      </trkpt>
      <trkpt lat="40.424983" lon="-5.298517">
        <ele>2047.0</ele>
        <time>2015-07-25T12:09:00Z</time>
      </trkpt>
      <trkpt lat="40.425033" lon="-5.298483">
        <ele>2048.0</ele>
        <time>2015-07-25T12:09:01Z</time>
      </trkpt>
      <trkpt lat="40.425083" lon="-5.298417">
        <ele>2048.0</ele>
        <time>2015-07-25T12:09:02Z</time>
      </trkpt>
      <trkpt lat="40.425133" lon="-5.298367">
        <ele>2047.0</ele>
        <time>2015-07-25T12:09:03Z</time>
      </trkpt>
      <trkpt lat="40.425200" lon="-5.298283">
        <ele>2048.0</ele>
        <time>2015-07-25T12:09:04Z</time>
      </trkpt>
      <trkpt lat="40.425250" lon="-5.298217">
        <ele>2050.0</ele>
        <time>2015-07-25T12:09:05Z</time>
      </trkpt>
      <trkpt lat="40.425300" lon="-5.298133">
        <ele>2051.0</ele>
        <time>2015-07-25T12:09:06Z</time>
      </trkpt>
      <trkpt lat="40.425367" lon="-5.298050">
        <ele>2051.0</ele>
        <time>2015-07-25T12:09:07Z</time>
      </trkpt>
      <trkpt lat="40.425433" lon="-5.297967">
        <ele>2050.0</ele>
        <time>2015-07-25T12:09:08Z</time>
      </trkpt>
      <trkpt lat="40.425500" lon="-5.297867">
        <ele>2049.0</ele>
        <time>2015-07-25T12:09:09Z</time>
      </trkpt>
      <trkpt lat="40.425583" lon="-5.297783">
        <ele>2049.0</ele>
        <time>2015-07-25T12:09:10Z</time>
      </trkpt>
      <trkpt lat="40.425667" lon="-5.297683">
        <ele>2051.0</ele>
        <time>2015-07-25T12:09:11Z</time>
      </trkpt>
      <trkpt lat="40.425733" lon="-5.297600">
        <ele>2053.0</ele>
        <time>2015-07-25T12:09:12Z</time>
      </trkpt>
      <trkpt lat="40.425783" lon="-5.297533">
        <ele>2056.0</ele>
        <time>2015-07-25T12:09:13Z</time>
      </trkpt>
      <trkpt lat="40.425833" lon="-5.297450">
        <ele>2057.0</ele>
        <time>2015-07-25T12:09:14Z</time>
      </trkpt>
      <trkpt lat="40.425900" lon="-5.297383">
        <ele>2057.0</ele>
        <time>2015-07-25T12:09:15Z</time>
      </trkpt>
      <trkpt lat="40.425950" lon="-5.297300">
        <ele>2057.0</ele>
        <time>2015-07-25T12:09:16Z</time>
      </trkpt>
      <trkpt lat="40.426017" lon="-5.297217">
        <ele>2057.0</ele>
        <time>2015-07-25T12:09:17Z</time>
      </trkpt>
      <trkpt lat="40.426100" lon="-5.297133">
        <ele>2059.0</ele>
        <time>2015-07-25T12:09:18Z</time>
      </trkpt>
      <trkpt lat="40.426167" lon="-5.297050">
        <ele>2061.0</ele>
        <time>2015-07-25T12:09:19Z</time>
      </trkpt>
      <trkpt lat="40.426217" lon="-5.296983">
        <ele>2064.0</ele>
        <time>2015-07-25T12:09:20Z</time>
      </trkpt>
      <trkpt lat="40.426250" lon="-5.296917">
        <ele>2068.0</ele>
        <time>2015-07-25T12:09:21Z</time>
      </trkpt>
      <trkpt lat="40.426283" lon="-5.296850">
        <ele>2071.0</ele>
        <time>2015-07-25T12:09:22Z</time>
      </trkpt>
      <trkpt lat="40.426317" lon="-5.296767">
        <ele>2074.0</ele>
        <time>2015-07-25T12:09:23Z</time>
      </trkpt>
      <trkpt lat="40.426350" lon="-5.296717">
        <ele>2075.0</ele>
        <time>2015-07-25T12:09:24Z</time>
      </trkpt>
      <trkpt lat="40.426383" lon="-5.296683">
        <ele>2076.0</ele>
        <time>2015-07-25T12:09:25Z</time>
      </trkpt>
      <trkpt lat="40.426433" lon="-5.296700">
        <ele>2076.0</ele>
        <time>2015-07-25T12:09:26Z</time>
      </trkpt>
      <trkpt lat="40.426467" lon="-5.296767">
        <ele>2076.0</ele>
        <time>2015-07-25T12:09:27Z</time>
      </trkpt>
      <trkpt lat="40.426467" lon="-5.296867">
        <ele>2078.0</ele>
        <time>2015-07-25T12:09:28Z</time>
      </trkpt>
      <trkpt lat="40.426400" lon="-5.296967">
        <ele>2080.0</ele>
        <time>2015-07-25T12:09:29Z</time>
      </trkpt>
      <trkpt lat="40.426317" lon="-5.297050">
        <ele>2084.0</ele>
        <time>2015-07-25T12:09:30Z</time>
      </trkpt>
      <trkpt lat="40.426183" lon="-5.297100">
        <ele>2087.0</ele>
        <time>2015-07-25T12:09:31Z</time>
      </trkpt>
      <trkpt lat="40.426050" lon="-5.297117">
        <ele>2090.0</ele>
        <time>2015-07-25T12:09:32Z</time>
      </trkpt>
      <trkpt lat="40.425900" lon="-5.297067">
        <ele>2092.0</ele>
        <time>2015-07-25T12:09:33Z</time>
      </trkpt>
      <trkpt lat="40.425767" lon="-5.296983">
        <ele>2093.0</ele>
        <time>2015-07-25T12:09:34Z</time>
      </trkpt>
      <trkpt lat="40.425633" lon="-5.296867">
        <ele>2095.0</ele>
        <time>2015-07-25T12:09:35Z</time>
      </trkpt>
      <trkpt lat="40.425550" lon="-5.296700">
        <ele>2096.0</ele>
        <time>2015-07-25T12:09:36Z</time>
      </trkpt>
      <trkpt lat="40.425517" lon="-5.296533">
        <ele>2097.0</ele>
        <time>2015-07-25T12:09:37Z</time>
      </trkpt>
      <trkpt lat="40.425533" lon="-5.296383">
        <ele>2097.0</ele>
        <time>2015-07-25T12:09:38Z</time>
      </trkpt>
      <trkpt lat="40.425567" lon="-5.296267">
        <ele>2098.0</ele>
        <time>2015-07-25T12:09:39Z</time>
      </trkpt>
      <trkpt lat="40.425600" lon="-5.296183">
        <ele>2098.0</ele>
        <time>2015-07-25T12:09:40Z</time>
      </trkpt>
      <trkpt lat="40.425667" lon="-5.296133">
        <ele>2099.0</ele>
        <time>2015-07-25T12:09:41Z</time>
      </trkpt>
      <trkpt lat="40.425733" lon="-5.296100">
        <ele>2100.0</ele>
        <time>2015-07-25T12:09:42Z</time>
      </trkpt>
      <trkpt lat="40.425783" lon="-5.296083">
        <ele>2103.0</ele>
        <time>2015-07-25T12:09:43Z</time>
      </trkpt>
      <trkpt lat="40.425817" lon="-5.296100">
        <ele>2106.0</ele>
        <time>2015-07-25T12:09:44Z</time>
      </trkpt>
      <trkpt lat="40.425850" lon="-5.296117">
        <ele>2108.0</ele>
        <time>2015-07-25T12:09:45Z</time>
      </trkpt>
      <trkpt lat="40.425883" lon="-5.296183">
        <ele>2111.0</ele>
        <time>2015-07-25T12:09:46Z</time>
      </trkpt>
      <trkpt lat="40.425867" lon="-5.296283">
        <ele>2113.0</ele>
        <time>2015-07-25T12:09:47Z</time>
      </trkpt>
      <trkpt lat="40.425817" lon="-5.296400">
        <ele>2116.0</ele>
        <time>2015-07-25T12:09:48Z</time>
      </trkpt>
      <trkpt lat="40.425733" lon="-5.296500">
        <ele>2120.0</ele>
        <time>2015-07-25T12:09:49Z</time>
      </trkpt>
      <trkpt lat="40.425617" lon="-5.296583">
        <ele>2126.0</ele>
        <time>2015-07-25T12:09:50Z</time>
      </trkpt>
      <trkpt lat="40.425500" lon="-5.296617">
        <ele>2132.0</ele>
        <time>2015-07-25T12:09:51Z</time>
      </trkpt>
      <trkpt lat="40.425383" lon="-5.296650">
        <ele>2136.0</ele>
        <time>2015-07-25T12:09:52Z</time>
      </trkpt>
      <trkpt lat="40.425267" lon="-5.296650">
        <ele>2139.0</ele>
        <time>2015-07-25T12:09:53Z</time>
      </trkpt>
      <trkpt lat="40.425133" lon="-5.296633">
        <ele>2141.0</ele>
        <time>2015-07-25T12:09:54Z</time>
      </trkpt>
      <trkpt lat="40.424983" lon="-5.296567">
        <ele>2142.0</ele>
        <time>2015-07-25T12:09:55Z</time>
      </trkpt>
      <trkpt lat="40.424850" lon="-5.296483">
        <ele>2144.0</ele>
        <time>2015-07-25T12:09:56Z</time>
      </trkpt>
      <trkpt lat="40.424733" lon="-5.296350">
        <ele>2145.0</ele>
        <time>2015-07-25T12:09:57Z</time>
      </trkpt>
      <trkpt lat="40.424683" lon="-5.296183">
        <ele>2146.0</ele>
        <time>2015-07-25T12:09:58Z</time>
      </trkpt>
      <trkpt lat="40.424667" lon="-5.296033">
        <ele>2146.0</ele>
        <time>2015-07-25T12:09:59Z</time>
      </trkpt>
      <trkpt lat="40.424700" lon="-5.295900">
        <ele>2147.0</ele>
        <time>2015-07-25T12:10:00Z</time>
      </trkpt>
      <trkpt lat="40.424750" lon="-5.295800">
        <ele>2149.0</ele>
        <time>2015-07-25T12:10:01Z</time>
      </trkpt>
      <trkpt lat="40.424817" lon="-5.295733">
        <ele>2152.0</ele>
        <time>2015-07-25T12:10:02Z</time>
      </trkpt>
      <trkpt lat="40.424867" lon="-5.295700">
        <ele>2155.0</ele>
        <time>2015-07-25T12:10:03Z</time>
      </trkpt>
      <trkpt lat="40.424917" lon="-5.295700">
        <ele>2158.0</ele>
        <time>2015-07-25T12:10:04Z</time>
      </trkpt>
      <trkpt lat="40.424967" lon="-5.295717">
        <ele>2161.0</ele>
        <time>2015-07-25T12:10:05Z</time>
      </trkpt>
      <trkpt lat="40.425017" lon="-5.295767">
        <ele>2165.0</ele>
        <time>2015-07-25T12:10:06Z</time>
      </trkpt>
      <trkpt lat="40.425033" lon="-5.295833">
        <ele>2170.0</ele>
        <time>2015-07-25T12:10:07Z</time>
      </trkpt>
      <trkpt lat="40.425017" lon="-5.295933">
        <ele>2174.0</ele>
        <time>2015-07-25T12:10:08Z</time>
      </trkpt>
      <trkpt lat="40.424983" lon="-5.296017">
        <ele>2177.0</ele>
        <time>2015-07-25T12:10:09Z</time>
      </trkpt>
      <trkpt lat="40.424933" lon="-5.296133">
        <ele>2180.0</ele>
        <time>2015-07-25T12:10:10Z</time>
      </trkpt>
      <trkpt lat="40.424900" lon="-5.296233">
        <ele>2184.0</ele>
        <time>2015-07-25T12:10:11Z</time>
      </trkpt>
      <trkpt lat="40.424900" lon="-5.296333">
        <ele>2188.0</ele>
        <time>2015-07-25T12:10:12Z</time>
      </trkpt>
      <trkpt lat="40.424883" lon="-5.296417">
        <ele>2192.0</ele>
        <time>2015-07-25T12:10:13Z</time>
      </trkpt>
      <trkpt lat="40.424833" lon="-5.296483">
        <ele>2196.0</ele>
        <time>2015-07-25T12:10:14Z</time>
      </trkpt>
      <trkpt lat="40.424750" lon="-5.296567">
        <ele>2196.0</ele>
        <time>2015-07-25T12:10:15Z</time>
      </trkpt>
      <trkpt lat="40.424633" lon="-5.296617">
        <ele>2194.0</ele>
        <time>2015-07-25T12:10:16Z</time>
      </trkpt>
      <trkpt lat="40.424483" lon="-5.296633">
        <ele>2194.0</ele>
        <time>2015-07-25T12:10:17Z</time>
      </trkpt>
      <trkpt lat="40.424317" lon="-5.296633">
        <ele>2194.0</ele>
        <time>2015-07-25T12:10:18Z</time>
      </trkpt>
      <trkpt lat="40.424167" lon="-5.296583">
        <ele>2196.0</ele>
        <time>2015-07-25T12:10:19Z</time>
      </trkpt>
      <trkpt lat="40.424067" lon="-5.296500">
        <ele>2202.0</ele>
        <time>2015-07-25T12:10:20Z</time>
      </trkpt>
      <trkpt lat="40.423983" lon="-5.296383">
        <ele>2205.0</ele>
        <time>2015-07-25T12:10:21Z</time>
      </trkpt>
      <trkpt lat="40.423950" lon="-5.296267">
        <ele>2206.0</ele>
        <time>2015-07-25T12:10:22Z</time>
      </trkpt>
      <trkpt lat="40.423950" lon="-5.296150">
        <ele>2207.0</ele>
        <time>2015-07-25T12:10:23Z</time>
      </trkpt>
      <trkpt lat="40.423950" lon="-5.296017">
        <ele>2207.0</ele>
        <time>2015-07-25T12:10:24Z</time>
      </trkpt>
      <trkpt lat="40.423983" lon="-5.295883">
        <ele>2207.0</ele>
        <time>2015-07-25T12:10:25Z</time>
      </trkpt>
      <trkpt lat="40.424033" lon="-5.295767">
        <ele>2208.0</ele>
        <time>2015-07-25T12:10:26Z</time>
      </trkpt>
      <trkpt lat="40.424117" lon="-5.295683">
        <ele>2210.0</ele>
        <time>2015-07-25T12:10:27Z</time>
      </trkpt>
      <trkpt lat="40.424183" lon="-5.295633">
        <ele>2214.0</ele>
        <time>2015-07-25T12:10:28Z</time>
      </trkpt>
      <trkpt lat="40.424250" lon="-5.295583">
        <ele>2220.0</ele>
        <time>2015-07-25T12:10:29Z</time>
      </trkpt>
      <trkpt lat="40.424283" lon="-5.295517">
        <ele>2226.0</ele>
        <time>2015-07-25T12:10:30Z</time>
      </trkpt>
      <trkpt lat="40.424333" lon="-5.295450">
        <ele>2231.0</ele>
        <time>2015-07-25T12:10:31Z</time>
      </trkpt>
      <trkpt lat="40.424367" lon="-5.295400">
        <ele>2235.0</ele>
        <time>2015-07-25T12:10:32Z</time>
      </trkpt>
      <trkpt lat="40.424417" lon="-5.295367">
        <ele>2238.0</ele>
        <time>2015-07-25T12:10:33Z</time>
      </trkpt>
      <trkpt lat="40.424467" lon="-5.295383">
        <ele>2241.0</ele>
        <time>2015-07-25T12:10:34Z</time>
      </trkpt>
      <trkpt lat="40.424517" lon="-5.295433">
        <ele>2244.0</ele>
        <time>2015-07-25T12:10:35Z</time>
      </trkpt>
      <trkpt lat="40.424550" lon="-5.295500">
        <ele>2248.0</ele>
        <time>2015-07-25T12:10:36Z</time>
      </trkpt>
      <trkpt lat="40.424567" lon="-5.295600">
        <ele>2252.0</ele>
        <time>2015-07-25T12:10:37Z</time>
      </trkpt>
      <trkpt lat="40.424533" lon="-5.295717">
        <ele>2255.0</ele>
        <time>2015-07-25T12:10:38Z</time>
      </trkpt>
      <trkpt lat="40.424450" lon="-5.295833">
        <ele>2257.0</ele>
        <time>2015-07-25T12:10:39Z</time>
      </trkpt>
      <trkpt lat="40.424333" lon="-5.295917">
        <ele>2260.0</ele>
        <time>2015-07-25T12:10:40Z</time>
      </trkpt>
      <trkpt lat="40.424183" lon="-5.295950">
        <ele>2264.0</ele>
        <time>2015-07-25T12:10:41Z</time>
      </trkpt>
      <trkpt lat="40.424033" lon="-5.295933">
        <ele>2267.0</ele>
        <time>2015-07-25T12:10:42Z</time>
      </trkpt>
      <trkpt lat="40.423917" lon="-5.295883">
        <ele>2271.0</ele>
        <time>2015-07-25T12:10:43Z</time>
      </trkpt>
      <trkpt lat="40.423800" lon="-5.295833">
        <ele>2274.0</ele>
        <time>2015-07-25T12:10:44Z</time>
      </trkpt>
      <trkpt lat="40.423683" lon="-5.295767">
        <ele>2277.0</ele>
        <time>2015-07-25T12:10:45Z</time>
      </trkpt>
      <trkpt lat="40.423567" lon="-5.295700">
        <ele>2280.0</ele>
        <time>2015-07-25T12:10:46Z</time>
      </trkpt>
      <trkpt lat="40.423467" lon="-5.295617">
        <ele>2282.0</ele>
        <time>2015-07-25T12:10:47Z</time>
      </trkpt>
      <trkpt lat="40.423367" lon="-5.295500">
        <ele>2285.0</ele>
        <time>2015-07-25T12:10:48Z</time>
      </trkpt>
      <trkpt lat="40.423317" lon="-5.295350">
        <ele>2287.0</ele>
        <time>2015-07-25T12:10:49Z</time>
      </trkpt>
      <trkpt lat="40.423300" lon="-5.295217">
        <ele>2289.0</ele>
        <time>2015-07-25T12:10:50Z</time>
      </trkpt>
      <trkpt lat="40.423333" lon="-5.295067">
        <ele>2289.0</ele>
        <time>2015-07-25T12:10:51Z</time>
      </trkpt>
      <trkpt lat="40.423383" lon="-5.294950">
        <ele>2291.0</ele>
        <time>2015-07-25T12:10:52Z</time>
      </trkpt>
      <trkpt lat="40.423450" lon="-5.294867">
        <ele>2296.0</ele>
        <time>2015-07-25T12:10:53Z</time>
      </trkpt>
      <trkpt lat="40.423500" lon="-5.294800">
        <ele>2301.0</ele>
        <time>2015-07-25T12:10:54Z</time>
      </trkpt>
      <trkpt lat="40.423550" lon="-5.294767">
        <ele>2305.0</ele>
        <time>2015-07-25T12:10:55Z</time>
      </trkpt>
      <trkpt lat="40.423583" lon="-5.294750">
        <ele>2308.0</ele>
        <time>2015-07-25T12:10:56Z</time>
      </trkpt>
      <trkpt lat="40.423617" lon="-5.294750">
        <ele>2308.0</ele>
        <time>2015-07-25T12:10:57Z</time>
      </trkpt>
      <trkpt lat="40.423667" lon="-5.294750">
        <ele>2307.0</ele>
        <time>2015-07-25T12:10:58Z</time>
      </trkpt>
      <trkpt lat="40.423733" lon="-5.294750">
        <ele>2307.0</ele>
        <time>2015-07-25T12:10:59Z</time>
      </trkpt>
      <trkpt lat="40.423800" lon="-5.294767">
        <ele>2307.0</ele>
        <time>2015-07-25T12:11:00Z</time>
      </trkpt>
      <trkpt lat="40.423867" lon="-5.294817">
        <ele>2310.0</ele>
        <time>2015-07-25T12:11:01Z</time>
      </trkpt>
      <trkpt lat="40.423917" lon="-5.294883">
        <ele>2313.0</ele>
        <time>2015-07-25T12:11:02Z</time>
      </trkpt>
      <trkpt lat="40.423950" lon="-5.294967">
        <ele>2316.0</ele>
        <time>2015-07-25T12:11:03Z</time>
      </trkpt>
      <trkpt lat="40.423950" lon="-5.295050">
        <ele>2319.0</ele>
        <time>2015-07-25T12:11:04Z</time>
      </trkpt>
      <trkpt lat="40.423950" lon="-5.295133">
        <ele>2322.0</ele>
        <time>2015-07-25T12:11:05Z</time>
      </trkpt>
      <trkpt lat="40.423933" lon="-5.295233">
        <ele>2322.0</ele>
        <time>2015-07-25T12:11:06Z</time>
      </trkpt>
      <trkpt lat="40.423900" lon="-5.295367">
        <ele>2323.0</ele>
        <time>2015-07-25T12:11:07Z</time>
      </trkpt>
      <trkpt lat="40.423850" lon="-5.295500">
        <ele>2324.0</ele>
        <time>2015-07-25T12:11:08Z</time>
      </trkpt>
      <trkpt lat="40.423767" lon="-5.295633">
        <ele>2326.0</ele>
        <time>2015-07-25T12:11:09Z</time>
      </trkpt>
      <trkpt lat="40.423667" lon="-5.295700">
        <ele>2327.0</ele>
        <time>2015-07-25T12:11:10Z</time>
      </trkpt>
      <trkpt lat="40.423517" lon="-5.295717">
        <ele>2329.0</ele>
        <time>2015-07-25T12:11:11Z</time>
      </trkpt>
      <trkpt lat="40.423383" lon="-5.295667">
        <ele>2329.0</ele>
        <time>2015-07-25T12:11:12Z</time>
      </trkpt>
      <trkpt lat="40.423267" lon="-5.295567">
        <ele>2330.0</ele>
        <time>2015-07-25T12:11:13Z</time>
      </trkpt>
      <trkpt lat="40.423167" lon="-5.295450">
        <ele>2333.0</ele>
        <time>2015-07-25T12:11:14Z</time>
      </trkpt>
      <trkpt lat="40.423083" lon="-5.295333">
        <ele>2336.0</ele>
        <time>2015-07-25T12:11:15Z</time>
      </trkpt>
      <trkpt lat="40.423050" lon="-5.295233">
        <ele>2338.0</ele>
        <time>2015-07-25T12:11:16Z</time>
      </trkpt>
      <trkpt lat="40.423017" lon="-5.295117">
        <ele>2339.0</ele>
        <time>2015-07-25T12:11:17Z</time>
      </trkpt>
      <trkpt lat="40.423033" lon="-5.294983">
        <ele>2339.0</ele>
        <time>2015-07-25T12:11:18Z</time>
      </trkpt>
      <trkpt lat="40.423083" lon="-5.294883">
        <ele>2340.0</ele>
        <time>2015-07-25T12:11:19Z</time>
      </trkpt>
      <trkpt lat="40.423150" lon="-5.294800">
        <ele>2343.0</ele>
        <time>2015-07-25T12:11:20Z</time>
      </trkpt>
      <trkpt lat="40.423217" lon="-5.294767">
        <ele>2346.0</ele>
        <time>2015-07-25T12:11:21Z</time>
      </trkpt>
      <trkpt lat="40.423267" lon="-5.294767">
        <ele>2348.0</ele>
        <time>2015-07-25T12:11:22Z</time>
      </trkpt>
      <trkpt lat="40.423317" lon="-5.294817">
        <ele>2350.0</ele>
        <time>2015-07-25T12:11:23Z</time>
      </trkpt>
      <trkpt lat="40.423350" lon="-5.294883">
        <ele>2351.0</ele>
        <time>2015-07-25T12:11:24Z</time>
      </trkpt>
      <trkpt lat="40.423383" lon="-5.294967">
        <ele>2352.0</ele>
        <time>2015-07-25T12:11:25Z</time>
      </trkpt>
      <trkpt lat="40.423383" lon="-5.295067">
        <ele>2352.0</ele>
        <time>2015-07-25T12:11:26Z</time>
      </trkpt>
      <trkpt lat="40.423367" lon="-5.295200">
        <ele>2351.0</ele>
        <time>2015-07-25T12:11:27Z</time>
      </trkpt>
      <trkpt lat="40.423300" lon="-5.295333">
        <ele>2351.0</ele>
        <time>2015-07-25T12:11:28Z</time>
      </trkpt>
      <trkpt lat="40.423217" lon="-5.295450">
        <ele>2351.0</ele>
        <time>2015-07-25T12:11:29Z</time>
      </trkpt>
      <trkpt lat="40.423100" lon="-5.295550">
        <ele>2352.0</ele>
        <time>2015-07-25T12:11:30Z</time>
      </trkpt>
      <trkpt lat="40.422967" lon="-5.295583">
        <ele>2353.0</ele>
        <time>2015-07-25T12:11:31Z</time>
      </trkpt>
      <trkpt lat="40.422833" lon="-5.295600">
        <ele>2354.0</ele>
        <time>2015-07-25T12:11:32Z</time>
      </trkpt>
      <trkpt lat="40.422700" lon="-5.295567">
        <ele>2354.0</ele>
        <time>2015-07-25T12:11:33Z</time>
      </trkpt>
      <trkpt lat="40.422583" lon="-5.295483">
        <ele>2354.0</ele>
        <time>2015-07-25T12:11:34Z</time>
      </trkpt>
      <trkpt lat="40.422483" lon="-5.295367">
        <ele>2354.0</ele>
        <time>2015-07-25T12:11:35Z</time>
      </trkpt>
      <trkpt lat="40.422417" lon="-5.295217">
        <ele>2354.0</ele>
        <time>2015-07-25T12:11:36Z</time>
      </trkpt>
      <trkpt lat="40.422383" lon="-5.295067">
        <ele>2355.0</ele>
        <time>2015-07-25T12:11:37Z</time>
      </trkpt>
      <trkpt lat="40.422383" lon="-5.294933">
        <ele>2357.0</ele>
        <time>2015-07-25T12:11:38Z</time>
      </trkpt>
      <trkpt lat="40.422417" lon="-5.294817">
        <ele>2359.0</ele>
        <time>2015-07-25T12:11:39Z</time>
      </trkpt>
      <trkpt lat="40.422450" lon="-5.294733">
        <ele>2361.0</ele>
        <time>2015-07-25T12:11:40Z</time>
      </trkpt>
      <trkpt lat="40.422500" lon="-5.294667">
        <ele>2362.0</ele>
        <time>2015-07-25T12:11:41Z</time>
      </trkpt>
      <trkpt lat="40.422550" lon="-5.294600">
        <ele>2362.0</ele>
        <time>2015-07-25T12:11:42Z</time>
      </trkpt>
      <trkpt lat="40.422617" lon="-5.294567">
        <ele>2362.0</ele>
        <time>2015-07-25T12:11:43Z</time>
      </trkpt>
      <trkpt lat="40.422683" lon="-5.294550">
        <ele>2363.0</ele>
        <time>2015-07-25T12:11:44Z</time>
      </trkpt>
      <trkpt lat="40.422767" lon="-5.294550">
        <ele>2363.0</ele>
        <time>2015-07-25T12:11:45Z</time>
      </trkpt>
      <trkpt lat="40.422833" lon="-5.294533">
        <ele>2364.0</ele>
        <time>2015-07-25T12:11:46Z</time>
      </trkpt>
      <trkpt lat="40.422883" lon="-5.294500">
        <ele>2364.0</ele>
        <time>2015-07-25T12:11:47Z</time>
      </trkpt>
      <trkpt lat="40.422950" lon="-5.294450">
        <ele>2364.0</ele>
        <time>2015-07-25T12:11:48Z</time>
      </trkpt>
      <trkpt lat="40.423017" lon="-5.294417">
        <ele>2363.0</ele>
        <time>2015-07-25T12:11:49Z</time>
      </trkpt>
      <trkpt lat="40.423083" lon="-5.294383">
        <ele>2362.0</ele>
        <time>2015-07-25T12:11:50Z</time>
      </trkpt>
      <trkpt lat="40.423133" lon="-5.294367">
        <ele>2361.0</ele>
        <time>2015-07-25T12:11:51Z</time>
      </trkpt>
      <trkpt lat="40.423200" lon="-5.294350">
        <ele>2359.0</ele>
        <time>2015-07-25T12:11:52Z</time>
      </trkpt>
      <trkpt lat="40.423267" lon="-5.294317">
        <ele>2357.0</ele>
        <time>2015-07-25T12:11:53Z</time>
      </trkpt>
      <trkpt lat="40.423350" lon="-5.294317">
        <ele>2355.0</ele>
        <time>2015-07-25T12:11:54Z</time>
      </trkpt>
      <trkpt lat="40.423433" lon="-5.294333">
        <ele>2354.0</ele>
        <time>2015-07-25T12:11:55Z</time>
      </trkpt>
      <trkpt lat="40.423500" lon="-5.294350">
        <ele>2355.0</ele>
        <time>2015-07-25T12:11:56Z</time>
      </trkpt>
      <trkpt lat="40.423567" lon="-5.294367">
        <ele>2356.0</ele>
        <time>2015-07-25T12:11:57Z</time>
      </trkpt>
      <trkpt lat="40.423617" lon="-5.294350">
        <ele>2356.0</ele>
        <time>2015-07-25T12:11:58Z</time>
      </trkpt>
      <trkpt lat="40.423667" lon="-5.294350">
        <ele>2354.0</ele>
        <time>2015-07-25T12:11:59Z</time>
      </trkpt>
      <trkpt lat="40.423717" lon="-5.294333">
        <ele>2352.0</ele>
        <time>2015-07-25T12:12:00Z</time>
      </trkpt>
      <trkpt lat="40.423783" lon="-5.294333">
        <ele>2349.0</ele>
        <time>2015-07-25T12:12:01Z</time>
      </trkpt>
      <trkpt lat="40.423867" lon="-5.294333">
        <ele>2346.0</ele>
        <time>2015-07-25T12:12:02Z</time>
      </trkpt>
      <trkpt lat="40.423950" lon="-5.294317">
        <ele>2344.0</ele>
        <time>2015-07-25T12:12:03Z</time>
      </trkpt>
      <trkpt lat="40.424033" lon="-5.294317">
        <ele>2342.0</ele>
        <time>2015-07-25T12:12:04Z</time>
      </trkpt>
      <trkpt lat="40.424117" lon="-5.294300">
        <ele>2343.0</ele>
        <time>2015-07-25T12:12:05Z</time>
      </trkpt>
      <trkpt lat="40.424183" lon="-5.294283">
        <ele>2344.0</ele>
        <time>2015-07-25T12:12:06Z</time>
      </trkpt>
      <trkpt lat="40.424250" lon="-5.294283">
        <ele>2345.0</ele>
        <time>2015-07-25T12:12:07Z</time>
      </trkpt>
      <trkpt lat="40.424317" lon="-5.294267">
        <ele>2346.0</ele>
        <time>2015-07-25T12:12:08Z</time>
      </trkpt>
      <trkpt lat="40.424367" lon="-5.294250">
        <ele>2346.0</ele>
        <time>2015-07-25T12:12:09Z</time>
      </trkpt>
      <trkpt lat="40.424400" lon="-5.294233">
        <ele>2345.0</ele>
        <time>2015-07-25T12:12:10Z</time>
      </trkpt>
      <trkpt lat="40.424450" lon="-5.294217">
        <ele>2344.0</ele>
        <time>2015-07-25T12:12:11Z</time>
      </trkpt>
      <trkpt lat="40.424517" lon="-5.294217">
        <ele>2342.0</ele>
        <time>2015-07-25T12:12:12Z</time>
      </trkpt>
      <trkpt lat="40.424567" lon="-5.294200">
        <ele>2340.0</ele>
        <time>2015-07-25T12:12:13Z</time>
      </trkpt>
      <trkpt lat="40.424600" lon="-5.294183">
        <ele>2337.0</ele>
        <time>2015-07-25T12:12:14Z</time>
      </trkpt>
      <trkpt lat="40.424650" lon="-5.294150">
        <ele>2335.0</ele>
        <time>2015-07-25T12:12:15Z</time>
      </trkpt>
      <trkpt lat="40.424700" lon="-5.294100">
        <ele>2332.0</ele>
        <time>2015-07-25T12:12:16Z</time>
      </trkpt>
      <trkpt lat="40.424767" lon="-5.294067">
        <ele>2329.0</ele>
        <time>2015-07-25T12:12:17Z</time>
      </trkpt>
      <trkpt lat="40.424850" lon="-5.294033">
        <ele>2327.0</ele>
        <time>2015-07-25T12:12:18Z</time>
      </trkpt>
      <trkpt lat="40.424933" lon="-5.294033">
        <ele>2326.0</ele>
        <time>2015-07-25T12:12:19Z</time>
      </trkpt>
      <trkpt lat="40.425000" lon="-5.294017">
        <ele>2324.0</ele>
        <time>2015-07-25T12:12:20Z</time>
      </trkpt>
      <trkpt lat="40.425083" lon="-5.294000">
        <ele>2322.0</ele>
        <time>2015-07-25T12:12:21Z</time>
      </trkpt>
      <trkpt lat="40.425167" lon="-5.293983">
        <ele>2319.0</ele>
        <time>2015-07-25T12:12:22Z</time>
      </trkpt>
      <trkpt lat="40.425233" lon="-5.293967">
        <ele>2317.0</ele>
        <time>2015-07-25T12:12:23Z</time>
      </trkpt>
      <trkpt lat="40.425317" lon="-5.293950">
        <ele>2316.0</ele>
        <time>2015-07-25T12:12:24Z</time>
      </trkpt>
      <trkpt lat="40.425383" lon="-5.293933">
        <ele>2314.0</ele>
        <time>2015-07-25T12:12:25Z</time>
      </trkpt>
      <trkpt lat="40.425450" lon="-5.293900">
        <ele>2312.0</ele>
        <time>2015-07-25T12:12:26Z</time>
      </trkpt>
      <trkpt lat="40.425533" lon="-5.293867">
        <ele>2309.0</ele>
        <time>2015-07-25T12:12:27Z</time>
      </trkpt>
      <trkpt lat="40.425617" lon="-5.293867">
        <ele>2307.0</ele>
        <time>2015-07-25T12:12:28Z</time>
      </trkpt>
      <trkpt lat="40.425700" lon="-5.293850">
        <ele>2305.0</ele>
        <time>2015-07-25T12:12:29Z</time>
      </trkpt>
      <trkpt lat="40.425800" lon="-5.293850">
        <ele>2303.0</ele>
        <time>2015-07-25T12:12:30Z</time>
      </trkpt>
      <trkpt lat="40.425883" lon="-5.293850">
        <ele>2301.0</ele>
        <time>2015-07-25T12:12:31Z</time>
      </trkpt>
      <trkpt lat="40.425967" lon="-5.293833">
        <ele>2299.0</ele>
        <time>2015-07-25T12:12:32Z</time>
      </trkpt>
      <trkpt lat="40.426050" lon="-5.293800">
        <ele>2296.0</ele>
        <time>2015-07-25T12:12:33Z</time>
      </trkpt>
      <trkpt lat="40.426150" lon="-5.293767">
        <ele>2293.0</ele>
        <time>2015-07-25T12:12:34Z</time>
      </trkpt>
      <trkpt lat="40.426233" lon="-5.293717">
        <ele>2291.0</ele>
        <time>2015-07-25T12:12:35Z</time>
      </trkpt>
      <trkpt lat="40.426333" lon="-5.293650">
        <ele>2289.0</ele>
        <time>2015-07-25T12:12:36Z</time>
      </trkpt>
      <trkpt lat="40.426417" lon="-5.293583">
        <ele>2287.0</ele>
        <time>2015-07-25T12:12:37Z</time>
      </trkpt>
      <trkpt lat="40.426500" lon="-5.293517">
        <ele>2286.0</ele>
        <time>2015-07-25T12:12:38Z</time>
      </trkpt>
      <trkpt lat="40.426567" lon="-5.293450">
        <ele>2283.0</ele>
        <time>2015-07-25T12:12:39Z</time>
      </trkpt>
      <trkpt lat="40.426633" lon="-5.293383">
        <ele>2281.0</ele>
        <time>2015-07-25T12:12:40Z</time>
      </trkpt>
      <trkpt lat="40.426717" lon="-5.293300">
        <ele>2279.0</ele>
        <time>2015-07-25T12:12:41Z</time>
      </trkpt>
      <trkpt lat="40.426800" lon="-5.293233">
        <ele>2276.0</ele>
        <time>2015-07-25T12:12:42Z</time>
      </trkpt>
      <trkpt lat="40.426883" lon="-5.293133">
        <ele>2274.0</ele>
        <time>2015-07-25T12:12:43Z</time>
      </trkpt>
      <trkpt lat="40.426967" lon="-5.293050">
        <ele>2273.0</ele>
        <time>2015-07-25T12:12:44Z</time>
      </trkpt>
      <trkpt lat="40.427033" lon="-5.292950">
        <ele>2272.0</ele>
        <time>2015-07-25T12:12:45Z</time>
      </trkpt>
      <trkpt lat="40.427100" lon="-5.292850">
        <ele>2271.0</ele>
        <time>2015-07-25T12:12:46Z</time>
      </trkpt>
      <trkpt lat="40.427183" lon="-5.292767">
        <ele>2270.0</ele>
        <time>2015-07-25T12:12:47Z</time>
      </trkpt>
      <trkpt lat="40.427250" lon="-5.292700">
        <ele>2269.0</ele>
        <time>2015-07-25T12:12:48Z</time>
      </trkpt>
      <trkpt lat="40.427317" lon="-5.292633">
        <ele>2266.0</ele>
        <time>2015-07-25T12:12:49Z</time>
      </trkpt>
      <trkpt lat="40.427400" lon="-5.292583">
        <ele>2264.0</ele>
        <time>2015-07-25T12:12:50Z</time>
      </trkpt>
      <trkpt lat="40.427483" lon="-5.292517">
        <ele>2260.0</ele>
        <time>2015-07-25T12:12:51Z</time>
      </trkpt>
      <trkpt lat="40.427583" lon="-5.292467">
        <ele>2258.0</ele>
        <time>2015-07-25T12:12:52Z</time>
      </trkpt>
      <trkpt lat="40.427683" lon="-5.292417">
        <ele>2257.0</ele>
        <time>2015-07-25T12:12:53Z</time>
      </trkpt>
      <trkpt lat="40.427767" lon="-5.292400">
        <ele>2256.0</ele>
        <time>2015-07-25T12:12:54Z</time>
      </trkpt>
      <trkpt lat="40.427867" lon="-5.292367">
        <ele>2255.0</ele>
        <time>2015-07-25T12:12:55Z</time>
      </trkpt>
      <trkpt lat="40.427950" lon="-5.292333">
        <ele>2253.0</ele>
        <time>2015-07-25T12:12:56Z</time>
      </trkpt>
      <trkpt lat="40.428033" lon="-5.292283">
        <ele>2251.0</ele>
        <time>2015-07-25T12:12:57Z</time>
      </trkpt>
      <trkpt lat="40.428117" lon="-5.292217">
        <ele>2250.0</ele>
        <time>2015-07-25T12:12:58Z</time>
      </trkpt>
      <trkpt lat="40.428200" lon="-5.292150">
        <ele>2250.0</ele>
        <time>2015-07-25T12:12:59Z</time>
      </trkpt>
      <trkpt lat="40.428267" lon="-5.292067">
        <ele>2249.0</ele>
        <time>2015-07-25T12:13:00Z</time>
      </trkpt>
      <trkpt lat="40.428333" lon="-5.292000">
        <ele>2248.0</ele>
        <time>2015-07-25T12:13:01Z</time>
      </trkpt>
      <trkpt lat="40.428417" lon="-5.291933">
        <ele>2247.0</ele>
        <time>2015-07-25T12:13:02Z</time>
      </trkpt>
      <trkpt lat="40.428483" lon="-5.291867">
        <ele>2247.0</ele>
        <time>2015-07-25T12:13:03Z</time>
      </trkpt>
      <trkpt lat="40.428550" lon="-5.291833">
        <ele>2246.0</ele>
        <time>2015-07-25T12:13:04Z</time>
      </trkpt>
      <trkpt lat="40.428617" lon="-5.291783">
        <ele>2245.0</ele>
        <time>2015-07-25T12:13:05Z</time>
      </trkpt>
      <trkpt lat="40.428683" lon="-5.291733">
        <ele>2243.0</ele>
        <time>2015-07-25T12:13:06Z</time>
      </trkpt>
      <trkpt lat="40.428767" lon="-5.291667">
        <ele>2241.0</ele>
        <time>2015-07-25T12:13:07Z</time>
      </trkpt>
      <trkpt lat="40.428833" lon="-5.291600">
        <ele>2240.0</ele>
        <time>2015-07-25T12:13:08Z</time>
      </trkpt>
      <trkpt lat="40.428917" lon="-5.291550">
        <ele>2239.0</ele>
        <time>2015-07-25T12:13:09Z</time>
      </trkpt>
      <trkpt lat="40.428983" lon="-5.291500">
        <ele>2238.0</ele>
        <time>2015-07-25T12:13:10Z</time>
      </trkpt>
      <trkpt lat="40.429067" lon="-5.291433">
        <ele>2236.0</ele>
        <time>2015-07-25T12:13:11Z</time>
      </trkpt>
      <trkpt lat="40.429133" lon="-5.291383">
        <ele>2234.0</ele>
        <time>2015-07-25T12:13:12Z</time>
      </trkpt>
      <trkpt lat="40.429200" lon="-5.291317">
        <ele>2231.0</ele>
        <time>2015-07-25T12:13:13Z</time>
      </trkpt>
      <trkpt lat="40.429283" lon="-5.291233">
        <ele>2227.0</ele>
        <time>2015-07-25T12:13:14Z</time>
      </trkpt>
      <trkpt lat="40.429367" lon="-5.291167">
        <ele>2224.0</ele>
        <time>2015-07-25T12:13:15Z</time>
      </trkpt>
      <trkpt lat="40.429467" lon="-5.291100">
        <ele>2222.0</ele>
        <time>2015-07-25T12:13:16Z</time>
      </trkpt>
      <trkpt lat="40.429550" lon="-5.291050">
        <ele>2221.0</ele>
        <time>2015-07-25T12:13:17Z</time>
      </trkpt>
      <trkpt lat="40.429633" lon="-5.291017">
        <ele>2221.0</ele>
        <time>2015-07-25T12:13:18Z</time>
      </trkpt>
      <trkpt lat="40.429717" lon="-5.290967">
        <ele>2222.0</ele>
        <time>2015-07-25T12:13:19Z</time>
      </trkpt>
      <trkpt lat="40.429783" lon="-5.290917">
        <ele>2222.0</ele>
        <time>2015-07-25T12:13:20Z</time>
      </trkpt>
      <trkpt lat="40.429850" lon="-5.290867">
        <ele>2222.0</ele>
        <time>2015-07-25T12:13:21Z</time>
      </trkpt>
      <trkpt lat="40.429917" lon="-5.290800">
        <ele>2221.0</ele>
        <time>2015-07-25T12:13:22Z</time>
      </trkpt>
      <trkpt lat="40.430000" lon="-5.290750">
        <ele>2220.0</ele>
        <time>2015-07-25T12:13:23Z</time>
      </trkpt>
      <trkpt lat="40.430067" lon="-5.290700">
        <ele>2220.0</ele>
        <time>2015-07-25T12:13:24Z</time>
      </trkpt>
      <trkpt lat="40.430150" lon="-5.290633">
        <ele>2219.0</ele>
        <time>2015-07-25T12:13:25Z</time>
      </trkpt>
      <trkpt lat="40.430217" lon="-5.290567">
        <ele>2219.0</ele>
        <time>2015-07-25T12:13:26Z</time>
      </trkpt>
      <trkpt lat="40.430283" lon="-5.290500">
        <ele>2218.0</ele>
        <time>2015-07-25T12:13:27Z</time>
      </trkpt>
      <trkpt lat="40.430350" lon="-5.290433">
        <ele>2217.0</ele>
        <time>2015-07-25T12:13:28Z</time>
      </trkpt>
      <trkpt lat="40.430417" lon="-5.290383">
        <ele>2215.0</ele>
        <time>2015-07-25T12:13:29Z</time>
      </trkpt>
      <trkpt lat="40.430483" lon="-5.290333">
        <ele>2212.0</ele>
        <time>2015-07-25T12:13:30Z</time>
      </trkpt>
      <trkpt lat="40.430567" lon="-5.290283">
        <ele>2210.0</ele>
        <time>2015-07-25T12:13:31Z</time>
      </trkpt>
      <trkpt lat="40.430650" lon="-5.290217">
        <ele>2207.0</ele>
        <time>2015-07-25T12:13:32Z</time>
      </trkpt>
      <trkpt lat="40.430717" lon="-5.290150">
        <ele>2205.0</ele>
        <time>2015-07-25T12:13:33Z</time>
      </trkpt>
      <trkpt lat="40.430800" lon="-5.290100">
        <ele>2204.0</ele>
        <time>2015-07-25T12:13:34Z</time>
      </trkpt>
      <trkpt lat="40.430867" lon="-5.290050">
        <ele>2202.0</ele>
        <time>2015-07-25T12:13:35Z</time>
      </trkpt>
      <trkpt lat="40.430933" lon="-5.290017">
        <ele>2200.0</ele>
        <time>2015-07-25T12:13:36Z</time>
      </trkpt>
      <trkpt lat="40.431000" lon="-5.289983">
        <ele>2198.0</ele>
        <time>2015-07-25T12:13:37Z</time>
      </trkpt>
      <trkpt lat="40.431083" lon="-5.289950">
        <ele>2196.0</ele>
        <time>2015-07-25T12:13:38Z</time>
      </trkpt>
      <trkpt lat="40.431167" lon="-5.289883">
        <ele>2193.0</ele>
        <time>2015-07-25T12:13:39Z</time>
      </trkpt>
      <trkpt lat="40.431250" lon="-5.289817">
        <ele>2192.0</ele>
        <time>2015-07-25T12:13:40Z</time>
      </trkpt>
      <trkpt lat="40.431317" lon="-5.289767">
        <ele>2191.0</ele>
        <time>2015-07-25T12:13:41Z</time>
      </trkpt>
      <trkpt lat="40.431383" lon="-5.289733">
        <ele>2190.0</ele>
        <time>2015-07-25T12:13:42Z</time>
      </trkpt>
      <trkpt lat="40.431433" lon="-5.289717">
        <ele>2188.0</ele>
        <time>2015-07-25T12:13:43Z</time>
      </trkpt>
      <trkpt lat="40.431483" lon="-5.289717">
        <ele>2185.0</ele>
        <time>2015-07-25T12:13:44Z</time>
      </trkpt>
      <trkpt lat="40.431550" lon="-5.289700">
        <ele>2182.0</ele>
        <time>2015-07-25T12:13:45Z</time>
      </trkpt>
      <trkpt lat="40.431633" lon="-5.289683">
        <ele>2180.0</ele>
        <time>2015-07-25T12:13:46Z</time>
      </trkpt>
      <trkpt lat="40.431700" lon="-5.289683">
        <ele>2178.0</ele>
        <time>2015-07-25T12:13:47Z</time>
      </trkpt>
      <trkpt lat="40.431767" lon="-5.289667">
        <ele>2178.0</ele>
        <time>2015-07-25T12:13:48Z</time>
      </trkpt>
      <trkpt lat="40.431833" lon="-5.289650">
        <ele>2177.0</ele>
        <time>2015-07-25T12:13:49Z</time>
      </trkpt>
      <trkpt lat="40.431900" lon="-5.289617">
        <ele>2176.0</ele>
        <time>2015-07-25T12:13:50Z</time>
      </trkpt>
      <trkpt lat="40.431967" lon="-5.289583">
        <ele>2176.0</ele>
        <time>2015-07-25T12:13:51Z</time>
      </trkpt>
      <trkpt lat="40.432017" lon="-5.289550">
        <ele>2175.0</ele>
        <time>2015-07-25T12:13:52Z</time>
      </trkpt>
      <trkpt lat="40.432083" lon="-5.289517">
        <ele>2173.0</ele>
        <time>2015-07-25T12:13:53Z</time>
      </trkpt>
      <trkpt lat="40.432150" lon="-5.289517">
        <ele>2171.0</ele>
        <time>2015-07-25T12:13:54Z</time>
      </trkpt>
      <trkpt lat="40.432200" lon="-5.289533">
        <ele>2168.0</ele>
        <time>2015-07-25T12:13:55Z</time>
      </trkpt>
      <trkpt lat="40.432283" lon="-5.289533">
        <ele>2165.0</ele>
        <time>2015-07-25T12:13:56Z</time>
      </trkpt>
      <trkpt lat="40.432350" lon="-5.289517">
        <ele>2162.0</ele>
        <time>2015-07-25T12:13:57Z</time>
      </trkpt>
      <trkpt lat="40.432417" lon="-5.289500">
        <ele>2161.0</ele>
        <time>2015-07-25T12:13:58Z</time>
      </trkpt>
      <trkpt lat="40.432483" lon="-5.289483">
        <ele>2159.0</ele>
        <time>2015-07-25T12:13:59Z</time>
      </trkpt>
      <trkpt lat="40.432567" lon="-5.289483">
        <ele>2157.0</ele>
        <time>2015-07-25T12:14:00Z</time>
      </trkpt>
      <trkpt lat="40.432633" lon="-5.289483">
        <ele>2156.0</ele>
        <time>2015-07-25T12:14:01Z</time>
      </trkpt>
      <trkpt lat="40.432700" lon="-5.289450">
        <ele>2155.0</ele>
        <time>2015-07-25T12:14:02Z</time>
      </trkpt>
      <trkpt lat="40.432767" lon="-5.289417">
        <ele>2154.0</ele>
        <time>2015-07-25T12:14:03Z</time>
      </trkpt>
      <trkpt lat="40.432833" lon="-5.289383">
        <ele>2153.0</ele>
        <time>2015-07-25T12:14:04Z</time>
      </trkpt>
      <trkpt lat="40.432900" lon="-5.289350">
        <ele>2151.0</ele>
        <time>2015-07-25T12:14:05Z</time>
      </trkpt>
      <trkpt lat="40.432967" lon="-5.289317">
        <ele>2147.0</ele>
        <time>2015-07-25T12:14:06Z</time>
      </trkpt>
      <trkpt lat="40.433033" lon="-5.289283">
        <ele>2144.0</ele>
        <time>2015-07-25T12:14:07Z</time>
      </trkpt>
      <trkpt lat="40.433083" lon="-5.289250">
        <ele>2141.0</ele>
        <time>2015-07-25T12:14:08Z</time>
      </trkpt>
      <trkpt lat="40.433150" lon="-5.289233">
        <ele>2138.0</ele>
        <time>2015-07-25T12:14:09Z</time>
      </trkpt>
      <trkpt lat="40.433200" lon="-5.289217">
        <ele>2135.0</ele>
        <time>2015-07-25T12:14:10Z</time>
      </trkpt>
      <trkpt lat="40.433267" lon="-5.289200">
        <ele>2131.0</ele>
        <time>2015-07-25T12:14:11Z</time>
      </trkpt>
      <trkpt lat="40.433333" lon="-5.289183">
        <ele>2127.0</ele>
        <time>2015-07-25T12:14:12Z</time>
      </trkpt>
      <trkpt lat="40.433417" lon="-5.289183">
        <ele>2124.0</ele>
        <time>2015-07-25T12:14:13Z</time>
      </trkpt>
      <trkpt lat="40.433500" lon="-5.289167">
        <ele>2123.0</ele>
        <time>2015-07-25T12:14:14Z</time>
      </trkpt>
      <trkpt lat="40.433583" lon="-5.289167">
        <ele>2122.0</ele>
        <time>2015-07-25T12:14:15Z</time>
      </trkpt>
      <trkpt lat="40.433650" lon="-5.289133">
        <ele>2121.0</ele>
        <time>2015-07-25T12:14:16Z</time>
      </trkpt>
      <trkpt lat="40.433700" lon="-5.289117">
        <ele>2121.0</ele>
        <time>2015-07-25T12:14:17Z</time>
      </trkpt>
      <trkpt lat="40.433750" lon="-5.289083">
        <ele>2120.0</ele>
        <time>2015-07-25T12:14:18Z</time>
      </trkpt>
      <trkpt lat="40.433800" lon="-5.289050">
        <ele>2118.0</ele>
        <time>2015-07-25T12:14:19Z</time>
      </trkpt>
      <trkpt lat="40.433867" lon="-5.289017">
        <ele>2116.0</ele>
        <time>2015-07-25T12:14:20Z</time>
      </trkpt>
      <trkpt lat="40.433917" lon="-5.288967">
        <ele>2114.0</ele>
        <time>2015-07-25T12:14:21Z</time>
      </trkpt>
      <trkpt lat="40.433983" lon="-5.288900">
        <ele>2112.0</ele>
        <time>2015-07-25T12:14:22Z</time>
      </trkpt>
      <trkpt lat="40.434050" lon="-5.288817">
        <ele>2111.0</ele>
        <time>2015-07-25T12:14:23Z</time>
      </trkpt>
      <trkpt lat="40.434117" lon="-5.288717">
        <ele>2109.0</ele>
        <time>2015-07-25T12:14:24Z</time>
      </trkpt>
      <trkpt lat="40.434167" lon="-5.288650">
        <ele>2108.0</ele>
        <time>2015-07-25T12:14:25Z</time>
      </trkpt>
      <trkpt lat="40.434233" lon="-5.288583">
        <ele>2106.0</ele>
        <time>2015-07-25T12:14:26Z</time>
      </trkpt>
      <trkpt lat="40.434300" lon="-5.288550">
        <ele>2103.0</ele>
        <time>2015-07-25T12:14:27Z</time>
      </trkpt>
      <trkpt lat="40.434367" lon="-5.288500">
        <ele>2101.0</ele>
        <time>2015-07-25T12:14:28Z</time>
      </trkpt>
      <trkpt lat="40.434450" lon="-5.288433">
        <ele>2099.0</ele>
        <time>2015-07-25T12:14:29Z</time>
      </trkpt>
      <trkpt lat="40.434517" lon="-5.288383">
        <ele>2097.0</ele>
        <time>2015-07-25T12:14:30Z</time>
      </trkpt>
      <trkpt lat="40.434583" lon="-5.288350">
        <ele>2095.0</ele>
        <time>2015-07-25T12:14:31Z</time>
      </trkpt>
      <trkpt lat="40.434650" lon="-5.288317">
        <ele>2094.0</ele>
        <time>2015-07-25T12:14:32Z</time>
      </trkpt>
      <trkpt lat="40.434700" lon="-5.288317">
        <ele>2092.0</ele>
        <time>2015-07-25T12:14:33Z</time>
      </trkpt>
      <trkpt lat="40.434750" lon="-5.288300">
        <ele>2091.0</ele>
        <time>2015-07-25T12:14:34Z</time>
      </trkpt>
      <trkpt lat="40.434800" lon="-5.288300">
        <ele>2089.0</ele>
        <time>2015-07-25T12:14:35Z</time>
      </trkpt>
      <trkpt lat="40.434850" lon="-5.288283">
        <ele>2087.0</ele>
        <time>2015-07-25T12:14:36Z</time>
      </trkpt>
      <trkpt lat="40.434900" lon="-5.288300">
        <ele>2084.0</ele>
        <time>2015-07-25T12:14:37Z</time>
      </trkpt>
      <trkpt lat="40.434933" lon="-5.288333">
        <ele>2081.0</ele>
        <time>2015-07-25T12:14:38Z</time>
      </trkpt>
      <trkpt lat="40.434983" lon="-5.288383">
        <ele>2079.0</ele>
        <time>2015-07-25T12:14:39Z</time>
      </trkpt>
      <trkpt lat="40.435033" lon="-5.288450">
        <ele>2076.0</ele>
        <time>2015-07-25T12:14:40Z</time>
      </trkpt>
      <trkpt lat="40.435067" lon="-5.288517">
        <ele>2075.0</ele>
        <time>2015-07-25T12:14:41Z</time>
      </trkpt>
      <trkpt lat="40.435100" lon="-5.288583">
        <ele>2074.0</ele>
        <time>2015-07-25T12:14:42Z</time>
      </trkpt>
      <trkpt lat="40.435150" lon="-5.288667">
        <ele>2073.0</ele>
        <time>2015-07-25T12:14:43Z</time>
      </trkpt>
      <trkpt lat="40.435200" lon="-5.288733">
        <ele>2071.0</ele>
        <time>2015-07-25T12:14:44Z</time>
      </trkpt>
      <trkpt lat="40.435233" lon="-5.288817">
        <ele>2070.0</ele>
        <time>2015-07-25T12:14:45Z</time>
      </trkpt>
      <trkpt lat="40.435283" lon="-5.288900">
        <ele>2070.0</ele>
        <time>2015-07-25T12:14:46Z</time>
      </trkpt>
      <trkpt lat="40.435333" lon="-5.288983">
        <ele>2069.0</ele>
        <time>2015-07-25T12:14:47Z</time>
      </trkpt>
      <trkpt lat="40.435383" lon="-5.289067">
        <ele>2069.0</ele>
        <time>2015-07-25T12:14:48Z</time>
      </trkpt>
      <trkpt lat="40.435417" lon="-5.289167">
        <ele>2068.0</ele>
        <time>2015-07-25T12:14:49Z</time>
      </trkpt>
      <trkpt lat="40.435467" lon="-5.289267">
        <ele>2067.0</ele>
        <time>2015-07-25T12:14:50Z</time>
      </trkpt>
      <trkpt lat="40.435517" lon="-5.289367">
        <ele>2067.0</ele>
        <time>2015-07-25T12:14:51Z</time>
      </trkpt>
      <trkpt lat="40.435567" lon="-5.289467">
        <ele>2066.0</ele>
        <time>2015-07-25T12:14:52Z</time>
      </trkpt>
      <trkpt lat="40.435600" lon="-5.289567">
        <ele>2065.0</ele>
        <time>2015-07-25T12:14:53Z</time>
      </trkpt>
      <trkpt lat="40.435650" lon="-5.289650">
        <ele>2064.0</ele>
        <time>2015-07-25T12:14:54Z</time>
      </trkpt>
      <trkpt lat="40.435717" lon="-5.289717">
        <ele>2062.0</ele>
        <time>2015-07-25T12:14:55Z</time>
      </trkpt>
      <trkpt lat="40.435767" lon="-5.289783">
        <ele>2060.0</ele>
        <time>2015-07-25T12:14:56Z</time>
      </trkpt>
      <trkpt lat="40.435817" lon="-5.289833">
        <ele>2058.0</ele>
        <time>2015-07-25T12:14:57Z</time>
      </trkpt>
      <trkpt lat="40.435867" lon="-5.289900">
        <ele>2057.0</ele>
        <time>2015-07-25T12:14:58Z</time>
      </trkpt>
      <trkpt lat="40.435900" lon="-5.289967">
        <ele>2055.0</ele>
        <time>2015-07-25T12:14:59Z</time>
      </trkpt>
      <trkpt lat="40.435933" lon="-5.290050">
        <ele>2053.0</ele>
        <time>2015-07-25T12:15:00Z</time>
      </trkpt>
      <trkpt lat="40.435983" lon="-5.290150">
        <ele>2052.0</ele>
        <time>2015-07-25T12:15:01Z</time>
      </trkpt>
      <trkpt lat="40.436050" lon="-5.290233">
        <ele>2050.0</ele>
        <time>2015-07-25T12:15:02Z</time>
      </trkpt>
      <trkpt lat="40.436133" lon="-5.290333">
        <ele>2049.0</ele>
        <time>2015-07-25T12:15:03Z</time>
      </trkpt>
      <trkpt lat="40.436183" lon="-5.290417">
        <ele>2050.0</ele>
        <time>2015-07-25T12:15:04Z</time>
      </trkpt>
      <trkpt lat="40.436250" lon="-5.290500">
        <ele>2050.0</ele>
        <time>2015-07-25T12:15:05Z</time>
      </trkpt>
      <trkpt lat="40.436300" lon="-5.290583">
        <ele>2051.0</ele>
        <time>2015-07-25T12:15:06Z</time>
      </trkpt>
      <trkpt lat="40.436367" lon="-5.290650">
        <ele>2052.0</ele>
        <time>2015-07-25T12:15:07Z</time>
      </trkpt>
      <trkpt lat="40.436433" lon="-5.290717">
        <ele>2052.0</ele>
        <time>2015-07-25T12:15:08Z</time>
      </trkpt>
      <trkpt lat="40.436500" lon="-5.290767">
        <ele>2051.0</ele>
        <time>2015-07-25T12:15:09Z</time>
      </trkpt>
      <trkpt lat="40.436550" lon="-5.290867">
        <ele>2050.0</ele>
        <time>2015-07-25T12:15:10Z</time>
      </trkpt>
      <trkpt lat="40.436583" lon="-5.290983">
        <ele>2048.0</ele>
        <time>2015-07-25T12:15:11Z</time>
      </trkpt>
      <trkpt lat="40.436617" lon="-5.291117">
        <ele>2048.0</ele>
        <time>2015-07-25T12:15:12Z</time>
      </trkpt>
      <trkpt lat="40.436667" lon="-5.291233">
        <ele>2050.0</ele>
        <time>2015-07-25T12:15:13Z</time>
      </trkpt>
      <trkpt lat="40.436717" lon="-5.291350">
        <ele>2051.0</ele>
        <time>2015-07-25T12:15:14Z</time>
      </trkpt>
      <trkpt lat="40.436783" lon="-5.291450">
        <ele>2054.0</ele>
        <time>2015-07-25T12:15:15Z</time>
      </trkpt>
      <trkpt lat="40.436817" lon="-5.291533">
        <ele>2055.0</ele>
        <time>2015-07-25T12:15:16Z</time>
      </trkpt>
      <trkpt lat="40.436867" lon="-5.291633">
        <ele>2056.0</ele>
        <time>2015-07-25T12:15:17Z</time>
      </trkpt>
      <trkpt lat="40.436900" lon="-5.291733">
        <ele>2055.0</ele>
        <time>2015-07-25T12:15:18Z</time>
      </trkpt>
      <trkpt lat="40.436900" lon="-5.291867">
        <ele>2055.0</ele>
        <time>2015-07-25T12:15:19Z</time>
      </trkpt>
      <trkpt lat="40.436883" lon="-5.292017">
        <ele>2055.0</ele>
        <time>2015-07-25T12:15:20Z</time>
      </trkpt>
      <trkpt lat="40.436833" lon="-5.292167">
        <ele>2057.0</ele>
        <time>2015-07-25T12:15:21Z</time>
      </trkpt>
      <trkpt lat="40.436783" lon="-5.292283">
        <ele>2060.0</ele>
        <time>2015-07-25T12:15:22Z</time>
      </trkpt>
      <trkpt lat="40.436733" lon="-5.292400">
        <ele>2064.0</ele>
        <time>2015-07-25T12:15:23Z</time>
      </trkpt>
      <trkpt lat="40.436717" lon="-5.292500">
        <ele>2066.0</ele>
        <time>2015-07-25T12:15:24Z</time>
      </trkpt>
      <trkpt lat="40.436700" lon="-5.292583">
        <ele>2067.0</ele>
        <time>2015-07-25T12:15:25Z</time>
      </trkpt>
      <trkpt lat="40.436667" lon="-5.292667">
        <ele>2068.0</ele>
        <time>2015-07-25T12:15:26Z</time>
      </trkpt>
      <trkpt lat="40.436633" lon="-5.292750">
        <ele>2067.0</ele>
        <time>2015-07-25T12:15:27Z</time>
      </trkpt>
      <trkpt lat="40.436550" lon="-5.292850">
        <ele>2065.0</ele>
        <time>2015-07-25T12:15:28Z</time>
      </trkpt>
      <trkpt lat="40.436433" lon="-5.292917">
        <ele>2064.0</ele>
        <time>2015-07-25T12:15:29Z</time>
      </trkpt>
      <trkpt lat="40.436300" lon="-5.292967">
        <ele>2063.0</ele>
        <time>2015-07-25T12:15:30Z</time>
      </trkpt>
      <trkpt lat="40.436167" lon="-5.292967">
        <ele>2063.0</ele>
        <time>2015-07-25T12:15:31Z</time>
      </trkpt>
      <trkpt lat="40.436033" lon="-5.292933">
        <ele>2063.0</ele>
        <time>2015-07-25T12:15:32Z</time>
      </trkpt>
      <trkpt lat="40.435917" lon="-5.292867">
        <ele>2063.0</ele>
        <time>2015-07-25T12:15:33Z</time>
      </trkpt>
      <trkpt lat="40.435817" lon="-5.292767">
        <ele>2063.0</ele>
        <time>2015-07-25T12:15:34Z</time>
      </trkpt>
      <trkpt lat="40.435733" lon="-5.292633">
        <ele>2064.0</ele>
        <time>2015-07-25T12:15:35Z</time>
      </trkpt>
      <trkpt lat="40.435683" lon="-5.292517">
        <ele>2065.0</ele>
        <time>2015-07-25T12:15:36Z</time>
      </trkpt>
      <trkpt lat="40.435667" lon="-5.292383">
        <ele>2065.0</ele>
        <time>2015-07-25T12:15:37Z</time>
      </trkpt>
      <trkpt lat="40.435683" lon="-5.292267">
        <ele>2066.0</ele>
        <time>2015-07-25T12:15:38Z</time>
      </trkpt>
      <trkpt lat="40.435683" lon="-5.292150">
        <ele>2068.0</ele>
        <time>2015-07-25T12:15:39Z</time>
      </trkpt>
      <trkpt lat="40.435700" lon="-5.292050">
        <ele>2068.0</ele>
        <time>2015-07-25T12:15:40Z</time>
      </trkpt>
      <trkpt lat="40.435733" lon="-5.291967">
        <ele>2068.0</ele>
        <time>2015-07-25T12:15:41Z</time>
      </trkpt>
      <trkpt lat="40.435783" lon="-5.291883">
        <ele>2067.0</ele>
        <time>2015-07-25T12:15:42Z</time>
      </trkpt>
      <trkpt lat="40.435850" lon="-5.291817">
        <ele>2066.0</ele>
        <time>2015-07-25T12:15:43Z</time>
      </trkpt>
      <trkpt lat="40.435933" lon="-5.291767">
        <ele>2067.0</ele>
        <time>2015-07-25T12:15:44Z</time>
      </trkpt>
      <trkpt lat="40.436017" lon="-5.291700">
        <ele>2069.0</ele>
        <time>2015-07-25T12:15:45Z</time>
      </trkpt>
      <trkpt lat="40.436100" lon="-5.291650">
        <ele>2071.0</ele>
        <time>2015-07-25T12:15:46Z</time>
      </trkpt>
      <trkpt lat="40.436150" lon="-5.291600">
        <ele>2073.0</ele>
        <time>2015-07-25T12:15:47Z</time>
      </trkpt>
      <trkpt lat="40.436233" lon="-5.291550">
        <ele>2074.0</ele>
        <time>2015-07-25T12:15:48Z</time>
      </trkpt>
      <trkpt lat="40.436300" lon="-5.291500">
        <ele>2076.0</ele>
        <time>2015-07-25T12:15:49Z</time>
      </trkpt>
      <trkpt lat="40.436383" lon="-5.291483">
        <ele>2077.0</ele>
        <time>2015-07-25T12:15:50Z</time>
      </trkpt>
      <trkpt lat="40.436450" lon="-5.291483">
        <ele>2078.0</ele>
        <time>2015-07-25T12:15:51Z</time>
      </trkpt>
      <trkpt lat="40.436500" lon="-5.291533">
        <ele>2078.0</ele>
        <time>2015-07-25T12:15:52Z</time>
      </trkpt>
      <trkpt lat="40.436517" lon="-5.291617">
        <ele>2076.0</ele>
        <time>2015-07-25T12:15:53Z</time>
      </trkpt>
      <trkpt lat="40.436500" lon="-5.291750">
        <ele>2074.0</ele>
        <time>2015-07-25T12:15:54Z</time>
      </trkpt>
      <trkpt lat="40.436467" lon="-5.291883">
        <ele>2075.0</ele>
        <time>2015-07-25T12:15:55Z</time>
      </trkpt>
      <trkpt lat="40.436400" lon="-5.292000">
        <ele>2077.0</ele>
        <time>2015-07-25T12:15:56Z</time>
      </trkpt>
      <trkpt lat="40.436317" lon="-5.292067">
        <ele>2079.0</ele>
        <time>2015-07-25T12:15:57Z</time>
      </trkpt>
      <trkpt lat="40.436233" lon="-5.292083">
        <ele>2079.0</ele>
        <time>2015-07-25T12:15:58Z</time>
      </trkpt>
      <trkpt lat="40.436117" lon="-5.292067">
        <ele>2078.0</ele>
        <time>2015-07-25T12:15:59Z</time>
      </trkpt>
      <trkpt lat="40.435983" lon="-5.292033">
        <ele>2077.0</ele>
        <time>2015-07-25T12:16:00Z</time>
      </trkpt>
      <trkpt lat="40.435833" lon="-5.292017">
        <ele>2077.0</ele>
        <time>2015-07-25T12:16:01Z</time>
      </trkpt>
      <trkpt lat="40.435700" lon="-5.292000">
        <ele>2079.0</ele>
        <time>2015-07-25T12:16:02Z</time>
      </trkpt>
      <trkpt lat="40.435567" lon="-5.291950">
        <ele>2082.0</ele>
        <time>2015-07-25T12:16:03Z</time>
      </trkpt>
      <trkpt lat="40.435467" lon="-5.291883">
        <ele>2084.0</ele>
        <time>2015-07-25T12:16:04Z</time>
      </trkpt>
      <trkpt lat="40.435350" lon="-5.291817">
        <ele>2085.0</ele>
        <time>2015-07-25T12:16:05Z</time>
      </trkpt>
      <trkpt lat="40.435250" lon="-5.291767">
        <ele>2086.0</ele>
        <time>2015-07-25T12:16:06Z</time>
      </trkpt>
      <trkpt lat="40.435117" lon="-5.291733">
        <ele>2088.0</ele>
        <time>2015-07-25T12:16:07Z</time>
      </trkpt>
      <trkpt lat="40.435000" lon="-5.291717">
        <ele>2091.0</ele>
        <time>2015-07-25T12:16:08Z</time>
      </trkpt>
      <trkpt lat="40.434883" lon="-5.291700">
        <ele>2093.0</ele>
        <time>2015-07-25T12:16:09Z</time>
      </trkpt>
      <trkpt lat="40.434800" lon="-5.291667">
        <ele>2094.0</ele>
        <time>2015-07-25T12:16:10Z</time>
      </trkpt>
      <trkpt lat="40.434700" lon="-5.291617">
        <ele>2094.0</ele>
        <time>2015-07-25T12:16:11Z</time>
      </trkpt>
      <trkpt lat="40.434617" lon="-5.291533">
        <ele>2093.0</ele>
        <time>2015-07-25T12:16:12Z</time>
      </trkpt>
      <trkpt lat="40.434567" lon="-5.291417">
        <ele>2090.0</ele>
        <time>2015-07-25T12:16:13Z</time>
      </trkpt>
      <trkpt lat="40.434533" lon="-5.291283">
        <ele>2089.0</ele>
        <time>2015-07-25T12:16:14Z</time>
      </trkpt>
      <trkpt lat="40.434550" lon="-5.291150">
        <ele>2089.0</ele>
        <time>2015-07-25T12:16:15Z</time>
      </trkpt>
      <trkpt lat="40.434567" lon="-5.291033">
        <ele>2089.0</ele>
        <time>2015-07-25T12:16:16Z</time>
      </trkpt>
      <trkpt lat="40.434633" lon="-5.290950">
        <ele>2088.0</ele>
        <time>2015-07-25T12:16:17Z</time>
      </trkpt>
      <trkpt lat="40.434717" lon="-5.290900">
        <ele>2086.0</ele>
        <time>2015-07-25T12:16:18Z</time>
      </trkpt>
      <trkpt lat="40.434800" lon="-5.290900">
        <ele>2086.0</ele>
        <time>2015-07-25T12:16:19Z</time>
      </trkpt>
      <trkpt lat="40.434883" lon="-5.290933">
        <ele>2086.0</ele>
        <time>2015-07-25T12:16:20Z</time>
      </trkpt>
      <trkpt lat="40.434950" lon="-5.290983">
        <ele>2090.0</ele>
        <time>2015-07-25T12:16:21Z</time>
      </trkpt>
      <trkpt lat="40.434983" lon="-5.291050">
        <ele>2094.0</ele>
        <time>2015-07-25T12:16:22Z</time>
      </trkpt>
      <trkpt lat="40.435017" lon="-5.291117">
        <ele>2096.0</ele>
        <time>2015-07-25T12:16:23Z</time>
      </trkpt>
      <trkpt lat="40.435017" lon="-5.291200">
        <ele>2097.0</ele>
        <time>2015-07-25T12:16:24Z</time>
      </trkpt>
      <trkpt lat="40.435017" lon="-5.291300">
        <ele>2096.0</ele>
        <time>2015-07-25T12:16:25Z</time>
      </trkpt>
      <trkpt lat="40.435017" lon="-5.291400">
        <ele>2095.0</ele>
        <time>2015-07-25T12:16:26Z</time>
      </trkpt>
      <trkpt lat="40.435000" lon="-5.291533">
        <ele>2094.0</ele>
        <time>2015-07-25T12:16:27Z</time>
      </trkpt>
      <trkpt lat="40.434967" lon="-5.291667">
        <ele>2094.0</ele>
        <time>2015-07-25T12:16:28Z</time>
      </trkpt>
      <trkpt lat="40.434900" lon="-5.291800">
        <ele>2095.0</ele>
        <time>2015-07-25T12:16:29Z</time>
      </trkpt>
      <trkpt lat="40.434817" lon="-5.291900">
        <ele>2095.0</ele>
        <time>2015-07-25T12:16:30Z</time>
      </trkpt>
      <trkpt lat="40.434717" lon="-5.292000">
        <ele>2097.0</ele>
        <time>2015-07-25T12:16:31Z</time>
      </trkpt>
      <trkpt lat="40.434633" lon="-5.292083">
        <ele>2097.0</ele>
        <time>2015-07-25T12:16:32Z</time>
      </trkpt>
      <trkpt lat="40.434567" lon="-5.292183">
        <ele>2098.0</ele>
        <time>2015-07-25T12:16:33Z</time>
      </trkpt>
      <trkpt lat="40.434483" lon="-5.292300">
        <ele>2098.0</ele>
        <time>2015-07-25T12:16:34Z</time>
      </trkpt>
      <trkpt lat="40.434400" lon="-5.292417">
        <ele>2098.0</ele>
        <time>2015-07-25T12:16:35Z</time>
      </trkpt>
      <trkpt lat="40.434317" lon="-5.292517">
        <ele>2098.0</ele>
        <time>2015-07-25T12:16:36Z</time>
      </trkpt>
      <trkpt lat="40.434200" lon="-5.292600">
        <ele>2097.0</ele>
        <time>2015-07-25T12:16:37Z</time>
      </trkpt>
      <trkpt lat="40.434083" lon="-5.292633">
        <ele>2096.0</ele>
        <time>2015-07-25T12:16:38Z</time>
      </trkpt>
      <trkpt lat="40.433983" lon="-5.292650">
        <ele>2095.0</ele>
        <time>2015-07-25T12:16:39Z</time>
      </trkpt>
      <trkpt lat="40.433867" lon="-5.292633">
        <ele>2093.0</ele>
        <time>2015-07-25T12:16:40Z</time>
      </trkpt>
      <trkpt lat="40.433767" lon="-5.292617">
        <ele>2092.0</ele>
        <time>2015-07-25T12:16:41Z</time>
      </trkpt>
      <trkpt lat="40.433650" lon="-5.292583">
        <ele>2090.0</ele>
        <time>2015-07-25T12:16:42Z</time>
      </trkpt>
      <trkpt lat="40.433550" lon="-5.292533">
        <ele>2090.0</ele>
        <time>2015-07-25T12:16:43Z</time>
      </trkpt>
      <trkpt lat="40.433450" lon="-5.292450">
        <ele>2091.0</ele>
        <time>2015-07-25T12:16:44Z</time>
      </trkpt>
      <trkpt lat="40.433383" lon="-5.292350">
        <ele>2093.0</ele>
        <time>2015-07-25T12:16:45Z</time>
      </trkpt>
      <trkpt lat="40.433333" lon="-5.292250">
        <ele>2095.0</ele>
        <time>2015-07-25T12:16:46Z</time>
      </trkpt>
      <trkpt lat="40.433317" lon="-5.292133">
        <ele>2097.0</ele>
        <time>2015-07-25T12:16:47Z</time>
      </trkpt>
      <trkpt lat="40.433300" lon="-5.292033">
        <ele>2098.0</ele>
        <time>2015-07-25T12:16:48Z</time>
      </trkpt>
      <trkpt lat="40.433283" lon="-5.291933">
        <ele>2099.0</ele>
        <time>2015-07-25T12:16:49Z</time>
      </trkpt>
      <trkpt lat="40.433283" lon="-5.291850">
        <ele>2098.0</ele>
        <time>2015-07-25T12:16:50Z</time>
      </trkpt>
      <trkpt lat="40.433300" lon="-5.291750">
        <ele>2096.0</ele>
        <time>2015-07-25T12:16:51Z</time>
      </trkpt>
      <trkpt lat="40.433333" lon="-5.291650">
        <ele>2094.0</ele>
        <time>2015-07-25T12:16:52Z</time>
      </trkpt>
      <trkpt lat="40.433400" lon="-5.291567">
        <ele>2093.0</ele>
        <time>2015-07-25T12:16:53Z</time>
      </trkpt>
      <trkpt lat="40.433450" lon="-5.291483">
        <ele>2092.0</ele>
        <time>2015-07-25T12:16:54Z</time>
      </trkpt>
      <trkpt lat="40.433500" lon="-5.291417">
        <ele>2091.0</ele>
        <time>2015-07-25T12:16:55Z</time>
      </trkpt>
      <trkpt lat="40.433550" lon="-5.291350">
        <ele>2090.0</ele>
        <time>2015-07-25T12:16:56Z</time>
      </trkpt>
      <trkpt lat="40.433617" lon="-5.291283">
        <ele>2087.0</ele>
        <time>2015-07-25T12:16:57Z</time>
      </trkpt>
      <trkpt lat="40.433683" lon="-5.291233">
        <ele>2084.0</ele>
        <time>2015-07-25T12:16:58Z</time>
      </trkpt>
      <trkpt lat="40.433767" lon="-5.291200">
        <ele>2082.0</ele>
        <time>2015-07-25T12:16:59Z</time>
      </trkpt>
      <trkpt lat="40.433850" lon="-5.291167">
        <ele>2080.0</ele>
        <time>2015-07-25T12:17:00Z</time>
      </trkpt>
      <trkpt lat="40.433950" lon="-5.291150">
        <ele>2080.0</ele>
        <time>2015-07-25T12:17:01Z</time>
      </trkpt>
      <trkpt lat="40.434033" lon="-5.291133">
        <ele>2081.0</ele>
        <time>2015-07-25T12:17:02Z</time>
      </trkpt>
      <trkpt lat="40.434100" lon="-5.291100">
        <ele>2084.0</ele>
        <time>2015-07-25T12:17:03Z</time>
      </trkpt>
      <trkpt lat="40.434150" lon="-5.291083">
        <ele>2089.0</ele>
        <time>2015-07-25T12:17:04Z</time>
      </trkpt>
      <trkpt lat="40.434183" lon="-5.291067">
        <ele>2091.0</ele>
        <time>2015-07-25T12:17:05Z</time>
      </trkpt>
      <trkpt lat="40.434233" lon="-5.291050">
        <ele>2093.0</ele>
        <time>2015-07-25T12:17:06Z</time>
      </trkpt>
      <trkpt lat="40.434283" lon="-5.291033">
        <ele>2094.0</ele>
        <time>2015-07-25T12:17:07Z</time>
      </trkpt>
      <trkpt lat="40.434333" lon="-5.291017">
        <ele>2095.0</ele>
        <time>2015-07-25T12:17:08Z</time>
      </trkpt>
      <trkpt lat="40.434400" lon="-5.291017">
        <ele>2097.0</ele>
        <time>2015-07-25T12:17:09Z</time>
      </trkpt>
      <trkpt lat="40.434467" lon="-5.291050">
        <ele>2100.0</ele>
        <time>2015-07-25T12:17:10Z</time>
      </trkpt>
      <trkpt lat="40.434500" lon="-5.291117">
        <ele>2102.0</ele>
        <time>2015-07-25T12:17:11Z</time>
      </trkpt>
      <trkpt lat="40.434533" lon="-5.291217">
        <ele>2104.0</ele>
        <time>2015-07-25T12:17:12Z</time>
      </trkpt>
      <trkpt lat="40.434500" lon="-5.291333">
        <ele>2105.0</ele>
        <time>2015-07-25T12:17:13Z</time>
      </trkpt>
      <trkpt lat="40.434433" lon="-5.291450">
        <ele>2108.0</ele>
        <time>2015-07-25T12:17:14Z</time>
      </trkpt>
      <trkpt lat="40.434333" lon="-5.291533">
        <ele>2110.0</ele>
        <time>2015-07-25T12:17:15Z</time>
      </trkpt>
      <trkpt lat="40.434200" lon="-5.291567">
        <ele>2111.0</ele>
        <time>2015-07-25T12:17:16Z</time>
      </trkpt>
      <trkpt lat="40.434050" lon="-5.291583">
        <ele>2111.0</ele>
        <time>2015-07-25T12:17:17Z</time>
      </trkpt>
      <trkpt lat="40.433883" lon="-5.291567">
        <ele>2111.0</ele>
        <time>2015-07-25T12:17:18Z</time>
      </trkpt>
      <trkpt lat="40.433750" lon="-5.291500">
        <ele>2113.0</ele>
        <time>2015-07-25T12:17:19Z</time>
      </trkpt>
      <trkpt lat="40.433650" lon="-5.291400">
        <ele>2115.0</ele>
        <time>2015-07-25T12:17:20Z</time>
      </trkpt>
      <trkpt lat="40.433600" lon="-5.291283">
        <ele>2116.0</ele>
        <time>2015-07-25T12:17:21Z</time>
      </trkpt>
      <trkpt lat="40.433600" lon="-5.291167">
        <ele>2116.0</ele>
        <time>2015-07-25T12:17:22Z</time>
      </trkpt>
      <trkpt lat="40.433617" lon="-5.291083">
        <ele>2116.0</ele>
        <time>2015-07-25T12:17:23Z</time>
      </trkpt>
      <trkpt lat="40.433633" lon="-5.291000">
        <ele>2117.0</ele>
        <time>2015-07-25T12:17:24Z</time>
      </trkpt>
      <trkpt lat="40.433683" lon="-5.290917">
        <ele>2119.0</ele>
        <time>2015-07-25T12:17:25Z</time>
      </trkpt>
      <trkpt lat="40.433717" lon="-5.290867">
        <ele>2121.0</ele>
        <time>2015-07-25T12:17:26Z</time>
      </trkpt>
      <trkpt lat="40.433783" lon="-5.290817">
        <ele>2122.0</ele>
        <time>2015-07-25T12:17:27Z</time>
      </trkpt>
      <trkpt lat="40.433833" lon="-5.290817">
        <ele>2123.0</ele>
        <time>2015-07-25T12:17:28Z</time>
      </trkpt>
      <trkpt lat="40.433867" lon="-5.290850">
        <ele>2124.0</ele>
        <time>2015-07-25T12:17:29Z</time>
      </trkpt>
      <trkpt lat="40.433883" lon="-5.290933">
        <ele>2125.0</ele>
        <time>2015-07-25T12:17:30Z</time>
      </trkpt>
      <trkpt lat="40.433900" lon="-5.291033">
        <ele>2126.0</ele>
        <time>2015-07-25T12:17:31Z</time>
      </trkpt>
      <trkpt lat="40.433867" lon="-5.291150">
        <ele>2128.0</ele>
        <time>2015-07-25T12:17:32Z</time>
      </trkpt>
      <trkpt lat="40.433817" lon="-5.291267">
        <ele>2131.0</ele>
        <time>2015-07-25T12:17:33Z</time>
      </trkpt>
      <trkpt lat="40.433750" lon="-5.291350">
        <ele>2134.0</ele>
        <time>2015-07-25T12:17:34Z</time>
      </trkpt>
      <trkpt lat="40.433650" lon="-5.291433">
        <ele>2136.0</ele>
        <time>2015-07-25T12:17:35Z</time>
      </trkpt>
      <trkpt lat="40.433533" lon="-5.291483">
        <ele>2137.0</ele>
        <time>2015-07-25T12:17:36Z</time>
      </trkpt>
      <trkpt lat="40.433400" lon="-5.291533">
        <ele>2138.0</ele>
        <time>2015-07-25T12:17:37Z</time>
      </trkpt>
      <trkpt lat="40.433250" lon="-5.291567">
        <ele>2139.0</ele>
        <time>2015-07-25T12:17:38Z</time>
      </trkpt>
      <trkpt lat="40.433133" lon="-5.291550">
        <ele>2140.0</ele>
        <time>2015-07-25T12:17:39Z</time>
      </trkpt>
      <trkpt lat="40.433033" lon="-5.291483">
        <ele>2139.0</ele>
        <time>2015-07-25T12:17:40Z</time>
      </trkpt>
      <trkpt lat="40.432967" lon="-5.291383">
        <ele>2138.0</ele>
        <time>2015-07-25T12:17:41Z</time>
      </trkpt>
      <trkpt lat="40.432933" lon="-5.291267">
        <ele>2138.0</ele>
        <time>2015-07-25T12:17:42Z</time>
      </trkpt>
      <trkpt lat="40.432900" lon="-5.291150">
        <ele>2139.0</ele>
        <time>2015-07-25T12:17:43Z</time>
      </trkpt>
      <trkpt lat="40.432867" lon="-5.291067">
        <ele>2140.0</ele>
        <time>2015-07-25T12:17:44Z</time>
      </trkpt>
      <trkpt lat="40.432850" lon="-5.290983">
        <ele>2141.0</ele>
        <time>2015-07-25T12:17:45Z</time>
      </trkpt>
      <trkpt lat="40.432833" lon="-5.290883">
        <ele>2140.0</ele>
        <time>2015-07-25T12:17:46Z</time>
      </trkpt>
      <trkpt lat="40.432833" lon="-5.290783">
        <ele>2139.0</ele>
        <time>2015-07-25T12:17:47Z</time>
      </trkpt>
      <trkpt lat="40.432850" lon="-5.290667">
        <ele>2139.0</ele>
        <time>2015-07-25T12:17:48Z</time>
      </trkpt>
      <trkpt lat="40.432883" lon="-5.290567">
        <ele>2139.0</ele>
        <time>2015-07-25T12:17:49Z</time>
      </trkpt>
      <trkpt lat="40.432917" lon="-5.290483">
        <ele>2140.0</ele>
        <time>2015-07-25T12:17:50Z</time>
      </trkpt>
      <trkpt lat="40.432967" lon="-5.290400">
        <ele>2141.0</ele>
        <time>2015-07-25T12:17:51Z</time>
      </trkpt>
      <trkpt lat="40.433000" lon="-5.290350">
        <ele>2142.0</ele>
        <time>2015-07-25T12:17:52Z</time>
      </trkpt>
      <trkpt lat="40.433050" lon="-5.290317">
        <ele>2142.0</ele>
        <time>2015-07-25T12:17:53Z</time>
      </trkpt>
      <trkpt lat="40.433117" lon="-5.290317">
        <ele>2142.0</ele>
        <time>2015-07-25T12:17:54Z</time>
      </trkpt>
      <trkpt lat="40.433167" lon="-5.290317">
        <ele>2143.0</ele>
        <time>2015-07-25T12:17:55Z</time>
      </trkpt>
      <trkpt lat="40.433217" lon="-5.290333">
        <ele>2144.0</ele>
        <time>2015-07-25T12:17:56Z</time>
      </trkpt>
      <trkpt lat="40.433250" lon="-5.290350">
        <ele>2144.0</ele>
        <time>2015-07-25T12:17:57Z</time>
      </trkpt>
      <trkpt lat="40.433283" lon="-5.290400">
        <ele>2144.0</ele>
        <time>2015-07-25T12:17:58Z</time>
      </trkpt>
      <trkpt lat="40.433317" lon="-5.290467">
        <ele>2142.0</ele>
        <time>2015-07-25T12:17:59Z</time>
      </trkpt>
      <trkpt lat="40.433350" lon="-5.290583">
        <ele>2142.0</ele>
        <time>2015-07-25T12:18:00Z</time>
      </trkpt>
      <trkpt lat="40.433350" lon="-5.290717">
        <ele>2142.0</ele>
        <time>2015-07-25T12:18:01Z</time>
      </trkpt>
      <trkpt lat="40.433350" lon="-5.290850">
        <ele>2145.0</ele>
        <time>2015-07-25T12:18:02Z</time>
      </trkpt>
      <trkpt lat="40.433350" lon="-5.290967">
        <ele>2148.0</ele>
        <time>2015-07-25T12:18:03Z</time>
      </trkpt>
      <trkpt lat="40.433333" lon="-5.291067">
        <ele>2151.0</ele>
        <time>2015-07-25T12:18:04Z</time>
      </trkpt>
      <trkpt lat="40.433317" lon="-5.291167">
        <ele>2153.0</ele>
        <time>2015-07-25T12:18:05Z</time>
      </trkpt>
      <trkpt lat="40.433317" lon="-5.291250">
        <ele>2153.0</ele>
        <time>2015-07-25T12:18:06Z</time>
      </trkpt>
      <trkpt lat="40.433317" lon="-5.291367">
        <ele>2154.0</ele>
        <time>2015-07-25T12:18:07Z</time>
      </trkpt>
      <trkpt lat="40.433267" lon="-5.291483">
        <ele>2154.0</ele>
        <time>2015-07-25T12:18:08Z</time>
      </trkpt>
      <trkpt lat="40.433183" lon="-5.291600">
        <ele>2154.0</ele>
        <time>2015-07-25T12:18:09Z</time>
      </trkpt>
      <trkpt lat="40.433083" lon="-5.291683">
        <ele>2155.0</ele>
        <time>2015-07-25T12:18:10Z</time>
      </trkpt>
      <trkpt lat="40.432950" lon="-5.291733">
        <ele>2158.0</ele>
        <time>2015-07-25T12:18:11Z</time>
      </trkpt>
      <trkpt lat="40.432833" lon="-5.291767">
        <ele>2161.0</ele>
        <time>2015-07-25T12:18:12Z</time>
      </trkpt>
      <trkpt lat="40.432733" lon="-5.291750">
        <ele>2164.0</ele>
        <time>2015-07-25T12:18:13Z</time>
      </trkpt>
      <trkpt lat="40.432633" lon="-5.291683">
        <ele>2165.0</ele>
        <time>2015-07-25T12:18:14Z</time>
      </trkpt>
      <trkpt lat="40.432550" lon="-5.291600">
        <ele>2165.0</ele>
        <time>2015-07-25T12:18:15Z</time>
      </trkpt>
      <trkpt lat="40.432483" lon="-5.291483">
        <ele>2164.0</ele>
        <time>2015-07-25T12:18:16Z</time>
      </trkpt>
      <trkpt lat="40.432450" lon="-5.291367">
        <ele>2163.0</ele>
        <time>2015-07-25T12:18:17Z</time>
      </trkpt>
      <trkpt lat="40.432433" lon="-5.291233">
        <ele>2162.0</ele>
        <time>2015-07-25T12:18:18Z</time>
      </trkpt>
      <trkpt lat="40.432433" lon="-5.291117">
        <ele>2161.0</ele>
        <time>2015-07-25T12:18:19Z</time>
      </trkpt>
      <trkpt lat="40.432467" lon="-5.291033">
        <ele>2162.0</ele>
        <time>2015-07-25T12:18:20Z</time>
      </trkpt>
      <trkpt lat="40.432500" lon="-5.290967">
        <ele>2161.0</ele>
        <time>2015-07-25T12:18:21Z</time>
      </trkpt>
      <trkpt lat="40.432567" lon="-5.290933">
        <ele>2162.0</ele>
        <time>2015-07-25T12:18:22Z</time>
      </trkpt>
      <trkpt lat="40.432633" lon="-5.290933">
        <ele>2162.0</ele>
        <time>2015-07-25T12:18:23Z</time>
      </trkpt>
      <trkpt lat="40.432700" lon="-5.290967">
        <ele>2164.0</ele>
        <time>2015-07-25T12:18:24Z</time>
      </trkpt>
      <trkpt lat="40.432733" lon="-5.291050">
        <ele>2166.0</ele>
        <time>2015-07-25T12:18:25Z</time>
      </trkpt>
      <trkpt lat="40.432750" lon="-5.291167">
        <ele>2167.0</ele>
        <time>2015-07-25T12:18:26Z</time>
      </trkpt>
      <trkpt lat="40.432733" lon="-5.291267">
        <ele>2169.0</ele>
        <time>2015-07-25T12:18:27Z</time>
      </trkpt>
      <trkpt lat="40.432733" lon="-5.291367">
        <ele>2172.0</ele>
        <time>2015-07-25T12:18:28Z</time>
      </trkpt>
      <trkpt lat="40.432717" lon="-5.291467">
        <ele>2173.0</ele>
        <time>2015-07-25T12:18:29Z</time>
      </trkpt>
      <trkpt lat="40.432683" lon="-5.291567">
        <ele>2174.0</ele>
        <time>2015-07-25T12:18:30Z</time>
      </trkpt>
      <trkpt lat="40.432617" lon="-5.291683">
        <ele>2174.0</ele>
        <time>2015-07-25T12:18:31Z</time>
      </trkpt>
      <trkpt lat="40.432533" lon="-5.291783">
        <ele>2173.0</ele>
        <time>2015-07-25T12:18:32Z</time>
      </trkpt>
      <trkpt lat="40.432433" lon="-5.291900">
        <ele>2173.0</ele>
        <time>2015-07-25T12:18:33Z</time>
      </trkpt>
      <trkpt lat="40.432317" lon="-5.291967">
        <ele>2173.0</ele>
        <time>2015-07-25T12:18:34Z</time>
      </trkpt>
      <trkpt lat="40.432183" lon="-5.292033">
        <ele>2175.0</ele>
        <time>2015-07-25T12:18:35Z</time>
      </trkpt>
      <trkpt lat="40.432050" lon="-5.292083">
        <ele>2176.0</ele>
        <time>2015-07-25T12:18:36Z</time>
      </trkpt>
      <trkpt lat="40.431917" lon="-5.292100">
        <ele>2177.0</ele>
        <time>2015-07-25T12:18:37Z</time>
      </trkpt>
      <trkpt lat="40.431817" lon="-5.292100">
        <ele>2178.0</ele>
        <time>2015-07-25T12:18:38Z</time>
      </trkpt>
      <trkpt lat="40.431717" lon="-5.292067">
        <ele>2179.0</ele>
        <time>2015-07-25T12:18:39Z</time>
      </trkpt>
      <trkpt lat="40.431633" lon="-5.291983">
        <ele>2178.0</ele>
        <time>2015-07-25T12:18:40Z</time>
      </trkpt>
      <trkpt lat="40.431567" lon="-5.291883">
        <ele>2177.0</ele>
        <time>2015-07-25T12:18:41Z</time>
      </trkpt>
      <trkpt lat="40.431533" lon="-5.291783">
        <ele>2175.0</ele>
        <time>2015-07-25T12:18:42Z</time>
      </trkpt>
      <trkpt lat="40.431500" lon="-5.291683">
        <ele>2175.0</ele>
        <time>2015-07-25T12:18:43Z</time>
      </trkpt>
      <trkpt lat="40.431500" lon="-5.291583">
        <ele>2173.0</ele>
        <time>2015-07-25T12:18:44Z</time>
      </trkpt>
      <trkpt lat="40.431533" lon="-5.291483">
        <ele>2171.0</ele>
        <time>2015-07-25T12:18:45Z</time>
      </trkpt>
      <trkpt lat="40.431567" lon="-5.291400">
        <ele>2169.0</ele>
        <time>2015-07-25T12:18:46Z</time>
      </trkpt>
      <trkpt lat="40.431633" lon="-5.291317">
        <ele>2167.0</ele>
        <time>2015-07-25T12:18:47Z</time>
      </trkpt>
      <trkpt lat="40.431683" lon="-5.291233">
        <ele>2166.0</ele>
        <time>2015-07-25T12:18:48Z</time>
      </trkpt>
      <trkpt lat="40.431750" lon="-5.291150">
        <ele>2166.0</ele>
        <time>2015-07-25T12:18:49Z</time>
      </trkpt>
      <trkpt lat="40.431817" lon="-5.291083">
        <ele>2167.0</ele>
        <time>2015-07-25T12:18:50Z</time>
      </trkpt>
      <trkpt lat="40.431867" lon="-5.291050">
        <ele>2168.0</ele>
        <time>2015-07-25T12:18:51Z</time>
      </trkpt>
      <trkpt lat="40.431917" lon="-5.291017">
        <ele>2169.0</ele>
        <time>2015-07-25T12:18:52Z</time>
      </trkpt>
      <trkpt lat="40.431983" lon="-5.290983">
        <ele>2170.0</ele>
        <time>2015-07-25T12:18:53Z</time>
      </trkpt>
      <trkpt lat="40.432033" lon="-5.290933">
        <ele>2170.0</ele>
        <time>2015-07-25T12:18:54Z</time>
      </trkpt>
      <trkpt lat="40.432100" lon="-5.290867">
        <ele>2171.0</ele>
        <time>2015-07-25T12:18:55Z</time>
      </trkpt>
      <trkpt lat="40.432150" lon="-5.290800">
        <ele>2173.0</ele>
        <time>2015-07-25T12:18:56Z</time>
      </trkpt>
      <trkpt lat="40.432200" lon="-5.290767">
        <ele>2175.0</ele>
        <time>2015-07-25T12:18:57Z</time>
      </trkpt>
      <trkpt lat="40.432250" lon="-5.290733">
        <ele>2175.0</ele>
        <time>2015-07-25T12:18:58Z</time>
      </trkpt>
      <trkpt lat="40.432300" lon="-5.290750">
        <ele>2175.0</ele>
        <time>2015-07-25T12:18:59Z</time>
      </trkpt>
      <trkpt lat="40.432367" lon="-5.290800">
        <ele>2174.0</ele>
        <time>2015-07-25T12:19:00Z</time>
      </trkpt>
      <trkpt lat="40.432400" lon="-5.290883">
        <ele>2173.0</ele>
        <time>2015-07-25T12:19:01Z</time>
      </trkpt>
      <trkpt lat="40.432433" lon="-5.291000">
        <ele>2173.0</ele>
        <time>2015-07-25T12:19:02Z</time>
      </trkpt>
      <trkpt lat="40.432433" lon="-5.291117">
        <ele>2174.0</ele>
        <time>2015-07-25T12:19:03Z</time>
      </trkpt>
      <trkpt lat="40.432417" lon="-5.291233">
        <ele>2175.0</ele>
        <time>2015-07-25T12:19:04Z</time>
      </trkpt>
      <trkpt lat="40.432367" lon="-5.291350">
        <ele>2176.0</ele>
        <time>2015-07-25T12:19:05Z</time>
      </trkpt>
      <trkpt lat="40.432300" lon="-5.291450">
        <ele>2176.0</ele>
        <time>2015-07-25T12:19:06Z</time>
      </trkpt>
      <trkpt lat="40.432200" lon="-5.291517">
        <ele>2176.0</ele>
        <time>2015-07-25T12:19:07Z</time>
      </trkpt>
      <trkpt lat="40.432100" lon="-5.291533">
        <ele>2175.0</ele>
        <time>2015-07-25T12:19:08Z</time>
      </trkpt>
      <trkpt lat="40.432000" lon="-5.291533">
        <ele>2175.0</ele>
        <time>2015-07-25T12:19:09Z</time>
      </trkpt>
      <trkpt lat="40.431900" lon="-5.291483">
        <ele>2176.0</ele>
        <time>2015-07-25T12:19:10Z</time>
      </trkpt>
      <trkpt lat="40.431800" lon="-5.291417">
        <ele>2176.0</ele>
        <time>2015-07-25T12:19:11Z</time>
      </trkpt>
      <trkpt lat="40.431717" lon="-5.291333">
        <ele>2178.0</ele>
        <time>2015-07-25T12:19:12Z</time>
      </trkpt>
      <trkpt lat="40.431650" lon="-5.291233">
        <ele>2179.0</ele>
        <time>2015-07-25T12:19:13Z</time>
      </trkpt>
      <trkpt lat="40.431583" lon="-5.291117">
        <ele>2181.0</ele>
        <time>2015-07-25T12:19:14Z</time>
      </trkpt>
      <trkpt lat="40.431550" lon="-5.291000">
        <ele>2181.0</ele>
        <time>2015-07-25T12:19:15Z</time>
      </trkpt>
      <trkpt lat="40.431517" lon="-5.290850">
        <ele>2181.0</ele>
        <time>2015-07-25T12:19:16Z</time>
      </trkpt>
      <trkpt lat="40.431533" lon="-5.290700">
        <ele>2180.0</ele>
        <time>2015-07-25T12:19:17Z</time>
      </trkpt>
      <trkpt lat="40.431550" lon="-5.290533">
        <ele>2181.0</ele>
        <time>2015-07-25T12:19:18Z</time>
      </trkpt>
      <trkpt lat="40.431600" lon="-5.290400">
        <ele>2185.0</ele>
        <time>2015-07-25T12:19:19Z</time>
      </trkpt>
      <trkpt lat="40.431633" lon="-5.290267">
        <ele>2189.0</ele>
        <time>2015-07-25T12:19:20Z</time>
      </trkpt>
      <trkpt lat="40.431633" lon="-5.290150">
        <ele>2192.0</ele>
        <time>2015-07-25T12:19:21Z</time>
      </trkpt>
      <trkpt lat="40.431617" lon="-5.290017">
        <ele>2193.0</ele>
        <time>2015-07-25T12:19:22Z</time>
      </trkpt>
      <trkpt lat="40.431617" lon="-5.289883">
        <ele>2193.0</ele>
        <time>2015-07-25T12:19:23Z</time>
      </trkpt>
      <trkpt lat="40.431633" lon="-5.289767">
        <ele>2193.0</ele>
        <time>2015-07-25T12:19:24Z</time>
      </trkpt>
      <trkpt lat="40.431667" lon="-5.289667">
        <ele>2192.0</ele>
        <time>2015-07-25T12:19:25Z</time>
      </trkpt>
      <trkpt lat="40.431733" lon="-5.289583">
        <ele>2190.0</ele>
        <time>2015-07-25T12:19:26Z</time>
      </trkpt>
      <trkpt lat="40.431800" lon="-5.289567">
        <ele>2190.0</ele>
        <time>2015-07-25T12:19:27Z</time>
      </trkpt>
      <trkpt lat="40.431883" lon="-5.289567">
        <ele>2190.0</ele>
        <time>2015-07-25T12:19:28Z</time>
      </trkpt>
      <trkpt lat="40.431950" lon="-5.289600">
        <ele>2191.0</ele>
        <time>2015-07-25T12:19:29Z</time>
      </trkpt>
      <trkpt lat="40.431983" lon="-5.289650">
        <ele>2192.0</ele>
        <time>2015-07-25T12:19:30Z</time>
      </trkpt>
      <trkpt lat="40.432017" lon="-5.289717">
        <ele>2192.0</ele>
        <time>2015-07-25T12:19:31Z</time>
      </trkpt>
      <trkpt lat="40.432017" lon="-5.289800">
        <ele>2191.0</ele>
        <time>2015-07-25T12:19:32Z</time>
      </trkpt>
      <trkpt lat="40.432017" lon="-5.289900">
        <ele>2188.0</ele>
        <time>2015-07-25T12:19:33Z</time>
      </trkpt>
      <trkpt lat="40.432000" lon="-5.290033">
        <ele>2186.0</ele>
        <time>2015-07-25T12:19:34Z</time>
      </trkpt>
      <trkpt lat="40.431950" lon="-5.290167">
        <ele>2186.0</ele>
        <time>2015-07-25T12:19:35Z</time>
      </trkpt>
      <trkpt lat="40.431883" lon="-5.290283">
        <ele>2186.0</ele>
        <time>2015-07-25T12:19:36Z</time>
      </trkpt>
      <trkpt lat="40.431800" lon="-5.290367">
        <ele>2186.0</ele>
        <time>2015-07-25T12:19:37Z</time>
      </trkpt>
      <trkpt lat="40.431700" lon="-5.290417">
        <ele>2185.0</ele>
        <time>2015-07-25T12:19:38Z</time>
      </trkpt>
      <trkpt lat="40.431583" lon="-5.290450">
        <ele>2184.0</ele>
        <time>2015-07-25T12:19:39Z</time>
      </trkpt>
      <trkpt lat="40.431450" lon="-5.290450">
        <ele>2183.0</ele>
        <time>2015-07-25T12:19:40Z</time>
      </trkpt>
      <trkpt lat="40.431317" lon="-5.290417">
        <ele>2182.0</ele>
        <time>2015-07-25T12:19:41Z</time>
      </trkpt>
      <trkpt lat="40.431200" lon="-5.290367">
        <ele>2182.0</ele>
        <time>2015-07-25T12:19:42Z</time>
      </trkpt>
      <trkpt lat="40.431083" lon="-5.290300">
        <ele>2183.0</ele>
        <time>2015-07-25T12:19:43Z</time>
      </trkpt>
      <trkpt lat="40.430983" lon="-5.290217">
        <ele>2184.0</ele>
        <time>2015-07-25T12:19:44Z</time>
      </trkpt>
      <trkpt lat="40.430883" lon="-5.290117">
        <ele>2185.0</ele>
        <time>2015-07-25T12:19:45Z</time>
      </trkpt>
      <trkpt lat="40.430800" lon="-5.290017">
        <ele>2186.0</ele>
        <time>2015-07-25T12:19:46Z</time>
      </trkpt>
      <trkpt lat="40.430733" lon="-5.289883">
        <ele>2187.0</ele>
        <time>2015-07-25T12:19:47Z</time>
      </trkpt>
      <trkpt lat="40.430667" lon="-5.289750">
        <ele>2188.0</ele>
        <time>2015-07-25T12:19:48Z</time>
      </trkpt>
      <trkpt lat="40.430650" lon="-5.289600">
        <ele>2189.0</ele>
        <time>2015-07-25T12:19:49Z</time>
      </trkpt>
      <trkpt lat="40.430650" lon="-5.289450">
        <ele>2190.0</ele>
        <time>2015-07-25T12:19:50Z</time>
      </trkpt>
      <trkpt lat="40.430650" lon="-5.289333">
        <ele>2190.0</ele>
        <time>2015-07-25T12:19:51Z</time>
      </trkpt>
      <trkpt lat="40.430667" lon="-5.289233">
        <ele>2190.0</ele>
        <time>2015-07-25T12:19:52Z</time>
      </trkpt>
      <trkpt lat="40.430700" lon="-5.289133">
        <ele>2190.0</ele>
        <time>2015-07-25T12:19:53Z</time>
      </trkpt>
      <trkpt lat="40.430717" lon="-5.289050">
        <ele>2189.0</ele>
        <time>2015-07-25T12:19:54Z</time>
      </trkpt>
      <trkpt lat="40.430750" lon="-5.288967">
        <ele>2187.0</ele>
        <time>2015-07-25T12:19:55Z</time>
      </trkpt>
      <trkpt lat="40.430800" lon="-5.288883">
        <ele>2185.0</ele>
        <time>2015-07-25T12:19:56Z</time>
      </trkpt>
      <trkpt lat="40.430850" lon="-5.288817">
        <ele>2184.0</ele>
        <time>2015-07-25T12:19:57Z</time>
      </trkpt>
      <trkpt lat="40.430900" lon="-5.288750">
        <ele>2182.0</ele>
        <time>2015-07-25T12:19:58Z</time>
      </trkpt>
      <trkpt lat="40.430967" lon="-5.288683">
        <ele>2181.0</ele>
        <time>2015-07-25T12:19:59Z</time>
      </trkpt>
      <trkpt lat="40.431033" lon="-5.288617">
        <ele>2181.0</ele>
        <time>2015-07-25T12:20:00Z</time>
      </trkpt>
      <trkpt lat="40.431100" lon="-5.288567">
        <ele>2180.0</ele>
        <time>2015-07-25T12:20:01Z</time>
      </trkpt>
      <trkpt lat="40.431167" lon="-5.288550">
        <ele>2179.0</ele>
        <time>2015-07-25T12:20:02Z</time>
      </trkpt>
      <trkpt lat="40.431233" lon="-5.288517">
        <ele>2177.0</ele>
        <time>2015-07-25T12:20:03Z</time>
      </trkpt>
      <trkpt lat="40.431300" lon="-5.288500">
        <ele>2175.0</ele>
        <time>2015-07-25T12:20:04Z</time>
      </trkpt>
      <trkpt lat="40.431383" lon="-5.288500">
        <ele>2174.0</ele>
        <time>2015-07-25T12:20:05Z</time>
      </trkpt>
      <trkpt lat="40.431450" lon="-5.288517">
        <ele>2173.0</ele>
        <time>2015-07-25T12:20:06Z</time>
      </trkpt>
      <trkpt lat="40.431517" lon="-5.288533">
        <ele>2171.0</ele>
        <time>2015-07-25T12:20:07Z</time>
      </trkpt>
      <trkpt lat="40.431583" lon="-5.288517">
        <ele>2170.0</ele>
        <time>2015-07-25T12:20:08Z</time>
      </trkpt>
      <trkpt lat="40.431650" lon="-5.288500">
        <ele>2168.0</ele>
        <time>2015-07-25T12:20:09Z</time>
      </trkpt>
      <trkpt lat="40.431717" lon="-5.288483">
        <ele>2165.0</ele>
        <time>2015-07-25T12:20:10Z</time>
      </trkpt>
      <trkpt lat="40.431783" lon="-5.288450">
        <ele>2163.0</ele>
        <time>2015-07-25T12:20:11Z</time>
      </trkpt>
      <trkpt lat="40.431850" lon="-5.288417">
        <ele>2162.0</ele>
        <time>2015-07-25T12:20:12Z</time>
      </trkpt>
      <trkpt lat="40.431933" lon="-5.288383">
        <ele>2160.0</ele>
        <time>2015-07-25T12:20:13Z</time>
      </trkpt>
      <trkpt lat="40.432000" lon="-5.288350">
        <ele>2159.0</ele>
        <time>2015-07-25T12:20:14Z</time>
      </trkpt>
      <trkpt lat="40.432067" lon="-5.288317">
        <ele>2158.0</ele>
        <time>2015-07-25T12:20:15Z</time>
      </trkpt>
      <trkpt lat="40.432133" lon="-5.288283">
        <ele>2157.0</ele>
        <time>2015-07-25T12:20:16Z</time>
      </trkpt>
      <trkpt lat="40.432217" lon="-5.288233">
        <ele>2156.0</ele>
        <time>2015-07-25T12:20:17Z</time>
      </trkpt>
      <trkpt lat="40.432283" lon="-5.288200">
        <ele>2155.0</ele>
        <time>2015-07-25T12:20:18Z</time>
      </trkpt>
      <trkpt lat="40.432367" lon="-5.288150">
        <ele>2154.0</ele>
        <time>2015-07-25T12:20:19Z</time>
      </trkpt>
      <trkpt lat="40.432450" lon="-5.288100">
        <ele>2153.0</ele>
        <time>2015-07-25T12:20:20Z</time>
      </trkpt>
      <trkpt lat="40.432533" lon="-5.288067">
        <ele>2152.0</ele>
        <time>2015-07-25T12:20:21Z</time>
      </trkpt>
      <trkpt lat="40.432600" lon="-5.288033">
        <ele>2152.0</ele>
        <time>2015-07-25T12:20:22Z</time>
      </trkpt>
      <trkpt lat="40.432683" lon="-5.288017">
        <ele>2152.0</ele>
        <time>2015-07-25T12:20:23Z</time>
      </trkpt>
      <trkpt lat="40.432750" lon="-5.288017">
        <ele>2153.0</ele>
        <time>2015-07-25T12:20:24Z</time>
      </trkpt>
      <trkpt lat="40.432817" lon="-5.288017">
        <ele>2154.0</ele>
        <time>2015-07-25T12:20:25Z</time>
      </trkpt>
      <trkpt lat="40.432867" lon="-5.288017">
        <ele>2154.0</ele>
        <time>2015-07-25T12:20:26Z</time>
      </trkpt>
      <trkpt lat="40.432900" lon="-5.288017">
        <ele>2154.0</ele>
        <time>2015-07-25T12:20:27Z</time>
      </trkpt>
      <trkpt lat="40.432950" lon="-5.288033">
        <ele>2152.0</ele>
        <time>2015-07-25T12:20:28Z</time>
      </trkpt>
      <trkpt lat="40.433000" lon="-5.288033">
        <ele>2150.0</ele>
        <time>2015-07-25T12:20:29Z</time>
      </trkpt>
      <trkpt lat="40.433067" lon="-5.288033">
        <ele>2147.0</ele>
        <time>2015-07-25T12:20:30Z</time>
      </trkpt>
      <trkpt lat="40.433133" lon="-5.288033">
        <ele>2144.0</ele>
        <time>2015-07-25T12:20:31Z</time>
      </trkpt>
      <trkpt lat="40.433200" lon="-5.287983">
        <ele>2142.0</ele>
        <time>2015-07-25T12:20:32Z</time>
      </trkpt>
      <trkpt lat="40.433267" lon="-5.287933">
        <ele>2141.0</ele>
        <time>2015-07-25T12:20:33Z</time>
      </trkpt>
      <trkpt lat="40.433317" lon="-5.287900">
        <ele>2140.0</ele>
        <time>2015-07-25T12:20:34Z</time>
      </trkpt>
      <trkpt lat="40.433367" lon="-5.287867">
        <ele>2139.0</ele>
        <time>2015-07-25T12:20:35Z</time>
      </trkpt>
      <trkpt lat="40.433400" lon="-5.287817">
        <ele>2139.0</ele>
        <time>2015-07-25T12:20:36Z</time>
      </trkpt>
      <trkpt lat="40.433450" lon="-5.287767">
        <ele>2137.0</ele>
        <time>2015-07-25T12:20:37Z</time>
      </trkpt>
      <trkpt lat="40.433517" lon="-5.287717">
        <ele>2135.0</ele>
        <time>2015-07-25T12:20:38Z</time>
      </trkpt>
      <trkpt lat="40.433583" lon="-5.287667">
        <ele>2133.0</ele>
        <time>2015-07-25T12:20:39Z</time>
      </trkpt>
      <trkpt lat="40.433650" lon="-5.287633">
        <ele>2133.0</ele>
        <time>2015-07-25T12:20:40Z</time>
      </trkpt>
      <trkpt lat="40.433717" lon="-5.287617">
        <ele>2132.0</ele>
        <time>2015-07-25T12:20:41Z</time>
      </trkpt>
      <trkpt lat="40.433783" lon="-5.287583">
        <ele>2132.0</ele>
        <time>2015-07-25T12:20:42Z</time>
      </trkpt>
      <trkpt lat="40.433850" lon="-5.287533">
        <ele>2131.0</ele>
        <time>2015-07-25T12:20:43Z</time>
      </trkpt>
      <trkpt lat="40.433917" lon="-5.287483">
        <ele>2129.0</ele>
        <time>2015-07-25T12:20:44Z</time>
      </trkpt>
      <trkpt lat="40.433983" lon="-5.287433">
        <ele>2127.0</ele>
        <time>2015-07-25T12:20:45Z</time>
      </trkpt>
      <trkpt lat="40.434050" lon="-5.287383">
        <ele>2125.0</ele>
        <time>2015-07-25T12:20:46Z</time>
      </trkpt>
      <trkpt lat="40.434133" lon="-5.287350">
        <ele>2124.0</ele>
        <time>2015-07-25T12:20:47Z</time>
      </trkpt>
      <trkpt lat="40.434200" lon="-5.287317">
        <ele>2124.0</ele>
        <time>2015-07-25T12:20:48Z</time>
      </trkpt>
      <trkpt lat="40.434267" lon="-5.287283">
        <ele>2123.0</ele>
        <time>2015-07-25T12:20:49Z</time>
      </trkpt>
      <trkpt lat="40.434333" lon="-5.287217">
        <ele>2123.0</ele>
        <time>2015-07-25T12:20:50Z</time>
      </trkpt>
      <trkpt lat="40.434400" lon="-5.287117">
        <ele>2123.0</ele>
        <time>2015-07-25T12:20:51Z</time>
      </trkpt>
      <trkpt lat="40.434450" lon="-5.287033">
        <ele>2126.0</ele>
        <time>2015-07-25T12:20:52Z</time>
      </trkpt>
      <trkpt lat="40.434500" lon="-5.286983">
        <ele>2129.0</ele>
        <time>2015-07-25T12:20:53Z</time>
      </trkpt>
      <trkpt lat="40.434550" lon="-5.286933">
        <ele>2131.0</ele>
        <time>2015-07-25T12:20:54Z</time>
      </trkpt>
      <trkpt lat="40.434600" lon="-5.286900">
        <ele>2131.0</ele>
        <time>2015-07-25T12:20:55Z</time>
      </trkpt>
      <trkpt lat="40.434667" lon="-5.286867">
        <ele>2130.0</ele>
        <time>2015-07-25T12:20:56Z</time>
      </trkpt>
      <trkpt lat="40.434717" lon="-5.286850">
        <ele>2129.0</ele>
        <time>2015-07-25T12:20:57Z</time>
      </trkpt>
      <trkpt lat="40.434800" lon="-5.286833">
        <ele>2128.0</ele>
        <time>2015-07-25T12:20:58Z</time>
      </trkpt>
      <trkpt lat="40.434883" lon="-5.286833">
        <ele>2127.0</ele>
        <time>2015-07-25T12:20:59Z</time>
      </trkpt>
      <trkpt lat="40.434967" lon="-5.286850">
        <ele>2127.0</ele>
        <time>2015-07-25T12:21:00Z</time>
      </trkpt>
      <trkpt lat="40.435050" lon="-5.286850">
        <ele>2128.0</ele>
        <time>2015-07-25T12:21:01Z</time>
      </trkpt>
      <trkpt lat="40.435133" lon="-5.286833">
        <ele>2130.0</ele>
        <time>2015-07-25T12:21:02Z</time>
      </trkpt>
      <trkpt lat="40.435233" lon="-5.286800">
        <ele>2132.0</ele>
        <time>2015-07-25T12:21:03Z</time>
      </trkpt>
      <trkpt lat="40.435317" lon="-5.286767">
        <ele>2136.0</ele>
        <time>2015-07-25T12:21:04Z</time>
      </trkpt>
      <trkpt lat="40.435383" lon="-5.286750">
        <ele>2140.0</ele>
        <time>2015-07-25T12:21:05Z</time>
      </trkpt>
      <trkpt lat="40.435417" lon="-5.286750">
        <ele>2144.0</ele>
        <time>2015-07-25T12:21:06Z</time>
      </trkpt>
      <trkpt lat="40.435467" lon="-5.286767">
        <ele>2146.0</ele>
        <time>2015-07-25T12:21:07Z</time>
      </trkpt>
      <trkpt lat="40.435500" lon="-5.286833">
        <ele>2148.0</ele>
        <time>2015-07-25T12:21:08Z</time>
      </trkpt>
      <trkpt lat="40.435517" lon="-5.286933">
        <ele>2148.0</ele>
        <time>2015-07-25T12:21:09Z</time>
      </trkpt>
      <trkpt lat="40.435500" lon="-5.287050">
        <ele>2150.0</ele>
        <time>2015-07-25T12:21:10Z</time>
      </trkpt>
      <trkpt lat="40.435433" lon="-5.287183">
        <ele>2151.0</ele>
        <time>2015-07-25T12:21:11Z</time>
      </trkpt>
      <trkpt lat="40.435317" lon="-5.287283">
        <ele>2152.0</ele>
        <time>2015-07-25T12:21:12Z</time>
      </trkpt>
      <trkpt lat="40.435167" lon="-5.287317">
        <ele>2152.0</ele>
        <time>2015-07-25T12:21:13Z</time>
      </trkpt>
      <trkpt lat="40.435017" lon="-5.287283">
        <ele>2154.0</ele>
        <time>2015-07-25T12:21:14Z</time>
      </trkpt>
      <trkpt lat="40.434900" lon="-5.287233">
        <ele>2157.0</ele>
        <time>2015-07-25T12:21:15Z</time>
      </trkpt>
      <trkpt lat="40.434783" lon="-5.287150">
        <ele>2160.0</ele>
        <time>2015-07-25T12:21:16Z</time>
      </trkpt>
      <trkpt lat="40.434700" lon="-5.287050">
        <ele>2162.0</ele>
        <time>2015-07-25T12:21:17Z</time>
      </trkpt>
      <trkpt lat="40.434650" lon="-5.286933">
        <ele>2162.0</ele>
        <time>2015-07-25T12:21:18Z</time>
      </trkpt>
      <trkpt lat="40.434617" lon="-5.286783">
        <ele>2161.0</ele>
        <time>2015-07-25T12:21:19Z</time>
      </trkpt>
      <trkpt lat="40.434600" lon="-5.286650">
        <ele>2161.0</ele>
        <time>2015-07-25T12:21:20Z</time>
      </trkpt>
      <trkpt lat="40.434617" lon="-5.286500">
        <ele>2162.0</ele>
        <time>2015-07-25T12:21:21Z</time>
      </trkpt>
      <trkpt lat="40.434667" lon="-5.286400">
        <ele>2163.0</ele>
        <time>2015-07-25T12:21:22Z</time>
      </trkpt>
      <trkpt lat="40.434717" lon="-5.286317">
        <ele>2164.0</ele>
        <time>2015-07-25T12:21:23Z</time>
      </trkpt>
      <trkpt lat="40.434800" lon="-5.286267">
        <ele>2165.0</ele>
        <time>2015-07-25T12:21:24Z</time>
      </trkpt>
      <trkpt lat="40.434883" lon="-5.286233">
        <ele>2167.0</ele>
        <time>2015-07-25T12:21:25Z</time>
      </trkpt>
      <trkpt lat="40.434950" lon="-5.286217">
        <ele>2170.0</ele>
        <time>2015-07-25T12:21:26Z</time>
      </trkpt>
      <trkpt lat="40.435000" lon="-5.286217">
        <ele>2174.0</ele>
        <time>2015-07-25T12:21:27Z</time>
      </trkpt>
      <trkpt lat="40.435050" lon="-5.286233">
        <ele>2177.0</ele>
        <time>2015-07-25T12:21:28Z</time>
      </trkpt>
      <trkpt lat="40.435083" lon="-5.286267">
        <ele>2179.0</ele>
        <time>2015-07-25T12:21:29Z</time>
      </trkpt>
      <trkpt lat="40.435117" lon="-5.286350">
        <ele>2180.0</ele>
        <time>2015-07-25T12:21:30Z</time>
      </trkpt>
      <trkpt lat="40.435117" lon="-5.286467">
        <ele>2181.0</ele>
        <time>2015-07-25T12:21:31Z</time>
      </trkpt>
      <trkpt lat="40.435100" lon="-5.286600">
        <ele>2183.0</ele>
        <time>2015-07-25T12:21:32Z</time>
      </trkpt>
      <trkpt lat="40.435033" lon="-5.286717">
        <ele>2186.0</ele>
        <time>2015-07-25T12:21:33Z</time>
      </trkpt>
      <trkpt lat="40.434950" lon="-5.286800">
        <ele>2189.0</ele>
        <time>2015-07-25T12:21:34Z</time>
      </trkpt>
      <trkpt lat="40.434833" lon="-5.286850">
        <ele>2189.0</ele>
        <time>2015-07-25T12:21:35Z</time>
      </trkpt>
      <trkpt lat="40.434683" lon="-5.286867">
        <ele>2190.0</ele>
        <time>2015-07-25T12:21:36Z</time>
      </trkpt>
      <trkpt lat="40.434550" lon="-5.286817">
        <ele>2190.0</ele>
        <time>2015-07-25T12:21:37Z</time>
      </trkpt>
      <trkpt lat="40.434433" lon="-5.286733">
        <ele>2192.0</ele>
        <time>2015-07-25T12:21:38Z</time>
      </trkpt>
      <trkpt lat="40.434333" lon="-5.286617">
        <ele>2193.0</ele>
        <time>2015-07-25T12:21:39Z</time>
      </trkpt>
      <trkpt lat="40.434283" lon="-5.286483">
        <ele>2194.0</ele>
        <time>2015-07-25T12:21:40Z</time>
      </trkpt>
      <trkpt lat="40.434250" lon="-5.286350">
        <ele>2195.0</ele>
        <time>2015-07-25T12:21:41Z</time>
      </trkpt>
      <trkpt lat="40.434250" lon="-5.286200">
        <ele>2195.0</ele>
        <time>2015-07-25T12:21:42Z</time>
      </trkpt>
      <trkpt lat="40.434283" lon="-5.286083">
        <ele>2196.0</ele>
        <time>2015-07-25T12:21:43Z</time>
      </trkpt>
      <trkpt lat="40.434333" lon="-5.286000">
        <ele>2196.0</ele>
        <time>2015-07-25T12:21:44Z</time>
      </trkpt>
      <trkpt lat="40.434400" lon="-5.285933">
        <ele>2197.0</ele>
        <time>2015-07-25T12:21:45Z</time>
      </trkpt>
      <trkpt lat="40.434467" lon="-5.285900">
        <ele>2198.0</ele>
        <time>2015-07-25T12:21:46Z</time>
      </trkpt>
      <trkpt lat="40.434550" lon="-5.285883">
        <ele>2201.0</ele>
        <time>2015-07-25T12:21:47Z</time>
      </trkpt>
      <trkpt lat="40.434617" lon="-5.285900">
        <ele>2204.0</ele>
        <time>2015-07-25T12:21:48Z</time>
      </trkpt>
      <trkpt lat="40.434667" lon="-5.285967">
        <ele>2208.0</ele>
        <time>2015-07-25T12:21:49Z</time>
      </trkpt>
      <trkpt lat="40.434700" lon="-5.286067">
        <ele>2210.0</ele>
        <time>2015-07-25T12:21:50Z</time>
      </trkpt>
      <trkpt lat="40.434700" lon="-5.286183">
        <ele>2213.0</ele>
        <time>2015-07-25T12:21:51Z</time>
      </trkpt>
      <trkpt lat="40.434667" lon="-5.286317">
        <ele>2216.0</ele>
        <time>2015-07-25T12:21:52Z</time>
      </trkpt>
      <trkpt lat="40.434600" lon="-5.286400">
        <ele>2219.0</ele>
        <time>2015-07-25T12:21:53Z</time>
      </trkpt>
      <trkpt lat="40.434517" lon="-5.286467">
        <ele>2220.0</ele>
        <time>2015-07-25T12:21:54Z</time>
      </trkpt>
      <trkpt lat="40.434383" lon="-5.286500">
        <ele>2220.0</ele>
        <time>2015-07-25T12:21:55Z</time>
      </trkpt>
      <trkpt lat="40.434250" lon="-5.286467">
        <ele>2220.0</ele>
        <time>2015-07-25T12:21:56Z</time>
      </trkpt>
      <trkpt lat="40.434133" lon="-5.286383">
        <ele>2220.0</ele>
        <time>2015-07-25T12:21:57Z</time>
      </trkpt>
      <trkpt lat="40.434050" lon="-5.286250">
        <ele>2221.0</ele>
        <time>2015-07-25T12:21:58Z</time>
      </trkpt>
      <trkpt lat="40.434000" lon="-5.286117">
        <ele>2223.0</ele>
        <time>2015-07-25T12:21:59Z</time>
      </trkpt>
      <trkpt lat="40.433983" lon="-5.285967">
        <ele>2225.0</ele>
        <time>2015-07-25T12:22:00Z</time>
      </trkpt>
      <trkpt lat="40.433983" lon="-5.285833">
        <ele>2225.0</ele>
        <time>2015-07-25T12:22:01Z</time>
      </trkpt>
      <trkpt lat="40.434000" lon="-5.285717">
        <ele>2225.0</ele>
        <time>2015-07-25T12:22:02Z</time>
      </trkpt>
      <trkpt lat="40.434050" lon="-5.285583">
        <ele>2226.0</ele>
        <time>2015-07-25T12:22:03Z</time>
      </trkpt>
      <trkpt lat="40.434117" lon="-5.285467">
        <ele>2227.0</ele>
        <time>2015-07-25T12:22:04Z</time>
      </trkpt>
      <trkpt lat="40.434217" lon="-5.285400">
        <ele>2230.0</ele>
        <time>2015-07-25T12:22:05Z</time>
      </trkpt>
      <trkpt lat="40.434300" lon="-5.285383">
        <ele>2233.0</ele>
        <time>2015-07-25T12:22:06Z</time>
      </trkpt>
      <trkpt lat="40.434367" lon="-5.285367">
        <ele>2236.0</ele>
        <time>2015-07-25T12:22:07Z</time>
      </trkpt>
      <trkpt lat="40.434433" lon="-5.285367">
        <ele>2239.0</ele>
        <time>2015-07-25T12:22:08Z</time>
      </trkpt>
      <trkpt lat="40.434500" lon="-5.285350">
        <ele>2241.0</ele>
        <time>2015-07-25T12:22:09Z</time>
      </trkpt>
      <trkpt lat="40.434567" lon="-5.285317">
        <ele>2243.0</ele>
        <time>2015-07-25T12:22:10Z</time>
      </trkpt>
      <trkpt lat="40.434617" lon="-5.285317">
        <ele>2243.0</ele>
        <time>2015-07-25T12:22:11Z</time>
      </trkpt>
      <trkpt lat="40.434683" lon="-5.285350">
        <ele>2243.0</ele>
        <time>2015-07-25T12:22:12Z</time>
      </trkpt>
      <trkpt lat="40.434717" lon="-5.285450">
        <ele>2242.0</ele>
        <time>2015-07-25T12:22:13Z</time>
      </trkpt>
      <trkpt lat="40.434717" lon="-5.285583">
        <ele>2239.0</ele>
        <time>2015-07-25T12:22:14Z</time>
      </trkpt>
      <trkpt lat="40.434683" lon="-5.285750">
        <ele>2237.0</ele>
        <time>2015-07-25T12:22:15Z</time>
      </trkpt>
      <trkpt lat="40.434633" lon="-5.285900">
        <ele>2236.0</ele>
        <time>2015-07-25T12:22:16Z</time>
      </trkpt>
      <trkpt lat="40.434583" lon="-5.286050">
        <ele>2238.0</ele>
        <time>2015-07-25T12:22:17Z</time>
      </trkpt>
      <trkpt lat="40.434500" lon="-5.286167">
        <ele>2240.0</ele>
        <time>2015-07-25T12:22:18Z</time>
      </trkpt>
      <trkpt lat="40.434400" lon="-5.286233">
        <ele>2242.0</ele>
        <time>2015-07-25T12:22:19Z</time>
      </trkpt>
      <trkpt lat="40.434283" lon="-5.286267">
        <ele>2243.0</ele>
        <time>2015-07-25T12:22:20Z</time>
      </trkpt>
      <trkpt lat="40.434167" lon="-5.286283">
        <ele>2243.0</ele>
        <time>2015-07-25T12:22:21Z</time>
      </trkpt>
      <trkpt lat="40.434050" lon="-5.286317">
        <ele>2244.0</ele>
        <time>2015-07-25T12:22:22Z</time>
      </trkpt>
      <trkpt lat="40.433933" lon="-5.286350">
        <ele>2245.0</ele>
        <time>2015-07-25T12:22:23Z</time>
      </trkpt>
      <trkpt lat="40.433800" lon="-5.286350">
        <ele>2246.0</ele>
        <time>2015-07-25T12:22:24Z</time>
      </trkpt>
      <trkpt lat="40.433683" lon="-5.286300">
        <ele>2246.0</ele>
        <time>2015-07-25T12:22:25Z</time>
      </trkpt>
      <trkpt lat="40.433567" lon="-5.286200">
        <ele>2245.0</ele>
        <time>2015-07-25T12:22:26Z</time>
      </trkpt>
      <trkpt lat="40.433483" lon="-5.286067">
        <ele>2245.0</ele>
        <time>2015-07-25T12:22:27Z</time>
      </trkpt>
      <trkpt lat="40.433450" lon="-5.285917">
        <ele>2246.0</ele>
        <time>2015-07-25T12:22:28Z</time>
      </trkpt>
      <trkpt lat="40.433450" lon="-5.285767">
        <ele>2247.0</ele>
        <time>2015-07-25T12:22:29Z</time>
      </trkpt>
      <trkpt lat="40.433467" lon="-5.285650">
        <ele>2247.0</ele>
        <time>2015-07-25T12:22:30Z</time>
      </trkpt>
      <trkpt lat="40.433517" lon="-5.285550">
        <ele>2248.0</ele>
        <time>2015-07-25T12:22:31Z</time>
      </trkpt>
      <trkpt lat="40.433583" lon="-5.285483">
        <ele>2249.0</ele>
        <time>2015-07-25T12:22:32Z</time>
      </trkpt>
      <trkpt lat="40.433633" lon="-5.285433">
        <ele>2251.0</ele>
        <time>2015-07-25T12:22:33Z</time>
      </trkpt>
      <trkpt lat="40.433700" lon="-5.285400">
        <ele>2252.0</ele>
        <time>2015-07-25T12:22:34Z</time>
      </trkpt>
      <trkpt lat="40.433750" lon="-5.285367">
        <ele>2253.0</ele>
        <time>2015-07-25T12:22:35Z</time>
      </trkpt>
      <trkpt lat="40.433817" lon="-5.285383">
        <ele>2253.0</ele>
        <time>2015-07-25T12:22:36Z</time>
      </trkpt>
      <trkpt lat="40.433883" lon="-5.285433">
        <ele>2252.0</ele>
        <time>2015-07-25T12:22:37Z</time>
      </trkpt>
      <trkpt lat="40.433950" lon="-5.285517">
        <ele>2251.0</ele>
        <time>2015-07-25T12:22:38Z</time>
      </trkpt>
      <trkpt lat="40.434017" lon="-5.285617">
        <ele>2252.0</ele>
        <time>2015-07-25T12:22:39Z</time>
      </trkpt>
      <trkpt lat="40.434067" lon="-5.285717">
        <ele>2252.0</ele>
        <time>2015-07-25T12:22:40Z</time>
      </trkpt>
      <trkpt lat="40.434100" lon="-5.285850">
        <ele>2252.0</ele>
        <time>2015-07-25T12:22:41Z</time>
      </trkpt>
      <trkpt lat="40.434083" lon="-5.285983">
        <ele>2251.0</ele>
        <time>2015-07-25T12:22:42Z</time>
      </trkpt>
      <trkpt lat="40.434050" lon="-5.286117">
        <ele>2249.0</ele>
        <time>2015-07-25T12:22:43Z</time>
      </trkpt>
      <trkpt lat="40.434000" lon="-5.286267">
        <ele>2247.0</ele>
        <time>2015-07-25T12:22:44Z</time>
      </trkpt>
      <trkpt lat="40.433933" lon="-5.286400">
        <ele>2245.0</ele>
        <time>2015-07-25T12:22:45Z</time>
      </trkpt>
      <trkpt lat="40.433817" lon="-5.286517">
        <ele>2244.0</ele>
        <time>2015-07-25T12:22:46Z</time>
      </trkpt>
      <trkpt lat="40.433700" lon="-5.286583">
        <ele>2245.0</ele>
        <time>2015-07-25T12:22:47Z</time>
      </trkpt>
      <trkpt lat="40.433567" lon="-5.286583">
        <ele>2247.0</ele>
        <time>2015-07-25T12:22:48Z</time>
      </trkpt>
      <trkpt lat="40.433467" lon="-5.286533">
        <ele>2249.0</ele>
        <time>2015-07-25T12:22:49Z</time>
      </trkpt>
      <trkpt lat="40.433367" lon="-5.286467">
        <ele>2249.0</ele>
        <time>2015-07-25T12:22:50Z</time>
      </trkpt>
      <trkpt lat="40.433283" lon="-5.286383">
        <ele>2249.0</ele>
        <time>2015-07-25T12:22:51Z</time>
      </trkpt>
      <trkpt lat="40.433200" lon="-5.286283">
        <ele>2248.0</ele>
        <time>2015-07-25T12:22:52Z</time>
      </trkpt>
      <trkpt lat="40.433133" lon="-5.286167">
        <ele>2246.0</ele>
        <time>2015-07-25T12:22:53Z</time>
      </trkpt>
      <trkpt lat="40.433100" lon="-5.286017">
        <ele>2244.0</ele>
        <time>2015-07-25T12:22:54Z</time>
      </trkpt>
      <trkpt lat="40.433083" lon="-5.285850">
        <ele>2243.0</ele>
        <time>2015-07-25T12:22:55Z</time>
      </trkpt>
      <trkpt lat="40.433100" lon="-5.285683">
        <ele>2244.0</ele>
        <time>2015-07-25T12:22:56Z</time>
      </trkpt>
      <trkpt lat="40.433150" lon="-5.285567">
        <ele>2246.0</ele>
        <time>2015-07-25T12:22:57Z</time>
      </trkpt>
      <trkpt lat="40.433200" lon="-5.285483">
        <ele>2247.0</ele>
        <time>2015-07-25T12:22:58Z</time>
      </trkpt>
      <trkpt lat="40.433267" lon="-5.285417">
        <ele>2248.0</ele>
        <time>2015-07-25T12:22:59Z</time>
      </trkpt>
      <trkpt lat="40.433350" lon="-5.285367">
        <ele>2249.0</ele>
        <time>2015-07-25T12:23:00Z</time>
      </trkpt>
      <trkpt lat="40.433433" lon="-5.285317">
        <ele>2250.0</ele>
        <time>2015-07-25T12:23:01Z</time>
      </trkpt>
      <trkpt lat="40.433500" lon="-5.285283">
        <ele>2249.0</ele>
        <time>2015-07-25T12:23:02Z</time>
      </trkpt>
      <trkpt lat="40.433583" lon="-5.285250">
        <ele>2248.0</ele>
        <time>2015-07-25T12:23:03Z</time>
      </trkpt>
      <trkpt lat="40.433667" lon="-5.285217">
        <ele>2247.0</ele>
        <time>2015-07-25T12:23:04Z</time>
      </trkpt>
      <trkpt lat="40.433733" lon="-5.285183">
        <ele>2246.0</ele>
        <time>2015-07-25T12:23:05Z</time>
      </trkpt>
      <trkpt lat="40.433800" lon="-5.285150">
        <ele>2245.0</ele>
        <time>2015-07-25T12:23:06Z</time>
      </trkpt>
      <trkpt lat="40.433850" lon="-5.285100">
        <ele>2244.0</ele>
        <time>2015-07-25T12:23:07Z</time>
      </trkpt>
      <trkpt lat="40.433917" lon="-5.285067">
        <ele>2242.0</ele>
        <time>2015-07-25T12:23:08Z</time>
      </trkpt>
      <trkpt lat="40.433967" lon="-5.285033">
        <ele>2240.0</ele>
        <time>2015-07-25T12:23:09Z</time>
      </trkpt>
      <trkpt lat="40.434033" lon="-5.285000">
        <ele>2237.0</ele>
        <time>2015-07-25T12:23:10Z</time>
      </trkpt>
      <trkpt lat="40.434117" lon="-5.284983">
        <ele>2235.0</ele>
        <time>2015-07-25T12:23:11Z</time>
      </trkpt>
      <trkpt lat="40.434183" lon="-5.284933">
        <ele>2232.0</ele>
        <time>2015-07-25T12:23:12Z</time>
      </trkpt>
      <trkpt lat="40.434267" lon="-5.284900">
        <ele>2230.0</ele>
        <time>2015-07-25T12:23:13Z</time>
      </trkpt>
      <trkpt lat="40.434333" lon="-5.284850">
        <ele>2229.0</ele>
        <time>2015-07-25T12:23:14Z</time>
      </trkpt>
      <trkpt lat="40.434417" lon="-5.284800">
        <ele>2228.0</ele>
        <time>2015-07-25T12:23:15Z</time>
      </trkpt>
      <trkpt lat="40.434483" lon="-5.284767">
        <ele>2226.0</ele>
        <time>2015-07-25T12:23:16Z</time>
      </trkpt>
      <trkpt lat="40.434550" lon="-5.284750">
        <ele>2225.0</ele>
        <time>2015-07-25T12:23:17Z</time>
      </trkpt>
      <trkpt lat="40.434633" lon="-5.284700">
        <ele>2223.0</ele>
        <time>2015-07-25T12:23:18Z</time>
      </trkpt>
      <trkpt lat="40.434700" lon="-5.284633">
        <ele>2221.0</ele>
        <time>2015-07-25T12:23:19Z</time>
      </trkpt>
      <trkpt lat="40.434750" lon="-5.284550">
        <ele>2220.0</ele>
        <time>2015-07-25T12:23:20Z</time>
      </trkpt>
      <trkpt lat="40.434783" lon="-5.284483">
        <ele>2221.0</ele>
        <time>2015-07-25T12:23:21Z</time>
      </trkpt>
      <trkpt lat="40.434817" lon="-5.284433">
        <ele>2221.0</ele>
        <time>2015-07-25T12:23:22Z</time>
      </trkpt>
      <trkpt lat="40.434850" lon="-5.284400">
        <ele>2219.0</ele>
        <time>2015-07-25T12:23:23Z</time>
      </trkpt>
      <trkpt lat="40.434900" lon="-5.284350">
        <ele>2217.0</ele>
        <time>2015-07-25T12:23:24Z</time>
      </trkpt>
      <trkpt lat="40.434933" lon="-5.284300">
        <ele>2215.0</ele>
        <time>2015-07-25T12:23:25Z</time>
      </trkpt>
      <trkpt lat="40.434983" lon="-5.284233">
        <ele>2213.0</ele>
        <time>2015-07-25T12:23:26Z</time>
      </trkpt>
      <trkpt lat="40.435033" lon="-5.284167">
        <ele>2212.0</ele>
        <time>2015-07-25T12:23:27Z</time>
      </trkpt>
      <trkpt lat="40.435067" lon="-5.284117">
        <ele>2210.0</ele>
        <time>2015-07-25T12:23:28Z</time>
      </trkpt>
      <trkpt lat="40.435117" lon="-5.284083">
        <ele>2208.0</ele>
        <time>2015-07-25T12:23:29Z</time>
      </trkpt>
      <trkpt lat="40.435167" lon="-5.284067">
        <ele>2206.0</ele>
        <time>2015-07-25T12:23:30Z</time>
      </trkpt>
      <trkpt lat="40.435217" lon="-5.284050">
        <ele>2204.0</ele>
        <time>2015-07-25T12:23:31Z</time>
      </trkpt>
      <trkpt lat="40.435283" lon="-5.284050">
        <ele>2202.0</ele>
        <time>2015-07-25T12:23:32Z</time>
      </trkpt>
      <trkpt lat="40.435350" lon="-5.284033">
        <ele>2200.0</ele>
        <time>2015-07-25T12:23:33Z</time>
      </trkpt>
      <trkpt lat="40.435400" lon="-5.284017">
        <ele>2197.0</ele>
        <time>2015-07-25T12:23:34Z</time>
      </trkpt>
      <trkpt lat="40.435467" lon="-5.283983">
        <ele>2195.0</ele>
        <time>2015-07-25T12:23:35Z</time>
      </trkpt>
      <trkpt lat="40.435533" lon="-5.283933">
        <ele>2192.0</ele>
        <time>2015-07-25T12:23:36Z</time>
      </trkpt>
      <trkpt lat="40.435600" lon="-5.283900">
        <ele>2188.0</ele>
        <time>2015-07-25T12:23:37Z</time>
      </trkpt>
      <trkpt lat="40.435683" lon="-5.283883">
        <ele>2184.0</ele>
        <time>2015-07-25T12:23:38Z</time>
      </trkpt>
      <trkpt lat="40.435767" lon="-5.283917">
        <ele>2180.0</ele>
        <time>2015-07-25T12:23:39Z</time>
      </trkpt>
      <trkpt lat="40.435833" lon="-5.283967">
        <ele>2177.0</ele>
        <time>2015-07-25T12:23:40Z</time>
      </trkpt>
      <trkpt lat="40.435900" lon="-5.284017">
        <ele>2178.0</ele>
        <time>2015-07-25T12:23:41Z</time>
      </trkpt>
      <trkpt lat="40.435967" lon="-5.284050">
        <ele>2177.0</ele>
        <time>2015-07-25T12:23:42Z</time>
      </trkpt>
      <trkpt lat="40.436017" lon="-5.284050">
        <ele>2177.0</ele>
        <time>2015-07-25T12:23:43Z</time>
      </trkpt>
      <trkpt lat="40.436050" lon="-5.284050">
        <ele>2176.0</ele>
        <time>2015-07-25T12:23:44Z</time>
      </trkpt>
      <trkpt lat="40.436117" lon="-5.284050">
        <ele>2174.0</ele>
        <time>2015-07-25T12:23:45Z</time>
      </trkpt>
      <trkpt lat="40.436150" lon="-5.284067">
        <ele>2171.0</ele>
        <time>2015-07-25T12:23:46Z</time>
      </trkpt>
      <trkpt lat="40.436217" lon="-5.284100">
        <ele>2169.0</ele>
        <time>2015-07-25T12:23:47Z</time>
      </trkpt>
      <trkpt lat="40.436267" lon="-5.284117">
        <ele>2168.0</ele>
        <time>2015-07-25T12:23:48Z</time>
      </trkpt>
      <trkpt lat="40.436333" lon="-5.284117">
        <ele>2167.0</ele>
        <time>2015-07-25T12:23:49Z</time>
      </trkpt>
      <trkpt lat="40.436400" lon="-5.284117">
        <ele>2167.0</ele>
        <time>2015-07-25T12:23:50Z</time>
      </trkpt>
      <trkpt lat="40.436467" lon="-5.284100">
        <ele>2167.0</ele>
        <time>2015-07-25T12:23:51Z</time>
      </trkpt>
      <trkpt lat="40.436517" lon="-5.284083">
        <ele>2167.0</ele>
        <time>2015-07-25T12:23:52Z</time>
      </trkpt>
      <trkpt lat="40.436567" lon="-5.284067">
        <ele>2167.0</ele>
        <time>2015-07-25T12:23:53Z</time>
      </trkpt>
      <trkpt lat="40.436617" lon="-5.284067">
        <ele>2166.0</ele>
        <time>2015-07-25T12:23:54Z</time>
      </trkpt>
      <trkpt lat="40.436683" lon="-5.284050">
        <ele>2164.0</ele>
        <time>2015-07-25T12:23:55Z</time>
      </trkpt>
      <trkpt lat="40.436750" lon="-5.284033">
        <ele>2163.0</ele>
        <time>2015-07-25T12:23:56Z</time>
      </trkpt>
      <trkpt lat="40.436833" lon="-5.284017">
        <ele>2161.0</ele>
        <time>2015-07-25T12:23:57Z</time>
      </trkpt>
      <trkpt lat="40.436900" lon="-5.283983">
        <ele>2160.0</ele>
        <time>2015-07-25T12:23:58Z</time>
      </trkpt>
      <trkpt lat="40.436967" lon="-5.283983">
        <ele>2160.0</ele>
        <time>2015-07-25T12:23:59Z</time>
      </trkpt>
      <trkpt lat="40.437050" lon="-5.283967">
        <ele>2160.0</ele>
        <time>2015-07-25T12:24:00Z</time>
      </trkpt>
      <trkpt lat="40.437133" lon="-5.283950">
        <ele>2160.0</ele>
        <time>2015-07-25T12:24:01Z</time>
      </trkpt>
      <trkpt lat="40.437200" lon="-5.283950">
        <ele>2159.0</ele>
        <time>2015-07-25T12:24:02Z</time>
      </trkpt>
      <trkpt lat="40.437283" lon="-5.283933">
        <ele>2159.0</ele>
        <time>2015-07-25T12:24:03Z</time>
      </trkpt>
      <trkpt lat="40.437367" lon="-5.283933">
        <ele>2158.0</ele>
        <time>2015-07-25T12:24:04Z</time>
      </trkpt>
      <trkpt lat="40.437450" lon="-5.283950">
        <ele>2158.0</ele>
        <time>2015-07-25T12:24:05Z</time>
      </trkpt>
      <trkpt lat="40.437533" lon="-5.283967">
        <ele>2157.0</ele>
        <time>2015-07-25T12:24:06Z</time>
      </trkpt>
      <trkpt lat="40.437617" lon="-5.283950">
        <ele>2157.0</ele>
        <time>2015-07-25T12:24:07Z</time>
      </trkpt>
      <trkpt lat="40.437683" lon="-5.283950">
        <ele>2157.0</ele>
        <time>2015-07-25T12:24:08Z</time>
      </trkpt>
      <trkpt lat="40.437767" lon="-5.283933">
        <ele>2157.0</ele>
        <time>2015-07-25T12:24:09Z</time>
      </trkpt>
      <trkpt lat="40.437817" lon="-5.283933">
        <ele>2156.0</ele>
        <time>2015-07-25T12:24:10Z</time>
      </trkpt>
      <trkpt lat="40.437900" lon="-5.283917">
        <ele>2155.0</ele>
        <time>2015-07-25T12:24:11Z</time>
      </trkpt>
      <trkpt lat="40.437967" lon="-5.283883">
        <ele>2154.0</ele>
        <time>2015-07-25T12:24:12Z</time>
      </trkpt>
      <trkpt lat="40.438050" lon="-5.283850">
        <ele>2153.0</ele>
        <time>2015-07-25T12:24:13Z</time>
      </trkpt>
      <trkpt lat="40.438117" lon="-5.283800">
        <ele>2154.0</ele>
        <time>2015-07-25T12:24:14Z</time>
      </trkpt>
      <trkpt lat="40.438183" lon="-5.283733">
        <ele>2155.0</ele>
        <time>2015-07-25T12:24:15Z</time>
      </trkpt>
      <trkpt lat="40.438250" lon="-5.283667">
        <ele>2156.0</ele>
        <time>2015-07-25T12:24:16Z</time>
      </trkpt>
      <trkpt lat="40.438300" lon="-5.283617">
        <ele>2158.0</ele>
        <time>2015-07-25T12:24:17Z</time>
      </trkpt>
      <trkpt lat="40.438350" lon="-5.283567">
        <ele>2160.0</ele>
        <time>2015-07-25T12:24:18Z</time>
      </trkpt>
      <trkpt lat="40.438400" lon="-5.283517">
        <ele>2161.0</ele>
        <time>2015-07-25T12:24:19Z</time>
      </trkpt>
      <trkpt lat="40.438450" lon="-5.283483">
        <ele>2162.0</ele>
        <time>2015-07-25T12:24:20Z</time>
      </trkpt>
      <trkpt lat="40.438500" lon="-5.283433">
        <ele>2162.0</ele>
        <time>2015-07-25T12:24:21Z</time>
      </trkpt>
      <trkpt lat="40.438533" lon="-5.283417">
        <ele>2161.0</ele>
        <time>2015-07-25T12:24:22Z</time>
      </trkpt>
      <trkpt lat="40.438600" lon="-5.283417">
        <ele>2158.0</ele>
        <time>2015-07-25T12:24:23Z</time>
      </trkpt>
      <trkpt lat="40.438667" lon="-5.283433">
        <ele>2154.0</ele>
        <time>2015-07-25T12:24:24Z</time>
      </trkpt>
      <trkpt lat="40.438750" lon="-5.283417">
        <ele>2150.0</ele>
        <time>2015-07-25T12:24:25Z</time>
      </trkpt>
      <trkpt lat="40.438833" lon="-5.283367">
        <ele>2147.0</ele>
        <time>2015-07-25T12:24:26Z</time>
      </trkpt>
      <trkpt lat="40.438917" lon="-5.283283">
        <ele>2145.0</ele>
        <time>2015-07-25T12:24:27Z</time>
      </trkpt>
      <trkpt lat="40.438967" lon="-5.283200">
        <ele>2145.0</ele>
        <time>2015-07-25T12:24:28Z</time>
      </trkpt>
      <trkpt lat="40.439033" lon="-5.283133">
        <ele>2145.0</ele>
        <time>2015-07-25T12:24:29Z</time>
      </trkpt>
      <trkpt lat="40.439083" lon="-5.283083">
        <ele>2144.0</ele>
        <time>2015-07-25T12:24:30Z</time>
      </trkpt>
      <trkpt lat="40.439150" lon="-5.283017">
        <ele>2141.0</ele>
        <time>2015-07-25T12:24:31Z</time>
      </trkpt>
      <trkpt lat="40.439217" lon="-5.282967">
        <ele>2139.0</ele>
        <time>2015-07-25T12:24:32Z</time>
      </trkpt>
      <trkpt lat="40.439300" lon="-5.282917">
        <ele>2138.0</ele>
        <time>2015-07-25T12:24:33Z</time>
      </trkpt>
      <trkpt lat="40.439367" lon="-5.282867">
        <ele>2139.0</ele>
        <time>2015-07-25T12:24:34Z</time>
      </trkpt>
      <trkpt lat="40.439450" lon="-5.282850">
        <ele>2140.0</ele>
        <time>2015-07-25T12:24:35Z</time>
      </trkpt>
      <trkpt lat="40.439517" lon="-5.282850">
        <ele>2140.0</ele>
        <time>2015-07-25T12:24:36Z</time>
      </trkpt>
      <trkpt lat="40.439583" lon="-5.282850">
        <ele>2141.0</ele>
        <time>2015-07-25T12:24:37Z</time>
      </trkpt>
      <trkpt lat="40.439633" lon="-5.282833">
        <ele>2140.0</ele>
        <time>2015-07-25T12:24:38Z</time>
      </trkpt>
      <trkpt lat="40.439700" lon="-5.282800">
        <ele>2140.0</ele>
        <time>2015-07-25T12:24:39Z</time>
      </trkpt>
      <trkpt lat="40.439750" lon="-5.282750">
        <ele>2138.0</ele>
        <time>2015-07-25T12:24:40Z</time>
      </trkpt>
      <trkpt lat="40.439800" lon="-5.282700">
        <ele>2136.0</ele>
        <time>2015-07-25T12:24:41Z</time>
      </trkpt>
      <trkpt lat="40.439867" lon="-5.282633">
        <ele>2132.0</ele>
        <time>2015-07-25T12:24:42Z</time>
      </trkpt>
      <trkpt lat="40.439933" lon="-5.282583">
        <ele>2128.0</ele>
        <time>2015-07-25T12:24:43Z</time>
      </trkpt>
      <trkpt lat="40.440000" lon="-5.282517">
        <ele>2125.0</ele>
        <time>2015-07-25T12:24:44Z</time>
      </trkpt>
      <trkpt lat="40.440067" lon="-5.282433">
        <ele>2123.0</ele>
        <time>2015-07-25T12:24:45Z</time>
      </trkpt>
      <trkpt lat="40.440117" lon="-5.282350">
        <ele>2121.0</ele>
        <time>2015-07-25T12:24:46Z</time>
      </trkpt>
      <trkpt lat="40.440167" lon="-5.282267">
        <ele>2118.0</ele>
        <time>2015-07-25T12:24:47Z</time>
      </trkpt>
      <trkpt lat="40.440217" lon="-5.282183">
        <ele>2115.0</ele>
        <time>2015-07-25T12:24:48Z</time>
      </trkpt>
      <trkpt lat="40.440283" lon="-5.282100">
        <ele>2112.0</ele>
        <time>2015-07-25T12:24:49Z</time>
      </trkpt>
      <trkpt lat="40.440350" lon="-5.282050">
        <ele>2109.0</ele>
        <time>2015-07-25T12:24:50Z</time>
      </trkpt>
      <trkpt lat="40.440450" lon="-5.282033">
        <ele>2107.0</ele>
        <time>2015-07-25T12:24:51Z</time>
      </trkpt>
      <trkpt lat="40.440533" lon="-5.282033">
        <ele>2106.0</ele>
        <time>2015-07-25T12:24:52Z</time>
      </trkpt>
      <trkpt lat="40.440617" lon="-5.282033">
        <ele>2106.0</ele>
        <time>2015-07-25T12:24:53Z</time>
      </trkpt>
      <trkpt lat="40.440683" lon="-5.281983">
        <ele>2106.0</ele>
        <time>2015-07-25T12:24:54Z</time>
      </trkpt>
      <trkpt lat="40.440767" lon="-5.281950">
        <ele>2106.0</ele>
        <time>2015-07-25T12:24:55Z</time>
      </trkpt>
      <trkpt lat="40.440833" lon="-5.281917">
        <ele>2105.0</ele>
        <time>2015-07-25T12:24:56Z</time>
      </trkpt>
      <trkpt lat="40.440917" lon="-5.281917">
        <ele>2105.0</ele>
        <time>2015-07-25T12:24:57Z</time>
      </trkpt>
      <trkpt lat="40.441000" lon="-5.281917">
        <ele>2105.0</ele>
        <time>2015-07-25T12:24:58Z</time>
      </trkpt>
      <trkpt lat="40.441050" lon="-5.281933">
        <ele>2103.0</ele>
        <time>2015-07-25T12:24:59Z</time>
      </trkpt>
      <trkpt lat="40.441117" lon="-5.281933">
        <ele>2101.0</ele>
        <time>2015-07-25T12:25:00Z</time>
      </trkpt>
      <trkpt lat="40.441183" lon="-5.281967">
        <ele>2097.0</ele>
        <time>2015-07-25T12:25:01Z</time>
      </trkpt>
      <trkpt lat="40.441267" lon="-5.282000">
        <ele>2094.0</ele>
        <time>2015-07-25T12:25:02Z</time>
      </trkpt>
      <trkpt lat="40.441350" lon="-5.282067">
        <ele>2092.0</ele>
        <time>2015-07-25T12:25:03Z</time>
      </trkpt>
      <trkpt lat="40.441433" lon="-5.282117">
        <ele>2091.0</ele>
        <time>2015-07-25T12:25:04Z</time>
      </trkpt>
      <trkpt lat="40.441517" lon="-5.282133">
        <ele>2091.0</ele>
        <time>2015-07-25T12:25:05Z</time>
      </trkpt>
      <trkpt lat="40.441583" lon="-5.282150">
        <ele>2092.0</ele>
        <time>2015-07-25T12:25:06Z</time>
      </trkpt>
      <trkpt lat="40.441633" lon="-5.282150">
        <ele>2093.0</ele>
        <time>2015-07-25T12:25:07Z</time>
      </trkpt>
      <trkpt lat="40.441683" lon="-5.282133">
        <ele>2094.0</ele>
        <time>2015-07-25T12:25:08Z</time>
      </trkpt>
      <trkpt lat="40.441750" lon="-5.282133">
        <ele>2095.0</ele>
        <time>2015-07-25T12:25:09Z</time>
      </trkpt>
      <trkpt lat="40.441800" lon="-5.282133">
        <ele>2098.0</ele>
        <time>2015-07-25T12:25:10Z</time>
      </trkpt>
      <trkpt lat="40.441867" lon="-5.282133">
        <ele>2100.0</ele>
        <time>2015-07-25T12:25:11Z</time>
      </trkpt>
      <trkpt lat="40.441900" lon="-5.282133">
        <ele>2103.0</ele>
        <time>2015-07-25T12:25:12Z</time>
      </trkpt>
      <trkpt lat="40.441933" lon="-5.282150">
        <ele>2106.0</ele>
        <time>2015-07-25T12:25:13Z</time>
      </trkpt>
      <trkpt lat="40.441967" lon="-5.282217">
        <ele>2107.0</ele>
        <time>2015-07-25T12:25:14Z</time>
      </trkpt>
      <trkpt lat="40.441950" lon="-5.282300">
        <ele>2107.0</ele>
        <time>2015-07-25T12:25:15Z</time>
      </trkpt>
      <trkpt lat="40.441900" lon="-5.282417">
        <ele>2108.0</ele>
        <time>2015-07-25T12:25:16Z</time>
      </trkpt>
      <trkpt lat="40.441783" lon="-5.282517">
        <ele>2109.0</ele>
        <time>2015-07-25T12:25:17Z</time>
      </trkpt>
      <trkpt lat="40.441650" lon="-5.282550">
        <ele>2111.0</ele>
        <time>2015-07-25T12:25:18Z</time>
      </trkpt>
      <trkpt lat="40.441500" lon="-5.282517">
        <ele>2113.0</ele>
        <time>2015-07-25T12:25:19Z</time>
      </trkpt>
      <trkpt lat="40.441367" lon="-5.282433">
        <ele>2116.0</ele>
        <time>2015-07-25T12:25:20Z</time>
      </trkpt>
      <trkpt lat="40.441250" lon="-5.282333">
        <ele>2118.0</ele>
        <time>2015-07-25T12:25:21Z</time>
      </trkpt>
      <trkpt lat="40.441150" lon="-5.282183">
        <ele>2118.0</ele>
        <time>2015-07-25T12:25:22Z</time>
      </trkpt>
      <trkpt lat="40.441083" lon="-5.282017">
        <ele>2118.0</ele>
        <time>2015-07-25T12:25:23Z</time>
      </trkpt>
      <trkpt lat="40.441050" lon="-5.281833">
        <ele>2118.0</ele>
        <time>2015-07-25T12:25:24Z</time>
      </trkpt>
      <trkpt lat="40.441067" lon="-5.281683">
        <ele>2117.0</ele>
        <time>2015-07-25T12:25:25Z</time>
      </trkpt>
      <trkpt lat="40.441117" lon="-5.281550">
        <ele>2116.0</ele>
        <time>2015-07-25T12:25:26Z</time>
      </trkpt>
      <trkpt lat="40.441183" lon="-5.281467">
        <ele>2116.0</ele>
        <time>2015-07-25T12:25:27Z</time>
      </trkpt>
      <trkpt lat="40.441250" lon="-5.281400">
        <ele>2118.0</ele>
        <time>2015-07-25T12:25:28Z</time>
      </trkpt>
      <trkpt lat="40.441300" lon="-5.281367">
        <ele>2120.0</ele>
        <time>2015-07-25T12:25:29Z</time>
      </trkpt>
      <trkpt lat="40.441350" lon="-5.281367">
        <ele>2122.0</ele>
        <time>2015-07-25T12:25:30Z</time>
      </trkpt>
      <trkpt lat="40.441400" lon="-5.281400">
        <ele>2124.0</ele>
        <time>2015-07-25T12:25:31Z</time>
      </trkpt>
      <trkpt lat="40.441417" lon="-5.281450">
        <ele>2125.0</ele>
        <time>2015-07-25T12:25:32Z</time>
      </trkpt>
      <trkpt lat="40.441433" lon="-5.281517">
        <ele>2126.0</ele>
        <time>2015-07-25T12:25:33Z</time>
      </trkpt>
      <trkpt lat="40.441417" lon="-5.281617">
        <ele>2128.0</ele>
        <time>2015-07-25T12:25:34Z</time>
      </trkpt>
      <trkpt lat="40.441367" lon="-5.281717">
        <ele>2129.0</ele>
        <time>2015-07-25T12:25:35Z</time>
      </trkpt>
      <trkpt lat="40.441283" lon="-5.281817">
        <ele>2132.0</ele>
        <time>2015-07-25T12:25:36Z</time>
      </trkpt>
      <trkpt lat="40.441200" lon="-5.281900">
        <ele>2136.0</ele>
        <time>2015-07-25T12:25:37Z</time>
      </trkpt>
      <trkpt lat="40.441100" lon="-5.281950">
        <ele>2140.0</ele>
        <time>2015-07-25T12:25:38Z</time>
      </trkpt>
      <trkpt lat="40.441033" lon="-5.282000">
        <ele>2142.0</ele>
        <time>2015-07-25T12:25:39Z</time>
      </trkpt>
      <trkpt lat="40.440950" lon="-5.282050">
        <ele>2143.0</ele>
        <time>2015-07-25T12:25:40Z</time>
      </trkpt>
      <trkpt lat="40.440850" lon="-5.282067">
        <ele>2143.0</ele>
        <time>2015-07-25T12:25:41Z</time>
      </trkpt>
      <trkpt lat="40.440717" lon="-5.282067">
        <ele>2142.0</ele>
        <time>2015-07-25T12:25:42Z</time>
      </trkpt>
      <trkpt lat="40.440600" lon="-5.282050">
        <ele>2141.0</ele>
        <time>2015-07-25T12:25:43Z</time>
      </trkpt>
      <trkpt lat="40.440467" lon="-5.281983">
        <ele>2141.0</ele>
        <time>2015-07-25T12:25:44Z</time>
      </trkpt>
      <trkpt lat="40.440350" lon="-5.281900">
        <ele>2142.0</ele>
        <time>2015-07-25T12:25:45Z</time>
      </trkpt>
      <trkpt lat="40.440267" lon="-5.281817">
        <ele>2143.0</ele>
        <time>2015-07-25T12:25:46Z</time>
      </trkpt>
      <trkpt lat="40.440217" lon="-5.281717">
        <ele>2143.0</ele>
        <time>2015-07-25T12:25:47Z</time>
      </trkpt>
      <trkpt lat="40.440200" lon="-5.281600">
        <ele>2141.0</ele>
        <time>2015-07-25T12:25:48Z</time>
      </trkpt>
      <trkpt lat="40.440183" lon="-5.281500">
        <ele>2139.0</ele>
        <time>2015-07-25T12:25:49Z</time>
      </trkpt>
      <trkpt lat="40.440183" lon="-5.281383">
        <ele>2135.0</ele>
        <time>2015-07-25T12:25:50Z</time>
      </trkpt>
      <trkpt lat="40.440183" lon="-5.281283">
        <ele>2132.0</ele>
        <time>2015-07-25T12:25:51Z</time>
      </trkpt>
      <trkpt lat="40.440217" lon="-5.281183">
        <ele>2129.0</ele>
        <time>2015-07-25T12:25:52Z</time>
      </trkpt>
      <trkpt lat="40.440267" lon="-5.281117">
        <ele>2126.0</ele>
        <time>2015-07-25T12:25:53Z</time>
      </trkpt>
      <trkpt lat="40.440333" lon="-5.281117">
        <ele>2121.0</ele>
        <time>2015-07-25T12:25:54Z</time>
      </trkpt>
      <trkpt lat="40.440417" lon="-5.281200">
        <ele>2118.0</ele>
        <time>2015-07-25T12:25:55Z</time>
      </trkpt>
      <trkpt lat="40.440500" lon="-5.281283">
        <ele>2119.0</ele>
        <time>2015-07-25T12:25:56Z</time>
      </trkpt>
      <trkpt lat="40.440550" lon="-5.281333">
        <ele>2124.0</ele>
        <time>2015-07-25T12:25:57Z</time>
      </trkpt>
      <trkpt lat="40.440600" lon="-5.281350">
        <ele>2129.0</ele>
        <time>2015-07-25T12:25:58Z</time>
      </trkpt>
      <trkpt lat="40.440633" lon="-5.281333">
        <ele>2132.0</ele>
        <time>2015-07-25T12:25:59Z</time>
      </trkpt>
      <trkpt lat="40.440667" lon="-5.281317">
        <ele>2134.0</ele>
        <time>2015-07-25T12:26:00Z</time>
      </trkpt>
      <trkpt lat="40.440717" lon="-5.281300">
        <ele>2134.0</ele>
        <time>2015-07-25T12:26:01Z</time>
      </trkpt>
      <trkpt lat="40.440767" lon="-5.281333">
        <ele>2134.0</ele>
        <time>2015-07-25T12:26:02Z</time>
      </trkpt>
      <trkpt lat="40.440817" lon="-5.281367">
        <ele>2134.0</ele>
        <time>2015-07-25T12:26:03Z</time>
      </trkpt>
      <trkpt lat="40.440867" lon="-5.281417">
        <ele>2135.0</ele>
        <time>2015-07-25T12:26:04Z</time>
      </trkpt>
      <trkpt lat="40.440933" lon="-5.281433">
        <ele>2136.0</ele>
        <time>2015-07-25T12:26:05Z</time>
      </trkpt>
      <trkpt lat="40.440983" lon="-5.281450">
        <ele>2136.0</ele>
        <time>2015-07-25T12:26:06Z</time>
      </trkpt>
      <trkpt lat="40.441033" lon="-5.281450">
        <ele>2136.0</ele>
        <time>2015-07-25T12:26:07Z</time>
      </trkpt>
      <trkpt lat="40.441100" lon="-5.281450">
        <ele>2136.0</ele>
        <time>2015-07-25T12:26:08Z</time>
      </trkpt>
      <trkpt lat="40.441167" lon="-5.281450">
        <ele>2135.0</ele>
        <time>2015-07-25T12:26:09Z</time>
      </trkpt>
      <trkpt lat="40.441233" lon="-5.281417">
        <ele>2135.0</ele>
        <time>2015-07-25T12:26:10Z</time>
      </trkpt>
      <trkpt lat="40.441300" lon="-5.281367">
        <ele>2135.0</ele>
        <time>2015-07-25T12:26:11Z</time>
      </trkpt>
      <trkpt lat="40.441367" lon="-5.281317">
        <ele>2135.0</ele>
        <time>2015-07-25T12:26:12Z</time>
      </trkpt>
      <trkpt lat="40.441433" lon="-5.281250">
        <ele>2135.0</ele>
        <time>2015-07-25T12:26:13Z</time>
      </trkpt>
      <trkpt lat="40.441500" lon="-5.281183">
        <ele>2135.0</ele>
        <time>2015-07-25T12:26:14Z</time>
      </trkpt>
      <trkpt lat="40.441567" lon="-5.281117">
        <ele>2136.0</ele>
        <time>2015-07-25T12:26:15Z</time>
      </trkpt>
      <trkpt lat="40.441650" lon="-5.281067">
        <ele>2137.0</ele>
        <time>2015-07-25T12:26:16Z</time>
      </trkpt>
      <trkpt lat="40.441717" lon="-5.281050">
        <ele>2137.0</ele>
        <time>2015-07-25T12:26:17Z</time>
      </trkpt>
      <trkpt lat="40.441783" lon="-5.281033">
        <ele>2137.0</ele>
        <time>2015-07-25T12:26:18Z</time>
      </trkpt>
      <trkpt lat="40.441833" lon="-5.281033">
        <ele>2137.0</ele>
        <time>2015-07-25T12:26:19Z</time>
      </trkpt>
      <trkpt lat="40.441900" lon="-5.281050">
        <ele>2136.0</ele>
        <time>2015-07-25T12:26:20Z</time>
      </trkpt>
      <trkpt lat="40.441950" lon="-5.281067">
        <ele>2135.0</ele>
        <time>2015-07-25T12:26:21Z</time>
      </trkpt>
      <trkpt lat="40.442017" lon="-5.281083">
        <ele>2134.0</ele>
        <time>2015-07-25T12:26:22Z</time>
      </trkpt>
      <trkpt lat="40.442067" lon="-5.281067">
        <ele>2133.0</ele>
        <time>2015-07-25T12:26:23Z</time>
      </trkpt>
      <trkpt lat="40.442133" lon="-5.281050">
        <ele>2132.0</ele>
        <time>2015-07-25T12:26:24Z</time>
      </trkpt>
      <trkpt lat="40.442200" lon="-5.281017">
        <ele>2132.0</ele>
        <time>2015-07-25T12:26:25Z</time>
      </trkpt>
      <trkpt lat="40.442267" lon="-5.280983">
        <ele>2131.0</ele>
        <time>2015-07-25T12:26:26Z</time>
      </trkpt>
      <trkpt lat="40.442333" lon="-5.280950">
        <ele>2130.0</ele>
        <time>2015-07-25T12:26:27Z</time>
      </trkpt>
      <trkpt lat="40.442383" lon="-5.280917">
        <ele>2130.0</ele>
        <time>2015-07-25T12:26:28Z</time>
      </trkpt>
      <trkpt lat="40.442450" lon="-5.280883">
        <ele>2130.0</ele>
        <time>2015-07-25T12:26:29Z</time>
      </trkpt>
      <trkpt lat="40.442517" lon="-5.280850">
        <ele>2130.0</ele>
        <time>2015-07-25T12:26:30Z</time>
      </trkpt>
      <trkpt lat="40.442567" lon="-5.280833">
        <ele>2131.0</ele>
        <time>2015-07-25T12:26:31Z</time>
      </trkpt>
      <trkpt lat="40.442617" lon="-5.280817">
        <ele>2131.0</ele>
        <time>2015-07-25T12:26:32Z</time>
      </trkpt>
      <trkpt lat="40.442683" lon="-5.280783">
        <ele>2130.0</ele>
        <time>2015-07-25T12:26:33Z</time>
      </trkpt>
      <trkpt lat="40.442750" lon="-5.280750">
        <ele>2128.0</ele>
        <time>2015-07-25T12:26:34Z</time>
      </trkpt>
      <trkpt lat="40.442800" lon="-5.280717">
        <ele>2127.0</ele>
        <time>2015-07-25T12:26:35Z</time>
      </trkpt>
      <trkpt lat="40.442867" lon="-5.280700">
        <ele>2126.0</ele>
        <time>2015-07-25T12:26:36Z</time>
      </trkpt>
      <trkpt lat="40.442933" lon="-5.280667">
        <ele>2125.0</ele>
        <time>2015-07-25T12:26:37Z</time>
      </trkpt>
      <trkpt lat="40.443000" lon="-5.280633">
        <ele>2125.0</ele>
        <time>2015-07-25T12:26:38Z</time>
      </trkpt>
      <trkpt lat="40.443050" lon="-5.280567">
        <ele>2124.0</ele>
        <time>2015-07-25T12:26:39Z</time>
      </trkpt>
      <trkpt lat="40.443100" lon="-5.280500">
        <ele>2122.0</ele>
        <time>2015-07-25T12:26:40Z</time>
      </trkpt>
      <trkpt lat="40.443150" lon="-5.280417">
        <ele>2121.0</ele>
        <time>2015-07-25T12:26:41Z</time>
      </trkpt>
      <trkpt lat="40.443200" lon="-5.280333">
        <ele>2120.0</ele>
        <time>2015-07-25T12:26:42Z</time>
      </trkpt>
      <trkpt lat="40.443267" lon="-5.280267">
        <ele>2120.0</ele>
        <time>2015-07-25T12:26:43Z</time>
      </trkpt>
      <trkpt lat="40.443317" lon="-5.280183">
        <ele>2121.0</ele>
        <time>2015-07-25T12:26:44Z</time>
      </trkpt>
      <trkpt lat="40.443367" lon="-5.280100">
        <ele>2121.0</ele>
        <time>2015-07-25T12:26:45Z</time>
      </trkpt>
      <trkpt lat="40.443417" lon="-5.279983">
        <ele>2120.0</ele>
        <time>2015-07-25T12:26:46Z</time>
      </trkpt>
      <trkpt lat="40.443467" lon="-5.279900">
        <ele>2121.0</ele>
        <time>2015-07-25T12:26:47Z</time>
      </trkpt>
      <trkpt lat="40.443517" lon="-5.279817">
        <ele>2121.0</ele>
        <time>2015-07-25T12:26:48Z</time>
      </trkpt>
      <trkpt lat="40.443583" lon="-5.279750">
        <ele>2122.0</ele>
        <time>2015-07-25T12:26:49Z</time>
      </trkpt>
      <trkpt lat="40.443633" lon="-5.279700">
        <ele>2123.0</ele>
        <time>2015-07-25T12:26:50Z</time>
      </trkpt>
      <trkpt lat="40.443700" lon="-5.279650">
        <ele>2124.0</ele>
        <time>2015-07-25T12:26:51Z</time>
      </trkpt>
      <trkpt lat="40.443750" lon="-5.279583">
        <ele>2124.0</ele>
        <time>2015-07-25T12:26:52Z</time>
      </trkpt>
      <trkpt lat="40.443783" lon="-5.279533">
        <ele>2124.0</ele>
        <time>2015-07-25T12:26:53Z</time>
      </trkpt>
      <trkpt lat="40.443833" lon="-5.279517">
        <ele>2124.0</ele>
        <time>2015-07-25T12:26:54Z</time>
      </trkpt>
      <trkpt lat="40.443883" lon="-5.279533">
        <ele>2122.0</ele>
        <time>2015-07-25T12:26:55Z</time>
      </trkpt>
      <trkpt lat="40.443917" lon="-5.279583">
        <ele>2120.0</ele>
        <time>2015-07-25T12:26:56Z</time>
      </trkpt>
      <trkpt lat="40.443950" lon="-5.279650">
        <ele>2117.0</ele>
        <time>2015-07-25T12:26:57Z</time>
      </trkpt>
      <trkpt lat="40.444000" lon="-5.279717">
        <ele>2115.0</ele>
        <time>2015-07-25T12:26:58Z</time>
      </trkpt>
      <trkpt lat="40.444050" lon="-5.279750">
        <ele>2114.0</ele>
        <time>2015-07-25T12:26:59Z</time>
      </trkpt>
      <trkpt lat="40.444100" lon="-5.279750">
        <ele>2114.0</ele>
        <time>2015-07-25T12:27:00Z</time>
      </trkpt>
      <trkpt lat="40.444150" lon="-5.279733">
        <ele>2113.0</ele>
        <time>2015-07-25T12:27:01Z</time>
      </trkpt>
      <trkpt lat="40.444200" lon="-5.279683">
        <ele>2113.0</ele>
        <time>2015-07-25T12:27:02Z</time>
      </trkpt>
      <trkpt lat="40.444250" lon="-5.279633">
        <ele>2111.0</ele>
        <time>2015-07-25T12:27:03Z</time>
      </trkpt>
      <trkpt lat="40.444300" lon="-5.279583">
        <ele>2109.0</ele>
        <time>2015-07-25T12:27:04Z</time>
      </trkpt>
      <trkpt lat="40.444350" lon="-5.279517">
        <ele>2107.0</ele>
        <time>2015-07-25T12:27:05Z</time>
      </trkpt>
      <trkpt lat="40.444400" lon="-5.279433">
        <ele>2105.0</ele>
        <time>2015-07-25T12:27:06Z</time>
      </trkpt>
      <trkpt lat="40.444450" lon="-5.279317">
        <ele>2104.0</ele>
        <time>2015-07-25T12:27:07Z</time>
      </trkpt>
      <trkpt lat="40.444483" lon="-5.279183">
        <ele>2102.0</ele>
        <time>2015-07-25T12:27:08Z</time>
      </trkpt>
      <trkpt lat="40.444500" lon="-5.279050">
        <ele>2100.0</ele>
        <time>2015-07-25T12:27:09Z</time>
      </trkpt>
      <trkpt lat="40.444517" lon="-5.278917">
        <ele>2099.0</ele>
        <time>2015-07-25T12:27:10Z</time>
      </trkpt>
      <trkpt lat="40.444533" lon="-5.278767">
        <ele>2099.0</ele>
        <time>2015-07-25T12:27:11Z</time>
      </trkpt>
      <trkpt lat="40.444533" lon="-5.278650">
        <ele>2098.0</ele>
        <time>2015-07-25T12:27:12Z</time>
      </trkpt>
      <trkpt lat="40.444550" lon="-5.278517">
        <ele>2096.0</ele>
        <time>2015-07-25T12:27:13Z</time>
      </trkpt>
      <trkpt lat="40.444567" lon="-5.278383">
        <ele>2095.0</ele>
        <time>2015-07-25T12:27:14Z</time>
      </trkpt>
      <trkpt lat="40.444583" lon="-5.278250">
        <ele>2094.0</ele>
        <time>2015-07-25T12:27:15Z</time>
      </trkpt>
      <trkpt lat="40.444583" lon="-5.278100">
        <ele>2093.0</ele>
        <time>2015-07-25T12:27:16Z</time>
      </trkpt>
      <trkpt lat="40.444567" lon="-5.277967">
        <ele>2091.0</ele>
        <time>2015-07-25T12:27:17Z</time>
      </trkpt>
      <trkpt lat="40.444550" lon="-5.277817">
        <ele>2090.0</ele>
        <time>2015-07-25T12:27:18Z</time>
      </trkpt>
      <trkpt lat="40.444550" lon="-5.277667">
        <ele>2089.0</ele>
        <time>2015-07-25T12:27:19Z</time>
      </trkpt>
      <trkpt lat="40.444550" lon="-5.277533">
        <ele>2087.0</ele>
        <time>2015-07-25T12:27:20Z</time>
      </trkpt>
      <trkpt lat="40.444583" lon="-5.277400">
        <ele>2086.0</ele>
        <time>2015-07-25T12:27:21Z</time>
      </trkpt>
      <trkpt lat="40.444617" lon="-5.277267">
        <ele>2083.0</ele>
        <time>2015-07-25T12:27:22Z</time>
      </trkpt>
      <trkpt lat="40.444633" lon="-5.277133">
        <ele>2082.0</ele>
        <time>2015-07-25T12:27:23Z</time>
      </trkpt>
      <trkpt lat="40.444650" lon="-5.277000">
        <ele>2081.0</ele>
        <time>2015-07-25T12:27:24Z</time>
      </trkpt>
      <trkpt lat="40.444650" lon="-5.276867">
        <ele>2080.0</ele>
        <time>2015-07-25T12:27:25Z</time>
      </trkpt>
      <trkpt lat="40.444667" lon="-5.276733">
        <ele>2078.0</ele>
        <time>2015-07-25T12:27:26Z</time>
      </trkpt>
      <trkpt lat="40.444700" lon="-5.276617">
        <ele>2076.0</ele>
        <time>2015-07-25T12:27:27Z</time>
      </trkpt>
      <trkpt lat="40.444733" lon="-5.276483">
        <ele>2074.0</ele>
        <time>2015-07-25T12:27:28Z</time>
      </trkpt>
      <trkpt lat="40.444783" lon="-5.276367">
        <ele>2075.0</ele>
        <time>2015-07-25T12:27:29Z</time>
      </trkpt>
      <trkpt lat="40.444850" lon="-5.276267">
        <ele>2077.0</ele>
        <time>2015-07-25T12:27:30Z</time>
      </trkpt>
      <trkpt lat="40.444900" lon="-5.276183">
        <ele>2080.0</ele>
        <time>2015-07-25T12:27:31Z</time>
      </trkpt>
      <trkpt lat="40.444933" lon="-5.276083">
        <ele>2083.0</ele>
        <time>2015-07-25T12:27:32Z</time>
      </trkpt>
      <trkpt lat="40.444967" lon="-5.276000">
        <ele>2085.0</ele>
        <time>2015-07-25T12:27:33Z</time>
      </trkpt>
      <trkpt lat="40.445017" lon="-5.275917">
        <ele>2087.0</ele>
        <time>2015-07-25T12:27:34Z</time>
      </trkpt>
      <trkpt lat="40.445067" lon="-5.275867">
        <ele>2090.0</ele>
        <time>2015-07-25T12:27:35Z</time>
      </trkpt>
      <trkpt lat="40.445133" lon="-5.275867">
        <ele>2090.0</ele>
        <time>2015-07-25T12:27:36Z</time>
      </trkpt>
      <trkpt lat="40.445183" lon="-5.275950">
        <ele>2091.0</ele>
        <time>2015-07-25T12:27:37Z</time>
      </trkpt>
      <trkpt lat="40.445200" lon="-5.276067">
        <ele>2092.0</ele>
        <time>2015-07-25T12:27:38Z</time>
      </trkpt>
      <trkpt lat="40.445200" lon="-5.276217">
        <ele>2096.0</ele>
        <time>2015-07-25T12:27:39Z</time>
      </trkpt>
      <trkpt lat="40.445183" lon="-5.276333">
        <ele>2101.0</ele>
        <time>2015-07-25T12:27:40Z</time>
      </trkpt>
      <trkpt lat="40.445150" lon="-5.276417">
        <ele>2105.0</ele>
        <time>2015-07-25T12:27:41Z</time>
      </trkpt>
      <trkpt lat="40.445117" lon="-5.276500">
        <ele>2107.0</ele>
        <time>2015-07-25T12:27:42Z</time>
      </trkpt>
      <trkpt lat="40.445050" lon="-5.276583">
        <ele>2108.0</ele>
        <time>2015-07-25T12:27:43Z</time>
      </trkpt>
      <trkpt lat="40.444983" lon="-5.276650">
        <ele>2105.0</ele>
        <time>2015-07-25T12:27:44Z</time>
      </trkpt>
      <trkpt lat="40.444917" lon="-5.276717">
        <ele>2102.0</ele>
        <time>2015-07-25T12:27:45Z</time>
      </trkpt>
      <trkpt lat="40.444817" lon="-5.276783">
        <ele>2099.0</ele>
        <time>2015-07-25T12:27:46Z</time>
      </trkpt>
      <trkpt lat="40.444700" lon="-5.276833">
        <ele>2097.0</ele>
        <time>2015-07-25T12:27:47Z</time>
      </trkpt>
      <trkpt lat="40.444567" lon="-5.276817">
        <ele>2096.0</ele>
        <time>2015-07-25T12:27:48Z</time>
      </trkpt>
      <trkpt lat="40.444433" lon="-5.276717">
        <ele>2094.0</ele>
        <time>2015-07-25T12:27:49Z</time>
      </trkpt>
      <trkpt lat="40.444333" lon="-5.276567">
        <ele>2091.0</ele>
        <time>2015-07-25T12:27:50Z</time>
      </trkpt>
      <trkpt lat="40.444283" lon="-5.276383">
        <ele>2089.0</ele>
        <time>2015-07-25T12:27:51Z</time>
      </trkpt>
      <trkpt lat="40.444267" lon="-5.276217">
        <ele>2089.0</ele>
        <time>2015-07-25T12:27:52Z</time>
      </trkpt>
      <trkpt lat="40.444283" lon="-5.276050">
        <ele>2089.0</ele>
        <time>2015-07-25T12:27:53Z</time>
      </trkpt>
      <trkpt lat="40.444300" lon="-5.275917">
        <ele>2090.0</ele>
        <time>2015-07-25T12:27:54Z</time>
      </trkpt>
      <trkpt lat="40.444317" lon="-5.275767">
        <ele>2090.0</ele>
        <time>2015-07-25T12:27:55Z</time>
      </trkpt>
      <trkpt lat="40.444350" lon="-5.275617">
        <ele>2091.0</ele>
        <time>2015-07-25T12:27:56Z</time>
      </trkpt>
      <trkpt lat="40.444367" lon="-5.275467">
        <ele>2093.0</ele>
        <time>2015-07-25T12:27:57Z</time>
      </trkpt>
      <trkpt lat="40.444383" lon="-5.275317">
        <ele>2098.0</ele>
        <time>2015-07-25T12:27:58Z</time>
      </trkpt>
      <trkpt lat="40.444383" lon="-5.275183">
        <ele>2105.0</ele>
        <time>2015-07-25T12:27:59Z</time>
      </trkpt>
      <trkpt lat="40.444383" lon="-5.275100">
        <ele>2112.0</ele>
        <time>2015-07-25T12:28:00Z</time>
      </trkpt>
      <trkpt lat="40.444367" lon="-5.275017">
        <ele>2115.0</ele>
        <time>2015-07-25T12:28:01Z</time>
      </trkpt>
      <trkpt lat="40.444350" lon="-5.274950">
        <ele>2116.0</ele>
        <time>2015-07-25T12:28:02Z</time>
      </trkpt>
      <trkpt lat="40.444350" lon="-5.274867">
        <ele>2115.0</ele>
        <time>2015-07-25T12:28:03Z</time>
      </trkpt>
      <trkpt lat="40.444383" lon="-5.274800">
        <ele>2115.0</ele>
        <time>2015-07-25T12:28:04Z</time>
      </trkpt>
      <trkpt lat="40.444433" lon="-5.274767">
        <ele>2116.0</ele>
        <time>2015-07-25T12:28:05Z</time>
      </trkpt>
      <trkpt lat="40.444467" lon="-5.274817">
        <ele>2118.0</ele>
        <time>2015-07-25T12:28:06Z</time>
      </trkpt>
      <trkpt lat="40.444500" lon="-5.274900">
        <ele>2120.0</ele>
        <time>2015-07-25T12:28:07Z</time>
      </trkpt>
      <trkpt lat="40.444483" lon="-5.274983">
        <ele>2123.0</ele>
        <time>2015-07-25T12:28:08Z</time>
      </trkpt>
      <trkpt lat="40.444433" lon="-5.275083">
        <ele>2126.0</ele>
        <time>2015-07-25T12:28:09Z</time>
      </trkpt>
      <trkpt lat="40.444383" lon="-5.275167">
        <ele>2128.0</ele>
        <time>2015-07-25T12:28:10Z</time>
      </trkpt>
      <trkpt lat="40.444283" lon="-5.275250">
        <ele>2130.0</ele>
        <time>2015-07-25T12:28:11Z</time>
      </trkpt>
      <trkpt lat="40.444167" lon="-5.275283">
        <ele>2131.0</ele>
        <time>2015-07-25T12:28:12Z</time>
      </trkpt>
      <trkpt lat="40.444033" lon="-5.275267">
        <ele>2132.0</ele>
        <time>2015-07-25T12:28:13Z</time>
      </trkpt>
      <trkpt lat="40.443917" lon="-5.275183">
        <ele>2134.0</ele>
        <time>2015-07-25T12:28:14Z</time>
      </trkpt>
      <trkpt lat="40.443800" lon="-5.275033">
        <ele>2135.0</ele>
        <time>2015-07-25T12:28:15Z</time>
      </trkpt>
      <trkpt lat="40.443733" lon="-5.274867">
        <ele>2137.0</ele>
        <time>2015-07-25T12:28:16Z</time>
      </trkpt>
      <trkpt lat="40.443700" lon="-5.274700">
        <ele>2140.0</ele>
        <time>2015-07-25T12:28:17Z</time>
      </trkpt>
      <trkpt lat="40.443700" lon="-5.274567">
        <ele>2145.0</ele>
        <time>2015-07-25T12:28:18Z</time>
      </trkpt>
      <trkpt lat="40.443717" lon="-5.274467">
        <ele>2148.0</ele>
        <time>2015-07-25T12:28:19Z</time>
      </trkpt>
      <trkpt lat="40.443750" lon="-5.274433">
        <ele>2150.0</ele>
        <time>2015-07-25T12:28:20Z</time>
      </trkpt>
      <trkpt lat="40.443800" lon="-5.274467">
        <ele>2151.0</ele>
        <time>2015-07-25T12:28:21Z</time>
      </trkpt>
      <trkpt lat="40.443833" lon="-5.274533">
        <ele>2152.0</ele>
        <time>2015-07-25T12:28:22Z</time>
      </trkpt>
      <trkpt lat="40.443850" lon="-5.274633">
        <ele>2155.0</ele>
        <time>2015-07-25T12:28:23Z</time>
      </trkpt>
      <trkpt lat="40.443817" lon="-5.274750">
        <ele>2157.0</ele>
        <time>2015-07-25T12:28:24Z</time>
      </trkpt>
      <trkpt lat="40.443733" lon="-5.274833">
        <ele>2158.0</ele>
        <time>2015-07-25T12:28:25Z</time>
      </trkpt>
      <trkpt lat="40.443617" lon="-5.274883">
        <ele>2158.0</ele>
        <time>2015-07-25T12:28:26Z</time>
      </trkpt>
      <trkpt lat="40.443483" lon="-5.274850">
        <ele>2159.0</ele>
        <time>2015-07-25T12:28:27Z</time>
      </trkpt>
      <trkpt lat="40.443350" lon="-5.274783">
        <ele>2160.0</ele>
        <time>2015-07-25T12:28:28Z</time>
      </trkpt>
      <trkpt lat="40.443233" lon="-5.274650">
        <ele>2162.0</ele>
        <time>2015-07-25T12:28:29Z</time>
      </trkpt>
      <trkpt lat="40.443150" lon="-5.274500">
        <ele>2164.0</ele>
        <time>2015-07-25T12:28:30Z</time>
      </trkpt>
      <trkpt lat="40.443117" lon="-5.274317">
        <ele>2165.0</ele>
        <time>2015-07-25T12:28:31Z</time>
      </trkpt>
      <trkpt lat="40.443117" lon="-5.274150">
        <ele>2166.0</ele>
        <time>2015-07-25T12:28:32Z</time>
      </trkpt>
      <trkpt lat="40.443133" lon="-5.274017">
        <ele>2170.0</ele>
        <time>2015-07-25T12:28:33Z</time>
      </trkpt>
      <trkpt lat="40.443150" lon="-5.273917">
        <ele>2175.0</ele>
        <time>2015-07-25T12:28:34Z</time>
      </trkpt>
      <trkpt lat="40.443167" lon="-5.273850">
        <ele>2178.0</ele>
        <time>2015-07-25T12:28:35Z</time>
      </trkpt>
      <trkpt lat="40.443183" lon="-5.273800">
        <ele>2179.0</ele>
        <time>2015-07-25T12:28:36Z</time>
      </trkpt>
      <trkpt lat="40.443233" lon="-5.273767">
        <ele>2178.0</ele>
        <time>2015-07-25T12:28:37Z</time>
      </trkpt>
      <trkpt lat="40.443283" lon="-5.273767">
        <ele>2178.0</ele>
        <time>2015-07-25T12:28:38Z</time>
      </trkpt>
      <trkpt lat="40.443333" lon="-5.273817">
        <ele>2177.0</ele>
        <time>2015-07-25T12:28:39Z</time>
      </trkpt>
      <trkpt lat="40.443367" lon="-5.273900">
        <ele>2177.0</ele>
        <time>2015-07-25T12:28:40Z</time>
      </trkpt>
      <trkpt lat="40.443367" lon="-5.274017">
        <ele>2178.0</ele>
        <time>2015-07-25T12:28:41Z</time>
      </trkpt>
      <trkpt lat="40.443333" lon="-5.274117">
        <ele>2180.0</ele>
        <time>2015-07-25T12:28:42Z</time>
      </trkpt>
      <trkpt lat="40.443283" lon="-5.274217">
        <ele>2181.0</ele>
        <time>2015-07-25T12:28:43Z</time>
      </trkpt>
      <trkpt lat="40.443200" lon="-5.274300">
        <ele>2183.0</ele>
        <time>2015-07-25T12:28:44Z</time>
      </trkpt>
      <trkpt lat="40.443100" lon="-5.274367">
        <ele>2184.0</ele>
        <time>2015-07-25T12:28:45Z</time>
      </trkpt>
      <trkpt lat="40.442983" lon="-5.274383">
        <ele>2185.0</ele>
        <time>2015-07-25T12:28:46Z</time>
      </trkpt>
      <trkpt lat="40.442850" lon="-5.274367">
        <ele>2185.0</ele>
        <time>2015-07-25T12:28:47Z</time>
      </trkpt>
      <trkpt lat="40.442717" lon="-5.274283">
        <ele>2185.0</ele>
        <time>2015-07-25T12:28:48Z</time>
      </trkpt>
      <trkpt lat="40.442583" lon="-5.274167">
        <ele>2186.0</ele>
        <time>2015-07-25T12:28:49Z</time>
      </trkpt>
      <trkpt lat="40.442500" lon="-5.274017">
        <ele>2188.0</ele>
        <time>2015-07-25T12:28:50Z</time>
      </trkpt>
      <trkpt lat="40.442433" lon="-5.273867">
        <ele>2189.0</ele>
        <time>2015-07-25T12:28:51Z</time>
      </trkpt>
      <trkpt lat="40.442417" lon="-5.273733">
        <ele>2190.0</ele>
        <time>2015-07-25T12:28:52Z</time>
      </trkpt>
      <trkpt lat="40.442417" lon="-5.273600">
        <ele>2192.0</ele>
        <time>2015-07-25T12:28:53Z</time>
      </trkpt>
      <trkpt lat="40.442417" lon="-5.273483">
        <ele>2194.0</ele>
        <time>2015-07-25T12:28:54Z</time>
      </trkpt>
      <trkpt lat="40.442450" lon="-5.273400">
        <ele>2195.0</ele>
        <time>2015-07-25T12:28:55Z</time>
      </trkpt>
      <trkpt lat="40.442483" lon="-5.273333">
        <ele>2194.0</ele>
        <time>2015-07-25T12:28:56Z</time>
      </trkpt>
      <trkpt lat="40.442533" lon="-5.273267">
        <ele>2194.0</ele>
        <time>2015-07-25T12:28:57Z</time>
      </trkpt>
      <trkpt lat="40.442567" lon="-5.273200">
        <ele>2194.0</ele>
        <time>2015-07-25T12:28:58Z</time>
      </trkpt>
      <trkpt lat="40.442617" lon="-5.273133">
        <ele>2193.0</ele>
        <time>2015-07-25T12:28:59Z</time>
      </trkpt>
      <trkpt lat="40.442683" lon="-5.273050">
        <ele>2193.0</ele>
        <time>2015-07-25T12:29:00Z</time>
      </trkpt>
      <trkpt lat="40.442750" lon="-5.272983">
        <ele>2194.0</ele>
        <time>2015-07-25T12:29:01Z</time>
      </trkpt>
      <trkpt lat="40.442817" lon="-5.272950">
        <ele>2196.0</ele>
        <time>2015-07-25T12:29:02Z</time>
      </trkpt>
      <trkpt lat="40.442883" lon="-5.272933">
        <ele>2199.0</ele>
        <time>2015-07-25T12:29:03Z</time>
      </trkpt>
      <trkpt lat="40.442950" lon="-5.272917">
        <ele>2201.0</ele>
        <time>2015-07-25T12:29:04Z</time>
      </trkpt>
      <trkpt lat="40.442983" lon="-5.272883">
        <ele>2203.0</ele>
        <time>2015-07-25T12:29:05Z</time>
      </trkpt>
      <trkpt lat="40.443017" lon="-5.272833">
        <ele>2204.0</ele>
        <time>2015-07-25T12:29:06Z</time>
      </trkpt>
      <trkpt lat="40.443050" lon="-5.272767">
        <ele>2206.0</ele>
        <time>2015-07-25T12:29:07Z</time>
      </trkpt>
      <trkpt lat="40.443083" lon="-5.272700">
        <ele>2209.0</ele>
        <time>2015-07-25T12:29:08Z</time>
      </trkpt>
      <trkpt lat="40.443133" lon="-5.272633">
        <ele>2211.0</ele>
        <time>2015-07-25T12:29:09Z</time>
      </trkpt>
      <trkpt lat="40.443183" lon="-5.272583">
        <ele>2212.0</ele>
        <time>2015-07-25T12:29:10Z</time>
      </trkpt>
      <trkpt lat="40.443250" lon="-5.272517">
        <ele>2213.0</ele>
        <time>2015-07-25T12:29:11Z</time>
      </trkpt>
      <trkpt lat="40.443283" lon="-5.272483">
        <ele>2213.0</ele>
        <time>2015-07-25T12:29:12Z</time>
      </trkpt>
      <trkpt lat="40.443317" lon="-5.272467">
        <ele>2212.0</ele>
        <time>2015-07-25T12:29:13Z</time>
      </trkpt>
      <trkpt lat="40.443350" lon="-5.272467">
        <ele>2210.0</ele>
        <time>2015-07-25T12:29:14Z</time>
      </trkpt>
      <trkpt lat="40.443400" lon="-5.272417">
        <ele>2209.0</ele>
        <time>2015-07-25T12:29:15Z</time>
      </trkpt>
      <trkpt lat="40.443450" lon="-5.272350">
        <ele>2208.0</ele>
        <time>2015-07-25T12:29:16Z</time>
      </trkpt>
      <trkpt lat="40.443500" lon="-5.272300">
        <ele>2209.0</ele>
        <time>2015-07-25T12:29:17Z</time>
      </trkpt>
      <trkpt lat="40.443550" lon="-5.272250">
        <ele>2211.0</ele>
        <time>2015-07-25T12:29:18Z</time>
      </trkpt>
      <trkpt lat="40.443583" lon="-5.272233">
        <ele>2211.0</ele>
        <time>2015-07-25T12:29:19Z</time>
      </trkpt>
      <trkpt lat="40.443617" lon="-5.272217">
        <ele>2211.0</ele>
        <time>2015-07-25T12:29:20Z</time>
      </trkpt>
      <trkpt lat="40.443667" lon="-5.272200">
        <ele>2210.0</ele>
        <time>2015-07-25T12:29:21Z</time>
      </trkpt>
      <trkpt lat="40.443733" lon="-5.272183">
        <ele>2211.0</ele>
        <time>2015-07-25T12:29:22Z</time>
      </trkpt>
      <trkpt lat="40.443800" lon="-5.272167">
        <ele>2213.0</ele>
        <time>2015-07-25T12:29:23Z</time>
      </trkpt>
      <trkpt lat="40.443850" lon="-5.272150">
        <ele>2215.0</ele>
        <time>2015-07-25T12:29:24Z</time>
      </trkpt>
      <trkpt lat="40.443883" lon="-5.272150">
        <ele>2217.0</ele>
        <time>2015-07-25T12:29:25Z</time>
      </trkpt>
      <trkpt lat="40.443917" lon="-5.272133">
        <ele>2218.0</ele>
        <time>2015-07-25T12:29:26Z</time>
      </trkpt>
      <trkpt lat="40.443967" lon="-5.272117">
        <ele>2218.0</ele>
        <time>2015-07-25T12:29:27Z</time>
      </trkpt>
      <trkpt lat="40.444033" lon="-5.272100">
        <ele>2218.0</ele>
        <time>2015-07-25T12:29:28Z</time>
      </trkpt>
      <trkpt lat="40.444083" lon="-5.272083">
        <ele>2219.0</ele>
        <time>2015-07-25T12:29:29Z</time>
      </trkpt>
      <trkpt lat="40.444150" lon="-5.272067">
        <ele>2219.0</ele>
        <time>2015-07-25T12:29:30Z</time>
      </trkpt>
      <trkpt lat="40.444200" lon="-5.272067">
        <ele>2220.0</ele>
        <time>2015-07-25T12:29:31Z</time>
      </trkpt>
      <trkpt lat="40.444267" lon="-5.272050">
        <ele>2220.0</ele>
        <time>2015-07-25T12:29:32Z</time>
      </trkpt>
      <trkpt lat="40.444333" lon="-5.272050">
        <ele>2221.0</ele>
        <time>2015-07-25T12:29:33Z</time>
      </trkpt>
      <trkpt lat="40.444400" lon="-5.272017">
        <ele>2222.0</ele>
        <time>2015-07-25T12:29:34Z</time>
      </trkpt>
      <trkpt lat="40.444483" lon="-5.271967">
        <ele>2223.0</ele>
        <time>2015-07-25T12:29:35Z</time>
      </trkpt>
      <trkpt lat="40.444567" lon="-5.271917">
        <ele>2224.0</ele>
        <time>2015-07-25T12:29:36Z</time>
      </trkpt>
      <trkpt lat="40.444633" lon="-5.271867">
        <ele>2226.0</ele>
        <time>2015-07-25T12:29:37Z</time>
      </trkpt>
      <trkpt lat="40.444717" lon="-5.271833">
        <ele>2228.0</ele>
        <time>2015-07-25T12:29:38Z</time>
      </trkpt>
      <trkpt lat="40.444783" lon="-5.271817">
        <ele>2230.0</ele>
        <time>2015-07-25T12:29:39Z</time>
      </trkpt>
      <trkpt lat="40.444833" lon="-5.271817">
        <ele>2232.0</ele>
        <time>2015-07-25T12:29:40Z</time>
      </trkpt>
      <trkpt lat="40.444867" lon="-5.271850">
        <ele>2233.0</ele>
        <time>2015-07-25T12:29:41Z</time>
      </trkpt>
      <trkpt lat="40.444883" lon="-5.271900">
        <ele>2232.0</ele>
        <time>2015-07-25T12:29:42Z</time>
      </trkpt>
      <trkpt lat="40.444867" lon="-5.271967">
        <ele>2231.0</ele>
        <time>2015-07-25T12:29:43Z</time>
      </trkpt>
      <trkpt lat="40.444833" lon="-5.272050">
        <ele>2230.0</ele>
        <time>2015-07-25T12:29:44Z</time>
      </trkpt>
      <trkpt lat="40.444767" lon="-5.272133">
        <ele>2229.0</ele>
        <time>2015-07-25T12:29:45Z</time>
      </trkpt>
      <trkpt lat="40.444667" lon="-5.272183">
        <ele>2228.0</ele>
        <time>2015-07-25T12:29:46Z</time>
      </trkpt>
      <trkpt lat="40.444533" lon="-5.272217">
        <ele>2227.0</ele>
        <time>2015-07-25T12:29:47Z</time>
      </trkpt>
      <trkpt lat="40.444400" lon="-5.272183">
        <ele>2227.0</ele>
        <time>2015-07-25T12:29:48Z</time>
      </trkpt>
      <trkpt lat="40.444267" lon="-5.272133">
        <ele>2227.0</ele>
        <time>2015-07-25T12:29:49Z</time>
      </trkpt>
      <trkpt lat="40.444150" lon="-5.272033">
        <ele>2228.0</ele>
        <time>2015-07-25T12:29:50Z</time>
      </trkpt>
      <trkpt lat="40.444050" lon="-5.271917">
        <ele>2228.0</ele>
        <time>2015-07-25T12:29:51Z</time>
      </trkpt>
      <trkpt lat="40.443967" lon="-5.271783">
        <ele>2227.0</ele>
        <time>2015-07-25T12:29:52Z</time>
      </trkpt>
      <trkpt lat="40.443917" lon="-5.271617">
        <ele>2226.0</ele>
        <time>2015-07-25T12:29:53Z</time>
      </trkpt>
      <trkpt lat="40.443883" lon="-5.271450">
        <ele>2223.0</ele>
        <time>2015-07-25T12:29:54Z</time>
      </trkpt>
      <trkpt lat="40.443867" lon="-5.271250">
        <ele>2222.0</ele>
        <time>2015-07-25T12:29:55Z</time>
      </trkpt>
      <trkpt lat="40.443867" lon="-5.271067">
        <ele>2223.0</ele>
        <time>2015-07-25T12:29:56Z</time>
      </trkpt>
      <trkpt lat="40.443883" lon="-5.270900">
        <ele>2224.0</ele>
        <time>2015-07-25T12:29:57Z</time>
      </trkpt>
      <trkpt lat="40.443917" lon="-5.270750">
        <ele>2227.0</ele>
        <time>2015-07-25T12:29:58Z</time>
      </trkpt>
      <trkpt lat="40.443917" lon="-5.270633">
        <ele>2229.0</ele>
        <time>2015-07-25T12:29:59Z</time>
      </trkpt>
      <trkpt lat="40.443917" lon="-5.270517">
        <ele>2230.0</ele>
        <time>2015-07-25T12:30:00Z</time>
      </trkpt>
      <trkpt lat="40.443917" lon="-5.270383">
        <ele>2230.0</ele>
        <time>2015-07-25T12:30:01Z</time>
      </trkpt>
      <trkpt lat="40.443917" lon="-5.270267">
        <ele>2228.0</ele>
        <time>2015-07-25T12:30:02Z</time>
      </trkpt>
      <trkpt lat="40.443950" lon="-5.270150">
        <ele>2225.0</ele>
        <time>2015-07-25T12:30:03Z</time>
      </trkpt>
      <trkpt lat="40.444000" lon="-5.270033">
        <ele>2222.0</ele>
        <time>2015-07-25T12:30:04Z</time>
      </trkpt>
      <trkpt lat="40.444067" lon="-5.269933">
        <ele>2219.0</ele>
        <time>2015-07-25T12:30:05Z</time>
      </trkpt>
      <trkpt lat="40.444133" lon="-5.269867">
        <ele>2217.0</ele>
        <time>2015-07-25T12:30:06Z</time>
      </trkpt>
      <trkpt lat="40.444200" lon="-5.269817">
        <ele>2218.0</ele>
        <time>2015-07-25T12:30:07Z</time>
      </trkpt>
      <trkpt lat="40.444250" lon="-5.269783">
        <ele>2219.0</ele>
        <time>2015-07-25T12:30:08Z</time>
      </trkpt>
      <trkpt lat="40.444267" lon="-5.269750">
        <ele>2218.0</ele>
        <time>2015-07-25T12:30:09Z</time>
      </trkpt>
      <trkpt lat="40.444300" lon="-5.269683">
        <ele>2216.0</ele>
        <time>2015-07-25T12:30:10Z</time>
      </trkpt>
      <trkpt lat="40.444333" lon="-5.269600">
        <ele>2212.0</ele>
        <time>2015-07-25T12:30:11Z</time>
      </trkpt>
      <trkpt lat="40.444400" lon="-5.269517">
        <ele>2207.0</ele>
        <time>2015-07-25T12:30:12Z</time>
      </trkpt>
      <trkpt lat="40.444467" lon="-5.269433">
        <ele>2203.0</ele>
        <time>2015-07-25T12:30:13Z</time>
      </trkpt>
      <trkpt lat="40.444533" lon="-5.269350">
        <ele>2200.0</ele>
        <time>2015-07-25T12:30:14Z</time>
      </trkpt>
      <trkpt lat="40.444617" lon="-5.269283">
        <ele>2197.0</ele>
        <time>2015-07-25T12:30:15Z</time>
      </trkpt>
      <trkpt lat="40.444683" lon="-5.269250">
        <ele>2195.0</ele>
        <time>2015-07-25T12:30:16Z</time>
      </trkpt>
      <trkpt lat="40.444750" lon="-5.269200">
        <ele>2192.0</ele>
        <time>2015-07-25T12:30:17Z</time>
      </trkpt>
      <trkpt lat="40.444817" lon="-5.269167">
        <ele>2189.0</ele>
        <time>2015-07-25T12:30:18Z</time>
      </trkpt>
      <trkpt lat="40.444883" lon="-5.269133">
        <ele>2186.0</ele>
        <time>2015-07-25T12:30:19Z</time>
      </trkpt>
      <trkpt lat="40.444967" lon="-5.269100">
        <ele>2182.0</ele>
        <time>2015-07-25T12:30:20Z</time>
      </trkpt>
      <trkpt lat="40.445033" lon="-5.269083">
        <ele>2178.0</ele>
        <time>2015-07-25T12:30:21Z</time>
      </trkpt>
      <trkpt lat="40.445133" lon="-5.269067">
        <ele>2174.0</ele>
        <time>2015-07-25T12:30:22Z</time>
      </trkpt>
      <trkpt lat="40.445217" lon="-5.269100">
        <ele>2171.0</ele>
        <time>2015-07-25T12:30:23Z</time>
      </trkpt>
      <trkpt lat="40.445283" lon="-5.269150">
        <ele>2168.0</ele>
        <time>2015-07-25T12:30:24Z</time>
      </trkpt>
      <trkpt lat="40.445367" lon="-5.269200">
        <ele>2167.0</ele>
        <time>2015-07-25T12:30:25Z</time>
      </trkpt>
      <trkpt lat="40.445417" lon="-5.269250">
        <ele>2166.0</ele>
        <time>2015-07-25T12:30:26Z</time>
      </trkpt>
      <trkpt lat="40.445483" lon="-5.269283">
        <ele>2164.0</ele>
        <time>2015-07-25T12:30:27Z</time>
      </trkpt>
      <trkpt lat="40.445550" lon="-5.269300">
        <ele>2162.0</ele>
        <time>2015-07-25T12:30:28Z</time>
      </trkpt>
      <trkpt lat="40.445633" lon="-5.269300">
        <ele>2159.0</ele>
        <time>2015-07-25T12:30:29Z</time>
      </trkpt>
      <trkpt lat="40.445717" lon="-5.269300">
        <ele>2156.0</ele>
        <time>2015-07-25T12:30:30Z</time>
      </trkpt>
      <trkpt lat="40.445800" lon="-5.269300">
        <ele>2154.0</ele>
        <time>2015-07-25T12:30:31Z</time>
      </trkpt>
      <trkpt lat="40.445867" lon="-5.269283">
        <ele>2151.0</ele>
        <time>2015-07-25T12:30:32Z</time>
      </trkpt>
      <trkpt lat="40.445933" lon="-5.269267">
        <ele>2148.0</ele>
        <time>2015-07-25T12:30:33Z</time>
      </trkpt>
      <trkpt lat="40.446000" lon="-5.269267">
        <ele>2144.0</ele>
        <time>2015-07-25T12:30:34Z</time>
      </trkpt>
      <trkpt lat="40.446100" lon="-5.269267">
        <ele>2141.0</ele>
        <time>2015-07-25T12:30:35Z</time>
      </trkpt>
      <trkpt lat="40.446200" lon="-5.269300">
        <ele>2139.0</ele>
        <time>2015-07-25T12:30:36Z</time>
      </trkpt>
      <trkpt lat="40.446300" lon="-5.269333">
        <ele>2140.0</ele>
        <time>2015-07-25T12:30:37Z</time>
      </trkpt>
      <trkpt lat="40.446383" lon="-5.269350">
        <ele>2141.0</ele>
        <time>2015-07-25T12:30:38Z</time>
      </trkpt>
      <trkpt lat="40.446467" lon="-5.269367">
        <ele>2142.0</ele>
        <time>2015-07-25T12:30:39Z</time>
      </trkpt>
      <trkpt lat="40.446533" lon="-5.269367">
        <ele>2142.0</ele>
        <time>2015-07-25T12:30:40Z</time>
      </trkpt>
      <trkpt lat="40.446617" lon="-5.269400">
        <ele>2141.0</ele>
        <time>2015-07-25T12:30:41Z</time>
      </trkpt>
      <trkpt lat="40.446717" lon="-5.269450">
        <ele>2141.0</ele>
        <time>2015-07-25T12:30:42Z</time>
      </trkpt>
      <trkpt lat="40.446800" lon="-5.269500">
        <ele>2140.0</ele>
        <time>2015-07-25T12:30:43Z</time>
      </trkpt>
      <trkpt lat="40.446883" lon="-5.269550">
        <ele>2141.0</ele>
        <time>2015-07-25T12:30:44Z</time>
      </trkpt>
      <trkpt lat="40.446983" lon="-5.269550">
        <ele>2142.0</ele>
        <time>2015-07-25T12:30:45Z</time>
      </trkpt>
      <trkpt lat="40.447067" lon="-5.269550">
        <ele>2143.0</ele>
        <time>2015-07-25T12:30:46Z</time>
      </trkpt>
      <trkpt lat="40.447133" lon="-5.269517">
        <ele>2142.0</ele>
        <time>2015-07-25T12:30:47Z</time>
      </trkpt>
      <trkpt lat="40.447200" lon="-5.269500">
        <ele>2141.0</ele>
        <time>2015-07-25T12:30:48Z</time>
      </trkpt>
      <trkpt lat="40.447283" lon="-5.269483">
        <ele>2139.0</ele>
        <time>2015-07-25T12:30:49Z</time>
      </trkpt>
      <trkpt lat="40.447367" lon="-5.269483">
        <ele>2137.0</ele>
        <time>2015-07-25T12:30:50Z</time>
      </trkpt>
      <trkpt lat="40.447450" lon="-5.269467">
        <ele>2136.0</ele>
        <time>2015-07-25T12:30:51Z</time>
      </trkpt>
      <trkpt lat="40.447533" lon="-5.269433">
        <ele>2136.0</ele>
        <time>2015-07-25T12:30:52Z</time>
      </trkpt>
      <trkpt lat="40.447617" lon="-5.269400">
        <ele>2135.0</ele>
        <time>2015-07-25T12:30:53Z</time>
      </trkpt>
      <trkpt lat="40.447683" lon="-5.269350">
        <ele>2135.0</ele>
        <time>2015-07-25T12:30:54Z</time>
      </trkpt>
      <trkpt lat="40.447750" lon="-5.269300">
        <ele>2135.0</ele>
        <time>2015-07-25T12:30:55Z</time>
      </trkpt>
      <trkpt lat="40.447817" lon="-5.269267">
        <ele>2134.0</ele>
        <time>2015-07-25T12:30:56Z</time>
      </trkpt>
      <trkpt lat="40.447900" lon="-5.269233">
        <ele>2133.0</ele>
        <time>2015-07-25T12:30:57Z</time>
      </trkpt>
      <trkpt lat="40.447983" lon="-5.269200">
        <ele>2132.0</ele>
        <time>2015-07-25T12:30:58Z</time>
      </trkpt>
      <trkpt lat="40.448050" lon="-5.269150">
        <ele>2131.0</ele>
        <time>2015-07-25T12:30:59Z</time>
      </trkpt>
      <trkpt lat="40.448133" lon="-5.269100">
        <ele>2130.0</ele>
        <time>2015-07-25T12:31:00Z</time>
      </trkpt>
      <trkpt lat="40.448200" lon="-5.269067">
        <ele>2129.0</ele>
        <time>2015-07-25T12:31:01Z</time>
      </trkpt>
      <trkpt lat="40.448267" lon="-5.269017">
        <ele>2129.0</ele>
        <time>2015-07-25T12:31:02Z</time>
      </trkpt>
      <trkpt lat="40.448317" lon="-5.268950">
        <ele>2130.0</ele>
        <time>2015-07-25T12:31:03Z</time>
      </trkpt>
      <trkpt lat="40.448367" lon="-5.268917">
        <ele>2130.0</ele>
        <time>2015-07-25T12:31:04Z</time>
      </trkpt>
      <trkpt lat="40.448417" lon="-5.268867">
        <ele>2129.0</ele>
        <time>2015-07-25T12:31:05Z</time>
      </trkpt>
      <trkpt lat="40.448467" lon="-5.268800">
        <ele>2128.0</ele>
        <time>2015-07-25T12:31:06Z</time>
      </trkpt>
      <trkpt lat="40.448517" lon="-5.268733">
        <ele>2125.0</ele>
        <time>2015-07-25T12:31:07Z</time>
      </trkpt>
      <trkpt lat="40.448567" lon="-5.268650">
        <ele>2123.0</ele>
        <time>2015-07-25T12:31:08Z</time>
      </trkpt>
      <trkpt lat="40.448633" lon="-5.268567">
        <ele>2121.0</ele>
        <time>2015-07-25T12:31:09Z</time>
      </trkpt>
      <trkpt lat="40.448700" lon="-5.268483">
        <ele>2120.0</ele>
        <time>2015-07-25T12:31:10Z</time>
      </trkpt>
      <trkpt lat="40.448750" lon="-5.268400">
        <ele>2119.0</ele>
        <time>2015-07-25T12:31:11Z</time>
      </trkpt>
      <trkpt lat="40.448817" lon="-5.268300">
        <ele>2118.0</ele>
        <time>2015-07-25T12:31:12Z</time>
      </trkpt>
      <trkpt lat="40.448883" lon="-5.268217">
        <ele>2117.0</ele>
        <time>2015-07-25T12:31:13Z</time>
      </trkpt>
      <trkpt lat="40.448950" lon="-5.268133">
        <ele>2116.0</ele>
        <time>2015-07-25T12:31:14Z</time>
      </trkpt>
      <trkpt lat="40.449000" lon="-5.268050">
        <ele>2115.0</ele>
        <time>2015-07-25T12:31:15Z</time>
      </trkpt>
      <trkpt lat="40.449067" lon="-5.267950">
        <ele>2115.0</ele>
        <time>2015-07-25T12:31:16Z</time>
      </trkpt>
      <trkpt lat="40.449117" lon="-5.267850">
        <ele>2114.0</ele>
        <time>2015-07-25T12:31:17Z</time>
      </trkpt>
      <trkpt lat="40.449183" lon="-5.267750">
        <ele>2115.0</ele>
        <time>2015-07-25T12:31:18Z</time>
      </trkpt>
      <trkpt lat="40.449250" lon="-5.267667">
        <ele>2115.0</ele>
        <time>2015-07-25T12:31:19Z</time>
      </trkpt>
      <trkpt lat="40.449317" lon="-5.267583">
        <ele>2116.0</ele>
        <time>2015-07-25T12:31:20Z</time>
      </trkpt>
      <trkpt lat="40.449367" lon="-5.267500">
        <ele>2116.0</ele>
        <time>2015-07-25T12:31:21Z</time>
      </trkpt>
      <trkpt lat="40.449433" lon="-5.267433">
        <ele>2116.0</ele>
        <time>2015-07-25T12:31:22Z</time>
      </trkpt>
      <trkpt lat="40.449483" lon="-5.267350">
        <ele>2115.0</ele>
        <time>2015-07-25T12:31:23Z</time>
      </trkpt>
      <trkpt lat="40.449550" lon="-5.267267">
        <ele>2114.0</ele>
        <time>2015-07-25T12:31:24Z</time>
      </trkpt>
      <trkpt lat="40.449600" lon="-5.267183">
        <ele>2113.0</ele>
        <time>2015-07-25T12:31:25Z</time>
      </trkpt>
      <trkpt lat="40.449667" lon="-5.267117">
        <ele>2112.0</ele>
        <time>2015-07-25T12:31:26Z</time>
      </trkpt>
      <trkpt lat="40.449733" lon="-5.267033">
        <ele>2111.0</ele>
        <time>2015-07-25T12:31:27Z</time>
      </trkpt>
      <trkpt lat="40.449783" lon="-5.266950">
        <ele>2111.0</ele>
        <time>2015-07-25T12:31:28Z</time>
      </trkpt>
      <trkpt lat="40.449833" lon="-5.266883">
        <ele>2110.0</ele>
        <time>2015-07-25T12:31:29Z</time>
      </trkpt>
      <trkpt lat="40.449900" lon="-5.266783">
        <ele>2108.0</ele>
        <time>2015-07-25T12:31:30Z</time>
      </trkpt>
      <trkpt lat="40.449950" lon="-5.266700">
        <ele>2106.0</ele>
        <time>2015-07-25T12:31:31Z</time>
      </trkpt>
      <trkpt lat="40.450017" lon="-5.266600">
        <ele>2105.0</ele>
        <time>2015-07-25T12:31:32Z</time>
      </trkpt>
      <trkpt lat="40.450083" lon="-5.266500">
        <ele>2103.0</ele>
        <time>2015-07-25T12:31:33Z</time>
      </trkpt>
      <trkpt lat="40.450133" lon="-5.266400">
        <ele>2102.0</ele>
        <time>2015-07-25T12:31:34Z</time>
      </trkpt>
      <trkpt lat="40.450183" lon="-5.266300">
        <ele>2100.0</ele>
        <time>2015-07-25T12:31:35Z</time>
      </trkpt>
      <trkpt lat="40.450233" lon="-5.266200">
        <ele>2098.0</ele>
        <time>2015-07-25T12:31:36Z</time>
      </trkpt>
      <trkpt lat="40.450300" lon="-5.266100">
        <ele>2096.0</ele>
        <time>2015-07-25T12:31:37Z</time>
      </trkpt>
      <trkpt lat="40.450350" lon="-5.265983">
        <ele>2094.0</ele>
        <time>2015-07-25T12:31:38Z</time>
      </trkpt>
      <trkpt lat="40.450400" lon="-5.265883">
        <ele>2092.0</ele>
        <time>2015-07-25T12:31:39Z</time>
      </trkpt>
      <trkpt lat="40.450467" lon="-5.265783">
        <ele>2090.0</ele>
        <time>2015-07-25T12:31:40Z</time>
      </trkpt>
      <trkpt lat="40.450517" lon="-5.265667">
        <ele>2088.0</ele>
        <time>2015-07-25T12:31:41Z</time>
      </trkpt>
      <trkpt lat="40.450567" lon="-5.265567">
        <ele>2086.0</ele>
        <time>2015-07-25T12:31:42Z</time>
      </trkpt>
      <trkpt lat="40.450617" lon="-5.265467">
        <ele>2084.0</ele>
        <time>2015-07-25T12:31:43Z</time>
      </trkpt>
      <trkpt lat="40.450683" lon="-5.265367">
        <ele>2082.0</ele>
        <time>2015-07-25T12:31:44Z</time>
      </trkpt>
      <trkpt lat="40.450767" lon="-5.265283">
        <ele>2080.0</ele>
        <time>2015-07-25T12:31:45Z</time>
      </trkpt>
      <trkpt lat="40.450850" lon="-5.265200">
        <ele>2079.0</ele>
        <time>2015-07-25T12:31:46Z</time>
      </trkpt>
      <trkpt lat="40.450933" lon="-5.265117">
        <ele>2080.0</ele>
        <time>2015-07-25T12:31:47Z</time>
      </trkpt>
      <trkpt lat="40.451000" lon="-5.265050">
        <ele>2080.0</ele>
        <time>2015-07-25T12:31:48Z</time>
      </trkpt>
      <trkpt lat="40.451067" lon="-5.264967">
        <ele>2080.0</ele>
        <time>2015-07-25T12:31:49Z</time>
      </trkpt>
      <trkpt lat="40.451133" lon="-5.264883">
        <ele>2079.0</ele>
        <time>2015-07-25T12:31:50Z</time>
      </trkpt>
      <trkpt lat="40.451200" lon="-5.264800">
        <ele>2077.0</ele>
        <time>2015-07-25T12:31:51Z</time>
      </trkpt>
      <trkpt lat="40.451283" lon="-5.264733">
        <ele>2075.0</ele>
        <time>2015-07-25T12:31:52Z</time>
      </trkpt>
      <trkpt lat="40.451350" lon="-5.264650">
        <ele>2074.0</ele>
        <time>2015-07-25T12:31:53Z</time>
      </trkpt>
      <trkpt lat="40.451417" lon="-5.264550">
        <ele>2072.0</ele>
        <time>2015-07-25T12:31:54Z</time>
      </trkpt>
      <trkpt lat="40.451483" lon="-5.264450">
        <ele>2070.0</ele>
        <time>2015-07-25T12:31:55Z</time>
      </trkpt>
      <trkpt lat="40.451533" lon="-5.264333">
        <ele>2068.0</ele>
        <time>2015-07-25T12:31:56Z</time>
      </trkpt>
      <trkpt lat="40.451600" lon="-5.264233">
        <ele>2067.0</ele>
        <time>2015-07-25T12:31:57Z</time>
      </trkpt>
      <trkpt lat="40.451667" lon="-5.264117">
        <ele>2066.0</ele>
        <time>2015-07-25T12:31:58Z</time>
      </trkpt>
      <trkpt lat="40.451733" lon="-5.264000">
        <ele>2065.0</ele>
        <time>2015-07-25T12:31:59Z</time>
      </trkpt>
      <trkpt lat="40.451800" lon="-5.263883">
        <ele>2065.0</ele>
        <time>2015-07-25T12:32:00Z</time>
      </trkpt>
      <trkpt lat="40.451883" lon="-5.263783">
        <ele>2066.0</ele>
        <time>2015-07-25T12:32:01Z</time>
      </trkpt>
      <trkpt lat="40.451950" lon="-5.263683">
        <ele>2067.0</ele>
        <time>2015-07-25T12:32:02Z</time>
      </trkpt>
      <trkpt lat="40.452017" lon="-5.263583">
        <ele>2067.0</ele>
        <time>2015-07-25T12:32:03Z</time>
      </trkpt>
      <trkpt lat="40.452083" lon="-5.263483">
        <ele>2067.0</ele>
        <time>2015-07-25T12:32:04Z</time>
      </trkpt>
      <trkpt lat="40.452150" lon="-5.263367">
        <ele>2066.0</ele>
        <time>2015-07-25T12:32:05Z</time>
      </trkpt>
      <trkpt lat="40.452233" lon="-5.263250">
        <ele>2065.0</ele>
        <time>2015-07-25T12:32:06Z</time>
      </trkpt>
      <trkpt lat="40.452300" lon="-5.263117">
        <ele>2064.0</ele>
        <time>2015-07-25T12:32:07Z</time>
      </trkpt>
      <trkpt lat="40.452367" lon="-5.263000">
        <ele>2064.0</ele>
        <time>2015-07-25T12:32:08Z</time>
      </trkpt>
      <trkpt lat="40.452433" lon="-5.262883">
        <ele>2064.0</ele>
        <time>2015-07-25T12:32:09Z</time>
      </trkpt>
      <trkpt lat="40.452500" lon="-5.262783">
        <ele>2064.0</ele>
        <time>2015-07-25T12:32:10Z</time>
      </trkpt>
      <trkpt lat="40.452567" lon="-5.262683">
        <ele>2064.0</ele>
        <time>2015-07-25T12:32:11Z</time>
      </trkpt>
      <trkpt lat="40.452633" lon="-5.262583">
        <ele>2062.0</ele>
        <time>2015-07-25T12:32:12Z</time>
      </trkpt>
      <trkpt lat="40.452717" lon="-5.262500">
        <ele>2060.0</ele>
        <time>2015-07-25T12:32:13Z</time>
      </trkpt>
      <trkpt lat="40.452783" lon="-5.262400">
        <ele>2057.0</ele>
        <time>2015-07-25T12:32:14Z</time>
      </trkpt>
      <trkpt lat="40.452850" lon="-5.262283">
        <ele>2055.0</ele>
        <time>2015-07-25T12:32:15Z</time>
      </trkpt>
      <trkpt lat="40.452933" lon="-5.262150">
        <ele>2052.0</ele>
        <time>2015-07-25T12:32:16Z</time>
      </trkpt>
      <trkpt lat="40.453017" lon="-5.262017">
        <ele>2050.0</ele>
        <time>2015-07-25T12:32:17Z</time>
      </trkpt>
      <trkpt lat="40.453083" lon="-5.261883">
        <ele>2048.0</ele>
        <time>2015-07-25T12:32:18Z</time>
      </trkpt>
      <trkpt lat="40.453183" lon="-5.261767">
        <ele>2047.0</ele>
        <time>2015-07-25T12:32:19Z</time>
      </trkpt>
      <trkpt lat="40.453267" lon="-5.261650">
        <ele>2046.0</ele>
        <time>2015-07-25T12:32:20Z</time>
      </trkpt>
      <trkpt lat="40.453350" lon="-5.261533">
        <ele>2044.0</ele>
        <time>2015-07-25T12:32:21Z</time>
      </trkpt>
      <trkpt lat="40.453450" lon="-5.261433">
        <ele>2043.0</ele>
        <time>2015-07-25T12:32:22Z</time>
      </trkpt>
      <trkpt lat="40.453550" lon="-5.261317">
        <ele>2042.0</ele>
        <time>2015-07-25T12:32:23Z</time>
      </trkpt>
      <trkpt lat="40.453650" lon="-5.261217">
        <ele>2042.0</ele>
        <time>2015-07-25T12:32:24Z</time>
      </trkpt>
      <trkpt lat="40.453750" lon="-5.261100">
        <ele>2043.0</ele>
        <time>2015-07-25T12:32:25Z</time>
      </trkpt>
      <trkpt lat="40.453833" lon="-5.260983">
        <ele>2044.0</ele>
        <time>2015-07-25T12:32:26Z</time>
      </trkpt>
      <trkpt lat="40.453933" lon="-5.260867">
        <ele>2046.0</ele>
        <time>2015-07-25T12:32:27Z</time>
      </trkpt>
      <trkpt lat="40.454017" lon="-5.260767">
        <ele>2046.0</ele>
        <time>2015-07-25T12:32:28Z</time>
      </trkpt>
      <trkpt lat="40.454117" lon="-5.260683">
        <ele>2047.0</ele>
        <time>2015-07-25T12:32:29Z</time>
      </trkpt>
      <trkpt lat="40.454200" lon="-5.260633">
        <ele>2046.0</ele>
        <time>2015-07-25T12:32:30Z</time>
      </trkpt>
      <trkpt lat="40.454300" lon="-5.260600">
        <ele>2045.0</ele>
        <time>2015-07-25T12:32:31Z</time>
      </trkpt>
      <trkpt lat="40.454383" lon="-5.260617">
        <ele>2045.0</ele>
        <time>2015-07-25T12:32:32Z</time>
      </trkpt>
      <trkpt lat="40.454450" lon="-5.260667">
        <ele>2044.0</ele>
        <time>2015-07-25T12:32:33Z</time>
      </trkpt>
      <trkpt lat="40.454483" lon="-5.260733">
        <ele>2044.0</ele>
        <time>2015-07-25T12:32:34Z</time>
      </trkpt>
      <trkpt lat="40.454483" lon="-5.260817">
        <ele>2044.0</ele>
        <time>2015-07-25T12:32:35Z</time>
      </trkpt>
      <trkpt lat="40.454467" lon="-5.260883">
        <ele>2044.0</ele>
        <time>2015-07-25T12:32:36Z</time>
      </trkpt>
      <trkpt lat="40.454417" lon="-5.260933">
        <ele>2045.0</ele>
        <time>2015-07-25T12:32:37Z</time>
      </trkpt>
      <trkpt lat="40.454333" lon="-5.260950">
        <ele>2046.0</ele>
        <time>2015-07-25T12:32:38Z</time>
      </trkpt>
      <trkpt lat="40.454233" lon="-5.260950">
        <ele>2046.0</ele>
        <time>2015-07-25T12:32:39Z</time>
      </trkpt>
      <trkpt lat="40.454133" lon="-5.260900">
        <ele>2046.0</ele>
        <time>2015-07-25T12:32:40Z</time>
      </trkpt>
      <trkpt lat="40.454033" lon="-5.260800">
        <ele>2046.0</ele>
        <time>2015-07-25T12:32:41Z</time>
      </trkpt>
      <trkpt lat="40.453983" lon="-5.260650">
        <ele>2045.0</ele>
        <time>2015-07-25T12:32:42Z</time>
      </trkpt>
      <trkpt lat="40.453950" lon="-5.260450">
        <ele>2044.0</ele>
        <time>2015-07-25T12:32:43Z</time>
      </trkpt>
      <trkpt lat="40.453950" lon="-5.260250">
        <ele>2044.0</ele>
        <time>2015-07-25T12:32:44Z</time>
      </trkpt>
      <trkpt lat="40.453983" lon="-5.260050">
        <ele>2046.0</ele>
        <time>2015-07-25T12:32:45Z</time>
      </trkpt>
      <trkpt lat="40.454017" lon="-5.259883">
        <ele>2049.0</ele>
        <time>2015-07-25T12:32:46Z</time>
      </trkpt>
      <trkpt lat="40.454050" lon="-5.259750">
        <ele>2050.0</ele>
        <time>2015-07-25T12:32:47Z</time>
      </trkpt>
      <trkpt lat="40.454083" lon="-5.259617">
        <ele>2049.0</ele>
        <time>2015-07-25T12:32:48Z</time>
      </trkpt>
      <trkpt lat="40.454133" lon="-5.259483">
        <ele>2048.0</ele>
        <time>2015-07-25T12:32:49Z</time>
      </trkpt>
      <trkpt lat="40.454200" lon="-5.259350">
        <ele>2045.0</ele>
        <time>2015-07-25T12:32:50Z</time>
      </trkpt>
      <trkpt lat="40.454283" lon="-5.259233">
        <ele>2042.0</ele>
        <time>2015-07-25T12:32:51Z</time>
      </trkpt>
      <trkpt lat="40.454383" lon="-5.259133">
        <ele>2040.0</ele>
        <time>2015-07-25T12:32:52Z</time>
      </trkpt>
      <trkpt lat="40.454483" lon="-5.259050">
        <ele>2038.0</ele>
        <time>2015-07-25T12:32:53Z</time>
      </trkpt>
      <trkpt lat="40.454583" lon="-5.258967">
        <ele>2037.0</ele>
        <time>2015-07-25T12:32:54Z</time>
      </trkpt>
      <trkpt lat="40.454683" lon="-5.258867">
        <ele>2037.0</ele>
        <time>2015-07-25T12:32:55Z</time>
      </trkpt>
      <trkpt lat="40.454767" lon="-5.258767">
        <ele>2036.0</ele>
        <time>2015-07-25T12:32:56Z</time>
      </trkpt>
      <trkpt lat="40.454850" lon="-5.258650">
        <ele>2035.0</ele>
        <time>2015-07-25T12:32:57Z</time>
      </trkpt>
      <trkpt lat="40.454950" lon="-5.258550">
        <ele>2034.0</ele>
        <time>2015-07-25T12:32:58Z</time>
      </trkpt>
      <trkpt lat="40.455033" lon="-5.258450">
        <ele>2033.0</ele>
        <time>2015-07-25T12:32:59Z</time>
      </trkpt>
      <trkpt lat="40.455133" lon="-5.258367">
        <ele>2033.0</ele>
        <time>2015-07-25T12:33:00Z</time>
      </trkpt>
      <trkpt lat="40.455233" lon="-5.258267">
        <ele>2033.0</ele>
        <time>2015-07-25T12:33:01Z</time>
      </trkpt>
      <trkpt lat="40.455317" lon="-5.258167">
        <ele>2034.0</ele>
        <time>2015-07-25T12:33:02Z</time>
      </trkpt>
      <trkpt lat="40.455400" lon="-5.258083">
        <ele>2034.0</ele>
        <time>2015-07-25T12:33:03Z</time>
      </trkpt>
      <trkpt lat="40.455500" lon="-5.258000">
        <ele>2032.0</ele>
        <time>2015-07-25T12:33:04Z</time>
      </trkpt>
      <trkpt lat="40.455600" lon="-5.257900">
        <ele>2030.0</ele>
        <time>2015-07-25T12:33:05Z</time>
      </trkpt>
      <trkpt lat="40.455717" lon="-5.257783">
        <ele>2028.0</ele>
        <time>2015-07-25T12:33:06Z</time>
      </trkpt>
      <trkpt lat="40.455833" lon="-5.257667">
        <ele>2028.0</ele>
        <time>2015-07-25T12:33:07Z</time>
      </trkpt>
      <trkpt lat="40.455933" lon="-5.257550">
        <ele>2030.0</ele>
        <time>2015-07-25T12:33:08Z</time>
      </trkpt>
      <trkpt lat="40.456033" lon="-5.257417">
        <ele>2031.0</ele>
        <time>2015-07-25T12:33:09Z</time>
      </trkpt>
      <trkpt lat="40.456150" lon="-5.257283">
        <ele>2033.0</ele>
        <time>2015-07-25T12:33:10Z</time>
      </trkpt>
      <trkpt lat="40.456250" lon="-5.257167">
        <ele>2036.0</ele>
        <time>2015-07-25T12:33:11Z</time>
      </trkpt>
      <trkpt lat="40.456333" lon="-5.257067">
        <ele>2039.0</ele>
        <time>2015-07-25T12:33:12Z</time>
      </trkpt>
      <trkpt lat="40.456417" lon="-5.257017">
        <ele>2040.0</ele>
        <time>2015-07-25T12:33:13Z</time>
      </trkpt>
      <trkpt lat="40.456483" lon="-5.257017">
        <ele>2040.0</ele>
        <time>2015-07-25T12:33:14Z</time>
      </trkpt>
      <trkpt lat="40.456533" lon="-5.257050">
        <ele>2038.0</ele>
        <time>2015-07-25T12:33:15Z</time>
      </trkpt>
      <trkpt lat="40.456533" lon="-5.257133">
        <ele>2036.0</ele>
        <time>2015-07-25T12:33:16Z</time>
      </trkpt>
      <trkpt lat="40.456500" lon="-5.257217">
        <ele>2034.0</ele>
        <time>2015-07-25T12:33:17Z</time>
      </trkpt>
      <trkpt lat="40.456417" lon="-5.257300">
        <ele>2033.0</ele>
        <time>2015-07-25T12:33:18Z</time>
      </trkpt>
      <trkpt lat="40.456300" lon="-5.257317">
        <ele>2031.0</ele>
        <time>2015-07-25T12:33:19Z</time>
      </trkpt>
      <trkpt lat="40.456150" lon="-5.257267">
        <ele>2028.0</ele>
        <time>2015-07-25T12:33:20Z</time>
      </trkpt>
      <trkpt lat="40.456017" lon="-5.257133">
        <ele>2028.0</ele>
        <time>2015-07-25T12:33:21Z</time>
      </trkpt>
      <trkpt lat="40.455917" lon="-5.256967">
        <ele>2029.0</ele>
        <time>2015-07-25T12:33:22Z</time>
      </trkpt>
      <trkpt lat="40.455850" lon="-5.256800">
        <ele>2032.0</ele>
        <time>2015-07-25T12:33:23Z</time>
      </trkpt>
      <trkpt lat="40.455833" lon="-5.256617">
        <ele>2033.0</ele>
        <time>2015-07-25T12:33:24Z</time>
      </trkpt>
      <trkpt lat="40.455850" lon="-5.256450">
        <ele>2034.0</ele>
        <time>2015-07-25T12:33:25Z</time>
      </trkpt>
      <trkpt lat="40.455883" lon="-5.256283">
        <ele>2033.0</ele>
        <time>2015-07-25T12:33:26Z</time>
      </trkpt>
      <trkpt lat="40.455933" lon="-5.256167">
        <ele>2033.0</ele>
        <time>2015-07-25T12:33:27Z</time>
      </trkpt>
      <trkpt lat="40.455983" lon="-5.256083">
        <ele>2034.0</ele>
        <time>2015-07-25T12:33:28Z</time>
      </trkpt>
      <trkpt lat="40.456017" lon="-5.256000">
        <ele>2034.0</ele>
        <time>2015-07-25T12:33:29Z</time>
      </trkpt>
      <trkpt lat="40.456067" lon="-5.255950">
        <ele>2035.0</ele>
        <time>2015-07-25T12:33:30Z</time>
      </trkpt>
      <trkpt lat="40.456117" lon="-5.255883">
        <ele>2034.0</ele>
        <time>2015-07-25T12:33:31Z</time>
      </trkpt>
      <trkpt lat="40.456183" lon="-5.255817">
        <ele>2033.0</ele>
        <time>2015-07-25T12:33:32Z</time>
      </trkpt>
      <trkpt lat="40.456233" lon="-5.255750">
        <ele>2032.0</ele>
        <time>2015-07-25T12:33:33Z</time>
      </trkpt>
      <trkpt lat="40.456300" lon="-5.255683">
        <ele>2030.0</ele>
        <time>2015-07-25T12:33:34Z</time>
      </trkpt>
      <trkpt lat="40.456383" lon="-5.255633">
        <ele>2029.0</ele>
        <time>2015-07-25T12:33:35Z</time>
      </trkpt>
      <trkpt lat="40.456467" lon="-5.255600">
        <ele>2029.0</ele>
        <time>2015-07-25T12:33:36Z</time>
      </trkpt>
      <trkpt lat="40.456550" lon="-5.255567">
        <ele>2030.0</ele>
        <time>2015-07-25T12:33:37Z</time>
      </trkpt>
      <trkpt lat="40.456633" lon="-5.255517">
        <ele>2031.0</ele>
        <time>2015-07-25T12:33:38Z</time>
      </trkpt>
      <trkpt lat="40.456700" lon="-5.255467">
        <ele>2033.0</ele>
        <time>2015-07-25T12:33:39Z</time>
      </trkpt>
      <trkpt lat="40.456783" lon="-5.255417">
        <ele>2036.0</ele>
        <time>2015-07-25T12:33:40Z</time>
      </trkpt>
      <trkpt lat="40.456833" lon="-5.255383">
        <ele>2039.0</ele>
        <time>2015-07-25T12:33:41Z</time>
      </trkpt>
      <trkpt lat="40.456900" lon="-5.255333">
        <ele>2042.0</ele>
        <time>2015-07-25T12:33:42Z</time>
      </trkpt>
      <trkpt lat="40.456950" lon="-5.255317">
        <ele>2045.0</ele>
        <time>2015-07-25T12:33:43Z</time>
      </trkpt>
      <trkpt lat="40.456983" lon="-5.255300">
        <ele>2047.0</ele>
        <time>2015-07-25T12:33:44Z</time>
      </trkpt>
      <trkpt lat="40.457000" lon="-5.255350">
        <ele>2047.0</ele>
        <time>2015-07-25T12:33:45Z</time>
      </trkpt>
      <trkpt lat="40.457000" lon="-5.255433">
        <ele>2047.0</ele>
        <time>2015-07-25T12:33:46Z</time>
      </trkpt>
      <trkpt lat="40.456950" lon="-5.255517">
        <ele>2048.0</ele>
        <time>2015-07-25T12:33:47Z</time>
      </trkpt>
      <trkpt lat="40.456850" lon="-5.255583">
        <ele>2050.0</ele>
        <time>2015-07-25T12:33:48Z</time>
      </trkpt>
      <trkpt lat="40.456717" lon="-5.255617">
        <ele>2053.0</ele>
        <time>2015-07-25T12:33:49Z</time>
      </trkpt>
      <trkpt lat="40.456583" lon="-5.255567">
        <ele>2055.0</ele>
        <time>2015-07-25T12:33:50Z</time>
      </trkpt>
      <trkpt lat="40.456467" lon="-5.255467">
        <ele>2056.0</ele>
        <time>2015-07-25T12:33:51Z</time>
      </trkpt>
      <trkpt lat="40.456367" lon="-5.255317">
        <ele>2056.0</ele>
        <time>2015-07-25T12:33:52Z</time>
      </trkpt>
      <trkpt lat="40.456300" lon="-5.255133">
        <ele>2056.0</ele>
        <time>2015-07-25T12:33:53Z</time>
      </trkpt>
      <trkpt lat="40.456267" lon="-5.254967">
        <ele>2057.0</ele>
        <time>2015-07-25T12:33:54Z</time>
      </trkpt>
      <trkpt lat="40.456267" lon="-5.254783">
        <ele>2058.0</ele>
        <time>2015-07-25T12:33:55Z</time>
      </trkpt>
      <trkpt lat="40.456283" lon="-5.254633">
        <ele>2059.0</ele>
        <time>2015-07-25T12:33:56Z</time>
      </trkpt>
      <trkpt lat="40.456333" lon="-5.254500">
        <ele>2059.0</ele>
        <time>2015-07-25T12:33:57Z</time>
      </trkpt>
      <trkpt lat="40.456400" lon="-5.254383">
        <ele>2060.0</ele>
        <time>2015-07-25T12:33:58Z</time>
      </trkpt>
      <trkpt lat="40.456450" lon="-5.254283">
        <ele>2062.0</ele>
        <time>2015-07-25T12:33:59Z</time>
      </trkpt>
      <trkpt lat="40.456533" lon="-5.254200">
        <ele>2064.0</ele>
        <time>2015-07-25T12:34:00Z</time>
      </trkpt>
      <trkpt lat="40.456600" lon="-5.254133">
        <ele>2066.0</ele>
        <time>2015-07-25T12:34:01Z</time>
      </trkpt>
      <trkpt lat="40.456650" lon="-5.254083">
        <ele>2068.0</ele>
        <time>2015-07-25T12:34:02Z</time>
      </trkpt>
      <trkpt lat="40.456700" lon="-5.254083">
        <ele>2069.0</ele>
        <time>2015-07-25T12:34:03Z</time>
      </trkpt>
      <trkpt lat="40.456717" lon="-5.254117">
        <ele>2068.0</ele>
        <time>2015-07-25T12:34:04Z</time>
      </trkpt>
      <trkpt lat="40.456717" lon="-5.254183">
        <ele>2067.0</ele>
        <time>2015-07-25T12:34:05Z</time>
      </trkpt>
      <trkpt lat="40.456683" lon="-5.254250">
        <ele>2068.0</ele>
        <time>2015-07-25T12:34:06Z</time>
      </trkpt>
      <trkpt lat="40.456600" lon="-5.254317">
        <ele>2071.0</ele>
        <time>2015-07-25T12:34:07Z</time>
      </trkpt>
      <trkpt lat="40.456500" lon="-5.254350">
        <ele>2074.0</ele>
        <time>2015-07-25T12:34:08Z</time>
      </trkpt>
      <trkpt lat="40.456383" lon="-5.254333">
        <ele>2077.0</ele>
        <time>2015-07-25T12:34:09Z</time>
      </trkpt>
      <trkpt lat="40.456267" lon="-5.254283">
        <ele>2079.0</ele>
        <time>2015-07-25T12:34:10Z</time>
      </trkpt>
      <trkpt lat="40.456150" lon="-5.254183">
        <ele>2080.0</ele>
        <time>2015-07-25T12:34:11Z</time>
      </trkpt>
      <trkpt lat="40.456033" lon="-5.254033">
        <ele>2081.0</ele>
        <time>2015-07-25T12:34:12Z</time>
      </trkpt>
      <trkpt lat="40.455950" lon="-5.253850">
        <ele>2082.0</ele>
        <time>2015-07-25T12:34:13Z</time>
      </trkpt>
      <trkpt lat="40.455883" lon="-5.253667">
        <ele>2084.0</ele>
        <time>2015-07-25T12:34:14Z</time>
      </trkpt>
      <trkpt lat="40.455867" lon="-5.253467">
        <ele>2086.0</ele>
        <time>2015-07-25T12:34:15Z</time>
      </trkpt>
      <trkpt lat="40.455867" lon="-5.253283">
        <ele>2088.0</ele>
        <time>2015-07-25T12:34:16Z</time>
      </trkpt>
      <trkpt lat="40.455917" lon="-5.253133">
        <ele>2089.0</ele>
        <time>2015-07-25T12:34:17Z</time>
      </trkpt>
      <trkpt lat="40.455983" lon="-5.252983">
        <ele>2089.0</ele>
        <time>2015-07-25T12:34:18Z</time>
      </trkpt>
      <trkpt lat="40.456067" lon="-5.252883">
        <ele>2089.0</ele>
        <time>2015-07-25T12:34:19Z</time>
      </trkpt>
      <trkpt lat="40.456150" lon="-5.252833">
        <ele>2090.0</ele>
        <time>2015-07-25T12:34:20Z</time>
      </trkpt>
      <trkpt lat="40.456217" lon="-5.252817">
        <ele>2090.0</ele>
        <time>2015-07-25T12:34:21Z</time>
      </trkpt>
      <trkpt lat="40.456267" lon="-5.252833">
        <ele>2090.0</ele>
        <time>2015-07-25T12:34:22Z</time>
      </trkpt>
      <trkpt lat="40.456300" lon="-5.252867">
        <ele>2090.0</ele>
        <time>2015-07-25T12:34:23Z</time>
      </trkpt>
      <trkpt lat="40.456333" lon="-5.252883">
        <ele>2091.0</ele>
        <time>2015-07-25T12:34:24Z</time>
      </trkpt>
      <trkpt lat="40.456333" lon="-5.252933">
        <ele>2091.0</ele>
        <time>2015-07-25T12:34:25Z</time>
      </trkpt>
      <trkpt lat="40.456333" lon="-5.252983">
        <ele>2090.0</ele>
        <time>2015-07-25T12:34:26Z</time>
      </trkpt>
      <trkpt lat="40.456283" lon="-5.253050">
        <ele>2091.0</ele>
        <time>2015-07-25T12:34:27Z</time>
      </trkpt>
      <trkpt lat="40.456200" lon="-5.253133">
        <ele>2094.0</ele>
        <time>2015-07-25T12:34:28Z</time>
      </trkpt>
      <trkpt lat="40.456150" lon="-5.253167">
        <ele>2098.0</ele>
        <time>2015-07-25T12:34:29Z</time>
      </trkpt>
      <trkpt lat="40.456100" lon="-5.253200">
        <ele>2102.0</ele>
        <time>2015-07-25T12:34:30Z</time>
      </trkpt>
      <trkpt lat="40.456083" lon="-5.253233">
        <ele>2104.0</ele>
        <time>2015-07-25T12:34:31Z</time>
      </trkpt>
      <trkpt lat="40.456083" lon="-5.253250">
        <ele>2105.0</ele>
        <time>2015-07-25T12:34:32Z</time>
      </trkpt>
      <trkpt lat="40.456100" lon="-5.253250">
        <ele>2106.0</ele>
        <time>2015-07-25T12:34:33Z</time>
      </trkpt>
      <trkpt lat="40.456133" lon="-5.253217">
        <ele>2107.0</ele>
        <time>2015-07-25T12:34:34Z</time>
      </trkpt>
      <trkpt lat="40.456200" lon="-5.253167">
        <ele>2108.0</ele>
        <time>2015-07-25T12:34:35Z</time>
      </trkpt>
      <trkpt lat="40.456283" lon="-5.253033">
        <ele>2108.0</ele>
        <time>2015-07-25T12:34:36Z</time>
      </trkpt>
      <trkpt lat="40.456317" lon="-5.252850">
        <ele>2114.0</ele>
        <time>2015-07-25T12:34:37Z</time>
      </trkpt>
      <trkpt lat="40.456317" lon="-5.252633">
        <ele>2117.0</ele>
        <time>2015-07-25T12:34:38Z</time>
      </trkpt>
      <trkpt lat="40.456250" lon="-5.252450">
        <ele>2118.0</ele>
        <time>2015-07-25T12:34:39Z</time>
      </trkpt>
      <trkpt lat="40.456150" lon="-5.252300">
        <ele>2118.0</ele>
        <time>2015-07-25T12:34:40Z</time>
      </trkpt>
      <trkpt lat="40.456050" lon="-5.252183">
        <ele>2117.0</ele>
        <time>2015-07-25T12:34:41Z</time>
      </trkpt>
      <trkpt lat="40.455933" lon="-5.252100">
        <ele>2118.0</ele>
        <time>2015-07-25T12:34:42Z</time>
      </trkpt>
      <trkpt lat="40.455850" lon="-5.252033">
        <ele>2120.0</ele>
        <time>2015-07-25T12:34:43Z</time>
      </trkpt>
      <trkpt lat="40.455767" lon="-5.251983">
        <ele>2121.0</ele>
        <time>2015-07-25T12:34:44Z</time>
      </trkpt>
      <trkpt lat="40.455683" lon="-5.251983">
        <ele>2120.0</ele>
        <time>2015-07-25T12:34:45Z</time>
      </trkpt>
      <trkpt lat="40.455650" lon="-5.252000">
        <ele>2119.0</ele>
        <time>2015-07-25T12:34:46Z</time>
      </trkpt>
      <trkpt lat="40.455633" lon="-5.252033">
        <ele>2119.0</ele>
        <time>2015-07-25T12:34:47Z</time>
      </trkpt>
      <trkpt lat="40.455667" lon="-5.252050">
        <ele>2120.0</ele>
        <time>2015-07-25T12:34:48Z</time>
      </trkpt>
      <trkpt lat="40.455717" lon="-5.252050">
        <ele>2122.0</ele>
        <time>2015-07-25T12:34:49Z</time>
      </trkpt>
      <trkpt lat="40.455767" lon="-5.252033">
        <ele>2125.0</ele>
        <time>2015-07-25T12:34:50Z</time>
      </trkpt>
      <trkpt lat="40.455800" lon="-5.252017">
        <ele>2129.0</ele>
        <time>2015-07-25T12:34:51Z</time>
      </trkpt>
      <trkpt lat="40.455817" lon="-5.252000">
        <ele>2132.0</ele>
        <time>2015-07-25T12:34:52Z</time>
      </trkpt>
      <trkpt lat="40.455817" lon="-5.252000">
        <ele>2133.0</ele>
        <time>2015-07-25T12:34:53Z</time>
      </trkpt>
      <trkpt lat="40.455850" lon="-5.252017">
        <ele>2134.0</ele>
        <time>2015-07-25T12:34:54Z</time>
      </trkpt>
      <trkpt lat="40.455883" lon="-5.252033">
        <ele>2135.0</ele>
        <time>2015-07-25T12:34:55Z</time>
      </trkpt>
      <trkpt lat="40.455933" lon="-5.252050">
        <ele>2135.0</ele>
        <time>2015-07-25T12:34:56Z</time>
      </trkpt>
      <trkpt lat="40.455983" lon="-5.252067">
        <ele>2137.0</ele>
        <time>2015-07-25T12:34:57Z</time>
      </trkpt>
      <trkpt lat="40.456033" lon="-5.252083">
        <ele>2144.0</ele>
        <time>2015-07-25T12:34:58Z</time>
      </trkpt>
      <trkpt lat="40.456083" lon="-5.252100">
        <ele>2149.0</ele>
        <time>2015-07-25T12:34:59Z</time>
      </trkpt>
      <trkpt lat="40.456100" lon="-5.252133">
        <ele>2152.0</ele>
        <time>2015-07-25T12:35:00Z</time>
      </trkpt>
      <trkpt lat="40.456117" lon="-5.252150">
        <ele>2155.0</ele>
        <time>2015-07-25T12:35:01Z</time>
      </trkpt>
      <trkpt lat="40.456167" lon="-5.252167">
        <ele>2157.0</ele>
        <time>2015-07-25T12:35:02Z</time>
      </trkpt>
      <trkpt lat="40.456217" lon="-5.252150">
        <ele>2160.0</ele>
        <time>2015-07-25T12:35:03Z</time>
      </trkpt>
      <trkpt lat="40.456300" lon="-5.252050">
        <ele>2161.0</ele>
        <time>2015-07-25T12:35:04Z</time>
      </trkpt>
      <trkpt lat="40.456350" lon="-5.251900">
        <ele>2162.0</ele>
        <time>2015-07-25T12:35:05Z</time>
      </trkpt>
      <trkpt lat="40.456383" lon="-5.251733">
        <ele>2163.0</ele>
        <time>2015-07-25T12:35:06Z</time>
      </trkpt>
      <trkpt lat="40.456367" lon="-5.251550">
        <ele>2165.0</ele>
        <time>2015-07-25T12:35:07Z</time>
      </trkpt>
      <trkpt lat="40.456317" lon="-5.251383">
        <ele>2168.0</ele>
        <time>2015-07-25T12:35:08Z</time>
      </trkpt>
      <trkpt lat="40.456250" lon="-5.251250">
        <ele>2169.0</ele>
        <time>2015-07-25T12:35:09Z</time>
      </trkpt>
      <trkpt lat="40.456150" lon="-5.251167">
        <ele>2169.0</ele>
        <time>2015-07-25T12:35:10Z</time>
      </trkpt>
      <trkpt lat="40.456050" lon="-5.251150">
        <ele>2167.0</ele>
        <time>2015-07-25T12:35:11Z</time>
      </trkpt>
      <trkpt lat="40.455933" lon="-5.251183">
        <ele>2166.0</ele>
        <time>2015-07-25T12:35:12Z</time>
      </trkpt>
      <trkpt lat="40.455833" lon="-5.251250">
        <ele>2167.0</ele>
        <time>2015-07-25T12:35:13Z</time>
      </trkpt>
      <trkpt lat="40.455783" lon="-5.251333">
        <ele>2170.0</ele>
        <time>2015-07-25T12:35:14Z</time>
      </trkpt>
      <trkpt lat="40.455767" lon="-5.251383">
        <ele>2175.0</ele>
        <time>2015-07-25T12:35:15Z</time>
      </trkpt>
      <trkpt lat="40.455767" lon="-5.251417">
        <ele>2179.0</ele>
        <time>2015-07-25T12:35:16Z</time>
      </trkpt>
      <trkpt lat="40.455783" lon="-5.251433">
        <ele>2182.0</ele>
        <time>2015-07-25T12:35:17Z</time>
      </trkpt>
      <trkpt lat="40.455817" lon="-5.251467">
        <ele>2184.0</ele>
        <time>2015-07-25T12:35:18Z</time>
      </trkpt>
      <trkpt lat="40.455850" lon="-5.251500">
        <ele>2185.0</ele>
        <time>2015-07-25T12:35:19Z</time>
      </trkpt>
      <trkpt lat="40.455883" lon="-5.251500">
        <ele>2185.0</ele>
        <time>2015-07-25T12:35:20Z</time>
      </trkpt>
      <trkpt lat="40.455950" lon="-5.251500">
        <ele>2185.0</ele>
        <time>2015-07-25T12:35:21Z</time>
      </trkpt>
      <trkpt lat="40.456033" lon="-5.251450">
        <ele>2184.0</ele>
        <time>2015-07-25T12:35:22Z</time>
      </trkpt>
      <trkpt lat="40.456117" lon="-5.251383">
        <ele>2184.0</ele>
        <time>2015-07-25T12:35:23Z</time>
      </trkpt>
      <trkpt lat="40.456217" lon="-5.251300">
        <ele>2186.0</ele>
        <time>2015-07-25T12:35:24Z</time>
      </trkpt>
      <trkpt lat="40.456300" lon="-5.251250">
        <ele>2188.0</ele>
        <time>2015-07-25T12:35:25Z</time>
      </trkpt>
      <trkpt lat="40.456383" lon="-5.251183">
        <ele>2190.0</ele>
        <time>2015-07-25T12:35:26Z</time>
      </trkpt>
      <trkpt lat="40.456450" lon="-5.251133">
        <ele>2192.0</ele>
        <time>2015-07-25T12:35:27Z</time>
      </trkpt>
      <trkpt lat="40.456517" lon="-5.251067">
        <ele>2194.0</ele>
        <time>2015-07-25T12:35:28Z</time>
      </trkpt>
      <trkpt lat="40.456583" lon="-5.251033">
        <ele>2194.0</ele>
        <time>2015-07-25T12:35:29Z</time>
      </trkpt>
      <trkpt lat="40.456650" lon="-5.251017">
        <ele>2195.0</ele>
        <time>2015-07-25T12:35:30Z</time>
      </trkpt>
      <trkpt lat="40.456683" lon="-5.251033">
        <ele>2196.0</ele>
        <time>2015-07-25T12:35:31Z</time>
      </trkpt>
      <trkpt lat="40.456717" lon="-5.251100">
        <ele>2196.0</ele>
        <time>2015-07-25T12:35:32Z</time>
      </trkpt>
      <trkpt lat="40.456717" lon="-5.251167">
        <ele>2195.0</ele>
        <time>2015-07-25T12:35:33Z</time>
      </trkpt>
      <trkpt lat="40.456683" lon="-5.251233">
        <ele>2194.0</ele>
        <time>2015-07-25T12:35:34Z</time>
      </trkpt>
      <trkpt lat="40.456650" lon="-5.251317">
        <ele>2192.0</ele>
        <time>2015-07-25T12:35:35Z</time>
      </trkpt>
      <trkpt lat="40.456583" lon="-5.251383">
        <ele>2191.0</ele>
        <time>2015-07-25T12:35:36Z</time>
      </trkpt>
      <trkpt lat="40.456483" lon="-5.251450">
        <ele>2189.0</ele>
        <time>2015-07-25T12:35:37Z</time>
      </trkpt>
      <trkpt lat="40.456383" lon="-5.251500">
        <ele>2187.0</ele>
        <time>2015-07-25T12:35:38Z</time>
      </trkpt>
      <trkpt lat="40.456250" lon="-5.251500">
        <ele>2186.0</ele>
        <time>2015-07-25T12:35:39Z</time>
      </trkpt>
      <trkpt lat="40.456117" lon="-5.251483">
        <ele>2185.0</ele>
        <time>2015-07-25T12:35:40Z</time>
      </trkpt>
      <trkpt lat="40.456000" lon="-5.251400">
        <ele>2184.0</ele>
        <time>2015-07-25T12:35:41Z</time>
      </trkpt>
      <trkpt lat="40.455867" lon="-5.251283">
        <ele>2183.0</ele>
        <time>2015-07-25T12:35:42Z</time>
      </trkpt>
      <trkpt lat="40.455783" lon="-5.251133">
        <ele>2183.0</ele>
        <time>2015-07-25T12:35:43Z</time>
      </trkpt>
      <trkpt lat="40.455717" lon="-5.250983">
        <ele>2184.0</ele>
        <time>2015-07-25T12:35:44Z</time>
      </trkpt>
      <trkpt lat="40.455700" lon="-5.250817">
        <ele>2184.0</ele>
        <time>2015-07-25T12:35:45Z</time>
      </trkpt>
      <trkpt lat="40.455717" lon="-5.250650">
        <ele>2184.0</ele>
        <time>2015-07-25T12:35:46Z</time>
      </trkpt>
      <trkpt lat="40.455750" lon="-5.250500">
        <ele>2185.0</ele>
        <time>2015-07-25T12:35:47Z</time>
      </trkpt>
      <trkpt lat="40.455783" lon="-5.250383">
        <ele>2187.0</ele>
        <time>2015-07-25T12:35:48Z</time>
      </trkpt>
      <trkpt lat="40.455817" lon="-5.250267">
        <ele>2188.0</ele>
        <time>2015-07-25T12:35:49Z</time>
      </trkpt>
      <trkpt lat="40.455833" lon="-5.250150">
        <ele>2188.0</ele>
        <time>2015-07-25T12:35:50Z</time>
      </trkpt>
      <trkpt lat="40.455850" lon="-5.250050">
        <ele>2188.0</ele>
        <time>2015-07-25T12:35:51Z</time>
      </trkpt>
      <trkpt lat="40.455883" lon="-5.249933">
        <ele>2187.0</ele>
        <time>2015-07-25T12:35:52Z</time>
      </trkpt>
      <trkpt lat="40.455933" lon="-5.249817">
        <ele>2186.0</ele>
        <time>2015-07-25T12:35:53Z</time>
      </trkpt>
      <trkpt lat="40.456000" lon="-5.249733">
        <ele>2186.0</ele>
        <time>2015-07-25T12:35:54Z</time>
      </trkpt>
      <trkpt lat="40.456100" lon="-5.249683">
        <ele>2187.0</ele>
        <time>2015-07-25T12:35:55Z</time>
      </trkpt>
      <trkpt lat="40.456200" lon="-5.249667">
        <ele>2188.0</ele>
        <time>2015-07-25T12:35:56Z</time>
      </trkpt>
      <trkpt lat="40.456300" lon="-5.249667">
        <ele>2191.0</ele>
        <time>2015-07-25T12:35:57Z</time>
      </trkpt>
      <trkpt lat="40.456383" lon="-5.249650">
        <ele>2193.0</ele>
        <time>2015-07-25T12:35:58Z</time>
      </trkpt>
      <trkpt lat="40.456467" lon="-5.249650">
        <ele>2195.0</ele>
        <time>2015-07-25T12:35:59Z</time>
      </trkpt>
      <trkpt lat="40.456567" lon="-5.249633">
        <ele>2196.0</ele>
        <time>2015-07-25T12:36:00Z</time>
      </trkpt>
      <trkpt lat="40.456650" lon="-5.249633">
        <ele>2196.0</ele>
        <time>2015-07-25T12:36:01Z</time>
      </trkpt>
      <trkpt lat="40.456750" lon="-5.249633">
        <ele>2195.0</ele>
        <time>2015-07-25T12:36:02Z</time>
      </trkpt>
      <trkpt lat="40.456833" lon="-5.249617">
        <ele>2194.0</ele>
        <time>2015-07-25T12:36:03Z</time>
      </trkpt>
      <trkpt lat="40.456933" lon="-5.249583">
        <ele>2194.0</ele>
        <time>2015-07-25T12:36:04Z</time>
      </trkpt>
      <trkpt lat="40.457017" lon="-5.249533">
        <ele>2195.0</ele>
        <time>2015-07-25T12:36:05Z</time>
      </trkpt>
      <trkpt lat="40.457100" lon="-5.249467">
        <ele>2197.0</ele>
        <time>2015-07-25T12:36:06Z</time>
      </trkpt>
      <trkpt lat="40.457150" lon="-5.249417">
        <ele>2197.0</ele>
        <time>2015-07-25T12:36:07Z</time>
      </trkpt>
      <trkpt lat="40.457217" lon="-5.249367">
        <ele>2197.0</ele>
        <time>2015-07-25T12:36:08Z</time>
      </trkpt>
      <trkpt lat="40.457267" lon="-5.249333">
        <ele>2195.0</ele>
        <time>2015-07-25T12:36:09Z</time>
      </trkpt>
      <trkpt lat="40.457333" lon="-5.249300">
        <ele>2191.0</ele>
        <time>2015-07-25T12:36:10Z</time>
      </trkpt>
      <trkpt lat="40.457400" lon="-5.249283">
        <ele>2188.0</ele>
        <time>2015-07-25T12:36:11Z</time>
      </trkpt>
      <trkpt lat="40.457483" lon="-5.249283">
        <ele>2186.0</ele>
        <time>2015-07-25T12:36:12Z</time>
      </trkpt>
      <trkpt lat="40.457583" lon="-5.249283">
        <ele>2185.0</ele>
        <time>2015-07-25T12:36:13Z</time>
      </trkpt>
      <trkpt lat="40.457650" lon="-5.249300">
        <ele>2185.0</ele>
        <time>2015-07-25T12:36:14Z</time>
      </trkpt>
      <trkpt lat="40.457733" lon="-5.249300">
        <ele>2186.0</ele>
        <time>2015-07-25T12:36:15Z</time>
      </trkpt>
      <trkpt lat="40.457800" lon="-5.249283">
        <ele>2186.0</ele>
        <time>2015-07-25T12:36:16Z</time>
      </trkpt>
      <trkpt lat="40.457867" lon="-5.249267">
        <ele>2185.0</ele>
        <time>2015-07-25T12:36:17Z</time>
      </trkpt>
      <trkpt lat="40.457950" lon="-5.249250">
        <ele>2184.0</ele>
        <time>2015-07-25T12:36:18Z</time>
      </trkpt>
      <trkpt lat="40.458033" lon="-5.249233">
        <ele>2183.0</ele>
        <time>2015-07-25T12:36:19Z</time>
      </trkpt>
      <trkpt lat="40.458117" lon="-5.249200">
        <ele>2182.0</ele>
        <time>2015-07-25T12:36:20Z</time>
      </trkpt>
      <trkpt lat="40.458200" lon="-5.249167">
        <ele>2181.0</ele>
        <time>2015-07-25T12:36:21Z</time>
      </trkpt>
      <trkpt lat="40.458283" lon="-5.249117">
        <ele>2181.0</ele>
        <time>2015-07-25T12:36:22Z</time>
      </trkpt>
      <trkpt lat="40.458367" lon="-5.249067">
        <ele>2180.0</ele>
        <time>2015-07-25T12:36:23Z</time>
      </trkpt>
      <trkpt lat="40.458467" lon="-5.249033">
        <ele>2178.0</ele>
        <time>2015-07-25T12:36:24Z</time>
      </trkpt>
      <trkpt lat="40.458550" lon="-5.249000">
        <ele>2175.0</ele>
        <time>2015-07-25T12:36:25Z</time>
      </trkpt>
      <trkpt lat="40.458650" lon="-5.248967">
        <ele>2173.0</ele>
        <time>2015-07-25T12:36:26Z</time>
      </trkpt>
      <trkpt lat="40.458733" lon="-5.248917">
        <ele>2171.0</ele>
        <time>2015-07-25T12:36:27Z</time>
      </trkpt>
      <trkpt lat="40.458833" lon="-5.248867">
        <ele>2169.0</ele>
        <time>2015-07-25T12:36:28Z</time>
      </trkpt>
      <trkpt lat="40.458917" lon="-5.248817">
        <ele>2166.0</ele>
        <time>2015-07-25T12:36:29Z</time>
      </trkpt>
      <trkpt lat="40.458983" lon="-5.248767">
        <ele>2164.0</ele>
        <time>2015-07-25T12:36:30Z</time>
      </trkpt>
      <trkpt lat="40.459050" lon="-5.248750">
        <ele>2160.0</ele>
        <time>2015-07-25T12:36:31Z</time>
      </trkpt>
      <trkpt lat="40.459133" lon="-5.248767">
        <ele>2157.0</ele>
        <time>2015-07-25T12:36:32Z</time>
      </trkpt>
      <trkpt lat="40.459217" lon="-5.248833">
        <ele>2154.0</ele>
        <time>2015-07-25T12:36:33Z</time>
      </trkpt>
      <trkpt lat="40.459300" lon="-5.248900">
        <ele>2153.0</ele>
        <time>2015-07-25T12:36:34Z</time>
      </trkpt>
      <trkpt lat="40.459383" lon="-5.249000">
        <ele>2152.0</ele>
        <time>2015-07-25T12:36:35Z</time>
      </trkpt>
      <trkpt lat="40.459433" lon="-5.249067">
        <ele>2153.0</ele>
        <time>2015-07-25T12:36:36Z</time>
      </trkpt>
      <trkpt lat="40.459500" lon="-5.249133">
        <ele>2152.0</ele>
        <time>2015-07-25T12:36:37Z</time>
      </trkpt>
      <trkpt lat="40.459567" lon="-5.249200">
        <ele>2150.0</ele>
        <time>2015-07-25T12:36:38Z</time>
      </trkpt>
      <trkpt lat="40.459650" lon="-5.249250">
        <ele>2147.0</ele>
        <time>2015-07-25T12:36:39Z</time>
      </trkpt>
      <trkpt lat="40.459717" lon="-5.249300">
        <ele>2143.0</ele>
        <time>2015-07-25T12:36:40Z</time>
      </trkpt>
      <trkpt lat="40.459800" lon="-5.249367">
        <ele>2140.0</ele>
        <time>2015-07-25T12:36:41Z</time>
      </trkpt>
      <trkpt lat="40.459900" lon="-5.249433">
        <ele>2136.0</ele>
        <time>2015-07-25T12:36:42Z</time>
      </trkpt>
      <trkpt lat="40.459983" lon="-5.249483">
        <ele>2133.0</ele>
        <time>2015-07-25T12:36:43Z</time>
      </trkpt>
      <trkpt lat="40.460083" lon="-5.249500">
        <ele>2131.0</ele>
        <time>2015-07-25T12:36:44Z</time>
      </trkpt>
      <trkpt lat="40.460167" lon="-5.249500">
        <ele>2130.0</ele>
        <time>2015-07-25T12:36:45Z</time>
      </trkpt>
      <trkpt lat="40.460250" lon="-5.249500">
        <ele>2128.0</ele>
        <time>2015-07-25T12:36:46Z</time>
      </trkpt>
      <trkpt lat="40.460350" lon="-5.249483">
        <ele>2126.0</ele>
        <time>2015-07-25T12:36:47Z</time>
      </trkpt>
      <trkpt lat="40.460433" lon="-5.249467">
        <ele>2124.0</ele>
        <time>2015-07-25T12:36:48Z</time>
      </trkpt>
      <trkpt lat="40.460533" lon="-5.249467">
        <ele>2122.0</ele>
        <time>2015-07-25T12:36:49Z</time>
      </trkpt>
      <trkpt lat="40.460617" lon="-5.249450">
        <ele>2120.0</ele>
        <time>2015-07-25T12:36:50Z</time>
      </trkpt>
      <trkpt lat="40.460717" lon="-5.249450">
        <ele>2118.0</ele>
        <time>2015-07-25T12:36:51Z</time>
      </trkpt>
      <trkpt lat="40.460817" lon="-5.249450">
        <ele>2116.0</ele>
        <time>2015-07-25T12:36:52Z</time>
      </trkpt>
      <trkpt lat="40.460917" lon="-5.249417">
        <ele>2115.0</ele>
        <time>2015-07-25T12:36:53Z</time>
      </trkpt>
      <trkpt lat="40.461017" lon="-5.249400">
        <ele>2114.0</ele>
        <time>2015-07-25T12:36:54Z</time>
      </trkpt>
      <trkpt lat="40.461117" lon="-5.249400">
        <ele>2113.0</ele>
        <time>2015-07-25T12:36:55Z</time>
      </trkpt>
      <trkpt lat="40.461217" lon="-5.249383">
        <ele>2112.0</ele>
        <time>2015-07-25T12:36:56Z</time>
      </trkpt>
      <trkpt lat="40.461300" lon="-5.249383">
        <ele>2110.0</ele>
        <time>2015-07-25T12:36:57Z</time>
      </trkpt>
      <trkpt lat="40.461400" lon="-5.249383">
        <ele>2109.0</ele>
        <time>2015-07-25T12:36:58Z</time>
      </trkpt>
      <trkpt lat="40.461483" lon="-5.249367">
        <ele>2106.0</ele>
        <time>2015-07-25T12:36:59Z</time>
      </trkpt>
      <trkpt lat="40.461567" lon="-5.249350">
        <ele>2104.0</ele>
        <time>2015-07-25T12:37:00Z</time>
      </trkpt>
      <trkpt lat="40.461667" lon="-5.249333">
        <ele>2102.0</ele>
        <time>2015-07-25T12:37:01Z</time>
      </trkpt>
      <trkpt lat="40.461783" lon="-5.249300">
        <ele>2099.0</ele>
        <time>2015-07-25T12:37:02Z</time>
      </trkpt>
      <trkpt lat="40.461883" lon="-5.249267">
        <ele>2097.0</ele>
        <time>2015-07-25T12:37:03Z</time>
      </trkpt>
      <trkpt lat="40.462000" lon="-5.249233">
        <ele>2094.0</ele>
        <time>2015-07-25T12:37:04Z</time>
      </trkpt>
      <trkpt lat="40.462100" lon="-5.249217">
        <ele>2092.0</ele>
        <time>2015-07-25T12:37:05Z</time>
      </trkpt>
      <trkpt lat="40.462200" lon="-5.249200">
        <ele>2090.0</ele>
        <time>2015-07-25T12:37:06Z</time>
      </trkpt>
      <trkpt lat="40.462300" lon="-5.249183">
        <ele>2088.0</ele>
        <time>2015-07-25T12:37:07Z</time>
      </trkpt>
      <trkpt lat="40.462400" lon="-5.249167">
        <ele>2087.0</ele>
        <time>2015-07-25T12:37:08Z</time>
      </trkpt>
      <trkpt lat="40.462500" lon="-5.249150">
        <ele>2086.0</ele>
        <time>2015-07-25T12:37:09Z</time>
      </trkpt>
      <trkpt lat="40.462617" lon="-5.249150">
        <ele>2084.0</ele>
        <time>2015-07-25T12:37:10Z</time>
      </trkpt>
      <trkpt lat="40.462717" lon="-5.249133">
        <ele>2082.0</ele>
        <time>2015-07-25T12:37:11Z</time>
      </trkpt>
      <trkpt lat="40.462800" lon="-5.249133">
        <ele>2081.0</ele>
        <time>2015-07-25T12:37:12Z</time>
      </trkpt>
      <trkpt lat="40.462900" lon="-5.249150">
        <ele>2079.0</ele>
        <time>2015-07-25T12:37:13Z</time>
      </trkpt>
      <trkpt lat="40.463000" lon="-5.249167">
        <ele>2076.0</ele>
        <time>2015-07-25T12:37:14Z</time>
      </trkpt>
      <trkpt lat="40.463100" lon="-5.249200">
        <ele>2073.0</ele>
        <time>2015-07-25T12:37:15Z</time>
      </trkpt>
      <trkpt lat="40.463200" lon="-5.249250">
        <ele>2071.0</ele>
        <time>2015-07-25T12:37:16Z</time>
      </trkpt>
      <trkpt lat="40.463300" lon="-5.249317">
        <ele>2068.0</ele>
        <time>2015-07-25T12:37:17Z</time>
      </trkpt>
      <trkpt lat="40.463400" lon="-5.249400">
        <ele>2066.0</ele>
        <time>2015-07-25T12:37:18Z</time>
      </trkpt>
      <trkpt lat="40.463500" lon="-5.249467">
        <ele>2064.0</ele>
        <time>2015-07-25T12:37:19Z</time>
      </trkpt>
      <trkpt lat="40.463583" lon="-5.249533">
        <ele>2061.0</ele>
        <time>2015-07-25T12:37:20Z</time>
      </trkpt>
      <trkpt lat="40.463683" lon="-5.249617">
        <ele>2058.0</ele>
        <time>2015-07-25T12:37:21Z</time>
      </trkpt>
      <trkpt lat="40.463767" lon="-5.249700">
        <ele>2055.0</ele>
        <time>2015-07-25T12:37:22Z</time>
      </trkpt>
      <trkpt lat="40.463833" lon="-5.249800">
        <ele>2052.0</ele>
        <time>2015-07-25T12:37:23Z</time>
      </trkpt>
      <trkpt lat="40.463900" lon="-5.249917">
        <ele>2049.0</ele>
        <time>2015-07-25T12:37:24Z</time>
      </trkpt>
      <trkpt lat="40.463950" lon="-5.250050">
        <ele>2046.0</ele>
        <time>2015-07-25T12:37:25Z</time>
      </trkpt>
      <trkpt lat="40.463967" lon="-5.250200">
        <ele>2044.0</ele>
        <time>2015-07-25T12:37:26Z</time>
      </trkpt>
      <trkpt lat="40.463967" lon="-5.250350">
        <ele>2042.0</ele>
        <time>2015-07-25T12:37:27Z</time>
      </trkpt>
      <trkpt lat="40.463933" lon="-5.250483">
        <ele>2041.0</ele>
        <time>2015-07-25T12:37:28Z</time>
      </trkpt>
      <trkpt lat="40.463883" lon="-5.250600">
        <ele>2040.0</ele>
        <time>2015-07-25T12:37:29Z</time>
      </trkpt>
      <trkpt lat="40.463833" lon="-5.250700">
        <ele>2039.0</ele>
        <time>2015-07-25T12:37:30Z</time>
      </trkpt>
      <trkpt lat="40.463783" lon="-5.250783">
        <ele>2037.0</ele>
        <time>2015-07-25T12:37:31Z</time>
      </trkpt>
      <trkpt lat="40.463733" lon="-5.250900">
        <ele>2035.0</ele>
        <time>2015-07-25T12:37:32Z</time>
      </trkpt>
      <trkpt lat="40.463650" lon="-5.251000">
        <ele>2032.0</ele>
        <time>2015-07-25T12:37:33Z</time>
      </trkpt>
      <trkpt lat="40.463583" lon="-5.251117">
        <ele>2031.0</ele>
        <time>2015-07-25T12:37:34Z</time>
      </trkpt>
      <trkpt lat="40.463500" lon="-5.251233">
        <ele>2030.0</ele>
        <time>2015-07-25T12:37:35Z</time>
      </trkpt>
      <trkpt lat="40.463433" lon="-5.251317">
        <ele>2030.0</ele>
        <time>2015-07-25T12:37:36Z</time>
      </trkpt>
      <trkpt lat="40.463367" lon="-5.251417">
        <ele>2029.0</ele>
        <time>2015-07-25T12:37:37Z</time>
      </trkpt>
      <trkpt lat="40.463300" lon="-5.251500">
        <ele>2028.0</ele>
        <time>2015-07-25T12:37:38Z</time>
      </trkpt>
      <trkpt lat="40.463233" lon="-5.251600">
        <ele>2026.0</ele>
        <time>2015-07-25T12:37:39Z</time>
      </trkpt>
      <trkpt lat="40.463150" lon="-5.251717">
        <ele>2025.0</ele>
        <time>2015-07-25T12:37:40Z</time>
      </trkpt>
      <trkpt lat="40.463083" lon="-5.251817">
        <ele>2024.0</ele>
        <time>2015-07-25T12:37:41Z</time>
      </trkpt>
      <trkpt lat="40.463017" lon="-5.251900">
        <ele>2023.0</ele>
        <time>2015-07-25T12:37:42Z</time>
      </trkpt>
      <trkpt lat="40.462917" lon="-5.251983">
        <ele>2023.0</ele>
        <time>2015-07-25T12:37:43Z</time>
      </trkpt>
      <trkpt lat="40.462817" lon="-5.252050">
        <ele>2022.0</ele>
        <time>2015-07-25T12:37:44Z</time>
      </trkpt>
      <trkpt lat="40.462717" lon="-5.252100">
        <ele>2021.0</ele>
        <time>2015-07-25T12:37:45Z</time>
      </trkpt>
      <trkpt lat="40.462633" lon="-5.252183">
        <ele>2020.0</ele>
        <time>2015-07-25T12:37:46Z</time>
      </trkpt>
      <trkpt lat="40.462533" lon="-5.252250">
        <ele>2020.0</ele>
        <time>2015-07-25T12:37:47Z</time>
      </trkpt>
      <trkpt lat="40.462433" lon="-5.252317">
        <ele>2020.0</ele>
        <time>2015-07-25T12:37:48Z</time>
      </trkpt>
      <trkpt lat="40.462317" lon="-5.252367">
        <ele>2019.0</ele>
        <time>2015-07-25T12:37:49Z</time>
      </trkpt>
      <trkpt lat="40.462217" lon="-5.252400">
        <ele>2019.0</ele>
        <time>2015-07-25T12:37:50Z</time>
      </trkpt>
      <trkpt lat="40.462100" lon="-5.252433">
        <ele>2019.0</ele>
        <time>2015-07-25T12:37:51Z</time>
      </trkpt>
      <trkpt lat="40.462000" lon="-5.252467">
        <ele>2020.0</ele>
        <time>2015-07-25T12:37:52Z</time>
      </trkpt>
      <trkpt lat="40.461900" lon="-5.252517">
        <ele>2020.0</ele>
        <time>2015-07-25T12:37:53Z</time>
      </trkpt>
      <trkpt lat="40.461817" lon="-5.252533">
        <ele>2020.0</ele>
        <time>2015-07-25T12:37:54Z</time>
      </trkpt>
      <trkpt lat="40.461717" lon="-5.252567">
        <ele>2020.0</ele>
        <time>2015-07-25T12:37:55Z</time>
      </trkpt>
      <trkpt lat="40.461617" lon="-5.252617">
        <ele>2020.0</ele>
        <time>2015-07-25T12:37:56Z</time>
      </trkpt>
      <trkpt lat="40.461500" lon="-5.252667">
        <ele>2020.0</ele>
        <time>2015-07-25T12:37:57Z</time>
      </trkpt>
      <trkpt lat="40.461400" lon="-5.252717">
        <ele>2020.0</ele>
        <time>2015-07-25T12:37:58Z</time>
      </trkpt>
      <trkpt lat="40.461300" lon="-5.252767">
        <ele>2021.0</ele>
        <time>2015-07-25T12:37:59Z</time>
      </trkpt>
      <trkpt lat="40.461200" lon="-5.252817">
        <ele>2022.0</ele>
        <time>2015-07-25T12:38:00Z</time>
      </trkpt>
      <trkpt lat="40.461100" lon="-5.252867">
        <ele>2022.0</ele>
        <time>2015-07-25T12:38:01Z</time>
      </trkpt>
      <trkpt lat="40.461017" lon="-5.252933">
        <ele>2020.0</ele>
        <time>2015-07-25T12:38:02Z</time>
      </trkpt>
      <trkpt lat="40.460933" lon="-5.253000">
        <ele>2019.0</ele>
        <time>2015-07-25T12:38:03Z</time>
      </trkpt>
      <trkpt lat="40.460833" lon="-5.253083">
        <ele>2017.0</ele>
        <time>2015-07-25T12:38:04Z</time>
      </trkpt>
      <trkpt lat="40.460750" lon="-5.253167">
        <ele>2016.0</ele>
        <time>2015-07-25T12:38:05Z</time>
      </trkpt>
      <trkpt lat="40.460650" lon="-5.253233">
        <ele>2015.0</ele>
        <time>2015-07-25T12:38:06Z</time>
      </trkpt>
      <trkpt lat="40.460550" lon="-5.253300">
        <ele>2013.0</ele>
        <time>2015-07-25T12:38:07Z</time>
      </trkpt>
      <trkpt lat="40.460450" lon="-5.253383">
        <ele>2011.0</ele>
        <time>2015-07-25T12:38:08Z</time>
      </trkpt>
      <trkpt lat="40.460350" lon="-5.253450">
        <ele>2009.0</ele>
        <time>2015-07-25T12:38:09Z</time>
      </trkpt>
      <trkpt lat="40.460267" lon="-5.253533">
        <ele>2007.0</ele>
        <time>2015-07-25T12:38:10Z</time>
      </trkpt>
      <trkpt lat="40.460167" lon="-5.253617">
        <ele>2005.0</ele>
        <time>2015-07-25T12:38:11Z</time>
      </trkpt>
      <trkpt lat="40.460067" lon="-5.253700">
        <ele>2004.0</ele>
        <time>2015-07-25T12:38:12Z</time>
      </trkpt>
      <trkpt lat="40.459967" lon="-5.253767">
        <ele>2003.0</ele>
        <time>2015-07-25T12:38:13Z</time>
      </trkpt>
      <trkpt lat="40.459867" lon="-5.253833">
        <ele>2002.0</ele>
        <time>2015-07-25T12:38:14Z</time>
      </trkpt>
      <trkpt lat="40.459750" lon="-5.253900">
        <ele>2002.0</ele>
        <time>2015-07-25T12:38:15Z</time>
      </trkpt>
      <trkpt lat="40.459650" lon="-5.253950">
        <ele>2001.0</ele>
        <time>2015-07-25T12:38:16Z</time>
      </trkpt>
      <trkpt lat="40.459550" lon="-5.254000">
        <ele>2000.0</ele>
        <time>2015-07-25T12:38:17Z</time>
      </trkpt>
      <trkpt lat="40.459450" lon="-5.254067">
        <ele>1998.0</ele>
        <time>2015-07-25T12:38:18Z</time>
      </trkpt>
      <trkpt lat="40.459367" lon="-5.254133">
        <ele>1996.0</ele>
        <time>2015-07-25T12:38:19Z</time>
      </trkpt>
      <trkpt lat="40.459267" lon="-5.254217">
        <ele>1995.0</ele>
        <time>2015-07-25T12:38:20Z</time>
      </trkpt>
      <trkpt lat="40.459167" lon="-5.254300">
        <ele>1994.0</ele>
        <time>2015-07-25T12:38:21Z</time>
      </trkpt>
      <trkpt lat="40.459083" lon="-5.254383">
        <ele>1993.0</ele>
        <time>2015-07-25T12:38:22Z</time>
      </trkpt>
      <trkpt lat="40.459017" lon="-5.254500">
        <ele>1992.0</ele>
        <time>2015-07-25T12:38:23Z</time>
      </trkpt>
      <trkpt lat="40.458950" lon="-5.254583">
        <ele>1991.0</ele>
        <time>2015-07-25T12:38:24Z</time>
      </trkpt>
      <trkpt lat="40.458883" lon="-5.254683">
        <ele>1990.0</ele>
        <time>2015-07-25T12:38:25Z</time>
      </trkpt>
      <trkpt lat="40.458800" lon="-5.254767">
        <ele>1989.0</ele>
        <time>2015-07-25T12:38:26Z</time>
      </trkpt>
      <trkpt lat="40.458733" lon="-5.254867">
        <ele>1988.0</ele>
        <time>2015-07-25T12:38:27Z</time>
      </trkpt>
      <trkpt lat="40.458633" lon="-5.254967">
        <ele>1987.0</ele>
        <time>2015-07-25T12:38:28Z</time>
      </trkpt>
      <trkpt lat="40.458550" lon="-5.255067">
        <ele>1987.0</ele>
        <time>2015-07-25T12:38:29Z</time>
      </trkpt>
      <trkpt lat="40.458450" lon="-5.255150">
        <ele>1987.0</ele>
        <time>2015-07-25T12:38:30Z</time>
      </trkpt>
      <trkpt lat="40.458350" lon="-5.255217">
        <ele>1988.0</ele>
        <time>2015-07-25T12:38:31Z</time>
      </trkpt>
      <trkpt lat="40.458267" lon="-5.255300">
        <ele>1988.0</ele>
        <time>2015-07-25T12:38:32Z</time>
      </trkpt>
      <trkpt lat="40.458167" lon="-5.255367">
        <ele>1988.0</ele>
        <time>2015-07-25T12:38:33Z</time>
      </trkpt>
      <trkpt lat="40.458067" lon="-5.255433">
        <ele>1988.0</ele>
        <time>2015-07-25T12:38:34Z</time>
      </trkpt>
      <trkpt lat="40.457967" lon="-5.255483">
        <ele>1988.0</ele>
        <time>2015-07-25T12:38:35Z</time>
      </trkpt>
      <trkpt lat="40.457867" lon="-5.255517">
        <ele>1988.0</ele>
        <time>2015-07-25T12:38:36Z</time>
      </trkpt>
      <trkpt lat="40.457783" lon="-5.255583">
        <ele>1988.0</ele>
        <time>2015-07-25T12:38:37Z</time>
      </trkpt>
      <trkpt lat="40.457700" lon="-5.255650">
        <ele>1987.0</ele>
        <time>2015-07-25T12:38:38Z</time>
      </trkpt>
      <trkpt lat="40.457633" lon="-5.255750">
        <ele>1986.0</ele>
        <time>2015-07-25T12:38:39Z</time>
      </trkpt>
      <trkpt lat="40.457550" lon="-5.255850">
        <ele>1986.0</ele>
        <time>2015-07-25T12:38:40Z</time>
      </trkpt>
      <trkpt lat="40.457450" lon="-5.255933">
        <ele>1987.0</ele>
        <time>2015-07-25T12:38:41Z</time>
      </trkpt>
      <trkpt lat="40.457350" lon="-5.256017">
        <ele>1989.0</ele>
        <time>2015-07-25T12:38:42Z</time>
      </trkpt>
      <trkpt lat="40.457250" lon="-5.256083">
        <ele>1991.0</ele>
        <time>2015-07-25T12:38:43Z</time>
      </trkpt>
      <trkpt lat="40.457150" lon="-5.256150">
        <ele>1992.0</ele>
        <time>2015-07-25T12:38:44Z</time>
      </trkpt>
      <trkpt lat="40.457033" lon="-5.256183">
        <ele>1994.0</ele>
        <time>2015-07-25T12:38:45Z</time>
      </trkpt>
      <trkpt lat="40.456933" lon="-5.256233">
        <ele>1995.0</ele>
        <time>2015-07-25T12:38:46Z</time>
      </trkpt>
      <trkpt lat="40.456850" lon="-5.256283">
        <ele>1996.0</ele>
        <time>2015-07-25T12:38:47Z</time>
      </trkpt>
      <trkpt lat="40.456783" lon="-5.256350">
        <ele>1996.0</ele>
        <time>2015-07-25T12:38:48Z</time>
      </trkpt>
      <trkpt lat="40.456767" lon="-5.256450">
        <ele>1994.0</ele>
        <time>2015-07-25T12:38:49Z</time>
      </trkpt>
      <trkpt lat="40.456783" lon="-5.256567">
        <ele>1994.0</ele>
        <time>2015-07-25T12:38:50Z</time>
      </trkpt>
      <trkpt lat="40.456833" lon="-5.256650">
        <ele>1995.0</ele>
        <time>2015-07-25T12:38:51Z</time>
      </trkpt>
      <trkpt lat="40.456900" lon="-5.256667">
        <ele>1997.0</ele>
        <time>2015-07-25T12:38:52Z</time>
      </trkpt>
      <trkpt lat="40.456983" lon="-5.256650">
        <ele>1997.0</ele>
        <time>2015-07-25T12:38:53Z</time>
      </trkpt>
      <trkpt lat="40.457067" lon="-5.256567">
        <ele>1998.0</ele>
        <time>2015-07-25T12:38:54Z</time>
      </trkpt>
      <trkpt lat="40.457117" lon="-5.256450">
        <ele>1997.0</ele>
        <time>2015-07-25T12:38:55Z</time>
      </trkpt>
      <trkpt lat="40.457117" lon="-5.256283">
        <ele>1996.0</ele>
        <time>2015-07-25T12:38:56Z</time>
      </trkpt>
      <trkpt lat="40.457067" lon="-5.256117">
        <ele>1993.0</ele>
        <time>2015-07-25T12:38:57Z</time>
      </trkpt>
      <trkpt lat="40.456950" lon="-5.256000">
        <ele>1991.0</ele>
        <time>2015-07-25T12:38:58Z</time>
      </trkpt>
      <trkpt lat="40.456800" lon="-5.255917">
        <ele>1990.0</ele>
        <time>2015-07-25T12:38:59Z</time>
      </trkpt>
      <trkpt lat="40.456650" lon="-5.255900">
        <ele>1993.0</ele>
        <time>2015-07-25T12:39:00Z</time>
      </trkpt>
      <trkpt lat="40.456517" lon="-5.255883">
        <ele>1997.0</ele>
        <time>2015-07-25T12:39:01Z</time>
      </trkpt>
      <trkpt lat="40.456417" lon="-5.255883">
        <ele>2000.0</ele>
        <time>2015-07-25T12:39:02Z</time>
      </trkpt>
      <trkpt lat="40.456317" lon="-5.255883">
        <ele>2003.0</ele>
        <time>2015-07-25T12:39:03Z</time>
      </trkpt>
      <trkpt lat="40.456217" lon="-5.255883">
        <ele>2005.0</ele>
        <time>2015-07-25T12:39:04Z</time>
      </trkpt>
      <trkpt lat="40.456133" lon="-5.255917">
        <ele>2006.0</ele>
        <time>2015-07-25T12:39:05Z</time>
      </trkpt>
      <trkpt lat="40.456033" lon="-5.255967">
        <ele>2006.0</ele>
        <time>2015-07-25T12:39:06Z</time>
      </trkpt>
      <trkpt lat="40.455967" lon="-5.256033">
        <ele>2007.0</ele>
        <time>2015-07-25T12:39:07Z</time>
      </trkpt>
      <trkpt lat="40.455917" lon="-5.256117">
        <ele>2009.0</ele>
        <time>2015-07-25T12:39:08Z</time>
      </trkpt>
      <trkpt lat="40.455933" lon="-5.256200">
        <ele>2010.0</ele>
        <time>2015-07-25T12:39:09Z</time>
      </trkpt>
      <trkpt lat="40.455983" lon="-5.256250">
        <ele>2009.0</ele>
        <time>2015-07-25T12:39:10Z</time>
      </trkpt>
      <trkpt lat="40.456067" lon="-5.256250">
        <ele>2010.0</ele>
        <time>2015-07-25T12:39:11Z</time>
      </trkpt>
      <trkpt lat="40.456150" lon="-5.256233">
        <ele>2011.0</ele>
        <time>2015-07-25T12:39:12Z</time>
      </trkpt>
      <trkpt lat="40.456250" lon="-5.256167">
        <ele>2013.0</ele>
        <time>2015-07-25T12:39:13Z</time>
      </trkpt>
      <trkpt lat="40.456317" lon="-5.256050">
        <ele>2014.0</ele>
        <time>2015-07-25T12:39:14Z</time>
      </trkpt>
      <trkpt lat="40.456350" lon="-5.255883">
        <ele>2015.0</ele>
        <time>2015-07-25T12:39:15Z</time>
      </trkpt>
      <trkpt lat="40.456367" lon="-5.255683">
        <ele>2016.0</ele>
        <time>2015-07-25T12:39:16Z</time>
      </trkpt>
      <trkpt lat="40.456317" lon="-5.255500">
        <ele>2021.0</ele>
        <time>2015-07-25T12:39:17Z</time>
      </trkpt>
      <trkpt lat="40.456267" lon="-5.255367">
        <ele>2024.0</ele>
        <time>2015-07-25T12:39:18Z</time>
      </trkpt>
      <trkpt lat="40.456167" lon="-5.255283">
        <ele>2026.0</ele>
        <time>2015-07-25T12:39:19Z</time>
      </trkpt>
      <trkpt lat="40.456067" lon="-5.255200">
        <ele>2027.0</ele>
        <time>2015-07-25T12:39:20Z</time>
      </trkpt>
      <trkpt lat="40.455933" lon="-5.255150">
        <ele>2028.0</ele>
        <time>2015-07-25T12:39:21Z</time>
      </trkpt>
      <trkpt lat="40.455800" lon="-5.255133">
        <ele>2031.0</ele>
        <time>2015-07-25T12:39:22Z</time>
      </trkpt>
      <trkpt lat="40.455700" lon="-5.255150">
        <ele>2033.0</ele>
        <time>2015-07-25T12:39:23Z</time>
      </trkpt>
      <trkpt lat="40.455617" lon="-5.255183">
        <ele>2036.0</ele>
        <time>2015-07-25T12:39:24Z</time>
      </trkpt>
      <trkpt lat="40.455567" lon="-5.255250">
        <ele>2039.0</ele>
        <time>2015-07-25T12:39:25Z</time>
      </trkpt>
      <trkpt lat="40.455533" lon="-5.255300">
        <ele>2040.0</ele>
        <time>2015-07-25T12:39:26Z</time>
      </trkpt>
      <trkpt lat="40.455533" lon="-5.255367">
        <ele>2041.0</ele>
        <time>2015-07-25T12:39:27Z</time>
      </trkpt>
      <trkpt lat="40.455517" lon="-5.255417">
        <ele>2040.0</ele>
        <time>2015-07-25T12:39:28Z</time>
      </trkpt>
      <trkpt lat="40.455517" lon="-5.255500">
        <ele>2039.0</ele>
        <time>2015-07-25T12:39:29Z</time>
      </trkpt>
      <trkpt lat="40.455517" lon="-5.255567">
        <ele>2038.0</ele>
        <time>2015-07-25T12:39:30Z</time>
      </trkpt>
      <trkpt lat="40.455483" lon="-5.255667">
        <ele>2038.0</ele>
        <time>2015-07-25T12:39:31Z</time>
      </trkpt>
      <trkpt lat="40.455450" lon="-5.255750">
        <ele>2037.0</ele>
        <time>2015-07-25T12:39:32Z</time>
      </trkpt>
      <trkpt lat="40.455383" lon="-5.255817">
        <ele>2037.0</ele>
        <time>2015-07-25T12:39:33Z</time>
      </trkpt>
      <trkpt lat="40.455300" lon="-5.255867">
        <ele>2037.0</ele>
        <time>2015-07-25T12:39:34Z</time>
      </trkpt>
      <trkpt lat="40.455217" lon="-5.255900">
        <ele>2038.0</ele>
        <time>2015-07-25T12:39:35Z</time>
      </trkpt>
      <trkpt lat="40.455133" lon="-5.255933">
        <ele>2039.0</ele>
        <time>2015-07-25T12:39:36Z</time>
      </trkpt>
      <trkpt lat="40.455067" lon="-5.255950">
        <ele>2040.0</ele>
        <time>2015-07-25T12:39:37Z</time>
      </trkpt>
      <trkpt lat="40.455000" lon="-5.255967">
        <ele>2040.0</ele>
        <time>2015-07-25T12:39:38Z</time>
      </trkpt>
      <trkpt lat="40.454933" lon="-5.256000">
        <ele>2040.0</ele>
        <time>2015-07-25T12:39:39Z</time>
      </trkpt>
      <trkpt lat="40.454867" lon="-5.256033">
        <ele>2041.0</ele>
        <time>2015-07-25T12:39:40Z</time>
      </trkpt>
      <trkpt lat="40.454833" lon="-5.256083">
        <ele>2042.0</ele>
        <time>2015-07-25T12:39:41Z</time>
      </trkpt>
      <trkpt lat="40.454800" lon="-5.256133">
        <ele>2042.0</ele>
        <time>2015-07-25T12:39:42Z</time>
      </trkpt>
      <trkpt lat="40.454800" lon="-5.256200">
        <ele>2042.0</ele>
        <time>2015-07-25T12:39:43Z</time>
      </trkpt>
      <trkpt lat="40.454850" lon="-5.256267">
        <ele>2042.0</ele>
        <time>2015-07-25T12:39:44Z</time>
      </trkpt>
      <trkpt lat="40.454917" lon="-5.256300">
        <ele>2041.0</ele>
        <time>2015-07-25T12:39:45Z</time>
      </trkpt>
      <trkpt lat="40.455000" lon="-5.256300">
        <ele>2041.0</ele>
        <time>2015-07-25T12:39:46Z</time>
      </trkpt>
      <trkpt lat="40.455083" lon="-5.256283">
        <ele>2043.0</ele>
        <time>2015-07-25T12:39:47Z</time>
      </trkpt>
      <trkpt lat="40.455167" lon="-5.256217">
        <ele>2044.0</ele>
        <time>2015-07-25T12:39:48Z</time>
      </trkpt>
      <trkpt lat="40.455217" lon="-5.256117">
        <ele>2044.0</ele>
        <time>2015-07-25T12:39:49Z</time>
      </trkpt>
      <trkpt lat="40.455267" lon="-5.255983">
        <ele>2043.0</ele>
        <time>2015-07-25T12:39:50Z</time>
      </trkpt>
      <trkpt lat="40.455317" lon="-5.255833">
        <ele>2041.0</ele>
        <time>2015-07-25T12:39:51Z</time>
      </trkpt>
      <trkpt lat="40.455367" lon="-5.255683">
        <ele>2041.0</ele>
        <time>2015-07-25T12:39:52Z</time>
      </trkpt>
      <trkpt lat="40.455417" lon="-5.255550">
        <ele>2041.0</ele>
        <time>2015-07-25T12:39:53Z</time>
      </trkpt>
      <trkpt lat="40.455500" lon="-5.255450">
        <ele>2041.0</ele>
        <time>2015-07-25T12:39:54Z</time>
      </trkpt>
      <trkpt lat="40.455583" lon="-5.255400">
        <ele>2040.0</ele>
        <time>2015-07-25T12:39:55Z</time>
      </trkpt>
      <trkpt lat="40.455667" lon="-5.255400">
        <ele>2040.0</ele>
        <time>2015-07-25T12:39:56Z</time>
      </trkpt>
      <trkpt lat="40.455733" lon="-5.255467">
        <ele>2040.0</ele>
        <time>2015-07-25T12:39:57Z</time>
      </trkpt>
      <trkpt lat="40.455783" lon="-5.255550">
        <ele>2041.0</ele>
        <time>2015-07-25T12:39:58Z</time>
      </trkpt>
      <trkpt lat="40.455817" lon="-5.255617">
        <ele>2044.0</ele>
        <time>2015-07-25T12:39:59Z</time>
      </trkpt>
      <trkpt lat="40.455850" lon="-5.255683">
        <ele>2046.0</ele>
        <time>2015-07-25T12:40:00Z</time>
      </trkpt>
      <trkpt lat="40.455900" lon="-5.255717">
        <ele>2049.0</ele>
        <time>2015-07-25T12:40:01Z</time>
      </trkpt>
      <trkpt lat="40.455950" lon="-5.255750">
        <ele>2051.0</ele>
        <time>2015-07-25T12:40:02Z</time>
      </trkpt>
      <trkpt lat="40.455983" lon="-5.255800">
        <ele>2052.0</ele>
        <time>2015-07-25T12:40:03Z</time>
      </trkpt>
      <trkpt lat="40.456017" lon="-5.255850">
        <ele>2052.0</ele>
        <time>2015-07-25T12:40:04Z</time>
      </trkpt>
      <trkpt lat="40.456017" lon="-5.255933">
        <ele>2051.0</ele>
        <time>2015-07-25T12:40:05Z</time>
      </trkpt>
      <trkpt lat="40.455967" lon="-5.256050">
        <ele>2049.0</ele>
        <time>2015-07-25T12:40:06Z</time>
      </trkpt>
      <trkpt lat="40.455867" lon="-5.256133">
        <ele>2048.0</ele>
        <time>2015-07-25T12:40:07Z</time>
      </trkpt>
      <trkpt lat="40.455767" lon="-5.256183">
        <ele>2051.0</ele>
        <time>2015-07-25T12:40:08Z</time>
      </trkpt>
      <trkpt lat="40.455650" lon="-5.256133">
        <ele>2054.0</ele>
        <time>2015-07-25T12:40:09Z</time>
      </trkpt>
      <trkpt lat="40.455550" lon="-5.256033">
        <ele>2056.0</ele>
        <time>2015-07-25T12:40:10Z</time>
      </trkpt>
      <trkpt lat="40.455483" lon="-5.255883">
        <ele>2056.0</ele>
        <time>2015-07-25T12:40:11Z</time>
      </trkpt>
      <trkpt lat="40.455433" lon="-5.255750">
        <ele>2056.0</ele>
        <time>2015-07-25T12:40:12Z</time>
      </trkpt>
      <trkpt lat="40.455417" lon="-5.255583">
        <ele>2056.0</ele>
        <time>2015-07-25T12:40:13Z</time>
      </trkpt>
      <trkpt lat="40.455417" lon="-5.255433">
        <ele>2056.0</ele>
        <time>2015-07-25T12:40:14Z</time>
      </trkpt>
      <trkpt lat="40.455467" lon="-5.255283">
        <ele>2057.0</ele>
        <time>2015-07-25T12:40:15Z</time>
      </trkpt>
      <trkpt lat="40.455550" lon="-5.255167">
        <ele>2058.0</ele>
        <time>2015-07-25T12:40:16Z</time>
      </trkpt>
      <trkpt lat="40.455633" lon="-5.255100">
        <ele>2060.0</ele>
        <time>2015-07-25T12:40:17Z</time>
      </trkpt>
      <trkpt lat="40.455683" lon="-5.255100">
        <ele>2063.0</ele>
        <time>2015-07-25T12:40:18Z</time>
      </trkpt>
      <trkpt lat="40.455733" lon="-5.255117">
        <ele>2066.0</ele>
        <time>2015-07-25T12:40:19Z</time>
      </trkpt>
      <trkpt lat="40.455767" lon="-5.255150">
        <ele>2066.0</ele>
        <time>2015-07-25T12:40:20Z</time>
      </trkpt>
      <trkpt lat="40.455800" lon="-5.255183">
        <ele>2066.0</ele>
        <time>2015-07-25T12:40:21Z</time>
      </trkpt>
      <trkpt lat="40.455850" lon="-5.255250">
        <ele>2066.0</ele>
        <time>2015-07-25T12:40:22Z</time>
      </trkpt>
      <trkpt lat="40.455883" lon="-5.255333">
        <ele>2066.0</ele>
        <time>2015-07-25T12:40:23Z</time>
      </trkpt>
      <trkpt lat="40.455850" lon="-5.255417">
        <ele>2066.0</ele>
        <time>2015-07-25T12:40:24Z</time>
      </trkpt>
      <trkpt lat="40.455783" lon="-5.255500">
        <ele>2065.0</ele>
        <time>2015-07-25T12:40:25Z</time>
      </trkpt>
      <trkpt lat="40.455683" lon="-5.255533">
        <ele>2066.0</ele>
        <time>2015-07-25T12:40:26Z</time>
      </trkpt>
      <trkpt lat="40.455600" lon="-5.255550">
        <ele>2069.0</ele>
        <time>2015-07-25T12:40:27Z</time>
      </trkpt>
      <trkpt lat="40.455533" lon="-5.255517">
        <ele>2072.0</ele>
        <time>2015-07-25T12:40:28Z</time>
      </trkpt>
      <trkpt lat="40.455450" lon="-5.255433">
        <ele>2073.0</ele>
        <time>2015-07-25T12:40:29Z</time>
      </trkpt>
      <trkpt lat="40.455383" lon="-5.255300">
        <ele>2073.0</ele>
        <time>2015-07-25T12:40:30Z</time>
      </trkpt>
      <trkpt lat="40.455300" lon="-5.255150">
        <ele>2072.0</ele>
        <time>2015-07-25T12:40:31Z</time>
      </trkpt>
      <trkpt lat="40.455233" lon="-5.254983">
        <ele>2073.0</ele>
        <time>2015-07-25T12:40:32Z</time>
      </trkpt>
      <trkpt lat="40.455217" lon="-5.254800">
        <ele>2075.0</ele>
        <time>2015-07-25T12:40:33Z</time>
      </trkpt>
      <trkpt lat="40.455250" lon="-5.254633">
        <ele>2076.0</ele>
        <time>2015-07-25T12:40:34Z</time>
      </trkpt>
      <trkpt lat="40.455300" lon="-5.254500">
        <ele>2076.0</ele>
        <time>2015-07-25T12:40:35Z</time>
      </trkpt>
      <trkpt lat="40.455367" lon="-5.254400">
        <ele>2077.0</ele>
        <time>2015-07-25T12:40:36Z</time>
      </trkpt>
      <trkpt lat="40.455433" lon="-5.254283">
        <ele>2078.0</ele>
        <time>2015-07-25T12:40:37Z</time>
      </trkpt>
      <trkpt lat="40.455500" lon="-5.254183">
        <ele>2081.0</ele>
        <time>2015-07-25T12:40:38Z</time>
      </trkpt>
      <trkpt lat="40.455550" lon="-5.254067">
        <ele>2083.0</ele>
        <time>2015-07-25T12:40:39Z</time>
      </trkpt>
      <trkpt lat="40.455600" lon="-5.253950">
        <ele>2085.0</ele>
        <time>2015-07-25T12:40:40Z</time>
      </trkpt>
      <trkpt lat="40.455650" lon="-5.253850">
        <ele>2086.0</ele>
        <time>2015-07-25T12:40:41Z</time>
      </trkpt>
      <trkpt lat="40.455700" lon="-5.253800">
        <ele>2086.0</ele>
        <time>2015-07-25T12:40:42Z</time>
      </trkpt>
      <trkpt lat="40.455750" lon="-5.253800">
        <ele>2084.0</ele>
        <time>2015-07-25T12:40:43Z</time>
      </trkpt>
      <trkpt lat="40.455817" lon="-5.253833">
        <ele>2083.0</ele>
        <time>2015-07-25T12:40:44Z</time>
      </trkpt>
      <trkpt lat="40.455883" lon="-5.253917">
        <ele>2084.0</ele>
        <time>2015-07-25T12:40:45Z</time>
      </trkpt>
      <trkpt lat="40.455883" lon="-5.254017">
        <ele>2087.0</ele>
        <time>2015-07-25T12:40:46Z</time>
      </trkpt>
      <trkpt lat="40.455867" lon="-5.254083">
        <ele>2090.0</ele>
        <time>2015-07-25T12:40:47Z</time>
      </trkpt>
      <trkpt lat="40.455817" lon="-5.254150">
        <ele>2092.0</ele>
        <time>2015-07-25T12:40:48Z</time>
      </trkpt>
      <trkpt lat="40.455767" lon="-5.254200">
        <ele>2093.0</ele>
        <time>2015-07-25T12:40:49Z</time>
      </trkpt>
      <trkpt lat="40.455700" lon="-5.254250">
        <ele>2094.0</ele>
        <time>2015-07-25T12:40:50Z</time>
      </trkpt>
      <trkpt lat="40.455633" lon="-5.254283">
        <ele>2096.0</ele>
        <time>2015-07-25T12:40:51Z</time>
      </trkpt>
      <trkpt lat="40.455583" lon="-5.254300">
        <ele>2098.0</ele>
        <time>2015-07-25T12:40:52Z</time>
      </trkpt>
      <trkpt lat="40.455583" lon="-5.254350">
        <ele>2099.0</ele>
        <time>2015-07-25T12:40:53Z</time>
      </trkpt>
      <trkpt lat="40.455617" lon="-5.254400">
        <ele>2098.0</ele>
        <time>2015-07-25T12:40:54Z</time>
      </trkpt>
      <trkpt lat="40.455683" lon="-5.254450">
        <ele>2096.0</ele>
        <time>2015-07-25T12:40:55Z</time>
      </trkpt>
      <trkpt lat="40.455750" lon="-5.254500">
        <ele>2096.0</ele>
        <time>2015-07-25T12:40:56Z</time>
      </trkpt>
      <trkpt lat="40.455833" lon="-5.254550">
        <ele>2097.0</ele>
        <time>2015-07-25T12:40:57Z</time>
      </trkpt>
      <trkpt lat="40.455900" lon="-5.254567">
        <ele>2098.0</ele>
        <time>2015-07-25T12:40:58Z</time>
      </trkpt>
      <trkpt lat="40.456000" lon="-5.254567">
        <ele>2099.0</ele>
        <time>2015-07-25T12:40:59Z</time>
      </trkpt>
      <trkpt lat="40.456083" lon="-5.254550">
        <ele>2099.0</ele>
        <time>2015-07-25T12:41:00Z</time>
      </trkpt>
      <trkpt lat="40.456183" lon="-5.254533">
        <ele>2099.0</ele>
        <time>2015-07-25T12:41:01Z</time>
      </trkpt>
      <trkpt lat="40.456267" lon="-5.254533">
        <ele>2100.0</ele>
        <time>2015-07-25T12:41:02Z</time>
      </trkpt>
      <trkpt lat="40.456333" lon="-5.254567">
        <ele>2100.0</ele>
        <time>2015-07-25T12:41:03Z</time>
      </trkpt>
      <trkpt lat="40.456383" lon="-5.254617">
        <ele>2101.0</ele>
        <time>2015-07-25T12:41:04Z</time>
      </trkpt>
      <trkpt lat="40.456417" lon="-5.254683">
        <ele>2101.0</ele>
        <time>2015-07-25T12:41:05Z</time>
      </trkpt>
      <trkpt lat="40.456433" lon="-5.254750">
        <ele>2100.0</ele>
        <time>2015-07-25T12:41:06Z</time>
      </trkpt>
      <trkpt lat="40.456417" lon="-5.254817">
        <ele>2099.0</ele>
        <time>2015-07-25T12:41:07Z</time>
      </trkpt>
      <trkpt lat="40.456367" lon="-5.254883">
        <ele>2099.0</ele>
        <time>2015-07-25T12:41:08Z</time>
      </trkpt>
      <trkpt lat="40.456300" lon="-5.254917">
        <ele>2100.0</ele>
        <time>2015-07-25T12:41:09Z</time>
      </trkpt>
      <trkpt lat="40.456217" lon="-5.254933">
        <ele>2101.0</ele>
        <time>2015-07-25T12:41:10Z</time>
      </trkpt>
      <trkpt lat="40.456133" lon="-5.254900">
        <ele>2102.0</ele>
        <time>2015-07-25T12:41:11Z</time>
      </trkpt>
      <trkpt lat="40.456050" lon="-5.254850">
        <ele>2102.0</ele>
        <time>2015-07-25T12:41:12Z</time>
      </trkpt>
      <trkpt lat="40.455950" lon="-5.254800">
        <ele>2103.0</ele>
        <time>2015-07-25T12:41:13Z</time>
      </trkpt>
      <trkpt lat="40.455867" lon="-5.254750">
        <ele>2103.0</ele>
        <time>2015-07-25T12:41:14Z</time>
      </trkpt>
      <trkpt lat="40.455783" lon="-5.254717">
        <ele>2103.0</ele>
        <time>2015-07-25T12:41:15Z</time>
      </trkpt>
      <trkpt lat="40.455700" lon="-5.254700">
        <ele>2103.0</ele>
        <time>2015-07-25T12:41:16Z</time>
      </trkpt>
      <trkpt lat="40.455633" lon="-5.254700">
        <ele>2102.0</ele>
        <time>2015-07-25T12:41:17Z</time>
      </trkpt>
      <trkpt lat="40.455550" lon="-5.254717">
        <ele>2100.0</ele>
        <time>2015-07-25T12:41:18Z</time>
      </trkpt>
      <trkpt lat="40.455483" lon="-5.254767">
        <ele>2099.0</ele>
        <time>2015-07-25T12:41:19Z</time>
      </trkpt>
      <trkpt lat="40.455400" lon="-5.254833">
        <ele>2099.0</ele>
        <time>2015-07-25T12:41:20Z</time>
      </trkpt>
      <trkpt lat="40.455333" lon="-5.254883">
        <ele>2100.0</ele>
        <time>2015-07-25T12:41:21Z</time>
      </trkpt>
      <trkpt lat="40.455250" lon="-5.254900">
        <ele>2103.0</ele>
        <time>2015-07-25T12:41:22Z</time>
      </trkpt>
      <trkpt lat="40.455183" lon="-5.254917">
        <ele>2105.0</ele>
        <time>2015-07-25T12:41:23Z</time>
      </trkpt>
      <trkpt lat="40.455117" lon="-5.254950">
        <ele>2106.0</ele>
        <time>2015-07-25T12:41:24Z</time>
      </trkpt>
      <trkpt lat="40.455050" lon="-5.255000">
        <ele>2106.0</ele>
        <time>2015-07-25T12:41:25Z</time>
      </trkpt>
      <trkpt lat="40.454983" lon="-5.255050">
        <ele>2106.0</ele>
        <time>2015-07-25T12:41:26Z</time>
      </trkpt>
      <trkpt lat="40.454950" lon="-5.255117">
        <ele>2107.0</ele>
        <time>2015-07-25T12:41:27Z</time>
      </trkpt>
      <trkpt lat="40.454917" lon="-5.255183">
        <ele>2107.0</ele>
        <time>2015-07-25T12:41:28Z</time>
      </trkpt>
      <trkpt lat="40.454883" lon="-5.255233">
        <ele>2107.0</ele>
        <time>2015-07-25T12:41:29Z</time>
      </trkpt>
      <trkpt lat="40.454850" lon="-5.255283">
        <ele>2107.0</ele>
        <time>2015-07-25T12:41:30Z</time>
      </trkpt>
      <trkpt lat="40.454833" lon="-5.255333">
        <ele>2106.0</ele>
        <time>2015-07-25T12:41:31Z</time>
      </trkpt>
      <trkpt lat="40.454833" lon="-5.255400">
        <ele>2105.0</ele>
        <time>2015-07-25T12:41:32Z</time>
      </trkpt>
      <trkpt lat="40.454867" lon="-5.255450">
        <ele>2103.0</ele>
        <time>2015-07-25T12:41:33Z</time>
      </trkpt>
      <trkpt lat="40.454917" lon="-5.255500">
        <ele>2102.0</ele>
        <time>2015-07-25T12:41:34Z</time>
      </trkpt>
      <trkpt lat="40.455000" lon="-5.255533">
        <ele>2101.0</ele>
        <time>2015-07-25T12:41:35Z</time>
      </trkpt>
      <trkpt lat="40.455100" lon="-5.255517">
        <ele>2102.0</ele>
        <time>2015-07-25T12:41:36Z</time>
      </trkpt>
      <trkpt lat="40.455200" lon="-5.255450">
        <ele>2102.0</ele>
        <time>2015-07-25T12:41:37Z</time>
      </trkpt>
      <trkpt lat="40.455283" lon="-5.255333">
        <ele>2104.0</ele>
        <time>2015-07-25T12:41:38Z</time>
      </trkpt>
      <trkpt lat="40.455350" lon="-5.255200">
        <ele>2106.0</ele>
        <time>2015-07-25T12:41:39Z</time>
      </trkpt>
      <trkpt lat="40.455417" lon="-5.255067">
        <ele>2109.0</ele>
        <time>2015-07-25T12:41:40Z</time>
      </trkpt>
      <trkpt lat="40.455467" lon="-5.254917">
        <ele>2112.0</ele>
        <time>2015-07-25T12:41:41Z</time>
      </trkpt>
      <trkpt lat="40.455500" lon="-5.254750">
        <ele>2115.0</ele>
        <time>2015-07-25T12:41:42Z</time>
      </trkpt>
      <trkpt lat="40.455533" lon="-5.254600">
        <ele>2117.0</ele>
        <time>2015-07-25T12:41:43Z</time>
      </trkpt>
      <trkpt lat="40.455533" lon="-5.254433">
        <ele>2120.0</ele>
        <time>2015-07-25T12:41:44Z</time>
      </trkpt>
      <trkpt lat="40.455517" lon="-5.254283">
        <ele>2123.0</ele>
        <time>2015-07-25T12:41:45Z</time>
      </trkpt>
      <trkpt lat="40.455467" lon="-5.254133">
        <ele>2122.0</ele>
        <time>2015-07-25T12:41:46Z</time>
      </trkpt>
      <trkpt lat="40.455350" lon="-5.254017">
        <ele>2120.0</ele>
        <time>2015-07-25T12:41:47Z</time>
      </trkpt>
      <trkpt lat="40.455233" lon="-5.253933">
        <ele>2120.0</ele>
        <time>2015-07-25T12:41:48Z</time>
      </trkpt>
      <trkpt lat="40.455117" lon="-5.253900">
        <ele>2123.0</ele>
        <time>2015-07-25T12:41:49Z</time>
      </trkpt>
      <trkpt lat="40.455017" lon="-5.253883">
        <ele>2127.0</ele>
        <time>2015-07-25T12:41:50Z</time>
      </trkpt>
      <trkpt lat="40.454933" lon="-5.253883">
        <ele>2130.0</ele>
        <time>2015-07-25T12:41:51Z</time>
      </trkpt>
      <trkpt lat="40.454883" lon="-5.253900">
        <ele>2133.0</ele>
        <time>2015-07-25T12:41:52Z</time>
      </trkpt>
      <trkpt lat="40.454833" lon="-5.253933">
        <ele>2133.0</ele>
        <time>2015-07-25T12:41:53Z</time>
      </trkpt>
      <trkpt lat="40.454833" lon="-5.254000">
        <ele>2132.0</ele>
        <time>2015-07-25T12:41:54Z</time>
      </trkpt>
      <trkpt lat="40.454850" lon="-5.254083">
        <ele>2131.0</ele>
        <time>2015-07-25T12:41:55Z</time>
      </trkpt>
      <trkpt lat="40.454900" lon="-5.254133">
        <ele>2131.0</ele>
        <time>2015-07-25T12:41:56Z</time>
      </trkpt>
      <trkpt lat="40.454983" lon="-5.254150">
        <ele>2132.0</ele>
        <time>2015-07-25T12:41:57Z</time>
      </trkpt>
      <trkpt lat="40.455067" lon="-5.254133">
        <ele>2134.0</ele>
        <time>2015-07-25T12:41:58Z</time>
      </trkpt>
      <trkpt lat="40.455150" lon="-5.254067">
        <ele>2137.0</ele>
        <time>2015-07-25T12:41:59Z</time>
      </trkpt>
      <trkpt lat="40.455233" lon="-5.253967">
        <ele>2141.0</ele>
        <time>2015-07-25T12:42:00Z</time>
      </trkpt>
      <trkpt lat="40.455283" lon="-5.253833">
        <ele>2144.0</ele>
        <time>2015-07-25T12:42:01Z</time>
      </trkpt>
      <trkpt lat="40.455283" lon="-5.253667">
        <ele>2146.0</ele>
        <time>2015-07-25T12:42:02Z</time>
      </trkpt>
      <trkpt lat="40.455267" lon="-5.253500">
        <ele>2146.0</ele>
        <time>2015-07-25T12:42:03Z</time>
      </trkpt>
      <trkpt lat="40.455217" lon="-5.253333">
        <ele>2147.0</ele>
        <time>2015-07-25T12:42:04Z</time>
      </trkpt>
      <trkpt lat="40.455133" lon="-5.253200">
        <ele>2147.0</ele>
        <time>2015-07-25T12:42:05Z</time>
      </trkpt>
      <trkpt lat="40.455017" lon="-5.253083">
        <ele>2148.0</ele>
        <time>2015-07-25T12:42:06Z</time>
      </trkpt>
      <trkpt lat="40.454900" lon="-5.253017">
        <ele>2150.0</ele>
        <time>2015-07-25T12:42:07Z</time>
      </trkpt>
      <trkpt lat="40.454783" lon="-5.253000">
        <ele>2151.0</ele>
        <time>2015-07-25T12:42:08Z</time>
      </trkpt>
      <trkpt lat="40.454700" lon="-5.253017">
        <ele>2153.0</ele>
        <time>2015-07-25T12:42:09Z</time>
      </trkpt>
      <trkpt lat="40.454633" lon="-5.253083">
        <ele>2154.0</ele>
        <time>2015-07-25T12:42:10Z</time>
      </trkpt>
      <trkpt lat="40.454600" lon="-5.253150">
        <ele>2154.0</ele>
        <time>2015-07-25T12:42:11Z</time>
      </trkpt>
      <trkpt lat="40.454600" lon="-5.253233">
        <ele>2155.0</ele>
        <time>2015-07-25T12:42:12Z</time>
      </trkpt>
      <trkpt lat="40.454617" lon="-5.253300">
        <ele>2156.0</ele>
        <time>2015-07-25T12:42:13Z</time>
      </trkpt>
      <trkpt lat="40.454650" lon="-5.253350">
        <ele>2157.0</ele>
        <time>2015-07-25T12:42:14Z</time>
      </trkpt>
      <trkpt lat="40.454700" lon="-5.253383">
        <ele>2158.0</ele>
        <time>2015-07-25T12:42:15Z</time>
      </trkpt>
      <trkpt lat="40.454783" lon="-5.253367">
        <ele>2160.0</ele>
        <time>2015-07-25T12:42:16Z</time>
      </trkpt>
      <trkpt lat="40.454883" lon="-5.253283">
        <ele>2160.0</ele>
        <time>2015-07-25T12:42:17Z</time>
      </trkpt>
      <trkpt lat="40.454967" lon="-5.253133">
        <ele>2161.0</ele>
        <time>2015-07-25T12:42:18Z</time>
      </trkpt>
      <trkpt lat="40.454983" lon="-5.252933">
        <ele>2162.0</ele>
        <time>2015-07-25T12:42:19Z</time>
      </trkpt>
      <trkpt lat="40.454967" lon="-5.252733">
        <ele>2167.0</ele>
        <time>2015-07-25T12:42:20Z</time>
      </trkpt>
      <trkpt lat="40.454917" lon="-5.252567">
        <ele>2171.0</ele>
        <time>2015-07-25T12:42:21Z</time>
      </trkpt>
      <trkpt lat="40.454833" lon="-5.252433">
        <ele>2172.0</ele>
        <time>2015-07-25T12:42:22Z</time>
      </trkpt>
      <trkpt lat="40.454717" lon="-5.252367">
        <ele>2171.0</ele>
        <time>2015-07-25T12:42:23Z</time>
      </trkpt>
      <trkpt lat="40.454583" lon="-5.252333">
        <ele>2170.0</ele>
        <time>2015-07-25T12:42:24Z</time>
      </trkpt>
      <trkpt lat="40.454467" lon="-5.252350">
        <ele>2171.0</ele>
        <time>2015-07-25T12:42:25Z</time>
      </trkpt>
      <trkpt lat="40.454383" lon="-5.252417">
        <ele>2172.0</ele>
        <time>2015-07-25T12:42:26Z</time>
      </trkpt>
      <trkpt lat="40.454350" lon="-5.252483">
        <ele>2175.0</ele>
        <time>2015-07-25T12:42:27Z</time>
      </trkpt>
      <trkpt lat="40.454333" lon="-5.252550">
        <ele>2177.0</ele>
        <time>2015-07-25T12:42:28Z</time>
      </trkpt>
      <trkpt lat="40.454350" lon="-5.252600">
        <ele>2179.0</ele>
        <time>2015-07-25T12:42:29Z</time>
      </trkpt>
      <trkpt lat="40.454383" lon="-5.252633">
        <ele>2180.0</ele>
        <time>2015-07-25T12:42:30Z</time>
      </trkpt>
      <trkpt lat="40.454467" lon="-5.252650">
        <ele>2182.0</ele>
        <time>2015-07-25T12:42:31Z</time>
      </trkpt>
      <trkpt lat="40.454550" lon="-5.252617">
        <ele>2184.0</ele>
        <time>2015-07-25T12:42:32Z</time>
      </trkpt>
      <trkpt lat="40.454633" lon="-5.252500">
        <ele>2186.0</ele>
        <time>2015-07-25T12:42:33Z</time>
      </trkpt>
      <trkpt lat="40.454683" lon="-5.252333">
        <ele>2188.0</ele>
        <time>2015-07-25T12:42:34Z</time>
      </trkpt>
      <trkpt lat="40.454667" lon="-5.252133">
        <ele>2189.0</ele>
        <time>2015-07-25T12:42:35Z</time>
      </trkpt>
      <trkpt lat="40.454600" lon="-5.251950">
        <ele>2190.0</ele>
        <time>2015-07-25T12:42:36Z</time>
      </trkpt>
      <trkpt lat="40.454500" lon="-5.251783">
        <ele>2192.0</ele>
        <time>2015-07-25T12:42:37Z</time>
      </trkpt>
      <trkpt lat="40.454383" lon="-5.251700">
        <ele>2195.0</ele>
        <time>2015-07-25T12:42:38Z</time>
      </trkpt>
      <trkpt lat="40.454267" lon="-5.251633">
        <ele>2198.0</ele>
        <time>2015-07-25T12:42:39Z</time>
      </trkpt>
      <trkpt lat="40.454150" lon="-5.251617">
        <ele>2201.0</ele>
        <time>2015-07-25T12:42:40Z</time>
      </trkpt>
      <trkpt lat="40.454067" lon="-5.251617">
        <ele>2204.0</ele>
        <time>2015-07-25T12:42:41Z</time>
      </trkpt>
      <trkpt lat="40.453983" lon="-5.251650">
        <ele>2205.0</ele>
        <time>2015-07-25T12:42:42Z</time>
      </trkpt>
      <trkpt lat="40.453933" lon="-5.251717">
        <ele>2205.0</ele>
        <time>2015-07-25T12:42:43Z</time>
      </trkpt>
      <trkpt lat="40.453917" lon="-5.251800">
        <ele>2205.0</ele>
        <time>2015-07-25T12:42:44Z</time>
      </trkpt>
      <trkpt lat="40.453933" lon="-5.251883">
        <ele>2206.0</ele>
        <time>2015-07-25T12:42:45Z</time>
      </trkpt>
      <trkpt lat="40.454000" lon="-5.251933">
        <ele>2206.0</ele>
        <time>2015-07-25T12:42:46Z</time>
      </trkpt>
      <trkpt lat="40.454083" lon="-5.251933">
        <ele>2208.0</ele>
        <time>2015-07-25T12:42:47Z</time>
      </trkpt>
      <trkpt lat="40.454183" lon="-5.251867">
        <ele>2211.0</ele>
        <time>2015-07-25T12:42:48Z</time>
      </trkpt>
      <trkpt lat="40.454250" lon="-5.251750">
        <ele>2215.0</ele>
        <time>2015-07-25T12:42:49Z</time>
      </trkpt>
      <trkpt lat="40.454283" lon="-5.251567">
        <ele>2218.0</ele>
        <time>2015-07-25T12:42:50Z</time>
      </trkpt>
      <trkpt lat="40.454250" lon="-5.251383">
        <ele>2218.0</ele>
        <time>2015-07-25T12:42:51Z</time>
      </trkpt>
      <trkpt lat="40.454150" lon="-5.251217">
        <ele>2218.0</ele>
        <time>2015-07-25T12:42:52Z</time>
      </trkpt>
      <trkpt lat="40.454017" lon="-5.251117">
        <ele>2219.0</ele>
        <time>2015-07-25T12:42:53Z</time>
      </trkpt>
      <trkpt lat="40.453867" lon="-5.251083">
        <ele>2220.0</ele>
        <time>2015-07-25T12:42:54Z</time>
      </trkpt>
      <trkpt lat="40.453767" lon="-5.251150">
        <ele>2221.0</ele>
        <time>2015-07-25T12:42:55Z</time>
      </trkpt>
      <trkpt lat="40.453717" lon="-5.251233">
        <ele>2222.0</ele>
        <time>2015-07-25T12:42:56Z</time>
      </trkpt>
      <trkpt lat="40.453700" lon="-5.251317">
        <ele>2224.0</ele>
        <time>2015-07-25T12:42:57Z</time>
      </trkpt>
      <trkpt lat="40.453700" lon="-5.251400">
        <ele>2227.0</ele>
        <time>2015-07-25T12:42:58Z</time>
      </trkpt>
      <trkpt lat="40.453667" lon="-5.251467">
        <ele>2229.0</ele>
        <time>2015-07-25T12:42:59Z</time>
      </trkpt>
      <trkpt lat="40.453633" lon="-5.251550">
        <ele>2231.0</ele>
        <time>2015-07-25T12:43:00Z</time>
      </trkpt>
      <trkpt lat="40.453600" lon="-5.251633">
        <ele>2231.0</ele>
        <time>2015-07-25T12:43:01Z</time>
      </trkpt>
      <trkpt lat="40.453583" lon="-5.251733">
        <ele>2232.0</ele>
        <time>2015-07-25T12:43:02Z</time>
      </trkpt>
      <trkpt lat="40.453600" lon="-5.251817">
        <ele>2233.0</ele>
        <time>2015-07-25T12:43:03Z</time>
      </trkpt>
      <trkpt lat="40.453617" lon="-5.251900">
        <ele>2234.0</ele>
        <time>2015-07-25T12:43:04Z</time>
      </trkpt>
      <trkpt lat="40.453617" lon="-5.251983">
        <ele>2234.0</ele>
        <time>2015-07-25T12:43:05Z</time>
      </trkpt>
      <trkpt lat="40.453600" lon="-5.252050">
        <ele>2235.0</ele>
        <time>2015-07-25T12:43:06Z</time>
      </trkpt>
      <trkpt lat="40.453583" lon="-5.252117">
        <ele>2234.0</ele>
        <time>2015-07-25T12:43:07Z</time>
      </trkpt>
      <trkpt lat="40.453550" lon="-5.252183">
        <ele>2234.0</ele>
        <time>2015-07-25T12:43:08Z</time>
      </trkpt>
      <trkpt lat="40.453533" lon="-5.252233">
        <ele>2232.0</ele>
        <time>2015-07-25T12:43:09Z</time>
      </trkpt>
      <trkpt lat="40.453517" lon="-5.252300">
        <ele>2230.0</ele>
        <time>2015-07-25T12:43:10Z</time>
      </trkpt>
      <trkpt lat="40.453517" lon="-5.252383">
        <ele>2226.0</ele>
        <time>2015-07-25T12:43:11Z</time>
      </trkpt>
      <trkpt lat="40.453483" lon="-5.252467">
        <ele>2222.0</ele>
        <time>2015-07-25T12:43:12Z</time>
      </trkpt>
      <trkpt lat="40.453467" lon="-5.252583">
        <ele>2220.0</ele>
        <time>2015-07-25T12:43:13Z</time>
      </trkpt>
      <trkpt lat="40.453450" lon="-5.252683">
        <ele>2218.0</ele>
        <time>2015-07-25T12:43:14Z</time>
      </trkpt>
      <trkpt lat="40.453467" lon="-5.252767">
        <ele>2217.0</ele>
        <time>2015-07-25T12:43:15Z</time>
      </trkpt>
      <trkpt lat="40.453483" lon="-5.252850">
        <ele>2217.0</ele>
        <time>2015-07-25T12:43:16Z</time>
      </trkpt>
      <trkpt lat="40.453483" lon="-5.252933">
        <ele>2217.0</ele>
        <time>2015-07-25T12:43:17Z</time>
      </trkpt>
      <trkpt lat="40.453500" lon="-5.253017">
        <ele>2217.0</ele>
        <time>2015-07-25T12:43:18Z</time>
      </trkpt>
      <trkpt lat="40.453500" lon="-5.253117">
        <ele>2215.0</ele>
        <time>2015-07-25T12:43:19Z</time>
      </trkpt>
      <trkpt lat="40.453500" lon="-5.253217">
        <ele>2214.0</ele>
        <time>2015-07-25T12:43:20Z</time>
      </trkpt>
      <trkpt lat="40.453500" lon="-5.253317">
        <ele>2212.0</ele>
        <time>2015-07-25T12:43:21Z</time>
      </trkpt>
      <trkpt lat="40.453483" lon="-5.253433">
        <ele>2212.0</ele>
        <time>2015-07-25T12:43:22Z</time>
      </trkpt>
      <trkpt lat="40.453483" lon="-5.253533">
        <ele>2213.0</ele>
        <time>2015-07-25T12:43:23Z</time>
      </trkpt>
      <trkpt lat="40.453467" lon="-5.253617">
        <ele>2215.0</ele>
        <time>2015-07-25T12:43:24Z</time>
      </trkpt>
      <trkpt lat="40.453450" lon="-5.253700">
        <ele>2217.0</ele>
        <time>2015-07-25T12:43:25Z</time>
      </trkpt>
      <trkpt lat="40.453433" lon="-5.253767">
        <ele>2218.0</ele>
        <time>2015-07-25T12:43:26Z</time>
      </trkpt>
      <trkpt lat="40.453417" lon="-5.253833">
        <ele>2217.0</ele>
        <time>2015-07-25T12:43:27Z</time>
      </trkpt>
      <trkpt lat="40.453400" lon="-5.253917">
        <ele>2216.0</ele>
        <time>2015-07-25T12:43:28Z</time>
      </trkpt>
      <trkpt lat="40.453383" lon="-5.254017">
        <ele>2215.0</ele>
        <time>2015-07-25T12:43:29Z</time>
      </trkpt>
      <trkpt lat="40.453367" lon="-5.254117">
        <ele>2215.0</ele>
        <time>2015-07-25T12:43:30Z</time>
      </trkpt>
      <trkpt lat="40.453333" lon="-5.254200">
        <ele>2216.0</ele>
        <time>2015-07-25T12:43:31Z</time>
      </trkpt>
      <trkpt lat="40.453317" lon="-5.254283">
        <ele>2216.0</ele>
        <time>2015-07-25T12:43:32Z</time>
      </trkpt>
      <trkpt lat="40.453283" lon="-5.254367">
        <ele>2215.0</ele>
        <time>2015-07-25T12:43:33Z</time>
      </trkpt>
      <trkpt lat="40.453267" lon="-5.254450">
        <ele>2214.0</ele>
        <time>2015-07-25T12:43:34Z</time>
      </trkpt>
      <trkpt lat="40.453267" lon="-5.254550">
        <ele>2212.0</ele>
        <time>2015-07-25T12:43:35Z</time>
      </trkpt>
      <trkpt lat="40.453267" lon="-5.254667">
        <ele>2211.0</ele>
        <time>2015-07-25T12:43:36Z</time>
      </trkpt>
      <trkpt lat="40.453283" lon="-5.254767">
        <ele>2210.0</ele>
        <time>2015-07-25T12:43:37Z</time>
      </trkpt>
      <trkpt lat="40.453300" lon="-5.254850">
        <ele>2209.0</ele>
        <time>2015-07-25T12:43:38Z</time>
      </trkpt>
      <trkpt lat="40.453317" lon="-5.254933">
        <ele>2210.0</ele>
        <time>2015-07-25T12:43:39Z</time>
      </trkpt>
      <trkpt lat="40.453350" lon="-5.255000">
        <ele>2211.0</ele>
        <time>2015-07-25T12:43:40Z</time>
      </trkpt>
      <trkpt lat="40.453367" lon="-5.255050">
        <ele>2211.0</ele>
        <time>2015-07-25T12:43:41Z</time>
      </trkpt>
      <trkpt lat="40.453400" lon="-5.255117">
        <ele>2212.0</ele>
        <time>2015-07-25T12:43:42Z</time>
      </trkpt>
      <trkpt lat="40.453400" lon="-5.255200">
        <ele>2212.0</ele>
        <time>2015-07-25T12:43:43Z</time>
      </trkpt>
      <trkpt lat="40.453383" lon="-5.255283">
        <ele>2211.0</ele>
        <time>2015-07-25T12:43:44Z</time>
      </trkpt>
      <trkpt lat="40.453350" lon="-5.255367">
        <ele>2209.0</ele>
        <time>2015-07-25T12:43:45Z</time>
      </trkpt>
      <trkpt lat="40.453317" lon="-5.255450">
        <ele>2209.0</ele>
        <time>2015-07-25T12:43:46Z</time>
      </trkpt>
      <trkpt lat="40.453283" lon="-5.255500">
        <ele>2209.0</ele>
        <time>2015-07-25T12:43:47Z</time>
      </trkpt>
      <trkpt lat="40.453267" lon="-5.255567">
        <ele>2209.0</ele>
        <time>2015-07-25T12:43:48Z</time>
      </trkpt>
      <trkpt lat="40.453250" lon="-5.255617">
        <ele>2207.0</ele>
        <time>2015-07-25T12:43:49Z</time>
      </trkpt>
      <trkpt lat="40.453233" lon="-5.255667">
        <ele>2204.0</ele>
        <time>2015-07-25T12:43:50Z</time>
      </trkpt>
      <trkpt lat="40.453217" lon="-5.255717">
        <ele>2200.0</ele>
        <time>2015-07-25T12:43:51Z</time>
      </trkpt>
      <trkpt lat="40.453200" lon="-5.255800">
        <ele>2196.0</ele>
        <time>2015-07-25T12:43:52Z</time>
      </trkpt>
      <trkpt lat="40.453217" lon="-5.255883">
        <ele>2193.0</ele>
        <time>2015-07-25T12:43:53Z</time>
      </trkpt>
      <trkpt lat="40.453217" lon="-5.255967">
        <ele>2192.0</ele>
        <time>2015-07-25T12:43:54Z</time>
      </trkpt>
      <trkpt lat="40.453217" lon="-5.256067">
        <ele>2192.0</ele>
        <time>2015-07-25T12:43:55Z</time>
      </trkpt>
      <trkpt lat="40.453200" lon="-5.256167">
        <ele>2191.0</ele>
        <time>2015-07-25T12:43:56Z</time>
      </trkpt>
      <trkpt lat="40.453167" lon="-5.256283">
        <ele>2192.0</ele>
        <time>2015-07-25T12:43:57Z</time>
      </trkpt>
      <trkpt lat="40.453133" lon="-5.256383">
        <ele>2193.0</ele>
        <time>2015-07-25T12:43:58Z</time>
      </trkpt>
      <trkpt lat="40.453133" lon="-5.256467">
        <ele>2194.0</ele>
        <time>2015-07-25T12:43:59Z</time>
      </trkpt>
      <trkpt lat="40.453117" lon="-5.256533">
        <ele>2195.0</ele>
        <time>2015-07-25T12:44:00Z</time>
      </trkpt>
      <trkpt lat="40.453117" lon="-5.256600">
        <ele>2194.0</ele>
        <time>2015-07-25T12:44:01Z</time>
      </trkpt>
      <trkpt lat="40.453100" lon="-5.256667">
        <ele>2193.0</ele>
        <time>2015-07-25T12:44:02Z</time>
      </trkpt>
      <trkpt lat="40.453067" lon="-5.256733">
        <ele>2191.0</ele>
        <time>2015-07-25T12:44:03Z</time>
      </trkpt>
      <trkpt lat="40.453033" lon="-5.256817">
        <ele>2189.0</ele>
        <time>2015-07-25T12:44:04Z</time>
      </trkpt>
      <trkpt lat="40.453000" lon="-5.256900">
        <ele>2188.0</ele>
        <time>2015-07-25T12:44:05Z</time>
      </trkpt>
      <trkpt lat="40.452967" lon="-5.256983">
        <ele>2186.0</ele>
        <time>2015-07-25T12:44:06Z</time>
      </trkpt>
      <trkpt lat="40.452917" lon="-5.257067">
        <ele>2184.0</ele>
        <time>2015-07-25T12:44:07Z</time>
      </trkpt>
      <trkpt lat="40.452867" lon="-5.257150">
        <ele>2181.0</ele>
        <time>2015-07-25T12:44:08Z</time>
      </trkpt>
      <trkpt lat="40.452817" lon="-5.257233">
        <ele>2178.0</ele>
        <time>2015-07-25T12:44:09Z</time>
      </trkpt>
      <trkpt lat="40.452783" lon="-5.257333">
        <ele>2176.0</ele>
        <time>2015-07-25T12:44:10Z</time>
      </trkpt>
      <trkpt lat="40.452767" lon="-5.257433">
        <ele>2175.0</ele>
        <time>2015-07-25T12:44:11Z</time>
      </trkpt>
      <trkpt lat="40.452733" lon="-5.257550">
        <ele>2175.0</ele>
        <time>2015-07-25T12:44:12Z</time>
      </trkpt>
      <trkpt lat="40.452700" lon="-5.257650">
        <ele>2176.0</ele>
        <time>2015-07-25T12:44:13Z</time>
      </trkpt>
      <trkpt lat="40.452667" lon="-5.257750">
        <ele>2176.0</ele>
        <time>2015-07-25T12:44:14Z</time>
      </trkpt>
      <trkpt lat="40.452617" lon="-5.257850">
        <ele>2175.0</ele>
        <time>2015-07-25T12:44:15Z</time>
      </trkpt>
      <trkpt lat="40.452583" lon="-5.257950">
        <ele>2174.0</ele>
        <time>2015-07-25T12:44:16Z</time>
      </trkpt>
      <trkpt lat="40.452550" lon="-5.258067">
        <ele>2171.0</ele>
        <time>2015-07-25T12:44:17Z</time>
      </trkpt>
      <trkpt lat="40.452517" lon="-5.258183">
        <ele>2168.0</ele>
        <time>2015-07-25T12:44:18Z</time>
      </trkpt>
      <trkpt lat="40.452467" lon="-5.258300">
        <ele>2165.0</ele>
        <time>2015-07-25T12:44:19Z</time>
      </trkpt>
      <trkpt lat="40.452433" lon="-5.258433">
        <ele>2163.0</ele>
        <time>2015-07-25T12:44:20Z</time>
      </trkpt>
      <trkpt lat="40.452400" lon="-5.258550">
        <ele>2162.0</ele>
        <time>2015-07-25T12:44:21Z</time>
      </trkpt>
      <trkpt lat="40.452367" lon="-5.258667">
        <ele>2161.0</ele>
        <time>2015-07-25T12:44:22Z</time>
      </trkpt>
      <trkpt lat="40.452333" lon="-5.258783">
        <ele>2161.0</ele>
        <time>2015-07-25T12:44:23Z</time>
      </trkpt>
      <trkpt lat="40.452283" lon="-5.258883">
        <ele>2162.0</ele>
        <time>2015-07-25T12:44:24Z</time>
      </trkpt>
      <trkpt lat="40.452250" lon="-5.258983">
        <ele>2164.0</ele>
        <time>2015-07-25T12:44:25Z</time>
      </trkpt>
      <trkpt lat="40.452233" lon="-5.259083">
        <ele>2166.0</ele>
        <time>2015-07-25T12:44:26Z</time>
      </trkpt>
      <trkpt lat="40.452233" lon="-5.259167">
        <ele>2169.0</ele>
        <time>2015-07-25T12:44:27Z</time>
      </trkpt>
      <trkpt lat="40.452233" lon="-5.259250">
        <ele>2173.0</ele>
        <time>2015-07-25T12:44:28Z</time>
      </trkpt>
      <trkpt lat="40.452233" lon="-5.259317">
        <ele>2176.0</ele>
        <time>2015-07-25T12:44:29Z</time>
      </trkpt>
      <trkpt lat="40.452267" lon="-5.259367">
        <ele>2177.0</ele>
        <time>2015-07-25T12:44:30Z</time>
      </trkpt>
      <trkpt lat="40.452300" lon="-5.259383">
        <ele>2176.0</ele>
        <time>2015-07-25T12:44:31Z</time>
      </trkpt>
      <trkpt lat="40.452383" lon="-5.259383">
        <ele>2174.0</ele>
        <time>2015-07-25T12:44:32Z</time>
      </trkpt>
      <trkpt lat="40.452483" lon="-5.259333">
        <ele>2171.0</ele>
        <time>2015-07-25T12:44:33Z</time>
      </trkpt>
      <trkpt lat="40.452583" lon="-5.259267">
        <ele>2170.0</ele>
        <time>2015-07-25T12:44:34Z</time>
      </trkpt>
      <trkpt lat="40.452667" lon="-5.259150">
        <ele>2170.0</ele>
        <time>2015-07-25T12:44:35Z</time>
      </trkpt>
      <trkpt lat="40.452717" lon="-5.259017">
        <ele>2169.0</ele>
        <time>2015-07-25T12:44:36Z</time>
      </trkpt>
      <trkpt lat="40.452733" lon="-5.258833">
        <ele>2167.0</ele>
        <time>2015-07-25T12:44:37Z</time>
      </trkpt>
      <trkpt lat="40.452717" lon="-5.258633">
        <ele>2164.0</ele>
        <time>2015-07-25T12:44:38Z</time>
      </trkpt>
      <trkpt lat="40.452650" lon="-5.258450">
        <ele>2163.0</ele>
        <time>2015-07-25T12:44:39Z</time>
      </trkpt>
      <trkpt lat="40.452567" lon="-5.258317">
        <ele>2163.0</ele>
        <time>2015-07-25T12:44:40Z</time>
      </trkpt>
      <trkpt lat="40.452467" lon="-5.258217">
        <ele>2165.0</ele>
        <time>2015-07-25T12:44:41Z</time>
      </trkpt>
      <trkpt lat="40.452367" lon="-5.258167">
        <ele>2166.0</ele>
        <time>2015-07-25T12:44:42Z</time>
      </trkpt>
      <trkpt lat="40.452267" lon="-5.258150">
        <ele>2165.0</ele>
        <time>2015-07-25T12:44:43Z</time>
      </trkpt>
      <trkpt lat="40.452167" lon="-5.258167">
        <ele>2164.0</ele>
        <time>2015-07-25T12:44:44Z</time>
      </trkpt>
      <trkpt lat="40.452067" lon="-5.258217">
        <ele>2163.0</ele>
        <time>2015-07-25T12:44:45Z</time>
      </trkpt>
      <trkpt lat="40.451967" lon="-5.258283">
        <ele>2162.0</ele>
        <time>2015-07-25T12:44:46Z</time>
      </trkpt>
      <trkpt lat="40.451900" lon="-5.258367">
        <ele>2163.0</ele>
        <time>2015-07-25T12:44:47Z</time>
      </trkpt>
      <trkpt lat="40.451850" lon="-5.258450">
        <ele>2165.0</ele>
        <time>2015-07-25T12:44:48Z</time>
      </trkpt>
      <trkpt lat="40.451817" lon="-5.258517">
        <ele>2167.0</ele>
        <time>2015-07-25T12:44:49Z</time>
      </trkpt>
      <trkpt lat="40.451767" lon="-5.258567">
        <ele>2169.0</ele>
        <time>2015-07-25T12:44:50Z</time>
      </trkpt>
      <trkpt lat="40.451700" lon="-5.258617">
        <ele>2169.0</ele>
        <time>2015-07-25T12:44:51Z</time>
      </trkpt>
      <trkpt lat="40.451650" lon="-5.258650">
        <ele>2167.0</ele>
        <time>2015-07-25T12:44:52Z</time>
      </trkpt>
      <trkpt lat="40.451600" lon="-5.258717">
        <ele>2164.0</ele>
        <time>2015-07-25T12:44:53Z</time>
      </trkpt>
      <trkpt lat="40.451517" lon="-5.258800">
        <ele>2163.0</ele>
        <time>2015-07-25T12:44:54Z</time>
      </trkpt>
      <trkpt lat="40.451433" lon="-5.258883">
        <ele>2162.0</ele>
        <time>2015-07-25T12:44:55Z</time>
      </trkpt>
      <trkpt lat="40.451350" lon="-5.258967">
        <ele>2163.0</ele>
        <time>2015-07-25T12:44:56Z</time>
      </trkpt>
      <trkpt lat="40.451283" lon="-5.259033">
        <ele>2165.0</ele>
        <time>2015-07-25T12:44:57Z</time>
      </trkpt>
      <trkpt lat="40.451217" lon="-5.259117">
        <ele>2167.0</ele>
        <time>2015-07-25T12:44:58Z</time>
      </trkpt>
      <trkpt lat="40.451183" lon="-5.259200">
        <ele>2167.0</ele>
        <time>2015-07-25T12:44:59Z</time>
      </trkpt>
      <trkpt lat="40.451133" lon="-5.259267">
        <ele>2168.0</ele>
        <time>2015-07-25T12:45:00Z</time>
      </trkpt>
      <trkpt lat="40.451067" lon="-5.259317">
        <ele>2168.0</ele>
        <time>2015-07-25T12:45:01Z</time>
      </trkpt>
      <trkpt lat="40.451017" lon="-5.259383">
        <ele>2167.0</ele>
        <time>2015-07-25T12:45:02Z</time>
      </trkpt>
      <trkpt lat="40.450967" lon="-5.259450">
        <ele>2166.0</ele>
        <time>2015-07-25T12:45:03Z</time>
      </trkpt>
      <trkpt lat="40.450917" lon="-5.259533">
        <ele>2166.0</ele>
        <time>2015-07-25T12:45:04Z</time>
      </trkpt>
      <trkpt lat="40.450867" lon="-5.259633">
        <ele>2167.0</ele>
        <time>2015-07-25T12:45:05Z</time>
      </trkpt>
      <trkpt lat="40.450817" lon="-5.259750">
        <ele>2169.0</ele>
        <time>2015-07-25T12:45:06Z</time>
      </trkpt>
      <trkpt lat="40.450783" lon="-5.259833">
        <ele>2172.0</ele>
        <time>2015-07-25T12:45:07Z</time>
      </trkpt>
      <trkpt lat="40.450750" lon="-5.259917">
        <ele>2177.0</ele>
        <time>2015-07-25T12:45:08Z</time>
      </trkpt>
      <trkpt lat="40.450717" lon="-5.259983">
        <ele>2181.0</ele>
        <time>2015-07-25T12:45:09Z</time>
      </trkpt>
      <trkpt lat="40.450700" lon="-5.260067">
        <ele>2184.0</ele>
        <time>2015-07-25T12:45:10Z</time>
      </trkpt>
      <trkpt lat="40.450717" lon="-5.260117">
        <ele>2186.0</ele>
        <time>2015-07-25T12:45:11Z</time>
      </trkpt>
      <trkpt lat="40.450767" lon="-5.260183">
        <ele>2187.0</ele>
        <time>2015-07-25T12:45:12Z</time>
      </trkpt>
      <trkpt lat="40.450850" lon="-5.260217">
        <ele>2186.0</ele>
        <time>2015-07-25T12:45:13Z</time>
      </trkpt>
      <trkpt lat="40.450950" lon="-5.260217">
        <ele>2187.0</ele>
        <time>2015-07-25T12:45:14Z</time>
      </trkpt>
      <trkpt lat="40.451050" lon="-5.260217">
        <ele>2188.0</ele>
        <time>2015-07-25T12:45:15Z</time>
      </trkpt>
      <trkpt lat="40.451133" lon="-5.260150">
        <ele>2190.0</ele>
        <time>2015-07-25T12:45:16Z</time>
      </trkpt>
      <trkpt lat="40.451217" lon="-5.260033">
        <ele>2191.0</ele>
        <time>2015-07-25T12:45:17Z</time>
      </trkpt>
      <trkpt lat="40.451233" lon="-5.259883">
        <ele>2190.0</ele>
        <time>2015-07-25T12:45:18Z</time>
      </trkpt>
      <trkpt lat="40.451200" lon="-5.259717">
        <ele>2189.0</ele>
        <time>2015-07-25T12:45:19Z</time>
      </trkpt>
      <trkpt lat="40.451117" lon="-5.259567">
        <ele>2189.0</ele>
        <time>2015-07-25T12:45:20Z</time>
      </trkpt>
      <trkpt lat="40.451000" lon="-5.259483">
        <ele>2191.0</ele>
        <time>2015-07-25T12:45:21Z</time>
      </trkpt>
      <trkpt lat="40.450883" lon="-5.259450">
        <ele>2194.0</ele>
        <time>2015-07-25T12:45:22Z</time>
      </trkpt>
      <trkpt lat="40.450783" lon="-5.259433">
        <ele>2200.0</ele>
        <time>2015-07-25T12:45:23Z</time>
      </trkpt>
      <trkpt lat="40.450700" lon="-5.259400">
        <ele>2205.0</ele>
        <time>2015-07-25T12:45:24Z</time>
      </trkpt>
      <trkpt lat="40.450617" lon="-5.259350">
        <ele>2208.0</ele>
        <time>2015-07-25T12:45:25Z</time>
      </trkpt>
      <trkpt lat="40.450533" lon="-5.259283">
        <ele>2211.0</ele>
        <time>2015-07-25T12:45:26Z</time>
      </trkpt>
      <trkpt lat="40.450450" lon="-5.259267">
        <ele>2213.0</ele>
        <time>2015-07-25T12:45:27Z</time>
      </trkpt>
      <trkpt lat="40.450367" lon="-5.259283">
        <ele>2213.0</ele>
        <time>2015-07-25T12:45:28Z</time>
      </trkpt>
      <trkpt lat="40.450317" lon="-5.259367">
        <ele>2213.0</ele>
        <time>2015-07-25T12:45:29Z</time>
      </trkpt>
      <trkpt lat="40.450283" lon="-5.259467">
        <ele>2214.0</ele>
        <time>2015-07-25T12:45:30Z</time>
      </trkpt>
      <trkpt lat="40.450300" lon="-5.259583">
        <ele>2216.0</ele>
        <time>2015-07-25T12:45:31Z</time>
      </trkpt>
      <trkpt lat="40.450367" lon="-5.259650">
        <ele>2219.0</ele>
        <time>2015-07-25T12:45:32Z</time>
      </trkpt>
      <trkpt lat="40.450433" lon="-5.259667">
        <ele>2219.0</ele>
        <time>2015-07-25T12:45:33Z</time>
      </trkpt>
      <trkpt lat="40.450517" lon="-5.259650">
        <ele>2219.0</ele>
        <time>2015-07-25T12:45:34Z</time>
      </trkpt>
      <trkpt lat="40.450617" lon="-5.259600">
        <ele>2218.0</ele>
        <time>2015-07-25T12:45:35Z</time>
      </trkpt>
      <trkpt lat="40.450717" lon="-5.259500">
        <ele>2216.0</ele>
        <time>2015-07-25T12:45:36Z</time>
      </trkpt>
      <trkpt lat="40.450800" lon="-5.259383">
        <ele>2215.0</ele>
        <time>2015-07-25T12:45:37Z</time>
      </trkpt>
      <trkpt lat="40.450883" lon="-5.259233">
        <ele>2215.0</ele>
        <time>2015-07-25T12:45:38Z</time>
      </trkpt>
      <trkpt lat="40.450900" lon="-5.259067">
        <ele>2216.0</ele>
        <time>2015-07-25T12:45:39Z</time>
      </trkpt>
      <trkpt lat="40.450900" lon="-5.258917">
        <ele>2218.0</ele>
        <time>2015-07-25T12:45:40Z</time>
      </trkpt>
      <trkpt lat="40.450850" lon="-5.258767">
        <ele>2219.0</ele>
        <time>2015-07-25T12:45:41Z</time>
      </trkpt>
      <trkpt lat="40.450783" lon="-5.258650">
        <ele>2221.0</ele>
        <time>2015-07-25T12:45:42Z</time>
      </trkpt>
      <trkpt lat="40.450717" lon="-5.258567">
        <ele>2223.0</ele>
        <time>2015-07-25T12:45:43Z</time>
      </trkpt>
      <trkpt lat="40.450617" lon="-5.258533">
        <ele>2224.0</ele>
        <time>2015-07-25T12:45:44Z</time>
      </trkpt>
      <trkpt lat="40.450500" lon="-5.258517">
        <ele>2226.0</ele>
        <time>2015-07-25T12:45:45Z</time>
      </trkpt>
      <trkpt lat="40.450400" lon="-5.258533">
        <ele>2229.0</ele>
        <time>2015-07-25T12:45:46Z</time>
      </trkpt>
      <trkpt lat="40.450300" lon="-5.258533">
        <ele>2233.0</ele>
        <time>2015-07-25T12:45:47Z</time>
      </trkpt>
      <trkpt lat="40.450217" lon="-5.258533">
        <ele>2238.0</ele>
        <time>2015-07-25T12:45:48Z</time>
      </trkpt>
      <trkpt lat="40.450133" lon="-5.258533">
        <ele>2241.0</ele>
        <time>2015-07-25T12:45:49Z</time>
      </trkpt>
      <trkpt lat="40.450067" lon="-5.258550">
        <ele>2244.0</ele>
        <time>2015-07-25T12:45:50Z</time>
      </trkpt>
      <trkpt lat="40.449983" lon="-5.258567">
        <ele>2247.0</ele>
        <time>2015-07-25T12:45:51Z</time>
      </trkpt>
      <trkpt lat="40.449917" lon="-5.258600">
        <ele>2249.0</ele>
        <time>2015-07-25T12:45:52Z</time>
      </trkpt>
      <trkpt lat="40.449883" lon="-5.258650">
        <ele>2250.0</ele>
        <time>2015-07-25T12:45:53Z</time>
      </trkpt>
      <trkpt lat="40.449883" lon="-5.258767">
        <ele>2249.0</ele>
        <time>2015-07-25T12:45:54Z</time>
      </trkpt>
      <trkpt lat="40.449933" lon="-5.258867">
        <ele>2248.0</ele>
        <time>2015-07-25T12:45:55Z</time>
      </trkpt>
      <trkpt lat="40.450033" lon="-5.258933">
        <ele>2250.0</ele>
        <time>2015-07-25T12:45:56Z</time>
      </trkpt>
      <trkpt lat="40.450150" lon="-5.258917">
        <ele>2252.0</ele>
        <time>2015-07-25T12:45:57Z</time>
      </trkpt>
      <trkpt lat="40.450250" lon="-5.258833">
        <ele>2254.0</ele>
        <time>2015-07-25T12:45:58Z</time>
      </trkpt>
      <trkpt lat="40.450300" lon="-5.258683">
        <ele>2254.0</ele>
        <time>2015-07-25T12:45:59Z</time>
      </trkpt>
      <trkpt lat="40.450317" lon="-5.258517">
        <ele>2254.0</ele>
        <time>2015-07-25T12:46:00Z</time>
      </trkpt>
      <trkpt lat="40.450283" lon="-5.258333">
        <ele>2254.0</ele>
        <time>2015-07-25T12:46:01Z</time>
      </trkpt>
      <trkpt lat="40.450217" lon="-5.258183">
        <ele>2256.0</ele>
        <time>2015-07-25T12:46:02Z</time>
      </trkpt>
      <trkpt lat="40.450117" lon="-5.258100">
        <ele>2259.0</ele>
        <time>2015-07-25T12:46:03Z</time>
      </trkpt>
      <trkpt lat="40.450017" lon="-5.258083">
        <ele>2260.0</ele>
        <time>2015-07-25T12:46:04Z</time>
      </trkpt>
      <trkpt lat="40.449917" lon="-5.258133">
        <ele>2263.0</ele>
        <time>2015-07-25T12:46:05Z</time>
      </trkpt>
      <trkpt lat="40.449850" lon="-5.258200">
        <ele>2266.0</ele>
        <time>2015-07-25T12:46:06Z</time>
      </trkpt>
      <trkpt lat="40.449817" lon="-5.258267">
        <ele>2269.0</ele>
        <time>2015-07-25T12:46:07Z</time>
      </trkpt>
      <trkpt lat="40.449783" lon="-5.258350">
        <ele>2271.0</ele>
        <time>2015-07-25T12:46:08Z</time>
      </trkpt>
      <trkpt lat="40.449800" lon="-5.258433">
        <ele>2271.0</ele>
        <time>2015-07-25T12:46:09Z</time>
      </trkpt>
      <trkpt lat="40.449833" lon="-5.258533">
        <ele>2270.0</ele>
        <time>2015-07-25T12:46:10Z</time>
      </trkpt>
      <trkpt lat="40.449917" lon="-5.258600">
        <ele>2270.0</ele>
        <time>2015-07-25T12:46:11Z</time>
      </trkpt>
      <trkpt lat="40.450033" lon="-5.258633">
        <ele>2270.0</ele>
        <time>2015-07-25T12:46:12Z</time>
      </trkpt>
      <trkpt lat="40.450150" lon="-5.258583">
        <ele>2270.0</ele>
        <time>2015-07-25T12:46:13Z</time>
      </trkpt>
      <trkpt lat="40.450250" lon="-5.258467">
        <ele>2272.0</ele>
        <time>2015-07-25T12:46:14Z</time>
      </trkpt>
      <trkpt lat="40.450300" lon="-5.258317">
        <ele>2274.0</ele>
        <time>2015-07-25T12:46:15Z</time>
      </trkpt>
      <trkpt lat="40.450300" lon="-5.258167">
        <ele>2275.0</ele>
        <time>2015-07-25T12:46:16Z</time>
      </trkpt>
      <trkpt lat="40.450283" lon="-5.258017">
        <ele>2277.0</ele>
        <time>2015-07-25T12:46:17Z</time>
      </trkpt>
      <trkpt lat="40.450233" lon="-5.257900">
        <ele>2279.0</ele>
        <time>2015-07-25T12:46:18Z</time>
      </trkpt>
      <trkpt lat="40.450150" lon="-5.257800">
        <ele>2280.0</ele>
        <time>2015-07-25T12:46:19Z</time>
      </trkpt>
      <trkpt lat="40.450067" lon="-5.257717">
        <ele>2281.0</ele>
        <time>2015-07-25T12:46:20Z</time>
      </trkpt>
      <trkpt lat="40.449950" lon="-5.257667">
        <ele>2282.0</ele>
        <time>2015-07-25T12:46:21Z</time>
      </trkpt>
      <trkpt lat="40.449833" lon="-5.257650">
        <ele>2283.0</ele>
        <time>2015-07-25T12:46:22Z</time>
      </trkpt>
      <trkpt lat="40.449733" lon="-5.257700">
        <ele>2284.0</ele>
        <time>2015-07-25T12:46:23Z</time>
      </trkpt>
      <trkpt lat="40.449650" lon="-5.257767">
        <ele>2287.0</ele>
        <time>2015-07-25T12:46:24Z</time>
      </trkpt>
      <trkpt lat="40.449600" lon="-5.257867">
        <ele>2290.0</ele>
        <time>2015-07-25T12:46:25Z</time>
      </trkpt>
      <trkpt lat="40.449583" lon="-5.257983">
        <ele>2292.0</ele>
        <time>2015-07-25T12:46:26Z</time>
      </trkpt>
      <trkpt lat="40.449583" lon="-5.258100">
        <ele>2294.0</ele>
        <time>2015-07-25T12:46:27Z</time>
      </trkpt>
      <trkpt lat="40.449617" lon="-5.258183">
        <ele>2295.0</ele>
        <time>2015-07-25T12:46:28Z</time>
      </trkpt>
      <trkpt lat="40.449683" lon="-5.258233">
        <ele>2294.0</ele>
        <time>2015-07-25T12:46:29Z</time>
      </trkpt>
      <trkpt lat="40.449767" lon="-5.258283">
        <ele>2292.0</ele>
        <time>2015-07-25T12:46:30Z</time>
      </trkpt>
      <trkpt lat="40.449867" lon="-5.258300">
        <ele>2291.0</ele>
        <time>2015-07-25T12:46:31Z</time>
      </trkpt>
      <trkpt lat="40.449983" lon="-5.258283">
        <ele>2290.0</ele>
        <time>2015-07-25T12:46:32Z</time>
      </trkpt>
      <trkpt lat="40.450083" lon="-5.258233">
        <ele>2290.0</ele>
        <time>2015-07-25T12:46:33Z</time>
      </trkpt>
      <trkpt lat="40.450183" lon="-5.258133">
        <ele>2290.0</ele>
        <time>2015-07-25T12:46:34Z</time>
      </trkpt>
      <trkpt lat="40.450250" lon="-5.257983">
        <ele>2291.0</ele>
        <time>2015-07-25T12:46:35Z</time>
      </trkpt>
      <trkpt lat="40.450250" lon="-5.257817">
        <ele>2291.0</ele>
        <time>2015-07-25T12:46:36Z</time>
      </trkpt>
      <trkpt lat="40.450233" lon="-5.257667">
        <ele>2293.0</ele>
        <time>2015-07-25T12:46:37Z</time>
      </trkpt>
      <trkpt lat="40.450183" lon="-5.257550">
        <ele>2296.0</ele>
        <time>2015-07-25T12:46:38Z</time>
      </trkpt>
      <trkpt lat="40.450117" lon="-5.257467">
        <ele>2298.0</ele>
        <time>2015-07-25T12:46:39Z</time>
      </trkpt>
      <trkpt lat="40.450033" lon="-5.257417">
        <ele>2298.0</ele>
        <time>2015-07-25T12:46:40Z</time>
      </trkpt>
      <trkpt lat="40.449933" lon="-5.257400">
        <ele>2297.0</ele>
        <time>2015-07-25T12:46:41Z</time>
      </trkpt>
      <trkpt lat="40.449817" lon="-5.257417">
        <ele>2295.0</ele>
        <time>2015-07-25T12:46:42Z</time>
      </trkpt>
      <trkpt lat="40.449700" lon="-5.257467">
        <ele>2295.0</ele>
        <time>2015-07-25T12:46:43Z</time>
      </trkpt>
      <trkpt lat="40.449600" lon="-5.257550">
        <ele>2298.0</ele>
        <time>2015-07-25T12:46:44Z</time>
      </trkpt>
      <trkpt lat="40.449533" lon="-5.257650">
        <ele>2301.0</ele>
        <time>2015-07-25T12:46:45Z</time>
      </trkpt>
      <trkpt lat="40.449500" lon="-5.257750">
        <ele>2303.0</ele>
        <time>2015-07-25T12:46:46Z</time>
      </trkpt>
      <trkpt lat="40.449483" lon="-5.257833">
        <ele>2304.0</ele>
        <time>2015-07-25T12:46:47Z</time>
      </trkpt>
      <trkpt lat="40.449467" lon="-5.257900">
        <ele>2303.0</ele>
        <time>2015-07-25T12:46:48Z</time>
      </trkpt>
      <trkpt lat="40.449433" lon="-5.257983">
        <ele>2300.0</ele>
        <time>2015-07-25T12:46:49Z</time>
      </trkpt>
      <trkpt lat="40.449400" lon="-5.258083">
        <ele>2297.0</ele>
        <time>2015-07-25T12:46:50Z</time>
      </trkpt>
      <trkpt lat="40.449367" lon="-5.258217">
        <ele>2294.0</ele>
        <time>2015-07-25T12:46:51Z</time>
      </trkpt>
      <trkpt lat="40.449367" lon="-5.258350">
        <ele>2291.0</ele>
        <time>2015-07-25T12:46:52Z</time>
      </trkpt>
      <trkpt lat="40.449383" lon="-5.258483">
        <ele>2290.0</ele>
        <time>2015-07-25T12:46:53Z</time>
      </trkpt>
      <trkpt lat="40.449400" lon="-5.258617">
        <ele>2291.0</ele>
        <time>2015-07-25T12:46:54Z</time>
      </trkpt>
      <trkpt lat="40.449400" lon="-5.258733">
        <ele>2292.0</ele>
        <time>2015-07-25T12:46:55Z</time>
      </trkpt>
      <trkpt lat="40.449383" lon="-5.258850">
        <ele>2292.0</ele>
        <time>2015-07-25T12:46:56Z</time>
      </trkpt>
      <trkpt lat="40.449367" lon="-5.258950">
        <ele>2293.0</ele>
        <time>2015-07-25T12:46:57Z</time>
      </trkpt>
      <trkpt lat="40.449367" lon="-5.259050">
        <ele>2293.0</ele>
        <time>2015-07-25T12:46:58Z</time>
      </trkpt>
      <trkpt lat="40.449367" lon="-5.259150">
        <ele>2292.0</ele>
        <time>2015-07-25T12:46:59Z</time>
      </trkpt>
      <trkpt lat="40.449383" lon="-5.259250">
        <ele>2290.0</ele>
        <time>2015-07-25T12:47:00Z</time>
      </trkpt>
      <trkpt lat="40.449383" lon="-5.259367">
        <ele>2288.0</ele>
        <time>2015-07-25T12:47:01Z</time>
      </trkpt>
      <trkpt lat="40.449367" lon="-5.259483">
        <ele>2286.0</ele>
        <time>2015-07-25T12:47:02Z</time>
      </trkpt>
      <trkpt lat="40.449333" lon="-5.259583">
        <ele>2285.0</ele>
        <time>2015-07-25T12:47:03Z</time>
      </trkpt>
      <trkpt lat="40.449300" lon="-5.259667">
        <ele>2284.0</ele>
        <time>2015-07-25T12:47:04Z</time>
      </trkpt>
      <trkpt lat="40.449283" lon="-5.259767">
        <ele>2283.0</ele>
        <time>2015-07-25T12:47:05Z</time>
      </trkpt>
      <trkpt lat="40.449283" lon="-5.259850">
        <ele>2281.0</ele>
        <time>2015-07-25T12:47:06Z</time>
      </trkpt>
      <trkpt lat="40.449267" lon="-5.259950">
        <ele>2279.0</ele>
        <time>2015-07-25T12:47:07Z</time>
      </trkpt>
      <trkpt lat="40.449267" lon="-5.260050">
        <ele>2276.0</ele>
        <time>2015-07-25T12:47:08Z</time>
      </trkpt>
      <trkpt lat="40.449250" lon="-5.260167">
        <ele>2275.0</ele>
        <time>2015-07-25T12:47:09Z</time>
      </trkpt>
      <trkpt lat="40.449250" lon="-5.260283">
        <ele>2273.0</ele>
        <time>2015-07-25T12:47:10Z</time>
      </trkpt>
      <trkpt lat="40.449250" lon="-5.260383">
        <ele>2273.0</ele>
        <time>2015-07-25T12:47:11Z</time>
      </trkpt>
      <trkpt lat="40.449267" lon="-5.260483">
        <ele>2273.0</ele>
        <time>2015-07-25T12:47:12Z</time>
      </trkpt>
      <trkpt lat="40.449267" lon="-5.260583">
        <ele>2273.0</ele>
        <time>2015-07-25T12:47:13Z</time>
      </trkpt>
      <trkpt lat="40.449283" lon="-5.260683">
        <ele>2273.0</ele>
        <time>2015-07-25T12:47:14Z</time>
      </trkpt>
      <trkpt lat="40.449283" lon="-5.260800">
        <ele>2272.0</ele>
        <time>2015-07-25T12:47:15Z</time>
      </trkpt>
      <trkpt lat="40.449283" lon="-5.260917">
        <ele>2271.0</ele>
        <time>2015-07-25T12:47:16Z</time>
      </trkpt>
      <trkpt lat="40.449283" lon="-5.261033">
        <ele>2271.0</ele>
        <time>2015-07-25T12:47:17Z</time>
      </trkpt>
      <trkpt lat="40.449283" lon="-5.261150">
        <ele>2272.0</ele>
        <time>2015-07-25T12:47:18Z</time>
      </trkpt>
      <trkpt lat="40.449283" lon="-5.261250">
        <ele>2273.0</ele>
        <time>2015-07-25T12:47:19Z</time>
      </trkpt>
      <trkpt lat="40.449283" lon="-5.261350">
        <ele>2273.0</ele>
        <time>2015-07-25T12:47:20Z</time>
      </trkpt>
      <trkpt lat="40.449283" lon="-5.261450">
        <ele>2273.0</ele>
        <time>2015-07-25T12:47:21Z</time>
      </trkpt>
      <trkpt lat="40.449283" lon="-5.261567">
        <ele>2272.0</ele>
        <time>2015-07-25T12:47:22Z</time>
      </trkpt>
      <trkpt lat="40.449250" lon="-5.261683">
        <ele>2272.0</ele>
        <time>2015-07-25T12:47:23Z</time>
      </trkpt>
      <trkpt lat="40.449233" lon="-5.261783">
        <ele>2272.0</ele>
        <time>2015-07-25T12:47:24Z</time>
      </trkpt>
      <trkpt lat="40.449200" lon="-5.261900">
        <ele>2273.0</ele>
        <time>2015-07-25T12:47:25Z</time>
      </trkpt>
      <trkpt lat="40.449183" lon="-5.262000">
        <ele>2273.0</ele>
        <time>2015-07-25T12:47:26Z</time>
      </trkpt>
      <trkpt lat="40.449183" lon="-5.262117">
        <ele>2273.0</ele>
        <time>2015-07-25T12:47:27Z</time>
      </trkpt>
      <trkpt lat="40.449167" lon="-5.262217">
        <ele>2273.0</ele>
        <time>2015-07-25T12:47:28Z</time>
      </trkpt>
      <trkpt lat="40.449167" lon="-5.262333">
        <ele>2272.0</ele>
        <time>2015-07-25T12:47:29Z</time>
      </trkpt>
      <trkpt lat="40.449150" lon="-5.262433">
        <ele>2271.0</ele>
        <time>2015-07-25T12:47:30Z</time>
      </trkpt>
      <trkpt lat="40.449117" lon="-5.262550">
        <ele>2271.0</ele>
        <time>2015-07-25T12:47:31Z</time>
      </trkpt>
      <trkpt lat="40.449083" lon="-5.262650">
        <ele>2271.0</ele>
        <time>2015-07-25T12:47:32Z</time>
      </trkpt>
      <trkpt lat="40.449050" lon="-5.262750">
        <ele>2271.0</ele>
        <time>2015-07-25T12:47:33Z</time>
      </trkpt>
      <trkpt lat="40.449017" lon="-5.262850">
        <ele>2270.0</ele>
        <time>2015-07-25T12:47:34Z</time>
      </trkpt>
      <trkpt lat="40.448983" lon="-5.262950">
        <ele>2268.0</ele>
        <time>2015-07-25T12:47:35Z</time>
      </trkpt>
      <trkpt lat="40.448967" lon="-5.263050">
        <ele>2265.0</ele>
        <time>2015-07-25T12:47:36Z</time>
      </trkpt>
      <trkpt lat="40.448933" lon="-5.263167">
        <ele>2263.0</ele>
        <time>2015-07-25T12:47:37Z</time>
      </trkpt>
      <trkpt lat="40.448900" lon="-5.263283">
        <ele>2263.0</ele>
        <time>2015-07-25T12:47:38Z</time>
      </trkpt>
      <trkpt lat="40.448883" lon="-5.263383">
        <ele>2263.0</ele>
        <time>2015-07-25T12:47:39Z</time>
      </trkpt>
      <trkpt lat="40.448867" lon="-5.263467">
        <ele>2264.0</ele>
        <time>2015-07-25T12:47:40Z</time>
      </trkpt>
      <trkpt lat="40.448867" lon="-5.263567">
        <ele>2264.0</ele>
        <time>2015-07-25T12:47:41Z</time>
      </trkpt>
      <trkpt lat="40.448867" lon="-5.263650">
        <ele>2262.0</ele>
        <time>2015-07-25T12:47:42Z</time>
      </trkpt>
      <trkpt lat="40.448850" lon="-5.263733">
        <ele>2261.0</ele>
        <time>2015-07-25T12:47:43Z</time>
      </trkpt>
      <trkpt lat="40.448833" lon="-5.263833">
        <ele>2259.0</ele>
        <time>2015-07-25T12:47:44Z</time>
      </trkpt>
      <trkpt lat="40.448833" lon="-5.263933">
        <ele>2258.0</ele>
        <time>2015-07-25T12:47:45Z</time>
      </trkpt>
      <trkpt lat="40.448817" lon="-5.264033">
        <ele>2258.0</ele>
        <time>2015-07-25T12:47:46Z</time>
      </trkpt>
      <trkpt lat="40.448817" lon="-5.264117">
        <ele>2258.0</ele>
        <time>2015-07-25T12:47:47Z</time>
      </trkpt>
      <trkpt lat="40.448817" lon="-5.264200">
        <ele>2257.0</ele>
        <time>2015-07-25T12:47:48Z</time>
      </trkpt>
      <trkpt lat="40.448817" lon="-5.264283">
        <ele>2256.0</ele>
        <time>2015-07-25T12:47:49Z</time>
      </trkpt>
      <trkpt lat="40.448800" lon="-5.264350">
        <ele>2254.0</ele>
        <time>2015-07-25T12:47:50Z</time>
      </trkpt>
      <trkpt lat="40.448800" lon="-5.264433">
        <ele>2252.0</ele>
        <time>2015-07-25T12:47:51Z</time>
      </trkpt>
      <trkpt lat="40.448783" lon="-5.264533">
        <ele>2250.0</ele>
        <time>2015-07-25T12:47:52Z</time>
      </trkpt>
      <trkpt lat="40.448767" lon="-5.264617">
        <ele>2250.0</ele>
        <time>2015-07-25T12:47:53Z</time>
      </trkpt>
      <trkpt lat="40.448750" lon="-5.264700">
        <ele>2250.0</ele>
        <time>2015-07-25T12:47:54Z</time>
      </trkpt>
      <trkpt lat="40.448733" lon="-5.264767">
        <ele>2250.0</ele>
        <time>2015-07-25T12:47:55Z</time>
      </trkpt>
      <trkpt lat="40.448717" lon="-5.264850">
        <ele>2248.0</ele>
        <time>2015-07-25T12:47:56Z</time>
      </trkpt>
      <trkpt lat="40.448667" lon="-5.264917">
        <ele>2246.0</ele>
        <time>2015-07-25T12:47:57Z</time>
      </trkpt>
      <trkpt lat="40.448633" lon="-5.265000">
        <ele>2243.0</ele>
        <time>2015-07-25T12:47:58Z</time>
      </trkpt>
      <trkpt lat="40.448600" lon="-5.265083">
        <ele>2242.0</ele>
        <time>2015-07-25T12:47:59Z</time>
      </trkpt>
      <trkpt lat="40.448550" lon="-5.265167">
        <ele>2241.0</ele>
        <time>2015-07-25T12:48:00Z</time>
      </trkpt>
      <trkpt lat="40.448517" lon="-5.265217">
        <ele>2239.0</ele>
        <time>2015-07-25T12:48:01Z</time>
      </trkpt>
      <trkpt lat="40.448500" lon="-5.265283">
        <ele>2236.0</ele>
        <time>2015-07-25T12:48:02Z</time>
      </trkpt>
      <trkpt lat="40.448467" lon="-5.265350">
        <ele>2232.0</ele>
        <time>2015-07-25T12:48:03Z</time>
      </trkpt>
      <trkpt lat="40.448433" lon="-5.265433">
        <ele>2226.0</ele>
        <time>2015-07-25T12:48:04Z</time>
      </trkpt>
      <trkpt lat="40.448383" lon="-5.265533">
        <ele>2222.0</ele>
        <time>2015-07-25T12:48:05Z</time>
      </trkpt>
      <trkpt lat="40.448317" lon="-5.265650">
        <ele>2220.0</ele>
        <time>2015-07-25T12:48:06Z</time>
      </trkpt>
      <trkpt lat="40.448267" lon="-5.265750">
        <ele>2220.0</ele>
        <time>2015-07-25T12:48:07Z</time>
      </trkpt>
      <trkpt lat="40.448217" lon="-5.265833">
        <ele>2221.0</ele>
        <time>2015-07-25T12:48:08Z</time>
      </trkpt>
      <trkpt lat="40.448200" lon="-5.265917">
        <ele>2220.0</ele>
        <time>2015-07-25T12:48:09Z</time>
      </trkpt>
      <trkpt lat="40.448167" lon="-5.265983">
        <ele>2218.0</ele>
        <time>2015-07-25T12:48:10Z</time>
      </trkpt>
      <trkpt lat="40.448133" lon="-5.266050">
        <ele>2217.0</ele>
        <time>2015-07-25T12:48:11Z</time>
      </trkpt>
      <trkpt lat="40.448100" lon="-5.266150">
        <ele>2217.0</ele>
        <time>2015-07-25T12:48:12Z</time>
      </trkpt>
      <trkpt lat="40.448067" lon="-5.266250">
        <ele>2219.0</ele>
        <time>2015-07-25T12:48:13Z</time>
      </trkpt>
      <trkpt lat="40.448033" lon="-5.266333">
        <ele>2223.0</ele>
        <time>2015-07-25T12:48:14Z</time>
      </trkpt>
      <trkpt lat="40.448017" lon="-5.266383">
        <ele>2226.0</ele>
        <time>2015-07-25T12:48:15Z</time>
      </trkpt>
      <trkpt lat="40.447983" lon="-5.266417">
        <ele>2229.0</ele>
        <time>2015-07-25T12:48:16Z</time>
      </trkpt>
      <trkpt lat="40.447950" lon="-5.266467">
        <ele>2229.0</ele>
        <time>2015-07-25T12:48:17Z</time>
      </trkpt>
      <trkpt lat="40.447950" lon="-5.266517">
        <ele>2229.0</ele>
        <time>2015-07-25T12:48:18Z</time>
      </trkpt>
      <trkpt lat="40.447983" lon="-5.266600">
        <ele>2228.0</ele>
        <time>2015-07-25T12:48:19Z</time>
      </trkpt>
      <trkpt lat="40.448050" lon="-5.266667">
        <ele>2228.0</ele>
        <time>2015-07-25T12:48:20Z</time>
      </trkpt>
      <trkpt lat="40.448117" lon="-5.266700">
        <ele>2230.0</ele>
        <time>2015-07-25T12:48:21Z</time>
      </trkpt>
      <trkpt lat="40.448200" lon="-5.266717">
        <ele>2233.0</ele>
        <time>2015-07-25T12:48:22Z</time>
      </trkpt>
      <trkpt lat="40.448283" lon="-5.266700">
        <ele>2236.0</ele>
        <time>2015-07-25T12:48:23Z</time>
      </trkpt>
      <trkpt lat="40.448350" lon="-5.266633">
        <ele>2238.0</ele>
        <time>2015-07-25T12:48:24Z</time>
      </trkpt>
      <trkpt lat="40.448400" lon="-5.266533">
        <ele>2239.0</ele>
        <time>2015-07-25T12:48:25Z</time>
      </trkpt>
      <trkpt lat="40.448433" lon="-5.266400">
        <ele>2239.0</ele>
        <time>2015-07-25T12:48:26Z</time>
      </trkpt>
      <trkpt lat="40.448433" lon="-5.266250">
        <ele>2240.0</ele>
        <time>2015-07-25T12:48:27Z</time>
      </trkpt>
      <trkpt lat="40.448400" lon="-5.266083">
        <ele>2239.0</ele>
        <time>2015-07-25T12:48:28Z</time>
      </trkpt>
      <trkpt lat="40.448317" lon="-5.265933">
        <ele>2238.0</ele>
        <time>2015-07-25T12:48:29Z</time>
      </trkpt>
      <trkpt lat="40.448217" lon="-5.265817">
        <ele>2238.0</ele>
        <time>2015-07-25T12:48:30Z</time>
      </trkpt>
      <trkpt lat="40.448100" lon="-5.265733">
        <ele>2237.0</ele>
        <time>2015-07-25T12:48:31Z</time>
      </trkpt>
      <trkpt lat="40.447967" lon="-5.265683">
        <ele>2239.0</ele>
        <time>2015-07-25T12:48:32Z</time>
      </trkpt>
      <trkpt lat="40.447850" lon="-5.265683">
        <ele>2243.0</ele>
        <time>2015-07-25T12:48:33Z</time>
      </trkpt>
      <trkpt lat="40.447767" lon="-5.265717">
        <ele>2246.0</ele>
        <time>2015-07-25T12:48:34Z</time>
      </trkpt>
      <trkpt lat="40.447700" lon="-5.265750">
        <ele>2247.0</ele>
        <time>2015-07-25T12:48:35Z</time>
      </trkpt>
      <trkpt lat="40.447633" lon="-5.265800">
        <ele>2248.0</ele>
        <time>2015-07-25T12:48:36Z</time>
      </trkpt>
      <trkpt lat="40.447583" lon="-5.265850">
        <ele>2249.0</ele>
        <time>2015-07-25T12:48:37Z</time>
      </trkpt>
      <trkpt lat="40.447533" lon="-5.265917">
        <ele>2249.0</ele>
        <time>2015-07-25T12:48:38Z</time>
      </trkpt>
      <trkpt lat="40.447500" lon="-5.266000">
        <ele>2250.0</ele>
        <time>2015-07-25T12:48:39Z</time>
      </trkpt>
      <trkpt lat="40.447517" lon="-5.266083">
        <ele>2250.0</ele>
        <time>2015-07-25T12:48:40Z</time>
      </trkpt>
      <trkpt lat="40.447550" lon="-5.266183">
        <ele>2250.0</ele>
        <time>2015-07-25T12:48:41Z</time>
      </trkpt>
      <trkpt lat="40.447583" lon="-5.266267">
        <ele>2251.0</ele>
        <time>2015-07-25T12:48:42Z</time>
      </trkpt>
      <trkpt lat="40.447633" lon="-5.266317">
        <ele>2252.0</ele>
        <time>2015-07-25T12:48:43Z</time>
      </trkpt>
      <trkpt lat="40.447683" lon="-5.266350">
        <ele>2253.0</ele>
        <time>2015-07-25T12:48:44Z</time>
      </trkpt>
      <trkpt lat="40.447750" lon="-5.266333">
        <ele>2254.0</ele>
        <time>2015-07-25T12:48:45Z</time>
      </trkpt>
      <trkpt lat="40.447800" lon="-5.266300">
        <ele>2254.0</ele>
        <time>2015-07-25T12:48:46Z</time>
      </trkpt>
      <trkpt lat="40.447867" lon="-5.266233">
        <ele>2255.0</ele>
        <time>2015-07-25T12:48:47Z</time>
      </trkpt>
      <trkpt lat="40.447917" lon="-5.266133">
        <ele>2256.0</ele>
        <time>2015-07-25T12:48:48Z</time>
      </trkpt>
      <trkpt lat="40.447933" lon="-5.266017">
        <ele>2257.0</ele>
        <time>2015-07-25T12:48:49Z</time>
      </trkpt>
      <trkpt lat="40.447950" lon="-5.265867">
        <ele>2259.0</ele>
        <time>2015-07-25T12:48:50Z</time>
      </trkpt>
      <trkpt lat="40.447917" lon="-5.265717">
        <ele>2260.0</ele>
        <time>2015-07-25T12:48:51Z</time>
      </trkpt>
      <trkpt lat="40.447900" lon="-5.265583">
        <ele>2261.0</ele>
        <time>2015-07-25T12:48:52Z</time>
      </trkpt>
      <trkpt lat="40.447867" lon="-5.265433">
        <ele>2262.0</ele>
        <time>2015-07-25T12:48:53Z</time>
      </trkpt>
      <trkpt lat="40.447817" lon="-5.265283">
        <ele>2263.0</ele>
        <time>2015-07-25T12:48:54Z</time>
      </trkpt>
      <trkpt lat="40.447750" lon="-5.265150">
        <ele>2264.0</ele>
        <time>2015-07-25T12:48:55Z</time>
      </trkpt>
      <trkpt lat="40.447683" lon="-5.265033">
        <ele>2264.0</ele>
        <time>2015-07-25T12:48:56Z</time>
      </trkpt>
      <trkpt lat="40.447583" lon="-5.264933">
        <ele>2264.0</ele>
        <time>2015-07-25T12:48:57Z</time>
      </trkpt>
      <trkpt lat="40.447467" lon="-5.264867">
        <ele>2263.0</ele>
        <time>2015-07-25T12:48:58Z</time>
      </trkpt>
      <trkpt lat="40.447350" lon="-5.264833">
        <ele>2262.0</ele>
        <time>2015-07-25T12:48:59Z</time>
      </trkpt>
      <trkpt lat="40.447233" lon="-5.264833">
        <ele>2262.0</ele>
        <time>2015-07-25T12:49:00Z</time>
      </trkpt>
      <trkpt lat="40.447133" lon="-5.264900">
        <ele>2262.0</ele>
        <time>2015-07-25T12:49:01Z</time>
      </trkpt>
      <trkpt lat="40.447033" lon="-5.264967">
        <ele>2264.0</ele>
        <time>2015-07-25T12:49:02Z</time>
      </trkpt>
      <trkpt lat="40.446967" lon="-5.265017">
        <ele>2266.0</ele>
        <time>2015-07-25T12:49:03Z</time>
      </trkpt>
      <trkpt lat="40.446883" lon="-5.265050">
        <ele>2269.0</ele>
        <time>2015-07-25T12:49:04Z</time>
      </trkpt>
      <trkpt lat="40.446817" lon="-5.265067">
        <ele>2271.0</ele>
        <time>2015-07-25T12:49:05Z</time>
      </trkpt>
      <trkpt lat="40.446733" lon="-5.265067">
        <ele>2271.0</ele>
        <time>2015-07-25T12:49:06Z</time>
      </trkpt>
      <trkpt lat="40.446667" lon="-5.265067">
        <ele>2269.0</ele>
        <time>2015-07-25T12:49:07Z</time>
      </trkpt>
      <trkpt lat="40.446600" lon="-5.265117">
        <ele>2266.0</ele>
        <time>2015-07-25T12:49:08Z</time>
      </trkpt>
      <trkpt lat="40.446533" lon="-5.265200">
        <ele>2263.0</ele>
        <time>2015-07-25T12:49:09Z</time>
      </trkpt>
      <trkpt lat="40.446450" lon="-5.265300">
        <ele>2262.0</ele>
        <time>2015-07-25T12:49:10Z</time>
      </trkpt>
      <trkpt lat="40.446400" lon="-5.265417">
        <ele>2262.0</ele>
        <time>2015-07-25T12:49:11Z</time>
      </trkpt>
      <trkpt lat="40.446350" lon="-5.265517">
        <ele>2263.0</ele>
        <time>2015-07-25T12:49:12Z</time>
      </trkpt>
      <trkpt lat="40.446317" lon="-5.265600">
        <ele>2263.0</ele>
        <time>2015-07-25T12:49:13Z</time>
      </trkpt>
      <trkpt lat="40.446300" lon="-5.265700">
        <ele>2263.0</ele>
        <time>2015-07-25T12:49:14Z</time>
      </trkpt>
      <trkpt lat="40.446283" lon="-5.265800">
        <ele>2263.0</ele>
        <time>2015-07-25T12:49:15Z</time>
      </trkpt>
      <trkpt lat="40.446267" lon="-5.265883">
        <ele>2262.0</ele>
        <time>2015-07-25T12:49:16Z</time>
      </trkpt>
      <trkpt lat="40.446250" lon="-5.265967">
        <ele>2262.0</ele>
        <time>2015-07-25T12:49:17Z</time>
      </trkpt>
      <trkpt lat="40.446233" lon="-5.266033">
        <ele>2261.0</ele>
        <time>2015-07-25T12:49:18Z</time>
      </trkpt>
      <trkpt lat="40.446233" lon="-5.266117">
        <ele>2261.0</ele>
        <time>2015-07-25T12:49:19Z</time>
      </trkpt>
      <trkpt lat="40.446217" lon="-5.266167">
        <ele>2259.0</ele>
        <time>2015-07-25T12:49:20Z</time>
      </trkpt>
      <trkpt lat="40.446233" lon="-5.266233">
        <ele>2258.0</ele>
        <time>2015-07-25T12:49:21Z</time>
      </trkpt>
      <trkpt lat="40.446250" lon="-5.266283">
        <ele>2256.0</ele>
        <time>2015-07-25T12:49:22Z</time>
      </trkpt>
      <trkpt lat="40.446267" lon="-5.266350">
        <ele>2255.0</ele>
        <time>2015-07-25T12:49:23Z</time>
      </trkpt>
      <trkpt lat="40.446267" lon="-5.266417">
        <ele>2253.0</ele>
        <time>2015-07-25T12:49:24Z</time>
      </trkpt>
      <trkpt lat="40.446267" lon="-5.266483">
        <ele>2252.0</ele>
        <time>2015-07-25T12:49:25Z</time>
      </trkpt>
      <trkpt lat="40.446267" lon="-5.266567">
        <ele>2249.0</ele>
        <time>2015-07-25T12:49:26Z</time>
      </trkpt>
      <trkpt lat="40.446250" lon="-5.266650">
        <ele>2247.0</ele>
        <time>2015-07-25T12:49:27Z</time>
      </trkpt>
      <trkpt lat="40.446233" lon="-5.266767">
        <ele>2244.0</ele>
        <time>2015-07-25T12:49:28Z</time>
      </trkpt>
      <trkpt lat="40.446200" lon="-5.266900">
        <ele>2243.0</ele>
        <time>2015-07-25T12:49:29Z</time>
      </trkpt>
      <trkpt lat="40.446183" lon="-5.267017">
        <ele>2244.0</ele>
        <time>2015-07-25T12:49:30Z</time>
      </trkpt>
      <trkpt lat="40.446183" lon="-5.267133">
        <ele>2245.0</ele>
        <time>2015-07-25T12:49:31Z</time>
      </trkpt>
      <trkpt lat="40.446183" lon="-5.267233">
        <ele>2246.0</ele>
        <time>2015-07-25T12:49:32Z</time>
      </trkpt>
      <trkpt lat="40.446167" lon="-5.267317">
        <ele>2246.0</ele>
        <time>2015-07-25T12:49:33Z</time>
      </trkpt>
      <trkpt lat="40.446150" lon="-5.267417">
        <ele>2245.0</ele>
        <time>2015-07-25T12:49:34Z</time>
      </trkpt>
      <trkpt lat="40.446133" lon="-5.267500">
        <ele>2245.0</ele>
        <time>2015-07-25T12:49:35Z</time>
      </trkpt>
      <trkpt lat="40.446083" lon="-5.267600">
        <ele>2246.0</ele>
        <time>2015-07-25T12:49:36Z</time>
      </trkpt>
      <trkpt lat="40.446033" lon="-5.267683">
        <ele>2248.0</ele>
        <time>2015-07-25T12:49:37Z</time>
      </trkpt>
      <trkpt lat="40.445950" lon="-5.267767">
        <ele>2249.0</ele>
        <time>2015-07-25T12:49:38Z</time>
      </trkpt>
      <trkpt lat="40.445883" lon="-5.267833">
        <ele>2250.0</ele>
        <time>2015-07-25T12:49:39Z</time>
      </trkpt>
      <trkpt lat="40.445817" lon="-5.267900">
        <ele>2252.0</ele>
        <time>2015-07-25T12:49:40Z</time>
      </trkpt>
      <trkpt lat="40.445783" lon="-5.267950">
        <ele>2254.0</ele>
        <time>2015-07-25T12:49:41Z</time>
      </trkpt>
      <trkpt lat="40.445750" lon="-5.267983">
        <ele>2253.0</ele>
        <time>2015-07-25T12:49:42Z</time>
      </trkpt>
      <trkpt lat="40.445733" lon="-5.268017">
        <ele>2253.0</ele>
        <time>2015-07-25T12:49:43Z</time>
      </trkpt>
      <trkpt lat="40.445683" lon="-5.268067">
        <ele>2252.0</ele>
        <time>2015-07-25T12:49:44Z</time>
      </trkpt>
      <trkpt lat="40.445650" lon="-5.268133">
        <ele>2251.0</ele>
        <time>2015-07-25T12:49:45Z</time>
      </trkpt>
      <trkpt lat="40.445617" lon="-5.268233">
        <ele>2251.0</ele>
        <time>2015-07-25T12:49:46Z</time>
      </trkpt>
      <trkpt lat="40.445567" lon="-5.268317">
        <ele>2252.0</ele>
        <time>2015-07-25T12:49:47Z</time>
      </trkpt>
      <trkpt lat="40.445533" lon="-5.268400">
        <ele>2253.0</ele>
        <time>2015-07-25T12:49:48Z</time>
      </trkpt>
      <trkpt lat="40.445500" lon="-5.268500">
        <ele>2254.0</ele>
        <time>2015-07-25T12:49:49Z</time>
      </trkpt>
      <trkpt lat="40.445450" lon="-5.268583">
        <ele>2253.0</ele>
        <time>2015-07-25T12:49:50Z</time>
      </trkpt>
      <trkpt lat="40.445417" lon="-5.268650">
        <ele>2251.0</ele>
        <time>2015-07-25T12:49:51Z</time>
      </trkpt>
      <trkpt lat="40.445367" lon="-5.268733">
        <ele>2249.0</ele>
        <time>2015-07-25T12:49:52Z</time>
      </trkpt>
      <trkpt lat="40.445350" lon="-5.268817">
        <ele>2246.0</ele>
        <time>2015-07-25T12:49:53Z</time>
      </trkpt>
      <trkpt lat="40.445317" lon="-5.268933">
        <ele>2242.0</ele>
        <time>2015-07-25T12:49:54Z</time>
      </trkpt>
      <trkpt lat="40.445283" lon="-5.269033">
        <ele>2238.0</ele>
        <time>2015-07-25T12:49:55Z</time>
      </trkpt>
      <trkpt lat="40.445267" lon="-5.269150">
        <ele>2236.0</ele>
        <time>2015-07-25T12:49:56Z</time>
      </trkpt>
      <trkpt lat="40.445250" lon="-5.269250">
        <ele>2234.0</ele>
        <time>2015-07-25T12:49:57Z</time>
      </trkpt>
      <trkpt lat="40.445233" lon="-5.269367">
        <ele>2234.0</ele>
        <time>2015-07-25T12:49:58Z</time>
      </trkpt>
      <trkpt lat="40.445233" lon="-5.269467">
        <ele>2233.0</ele>
        <time>2015-07-25T12:49:59Z</time>
      </trkpt>
      <trkpt lat="40.445217" lon="-5.269583">
        <ele>2232.0</ele>
        <time>2015-07-25T12:50:00Z</time>
      </trkpt>
      <trkpt lat="40.445217" lon="-5.269700">
        <ele>2231.0</ele>
        <time>2015-07-25T12:50:01Z</time>
      </trkpt>
      <trkpt lat="40.445200" lon="-5.269817">
        <ele>2231.0</ele>
        <time>2015-07-25T12:50:02Z</time>
      </trkpt>
      <trkpt lat="40.445200" lon="-5.269933">
        <ele>2231.0</ele>
        <time>2015-07-25T12:50:03Z</time>
      </trkpt>
      <trkpt lat="40.445217" lon="-5.270050">
        <ele>2231.0</ele>
        <time>2015-07-25T12:50:04Z</time>
      </trkpt>
      <trkpt lat="40.445217" lon="-5.270150">
        <ele>2231.0</ele>
        <time>2015-07-25T12:50:05Z</time>
      </trkpt>
      <trkpt lat="40.445217" lon="-5.270233">
        <ele>2230.0</ele>
        <time>2015-07-25T12:50:06Z</time>
      </trkpt>
      <trkpt lat="40.445217" lon="-5.270350">
        <ele>2227.0</ele>
        <time>2015-07-25T12:50:07Z</time>
      </trkpt>
      <trkpt lat="40.445200" lon="-5.270467">
        <ele>2224.0</ele>
        <time>2015-07-25T12:50:08Z</time>
      </trkpt>
      <trkpt lat="40.445167" lon="-5.270600">
        <ele>2221.0</ele>
        <time>2015-07-25T12:50:09Z</time>
      </trkpt>
      <trkpt lat="40.445150" lon="-5.270733">
        <ele>2219.0</ele>
        <time>2015-07-25T12:50:10Z</time>
      </trkpt>
      <trkpt lat="40.445117" lon="-5.270850">
        <ele>2217.0</ele>
        <time>2015-07-25T12:50:11Z</time>
      </trkpt>
      <trkpt lat="40.445067" lon="-5.270983">
        <ele>2216.0</ele>
        <time>2015-07-25T12:50:12Z</time>
      </trkpt>
      <trkpt lat="40.445017" lon="-5.271100">
        <ele>2214.0</ele>
        <time>2015-07-25T12:50:13Z</time>
      </trkpt>
      <trkpt lat="40.444967" lon="-5.271217">
        <ele>2212.0</ele>
        <time>2015-07-25T12:50:14Z</time>
      </trkpt>
      <trkpt lat="40.444917" lon="-5.271333">
        <ele>2211.0</ele>
        <time>2015-07-25T12:50:15Z</time>
      </trkpt>
      <trkpt lat="40.444867" lon="-5.271450">
        <ele>2209.0</ele>
        <time>2015-07-25T12:50:16Z</time>
      </trkpt>
      <trkpt lat="40.444817" lon="-5.271550">
        <ele>2207.0</ele>
        <time>2015-07-25T12:50:17Z</time>
      </trkpt>
      <trkpt lat="40.444767" lon="-5.271667">
        <ele>2205.0</ele>
        <time>2015-07-25T12:50:18Z</time>
      </trkpt>
      <trkpt lat="40.444717" lon="-5.271783">
        <ele>2203.0</ele>
        <time>2015-07-25T12:50:19Z</time>
      </trkpt>
      <trkpt lat="40.444683" lon="-5.271900">
        <ele>2201.0</ele>
        <time>2015-07-25T12:50:20Z</time>
      </trkpt>
      <trkpt lat="40.444667" lon="-5.272033">
        <ele>2199.0</ele>
        <time>2015-07-25T12:50:21Z</time>
      </trkpt>
      <trkpt lat="40.444633" lon="-5.272150">
        <ele>2197.0</ele>
        <time>2015-07-25T12:50:22Z</time>
      </trkpt>
      <trkpt lat="40.444600" lon="-5.272267">
        <ele>2196.0</ele>
        <time>2015-07-25T12:50:23Z</time>
      </trkpt>
      <trkpt lat="40.444567" lon="-5.272383">
        <ele>2196.0</ele>
        <time>2015-07-25T12:50:24Z</time>
      </trkpt>
      <trkpt lat="40.444533" lon="-5.272483">
        <ele>2194.0</ele>
        <time>2015-07-25T12:50:25Z</time>
      </trkpt>
      <trkpt lat="40.444500" lon="-5.272600">
        <ele>2193.0</ele>
        <time>2015-07-25T12:50:26Z</time>
      </trkpt>
      <trkpt lat="40.444483" lon="-5.272717">
        <ele>2191.0</ele>
        <time>2015-07-25T12:50:27Z</time>
      </trkpt>
      <trkpt lat="40.444450" lon="-5.272833">
        <ele>2189.0</ele>
        <time>2015-07-25T12:50:28Z</time>
      </trkpt>
      <trkpt lat="40.444433" lon="-5.272950">
        <ele>2187.0</ele>
        <time>2015-07-25T12:50:29Z</time>
      </trkpt>
      <trkpt lat="40.444400" lon="-5.273050">
        <ele>2185.0</ele>
        <time>2015-07-25T12:50:30Z</time>
      </trkpt>
      <trkpt lat="40.444367" lon="-5.273167">
        <ele>2183.0</ele>
        <time>2015-07-25T12:50:31Z</time>
      </trkpt>
      <trkpt lat="40.444317" lon="-5.273283">
        <ele>2180.0</ele>
        <time>2015-07-25T12:50:32Z</time>
      </trkpt>
      <trkpt lat="40.444283" lon="-5.273400">
        <ele>2177.0</ele>
        <time>2015-07-25T12:50:33Z</time>
      </trkpt>
      <trkpt lat="40.444233" lon="-5.273517">
        <ele>2174.0</ele>
        <time>2015-07-25T12:50:34Z</time>
      </trkpt>
      <trkpt lat="40.444200" lon="-5.273633">
        <ele>2172.0</ele>
        <time>2015-07-25T12:50:35Z</time>
      </trkpt>
      <trkpt lat="40.444133" lon="-5.273750">
        <ele>2170.0</ele>
        <time>2015-07-25T12:50:36Z</time>
      </trkpt>
      <trkpt lat="40.444083" lon="-5.273867">
        <ele>2168.0</ele>
        <time>2015-07-25T12:50:37Z</time>
      </trkpt>
      <trkpt lat="40.444033" lon="-5.273983">
        <ele>2167.0</ele>
        <time>2015-07-25T12:50:38Z</time>
      </trkpt>
      <trkpt lat="40.443983" lon="-5.274100">
        <ele>2165.0</ele>
        <time>2015-07-25T12:50:39Z</time>
      </trkpt>
      <trkpt lat="40.443933" lon="-5.274217">
        <ele>2164.0</ele>
        <time>2015-07-25T12:50:40Z</time>
      </trkpt>
      <trkpt lat="40.443883" lon="-5.274333">
        <ele>2162.0</ele>
        <time>2015-07-25T12:50:41Z</time>
      </trkpt>
      <trkpt lat="40.443850" lon="-5.274433">
        <ele>2161.0</ele>
        <time>2015-07-25T12:50:42Z</time>
      </trkpt>
      <trkpt lat="40.443817" lon="-5.274550">
        <ele>2160.0</ele>
        <time>2015-07-25T12:50:43Z</time>
      </trkpt>
      <trkpt lat="40.443783" lon="-5.274667">
        <ele>2159.0</ele>
        <time>2015-07-25T12:50:44Z</time>
      </trkpt>
      <trkpt lat="40.443750" lon="-5.274767">
        <ele>2157.0</ele>
        <time>2015-07-25T12:50:45Z</time>
      </trkpt>
      <trkpt lat="40.443717" lon="-5.274867">
        <ele>2156.0</ele>
        <time>2015-07-25T12:50:46Z</time>
      </trkpt>
      <trkpt lat="40.443683" lon="-5.274967">
        <ele>2154.0</ele>
        <time>2015-07-25T12:50:47Z</time>
      </trkpt>
      <trkpt lat="40.443650" lon="-5.275083">
        <ele>2152.0</ele>
        <time>2015-07-25T12:50:48Z</time>
      </trkpt>
      <trkpt lat="40.443617" lon="-5.275200">
        <ele>2150.0</ele>
        <time>2015-07-25T12:50:49Z</time>
      </trkpt>
      <trkpt lat="40.443583" lon="-5.275317">
        <ele>2148.0</ele>
        <time>2015-07-25T12:50:50Z</time>
      </trkpt>
      <trkpt lat="40.443567" lon="-5.275433">
        <ele>2146.0</ele>
        <time>2015-07-25T12:50:51Z</time>
      </trkpt>
      <trkpt lat="40.443517" lon="-5.275550">
        <ele>2145.0</ele>
        <time>2015-07-25T12:50:52Z</time>
      </trkpt>
      <trkpt lat="40.443483" lon="-5.275667">
        <ele>2144.0</ele>
        <time>2015-07-25T12:50:53Z</time>
      </trkpt>
      <trkpt lat="40.443433" lon="-5.275767">
        <ele>2143.0</ele>
        <time>2015-07-25T12:50:54Z</time>
      </trkpt>
      <trkpt lat="40.443400" lon="-5.275883">
        <ele>2142.0</ele>
        <time>2015-07-25T12:50:55Z</time>
      </trkpt>
      <trkpt lat="40.443367" lon="-5.275983">
        <ele>2141.0</ele>
        <time>2015-07-25T12:50:56Z</time>
      </trkpt>
      <trkpt lat="40.443317" lon="-5.276083">
        <ele>2141.0</ele>
        <time>2015-07-25T12:50:57Z</time>
      </trkpt>
      <trkpt lat="40.443267" lon="-5.276167">
        <ele>2140.0</ele>
        <time>2015-07-25T12:50:58Z</time>
      </trkpt>
      <trkpt lat="40.443217" lon="-5.276233">
        <ele>2139.0</ele>
        <time>2015-07-25T12:50:59Z</time>
      </trkpt>
      <trkpt lat="40.443150" lon="-5.276317">
        <ele>2136.0</ele>
        <time>2015-07-25T12:51:00Z</time>
      </trkpt>
      <trkpt lat="40.443100" lon="-5.276417">
        <ele>2134.0</ele>
        <time>2015-07-25T12:51:01Z</time>
      </trkpt>
      <trkpt lat="40.443067" lon="-5.276517">
        <ele>2132.0</ele>
        <time>2015-07-25T12:51:02Z</time>
      </trkpt>
      <trkpt lat="40.443033" lon="-5.276617">
        <ele>2129.0</ele>
        <time>2015-07-25T12:51:03Z</time>
      </trkpt>
      <trkpt lat="40.443000" lon="-5.276717">
        <ele>2126.0</ele>
        <time>2015-07-25T12:51:04Z</time>
      </trkpt>
      <trkpt lat="40.442950" lon="-5.276817">
        <ele>2124.0</ele>
        <time>2015-07-25T12:51:05Z</time>
      </trkpt>
      <trkpt lat="40.442883" lon="-5.276900">
        <ele>2121.0</ele>
        <time>2015-07-25T12:51:06Z</time>
      </trkpt>
      <trkpt lat="40.442850" lon="-5.277000">
        <ele>2118.0</ele>
        <time>2015-07-25T12:51:07Z</time>
      </trkpt>
      <trkpt lat="40.442833" lon="-5.277100">
        <ele>2114.0</ele>
        <time>2015-07-25T12:51:08Z</time>
      </trkpt>
      <trkpt lat="40.442817" lon="-5.277200">
        <ele>2111.0</ele>
        <time>2015-07-25T12:51:09Z</time>
      </trkpt>
      <trkpt lat="40.442833" lon="-5.277317">
        <ele>2107.0</ele>
        <time>2015-07-25T12:51:10Z</time>
      </trkpt>
      <trkpt lat="40.442833" lon="-5.277417">
        <ele>2106.0</ele>
        <time>2015-07-25T12:51:11Z</time>
      </trkpt>
      <trkpt lat="40.442850" lon="-5.277517">
        <ele>2105.0</ele>
        <time>2015-07-25T12:51:12Z</time>
      </trkpt>
      <trkpt lat="40.442850" lon="-5.277617">
        <ele>2105.0</ele>
        <time>2015-07-25T12:51:13Z</time>
      </trkpt>
      <trkpt lat="40.442850" lon="-5.277717">
        <ele>2104.0</ele>
        <time>2015-07-25T12:51:14Z</time>
      </trkpt>
      <trkpt lat="40.442833" lon="-5.277817">
        <ele>2104.0</ele>
        <time>2015-07-25T12:51:15Z</time>
      </trkpt>
      <trkpt lat="40.442833" lon="-5.277917">
        <ele>2104.0</ele>
        <time>2015-07-25T12:51:16Z</time>
      </trkpt>
      <trkpt lat="40.442833" lon="-5.278033">
        <ele>2105.0</ele>
        <time>2015-07-25T12:51:17Z</time>
      </trkpt>
      <trkpt lat="40.442817" lon="-5.278133">
        <ele>2107.0</ele>
        <time>2015-07-25T12:51:18Z</time>
      </trkpt>
      <trkpt lat="40.442817" lon="-5.278200">
        <ele>2110.0</ele>
        <time>2015-07-25T12:51:19Z</time>
      </trkpt>
      <trkpt lat="40.442800" lon="-5.278283">
        <ele>2111.0</ele>
        <time>2015-07-25T12:51:20Z</time>
      </trkpt>
      <trkpt lat="40.442783" lon="-5.278350">
        <ele>2112.0</ele>
        <time>2015-07-25T12:51:21Z</time>
      </trkpt>
      <trkpt lat="40.442767" lon="-5.278433">
        <ele>2112.0</ele>
        <time>2015-07-25T12:51:22Z</time>
      </trkpt>
      <trkpt lat="40.442767" lon="-5.278517">
        <ele>2111.0</ele>
        <time>2015-07-25T12:51:23Z</time>
      </trkpt>
      <trkpt lat="40.442767" lon="-5.278600">
        <ele>2111.0</ele>
        <time>2015-07-25T12:51:24Z</time>
      </trkpt>
      <trkpt lat="40.442783" lon="-5.278667">
        <ele>2110.0</ele>
        <time>2015-07-25T12:51:25Z</time>
      </trkpt>
      <trkpt lat="40.442800" lon="-5.278733">
        <ele>2110.0</ele>
        <time>2015-07-25T12:51:26Z</time>
      </trkpt>
      <trkpt lat="40.442800" lon="-5.278817">
        <ele>2109.0</ele>
        <time>2015-07-25T12:51:27Z</time>
      </trkpt>
      <trkpt lat="40.442767" lon="-5.278900">
        <ele>2108.0</ele>
        <time>2015-07-25T12:51:28Z</time>
      </trkpt>
      <trkpt lat="40.442733" lon="-5.279000">
        <ele>2107.0</ele>
        <time>2015-07-25T12:51:29Z</time>
      </trkpt>
      <trkpt lat="40.442667" lon="-5.279100">
        <ele>2106.0</ele>
        <time>2015-07-25T12:51:30Z</time>
      </trkpt>
      <trkpt lat="40.442600" lon="-5.279200">
        <ele>2107.0</ele>
        <time>2015-07-25T12:51:31Z</time>
      </trkpt>
      <trkpt lat="40.442550" lon="-5.279283">
        <ele>2107.0</ele>
        <time>2015-07-25T12:51:32Z</time>
      </trkpt>
      <trkpt lat="40.442500" lon="-5.279367">
        <ele>2108.0</ele>
        <time>2015-07-25T12:51:33Z</time>
      </trkpt>
      <trkpt lat="40.442467" lon="-5.279450">
        <ele>2108.0</ele>
        <time>2015-07-25T12:51:34Z</time>
      </trkpt>
      <trkpt lat="40.442417" lon="-5.279533">
        <ele>2108.0</ele>
        <time>2015-07-25T12:51:35Z</time>
      </trkpt>
      <trkpt lat="40.442367" lon="-5.279617">
        <ele>2107.0</ele>
        <time>2015-07-25T12:51:36Z</time>
      </trkpt>
      <trkpt lat="40.442317" lon="-5.279700">
        <ele>2107.0</ele>
        <time>2015-07-25T12:51:37Z</time>
      </trkpt>
      <trkpt lat="40.442267" lon="-5.279783">
        <ele>2106.0</ele>
        <time>2015-07-25T12:51:38Z</time>
      </trkpt>
      <trkpt lat="40.442217" lon="-5.279850">
        <ele>2105.0</ele>
        <time>2015-07-25T12:51:39Z</time>
      </trkpt>
      <trkpt lat="40.442167" lon="-5.279917">
        <ele>2103.0</ele>
        <time>2015-07-25T12:51:40Z</time>
      </trkpt>
      <trkpt lat="40.442100" lon="-5.279983">
        <ele>2101.0</ele>
        <time>2015-07-25T12:51:41Z</time>
      </trkpt>
      <trkpt lat="40.442033" lon="-5.280083">
        <ele>2099.0</ele>
        <time>2015-07-25T12:51:42Z</time>
      </trkpt>
      <trkpt lat="40.441967" lon="-5.280183">
        <ele>2096.0</ele>
        <time>2015-07-25T12:51:43Z</time>
      </trkpt>
      <trkpt lat="40.441917" lon="-5.280283">
        <ele>2095.0</ele>
        <time>2015-07-25T12:51:44Z</time>
      </trkpt>
      <trkpt lat="40.441850" lon="-5.280367">
        <ele>2095.0</ele>
        <time>2015-07-25T12:51:45Z</time>
      </trkpt>
      <trkpt lat="40.441800" lon="-5.280433">
        <ele>2094.0</ele>
        <time>2015-07-25T12:51:46Z</time>
      </trkpt>
      <trkpt lat="40.441733" lon="-5.280483">
        <ele>2093.0</ele>
        <time>2015-07-25T12:51:47Z</time>
      </trkpt>
      <trkpt lat="40.441650" lon="-5.280533">
        <ele>2092.0</ele>
        <time>2015-07-25T12:51:48Z</time>
      </trkpt>
      <trkpt lat="40.441583" lon="-5.280600">
        <ele>2090.0</ele>
        <time>2015-07-25T12:51:49Z</time>
      </trkpt>
      <trkpt lat="40.441517" lon="-5.280667">
        <ele>2088.0</ele>
        <time>2015-07-25T12:51:50Z</time>
      </trkpt>
      <trkpt lat="40.441433" lon="-5.280733">
        <ele>2087.0</ele>
        <time>2015-07-25T12:51:51Z</time>
      </trkpt>
      <trkpt lat="40.441367" lon="-5.280800">
        <ele>2086.0</ele>
        <time>2015-07-25T12:51:52Z</time>
      </trkpt>
      <trkpt lat="40.441300" lon="-5.280883">
        <ele>2084.0</ele>
        <time>2015-07-25T12:51:53Z</time>
      </trkpt>
      <trkpt lat="40.441217" lon="-5.280950">
        <ele>2083.0</ele>
        <time>2015-07-25T12:51:54Z</time>
      </trkpt>
      <trkpt lat="40.441150" lon="-5.281017">
        <ele>2081.0</ele>
        <time>2015-07-25T12:51:55Z</time>
      </trkpt>
      <trkpt lat="40.441083" lon="-5.281083">
        <ele>2079.0</ele>
        <time>2015-07-25T12:51:56Z</time>
      </trkpt>
      <trkpt lat="40.441033" lon="-5.281167">
        <ele>2076.0</ele>
        <time>2015-07-25T12:51:57Z</time>
      </trkpt>
      <trkpt lat="40.440967" lon="-5.281267">
        <ele>2074.0</ele>
        <time>2015-07-25T12:51:58Z</time>
      </trkpt>
      <trkpt lat="40.440917" lon="-5.281367">
        <ele>2072.0</ele>
        <time>2015-07-25T12:51:59Z</time>
      </trkpt>
      <trkpt lat="40.440850" lon="-5.281450">
        <ele>2072.0</ele>
        <time>2015-07-25T12:52:00Z</time>
      </trkpt>
      <trkpt lat="40.440800" lon="-5.281550">
        <ele>2072.0</ele>
        <time>2015-07-25T12:52:01Z</time>
      </trkpt>
      <trkpt lat="40.440733" lon="-5.281633">
        <ele>2072.0</ele>
        <time>2015-07-25T12:52:02Z</time>
      </trkpt>
      <trkpt lat="40.440650" lon="-5.281717">
        <ele>2071.0</ele>
        <time>2015-07-25T12:52:03Z</time>
      </trkpt>
      <trkpt lat="40.440583" lon="-5.281817">
        <ele>2070.0</ele>
        <time>2015-07-25T12:52:04Z</time>
      </trkpt>
      <trkpt lat="40.440517" lon="-5.281917">
        <ele>2068.0</ele>
        <time>2015-07-25T12:52:05Z</time>
      </trkpt>
      <trkpt lat="40.440450" lon="-5.282017">
        <ele>2065.0</ele>
        <time>2015-07-25T12:52:06Z</time>
      </trkpt>
      <trkpt lat="40.440400" lon="-5.282133">
        <ele>2061.0</ele>
        <time>2015-07-25T12:52:07Z</time>
      </trkpt>
      <trkpt lat="40.440317" lon="-5.282250">
        <ele>2058.0</ele>
        <time>2015-07-25T12:52:08Z</time>
      </trkpt>
      <trkpt lat="40.440233" lon="-5.282350">
        <ele>2054.0</ele>
        <time>2015-07-25T12:52:09Z</time>
      </trkpt>
      <trkpt lat="40.440150" lon="-5.282483">
        <ele>2051.0</ele>
        <time>2015-07-25T12:52:10Z</time>
      </trkpt>
      <trkpt lat="40.440067" lon="-5.282600">
        <ele>2050.0</ele>
        <time>2015-07-25T12:52:11Z</time>
      </trkpt>
      <trkpt lat="40.439967" lon="-5.282717">
        <ele>2050.0</ele>
        <time>2015-07-25T12:52:12Z</time>
      </trkpt>
      <trkpt lat="40.439883" lon="-5.282817">
        <ele>2050.0</ele>
        <time>2015-07-25T12:52:13Z</time>
      </trkpt>
      <trkpt lat="40.439800" lon="-5.282900">
        <ele>2050.0</ele>
        <time>2015-07-25T12:52:14Z</time>
      </trkpt>
      <trkpt lat="40.439717" lon="-5.282983">
        <ele>2048.0</ele>
        <time>2015-07-25T12:52:15Z</time>
      </trkpt>
      <trkpt lat="40.439633" lon="-5.283067">
        <ele>2045.0</ele>
        <time>2015-07-25T12:52:16Z</time>
      </trkpt>
      <trkpt lat="40.439567" lon="-5.283150">
        <ele>2040.0</ele>
        <time>2015-07-25T12:52:17Z</time>
      </trkpt>
      <trkpt lat="40.439483" lon="-5.283250">
        <ele>2035.0</ele>
        <time>2015-07-25T12:52:18Z</time>
      </trkpt>
      <trkpt lat="40.439400" lon="-5.283383">
        <ele>2031.0</ele>
        <time>2015-07-25T12:52:19Z</time>
      </trkpt>
      <trkpt lat="40.439333" lon="-5.283533">
        <ele>2030.0</ele>
        <time>2015-07-25T12:52:20Z</time>
      </trkpt>
      <trkpt lat="40.439283" lon="-5.283683">
        <ele>2032.0</ele>
        <time>2015-07-25T12:52:21Z</time>
      </trkpt>
      <trkpt lat="40.439250" lon="-5.283817">
        <ele>2037.0</ele>
        <time>2015-07-25T12:52:22Z</time>
      </trkpt>
      <trkpt lat="40.439233" lon="-5.283917">
        <ele>2044.0</ele>
        <time>2015-07-25T12:52:23Z</time>
      </trkpt>
      <trkpt lat="40.439200" lon="-5.284000">
        <ele>2051.0</ele>
        <time>2015-07-25T12:52:24Z</time>
      </trkpt>
      <trkpt lat="40.439167" lon="-5.284067">
        <ele>2056.0</ele>
        <time>2015-07-25T12:52:25Z</time>
      </trkpt>
      <trkpt lat="40.439133" lon="-5.284117">
        <ele>2059.0</ele>
        <time>2015-07-25T12:52:26Z</time>
      </trkpt>
      <trkpt lat="40.439117" lon="-5.284183">
        <ele>2062.0</ele>
        <time>2015-07-25T12:52:27Z</time>
      </trkpt>
      <trkpt lat="40.439117" lon="-5.284267">
        <ele>2064.0</ele>
        <time>2015-07-25T12:52:28Z</time>
      </trkpt>
      <trkpt lat="40.439167" lon="-5.284317">
        <ele>2067.0</ele>
        <time>2015-07-25T12:52:29Z</time>
      </trkpt>
      <trkpt lat="40.439233" lon="-5.284317">
        <ele>2069.0</ele>
        <time>2015-07-25T12:52:30Z</time>
      </trkpt>
      <trkpt lat="40.439317" lon="-5.284233">
        <ele>2071.0</ele>
        <time>2015-07-25T12:52:31Z</time>
      </trkpt>
      <trkpt lat="40.439350" lon="-5.284067">
        <ele>2074.0</ele>
        <time>2015-07-25T12:52:32Z</time>
      </trkpt>
      <trkpt lat="40.439333" lon="-5.283883">
        <ele>2077.0</ele>
        <time>2015-07-25T12:52:33Z</time>
      </trkpt>
      <trkpt lat="40.439217" lon="-5.283717">
        <ele>2078.0</ele>
        <time>2015-07-25T12:52:34Z</time>
      </trkpt>
      <trkpt lat="40.439067" lon="-5.283650">
        <ele>2078.0</ele>
        <time>2015-07-25T12:52:35Z</time>
      </trkpt>
      <trkpt lat="40.438917" lon="-5.283650">
        <ele>2081.0</ele>
        <time>2015-07-25T12:52:36Z</time>
      </trkpt>
      <trkpt lat="40.438817" lon="-5.283750">
        <ele>2084.0</ele>
        <time>2015-07-25T12:52:37Z</time>
      </trkpt>
      <trkpt lat="40.438783" lon="-5.283850">
        <ele>2087.0</ele>
        <time>2015-07-25T12:52:38Z</time>
      </trkpt>
      <trkpt lat="40.438833" lon="-5.283933">
        <ele>2089.0</ele>
        <time>2015-07-25T12:52:39Z</time>
      </trkpt>
      <trkpt lat="40.438933" lon="-5.283917">
        <ele>2090.0</ele>
        <time>2015-07-25T12:52:40Z</time>
      </trkpt>
      <trkpt lat="40.439017" lon="-5.283800">
        <ele>2094.0</ele>
        <time>2015-07-25T12:52:41Z</time>
      </trkpt>
      <trkpt lat="40.439033" lon="-5.283617">
        <ele>2098.0</ele>
        <time>2015-07-25T12:52:42Z</time>
      </trkpt>
      <trkpt lat="40.438983" lon="-5.283433">
        <ele>2101.0</ele>
        <time>2015-07-25T12:52:43Z</time>
      </trkpt>
      <trkpt lat="40.438867" lon="-5.283283">
        <ele>2103.0</ele>
        <time>2015-07-25T12:52:44Z</time>
      </trkpt>
      <trkpt lat="40.438733" lon="-5.283200">
        <ele>2105.0</ele>
        <time>2015-07-25T12:52:45Z</time>
      </trkpt>
      <trkpt lat="40.438583" lon="-5.283167">
        <ele>2108.0</ele>
        <time>2015-07-25T12:52:46Z</time>
      </trkpt>
      <trkpt lat="40.438467" lon="-5.283200">
        <ele>2112.0</ele>
        <time>2015-07-25T12:52:47Z</time>
      </trkpt>
      <trkpt lat="40.438367" lon="-5.283283">
        <ele>2115.0</ele>
        <time>2015-07-25T12:52:48Z</time>
      </trkpt>
      <trkpt lat="40.438333" lon="-5.283367">
        <ele>2118.0</ele>
        <time>2015-07-25T12:52:49Z</time>
      </trkpt>
      <trkpt lat="40.438350" lon="-5.283450">
        <ele>2119.0</ele>
        <time>2015-07-25T12:52:50Z</time>
      </trkpt>
      <trkpt lat="40.438433" lon="-5.283500">
        <ele>2120.0</ele>
        <time>2015-07-25T12:52:51Z</time>
      </trkpt>
      <trkpt lat="40.438550" lon="-5.283400">
        <ele>2121.0</ele>
        <time>2015-07-25T12:52:52Z</time>
      </trkpt>
      <trkpt lat="40.438600" lon="-5.283283">
        <ele>2123.0</ele>
        <time>2015-07-25T12:52:53Z</time>
      </trkpt>
      <trkpt lat="40.438633" lon="-5.283100">
        <ele>2129.0</ele>
        <time>2015-07-25T12:52:54Z</time>
      </trkpt>
      <trkpt lat="40.438583" lon="-5.282933">
        <ele>2135.0</ele>
        <time>2015-07-25T12:52:55Z</time>
      </trkpt>
      <trkpt lat="40.438517" lon="-5.282800">
        <ele>2139.0</ele>
        <time>2015-07-25T12:52:56Z</time>
      </trkpt>
      <trkpt lat="40.438417" lon="-5.282683">
        <ele>2140.0</ele>
        <time>2015-07-25T12:52:57Z</time>
      </trkpt>
      <trkpt lat="40.438300" lon="-5.282583">
        <ele>2142.0</ele>
        <time>2015-07-25T12:52:58Z</time>
      </trkpt>
      <trkpt lat="40.438167" lon="-5.282517">
        <ele>2142.0</ele>
        <time>2015-07-25T12:52:59Z</time>
      </trkpt>
      <trkpt lat="40.438017" lon="-5.282517">
        <ele>2144.0</ele>
        <time>2015-07-25T12:53:00Z</time>
      </trkpt>
      <trkpt lat="40.437900" lon="-5.282583">
        <ele>2145.0</ele>
        <time>2015-07-25T12:53:01Z</time>
      </trkpt>
      <trkpt lat="40.437817" lon="-5.282683">
        <ele>2148.0</ele>
        <time>2015-07-25T12:53:02Z</time>
      </trkpt>
      <trkpt lat="40.437783" lon="-5.282800">
        <ele>2151.0</ele>
        <time>2015-07-25T12:53:03Z</time>
      </trkpt>
      <trkpt lat="40.437800" lon="-5.282883">
        <ele>2156.0</ele>
        <time>2015-07-25T12:53:04Z</time>
      </trkpt>
      <trkpt lat="40.437833" lon="-5.282917">
        <ele>2159.0</ele>
        <time>2015-07-25T12:53:05Z</time>
      </trkpt>
      <trkpt lat="40.437883" lon="-5.282917">
        <ele>2161.0</ele>
        <time>2015-07-25T12:53:06Z</time>
      </trkpt>
      <trkpt lat="40.437950" lon="-5.282883">
        <ele>2162.0</ele>
        <time>2015-07-25T12:53:07Z</time>
      </trkpt>
      <trkpt lat="40.438017" lon="-5.282800">
        <ele>2163.0</ele>
        <time>2015-07-25T12:53:08Z</time>
      </trkpt>
      <trkpt lat="40.438067" lon="-5.282650">
        <ele>2163.0</ele>
        <time>2015-07-25T12:53:09Z</time>
      </trkpt>
      <trkpt lat="40.438083" lon="-5.282467">
        <ele>2164.0</ele>
        <time>2015-07-25T12:53:10Z</time>
      </trkpt>
      <trkpt lat="40.438033" lon="-5.282267">
        <ele>2165.0</ele>
        <time>2015-07-25T12:53:11Z</time>
      </trkpt>
      <trkpt lat="40.437933" lon="-5.282100">
        <ele>2167.0</ele>
        <time>2015-07-25T12:53:12Z</time>
      </trkpt>
      <trkpt lat="40.437800" lon="-5.282000">
        <ele>2168.0</ele>
        <time>2015-07-25T12:53:13Z</time>
      </trkpt>
      <trkpt lat="40.437633" lon="-5.281983">
        <ele>2168.0</ele>
        <time>2015-07-25T12:53:14Z</time>
      </trkpt>
      <trkpt lat="40.437517" lon="-5.282050">
        <ele>2169.0</ele>
        <time>2015-07-25T12:53:15Z</time>
      </trkpt>
      <trkpt lat="40.437433" lon="-5.282167">
        <ele>2173.0</ele>
        <time>2015-07-25T12:53:16Z</time>
      </trkpt>
      <trkpt lat="40.437383" lon="-5.282267">
        <ele>2178.0</ele>
        <time>2015-07-25T12:53:17Z</time>
      </trkpt>
      <trkpt lat="40.437350" lon="-5.282350">
        <ele>2184.0</ele>
        <time>2015-07-25T12:53:18Z</time>
      </trkpt>
      <trkpt lat="40.437333" lon="-5.282417">
        <ele>2188.0</ele>
        <time>2015-07-25T12:53:19Z</time>
      </trkpt>
      <trkpt lat="40.437333" lon="-5.282450">
        <ele>2189.0</ele>
        <time>2015-07-25T12:53:20Z</time>
      </trkpt>
      <trkpt lat="40.437350" lon="-5.282483">
        <ele>2189.0</ele>
        <time>2015-07-25T12:53:21Z</time>
      </trkpt>
      <trkpt lat="40.437400" lon="-5.282500">
        <ele>2188.0</ele>
        <time>2015-07-25T12:53:22Z</time>
      </trkpt>
      <trkpt lat="40.437467" lon="-5.282500">
        <ele>2187.0</ele>
        <time>2015-07-25T12:53:23Z</time>
      </trkpt>
      <trkpt lat="40.437550" lon="-5.282433">
        <ele>2188.0</ele>
        <time>2015-07-25T12:53:24Z</time>
      </trkpt>
      <trkpt lat="40.437617" lon="-5.282333">
        <ele>2190.0</ele>
        <time>2015-07-25T12:53:25Z</time>
      </trkpt>
      <trkpt lat="40.437633" lon="-5.282183">
        <ele>2191.0</ele>
        <time>2015-07-25T12:53:26Z</time>
      </trkpt>
      <trkpt lat="40.437633" lon="-5.282017">
        <ele>2193.0</ele>
        <time>2015-07-25T12:53:27Z</time>
      </trkpt>
      <trkpt lat="40.437600" lon="-5.281833">
        <ele>2194.0</ele>
        <time>2015-07-25T12:53:28Z</time>
      </trkpt>
      <trkpt lat="40.437550" lon="-5.281650">
        <ele>2195.0</ele>
        <time>2015-07-25T12:53:29Z</time>
      </trkpt>
      <trkpt lat="40.437467" lon="-5.281500">
        <ele>2196.0</ele>
        <time>2015-07-25T12:53:30Z</time>
      </trkpt>
      <trkpt lat="40.437350" lon="-5.281350">
        <ele>2196.0</ele>
        <time>2015-07-25T12:53:31Z</time>
      </trkpt>
      <trkpt lat="40.437217" lon="-5.281250">
        <ele>2196.0</ele>
        <time>2015-07-25T12:53:32Z</time>
      </trkpt>
      <trkpt lat="40.437067" lon="-5.281200">
        <ele>2196.0</ele>
        <time>2015-07-25T12:53:33Z</time>
      </trkpt>
      <trkpt lat="40.436917" lon="-5.281167">
        <ele>2198.0</ele>
        <time>2015-07-25T12:53:34Z</time>
      </trkpt>
      <trkpt lat="40.436783" lon="-5.281150">
        <ele>2202.0</ele>
        <time>2015-07-25T12:53:35Z</time>
      </trkpt>
      <trkpt lat="40.436667" lon="-5.281150">
        <ele>2205.0</ele>
        <time>2015-07-25T12:53:36Z</time>
      </trkpt>
      <trkpt lat="40.436550" lon="-5.281150">
        <ele>2208.0</ele>
        <time>2015-07-25T12:53:37Z</time>
      </trkpt>
      <trkpt lat="40.436450" lon="-5.281183">
        <ele>2211.0</ele>
        <time>2015-07-25T12:53:38Z</time>
      </trkpt>
      <trkpt lat="40.436333" lon="-5.281200">
        <ele>2213.0</ele>
        <time>2015-07-25T12:53:39Z</time>
      </trkpt>
      <trkpt lat="40.436217" lon="-5.281200">
        <ele>2216.0</ele>
        <time>2015-07-25T12:53:40Z</time>
      </trkpt>
      <trkpt lat="40.436100" lon="-5.281200">
        <ele>2218.0</ele>
        <time>2015-07-25T12:53:41Z</time>
      </trkpt>
      <trkpt lat="40.436000" lon="-5.281233">
        <ele>2220.0</ele>
        <time>2015-07-25T12:53:42Z</time>
      </trkpt>
      <trkpt lat="40.435933" lon="-5.281300">
        <ele>2221.0</ele>
        <time>2015-07-25T12:53:43Z</time>
      </trkpt>
      <trkpt lat="40.435883" lon="-5.281383">
        <ele>2221.0</ele>
        <time>2015-07-25T12:53:44Z</time>
      </trkpt>
      <trkpt lat="40.435900" lon="-5.281483">
        <ele>2221.0</ele>
        <time>2015-07-25T12:53:45Z</time>
      </trkpt>
      <trkpt lat="40.435950" lon="-5.281550">
        <ele>2222.0</ele>
        <time>2015-07-25T12:53:46Z</time>
      </trkpt>
      <trkpt lat="40.436033" lon="-5.281567">
        <ele>2224.0</ele>
        <time>2015-07-25T12:53:47Z</time>
      </trkpt>
      <trkpt lat="40.436100" lon="-5.281533">
        <ele>2226.0</ele>
        <time>2015-07-25T12:53:48Z</time>
      </trkpt>
      <trkpt lat="40.436167" lon="-5.281417">
        <ele>2229.0</ele>
        <time>2015-07-25T12:53:49Z</time>
      </trkpt>
      <trkpt lat="40.436200" lon="-5.281267">
        <ele>2232.0</ele>
        <time>2015-07-25T12:53:50Z</time>
      </trkpt>
      <trkpt lat="40.436183" lon="-5.281083">
        <ele>2233.0</ele>
        <time>2015-07-25T12:53:51Z</time>
      </trkpt>
      <trkpt lat="40.436133" lon="-5.280900">
        <ele>2234.0</ele>
        <time>2015-07-25T12:53:52Z</time>
      </trkpt>
      <trkpt lat="40.436033" lon="-5.280750">
        <ele>2233.0</ele>
        <time>2015-07-25T12:53:53Z</time>
      </trkpt>
      <trkpt lat="40.435883" lon="-5.280633">
        <ele>2234.0</ele>
        <time>2015-07-25T12:53:54Z</time>
      </trkpt>
      <trkpt lat="40.435733" lon="-5.280600">
        <ele>2235.0</ele>
        <time>2015-07-25T12:53:55Z</time>
      </trkpt>
      <trkpt lat="40.435583" lon="-5.280583">
        <ele>2239.0</ele>
        <time>2015-07-25T12:53:56Z</time>
      </trkpt>
      <trkpt lat="40.435467" lon="-5.280617">
        <ele>2242.0</ele>
        <time>2015-07-25T12:53:57Z</time>
      </trkpt>
      <trkpt lat="40.435350" lon="-5.280633">
        <ele>2245.0</ele>
        <time>2015-07-25T12:53:58Z</time>
      </trkpt>
      <trkpt lat="40.435267" lon="-5.280683">
        <ele>2247.0</ele>
        <time>2015-07-25T12:53:59Z</time>
      </trkpt>
      <trkpt lat="40.435183" lon="-5.280750">
        <ele>2247.0</ele>
        <time>2015-07-25T12:54:00Z</time>
      </trkpt>
      <trkpt lat="40.435150" lon="-5.280850">
        <ele>2246.0</ele>
        <time>2015-07-25T12:54:01Z</time>
      </trkpt>
      <trkpt lat="40.435133" lon="-5.280950">
        <ele>2245.0</ele>
        <time>2015-07-25T12:54:02Z</time>
      </trkpt>
      <trkpt lat="40.435133" lon="-5.281050">
        <ele>2245.0</ele>
        <time>2015-07-25T12:54:03Z</time>
      </trkpt>
      <trkpt lat="40.435117" lon="-5.281133">
        <ele>2248.0</ele>
        <time>2015-07-25T12:54:04Z</time>
      </trkpt>
      <trkpt lat="40.435083" lon="-5.281217">
        <ele>2249.0</ele>
        <time>2015-07-25T12:54:05Z</time>
      </trkpt>
      <trkpt lat="40.435050" lon="-5.281283">
        <ele>2249.0</ele>
        <time>2015-07-25T12:54:06Z</time>
      </trkpt>
      <trkpt lat="40.435000" lon="-5.281383">
        <ele>2249.0</ele>
        <time>2015-07-25T12:54:07Z</time>
      </trkpt>
      <trkpt lat="40.434967" lon="-5.281483">
        <ele>2248.0</ele>
        <time>2015-07-25T12:54:08Z</time>
      </trkpt>
      <trkpt lat="40.434950" lon="-5.281600">
        <ele>2247.0</ele>
        <time>2015-07-25T12:54:09Z</time>
      </trkpt>
      <trkpt lat="40.434917" lon="-5.281700">
        <ele>2248.0</ele>
        <time>2015-07-25T12:54:10Z</time>
      </trkpt>
      <trkpt lat="40.434900" lon="-5.281783">
        <ele>2250.0</ele>
        <time>2015-07-25T12:54:11Z</time>
      </trkpt>
      <trkpt lat="40.434867" lon="-5.281867">
        <ele>2251.0</ele>
        <time>2015-07-25T12:54:12Z</time>
      </trkpt>
      <trkpt lat="40.434817" lon="-5.281933">
        <ele>2251.0</ele>
        <time>2015-07-25T12:54:13Z</time>
      </trkpt>
      <trkpt lat="40.434783" lon="-5.282017">
        <ele>2251.0</ele>
        <time>2015-07-25T12:54:14Z</time>
      </trkpt>
      <trkpt lat="40.434750" lon="-5.282100">
        <ele>2250.0</ele>
        <time>2015-07-25T12:54:15Z</time>
      </trkpt>
      <trkpt lat="40.434717" lon="-5.282183">
        <ele>2249.0</ele>
        <time>2015-07-25T12:54:16Z</time>
      </trkpt>
      <trkpt lat="40.434667" lon="-5.282300">
        <ele>2249.0</ele>
        <time>2015-07-25T12:54:17Z</time>
      </trkpt>
      <trkpt lat="40.434633" lon="-5.282400">
        <ele>2248.0</ele>
        <time>2015-07-25T12:54:18Z</time>
      </trkpt>
      <trkpt lat="40.434583" lon="-5.282517">
        <ele>2248.0</ele>
        <time>2015-07-25T12:54:19Z</time>
      </trkpt>
      <trkpt lat="40.434533" lon="-5.282617">
        <ele>2249.0</ele>
        <time>2015-07-25T12:54:20Z</time>
      </trkpt>
      <trkpt lat="40.434500" lon="-5.282733">
        <ele>2250.0</ele>
        <time>2015-07-25T12:54:21Z</time>
      </trkpt>
      <trkpt lat="40.434467" lon="-5.282833">
        <ele>2251.0</ele>
        <time>2015-07-25T12:54:22Z</time>
      </trkpt>
      <trkpt lat="40.434450" lon="-5.282933">
        <ele>2251.0</ele>
        <time>2015-07-25T12:54:23Z</time>
      </trkpt>
      <trkpt lat="40.434450" lon="-5.283033">
        <ele>2252.0</ele>
        <time>2015-07-25T12:54:24Z</time>
      </trkpt>
      <trkpt lat="40.434433" lon="-5.283133">
        <ele>2252.0</ele>
        <time>2015-07-25T12:54:25Z</time>
      </trkpt>
      <trkpt lat="40.434433" lon="-5.283233">
        <ele>2253.0</ele>
        <time>2015-07-25T12:54:26Z</time>
      </trkpt>
      <trkpt lat="40.434400" lon="-5.283333">
        <ele>2253.0</ele>
        <time>2015-07-25T12:54:27Z</time>
      </trkpt>
      <trkpt lat="40.434383" lon="-5.283433">
        <ele>2253.0</ele>
        <time>2015-07-25T12:54:28Z</time>
      </trkpt>
      <trkpt lat="40.434350" lon="-5.283533">
        <ele>2251.0</ele>
        <time>2015-07-25T12:54:29Z</time>
      </trkpt>
      <trkpt lat="40.434333" lon="-5.283633">
        <ele>2248.0</ele>
        <time>2015-07-25T12:54:30Z</time>
      </trkpt>
      <trkpt lat="40.434283" lon="-5.283767">
        <ele>2246.0</ele>
        <time>2015-07-25T12:54:31Z</time>
      </trkpt>
      <trkpt lat="40.434250" lon="-5.283900">
        <ele>2246.0</ele>
        <time>2015-07-25T12:54:32Z</time>
      </trkpt>
      <trkpt lat="40.434200" lon="-5.284017">
        <ele>2247.0</ele>
        <time>2015-07-25T12:54:33Z</time>
      </trkpt>
      <trkpt lat="40.434150" lon="-5.284133">
        <ele>2248.0</ele>
        <time>2015-07-25T12:54:34Z</time>
      </trkpt>
      <trkpt lat="40.434117" lon="-5.284233">
        <ele>2248.0</ele>
        <time>2015-07-25T12:54:35Z</time>
      </trkpt>
      <trkpt lat="40.434067" lon="-5.284333">
        <ele>2248.0</ele>
        <time>2015-07-25T12:54:36Z</time>
      </trkpt>
      <trkpt lat="40.434033" lon="-5.284433">
        <ele>2246.0</ele>
        <time>2015-07-25T12:54:37Z</time>
      </trkpt>
      <trkpt lat="40.433983" lon="-5.284533">
        <ele>2244.0</ele>
        <time>2015-07-25T12:54:38Z</time>
      </trkpt>
      <trkpt lat="40.433950" lon="-5.284650">
        <ele>2242.0</ele>
        <time>2015-07-25T12:54:39Z</time>
      </trkpt>
      <trkpt lat="40.433900" lon="-5.284783">
        <ele>2239.0</ele>
        <time>2015-07-25T12:54:40Z</time>
      </trkpt>
      <trkpt lat="40.433867" lon="-5.284933">
        <ele>2239.0</ele>
        <time>2015-07-25T12:54:41Z</time>
      </trkpt>
      <trkpt lat="40.433833" lon="-5.285050">
        <ele>2240.0</ele>
        <time>2015-07-25T12:54:42Z</time>
      </trkpt>
      <trkpt lat="40.433800" lon="-5.285167">
        <ele>2243.0</ele>
        <time>2015-07-25T12:54:43Z</time>
      </trkpt>
      <trkpt lat="40.433767" lon="-5.285250">
        <ele>2245.0</ele>
        <time>2015-07-25T12:54:44Z</time>
      </trkpt>
      <trkpt lat="40.433733" lon="-5.285317">
        <ele>2245.0</ele>
        <time>2015-07-25T12:54:45Z</time>
      </trkpt>
      <trkpt lat="40.433683" lon="-5.285417">
        <ele>2244.0</ele>
        <time>2015-07-25T12:54:46Z</time>
      </trkpt>
      <trkpt lat="40.433650" lon="-5.285500">
        <ele>2243.0</ele>
        <time>2015-07-25T12:54:47Z</time>
      </trkpt>
      <trkpt lat="40.433617" lon="-5.285617">
        <ele>2242.0</ele>
        <time>2015-07-25T12:54:48Z</time>
      </trkpt>
      <trkpt lat="40.433567" lon="-5.285717">
        <ele>2242.0</ele>
        <time>2015-07-25T12:54:49Z</time>
      </trkpt>
      <trkpt lat="40.433500" lon="-5.285817">
        <ele>2242.0</ele>
        <time>2015-07-25T12:54:50Z</time>
      </trkpt>
      <trkpt lat="40.433467" lon="-5.285917">
        <ele>2244.0</ele>
        <time>2015-07-25T12:54:51Z</time>
      </trkpt>
      <trkpt lat="40.433417" lon="-5.286017">
        <ele>2245.0</ele>
        <time>2015-07-25T12:54:52Z</time>
      </trkpt>
      <trkpt lat="40.433383" lon="-5.286083">
        <ele>2246.0</ele>
        <time>2015-07-25T12:54:53Z</time>
      </trkpt>
      <trkpt lat="40.433350" lon="-5.286167">
        <ele>2245.0</ele>
        <time>2015-07-25T12:54:54Z</time>
      </trkpt>
      <trkpt lat="40.433300" lon="-5.286233">
        <ele>2243.0</ele>
        <time>2015-07-25T12:54:55Z</time>
      </trkpt>
      <trkpt lat="40.433267" lon="-5.286333">
        <ele>2240.0</ele>
        <time>2015-07-25T12:54:56Z</time>
      </trkpt>
      <trkpt lat="40.433233" lon="-5.286433">
        <ele>2237.0</ele>
        <time>2015-07-25T12:54:57Z</time>
      </trkpt>
      <trkpt lat="40.433183" lon="-5.286533">
        <ele>2235.0</ele>
        <time>2015-07-25T12:54:58Z</time>
      </trkpt>
      <trkpt lat="40.433150" lon="-5.286650">
        <ele>2235.0</ele>
        <time>2015-07-25T12:54:59Z</time>
      </trkpt>
      <trkpt lat="40.433117" lon="-5.286767">
        <ele>2234.0</ele>
        <time>2015-07-25T12:55:00Z</time>
      </trkpt>
      <trkpt lat="40.433100" lon="-5.286883">
        <ele>2235.0</ele>
        <time>2015-07-25T12:55:01Z</time>
      </trkpt>
      <trkpt lat="40.433067" lon="-5.287000">
        <ele>2236.0</ele>
        <time>2015-07-25T12:55:02Z</time>
      </trkpt>
      <trkpt lat="40.433033" lon="-5.287100">
        <ele>2235.0</ele>
        <time>2015-07-25T12:55:03Z</time>
      </trkpt>
      <trkpt lat="40.433000" lon="-5.287200">
        <ele>2234.0</ele>
        <time>2015-07-25T12:55:04Z</time>
      </trkpt>
      <trkpt lat="40.432950" lon="-5.287300">
        <ele>2230.0</ele>
        <time>2015-07-25T12:55:05Z</time>
      </trkpt>
      <trkpt lat="40.432900" lon="-5.287417">
        <ele>2228.0</ele>
        <time>2015-07-25T12:55:06Z</time>
      </trkpt>
      <trkpt lat="40.432833" lon="-5.287517">
        <ele>2226.0</ele>
        <time>2015-07-25T12:55:07Z</time>
      </trkpt>
      <trkpt lat="40.432767" lon="-5.287617">
        <ele>2224.0</ele>
        <time>2015-07-25T12:55:08Z</time>
      </trkpt>
      <trkpt lat="40.432717" lon="-5.287717">
        <ele>2222.0</ele>
        <time>2015-07-25T12:55:09Z</time>
      </trkpt>
      <trkpt lat="40.432650" lon="-5.287817">
        <ele>2219.0</ele>
        <time>2015-07-25T12:55:10Z</time>
      </trkpt>
      <trkpt lat="40.432600" lon="-5.287917">
        <ele>2216.0</ele>
        <time>2015-07-25T12:55:11Z</time>
      </trkpt>
      <trkpt lat="40.432533" lon="-5.288033">
        <ele>2212.0</ele>
        <time>2015-07-25T12:55:12Z</time>
      </trkpt>
      <trkpt lat="40.432467" lon="-5.288150">
        <ele>2209.0</ele>
        <time>2015-07-25T12:55:13Z</time>
      </trkpt>
      <trkpt lat="40.432400" lon="-5.288283">
        <ele>2207.0</ele>
        <time>2015-07-25T12:55:14Z</time>
      </trkpt>
      <trkpt lat="40.432333" lon="-5.288417">
        <ele>2206.0</ele>
        <time>2015-07-25T12:55:15Z</time>
      </trkpt>
      <trkpt lat="40.432300" lon="-5.288550">
        <ele>2205.0</ele>
        <time>2015-07-25T12:55:16Z</time>
      </trkpt>
      <trkpt lat="40.432250" lon="-5.288683">
        <ele>2205.0</ele>
        <time>2015-07-25T12:55:17Z</time>
      </trkpt>
      <trkpt lat="40.432183" lon="-5.288817">
        <ele>2205.0</ele>
        <time>2015-07-25T12:55:18Z</time>
      </trkpt>
      <trkpt lat="40.432133" lon="-5.288967">
        <ele>2206.0</ele>
        <time>2015-07-25T12:55:19Z</time>
      </trkpt>
      <trkpt lat="40.432067" lon="-5.289100">
        <ele>2206.0</ele>
        <time>2015-07-25T12:55:20Z</time>
      </trkpt>
      <trkpt lat="40.432017" lon="-5.289217">
        <ele>2206.0</ele>
        <time>2015-07-25T12:55:21Z</time>
      </trkpt>
      <trkpt lat="40.431967" lon="-5.289350">
        <ele>2206.0</ele>
        <time>2015-07-25T12:55:22Z</time>
      </trkpt>
      <trkpt lat="40.431900" lon="-5.289450">
        <ele>2207.0</ele>
        <time>2015-07-25T12:55:23Z</time>
      </trkpt>
      <trkpt lat="40.431833" lon="-5.289550">
        <ele>2207.0</ele>
        <time>2015-07-25T12:55:24Z</time>
      </trkpt>
      <trkpt lat="40.431783" lon="-5.289650">
        <ele>2205.0</ele>
        <time>2015-07-25T12:55:25Z</time>
      </trkpt>
      <trkpt lat="40.431733" lon="-5.289767">
        <ele>2204.0</ele>
        <time>2015-07-25T12:55:26Z</time>
      </trkpt>
      <trkpt lat="40.431683" lon="-5.289900">
        <ele>2203.0</ele>
        <time>2015-07-25T12:55:27Z</time>
      </trkpt>
      <trkpt lat="40.431617" lon="-5.290017">
        <ele>2202.0</ele>
        <time>2015-07-25T12:55:28Z</time>
      </trkpt>
      <trkpt lat="40.431567" lon="-5.290133">
        <ele>2202.0</ele>
        <time>2015-07-25T12:55:29Z</time>
      </trkpt>
      <trkpt lat="40.431500" lon="-5.290250">
        <ele>2202.0</ele>
        <time>2015-07-25T12:55:30Z</time>
      </trkpt>
      <trkpt lat="40.431450" lon="-5.290367">
        <ele>2202.0</ele>
        <time>2015-07-25T12:55:31Z</time>
      </trkpt>
      <trkpt lat="40.431400" lon="-5.290467">
        <ele>2202.0</ele>
        <time>2015-07-25T12:55:32Z</time>
      </trkpt>
      <trkpt lat="40.431350" lon="-5.290567">
        <ele>2201.0</ele>
        <time>2015-07-25T12:55:33Z</time>
      </trkpt>
      <trkpt lat="40.431300" lon="-5.290683">
        <ele>2200.0</ele>
        <time>2015-07-25T12:55:34Z</time>
      </trkpt>
      <trkpt lat="40.431267" lon="-5.290783">
        <ele>2199.0</ele>
        <time>2015-07-25T12:55:35Z</time>
      </trkpt>
      <trkpt lat="40.431233" lon="-5.290917">
        <ele>2198.0</ele>
        <time>2015-07-25T12:55:36Z</time>
      </trkpt>
      <trkpt lat="40.431183" lon="-5.291033">
        <ele>2197.0</ele>
        <time>2015-07-25T12:55:37Z</time>
      </trkpt>
      <trkpt lat="40.431150" lon="-5.291150">
        <ele>2196.0</ele>
        <time>2015-07-25T12:55:38Z</time>
      </trkpt>
      <trkpt lat="40.431117" lon="-5.291267">
        <ele>2195.0</ele>
        <time>2015-07-25T12:55:39Z</time>
      </trkpt>
      <trkpt lat="40.431067" lon="-5.291367">
        <ele>2193.0</ele>
        <time>2015-07-25T12:55:40Z</time>
      </trkpt>
      <trkpt lat="40.431017" lon="-5.291467">
        <ele>2191.0</ele>
        <time>2015-07-25T12:55:41Z</time>
      </trkpt>
      <trkpt lat="40.430967" lon="-5.291583">
        <ele>2187.0</ele>
        <time>2015-07-25T12:55:42Z</time>
      </trkpt>
      <trkpt lat="40.430917" lon="-5.291717">
        <ele>2185.0</ele>
        <time>2015-07-25T12:55:43Z</time>
      </trkpt>
      <trkpt lat="40.430850" lon="-5.291850">
        <ele>2182.0</ele>
        <time>2015-07-25T12:55:44Z</time>
      </trkpt>
      <trkpt lat="40.430800" lon="-5.292000">
        <ele>2181.0</ele>
        <time>2015-07-25T12:55:45Z</time>
      </trkpt>
      <trkpt lat="40.430750" lon="-5.292133">
        <ele>2181.0</ele>
        <time>2015-07-25T12:55:46Z</time>
      </trkpt>
      <trkpt lat="40.430717" lon="-5.292250">
        <ele>2182.0</ele>
        <time>2015-07-25T12:55:47Z</time>
      </trkpt>
      <trkpt lat="40.430683" lon="-5.292367">
        <ele>2182.0</ele>
        <time>2015-07-25T12:55:48Z</time>
      </trkpt>
      <trkpt lat="40.430633" lon="-5.292483">
        <ele>2180.0</ele>
        <time>2015-07-25T12:55:49Z</time>
      </trkpt>
      <trkpt lat="40.430583" lon="-5.292600">
        <ele>2179.0</ele>
        <time>2015-07-25T12:55:50Z</time>
      </trkpt>
      <trkpt lat="40.430533" lon="-5.292717">
        <ele>2177.0</ele>
        <time>2015-07-25T12:55:51Z</time>
      </trkpt>
      <trkpt lat="40.430467" lon="-5.292833">
        <ele>2175.0</ele>
        <time>2015-07-25T12:55:52Z</time>
      </trkpt>
      <trkpt lat="40.430417" lon="-5.292950">
        <ele>2173.0</ele>
        <time>2015-07-25T12:55:53Z</time>
      </trkpt>
      <trkpt lat="40.430383" lon="-5.293083">
        <ele>2171.0</ele>
        <time>2015-07-25T12:55:54Z</time>
      </trkpt>
      <trkpt lat="40.430333" lon="-5.293217">
        <ele>2168.0</ele>
        <time>2015-07-25T12:55:55Z</time>
      </trkpt>
      <trkpt lat="40.430283" lon="-5.293350">
        <ele>2164.0</ele>
        <time>2015-07-25T12:55:56Z</time>
      </trkpt>
      <trkpt lat="40.430233" lon="-5.293483">
        <ele>2161.0</ele>
        <time>2015-07-25T12:55:57Z</time>
      </trkpt>
      <trkpt lat="40.430200" lon="-5.293617">
        <ele>2159.0</ele>
        <time>2015-07-25T12:55:58Z</time>
      </trkpt>
      <trkpt lat="40.430150" lon="-5.293750">
        <ele>2158.0</ele>
        <time>2015-07-25T12:55:59Z</time>
      </trkpt>
      <trkpt lat="40.430117" lon="-5.293867">
        <ele>2158.0</ele>
        <time>2015-07-25T12:56:00Z</time>
      </trkpt>
      <trkpt lat="40.430083" lon="-5.293983">
        <ele>2157.0</ele>
        <time>2015-07-25T12:56:01Z</time>
      </trkpt>
      <trkpt lat="40.430033" lon="-5.294100">
        <ele>2155.0</ele>
        <time>2015-07-25T12:56:02Z</time>
      </trkpt>
      <trkpt lat="40.429983" lon="-5.294217">
        <ele>2153.0</ele>
        <time>2015-07-25T12:56:03Z</time>
      </trkpt>
      <trkpt lat="40.429950" lon="-5.294350">
        <ele>2151.0</ele>
        <time>2015-07-25T12:56:04Z</time>
      </trkpt>
      <trkpt lat="40.429917" lon="-5.294483">
        <ele>2149.0</ele>
        <time>2015-07-25T12:56:05Z</time>
      </trkpt>
      <trkpt lat="40.429883" lon="-5.294617">
        <ele>2148.0</ele>
        <time>2015-07-25T12:56:06Z</time>
      </trkpt>
      <trkpt lat="40.429850" lon="-5.294733">
        <ele>2147.0</ele>
        <time>2015-07-25T12:56:07Z</time>
      </trkpt>
      <trkpt lat="40.429817" lon="-5.294850">
        <ele>2145.0</ele>
        <time>2015-07-25T12:56:08Z</time>
      </trkpt>
      <trkpt lat="40.429783" lon="-5.294967">
        <ele>2143.0</ele>
        <time>2015-07-25T12:56:09Z</time>
      </trkpt>
      <trkpt lat="40.429750" lon="-5.295100">
        <ele>2139.0</ele>
        <time>2015-07-25T12:56:10Z</time>
      </trkpt>
      <trkpt lat="40.429700" lon="-5.295250">
        <ele>2137.0</ele>
        <time>2015-07-25T12:56:11Z</time>
      </trkpt>
      <trkpt lat="40.429650" lon="-5.295367">
        <ele>2135.0</ele>
        <time>2015-07-25T12:56:12Z</time>
      </trkpt>
      <trkpt lat="40.429600" lon="-5.295483">
        <ele>2134.0</ele>
        <time>2015-07-25T12:56:13Z</time>
      </trkpt>
      <trkpt lat="40.429533" lon="-5.295583">
        <ele>2132.0</ele>
        <time>2015-07-25T12:56:14Z</time>
      </trkpt>
      <trkpt lat="40.429483" lon="-5.295700">
        <ele>2129.0</ele>
        <time>2015-07-25T12:56:15Z</time>
      </trkpt>
      <trkpt lat="40.429417" lon="-5.295817">
        <ele>2126.0</ele>
        <time>2015-07-25T12:56:16Z</time>
      </trkpt>
      <trkpt lat="40.429333" lon="-5.295933">
        <ele>2123.0</ele>
        <time>2015-07-25T12:56:17Z</time>
      </trkpt>
      <trkpt lat="40.429250" lon="-5.296067">
        <ele>2119.0</ele>
        <time>2015-07-25T12:56:18Z</time>
      </trkpt>
      <trkpt lat="40.429167" lon="-5.296183">
        <ele>2116.0</ele>
        <time>2015-07-25T12:56:19Z</time>
      </trkpt>
      <trkpt lat="40.429083" lon="-5.296317">
        <ele>2114.0</ele>
        <time>2015-07-25T12:56:20Z</time>
      </trkpt>
      <trkpt lat="40.428983" lon="-5.296433">
        <ele>2113.0</ele>
        <time>2015-07-25T12:56:21Z</time>
      </trkpt>
      <trkpt lat="40.428900" lon="-5.296533">
        <ele>2111.0</ele>
        <time>2015-07-25T12:56:22Z</time>
      </trkpt>
      <trkpt lat="40.428800" lon="-5.296650">
        <ele>2109.0</ele>
        <time>2015-07-25T12:56:23Z</time>
      </trkpt>
      <trkpt lat="40.428700" lon="-5.296750">
        <ele>2106.0</ele>
        <time>2015-07-25T12:56:24Z</time>
      </trkpt>
      <trkpt lat="40.428600" lon="-5.296883">
        <ele>2104.0</ele>
        <time>2015-07-25T12:56:25Z</time>
      </trkpt>
      <trkpt lat="40.428500" lon="-5.297017">
        <ele>2101.0</ele>
        <time>2015-07-25T12:56:26Z</time>
      </trkpt>
      <trkpt lat="40.428400" lon="-5.297133">
        <ele>2100.0</ele>
        <time>2015-07-25T12:56:27Z</time>
      </trkpt>
      <trkpt lat="40.428283" lon="-5.297233">
        <ele>2099.0</ele>
        <time>2015-07-25T12:56:28Z</time>
      </trkpt>
      <trkpt lat="40.428167" lon="-5.297333">
        <ele>2098.0</ele>
        <time>2015-07-25T12:56:29Z</time>
      </trkpt>
      <trkpt lat="40.428067" lon="-5.297433">
        <ele>2098.0</ele>
        <time>2015-07-25T12:56:30Z</time>
      </trkpt>
      <trkpt lat="40.427983" lon="-5.297533">
        <ele>2098.0</ele>
        <time>2015-07-25T12:56:31Z</time>
      </trkpt>
      <trkpt lat="40.427900" lon="-5.297650">
        <ele>2097.0</ele>
        <time>2015-07-25T12:56:32Z</time>
      </trkpt>
      <trkpt lat="40.427800" lon="-5.297767">
        <ele>2097.0</ele>
        <time>2015-07-25T12:56:33Z</time>
      </trkpt>
      <trkpt lat="40.427717" lon="-5.297900">
        <ele>2096.0</ele>
        <time>2015-07-25T12:56:34Z</time>
      </trkpt>
      <trkpt lat="40.427633" lon="-5.298033">
        <ele>2096.0</ele>
        <time>2015-07-25T12:56:35Z</time>
      </trkpt>
      <trkpt lat="40.427550" lon="-5.298150">
        <ele>2096.0</ele>
        <time>2015-07-25T12:56:36Z</time>
      </trkpt>
      <trkpt lat="40.427467" lon="-5.298283">
        <ele>2096.0</ele>
        <time>2015-07-25T12:56:37Z</time>
      </trkpt>
      <trkpt lat="40.427400" lon="-5.298400">
        <ele>2096.0</ele>
        <time>2015-07-25T12:56:38Z</time>
      </trkpt>
      <trkpt lat="40.427333" lon="-5.298517">
        <ele>2096.0</ele>
        <time>2015-07-25T12:56:39Z</time>
      </trkpt>
      <trkpt lat="40.427250" lon="-5.298617">
        <ele>2095.0</ele>
        <time>2015-07-25T12:56:40Z</time>
      </trkpt>
      <trkpt lat="40.427167" lon="-5.298717">
        <ele>2093.0</ele>
        <time>2015-07-25T12:56:41Z</time>
      </trkpt>
      <trkpt lat="40.427067" lon="-5.298817">
        <ele>2092.0</ele>
        <time>2015-07-25T12:56:42Z</time>
      </trkpt>
      <trkpt lat="40.426950" lon="-5.298900">
        <ele>2091.0</ele>
        <time>2015-07-25T12:56:43Z</time>
      </trkpt>
      <trkpt lat="40.426833" lon="-5.298967">
        <ele>2090.0</ele>
        <time>2015-07-25T12:56:44Z</time>
      </trkpt>
      <trkpt lat="40.426733" lon="-5.299033">
        <ele>2089.0</ele>
        <time>2015-07-25T12:56:45Z</time>
      </trkpt>
      <trkpt lat="40.426617" lon="-5.299083">
        <ele>2088.0</ele>
        <time>2015-07-25T12:56:46Z</time>
      </trkpt>
      <trkpt lat="40.426500" lon="-5.299133">
        <ele>2087.0</ele>
        <time>2015-07-25T12:56:47Z</time>
      </trkpt>
      <trkpt lat="40.426400" lon="-5.299217">
        <ele>2086.0</ele>
        <time>2015-07-25T12:56:48Z</time>
      </trkpt>
      <trkpt lat="40.426300" lon="-5.299317">
        <ele>2085.0</ele>
        <time>2015-07-25T12:56:49Z</time>
      </trkpt>
      <trkpt lat="40.426233" lon="-5.299433">
        <ele>2085.0</ele>
        <time>2015-07-25T12:56:50Z</time>
      </trkpt>
      <trkpt lat="40.426150" lon="-5.299533">
        <ele>2085.0</ele>
        <time>2015-07-25T12:56:51Z</time>
      </trkpt>
      <trkpt lat="40.426083" lon="-5.299633">
        <ele>2085.0</ele>
        <time>2015-07-25T12:56:52Z</time>
      </trkpt>
      <trkpt lat="40.426000" lon="-5.299717">
        <ele>2085.0</ele>
        <time>2015-07-25T12:56:53Z</time>
      </trkpt>
      <trkpt lat="40.425917" lon="-5.299817">
        <ele>2084.0</ele>
        <time>2015-07-25T12:56:54Z</time>
      </trkpt>
      <trkpt lat="40.425833" lon="-5.299917">
        <ele>2084.0</ele>
        <time>2015-07-25T12:56:55Z</time>
      </trkpt>
      <trkpt lat="40.425733" lon="-5.300000">
        <ele>2083.0</ele>
        <time>2015-07-25T12:56:56Z</time>
      </trkpt>
      <trkpt lat="40.425633" lon="-5.300067">
        <ele>2083.0</ele>
        <time>2015-07-25T12:56:57Z</time>
      </trkpt>
      <trkpt lat="40.425533" lon="-5.300117">
        <ele>2083.0</ele>
        <time>2015-07-25T12:56:58Z</time>
      </trkpt>
      <trkpt lat="40.425433" lon="-5.300183">
        <ele>2082.0</ele>
        <time>2015-07-25T12:56:59Z</time>
      </trkpt>
      <trkpt lat="40.425333" lon="-5.300300">
        <ele>2081.0</ele>
        <time>2015-07-25T12:57:00Z</time>
      </trkpt>
      <trkpt lat="40.425233" lon="-5.300417">
        <ele>2081.0</ele>
        <time>2015-07-25T12:57:01Z</time>
      </trkpt>
      <trkpt lat="40.425133" lon="-5.300533">
        <ele>2081.0</ele>
        <time>2015-07-25T12:57:02Z</time>
      </trkpt>
      <trkpt lat="40.425017" lon="-5.300633">
        <ele>2082.0</ele>
        <time>2015-07-25T12:57:03Z</time>
      </trkpt>
      <trkpt lat="40.424900" lon="-5.300700">
        <ele>2083.0</ele>
        <time>2015-07-25T12:57:04Z</time>
      </trkpt>
      <trkpt lat="40.424800" lon="-5.300783">
        <ele>2084.0</ele>
        <time>2015-07-25T12:57:05Z</time>
      </trkpt>
      <trkpt lat="40.424717" lon="-5.300883">
        <ele>2085.0</ele>
        <time>2015-07-25T12:57:06Z</time>
      </trkpt>
      <trkpt lat="40.424667" lon="-5.301000">
        <ele>2084.0</ele>
        <time>2015-07-25T12:57:07Z</time>
      </trkpt>
      <trkpt lat="40.424650" lon="-5.301117">
        <ele>2082.0</ele>
        <time>2015-07-25T12:57:08Z</time>
      </trkpt>
      <trkpt lat="40.424667" lon="-5.301250">
        <ele>2081.0</ele>
        <time>2015-07-25T12:57:09Z</time>
      </trkpt>
      <trkpt lat="40.424700" lon="-5.301350">
        <ele>2080.0</ele>
        <time>2015-07-25T12:57:10Z</time>
      </trkpt>
      <trkpt lat="40.424767" lon="-5.301417">
        <ele>2079.0</ele>
        <time>2015-07-25T12:57:11Z</time>
      </trkpt>
      <trkpt lat="40.424817" lon="-5.301417">
        <ele>2078.0</ele>
        <time>2015-07-25T12:57:12Z</time>
      </trkpt>
      <trkpt lat="40.424883" lon="-5.301367">
        <ele>2076.0</ele>
        <time>2015-07-25T12:57:13Z</time>
      </trkpt>
      <trkpt lat="40.424917" lon="-5.301283">
        <ele>2074.0</ele>
        <time>2015-07-25T12:57:14Z</time>
      </trkpt>
      <trkpt lat="40.424933" lon="-5.301200">
        <ele>2071.0</ele>
        <time>2015-07-25T12:57:15Z</time>
      </trkpt>
      <trkpt lat="40.424950" lon="-5.301083">
        <ele>2069.0</ele>
        <time>2015-07-25T12:57:16Z</time>
      </trkpt>
      <trkpt lat="40.424950" lon="-5.300950">
        <ele>2068.0</ele>
        <time>2015-07-25T12:57:17Z</time>
      </trkpt>
      <trkpt lat="40.424933" lon="-5.300800">
        <ele>2066.0</ele>
        <time>2015-07-25T12:57:18Z</time>
      </trkpt>
      <trkpt lat="40.424900" lon="-5.300667">
        <ele>2066.0</ele>
        <time>2015-07-25T12:57:19Z</time>
      </trkpt>
      <trkpt lat="40.424867" lon="-5.300550">
        <ele>2065.0</ele>
        <time>2015-07-25T12:57:20Z</time>
      </trkpt>
      <trkpt lat="40.424833" lon="-5.300417">
        <ele>2065.0</ele>
        <time>2015-07-25T12:57:21Z</time>
      </trkpt>
      <trkpt lat="40.424800" lon="-5.300283">
        <ele>2064.0</ele>
        <time>2015-07-25T12:57:22Z</time>
      </trkpt>
      <trkpt lat="40.424783" lon="-5.300133">
        <ele>2062.0</ele>
        <time>2015-07-25T12:57:23Z</time>
      </trkpt>
      <trkpt lat="40.424767" lon="-5.299983">
        <ele>2061.0</ele>
        <time>2015-07-25T12:57:24Z</time>
      </trkpt>
      <trkpt lat="40.424750" lon="-5.299833">
        <ele>2059.0</ele>
        <time>2015-07-25T12:57:25Z</time>
      </trkpt>
      <trkpt lat="40.424767" lon="-5.299683">
        <ele>2059.0</ele>
        <time>2015-07-25T12:57:26Z</time>
      </trkpt>
      <trkpt lat="40.424767" lon="-5.299550">
        <ele>2060.0</ele>
        <time>2015-07-25T12:57:27Z</time>
      </trkpt>
      <trkpt lat="40.424800" lon="-5.299433">
        <ele>2061.0</ele>
        <time>2015-07-25T12:57:28Z</time>
      </trkpt>
      <trkpt lat="40.424817" lon="-5.299350">
        <ele>2061.0</ele>
        <time>2015-07-25T12:57:29Z</time>
      </trkpt>
      <trkpt lat="40.424833" lon="-5.299267">
        <ele>2061.0</ele>
        <time>2015-07-25T12:57:30Z</time>
      </trkpt>
      <trkpt lat="40.424867" lon="-5.299183">
        <ele>2060.0</ele>
        <time>2015-07-25T12:57:31Z</time>
      </trkpt>
      <trkpt lat="40.424900" lon="-5.299117">
        <ele>2057.0</ele>
        <time>2015-07-25T12:57:32Z</time>
      </trkpt>
      <trkpt lat="40.424950" lon="-5.299050">
        <ele>2055.0</ele>
        <time>2015-07-25T12:57:33Z</time>
      </trkpt>
      <trkpt lat="40.425000" lon="-5.298983">
        <ele>2053.0</ele>
        <time>2015-07-25T12:57:34Z</time>
      </trkpt>
      <trkpt lat="40.425067" lon="-5.298917">
        <ele>2051.0</ele>
        <time>2015-07-25T12:57:35Z</time>
      </trkpt>
      <trkpt lat="40.425133" lon="-5.298867">
        <ele>2049.0</ele>
        <time>2015-07-25T12:57:36Z</time>
      </trkpt>
      <trkpt lat="40.425200" lon="-5.298800">
        <ele>2049.0</ele>
        <time>2015-07-25T12:57:37Z</time>
      </trkpt>
      <trkpt lat="40.425250" lon="-5.298733">
        <ele>2049.0</ele>
        <time>2015-07-25T12:57:38Z</time>
      </trkpt>
      <trkpt lat="40.425283" lon="-5.298667">
        <ele>2049.0</ele>
        <time>2015-07-25T12:57:39Z</time>
      </trkpt>
      <trkpt lat="40.425333" lon="-5.298583">
        <ele>2048.0</ele>
        <time>2015-07-25T12:57:40Z</time>
      </trkpt>
      <trkpt lat="40.425383" lon="-5.298517">
        <ele>2046.0</ele>
        <time>2015-07-25T12:57:41Z</time>
      </trkpt>
      <trkpt lat="40.425417" lon="-5.298450">
        <ele>2045.0</ele>
        <time>2015-07-25T12:57:42Z</time>
      </trkpt>
      <trkpt lat="40.425467" lon="-5.298383">
        <ele>2044.0</ele>
        <time>2015-07-25T12:57:43Z</time>
      </trkpt>
      <trkpt lat="40.425517" lon="-5.298333">
        <ele>2044.0</ele>
        <time>2015-07-25T12:57:44Z</time>
      </trkpt>
      <trkpt lat="40.425550" lon="-5.298300">
        <ele>2043.0</ele>
        <time>2015-07-25T12:57:45Z</time>
      </trkpt>
      <trkpt lat="40.425583" lon="-5.298267">
        <ele>2042.0</ele>
        <time>2015-07-25T12:57:46Z</time>
      </trkpt>
      <trkpt lat="40.425617" lon="-5.298233">
        <ele>2039.0</ele>
        <time>2015-07-25T12:57:47Z</time>
      </trkpt>
      <trkpt lat="40.425650" lon="-5.298183">
        <ele>2037.0</ele>
        <time>2015-07-25T12:57:48Z</time>
      </trkpt>
      <trkpt lat="40.425717" lon="-5.298150">
        <ele>2035.0</ele>
        <time>2015-07-25T12:57:49Z</time>
      </trkpt>
      <trkpt lat="40.425767" lon="-5.298133">
        <ele>2032.0</ele>
        <time>2015-07-25T12:57:50Z</time>
      </trkpt>
      <trkpt lat="40.425833" lon="-5.298133">
        <ele>2031.0</ele>
        <time>2015-07-25T12:57:51Z</time>
      </trkpt>
      <trkpt lat="40.425900" lon="-5.298167">
        <ele>2030.0</ele>
        <time>2015-07-25T12:57:52Z</time>
      </trkpt>
      <trkpt lat="40.425950" lon="-5.298183">
        <ele>2031.0</ele>
        <time>2015-07-25T12:57:53Z</time>
      </trkpt>
      <trkpt lat="40.425983" lon="-5.298217">
        <ele>2032.0</ele>
        <time>2015-07-25T12:57:54Z</time>
      </trkpt>
      <trkpt lat="40.426017" lon="-5.298233">
        <ele>2030.0</ele>
        <time>2015-07-25T12:57:55Z</time>
      </trkpt>
      <trkpt lat="40.426050" lon="-5.298233">
        <ele>2027.0</ele>
        <time>2015-07-25T12:57:56Z</time>
      </trkpt>
      <trkpt lat="40.426100" lon="-5.298250">
        <ele>2022.0</ele>
        <time>2015-07-25T12:57:57Z</time>
      </trkpt>
      <trkpt lat="40.426167" lon="-5.298250">
        <ele>2018.0</ele>
        <time>2015-07-25T12:57:58Z</time>
      </trkpt>
      <trkpt lat="40.426250" lon="-5.298233">
        <ele>2015.0</ele>
        <time>2015-07-25T12:57:59Z</time>
      </trkpt>
      <trkpt lat="40.426333" lon="-5.298217">
        <ele>2014.0</ele>
        <time>2015-07-25T12:58:00Z</time>
      </trkpt>
      <trkpt lat="40.426400" lon="-5.298200">
        <ele>2014.0</ele>
        <time>2015-07-25T12:58:01Z</time>
      </trkpt>
      <trkpt lat="40.426467" lon="-5.298217">
        <ele>2015.0</ele>
        <time>2015-07-25T12:58:02Z</time>
      </trkpt>
      <trkpt lat="40.426517" lon="-5.298233">
        <ele>2015.0</ele>
        <time>2015-07-25T12:58:03Z</time>
      </trkpt>
      <trkpt lat="40.426550" lon="-5.298250">
        <ele>2014.0</ele>
        <time>2015-07-25T12:58:04Z</time>
      </trkpt>
      <trkpt lat="40.426600" lon="-5.298233">
        <ele>2012.0</ele>
        <time>2015-07-25T12:58:05Z</time>
      </trkpt>
      <trkpt lat="40.426650" lon="-5.298217">
        <ele>2009.0</ele>
        <time>2015-07-25T12:58:06Z</time>
      </trkpt>
      <trkpt lat="40.426717" lon="-5.298183">
        <ele>2007.0</ele>
        <time>2015-07-25T12:58:07Z</time>
      </trkpt>
      <trkpt lat="40.426783" lon="-5.298150">
        <ele>2005.0</ele>
        <time>2015-07-25T12:58:08Z</time>
      </trkpt>
      <trkpt lat="40.426850" lon="-5.298117">
        <ele>2004.0</ele>
        <time>2015-07-25T12:58:09Z</time>
      </trkpt>
      <trkpt lat="40.426933" lon="-5.298067">
        <ele>2005.0</ele>
        <time>2015-07-25T12:58:10Z</time>
      </trkpt>
      <trkpt lat="40.426983" lon="-5.298033">
        <ele>2005.0</ele>
        <time>2015-07-25T12:58:11Z</time>
      </trkpt>
      <trkpt lat="40.427050" lon="-5.297983">
        <ele>2005.0</ele>
        <time>2015-07-25T12:58:12Z</time>
      </trkpt>
      <trkpt lat="40.427117" lon="-5.297933">
        <ele>2003.0</ele>
        <time>2015-07-25T12:58:13Z</time>
      </trkpt>
      <trkpt lat="40.427183" lon="-5.297883">
        <ele>2001.0</ele>
        <time>2015-07-25T12:58:14Z</time>
      </trkpt>
      <trkpt lat="40.427250" lon="-5.297817">
        <ele>2000.0</ele>
        <time>2015-07-25T12:58:15Z</time>
      </trkpt>
      <trkpt lat="40.427317" lon="-5.297750">
        <ele>1999.0</ele>
        <time>2015-07-25T12:58:16Z</time>
      </trkpt>
      <trkpt lat="40.427367" lon="-5.297700">
        <ele>1998.0</ele>
        <time>2015-07-25T12:58:17Z</time>
      </trkpt>
      <trkpt lat="40.427433" lon="-5.297633">
        <ele>1999.0</ele>
        <time>2015-07-25T12:58:18Z</time>
      </trkpt>
      <trkpt lat="40.427483" lon="-5.297583">
        <ele>1998.0</ele>
        <time>2015-07-25T12:58:19Z</time>
      </trkpt>
      <trkpt lat="40.427533" lon="-5.297517">
        <ele>1998.0</ele>
        <time>2015-07-25T12:58:20Z</time>
      </trkpt>
      <trkpt lat="40.427600" lon="-5.297467">
        <ele>1996.0</ele>
        <time>2015-07-25T12:58:21Z</time>
      </trkpt>
      <trkpt lat="40.427650" lon="-5.297400">
        <ele>1996.0</ele>
        <time>2015-07-25T12:58:22Z</time>
      </trkpt>
      <trkpt lat="40.427700" lon="-5.297350">
        <ele>1996.0</ele>
        <time>2015-07-25T12:58:23Z</time>
      </trkpt>
      <trkpt lat="40.427767" lon="-5.297317">
        <ele>1996.0</ele>
        <time>2015-07-25T12:58:24Z</time>
      </trkpt>
      <trkpt lat="40.427833" lon="-5.297267">
        <ele>1996.0</ele>
        <time>2015-07-25T12:58:25Z</time>
      </trkpt>
      <trkpt lat="40.427900" lon="-5.297217">
        <ele>1997.0</ele>
        <time>2015-07-25T12:58:26Z</time>
      </trkpt>
      <trkpt lat="40.427967" lon="-5.297150">
        <ele>1996.0</ele>
        <time>2015-07-25T12:58:27Z</time>
      </trkpt>
      <trkpt lat="40.428033" lon="-5.297100">
        <ele>1995.0</ele>
        <time>2015-07-25T12:58:28Z</time>
      </trkpt>
      <trkpt lat="40.428100" lon="-5.297033">
        <ele>1993.0</ele>
        <time>2015-07-25T12:58:29Z</time>
      </trkpt>
      <trkpt lat="40.428167" lon="-5.296983">
        <ele>1991.0</ele>
        <time>2015-07-25T12:58:30Z</time>
      </trkpt>
      <trkpt lat="40.428233" lon="-5.296933">
        <ele>1990.0</ele>
        <time>2015-07-25T12:58:31Z</time>
      </trkpt>
      <trkpt lat="40.428300" lon="-5.296900">
        <ele>1988.0</ele>
        <time>2015-07-25T12:58:32Z</time>
      </trkpt>
      <trkpt lat="40.428367" lon="-5.296850">
        <ele>1986.0</ele>
        <time>2015-07-25T12:58:33Z</time>
      </trkpt>
      <trkpt lat="40.428417" lon="-5.296800">
        <ele>1984.0</ele>
        <time>2015-07-25T12:58:34Z</time>
      </trkpt>
      <trkpt lat="40.428483" lon="-5.296750">
        <ele>1981.0</ele>
        <time>2015-07-25T12:58:35Z</time>
      </trkpt>
      <trkpt lat="40.428550" lon="-5.296683">
        <ele>1979.0</ele>
        <time>2015-07-25T12:58:36Z</time>
      </trkpt>
      <trkpt lat="40.428633" lon="-5.296600">
        <ele>1979.0</ele>
        <time>2015-07-25T12:58:37Z</time>
      </trkpt>
      <trkpt lat="40.428717" lon="-5.296517">
        <ele>1979.0</ele>
        <time>2015-07-25T12:58:38Z</time>
      </trkpt>
      <trkpt lat="40.428817" lon="-5.296433">
        <ele>1980.0</ele>
        <time>2015-07-25T12:58:39Z</time>
      </trkpt>
      <trkpt lat="40.428900" lon="-5.296350">
        <ele>1981.0</ele>
        <time>2015-07-25T12:58:40Z</time>
      </trkpt>
      <trkpt lat="40.428967" lon="-5.296267">
        <ele>1982.0</ele>
        <time>2015-07-25T12:58:41Z</time>
      </trkpt>
      <trkpt lat="40.429067" lon="-5.296200">
        <ele>1983.0</ele>
        <time>2015-07-25T12:58:42Z</time>
      </trkpt>
      <trkpt lat="40.429150" lon="-5.296117">
        <ele>1985.0</ele>
        <time>2015-07-25T12:58:43Z</time>
      </trkpt>
      <trkpt lat="40.429233" lon="-5.296033">
        <ele>1987.0</ele>
        <time>2015-07-25T12:58:44Z</time>
      </trkpt>
      <trkpt lat="40.429300" lon="-5.295950">
        <ele>1991.0</ele>
        <time>2015-07-25T12:58:45Z</time>
      </trkpt>
      <trkpt lat="40.429367" lon="-5.295883">
        <ele>1994.0</ele>
        <time>2015-07-25T12:58:46Z</time>
      </trkpt>
      <trkpt lat="40.429417" lon="-5.295850">
        <ele>1996.0</ele>
        <time>2015-07-25T12:58:47Z</time>
      </trkpt>
      <trkpt lat="40.429483" lon="-5.295867">
        <ele>1995.0</ele>
        <time>2015-07-25T12:58:48Z</time>
      </trkpt>
      <trkpt lat="40.429550" lon="-5.295917">
        <ele>1993.0</ele>
        <time>2015-07-25T12:58:49Z</time>
      </trkpt>
      <trkpt lat="40.429617" lon="-5.296000">
        <ele>1993.0</ele>
        <time>2015-07-25T12:58:50Z</time>
      </trkpt>
      <trkpt lat="40.429633" lon="-5.296100">
        <ele>1992.0</ele>
        <time>2015-07-25T12:58:51Z</time>
      </trkpt>
      <trkpt lat="40.429617" lon="-5.296217">
        <ele>1992.0</ele>
        <time>2015-07-25T12:58:52Z</time>
      </trkpt>
      <trkpt lat="40.429550" lon="-5.296333">
        <ele>1990.0</ele>
        <time>2015-07-25T12:58:53Z</time>
      </trkpt>
      <trkpt lat="40.429450" lon="-5.296400">
        <ele>1990.0</ele>
        <time>2015-07-25T12:58:54Z</time>
      </trkpt>
      <trkpt lat="40.429333" lon="-5.296433">
        <ele>1989.0</ele>
        <time>2015-07-25T12:58:55Z</time>
      </trkpt>
      <trkpt lat="40.429217" lon="-5.296400">
        <ele>1987.0</ele>
        <time>2015-07-25T12:58:56Z</time>
      </trkpt>
      <trkpt lat="40.429100" lon="-5.296300">
        <ele>1986.0</ele>
        <time>2015-07-25T12:58:57Z</time>
      </trkpt>
      <trkpt lat="40.429017" lon="-5.296167">
        <ele>1987.0</ele>
        <time>2015-07-25T12:58:58Z</time>
      </trkpt>
      <trkpt lat="40.428967" lon="-5.296033">
        <ele>1989.0</ele>
        <time>2015-07-25T12:58:59Z</time>
      </trkpt>
      <trkpt lat="40.428917" lon="-5.295883">
        <ele>1992.0</ele>
        <time>2015-07-25T12:59:00Z</time>
      </trkpt>
      <trkpt lat="40.428883" lon="-5.295750">
        <ele>1994.0</ele>
        <time>2015-07-25T12:59:01Z</time>
      </trkpt>
      <trkpt lat="40.428833" lon="-5.295617">
        <ele>1995.0</ele>
        <time>2015-07-25T12:59:02Z</time>
      </trkpt>
      <trkpt lat="40.428800" lon="-5.295500">
        <ele>1996.0</ele>
        <time>2015-07-25T12:59:03Z</time>
      </trkpt>
      <trkpt lat="40.428783" lon="-5.295367">
        <ele>1996.0</ele>
        <time>2015-07-25T12:59:04Z</time>
      </trkpt>
      <trkpt lat="40.428783" lon="-5.295233">
        <ele>1996.0</ele>
        <time>2015-07-25T12:59:05Z</time>
      </trkpt>
      <trkpt lat="40.428800" lon="-5.295100">
        <ele>1995.0</ele>
        <time>2015-07-25T12:59:06Z</time>
      </trkpt>
      <trkpt lat="40.428833" lon="-5.294967">
        <ele>1994.0</ele>
        <time>2015-07-25T12:59:07Z</time>
      </trkpt>
      <trkpt lat="40.428883" lon="-5.294833">
        <ele>1995.0</ele>
        <time>2015-07-25T12:59:08Z</time>
      </trkpt>
      <trkpt lat="40.428917" lon="-5.294733">
        <ele>1994.0</ele>
        <time>2015-07-25T12:59:09Z</time>
      </trkpt>
      <trkpt lat="40.428967" lon="-5.294633">
        <ele>1994.0</ele>
        <time>2015-07-25T12:59:10Z</time>
      </trkpt>
      <trkpt lat="40.429017" lon="-5.294533">
        <ele>1993.0</ele>
        <time>2015-07-25T12:59:11Z</time>
      </trkpt>
      <trkpt lat="40.429067" lon="-5.294433">
        <ele>1991.0</ele>
        <time>2015-07-25T12:59:12Z</time>
      </trkpt>
      <trkpt lat="40.429133" lon="-5.294333">
        <ele>1990.0</ele>
        <time>2015-07-25T12:59:13Z</time>
      </trkpt>
      <trkpt lat="40.429217" lon="-5.294250">
        <ele>1989.0</ele>
        <time>2015-07-25T12:59:14Z</time>
      </trkpt>
      <trkpt lat="40.429300" lon="-5.294183">
        <ele>1989.0</ele>
        <time>2015-07-25T12:59:15Z</time>
      </trkpt>
      <trkpt lat="40.429383" lon="-5.294100">
        <ele>1990.0</ele>
        <time>2015-07-25T12:59:16Z</time>
      </trkpt>
      <trkpt lat="40.429467" lon="-5.294000">
        <ele>1991.0</ele>
        <time>2015-07-25T12:59:17Z</time>
      </trkpt>
      <trkpt lat="40.429517" lon="-5.293900">
        <ele>1993.0</ele>
        <time>2015-07-25T12:59:18Z</time>
      </trkpt>
      <trkpt lat="40.429550" lon="-5.293817">
        <ele>1994.0</ele>
        <time>2015-07-25T12:59:19Z</time>
      </trkpt>
      <trkpt lat="40.429600" lon="-5.293733">
        <ele>1994.0</ele>
        <time>2015-07-25T12:59:20Z</time>
      </trkpt>
      <trkpt lat="40.429650" lon="-5.293650">
        <ele>1994.0</ele>
        <time>2015-07-25T12:59:21Z</time>
      </trkpt>
      <trkpt lat="40.429717" lon="-5.293550">
        <ele>1993.0</ele>
        <time>2015-07-25T12:59:22Z</time>
      </trkpt>
      <trkpt lat="40.429783" lon="-5.293467">
        <ele>1991.0</ele>
        <time>2015-07-25T12:59:23Z</time>
      </trkpt>
      <trkpt lat="40.429867" lon="-5.293383">
        <ele>1990.0</ele>
        <time>2015-07-25T12:59:24Z</time>
      </trkpt>
      <trkpt lat="40.429950" lon="-5.293300">
        <ele>1989.0</ele>
        <time>2015-07-25T12:59:25Z</time>
      </trkpt>
      <trkpt lat="40.430033" lon="-5.293217">
        <ele>1988.0</ele>
        <time>2015-07-25T12:59:26Z</time>
      </trkpt>
      <trkpt lat="40.430133" lon="-5.293133">
        <ele>1989.0</ele>
        <time>2015-07-25T12:59:27Z</time>
      </trkpt>
      <trkpt lat="40.430217" lon="-5.293050">
        <ele>1989.0</ele>
        <time>2015-07-25T12:59:28Z</time>
      </trkpt>
      <trkpt lat="40.430283" lon="-5.292967">
        <ele>1990.0</ele>
        <time>2015-07-25T12:59:29Z</time>
      </trkpt>
      <trkpt lat="40.430333" lon="-5.292867">
        <ele>1990.0</ele>
        <time>2015-07-25T12:59:30Z</time>
      </trkpt>
      <trkpt lat="40.430383" lon="-5.292750">
        <ele>1990.0</ele>
        <time>2015-07-25T12:59:31Z</time>
      </trkpt>
      <trkpt lat="40.430417" lon="-5.292633">
        <ele>1988.0</ele>
        <time>2015-07-25T12:59:32Z</time>
      </trkpt>
      <trkpt lat="40.430467" lon="-5.292533">
        <ele>1986.0</ele>
        <time>2015-07-25T12:59:33Z</time>
      </trkpt>
      <trkpt lat="40.430517" lon="-5.292450">
        <ele>1984.0</ele>
        <time>2015-07-25T12:59:34Z</time>
      </trkpt>
      <trkpt lat="40.430583" lon="-5.292383">
        <ele>1982.0</ele>
        <time>2015-07-25T12:59:35Z</time>
      </trkpt>
      <trkpt lat="40.430667" lon="-5.292317">
        <ele>1980.0</ele>
        <time>2015-07-25T12:59:36Z</time>
      </trkpt>
      <trkpt lat="40.430733" lon="-5.292267">
        <ele>1979.0</ele>
        <time>2015-07-25T12:59:37Z</time>
      </trkpt>
      <trkpt lat="40.430817" lon="-5.292200">
        <ele>1977.0</ele>
        <time>2015-07-25T12:59:38Z</time>
      </trkpt>
      <trkpt lat="40.430883" lon="-5.292117">
        <ele>1975.0</ele>
        <time>2015-07-25T12:59:39Z</time>
      </trkpt>
      <trkpt lat="40.430967" lon="-5.292067">
        <ele>1973.0</ele>
        <time>2015-07-25T12:59:40Z</time>
      </trkpt>
      <trkpt lat="40.431050" lon="-5.292033">
        <ele>1970.0</ele>
        <time>2015-07-25T12:59:41Z</time>
      </trkpt>
      <trkpt lat="40.431133" lon="-5.292000">
        <ele>1968.0</ele>
        <time>2015-07-25T12:59:42Z</time>
      </trkpt>
      <trkpt lat="40.431233" lon="-5.292000">
        <ele>1967.0</ele>
        <time>2015-07-25T12:59:43Z</time>
      </trkpt>
      <trkpt lat="40.431333" lon="-5.291967">
        <ele>1966.0</ele>
        <time>2015-07-25T12:59:44Z</time>
      </trkpt>
      <trkpt lat="40.431417" lon="-5.291917">
        <ele>1965.0</ele>
        <time>2015-07-25T12:59:45Z</time>
      </trkpt>
      <trkpt lat="40.431500" lon="-5.291850">
        <ele>1965.0</ele>
        <time>2015-07-25T12:59:46Z</time>
      </trkpt>
      <trkpt lat="40.431583" lon="-5.291800">
        <ele>1965.0</ele>
        <time>2015-07-25T12:59:47Z</time>
      </trkpt>
      <trkpt lat="40.431667" lon="-5.291750">
        <ele>1965.0</ele>
        <time>2015-07-25T12:59:48Z</time>
      </trkpt>
      <trkpt lat="40.431750" lon="-5.291700">
        <ele>1965.0</ele>
        <time>2015-07-25T12:59:49Z</time>
      </trkpt>
      <trkpt lat="40.431833" lon="-5.291650">
        <ele>1965.0</ele>
        <time>2015-07-25T12:59:50Z</time>
      </trkpt>
      <trkpt lat="40.431900" lon="-5.291583">
        <ele>1965.0</ele>
        <time>2015-07-25T12:59:51Z</time>
      </trkpt>
      <trkpt lat="40.431983" lon="-5.291500">
        <ele>1964.0</ele>
        <time>2015-07-25T12:59:52Z</time>
      </trkpt>
      <trkpt lat="40.432050" lon="-5.291417">
        <ele>1964.0</ele>
        <time>2015-07-25T12:59:53Z</time>
      </trkpt>
      <trkpt lat="40.432150" lon="-5.291333">
        <ele>1963.0</ele>
        <time>2015-07-25T12:59:54Z</time>
      </trkpt>
      <trkpt lat="40.432233" lon="-5.291267">
        <ele>1965.0</ele>
        <time>2015-07-25T12:59:55Z</time>
      </trkpt>
      <trkpt lat="40.432317" lon="-5.291200">
        <ele>1967.0</ele>
        <time>2015-07-25T12:59:56Z</time>
      </trkpt>
      <trkpt lat="40.432383" lon="-5.291117">
        <ele>1970.0</ele>
        <time>2015-07-25T12:59:57Z</time>
      </trkpt>
      <trkpt lat="40.432433" lon="-5.291050">
        <ele>1971.0</ele>
        <time>2015-07-25T12:59:58Z</time>
      </trkpt>
      <trkpt lat="40.432500" lon="-5.290983">
        <ele>1972.0</ele>
        <time>2015-07-25T12:59:59Z</time>
      </trkpt>
      <trkpt lat="40.432583" lon="-5.290933">
        <ele>1971.0</ele>
        <time>2015-07-25T13:00:00Z</time>
      </trkpt>
      <trkpt lat="40.432650" lon="-5.290883">
        <ele>1972.0</ele>
        <time>2015-07-25T13:00:01Z</time>
      </trkpt>
      <trkpt lat="40.432700" lon="-5.290900">
        <ele>1972.0</ele>
        <time>2015-07-25T13:00:02Z</time>
      </trkpt>
      <trkpt lat="40.432750" lon="-5.290933">
        <ele>1971.0</ele>
        <time>2015-07-25T13:00:03Z</time>
      </trkpt>
      <trkpt lat="40.432783" lon="-5.291000">
        <ele>1970.0</ele>
        <time>2015-07-25T13:00:04Z</time>
      </trkpt>
      <trkpt lat="40.432767" lon="-5.291100">
        <ele>1970.0</ele>
        <time>2015-07-25T13:00:05Z</time>
      </trkpt>
      <trkpt lat="40.432733" lon="-5.291183">
        <ele>1970.0</ele>
        <time>2015-07-25T13:00:06Z</time>
      </trkpt>
      <trkpt lat="40.432650" lon="-5.291250">
        <ele>1970.0</ele>
        <time>2015-07-25T13:00:07Z</time>
      </trkpt>
      <trkpt lat="40.432550" lon="-5.291283">
        <ele>1970.0</ele>
        <time>2015-07-25T13:00:08Z</time>
      </trkpt>
      <trkpt lat="40.432433" lon="-5.291283">
        <ele>1969.0</ele>
        <time>2015-07-25T13:00:09Z</time>
      </trkpt>
      <trkpt lat="40.432317" lon="-5.291250">
        <ele>1970.0</ele>
        <time>2015-07-25T13:00:10Z</time>
      </trkpt>
      <trkpt lat="40.432200" lon="-5.291183">
        <ele>1971.0</ele>
        <time>2015-07-25T13:00:11Z</time>
      </trkpt>
      <trkpt lat="40.432083" lon="-5.291100">
        <ele>1972.0</ele>
        <time>2015-07-25T13:00:12Z</time>
      </trkpt>
      <trkpt lat="40.432000" lon="-5.290967">
        <ele>1972.0</ele>
        <time>2015-07-25T13:00:13Z</time>
      </trkpt>
      <trkpt lat="40.431933" lon="-5.290817">
        <ele>1972.0</ele>
        <time>2015-07-25T13:00:14Z</time>
      </trkpt>
      <trkpt lat="40.431883" lon="-5.290650">
        <ele>1972.0</ele>
        <time>2015-07-25T13:00:15Z</time>
      </trkpt>
      <trkpt lat="40.431850" lon="-5.290483">
        <ele>1973.0</ele>
        <time>2015-07-25T13:00:16Z</time>
      </trkpt>
      <trkpt lat="40.431817" lon="-5.290317">
        <ele>1975.0</ele>
        <time>2015-07-25T13:00:17Z</time>
      </trkpt>
      <trkpt lat="40.431783" lon="-5.290167">
        <ele>1976.0</ele>
        <time>2015-07-25T13:00:18Z</time>
      </trkpt>
      <trkpt lat="40.431767" lon="-5.290033">
        <ele>1978.0</ele>
        <time>2015-07-25T13:00:19Z</time>
      </trkpt>
      <trkpt lat="40.431783" lon="-5.289900">
        <ele>1978.0</ele>
        <time>2015-07-25T13:00:20Z</time>
      </trkpt>
      <trkpt lat="40.431833" lon="-5.289783">
        <ele>1977.0</ele>
        <time>2015-07-25T13:00:21Z</time>
      </trkpt>
      <trkpt lat="40.431900" lon="-5.289717">
        <ele>1976.0</ele>
        <time>2015-07-25T13:00:22Z</time>
      </trkpt>
      <trkpt lat="40.431983" lon="-5.289667">
        <ele>1976.0</ele>
        <time>2015-07-25T13:00:23Z</time>
      </trkpt>
      <trkpt lat="40.432067" lon="-5.289667">
        <ele>1977.0</ele>
        <time>2015-07-25T13:00:24Z</time>
      </trkpt>
      <trkpt lat="40.432117" lon="-5.289717">
        <ele>1978.0</ele>
        <time>2015-07-25T13:00:25Z</time>
      </trkpt>
      <trkpt lat="40.432150" lon="-5.289783">
        <ele>1980.0</ele>
        <time>2015-07-25T13:00:26Z</time>
      </trkpt>
      <trkpt lat="40.432150" lon="-5.289883">
        <ele>1980.0</ele>
        <time>2015-07-25T13:00:27Z</time>
      </trkpt>
      <trkpt lat="40.432117" lon="-5.289983">
        <ele>1980.0</ele>
        <time>2015-07-25T13:00:28Z</time>
      </trkpt>
      <trkpt lat="40.432033" lon="-5.290050">
        <ele>1980.0</ele>
        <time>2015-07-25T13:00:29Z</time>
      </trkpt>
      <trkpt lat="40.431950" lon="-5.290100">
        <ele>1980.0</ele>
        <time>2015-07-25T13:00:30Z</time>
      </trkpt>
      <trkpt lat="40.431850" lon="-5.290133">
        <ele>1980.0</ele>
        <time>2015-07-25T13:00:31Z</time>
      </trkpt>
      <trkpt lat="40.431733" lon="-5.290117">
        <ele>1980.0</ele>
        <time>2015-07-25T13:00:32Z</time>
      </trkpt>
      <trkpt lat="40.431600" lon="-5.290067">
        <ele>1979.0</ele>
        <time>2015-07-25T13:00:33Z</time>
      </trkpt>
      <trkpt lat="40.431483" lon="-5.289950">
        <ele>1978.0</ele>
        <time>2015-07-25T13:00:34Z</time>
      </trkpt>
      <trkpt lat="40.431383" lon="-5.289800">
        <ele>1977.0</ele>
        <time>2015-07-25T13:00:35Z</time>
      </trkpt>
      <trkpt lat="40.431317" lon="-5.289650">
        <ele>1978.0</ele>
        <time>2015-07-25T13:00:36Z</time>
      </trkpt>
      <trkpt lat="40.431283" lon="-5.289483">
        <ele>1980.0</ele>
        <time>2015-07-25T13:00:37Z</time>
      </trkpt>
      <trkpt lat="40.431300" lon="-5.289333">
        <ele>1980.0</ele>
        <time>2015-07-25T13:00:38Z</time>
      </trkpt>
      <trkpt lat="40.431333" lon="-5.289200">
        <ele>1980.0</ele>
        <time>2015-07-25T13:00:39Z</time>
      </trkpt>
      <trkpt lat="40.431383" lon="-5.289083">
        <ele>1980.0</ele>
        <time>2015-07-25T13:00:40Z</time>
      </trkpt>
      <trkpt lat="40.431450" lon="-5.289000">
        <ele>1979.0</ele>
        <time>2015-07-25T13:00:41Z</time>
      </trkpt>
      <trkpt lat="40.431517" lon="-5.288917">
        <ele>1980.0</ele>
        <time>2015-07-25T13:00:42Z</time>
      </trkpt>
      <trkpt lat="40.431600" lon="-5.288867">
        <ele>1980.0</ele>
        <time>2015-07-25T13:00:43Z</time>
      </trkpt>
      <trkpt lat="40.431667" lon="-5.288817">
        <ele>1980.0</ele>
        <time>2015-07-25T13:00:44Z</time>
      </trkpt>
      <trkpt lat="40.431733" lon="-5.288767">
        <ele>1980.0</ele>
        <time>2015-07-25T13:00:45Z</time>
      </trkpt>
      <trkpt lat="40.431800" lon="-5.288733">
        <ele>1980.0</ele>
        <time>2015-07-25T13:00:46Z</time>
      </trkpt>
      <trkpt lat="40.431867" lon="-5.288683">
        <ele>1978.0</ele>
        <time>2015-07-25T13:00:47Z</time>
      </trkpt>
      <trkpt lat="40.431933" lon="-5.288617">
        <ele>1977.0</ele>
        <time>2015-07-25T13:00:48Z</time>
      </trkpt>
      <trkpt lat="40.432017" lon="-5.288550">
        <ele>1975.0</ele>
        <time>2015-07-25T13:00:49Z</time>
      </trkpt>
      <trkpt lat="40.432100" lon="-5.288500">
        <ele>1974.0</ele>
        <time>2015-07-25T13:00:50Z</time>
      </trkpt>
      <trkpt lat="40.432183" lon="-5.288467">
        <ele>1974.0</ele>
        <time>2015-07-25T13:00:51Z</time>
      </trkpt>
      <trkpt lat="40.432250" lon="-5.288467">
        <ele>1973.0</ele>
        <time>2015-07-25T13:00:52Z</time>
      </trkpt>
      <trkpt lat="40.432317" lon="-5.288483">
        <ele>1974.0</ele>
        <time>2015-07-25T13:00:53Z</time>
      </trkpt>
      <trkpt lat="40.432383" lon="-5.288500">
        <ele>1973.0</ele>
        <time>2015-07-25T13:00:54Z</time>
      </trkpt>
      <trkpt lat="40.432467" lon="-5.288483">
        <ele>1972.0</ele>
        <time>2015-07-25T13:00:55Z</time>
      </trkpt>
      <trkpt lat="40.432533" lon="-5.288483">
        <ele>1971.0</ele>
        <time>2015-07-25T13:00:56Z</time>
      </trkpt>
      <trkpt lat="40.432617" lon="-5.288467">
        <ele>1970.0</ele>
        <time>2015-07-25T13:00:57Z</time>
      </trkpt>
      <trkpt lat="40.432700" lon="-5.288467">
        <ele>1970.0</ele>
        <time>2015-07-25T13:00:58Z</time>
      </trkpt>
      <trkpt lat="40.432783" lon="-5.288467">
        <ele>1969.0</ele>
        <time>2015-07-25T13:00:59Z</time>
      </trkpt>
      <trkpt lat="40.432867" lon="-5.288433">
        <ele>1969.0</ele>
        <time>2015-07-25T13:01:00Z</time>
      </trkpt>
      <trkpt lat="40.432950" lon="-5.288417">
        <ele>1968.0</ele>
        <time>2015-07-25T13:01:01Z</time>
      </trkpt>
      <trkpt lat="40.433033" lon="-5.288367">
        <ele>1967.0</ele>
        <time>2015-07-25T13:01:02Z</time>
      </trkpt>
      <trkpt lat="40.433133" lon="-5.288350">
        <ele>1966.0</ele>
        <time>2015-07-25T13:01:03Z</time>
      </trkpt>
      <trkpt lat="40.433217" lon="-5.288317">
        <ele>1965.0</ele>
        <time>2015-07-25T13:01:04Z</time>
      </trkpt>
      <trkpt lat="40.433317" lon="-5.288283">
        <ele>1964.0</ele>
        <time>2015-07-25T13:01:05Z</time>
      </trkpt>
      <trkpt lat="40.433417" lon="-5.288250">
        <ele>1964.0</ele>
        <time>2015-07-25T13:01:06Z</time>
      </trkpt>
      <trkpt lat="40.433517" lon="-5.288200">
        <ele>1964.0</ele>
        <time>2015-07-25T13:01:07Z</time>
      </trkpt>
      <trkpt lat="40.433617" lon="-5.288167">
        <ele>1964.0</ele>
        <time>2015-07-25T13:01:08Z</time>
      </trkpt>
      <trkpt lat="40.433700" lon="-5.288133">
        <ele>1965.0</ele>
        <time>2015-07-25T13:01:09Z</time>
      </trkpt>
      <trkpt lat="40.433800" lon="-5.288083">
        <ele>1966.0</ele>
        <time>2015-07-25T13:01:10Z</time>
      </trkpt>
      <trkpt lat="40.433883" lon="-5.288050">
        <ele>1966.0</ele>
        <time>2015-07-25T13:01:11Z</time>
      </trkpt>
      <trkpt lat="40.433967" lon="-5.288000">
        <ele>1967.0</ele>
        <time>2015-07-25T13:01:12Z</time>
      </trkpt>
      <trkpt lat="40.434067" lon="-5.287933">
        <ele>1967.0</ele>
        <time>2015-07-25T13:01:13Z</time>
      </trkpt>
      <trkpt lat="40.434150" lon="-5.287867">
        <ele>1966.0</ele>
        <time>2015-07-25T13:01:14Z</time>
      </trkpt>
      <trkpt lat="40.434250" lon="-5.287800">
        <ele>1966.0</ele>
        <time>2015-07-25T13:01:15Z</time>
      </trkpt>
      <trkpt lat="40.434350" lon="-5.287717">
        <ele>1967.0</ele>
        <time>2015-07-25T13:01:16Z</time>
      </trkpt>
      <trkpt lat="40.434450" lon="-5.287650">
        <ele>1967.0</ele>
        <time>2015-07-25T13:01:17Z</time>
      </trkpt>
      <trkpt lat="40.434550" lon="-5.287600">
        <ele>1968.0</ele>
        <time>2015-07-25T13:01:18Z</time>
      </trkpt>
      <trkpt lat="40.434650" lon="-5.287533">
        <ele>1969.0</ele>
        <time>2015-07-25T13:01:19Z</time>
      </trkpt>
      <trkpt lat="40.434750" lon="-5.287483">
        <ele>1970.0</ele>
        <time>2015-07-25T13:01:20Z</time>
      </trkpt>
      <trkpt lat="40.434850" lon="-5.287433">
        <ele>1971.0</ele>
        <time>2015-07-25T13:01:21Z</time>
      </trkpt>
      <trkpt lat="40.434950" lon="-5.287383">
        <ele>1974.0</ele>
        <time>2015-07-25T13:01:22Z</time>
      </trkpt>
      <trkpt lat="40.435017" lon="-5.287350">
        <ele>1976.0</ele>
        <time>2015-07-25T13:01:23Z</time>
      </trkpt>
      <trkpt lat="40.435100" lon="-5.287300">
        <ele>1977.0</ele>
        <time>2015-07-25T13:01:24Z</time>
      </trkpt>
      <trkpt lat="40.435167" lon="-5.287250">
        <ele>1979.0</ele>
        <time>2015-07-25T13:01:25Z</time>
      </trkpt>
      <trkpt lat="40.435233" lon="-5.287250">
        <ele>1980.0</ele>
        <time>2015-07-25T13:01:26Z</time>
      </trkpt>
      <trkpt lat="40.435317" lon="-5.287283">
        <ele>1980.0</ele>
        <time>2015-07-25T13:01:27Z</time>
      </trkpt>
      <trkpt lat="40.435350" lon="-5.287367">
        <ele>1981.0</ele>
        <time>2015-07-25T13:01:28Z</time>
      </trkpt>
      <trkpt lat="40.435350" lon="-5.287467">
        <ele>1981.0</ele>
        <time>2015-07-25T13:01:29Z</time>
      </trkpt>
      <trkpt lat="40.435300" lon="-5.287550">
        <ele>1981.0</ele>
        <time>2015-07-25T13:01:30Z</time>
      </trkpt>
      <trkpt lat="40.435200" lon="-5.287617">
        <ele>1981.0</ele>
        <time>2015-07-25T13:01:31Z</time>
      </trkpt>
      <trkpt lat="40.435083" lon="-5.287650">
        <ele>1981.0</ele>
        <time>2015-07-25T13:01:32Z</time>
      </trkpt>
      <trkpt lat="40.434967" lon="-5.287633">
        <ele>1982.0</ele>
        <time>2015-07-25T13:01:33Z</time>
      </trkpt>
      <trkpt lat="40.434850" lon="-5.287550">
        <ele>1983.0</ele>
        <time>2015-07-25T13:01:34Z</time>
      </trkpt>
      <trkpt lat="40.434767" lon="-5.287417">
        <ele>1984.0</ele>
        <time>2015-07-25T13:01:35Z</time>
      </trkpt>
      <trkpt lat="40.434717" lon="-5.287267">
        <ele>1984.0</ele>
        <time>2015-07-25T13:01:36Z</time>
      </trkpt>
      <trkpt lat="40.434717" lon="-5.287100">
        <ele>1986.0</ele>
        <time>2015-07-25T13:01:37Z</time>
      </trkpt>
      <trkpt lat="40.434733" lon="-5.286950">
        <ele>1987.0</ele>
        <time>2015-07-25T13:01:38Z</time>
      </trkpt>
      <trkpt lat="40.434783" lon="-5.286833">
        <ele>1988.0</ele>
        <time>2015-07-25T13:01:39Z</time>
      </trkpt>
      <trkpt lat="40.434850" lon="-5.286733">
        <ele>1987.0</ele>
        <time>2015-07-25T13:01:40Z</time>
      </trkpt>
      <trkpt lat="40.434950" lon="-5.286667">
        <ele>1987.0</ele>
        <time>2015-07-25T13:01:41Z</time>
      </trkpt>
      <trkpt lat="40.435067" lon="-5.286667">
        <ele>1988.0</ele>
        <time>2015-07-25T13:01:42Z</time>
      </trkpt>
      <trkpt lat="40.435150" lon="-5.286683">
        <ele>1991.0</ele>
        <time>2015-07-25T13:01:43Z</time>
      </trkpt>
      <trkpt lat="40.435233" lon="-5.286683">
        <ele>1996.0</ele>
        <time>2015-07-25T13:01:44Z</time>
      </trkpt>
      <trkpt lat="40.435317" lon="-5.286683">
        <ele>1999.0</ele>
        <time>2015-07-25T13:01:45Z</time>
      </trkpt>
      <trkpt lat="40.435400" lon="-5.286650">
        <ele>2002.0</ele>
        <time>2015-07-25T13:01:46Z</time>
      </trkpt>
      <trkpt lat="40.435483" lon="-5.286633">
        <ele>2004.0</ele>
        <time>2015-07-25T13:01:47Z</time>
      </trkpt>
      <trkpt lat="40.435550" lon="-5.286650">
        <ele>2004.0</ele>
        <time>2015-07-25T13:01:48Z</time>
      </trkpt>
      <trkpt lat="40.435617" lon="-5.286717">
        <ele>2003.0</ele>
        <time>2015-07-25T13:01:49Z</time>
      </trkpt>
      <trkpt lat="40.435617" lon="-5.286833">
        <ele>2001.0</ele>
        <time>2015-07-25T13:01:50Z</time>
      </trkpt>
      <trkpt lat="40.435567" lon="-5.286950">
        <ele>2000.0</ele>
        <time>2015-07-25T13:01:51Z</time>
      </trkpt>
      <trkpt lat="40.435483" lon="-5.287017">
        <ele>1999.0</ele>
        <time>2015-07-25T13:01:52Z</time>
      </trkpt>
      <trkpt lat="40.435367" lon="-5.287000">
        <ele>1999.0</ele>
        <time>2015-07-25T13:01:53Z</time>
      </trkpt>
      <trkpt lat="40.435250" lon="-5.286933">
        <ele>1999.0</ele>
        <time>2015-07-25T13:01:54Z</time>
      </trkpt>
      <trkpt lat="40.435150" lon="-5.286817">
        <ele>1998.0</ele>
        <time>2015-07-25T13:01:55Z</time>
      </trkpt>
      <trkpt lat="40.435100" lon="-5.286667">
        <ele>1999.0</ele>
        <time>2015-07-25T13:01:56Z</time>
      </trkpt>
      <trkpt lat="40.435067" lon="-5.286500">
        <ele>1999.0</ele>
        <time>2015-07-25T13:01:57Z</time>
      </trkpt>
      <trkpt lat="40.435067" lon="-5.286317">
        <ele>1999.0</ele>
        <time>2015-07-25T13:01:58Z</time>
      </trkpt>
      <trkpt lat="40.435083" lon="-5.286133">
        <ele>2001.0</ele>
        <time>2015-07-25T13:01:59Z</time>
      </trkpt>
      <trkpt lat="40.435100" lon="-5.285967">
        <ele>2003.0</ele>
        <time>2015-07-25T13:02:00Z</time>
      </trkpt>
      <trkpt lat="40.435117" lon="-5.285783">
        <ele>2006.0</ele>
        <time>2015-07-25T13:02:01Z</time>
      </trkpt>
      <trkpt lat="40.435133" lon="-5.285600">
        <ele>2009.0</ele>
        <time>2015-07-25T13:02:02Z</time>
      </trkpt>
      <trkpt lat="40.435150" lon="-5.285450">
        <ele>2012.0</ele>
        <time>2015-07-25T13:02:03Z</time>
      </trkpt>
      <trkpt lat="40.435200" lon="-5.285350">
        <ele>2015.0</ele>
        <time>2015-07-25T13:02:04Z</time>
      </trkpt>
      <trkpt lat="40.435250" lon="-5.285267">
        <ele>2015.0</ele>
        <time>2015-07-25T13:02:05Z</time>
      </trkpt>
      <trkpt lat="40.435333" lon="-5.285217">
        <ele>2014.0</ele>
        <time>2015-07-25T13:02:06Z</time>
      </trkpt>
      <trkpt lat="40.435433" lon="-5.285200">
        <ele>2015.0</ele>
        <time>2015-07-25T13:02:07Z</time>
      </trkpt>
      <trkpt lat="40.435500" lon="-5.285233">
        <ele>2016.0</ele>
        <time>2015-07-25T13:02:08Z</time>
      </trkpt>
      <trkpt lat="40.435550" lon="-5.285300">
        <ele>2018.0</ele>
        <time>2015-07-25T13:02:09Z</time>
      </trkpt>
      <trkpt lat="40.435550" lon="-5.285383">
        <ele>2020.0</ele>
        <time>2015-07-25T13:02:10Z</time>
      </trkpt>
      <trkpt lat="40.435517" lon="-5.285467">
        <ele>2022.0</ele>
        <time>2015-07-25T13:02:11Z</time>
      </trkpt>
      <trkpt lat="40.435450" lon="-5.285517">
        <ele>2024.0</ele>
        <time>2015-07-25T13:02:12Z</time>
      </trkpt>
      <trkpt lat="40.435333" lon="-5.285500">
        <ele>2025.0</ele>
        <time>2015-07-25T13:02:13Z</time>
      </trkpt>
      <trkpt lat="40.435233" lon="-5.285433">
        <ele>2026.0</ele>
        <time>2015-07-25T13:02:14Z</time>
      </trkpt>
      <trkpt lat="40.435150" lon="-5.285317">
        <ele>2028.0</ele>
        <time>2015-07-25T13:02:15Z</time>
      </trkpt>
      <trkpt lat="40.435100" lon="-5.285150">
        <ele>2029.0</ele>
        <time>2015-07-25T13:02:16Z</time>
      </trkpt>
      <trkpt lat="40.435100" lon="-5.284983">
        <ele>2029.0</ele>
        <time>2015-07-25T13:02:17Z</time>
      </trkpt>
      <trkpt lat="40.435150" lon="-5.284833">
        <ele>2030.0</ele>
        <time>2015-07-25T13:02:18Z</time>
      </trkpt>
      <trkpt lat="40.435217" lon="-5.284733">
        <ele>2031.0</ele>
        <time>2015-07-25T13:02:19Z</time>
      </trkpt>
      <trkpt lat="40.435300" lon="-5.284667">
        <ele>2032.0</ele>
        <time>2015-07-25T13:02:20Z</time>
      </trkpt>
      <trkpt lat="40.435383" lon="-5.284650">
        <ele>2034.0</ele>
        <time>2015-07-25T13:02:21Z</time>
      </trkpt>
      <trkpt lat="40.435450" lon="-5.284667">
        <ele>2036.0</ele>
        <time>2015-07-25T13:02:22Z</time>
      </trkpt>
      <trkpt lat="40.435517" lon="-5.284683">
        <ele>2038.0</ele>
        <time>2015-07-25T13:02:23Z</time>
      </trkpt>
      <trkpt lat="40.435550" lon="-5.284733">
        <ele>2039.0</ele>
        <time>2015-07-25T13:02:24Z</time>
      </trkpt>
      <trkpt lat="40.435550" lon="-5.284800">
        <ele>2040.0</ele>
        <time>2015-07-25T13:02:25Z</time>
      </trkpt>
      <trkpt lat="40.435500" lon="-5.284867">
        <ele>2040.0</ele>
        <time>2015-07-25T13:02:26Z</time>
      </trkpt>
      <trkpt lat="40.435383" lon="-5.284883">
        <ele>2039.0</ele>
        <time>2015-07-25T13:02:27Z</time>
      </trkpt>
      <trkpt lat="40.435250" lon="-5.284800">
        <ele>2039.0</ele>
        <time>2015-07-25T13:02:28Z</time>
      </trkpt>
      <trkpt lat="40.435150" lon="-5.284633">
        <ele>2039.0</ele>
        <time>2015-07-25T13:02:29Z</time>
      </trkpt>
      <trkpt lat="40.435117" lon="-5.284417">
        <ele>2041.0</ele>
        <time>2015-07-25T13:02:30Z</time>
      </trkpt>
      <trkpt lat="40.435150" lon="-5.284217">
        <ele>2042.0</ele>
        <time>2015-07-25T13:02:31Z</time>
      </trkpt>
      <trkpt lat="40.435233" lon="-5.284100">
        <ele>2043.0</ele>
        <time>2015-07-25T13:02:32Z</time>
      </trkpt>
      <trkpt lat="40.435333" lon="-5.284033">
        <ele>2045.0</ele>
        <time>2015-07-25T13:02:33Z</time>
      </trkpt>
      <trkpt lat="40.435417" lon="-5.284000">
        <ele>2049.0</ele>
        <time>2015-07-25T13:02:34Z</time>
      </trkpt>
      <trkpt lat="40.435467" lon="-5.283950">
        <ele>2052.0</ele>
        <time>2015-07-25T13:02:35Z</time>
      </trkpt>
      <trkpt lat="40.435517" lon="-5.283917">
        <ele>2053.0</ele>
        <time>2015-07-25T13:02:36Z</time>
      </trkpt>
      <trkpt lat="40.435583" lon="-5.283900">
        <ele>2053.0</ele>
        <time>2015-07-25T13:02:37Z</time>
      </trkpt>
      <trkpt lat="40.435633" lon="-5.283933">
        <ele>2051.0</ele>
        <time>2015-07-25T13:02:38Z</time>
      </trkpt>
      <trkpt lat="40.435683" lon="-5.284017">
        <ele>2050.0</ele>
        <time>2015-07-25T13:02:39Z</time>
      </trkpt>
      <trkpt lat="40.435733" lon="-5.284067">
        <ele>2052.0</ele>
        <time>2015-07-25T13:02:40Z</time>
      </trkpt>
      <trkpt lat="40.435817" lon="-5.284067">
        <ele>2054.0</ele>
        <time>2015-07-25T13:02:41Z</time>
      </trkpt>
      <trkpt lat="40.435900" lon="-5.284033">
        <ele>2055.0</ele>
        <time>2015-07-25T13:02:42Z</time>
      </trkpt>
      <trkpt lat="40.435967" lon="-5.284000">
        <ele>2056.0</ele>
        <time>2015-07-25T13:02:43Z</time>
      </trkpt>
      <trkpt lat="40.436033" lon="-5.283983">
        <ele>2058.0</ele>
        <time>2015-07-25T13:02:44Z</time>
      </trkpt>
      <trkpt lat="40.436067" lon="-5.284017">
        <ele>2060.0</ele>
        <time>2015-07-25T13:02:45Z</time>
      </trkpt>
      <trkpt lat="40.436083" lon="-5.284067">
        <ele>2059.0</ele>
        <time>2015-07-25T13:02:46Z</time>
      </trkpt>
      <trkpt lat="40.436050" lon="-5.284150">
        <ele>2059.0</ele>
        <time>2015-07-25T13:02:47Z</time>
      </trkpt>
      <trkpt lat="40.436000" lon="-5.284233">
        <ele>2059.0</ele>
        <time>2015-07-25T13:02:48Z</time>
      </trkpt>
      <trkpt lat="40.435917" lon="-5.284283">
        <ele>2060.0</ele>
        <time>2015-07-25T13:02:49Z</time>
      </trkpt>
      <trkpt lat="40.435800" lon="-5.284283">
        <ele>2060.0</ele>
        <time>2015-07-25T13:02:50Z</time>
      </trkpt>
      <trkpt lat="40.435683" lon="-5.284233">
        <ele>2060.0</ele>
        <time>2015-07-25T13:02:51Z</time>
      </trkpt>
      <trkpt lat="40.435567" lon="-5.284117">
        <ele>2060.0</ele>
        <time>2015-07-25T13:02:52Z</time>
      </trkpt>
      <trkpt lat="40.435483" lon="-5.283950">
        <ele>2060.0</ele>
        <time>2015-07-25T13:02:53Z</time>
      </trkpt>
      <trkpt lat="40.435450" lon="-5.283767">
        <ele>2061.0</ele>
        <time>2015-07-25T13:02:54Z</time>
      </trkpt>
      <trkpt lat="40.435450" lon="-5.283600">
        <ele>2061.0</ele>
        <time>2015-07-25T13:02:55Z</time>
      </trkpt>
      <trkpt lat="40.435500" lon="-5.283433">
        <ele>2060.0</ele>
        <time>2015-07-25T13:02:56Z</time>
      </trkpt>
      <trkpt lat="40.435583" lon="-5.283317">
        <ele>2059.0</ele>
        <time>2015-07-25T13:02:57Z</time>
      </trkpt>
      <trkpt lat="40.435667" lon="-5.283233">
        <ele>2059.0</ele>
        <time>2015-07-25T13:02:58Z</time>
      </trkpt>
      <trkpt lat="40.435767" lon="-5.283200">
        <ele>2059.0</ele>
        <time>2015-07-25T13:02:59Z</time>
      </trkpt>
      <trkpt lat="40.435833" lon="-5.283200">
        <ele>2061.0</ele>
        <time>2015-07-25T13:03:00Z</time>
      </trkpt>
      <trkpt lat="40.435900" lon="-5.283217">
        <ele>2063.0</ele>
        <time>2015-07-25T13:03:01Z</time>
      </trkpt>
      <trkpt lat="40.435967" lon="-5.283233">
        <ele>2065.0</ele>
        <time>2015-07-25T13:03:02Z</time>
      </trkpt>
      <trkpt lat="40.436033" lon="-5.283233">
        <ele>2066.0</ele>
        <time>2015-07-25T13:03:03Z</time>
      </trkpt>
      <trkpt lat="40.436100" lon="-5.283233">
        <ele>2067.0</ele>
        <time>2015-07-25T13:03:04Z</time>
      </trkpt>
      <trkpt lat="40.436167" lon="-5.283267">
        <ele>2067.0</ele>
        <time>2015-07-25T13:03:05Z</time>
      </trkpt>
      <trkpt lat="40.436217" lon="-5.283333">
        <ele>2068.0</ele>
        <time>2015-07-25T13:03:06Z</time>
      </trkpt>
      <trkpt lat="40.436217" lon="-5.283433">
        <ele>2066.0</ele>
        <time>2015-07-25T13:03:07Z</time>
      </trkpt>
      <trkpt lat="40.436150" lon="-5.283567">
        <ele>2064.0</ele>
        <time>2015-07-25T13:03:08Z</time>
      </trkpt>
      <trkpt lat="40.436050" lon="-5.283683">
        <ele>2066.0</ele>
        <time>2015-07-25T13:03:09Z</time>
      </trkpt>
      <trkpt lat="40.435933" lon="-5.283717">
        <ele>2069.0</ele>
        <time>2015-07-25T13:03:10Z</time>
      </trkpt>
      <trkpt lat="40.435800" lon="-5.283683">
        <ele>2070.0</ele>
        <time>2015-07-25T13:03:11Z</time>
      </trkpt>
      <trkpt lat="40.435683" lon="-5.283583">
        <ele>2071.0</ele>
        <time>2015-07-25T13:03:12Z</time>
      </trkpt>
      <trkpt lat="40.435600" lon="-5.283433">
        <ele>2071.0</ele>
        <time>2015-07-25T13:03:13Z</time>
      </trkpt>
      <trkpt lat="40.435550" lon="-5.283267">
        <ele>2071.0</ele>
        <time>2015-07-25T13:03:14Z</time>
      </trkpt>
      <trkpt lat="40.435533" lon="-5.283083">
        <ele>2072.0</ele>
        <time>2015-07-25T13:03:15Z</time>
      </trkpt>
      <trkpt lat="40.435583" lon="-5.282933">
        <ele>2072.0</ele>
        <time>2015-07-25T13:03:16Z</time>
      </trkpt>
      <trkpt lat="40.435650" lon="-5.282800">
        <ele>2072.0</ele>
        <time>2015-07-25T13:03:17Z</time>
      </trkpt>
      <trkpt lat="40.435750" lon="-5.282733">
        <ele>2072.0</ele>
        <time>2015-07-25T13:03:18Z</time>
      </trkpt>
      <trkpt lat="40.435833" lon="-5.282733">
        <ele>2074.0</ele>
        <time>2015-07-25T13:03:19Z</time>
      </trkpt>
      <trkpt lat="40.435900" lon="-5.282767">
        <ele>2077.0</ele>
        <time>2015-07-25T13:03:20Z</time>
      </trkpt>
      <trkpt lat="40.435933" lon="-5.282833">
        <ele>2080.0</ele>
        <time>2015-07-25T13:03:21Z</time>
      </trkpt>
      <trkpt lat="40.435950" lon="-5.282917">
        <ele>2082.0</ele>
        <time>2015-07-25T13:03:22Z</time>
      </trkpt>
      <trkpt lat="40.435933" lon="-5.282983">
        <ele>2085.0</ele>
        <time>2015-07-25T13:03:23Z</time>
      </trkpt>
      <trkpt lat="40.435917" lon="-5.283067">
        <ele>2088.0</ele>
        <time>2015-07-25T13:03:24Z</time>
      </trkpt>
      <trkpt lat="40.435883" lon="-5.283150">
        <ele>2090.0</ele>
        <time>2015-07-25T13:03:25Z</time>
      </trkpt>
      <trkpt lat="40.435850" lon="-5.283217">
        <ele>2092.0</ele>
        <time>2015-07-25T13:03:26Z</time>
      </trkpt>
      <trkpt lat="40.435783" lon="-5.283283">
        <ele>2093.0</ele>
        <time>2015-07-25T13:03:27Z</time>
      </trkpt>
      <trkpt lat="40.435683" lon="-5.283333">
        <ele>2093.0</ele>
        <time>2015-07-25T13:03:28Z</time>
      </trkpt>
      <trkpt lat="40.435567" lon="-5.283367">
        <ele>2092.0</ele>
        <time>2015-07-25T13:03:29Z</time>
      </trkpt>
      <trkpt lat="40.435450" lon="-5.283350">
        <ele>2092.0</ele>
        <time>2015-07-25T13:03:30Z</time>
      </trkpt>
      <trkpt lat="40.435333" lon="-5.283267">
        <ele>2092.0</ele>
        <time>2015-07-25T13:03:31Z</time>
      </trkpt>
      <trkpt lat="40.435233" lon="-5.283133">
        <ele>2091.0</ele>
        <time>2015-07-25T13:03:32Z</time>
      </trkpt>
      <trkpt lat="40.435183" lon="-5.282967">
        <ele>2091.0</ele>
        <time>2015-07-25T13:03:33Z</time>
      </trkpt>
      <trkpt lat="40.435183" lon="-5.282800">
        <ele>2091.0</ele>
        <time>2015-07-25T13:03:34Z</time>
      </trkpt>
      <trkpt lat="40.435233" lon="-5.282650">
        <ele>2092.0</ele>
        <time>2015-07-25T13:03:35Z</time>
      </trkpt>
      <trkpt lat="40.435300" lon="-5.282533">
        <ele>2091.0</ele>
        <time>2015-07-25T13:03:36Z</time>
      </trkpt>
      <trkpt lat="40.435400" lon="-5.282450">
        <ele>2091.0</ele>
        <time>2015-07-25T13:03:37Z</time>
      </trkpt>
      <trkpt lat="40.435500" lon="-5.282400">
        <ele>2091.0</ele>
        <time>2015-07-25T13:03:38Z</time>
      </trkpt>
      <trkpt lat="40.435600" lon="-5.282400">
        <ele>2094.0</ele>
        <time>2015-07-25T13:03:39Z</time>
      </trkpt>
      <trkpt lat="40.435683" lon="-5.282383">
        <ele>2097.0</ele>
        <time>2015-07-25T13:03:40Z</time>
      </trkpt>
      <trkpt lat="40.435750" lon="-5.282383">
        <ele>2101.0</ele>
        <time>2015-07-25T13:03:41Z</time>
      </trkpt>
      <trkpt lat="40.435817" lon="-5.282383">
        <ele>2105.0</ele>
        <time>2015-07-25T13:03:42Z</time>
      </trkpt>
      <trkpt lat="40.435900" lon="-5.282400">
        <ele>2109.0</ele>
        <time>2015-07-25T13:03:43Z</time>
      </trkpt>
      <trkpt lat="40.435967" lon="-5.282400">
        <ele>2111.0</ele>
        <time>2015-07-25T13:03:44Z</time>
      </trkpt>
      <trkpt lat="40.436050" lon="-5.282383">
        <ele>2114.0</ele>
        <time>2015-07-25T13:03:45Z</time>
      </trkpt>
      <trkpt lat="40.436133" lon="-5.282383">
        <ele>2117.0</ele>
        <time>2015-07-25T13:03:46Z</time>
      </trkpt>
      <trkpt lat="40.436200" lon="-5.282383">
        <ele>2120.0</ele>
        <time>2015-07-25T13:03:47Z</time>
      </trkpt>
      <trkpt lat="40.436233" lon="-5.282450">
        <ele>2123.0</ele>
        <time>2015-07-25T13:03:48Z</time>
      </trkpt>
      <trkpt lat="40.436217" lon="-5.282567">
        <ele>2124.0</ele>
        <time>2015-07-25T13:03:49Z</time>
      </trkpt>
      <trkpt lat="40.436133" lon="-5.282683">
        <ele>2124.0</ele>
        <time>2015-07-25T13:03:50Z</time>
      </trkpt>
      <trkpt lat="40.436017" lon="-5.282733">
        <ele>2126.0</ele>
        <time>2015-07-25T13:03:51Z</time>
      </trkpt>
      <trkpt lat="40.435867" lon="-5.282700">
        <ele>2128.0</ele>
        <time>2015-07-25T13:03:52Z</time>
      </trkpt>
      <trkpt lat="40.435750" lon="-5.282583">
        <ele>2129.0</ele>
        <time>2015-07-25T13:03:53Z</time>
      </trkpt>
      <trkpt lat="40.435683" lon="-5.282400">
        <ele>2131.0</ele>
        <time>2015-07-25T13:03:54Z</time>
      </trkpt>
      <trkpt lat="40.435683" lon="-5.282200">
        <ele>2134.0</ele>
        <time>2015-07-25T13:03:55Z</time>
      </trkpt>
      <trkpt lat="40.435733" lon="-5.282033">
        <ele>2138.0</ele>
        <time>2015-07-25T13:03:56Z</time>
      </trkpt>
      <trkpt lat="40.435817" lon="-5.281933">
        <ele>2142.0</ele>
        <time>2015-07-25T13:03:57Z</time>
      </trkpt>
      <trkpt lat="40.435900" lon="-5.281883">
        <ele>2146.0</ele>
        <time>2015-07-25T13:03:58Z</time>
      </trkpt>
      <trkpt lat="40.435967" lon="-5.281900">
        <ele>2148.0</ele>
        <time>2015-07-25T13:03:59Z</time>
      </trkpt>
      <trkpt lat="40.436017" lon="-5.281950">
        <ele>2150.0</ele>
        <time>2015-07-25T13:04:00Z</time>
      </trkpt>
      <trkpt lat="40.436033" lon="-5.282050">
        <ele>2152.0</ele>
        <time>2015-07-25T13:04:01Z</time>
      </trkpt>
      <trkpt lat="40.435983" lon="-5.282167">
        <ele>2154.0</ele>
        <time>2015-07-25T13:04:02Z</time>
      </trkpt>
      <trkpt lat="40.435900" lon="-5.282267">
        <ele>2157.0</ele>
        <time>2015-07-25T13:04:03Z</time>
      </trkpt>
      <trkpt lat="40.435767" lon="-5.282283">
        <ele>2160.0</ele>
        <time>2015-07-25T13:04:04Z</time>
      </trkpt>
      <trkpt lat="40.435633" lon="-5.282267">
        <ele>2163.0</ele>
        <time>2015-07-25T13:04:05Z</time>
      </trkpt>
      <trkpt lat="40.435500" lon="-5.282183">
        <ele>2166.0</ele>
        <time>2015-07-25T13:04:06Z</time>
      </trkpt>
      <trkpt lat="40.435400" lon="-5.282067">
        <ele>2169.0</ele>
        <time>2015-07-25T13:04:07Z</time>
      </trkpt>
      <trkpt lat="40.435317" lon="-5.281917">
        <ele>2173.0</ele>
        <time>2015-07-25T13:04:08Z</time>
      </trkpt>
      <trkpt lat="40.435283" lon="-5.281750">
        <ele>2176.0</ele>
        <time>2015-07-25T13:04:09Z</time>
      </trkpt>
      <trkpt lat="40.435283" lon="-5.281583">
        <ele>2177.0</ele>
        <time>2015-07-25T13:04:10Z</time>
      </trkpt>
      <trkpt lat="40.435317" lon="-5.281417">
        <ele>2179.0</ele>
        <time>2015-07-25T13:04:11Z</time>
      </trkpt>
      <trkpt lat="40.435367" lon="-5.281300">
        <ele>2181.0</ele>
        <time>2015-07-25T13:04:12Z</time>
      </trkpt>
      <trkpt lat="40.435450" lon="-5.281233">
        <ele>2184.0</ele>
        <time>2015-07-25T13:04:13Z</time>
      </trkpt>
      <trkpt lat="40.435517" lon="-5.281233">
        <ele>2186.0</ele>
        <time>2015-07-25T13:04:14Z</time>
      </trkpt>
      <trkpt lat="40.435583" lon="-5.281283">
        <ele>2186.0</ele>
        <time>2015-07-25T13:04:15Z</time>
      </trkpt>
      <trkpt lat="40.435617" lon="-5.281367">
        <ele>2187.0</ele>
        <time>2015-07-25T13:04:16Z</time>
      </trkpt>
      <trkpt lat="40.435617" lon="-5.281500">
        <ele>2190.0</ele>
        <time>2015-07-25T13:04:17Z</time>
      </trkpt>
      <trkpt lat="40.435550" lon="-5.281600">
        <ele>2192.0</ele>
        <time>2015-07-25T13:04:18Z</time>
      </trkpt>
      <trkpt lat="40.435450" lon="-5.281700">
        <ele>2195.0</ele>
        <time>2015-07-25T13:04:19Z</time>
      </trkpt>
      <trkpt lat="40.435317" lon="-5.281733">
        <ele>2198.0</ele>
        <time>2015-07-25T13:04:20Z</time>
      </trkpt>
      <trkpt lat="40.435183" lon="-5.281717">
        <ele>2203.0</ele>
        <time>2015-07-25T13:04:21Z</time>
      </trkpt>
      <trkpt lat="40.435050" lon="-5.281650">
        <ele>2207.0</ele>
        <time>2015-07-25T13:04:22Z</time>
      </trkpt>
      <trkpt lat="40.434950" lon="-5.281550">
        <ele>2210.0</ele>
        <time>2015-07-25T13:04:23Z</time>
      </trkpt>
      <trkpt lat="40.434867" lon="-5.281417">
        <ele>2211.0</ele>
        <time>2015-07-25T13:04:24Z</time>
      </trkpt>
      <trkpt lat="40.434783" lon="-5.281267">
        <ele>2213.0</ele>
        <time>2015-07-25T13:04:25Z</time>
      </trkpt>
      <trkpt lat="40.434733" lon="-5.281117">
        <ele>2215.0</ele>
        <time>2015-07-25T13:04:26Z</time>
      </trkpt>
      <trkpt lat="40.434717" lon="-5.280950">
        <ele>2218.0</ele>
        <time>2015-07-25T13:04:27Z</time>
      </trkpt>
      <trkpt lat="40.434733" lon="-5.280783">
        <ele>2219.0</ele>
        <time>2015-07-25T13:04:28Z</time>
      </trkpt>
      <trkpt lat="40.434800" lon="-5.280667">
        <ele>2220.0</ele>
        <time>2015-07-25T13:04:29Z</time>
      </trkpt>
      <trkpt lat="40.434867" lon="-5.280567">
        <ele>2221.0</ele>
        <time>2015-07-25T13:04:30Z</time>
      </trkpt>
      <trkpt lat="40.434967" lon="-5.280500">
        <ele>2222.0</ele>
        <time>2015-07-25T13:04:31Z</time>
      </trkpt>
      <trkpt lat="40.435050" lon="-5.280500">
        <ele>2225.0</ele>
        <time>2015-07-25T13:04:32Z</time>
      </trkpt>
      <trkpt lat="40.435117" lon="-5.280533">
        <ele>2228.0</ele>
        <time>2015-07-25T13:04:33Z</time>
      </trkpt>
      <trkpt lat="40.435150" lon="-5.280583">
        <ele>2232.0</ele>
        <time>2015-07-25T13:04:34Z</time>
      </trkpt>
      <trkpt lat="40.435200" lon="-5.280633">
        <ele>2235.0</ele>
        <time>2015-07-25T13:04:35Z</time>
      </trkpt>
      <trkpt lat="40.435233" lon="-5.280700">
        <ele>2238.0</ele>
        <time>2015-07-25T13:04:36Z</time>
      </trkpt>
      <trkpt lat="40.435250" lon="-5.280767">
        <ele>2241.0</ele>
        <time>2015-07-25T13:04:37Z</time>
      </trkpt>
      <trkpt lat="40.435250" lon="-5.280867">
        <ele>2244.0</ele>
        <time>2015-07-25T13:04:38Z</time>
      </trkpt>
      <trkpt lat="40.435217" lon="-5.280950">
        <ele>2246.0</ele>
        <time>2015-07-25T13:04:39Z</time>
      </trkpt>
      <trkpt lat="40.435150" lon="-5.281033">
        <ele>2248.0</ele>
        <time>2015-07-25T13:04:40Z</time>
      </trkpt>
      <trkpt lat="40.435050" lon="-5.281083">
        <ele>2251.0</ele>
        <time>2015-07-25T13:04:41Z</time>
      </trkpt>
      <trkpt lat="40.434933" lon="-5.281117">
        <ele>2255.0</ele>
        <time>2015-07-25T13:04:42Z</time>
      </trkpt>
      <trkpt lat="40.434800" lon="-5.281083">
        <ele>2258.0</ele>
        <time>2015-07-25T13:04:43Z</time>
      </trkpt>
      <trkpt lat="40.434683" lon="-5.281017">
        <ele>2260.0</ele>
        <time>2015-07-25T13:04:44Z</time>
      </trkpt>
      <trkpt lat="40.434567" lon="-5.280883">
        <ele>2262.0</ele>
        <time>2015-07-25T13:04:45Z</time>
      </trkpt>
      <trkpt lat="40.434500" lon="-5.280733">
        <ele>2263.0</ele>
        <time>2015-07-25T13:04:46Z</time>
      </trkpt>
      <trkpt lat="40.434467" lon="-5.280533">
        <ele>2265.0</ele>
        <time>2015-07-25T13:04:47Z</time>
      </trkpt>
      <trkpt lat="40.434467" lon="-5.280350">
        <ele>2268.0</ele>
        <time>2015-07-25T13:04:48Z</time>
      </trkpt>
      <trkpt lat="40.434500" lon="-5.280200">
        <ele>2273.0</ele>
        <time>2015-07-25T13:04:49Z</time>
      </trkpt>
      <trkpt lat="40.434550" lon="-5.280117">
        <ele>2276.0</ele>
        <time>2015-07-25T13:04:50Z</time>
      </trkpt>
      <trkpt lat="40.434617" lon="-5.280050">
        <ele>2278.0</ele>
        <time>2015-07-25T13:04:51Z</time>
      </trkpt>
      <trkpt lat="40.434700" lon="-5.280033">
        <ele>2280.0</ele>
        <time>2015-07-25T13:04:52Z</time>
      </trkpt>
      <trkpt lat="40.434783" lon="-5.280033">
        <ele>2281.0</ele>
        <time>2015-07-25T13:04:53Z</time>
      </trkpt>
      <trkpt lat="40.434850" lon="-5.280067">
        <ele>2284.0</ele>
        <time>2015-07-25T13:04:54Z</time>
      </trkpt>
      <trkpt lat="40.434917" lon="-5.280133">
        <ele>2288.0</ele>
        <time>2015-07-25T13:04:55Z</time>
      </trkpt>
      <trkpt lat="40.434917" lon="-5.280217">
        <ele>2291.0</ele>
        <time>2015-07-25T13:04:56Z</time>
      </trkpt>
      <trkpt lat="40.434883" lon="-5.280300">
        <ele>2294.0</ele>
        <time>2015-07-25T13:04:57Z</time>
      </trkpt>
      <trkpt lat="40.434800" lon="-5.280367">
        <ele>2297.0</ele>
        <time>2015-07-25T13:04:58Z</time>
      </trkpt>
      <trkpt lat="40.434667" lon="-5.280383">
        <ele>2300.0</ele>
        <time>2015-07-25T13:04:59Z</time>
      </trkpt>
      <trkpt lat="40.434550" lon="-5.280317">
        <ele>2301.0</ele>
        <time>2015-07-25T13:05:00Z</time>
      </trkpt>
      <trkpt lat="40.434433" lon="-5.280150">
        <ele>2301.0</ele>
        <time>2015-07-25T13:05:01Z</time>
      </trkpt>
      <trkpt lat="40.434400" lon="-5.279933">
        <ele>2303.0</ele>
        <time>2015-07-25T13:05:02Z</time>
      </trkpt>
      <trkpt lat="40.434400" lon="-5.279750">
        <ele>2307.0</ele>
        <time>2015-07-25T13:05:03Z</time>
      </trkpt>
      <trkpt lat="40.434433" lon="-5.279617">
        <ele>2312.0</ele>
        <time>2015-07-25T13:05:04Z</time>
      </trkpt>
      <trkpt lat="40.434500" lon="-5.279517">
        <ele>2317.0</ele>
        <time>2015-07-25T13:05:05Z</time>
      </trkpt>
      <trkpt lat="40.434550" lon="-5.279450">
        <ele>2320.0</ele>
        <time>2015-07-25T13:05:06Z</time>
      </trkpt>
      <trkpt lat="40.434600" lon="-5.279383">
        <ele>2322.0</ele>
        <time>2015-07-25T13:05:07Z</time>
      </trkpt>
      <trkpt lat="40.434667" lon="-5.279317">
        <ele>2324.0</ele>
        <time>2015-07-25T13:05:08Z</time>
      </trkpt>
      <trkpt lat="40.434750" lon="-5.279283">
        <ele>2325.0</ele>
        <time>2015-07-25T13:05:09Z</time>
      </trkpt>
      <trkpt lat="40.434833" lon="-5.279283">
        <ele>2326.0</ele>
        <time>2015-07-25T13:05:10Z</time>
      </trkpt>
      <trkpt lat="40.434900" lon="-5.279333">
        <ele>2326.0</ele>
        <time>2015-07-25T13:05:11Z</time>
      </trkpt>
      <trkpt lat="40.434933" lon="-5.279450">
        <ele>2326.0</ele>
        <time>2015-07-25T13:05:12Z</time>
      </trkpt>
      <trkpt lat="40.434933" lon="-5.279583">
        <ele>2330.0</ele>
        <time>2015-07-25T13:05:13Z</time>
      </trkpt>
      <trkpt lat="40.434933" lon="-5.279683">
        <ele>2336.0</ele>
        <time>2015-07-25T13:05:14Z</time>
      </trkpt>
      <trkpt lat="40.434933" lon="-5.279733">
        <ele>2342.0</ele>
        <time>2015-07-25T13:05:15Z</time>
      </trkpt>
      <trkpt lat="40.434950" lon="-5.279783">
        <ele>2346.0</ele>
        <time>2015-07-25T13:05:16Z</time>
      </trkpt>
      <trkpt lat="40.434967" lon="-5.279817">
        <ele>2348.0</ele>
        <time>2015-07-25T13:05:17Z</time>
      </trkpt>
      <trkpt lat="40.435000" lon="-5.279850">
        <ele>2349.0</ele>
        <time>2015-07-25T13:05:18Z</time>
      </trkpt>
      <trkpt lat="40.435050" lon="-5.279900">
        <ele>2349.0</ele>
        <time>2015-07-25T13:05:19Z</time>
      </trkpt>
      <trkpt lat="40.435117" lon="-5.279933">
        <ele>2348.0</ele>
        <time>2015-07-25T13:05:20Z</time>
      </trkpt>
      <trkpt lat="40.435200" lon="-5.279967">
        <ele>2349.0</ele>
        <time>2015-07-25T13:05:21Z</time>
      </trkpt>
      <trkpt lat="40.435267" lon="-5.279983">
        <ele>2351.0</ele>
        <time>2015-07-25T13:05:22Z</time>
      </trkpt>
      <trkpt lat="40.435350" lon="-5.280000">
        <ele>2353.0</ele>
        <time>2015-07-25T13:05:23Z</time>
      </trkpt>
      <trkpt lat="40.435417" lon="-5.280000">
        <ele>2355.0</ele>
        <time>2015-07-25T13:05:24Z</time>
      </trkpt>
      <trkpt lat="40.435500" lon="-5.279983">
        <ele>2356.0</ele>
        <time>2015-07-25T13:05:25Z</time>
      </trkpt>
      <trkpt lat="40.435567" lon="-5.279967">
        <ele>2356.0</ele>
        <time>2015-07-25T13:05:26Z</time>
      </trkpt>
      <trkpt lat="40.435650" lon="-5.279950">
        <ele>2356.0</ele>
        <time>2015-07-25T13:05:27Z</time>
      </trkpt>
      <trkpt lat="40.435733" lon="-5.279933">
        <ele>2357.0</ele>
        <time>2015-07-25T13:05:28Z</time>
      </trkpt>
      <trkpt lat="40.435800" lon="-5.279917">
        <ele>2357.0</ele>
        <time>2015-07-25T13:05:29Z</time>
      </trkpt>
      <trkpt lat="40.435867" lon="-5.279900">
        <ele>2358.0</ele>
        <time>2015-07-25T13:05:30Z</time>
      </trkpt>
      <trkpt lat="40.435950" lon="-5.279900">
        <ele>2358.0</ele>
        <time>2015-07-25T13:05:31Z</time>
      </trkpt>
      <trkpt lat="40.436017" lon="-5.279883">
        <ele>2358.0</ele>
        <time>2015-07-25T13:05:32Z</time>
      </trkpt>
      <trkpt lat="40.436100" lon="-5.279867">
        <ele>2357.0</ele>
        <time>2015-07-25T13:05:33Z</time>
      </trkpt>
      <trkpt lat="40.436183" lon="-5.279867">
        <ele>2357.0</ele>
        <time>2015-07-25T13:05:34Z</time>
      </trkpt>
      <trkpt lat="40.436250" lon="-5.279833">
        <ele>2357.0</ele>
        <time>2015-07-25T13:05:35Z</time>
      </trkpt>
      <trkpt lat="40.436333" lon="-5.279817">
        <ele>2356.0</ele>
        <time>2015-07-25T13:05:36Z</time>
      </trkpt>
      <trkpt lat="40.436400" lon="-5.279767">
        <ele>2355.0</ele>
        <time>2015-07-25T13:05:37Z</time>
      </trkpt>
      <trkpt lat="40.436467" lon="-5.279733">
        <ele>2353.0</ele>
        <time>2015-07-25T13:05:38Z</time>
      </trkpt>
      <trkpt lat="40.436550" lon="-5.279683">
        <ele>2352.0</ele>
        <time>2015-07-25T13:05:39Z</time>
      </trkpt>
      <trkpt lat="40.436617" lon="-5.279650">
        <ele>2349.0</ele>
        <time>2015-07-25T13:05:40Z</time>
      </trkpt>
      <trkpt lat="40.436700" lon="-5.279633">
        <ele>2347.0</ele>
        <time>2015-07-25T13:05:41Z</time>
      </trkpt>
      <trkpt lat="40.436767" lon="-5.279600">
        <ele>2344.0</ele>
        <time>2015-07-25T13:05:42Z</time>
      </trkpt>
      <trkpt lat="40.436850" lon="-5.279550">
        <ele>2341.0</ele>
        <time>2015-07-25T13:05:43Z</time>
      </trkpt>
      <trkpt lat="40.436933" lon="-5.279517">
        <ele>2339.0</ele>
        <time>2015-07-25T13:05:44Z</time>
      </trkpt>
      <trkpt lat="40.437017" lon="-5.279483">
        <ele>2337.0</ele>
        <time>2015-07-25T13:05:45Z</time>
      </trkpt>
      <trkpt lat="40.437100" lon="-5.279450">
        <ele>2335.0</ele>
        <time>2015-07-25T13:05:46Z</time>
      </trkpt>
      <trkpt lat="40.437183" lon="-5.279450">
        <ele>2333.0</ele>
        <time>2015-07-25T13:05:47Z</time>
      </trkpt>
      <trkpt lat="40.437267" lon="-5.279483">
        <ele>2331.0</ele>
        <time>2015-07-25T13:05:48Z</time>
      </trkpt>
      <trkpt lat="40.437350" lon="-5.279533">
        <ele>2328.0</ele>
        <time>2015-07-25T13:05:49Z</time>
      </trkpt>
      <trkpt lat="40.437433" lon="-5.279617">
        <ele>2327.0</ele>
        <time>2015-07-25T13:05:50Z</time>
      </trkpt>
      <trkpt lat="40.437500" lon="-5.279683">
        <ele>2327.0</ele>
        <time>2015-07-25T13:05:51Z</time>
      </trkpt>
      <trkpt lat="40.437550" lon="-5.279717">
        <ele>2328.0</ele>
        <time>2015-07-25T13:05:52Z</time>
      </trkpt>
      <trkpt lat="40.437617" lon="-5.279733">
        <ele>2327.0</ele>
        <time>2015-07-25T13:05:53Z</time>
      </trkpt>
      <trkpt lat="40.437683" lon="-5.279767">
        <ele>2325.0</ele>
        <time>2015-07-25T13:05:54Z</time>
      </trkpt>
      <trkpt lat="40.437750" lon="-5.279817">
        <ele>2323.0</ele>
        <time>2015-07-25T13:05:55Z</time>
      </trkpt>
      <trkpt lat="40.437817" lon="-5.279867">
        <ele>2321.0</ele>
        <time>2015-07-25T13:05:56Z</time>
      </trkpt>
      <trkpt lat="40.437883" lon="-5.279917">
        <ele>2319.0</ele>
        <time>2015-07-25T13:05:57Z</time>
      </trkpt>
      <trkpt lat="40.437950" lon="-5.279967">
        <ele>2317.0</ele>
        <time>2015-07-25T13:05:58Z</time>
      </trkpt>
      <trkpt lat="40.438000" lon="-5.280000">
        <ele>2315.0</ele>
        <time>2015-07-25T13:05:59Z</time>
      </trkpt>
      <trkpt lat="40.438067" lon="-5.280033">
        <ele>2312.0</ele>
        <time>2015-07-25T13:06:00Z</time>
      </trkpt>
      <trkpt lat="40.438133" lon="-5.280083">
        <ele>2308.0</ele>
        <time>2015-07-25T13:06:01Z</time>
      </trkpt>
      <trkpt lat="40.438200" lon="-5.280150">
        <ele>2304.0</ele>
        <time>2015-07-25T13:06:02Z</time>
      </trkpt>
      <trkpt lat="40.438283" lon="-5.280200">
        <ele>2301.0</ele>
        <time>2015-07-25T13:06:03Z</time>
      </trkpt>
      <trkpt lat="40.438367" lon="-5.280267">
        <ele>2299.0</ele>
        <time>2015-07-25T13:06:04Z</time>
      </trkpt>
      <trkpt lat="40.438433" lon="-5.280317">
        <ele>2298.0</ele>
        <time>2015-07-25T13:06:05Z</time>
      </trkpt>
      <trkpt lat="40.438500" lon="-5.280367">
        <ele>2297.0</ele>
        <time>2015-07-25T13:06:06Z</time>
      </trkpt>
      <trkpt lat="40.438567" lon="-5.280417">
        <ele>2294.0</ele>
        <time>2015-07-25T13:06:07Z</time>
      </trkpt>
      <trkpt lat="40.438633" lon="-5.280450">
        <ele>2291.0</ele>
        <time>2015-07-25T13:06:08Z</time>
      </trkpt>
      <trkpt lat="40.438717" lon="-5.280483">
        <ele>2286.0</ele>
        <time>2015-07-25T13:06:09Z</time>
      </trkpt>
      <trkpt lat="40.438817" lon="-5.280500">
        <ele>2281.0</ele>
        <time>2015-07-25T13:06:10Z</time>
      </trkpt>
      <trkpt lat="40.438917" lon="-5.280517">
        <ele>2279.0</ele>
        <time>2015-07-25T13:06:11Z</time>
      </trkpt>
      <trkpt lat="40.439017" lon="-5.280533">
        <ele>2277.0</ele>
        <time>2015-07-25T13:06:12Z</time>
      </trkpt>
      <trkpt lat="40.439100" lon="-5.280567">
        <ele>2275.0</ele>
        <time>2015-07-25T13:06:13Z</time>
      </trkpt>
      <trkpt lat="40.439183" lon="-5.280567">
        <ele>2272.0</ele>
        <time>2015-07-25T13:06:14Z</time>
      </trkpt>
      <trkpt lat="40.439267" lon="-5.280567">
        <ele>2269.0</ele>
        <time>2015-07-25T13:06:15Z</time>
      </trkpt>
      <trkpt lat="40.439367" lon="-5.280567">
        <ele>2265.0</ele>
        <time>2015-07-25T13:06:16Z</time>
      </trkpt>
      <trkpt lat="40.439450" lon="-5.280583">
        <ele>2262.0</ele>
        <time>2015-07-25T13:06:17Z</time>
      </trkpt>
      <trkpt lat="40.439550" lon="-5.280617">
        <ele>2259.0</ele>
        <time>2015-07-25T13:06:18Z</time>
      </trkpt>
      <trkpt lat="40.439633" lon="-5.280667">
        <ele>2257.0</ele>
        <time>2015-07-25T13:06:19Z</time>
      </trkpt>
      <trkpt lat="40.439717" lon="-5.280700">
        <ele>2254.0</ele>
        <time>2015-07-25T13:06:20Z</time>
      </trkpt>
      <trkpt lat="40.439800" lon="-5.280733">
        <ele>2251.0</ele>
        <time>2015-07-25T13:06:21Z</time>
      </trkpt>
      <trkpt lat="40.439900" lon="-5.280750">
        <ele>2247.0</ele>
        <time>2015-07-25T13:06:22Z</time>
      </trkpt>
      <trkpt lat="40.440000" lon="-5.280767">
        <ele>2243.0</ele>
        <time>2015-07-25T13:06:23Z</time>
      </trkpt>
      <trkpt lat="40.440100" lon="-5.280783">
        <ele>2240.0</ele>
        <time>2015-07-25T13:06:24Z</time>
      </trkpt>
      <trkpt lat="40.440200" lon="-5.280800">
        <ele>2238.0</ele>
        <time>2015-07-25T13:06:25Z</time>
      </trkpt>
      <trkpt lat="40.440300" lon="-5.280817">
        <ele>2237.0</ele>
        <time>2015-07-25T13:06:26Z</time>
      </trkpt>
      <trkpt lat="40.440400" lon="-5.280817">
        <ele>2236.0</ele>
        <time>2015-07-25T13:06:27Z</time>
      </trkpt>
      <trkpt lat="40.440483" lon="-5.280800">
        <ele>2235.0</ele>
        <time>2015-07-25T13:06:28Z</time>
      </trkpt>
      <trkpt lat="40.440550" lon="-5.280767">
        <ele>2233.0</ele>
        <time>2015-07-25T13:06:29Z</time>
      </trkpt>
      <trkpt lat="40.440617" lon="-5.280750">
        <ele>2230.0</ele>
        <time>2015-07-25T13:06:30Z</time>
      </trkpt>
      <trkpt lat="40.440683" lon="-5.280733">
        <ele>2228.0</ele>
        <time>2015-07-25T13:06:31Z</time>
      </trkpt>
      <trkpt lat="40.440767" lon="-5.280717">
        <ele>2225.0</ele>
        <time>2015-07-25T13:06:32Z</time>
      </trkpt>
      <trkpt lat="40.440850" lon="-5.280717">
        <ele>2221.0</ele>
        <time>2015-07-25T13:06:33Z</time>
      </trkpt>
      <trkpt lat="40.440933" lon="-5.280733">
        <ele>2217.0</ele>
        <time>2015-07-25T13:06:34Z</time>
      </trkpt>
      <trkpt lat="40.441017" lon="-5.280750">
        <ele>2214.0</ele>
        <time>2015-07-25T13:06:35Z</time>
      </trkpt>
      <trkpt lat="40.441083" lon="-5.280783">
        <ele>2213.0</ele>
        <time>2015-07-25T13:06:36Z</time>
      </trkpt>
      <trkpt lat="40.441150" lon="-5.280833">
        <ele>2212.0</ele>
        <time>2015-07-25T13:06:37Z</time>
      </trkpt>
      <trkpt lat="40.441217" lon="-5.280883">
        <ele>2212.0</ele>
        <time>2015-07-25T13:06:38Z</time>
      </trkpt>
      <trkpt lat="40.441267" lon="-5.280933">
        <ele>2214.0</ele>
        <time>2015-07-25T13:06:39Z</time>
      </trkpt>
      <trkpt lat="40.441317" lon="-5.280967">
        <ele>2216.0</ele>
        <time>2015-07-25T13:06:40Z</time>
      </trkpt>
      <trkpt lat="40.441367" lon="-5.280983">
        <ele>2217.0</ele>
        <time>2015-07-25T13:06:41Z</time>
      </trkpt>
      <trkpt lat="40.441400" lon="-5.281000">
        <ele>2217.0</ele>
        <time>2015-07-25T13:06:42Z</time>
      </trkpt>
      <trkpt lat="40.441467" lon="-5.281033">
        <ele>2216.0</ele>
        <time>2015-07-25T13:06:43Z</time>
      </trkpt>
      <trkpt lat="40.441533" lon="-5.281067">
        <ele>2215.0</ele>
        <time>2015-07-25T13:06:44Z</time>
      </trkpt>
      <trkpt lat="40.441617" lon="-5.281117">
        <ele>2215.0</ele>
        <time>2015-07-25T13:06:45Z</time>
      </trkpt>
      <trkpt lat="40.441717" lon="-5.281150">
        <ele>2215.0</ele>
        <time>2015-07-25T13:06:46Z</time>
      </trkpt>
      <trkpt lat="40.441817" lon="-5.281167">
        <ele>2216.0</ele>
        <time>2015-07-25T13:06:47Z</time>
      </trkpt>
      <trkpt lat="40.441900" lon="-5.281167">
        <ele>2217.0</ele>
        <time>2015-07-25T13:06:48Z</time>
      </trkpt>
      <trkpt lat="40.441983" lon="-5.281167">
        <ele>2220.0</ele>
        <time>2015-07-25T13:06:49Z</time>
      </trkpt>
      <trkpt lat="40.442067" lon="-5.281150">
        <ele>2223.0</ele>
        <time>2015-07-25T13:06:50Z</time>
      </trkpt>
      <trkpt lat="40.442133" lon="-5.281150">
        <ele>2226.0</ele>
        <time>2015-07-25T13:06:51Z</time>
      </trkpt>
      <trkpt lat="40.442200" lon="-5.281133">
        <ele>2227.0</ele>
        <time>2015-07-25T13:06:52Z</time>
      </trkpt>
      <trkpt lat="40.442283" lon="-5.281117">
        <ele>2229.0</ele>
        <time>2015-07-25T13:06:53Z</time>
      </trkpt>
      <trkpt lat="40.442350" lon="-5.281117">
        <ele>2232.0</ele>
        <time>2015-07-25T13:06:54Z</time>
      </trkpt>
      <trkpt lat="40.442433" lon="-5.281150">
        <ele>2235.0</ele>
        <time>2015-07-25T13:06:55Z</time>
      </trkpt>
      <trkpt lat="40.442500" lon="-5.281200">
        <ele>2237.0</ele>
        <time>2015-07-25T13:06:56Z</time>
      </trkpt>
      <trkpt lat="40.442550" lon="-5.281250">
        <ele>2240.0</ele>
        <time>2015-07-25T13:06:57Z</time>
      </trkpt>
      <trkpt lat="40.442633" lon="-5.281283">
        <ele>2243.0</ele>
        <time>2015-07-25T13:06:58Z</time>
      </trkpt>
      <trkpt lat="40.442700" lon="-5.281317">
        <ele>2245.0</ele>
        <time>2015-07-25T13:06:59Z</time>
      </trkpt>
      <trkpt lat="40.442783" lon="-5.281333">
        <ele>2246.0</ele>
        <time>2015-07-25T13:07:00Z</time>
      </trkpt>
      <trkpt lat="40.442850" lon="-5.281350">
        <ele>2248.0</ele>
        <time>2015-07-25T13:07:01Z</time>
      </trkpt>
      <trkpt lat="40.442933" lon="-5.281383">
        <ele>2250.0</ele>
        <time>2015-07-25T13:07:02Z</time>
      </trkpt>
      <trkpt lat="40.443000" lon="-5.281400">
        <ele>2251.0</ele>
        <time>2015-07-25T13:07:03Z</time>
      </trkpt>
      <trkpt lat="40.443083" lon="-5.281417">
        <ele>2251.0</ele>
        <time>2015-07-25T13:07:04Z</time>
      </trkpt>
      <trkpt lat="40.443167" lon="-5.281417">
        <ele>2250.0</ele>
        <time>2015-07-25T13:07:05Z</time>
      </trkpt>
      <trkpt lat="40.443267" lon="-5.281417">
        <ele>2251.0</ele>
        <time>2015-07-25T13:07:06Z</time>
      </trkpt>
      <trkpt lat="40.443350" lon="-5.281417">
        <ele>2252.0</ele>
        <time>2015-07-25T13:07:07Z</time>
      </trkpt>
      <trkpt lat="40.443450" lon="-5.281400">
        <ele>2253.0</ele>
        <time>2015-07-25T13:07:08Z</time>
      </trkpt>
      <trkpt lat="40.443533" lon="-5.281400">
        <ele>2256.0</ele>
        <time>2015-07-25T13:07:09Z</time>
      </trkpt>
      <trkpt lat="40.443617" lon="-5.281400">
        <ele>2260.0</ele>
        <time>2015-07-25T13:07:10Z</time>
      </trkpt>
      <trkpt lat="40.443700" lon="-5.281400">
        <ele>2264.0</ele>
        <time>2015-07-25T13:07:11Z</time>
      </trkpt>
      <trkpt lat="40.443767" lon="-5.281400">
        <ele>2268.0</ele>
        <time>2015-07-25T13:07:12Z</time>
      </trkpt>
      <trkpt lat="40.443833" lon="-5.281417">
        <ele>2272.0</ele>
        <time>2015-07-25T13:07:13Z</time>
      </trkpt>
      <trkpt lat="40.443900" lon="-5.281433">
        <ele>2276.0</ele>
        <time>2015-07-25T13:07:14Z</time>
      </trkpt>
      <trkpt lat="40.443950" lon="-5.281483">
        <ele>2280.0</ele>
        <time>2015-07-25T13:07:15Z</time>
      </trkpt>
      <trkpt lat="40.443983" lon="-5.281567">
        <ele>2284.0</ele>
        <time>2015-07-25T13:07:16Z</time>
      </trkpt>
      <trkpt lat="40.443967" lon="-5.281667">
        <ele>2286.0</ele>
        <time>2015-07-25T13:07:17Z</time>
      </trkpt>
      <trkpt lat="40.443883" lon="-5.281767">
        <ele>2289.0</ele>
        <time>2015-07-25T13:07:18Z</time>
      </trkpt>
      <trkpt lat="40.443783" lon="-5.281817">
        <ele>2291.0</ele>
        <time>2015-07-25T13:07:19Z</time>
      </trkpt>
      <trkpt lat="40.443650" lon="-5.281800">
        <ele>2295.0</ele>
        <time>2015-07-25T13:07:20Z</time>
      </trkpt>
      <trkpt lat="40.443533" lon="-5.281750">
        <ele>2299.0</ele>
        <time>2015-07-25T13:07:21Z</time>
      </trkpt>
      <trkpt lat="40.443450" lon="-5.281633">
        <ele>2303.0</ele>
        <time>2015-07-25T13:07:22Z</time>
      </trkpt>
      <trkpt lat="40.443400" lon="-5.281500">
        <ele>2306.0</ele>
        <time>2015-07-25T13:07:23Z</time>
      </trkpt>
      <trkpt lat="40.443400" lon="-5.281367">
        <ele>2309.0</ele>
        <time>2015-07-25T13:07:24Z</time>
      </trkpt>
      <trkpt lat="40.443433" lon="-5.281233">
        <ele>2312.0</ele>
        <time>2015-07-25T13:07:25Z</time>
      </trkpt>
      <trkpt lat="40.443500" lon="-5.281133">
        <ele>2316.0</ele>
        <time>2015-07-25T13:07:26Z</time>
      </trkpt>
      <trkpt lat="40.443550" lon="-5.281083">
        <ele>2320.0</ele>
        <time>2015-07-25T13:07:27Z</time>
      </trkpt>
      <trkpt lat="40.443617" lon="-5.281067">
        <ele>2324.0</ele>
        <time>2015-07-25T13:07:28Z</time>
      </trkpt>
      <trkpt lat="40.443667" lon="-5.281083">
        <ele>2326.0</ele>
        <time>2015-07-25T13:07:29Z</time>
      </trkpt>
      <trkpt lat="40.443717" lon="-5.281150">
        <ele>2328.0</ele>
        <time>2015-07-25T13:07:30Z</time>
      </trkpt>
      <trkpt lat="40.443750" lon="-5.281250">
        <ele>2331.0</ele>
        <time>2015-07-25T13:07:31Z</time>
      </trkpt>
      <trkpt lat="40.443733" lon="-5.281367">
        <ele>2333.0</ele>
        <time>2015-07-25T13:07:32Z</time>
      </trkpt>
      <trkpt lat="40.443683" lon="-5.281467">
        <ele>2336.0</ele>
        <time>2015-07-25T13:07:33Z</time>
      </trkpt>
      <trkpt lat="40.443583" lon="-5.281550">
        <ele>2339.0</ele>
        <time>2015-07-25T13:07:34Z</time>
      </trkpt>
      <trkpt lat="40.443467" lon="-5.281567">
        <ele>2343.0</ele>
        <time>2015-07-25T13:07:35Z</time>
      </trkpt>
      <trkpt lat="40.443350" lon="-5.281517">
        <ele>2346.0</ele>
        <time>2015-07-25T13:07:36Z</time>
      </trkpt>
      <trkpt lat="40.443250" lon="-5.281400">
        <ele>2348.0</ele>
        <time>2015-07-25T13:07:37Z</time>
      </trkpt>
      <trkpt lat="40.443200" lon="-5.281233">
        <ele>2352.0</ele>
        <time>2015-07-25T13:07:38Z</time>
      </trkpt>
      <trkpt lat="40.443183" lon="-5.281067">
        <ele>2357.0</ele>
        <time>2015-07-25T13:07:39Z</time>
      </trkpt>
      <trkpt lat="40.443200" lon="-5.280950">
        <ele>2363.0</ele>
        <time>2015-07-25T13:07:40Z</time>
      </trkpt>
      <trkpt lat="40.443250" lon="-5.280850">
        <ele>2367.0</ele>
        <time>2015-07-25T13:07:41Z</time>
      </trkpt>
      <trkpt lat="40.443317" lon="-5.280817">
        <ele>2369.0</ele>
        <time>2015-07-25T13:07:42Z</time>
      </trkpt>
      <trkpt lat="40.443400" lon="-5.280800">
        <ele>2371.0</ele>
        <time>2015-07-25T13:07:43Z</time>
      </trkpt>
      <trkpt lat="40.443483" lon="-5.280800">
        <ele>2374.0</ele>
        <time>2015-07-25T13:07:44Z</time>
      </trkpt>
      <trkpt lat="40.443533" lon="-5.280850">
        <ele>2378.0</ele>
        <time>2015-07-25T13:07:45Z</time>
      </trkpt>
      <trkpt lat="40.443567" lon="-5.280900">
        <ele>2381.0</ele>
        <time>2015-07-25T13:07:46Z</time>
      </trkpt>
      <trkpt lat="40.443567" lon="-5.281000">
        <ele>2382.0</ele>
        <time>2015-07-25T13:07:47Z</time>
      </trkpt>
      <trkpt lat="40.443533" lon="-5.281083">
        <ele>2383.0</ele>
        <time>2015-07-25T13:07:48Z</time>
      </trkpt>
      <trkpt lat="40.443467" lon="-5.281183">
        <ele>2386.0</ele>
        <time>2015-07-25T13:07:49Z</time>
      </trkpt>
      <trkpt lat="40.443383" lon="-5.281233">
        <ele>2389.0</ele>
        <time>2015-07-25T13:07:50Z</time>
      </trkpt>
      <trkpt lat="40.443267" lon="-5.281250">
        <ele>2392.0</ele>
        <time>2015-07-25T13:07:51Z</time>
      </trkpt>
      <trkpt lat="40.443150" lon="-5.281217">
        <ele>2395.0</ele>
        <time>2015-07-25T13:07:52Z</time>
      </trkpt>
      <trkpt lat="40.443033" lon="-5.281133">
        <ele>2397.0</ele>
        <time>2015-07-25T13:07:53Z</time>
      </trkpt>
      <trkpt lat="40.442933" lon="-5.281000">
        <ele>2400.0</ele>
        <time>2015-07-25T13:07:54Z</time>
      </trkpt>
      <trkpt lat="40.442867" lon="-5.280867">
        <ele>2404.0</ele>
        <time>2015-07-25T13:07:55Z</time>
      </trkpt>
      <trkpt lat="40.442817" lon="-5.280733">
        <ele>2409.0</ele>
        <time>2015-07-25T13:07:56Z</time>
      </trkpt>
      <trkpt lat="40.442800" lon="-5.280617">
        <ele>2413.0</ele>
        <time>2015-07-25T13:07:57Z</time>
      </trkpt>
      <trkpt lat="40.442817" lon="-5.280500">
        <ele>2414.0</ele>
        <time>2015-07-25T13:07:58Z</time>
      </trkpt>
      <trkpt lat="40.442850" lon="-5.280383">
        <ele>2415.0</ele>
        <time>2015-07-25T13:07:59Z</time>
      </trkpt>
      <trkpt lat="40.442900" lon="-5.280283">
        <ele>2417.0</ele>
        <time>2015-07-25T13:08:00Z</time>
      </trkpt>
      <trkpt lat="40.442983" lon="-5.280200">
        <ele>2419.0</ele>
        <time>2015-07-25T13:08:01Z</time>
      </trkpt>
      <trkpt lat="40.443050" lon="-5.280167">
        <ele>2421.0</ele>
        <time>2015-07-25T13:08:02Z</time>
      </trkpt>
      <trkpt lat="40.443117" lon="-5.280183">
        <ele>2423.0</ele>
        <time>2015-07-25T13:08:03Z</time>
      </trkpt>
      <trkpt lat="40.443183" lon="-5.280217">
        <ele>2426.0</ele>
        <time>2015-07-25T13:08:04Z</time>
      </trkpt>
      <trkpt lat="40.443217" lon="-5.280300">
        <ele>2429.0</ele>
        <time>2015-07-25T13:08:05Z</time>
      </trkpt>
      <trkpt lat="40.443217" lon="-5.280383">
        <ele>2431.0</ele>
        <time>2015-07-25T13:08:06Z</time>
      </trkpt>
      <trkpt lat="40.443200" lon="-5.280467">
        <ele>2433.0</ele>
        <time>2015-07-25T13:08:07Z</time>
      </trkpt>
      <trkpt lat="40.443150" lon="-5.280567">
        <ele>2435.0</ele>
        <time>2015-07-25T13:08:08Z</time>
      </trkpt>
      <trkpt lat="40.443050" lon="-5.280650">
        <ele>2438.0</ele>
        <time>2015-07-25T13:08:09Z</time>
      </trkpt>
      <trkpt lat="40.442950" lon="-5.280717">
        <ele>2442.0</ele>
        <time>2015-07-25T13:08:10Z</time>
      </trkpt>
      <trkpt lat="40.442850" lon="-5.280750">
        <ele>2446.0</ele>
        <time>2015-07-25T13:08:11Z</time>
      </trkpt>
      <trkpt lat="40.442733" lon="-5.280750">
        <ele>2450.0</ele>
        <time>2015-07-25T13:08:12Z</time>
      </trkpt>
      <trkpt lat="40.442617" lon="-5.280700">
        <ele>2452.0</ele>
        <time>2015-07-25T13:08:13Z</time>
      </trkpt>
      <trkpt lat="40.442517" lon="-5.280617">
        <ele>2454.0</ele>
        <time>2015-07-25T13:08:14Z</time>
      </trkpt>
      <trkpt lat="40.442433" lon="-5.280483">
        <ele>2455.0</ele>
        <time>2015-07-25T13:08:15Z</time>
      </trkpt>
      <trkpt lat="40.442383" lon="-5.280317">
        <ele>2457.0</ele>
        <time>2015-07-25T13:08:16Z</time>
      </trkpt>
      <trkpt lat="40.442367" lon="-5.280167">
        <ele>2458.0</ele>
        <time>2015-07-25T13:08:17Z</time>
      </trkpt>
      <trkpt lat="40.442400" lon="-5.280017">
        <ele>2460.0</ele>
        <time>2015-07-25T13:08:18Z</time>
      </trkpt>
      <trkpt lat="40.442450" lon="-5.279917">
        <ele>2462.0</ele>
        <time>2015-07-25T13:08:19Z</time>
      </trkpt>
      <trkpt lat="40.442500" lon="-5.279817">
        <ele>2464.0</ele>
        <time>2015-07-25T13:08:20Z</time>
      </trkpt>
      <trkpt lat="40.442550" lon="-5.279750">
        <ele>2466.0</ele>
        <time>2015-07-25T13:08:21Z</time>
      </trkpt>
      <trkpt lat="40.442617" lon="-5.279717">
        <ele>2467.0</ele>
        <time>2015-07-25T13:08:22Z</time>
      </trkpt>
      <trkpt lat="40.442700" lon="-5.279700">
        <ele>2468.0</ele>
        <time>2015-07-25T13:08:23Z</time>
      </trkpt>
      <trkpt lat="40.442783" lon="-5.279717">
        <ele>2470.0</ele>
        <time>2015-07-25T13:08:24Z</time>
      </trkpt>
      <trkpt lat="40.442867" lon="-5.279733">
        <ele>2472.0</ele>
        <time>2015-07-25T13:08:25Z</time>
      </trkpt>
      <trkpt lat="40.442933" lon="-5.279767">
        <ele>2476.0</ele>
        <time>2015-07-25T13:08:26Z</time>
      </trkpt>
      <trkpt lat="40.443000" lon="-5.279783">
        <ele>2479.0</ele>
        <time>2015-07-25T13:08:27Z</time>
      </trkpt>
      <trkpt lat="40.443067" lon="-5.279817">
        <ele>2480.0</ele>
        <time>2015-07-25T13:08:28Z</time>
      </trkpt>
      <trkpt lat="40.443117" lon="-5.279850">
        <ele>2482.0</ele>
        <time>2015-07-25T13:08:29Z</time>
      </trkpt>
      <trkpt lat="40.443183" lon="-5.279883">
        <ele>2483.0</ele>
        <time>2015-07-25T13:08:30Z</time>
      </trkpt>
      <trkpt lat="40.443233" lon="-5.279950">
        <ele>2485.0</ele>
        <time>2015-07-25T13:08:31Z</time>
      </trkpt>
      <trkpt lat="40.443300" lon="-5.280017">
        <ele>2486.0</ele>
        <time>2015-07-25T13:08:32Z</time>
      </trkpt>
      <trkpt lat="40.443350" lon="-5.280083">
        <ele>2486.0</ele>
        <time>2015-07-25T13:08:33Z</time>
      </trkpt>
      <trkpt lat="40.443400" lon="-5.280150">
        <ele>2487.0</ele>
        <time>2015-07-25T13:08:34Z</time>
      </trkpt>
      <trkpt lat="40.443450" lon="-5.280217">
        <ele>2488.0</ele>
        <time>2015-07-25T13:08:35Z</time>
      </trkpt>
      <trkpt lat="40.443500" lon="-5.280283">
        <ele>2489.0</ele>
        <time>2015-07-25T13:08:36Z</time>
      </trkpt>
      <trkpt lat="40.443550" lon="-5.280367">
        <ele>2490.0</ele>
        <time>2015-07-25T13:08:37Z</time>
      </trkpt>
      <trkpt lat="40.443600" lon="-5.280467">
        <ele>2492.0</ele>
        <time>2015-07-25T13:08:38Z</time>
      </trkpt>
      <trkpt lat="40.443650" lon="-5.280567">
        <ele>2495.0</ele>
        <time>2015-07-25T13:08:39Z</time>
      </trkpt>
      <trkpt lat="40.443683" lon="-5.280667">
        <ele>2498.0</ele>
        <time>2015-07-25T13:08:40Z</time>
      </trkpt>
      <trkpt lat="40.443717" lon="-5.280767">
        <ele>2501.0</ele>
        <time>2015-07-25T13:08:41Z</time>
      </trkpt>
      <trkpt lat="40.443767" lon="-5.280850">
        <ele>2504.0</ele>
        <time>2015-07-25T13:08:42Z</time>
      </trkpt>
      <trkpt lat="40.443800" lon="-5.280950">
        <ele>2506.0</ele>
        <time>2015-07-25T13:08:43Z</time>
      </trkpt>
      <trkpt lat="40.443833" lon="-5.281067">
        <ele>2508.0</ele>
        <time>2015-07-25T13:08:44Z</time>
      </trkpt>
      <trkpt lat="40.443850" lon="-5.281167">
        <ele>2510.0</ele>
        <time>2015-07-25T13:08:45Z</time>
      </trkpt>
      <trkpt lat="40.443883" lon="-5.281283">
        <ele>2512.0</ele>
        <time>2015-07-25T13:08:46Z</time>
      </trkpt>
      <trkpt lat="40.443917" lon="-5.281383">
        <ele>2515.0</ele>
        <time>2015-07-25T13:08:47Z</time>
      </trkpt>
      <trkpt lat="40.443950" lon="-5.281467">
        <ele>2516.0</ele>
        <time>2015-07-25T13:08:48Z</time>
      </trkpt>
      <trkpt lat="40.443983" lon="-5.281567">
        <ele>2518.0</ele>
        <time>2015-07-25T13:08:49Z</time>
      </trkpt>
      <trkpt lat="40.444017" lon="-5.281683">
        <ele>2520.0</ele>
        <time>2015-07-25T13:08:50Z</time>
      </trkpt>
      <trkpt lat="40.444050" lon="-5.281783">
        <ele>2521.0</ele>
        <time>2015-07-25T13:08:51Z</time>
      </trkpt>
      <trkpt lat="40.444083" lon="-5.281917">
        <ele>2524.0</ele>
        <time>2015-07-25T13:08:52Z</time>
      </trkpt>
      <trkpt lat="40.444100" lon="-5.282017">
        <ele>2526.0</ele>
        <time>2015-07-25T13:08:53Z</time>
      </trkpt>
      <trkpt lat="40.444117" lon="-5.282117">
        <ele>2529.0</ele>
        <time>2015-07-25T13:08:54Z</time>
      </trkpt>
      <trkpt lat="40.444150" lon="-5.282217">
        <ele>2530.0</ele>
        <time>2015-07-25T13:08:55Z</time>
      </trkpt>
      <trkpt lat="40.444183" lon="-5.282300">
        <ele>2531.0</ele>
        <time>2015-07-25T13:08:56Z</time>
      </trkpt>
      <trkpt lat="40.444217" lon="-5.282383">
        <ele>2531.0</ele>
        <time>2015-07-25T13:08:57Z</time>
      </trkpt>
      <trkpt lat="40.444250" lon="-5.282483">
        <ele>2531.0</ele>
        <time>2015-07-25T13:08:58Z</time>
      </trkpt>
      <trkpt lat="40.444283" lon="-5.282567">
        <ele>2531.0</ele>
        <time>2015-07-25T13:08:59Z</time>
      </trkpt>
      <trkpt lat="40.444317" lon="-5.282650">
        <ele>2531.0</ele>
        <time>2015-07-25T13:09:00Z</time>
      </trkpt>
      <trkpt lat="40.444350" lon="-5.282750">
        <ele>2530.0</ele>
        <time>2015-07-25T13:09:01Z</time>
      </trkpt>
      <trkpt lat="40.444383" lon="-5.282850">
        <ele>2529.0</ele>
        <time>2015-07-25T13:09:02Z</time>
      </trkpt>
      <trkpt lat="40.444433" lon="-5.282950">
        <ele>2529.0</ele>
        <time>2015-07-25T13:09:03Z</time>
      </trkpt>
      <trkpt lat="40.444467" lon="-5.283033">
        <ele>2530.0</ele>
        <time>2015-07-25T13:09:04Z</time>
      </trkpt>
      <trkpt lat="40.444500" lon="-5.283100">
        <ele>2532.0</ele>
        <time>2015-07-25T13:09:05Z</time>
      </trkpt>
      <trkpt lat="40.444550" lon="-5.283150">
        <ele>2532.0</ele>
        <time>2015-07-25T13:09:06Z</time>
      </trkpt>
      <trkpt lat="40.444600" lon="-5.283200">
        <ele>2531.0</ele>
        <time>2015-07-25T13:09:07Z</time>
      </trkpt>
      <trkpt lat="40.444650" lon="-5.283250">
        <ele>2529.0</ele>
        <time>2015-07-25T13:09:08Z</time>
      </trkpt>
      <trkpt lat="40.444717" lon="-5.283317">
        <ele>2528.0</ele>
        <time>2015-07-25T13:09:09Z</time>
      </trkpt>
      <trkpt lat="40.444800" lon="-5.283367">
        <ele>2528.0</ele>
        <time>2015-07-25T13:09:10Z</time>
      </trkpt>
      <trkpt lat="40.444867" lon="-5.283417">
        <ele>2529.0</ele>
        <time>2015-07-25T13:09:11Z</time>
      </trkpt>
      <trkpt lat="40.444933" lon="-5.283433">
        <ele>2531.0</ele>
        <time>2015-07-25T13:09:12Z</time>
      </trkpt>
      <trkpt lat="40.444983" lon="-5.283467">
        <ele>2532.0</ele>
        <time>2015-07-25T13:09:13Z</time>
      </trkpt>
      <trkpt lat="40.445033" lon="-5.283500">
        <ele>2533.0</ele>
        <time>2015-07-25T13:09:14Z</time>
      </trkpt>
      <trkpt lat="40.445083" lon="-5.283550">
        <ele>2532.0</ele>
        <time>2015-07-25T13:09:15Z</time>
      </trkpt>
      <trkpt lat="40.445133" lon="-5.283600">
        <ele>2531.0</ele>
        <time>2015-07-25T13:09:16Z</time>
      </trkpt>
      <trkpt lat="40.445200" lon="-5.283650">
        <ele>2529.0</ele>
        <time>2015-07-25T13:09:17Z</time>
      </trkpt>
      <trkpt lat="40.445267" lon="-5.283700">
        <ele>2528.0</ele>
        <time>2015-07-25T13:09:18Z</time>
      </trkpt>
      <trkpt lat="40.445350" lon="-5.283767">
        <ele>2527.0</ele>
        <time>2015-07-25T13:09:19Z</time>
      </trkpt>
      <trkpt lat="40.445433" lon="-5.283817">
        <ele>2526.0</ele>
        <time>2015-07-25T13:09:20Z</time>
      </trkpt>
      <trkpt lat="40.445500" lon="-5.283867">
        <ele>2526.0</ele>
        <time>2015-07-25T13:09:21Z</time>
      </trkpt>
      <trkpt lat="40.445583" lon="-5.283900">
        <ele>2526.0</ele>
        <time>2015-07-25T13:09:22Z</time>
      </trkpt>
      <trkpt lat="40.445667" lon="-5.283933">
        <ele>2527.0</ele>
        <time>2015-07-25T13:09:23Z</time>
      </trkpt>
      <trkpt lat="40.445733" lon="-5.283967">
        <ele>2527.0</ele>
        <time>2015-07-25T13:09:24Z</time>
      </trkpt>
      <trkpt lat="40.445817" lon="-5.284000">
        <ele>2527.0</ele>
        <time>2015-07-25T13:09:25Z</time>
      </trkpt>
      <trkpt lat="40.445883" lon="-5.284050">
        <ele>2527.0</ele>
        <time>2015-07-25T13:09:26Z</time>
      </trkpt>
      <trkpt lat="40.445967" lon="-5.284100">
        <ele>2525.0</ele>
        <time>2015-07-25T13:09:27Z</time>
      </trkpt>
      <trkpt lat="40.446050" lon="-5.284150">
        <ele>2525.0</ele>
        <time>2015-07-25T13:09:28Z</time>
      </trkpt>
      <trkpt lat="40.446133" lon="-5.284217">
        <ele>2524.0</ele>
        <time>2015-07-25T13:09:29Z</time>
      </trkpt>
      <trkpt lat="40.446217" lon="-5.284250">
        <ele>2524.0</ele>
        <time>2015-07-25T13:09:30Z</time>
      </trkpt>
      <trkpt lat="40.446300" lon="-5.284317">
        <ele>2525.0</ele>
        <time>2015-07-25T13:09:31Z</time>
      </trkpt>
      <trkpt lat="40.446383" lon="-5.284383">
        <ele>2525.0</ele>
        <time>2015-07-25T13:09:32Z</time>
      </trkpt>
      <trkpt lat="40.446467" lon="-5.284450">
        <ele>2526.0</ele>
        <time>2015-07-25T13:09:33Z</time>
      </trkpt>
      <trkpt lat="40.446533" lon="-5.284533">
        <ele>2525.0</ele>
        <time>2015-07-25T13:09:34Z</time>
      </trkpt>
      <trkpt lat="40.446617" lon="-5.284600">
        <ele>2525.0</ele>
        <time>2015-07-25T13:09:35Z</time>
      </trkpt>
      <trkpt lat="40.446700" lon="-5.284667">
        <ele>2525.0</ele>
        <time>2015-07-25T13:09:36Z</time>
      </trkpt>
      <trkpt lat="40.446783" lon="-5.284750">
        <ele>2524.0</ele>
        <time>2015-07-25T13:09:37Z</time>
      </trkpt>
      <trkpt lat="40.446867" lon="-5.284817">
        <ele>2524.0</ele>
        <time>2015-07-25T13:09:38Z</time>
      </trkpt>
      <trkpt lat="40.446950" lon="-5.284883">
        <ele>2525.0</ele>
        <time>2015-07-25T13:09:39Z</time>
      </trkpt>
      <trkpt lat="40.447033" lon="-5.284967">
        <ele>2526.0</ele>
        <time>2015-07-25T13:09:40Z</time>
      </trkpt>
      <trkpt lat="40.447100" lon="-5.285050">
        <ele>2526.0</ele>
        <time>2015-07-25T13:09:41Z</time>
      </trkpt>
      <trkpt lat="40.447150" lon="-5.285133">
        <ele>2526.0</ele>
        <time>2015-07-25T13:09:42Z</time>
      </trkpt>
      <trkpt lat="40.447217" lon="-5.285233">
        <ele>2525.0</ele>
        <time>2015-07-25T13:09:43Z</time>
      </trkpt>
      <trkpt lat="40.447283" lon="-5.285317">
        <ele>2524.0</ele>
        <time>2015-07-25T13:09:44Z</time>
      </trkpt>
      <trkpt lat="40.447350" lon="-5.285383">
        <ele>2522.0</ele>
        <time>2015-07-25T13:09:45Z</time>
      </trkpt>
      <trkpt lat="40.447450" lon="-5.285450">
        <ele>2520.0</ele>
        <time>2015-07-25T13:09:46Z</time>
      </trkpt>
      <trkpt lat="40.447533" lon="-5.285533">
        <ele>2519.0</ele>
        <time>2015-07-25T13:09:47Z</time>
      </trkpt>
      <trkpt lat="40.447617" lon="-5.285617">
        <ele>2521.0</ele>
        <time>2015-07-25T13:09:48Z</time>
      </trkpt>
      <trkpt lat="40.447700" lon="-5.285683">
        <ele>2523.0</ele>
        <time>2015-07-25T13:09:49Z</time>
      </trkpt>
      <trkpt lat="40.447767" lon="-5.285767">
        <ele>2526.0</ele>
        <time>2015-07-25T13:09:50Z</time>
      </trkpt>
      <trkpt lat="40.447850" lon="-5.285833">
        <ele>2528.0</ele>
        <time>2015-07-25T13:09:51Z</time>
      </trkpt>
      <trkpt lat="40.447917" lon="-5.285900">
        <ele>2529.0</ele>
        <time>2015-07-25T13:09:52Z</time>
      </trkpt>
      <trkpt lat="40.448000" lon="-5.285983">
        <ele>2530.0</ele>
        <time>2015-07-25T13:09:53Z</time>
      </trkpt>
      <trkpt lat="40.448083" lon="-5.286067">
        <ele>2531.0</ele>
        <time>2015-07-25T13:09:54Z</time>
      </trkpt>
      <trkpt lat="40.448167" lon="-5.286133">
        <ele>2533.0</ele>
        <time>2015-07-25T13:09:55Z</time>
      </trkpt>
      <trkpt lat="40.448250" lon="-5.286217">
        <ele>2536.0</ele>
        <time>2015-07-25T13:09:56Z</time>
      </trkpt>
      <trkpt lat="40.448333" lon="-5.286283">
        <ele>2539.0</ele>
        <time>2015-07-25T13:09:57Z</time>
      </trkpt>
      <trkpt lat="40.448400" lon="-5.286367">
        <ele>2542.0</ele>
        <time>2015-07-25T13:09:58Z</time>
      </trkpt>
      <trkpt lat="40.448467" lon="-5.286433">
        <ele>2544.0</ele>
        <time>2015-07-25T13:09:59Z</time>
      </trkpt>
      <trkpt lat="40.448517" lon="-5.286517">
        <ele>2544.0</ele>
        <time>2015-07-25T13:10:00Z</time>
      </trkpt>
      <trkpt lat="40.448567" lon="-5.286600">
        <ele>2544.0</ele>
        <time>2015-07-25T13:10:01Z</time>
      </trkpt>
      <trkpt lat="40.448617" lon="-5.286683">
        <ele>2543.0</ele>
        <time>2015-07-25T13:10:02Z</time>
      </trkpt>
      <trkpt lat="40.448700" lon="-5.286783">
        <ele>2542.0</ele>
        <time>2015-07-25T13:10:03Z</time>
      </trkpt>
      <trkpt lat="40.448767" lon="-5.286883">
        <ele>2541.0</ele>
        <time>2015-07-25T13:10:04Z</time>
      </trkpt>
      <trkpt lat="40.448850" lon="-5.286983">
        <ele>2540.0</ele>
        <time>2015-07-25T13:10:05Z</time>
      </trkpt>
      <trkpt lat="40.448933" lon="-5.287083">
        <ele>2540.0</ele>
        <time>2015-07-25T13:10:06Z</time>
      </trkpt>
      <trkpt lat="40.449000" lon="-5.287150">
        <ele>2541.0</ele>
        <time>2015-07-25T13:10:07Z</time>
      </trkpt>
      <trkpt lat="40.449083" lon="-5.287217">
        <ele>2540.0</ele>
        <time>2015-07-25T13:10:08Z</time>
      </trkpt>
      <trkpt lat="40.449167" lon="-5.287283">
        <ele>2539.0</ele>
        <time>2015-07-25T13:10:09Z</time>
      </trkpt>
      <trkpt lat="40.449250" lon="-5.287350">
        <ele>2538.0</ele>
        <time>2015-07-25T13:10:10Z</time>
      </trkpt>
      <trkpt lat="40.449350" lon="-5.287417">
        <ele>2537.0</ele>
        <time>2015-07-25T13:10:11Z</time>
      </trkpt>
      <trkpt lat="40.449433" lon="-5.287483">
        <ele>2537.0</ele>
        <time>2015-07-25T13:10:12Z</time>
      </trkpt>
      <trkpt lat="40.449533" lon="-5.287550">
        <ele>2537.0</ele>
        <time>2015-07-25T13:10:13Z</time>
      </trkpt>
      <trkpt lat="40.449617" lon="-5.287600">
        <ele>2538.0</ele>
        <time>2015-07-25T13:10:14Z</time>
      </trkpt>
      <trkpt lat="40.449700" lon="-5.287667">
        <ele>2537.0</ele>
        <time>2015-07-25T13:10:15Z</time>
      </trkpt>
      <trkpt lat="40.449783" lon="-5.287717">
        <ele>2536.0</ele>
        <time>2015-07-25T13:10:16Z</time>
      </trkpt>
      <trkpt lat="40.449867" lon="-5.287767">
        <ele>2534.0</ele>
        <time>2015-07-25T13:10:17Z</time>
      </trkpt>
      <trkpt lat="40.449967" lon="-5.287817">
        <ele>2532.0</ele>
        <time>2015-07-25T13:10:18Z</time>
      </trkpt>
      <trkpt lat="40.450067" lon="-5.287883">
        <ele>2530.0</ele>
        <time>2015-07-25T13:10:19Z</time>
      </trkpt>
      <trkpt lat="40.450183" lon="-5.287950">
        <ele>2528.0</ele>
        <time>2015-07-25T13:10:20Z</time>
      </trkpt>
      <trkpt lat="40.450283" lon="-5.288017">
        <ele>2527.0</ele>
        <time>2015-07-25T13:10:21Z</time>
      </trkpt>
      <trkpt lat="40.450383" lon="-5.288083">
        <ele>2525.0</ele>
        <time>2015-07-25T13:10:22Z</time>
      </trkpt>
      <trkpt lat="40.450467" lon="-5.288167">
        <ele>2523.0</ele>
        <time>2015-07-25T13:10:23Z</time>
      </trkpt>
      <trkpt lat="40.450567" lon="-5.288250">
        <ele>2520.0</ele>
        <time>2015-07-25T13:10:24Z</time>
      </trkpt>
      <trkpt lat="40.450667" lon="-5.288350">
        <ele>2516.0</ele>
        <time>2015-07-25T13:10:25Z</time>
      </trkpt>
      <trkpt lat="40.450783" lon="-5.288433">
        <ele>2513.0</ele>
        <time>2015-07-25T13:10:26Z</time>
      </trkpt>
      <trkpt lat="40.450900" lon="-5.288517">
        <ele>2510.0</ele>
        <time>2015-07-25T13:10:27Z</time>
      </trkpt>
      <trkpt lat="40.451017" lon="-5.288583">
        <ele>2509.0</ele>
        <time>2015-07-25T13:10:28Z</time>
      </trkpt>
      <trkpt lat="40.451133" lon="-5.288650">
        <ele>2508.0</ele>
        <time>2015-07-25T13:10:29Z</time>
      </trkpt>
      <trkpt lat="40.451233" lon="-5.288717">
        <ele>2508.0</ele>
        <time>2015-07-25T13:10:30Z</time>
      </trkpt>
      <trkpt lat="40.451333" lon="-5.288767">
        <ele>2507.0</ele>
        <time>2015-07-25T13:10:31Z</time>
      </trkpt>
      <trkpt lat="40.451433" lon="-5.288833">
        <ele>2506.0</ele>
        <time>2015-07-25T13:10:32Z</time>
      </trkpt>
      <trkpt lat="40.451533" lon="-5.288900">
        <ele>2504.0</ele>
        <time>2015-07-25T13:10:33Z</time>
      </trkpt>
      <trkpt lat="40.451633" lon="-5.288967">
        <ele>2502.0</ele>
        <time>2015-07-25T13:10:34Z</time>
      </trkpt>
      <trkpt lat="40.451733" lon="-5.289067">
        <ele>2501.0</ele>
        <time>2015-07-25T13:10:35Z</time>
      </trkpt>
      <trkpt lat="40.451817" lon="-5.289167">
        <ele>2500.0</ele>
        <time>2015-07-25T13:10:36Z</time>
      </trkpt>
      <trkpt lat="40.451917" lon="-5.289250">
        <ele>2499.0</ele>
        <time>2015-07-25T13:10:37Z</time>
      </trkpt>
      <trkpt lat="40.452017" lon="-5.289333">
        <ele>2498.0</ele>
        <time>2015-07-25T13:10:38Z</time>
      </trkpt>
      <trkpt lat="40.452117" lon="-5.289400">
        <ele>2496.0</ele>
        <time>2015-07-25T13:10:39Z</time>
      </trkpt>
      <trkpt lat="40.452233" lon="-5.289483">
        <ele>2495.0</ele>
        <time>2015-07-25T13:10:40Z</time>
      </trkpt>
      <trkpt lat="40.452333" lon="-5.289567">
        <ele>2494.0</ele>
        <time>2015-07-25T13:10:41Z</time>
      </trkpt>
      <trkpt lat="40.452450" lon="-5.289650">
        <ele>2493.0</ele>
        <time>2015-07-25T13:10:42Z</time>
      </trkpt>
      <trkpt lat="40.452550" lon="-5.289717">
        <ele>2492.0</ele>
        <time>2015-07-25T13:10:43Z</time>
      </trkpt>
      <trkpt lat="40.452650" lon="-5.289767">
        <ele>2492.0</ele>
        <time>2015-07-25T13:10:44Z</time>
      </trkpt>
      <trkpt lat="40.452750" lon="-5.289833">
        <ele>2492.0</ele>
        <time>2015-07-25T13:10:45Z</time>
      </trkpt>
      <trkpt lat="40.452850" lon="-5.289883">
        <ele>2491.0</ele>
        <time>2015-07-25T13:10:46Z</time>
      </trkpt>
      <trkpt lat="40.452950" lon="-5.289967">
        <ele>2489.0</ele>
        <time>2015-07-25T13:10:47Z</time>
      </trkpt>
      <trkpt lat="40.453050" lon="-5.290050">
        <ele>2487.0</ele>
        <time>2015-07-25T13:10:48Z</time>
      </trkpt>
      <trkpt lat="40.453150" lon="-5.290117">
        <ele>2485.0</ele>
        <time>2015-07-25T13:10:49Z</time>
      </trkpt>
      <trkpt lat="40.453250" lon="-5.290183">
        <ele>2484.0</ele>
        <time>2015-07-25T13:10:50Z</time>
      </trkpt>
      <trkpt lat="40.453350" lon="-5.290250">
        <ele>2484.0</ele>
        <time>2015-07-25T13:10:51Z</time>
      </trkpt>
      <trkpt lat="40.453450" lon="-5.290300">
        <ele>2483.0</ele>
        <time>2015-07-25T13:10:52Z</time>
      </trkpt>
      <trkpt lat="40.453533" lon="-5.290367">
        <ele>2482.0</ele>
        <time>2015-07-25T13:10:53Z</time>
      </trkpt>
      <trkpt lat="40.453633" lon="-5.290417">
        <ele>2481.0</ele>
        <time>2015-07-25T13:10:54Z</time>
      </trkpt>
      <trkpt lat="40.453733" lon="-5.290467">
        <ele>2479.0</ele>
        <time>2015-07-25T13:10:55Z</time>
      </trkpt>
      <trkpt lat="40.453833" lon="-5.290517">
        <ele>2478.0</ele>
        <time>2015-07-25T13:10:56Z</time>
      </trkpt>
      <trkpt lat="40.453933" lon="-5.290583">
        <ele>2478.0</ele>
        <time>2015-07-25T13:10:57Z</time>
      </trkpt>
      <trkpt lat="40.454033" lon="-5.290650">
        <ele>2477.0</ele>
        <time>2015-07-25T13:10:58Z</time>
      </trkpt>
      <trkpt lat="40.454133" lon="-5.290717">
        <ele>2475.0</ele>
        <time>2015-07-25T13:10:59Z</time>
      </trkpt>
      <trkpt lat="40.454217" lon="-5.290800">
        <ele>2473.0</ele>
        <time>2015-07-25T13:11:00Z</time>
      </trkpt>
      <trkpt lat="40.454317" lon="-5.290867">
        <ele>2471.0</ele>
        <time>2015-07-25T13:11:01Z</time>
      </trkpt>
      <trkpt lat="40.454417" lon="-5.290933">
        <ele>2469.0</ele>
        <time>2015-07-25T13:11:02Z</time>
      </trkpt>
      <trkpt lat="40.454500" lon="-5.291000">
        <ele>2466.0</ele>
        <time>2015-07-25T13:11:03Z</time>
      </trkpt>
      <trkpt lat="40.454600" lon="-5.291067">
        <ele>2464.0</ele>
        <time>2015-07-25T13:11:04Z</time>
      </trkpt>
      <trkpt lat="40.454700" lon="-5.291133">
        <ele>2463.0</ele>
        <time>2015-07-25T13:11:05Z</time>
      </trkpt>
      <trkpt lat="40.454783" lon="-5.291217">
        <ele>2462.0</ele>
        <time>2015-07-25T13:11:06Z</time>
      </trkpt>
      <trkpt lat="40.454850" lon="-5.291300">
        <ele>2462.0</ele>
        <time>2015-07-25T13:11:07Z</time>
      </trkpt>
      <trkpt lat="40.454917" lon="-5.291367">
        <ele>2461.0</ele>
        <time>2015-07-25T13:11:08Z</time>
      </trkpt>
      <trkpt lat="40.455000" lon="-5.291417">
        <ele>2458.0</ele>
        <time>2015-07-25T13:11:09Z</time>
      </trkpt>
      <trkpt lat="40.455083" lon="-5.291450">
        <ele>2455.0</ele>
        <time>2015-07-25T13:11:10Z</time>
      </trkpt>
      <trkpt lat="40.455167" lon="-5.291500">
        <ele>2453.0</ele>
        <time>2015-07-25T13:11:11Z</time>
      </trkpt>
      <trkpt lat="40.455267" lon="-5.291533">
        <ele>2451.0</ele>
        <time>2015-07-25T13:11:12Z</time>
      </trkpt>
      <trkpt lat="40.455350" lon="-5.291583">
        <ele>2449.0</ele>
        <time>2015-07-25T13:11:13Z</time>
      </trkpt>
      <trkpt lat="40.455450" lon="-5.291650">
        <ele>2446.0</ele>
        <time>2015-07-25T13:11:14Z</time>
      </trkpt>
      <trkpt lat="40.455533" lon="-5.291717">
        <ele>2444.0</ele>
        <time>2015-07-25T13:11:15Z</time>
      </trkpt>
      <trkpt lat="40.455617" lon="-5.291800">
        <ele>2441.0</ele>
        <time>2015-07-25T13:11:16Z</time>
      </trkpt>
      <trkpt lat="40.455700" lon="-5.291867">
        <ele>2439.0</ele>
        <time>2015-07-25T13:11:17Z</time>
      </trkpt>
      <trkpt lat="40.455783" lon="-5.291950">
        <ele>2437.0</ele>
        <time>2015-07-25T13:11:18Z</time>
      </trkpt>
      <trkpt lat="40.455850" lon="-5.292033">
        <ele>2436.0</ele>
        <time>2015-07-25T13:11:19Z</time>
      </trkpt>
      <trkpt lat="40.455917" lon="-5.292117">
        <ele>2436.0</ele>
        <time>2015-07-25T13:11:20Z</time>
      </trkpt>
      <trkpt lat="40.455967" lon="-5.292183">
        <ele>2436.0</ele>
        <time>2015-07-25T13:11:21Z</time>
      </trkpt>
      <trkpt lat="40.456017" lon="-5.292250">
        <ele>2434.0</ele>
        <time>2015-07-25T13:11:22Z</time>
      </trkpt>
      <trkpt lat="40.456067" lon="-5.292317">
        <ele>2432.0</ele>
        <time>2015-07-25T13:11:23Z</time>
      </trkpt>
      <trkpt lat="40.456133" lon="-5.292400">
        <ele>2430.0</ele>
        <time>2015-07-25T13:11:24Z</time>
      </trkpt>
      <trkpt lat="40.456200" lon="-5.292467">
        <ele>2428.0</ele>
        <time>2015-07-25T13:11:25Z</time>
      </trkpt>
      <trkpt lat="40.456267" lon="-5.292567">
        <ele>2427.0</ele>
        <time>2015-07-25T13:11:26Z</time>
      </trkpt>
      <trkpt lat="40.456333" lon="-5.292633">
        <ele>2425.0</ele>
        <time>2015-07-25T13:11:27Z</time>
      </trkpt>
      <trkpt lat="40.456383" lon="-5.292700">
        <ele>2423.0</ele>
        <time>2015-07-25T13:11:28Z</time>
      </trkpt>
      <trkpt lat="40.456450" lon="-5.292783">
        <ele>2421.0</ele>
        <time>2015-07-25T13:11:29Z</time>
      </trkpt>
      <trkpt lat="40.456500" lon="-5.292867">
        <ele>2418.0</ele>
        <time>2015-07-25T13:11:30Z</time>
      </trkpt>
      <trkpt lat="40.456567" lon="-5.292950">
        <ele>2414.0</ele>
        <time>2015-07-25T13:11:31Z</time>
      </trkpt>
      <trkpt lat="40.456633" lon="-5.293067">
        <ele>2411.0</ele>
        <time>2015-07-25T13:11:32Z</time>
      </trkpt>
      <trkpt lat="40.456700" lon="-5.293183">
        <ele>2409.0</ele>
        <time>2015-07-25T13:11:33Z</time>
      </trkpt>
      <trkpt lat="40.456783" lon="-5.293283">
        <ele>2409.0</ele>
        <time>2015-07-25T13:11:34Z</time>
      </trkpt>
      <trkpt lat="40.456850" lon="-5.293367">
        <ele>2410.0</ele>
        <time>2015-07-25T13:11:35Z</time>
      </trkpt>
      <trkpt lat="40.456917" lon="-5.293433">
        <ele>2411.0</ele>
        <time>2015-07-25T13:11:36Z</time>
      </trkpt>
      <trkpt lat="40.456983" lon="-5.293517">
        <ele>2411.0</ele>
        <time>2015-07-25T13:11:37Z</time>
      </trkpt>
      <trkpt lat="40.457033" lon="-5.293600">
        <ele>2411.0</ele>
        <time>2015-07-25T13:11:38Z</time>
      </trkpt>
      <trkpt lat="40.457083" lon="-5.293667">
        <ele>2410.0</ele>
        <time>2015-07-25T13:11:39Z</time>
      </trkpt>
      <trkpt lat="40.457150" lon="-5.293750">
        <ele>2409.0</ele>
        <time>2015-07-25T13:11:40Z</time>
      </trkpt>
      <trkpt lat="40.457200" lon="-5.293833">
        <ele>2409.0</ele>
        <time>2015-07-25T13:11:41Z</time>
      </trkpt>
      <trkpt lat="40.457267" lon="-5.293900">
        <ele>2409.0</ele>
        <time>2015-07-25T13:11:42Z</time>
      </trkpt>
      <trkpt lat="40.457317" lon="-5.293983">
        <ele>2409.0</ele>
        <time>2015-07-25T13:11:43Z</time>
      </trkpt>
      <trkpt lat="40.457383" lon="-5.294050">
        <ele>2408.0</ele>
        <time>2015-07-25T13:11:44Z</time>
      </trkpt>
      <trkpt lat="40.457450" lon="-5.294133">
        <ele>2406.0</ele>
        <time>2015-07-25T13:11:45Z</time>
      </trkpt>
      <trkpt lat="40.457533" lon="-5.294200">
        <ele>2404.0</ele>
        <time>2015-07-25T13:11:46Z</time>
      </trkpt>
      <trkpt lat="40.457617" lon="-5.294267">
        <ele>2402.0</ele>
        <time>2015-07-25T13:11:47Z</time>
      </trkpt>
      <trkpt lat="40.457700" lon="-5.294333">
        <ele>2401.0</ele>
        <time>2015-07-25T13:11:48Z</time>
      </trkpt>
      <trkpt lat="40.457783" lon="-5.294367">
        <ele>2401.0</ele>
        <time>2015-07-25T13:11:49Z</time>
      </trkpt>
      <trkpt lat="40.457850" lon="-5.294400">
        <ele>2400.0</ele>
        <time>2015-07-25T13:11:50Z</time>
      </trkpt>
      <trkpt lat="40.457933" lon="-5.294417">
        <ele>2399.0</ele>
        <time>2015-07-25T13:11:51Z</time>
      </trkpt>
      <trkpt lat="40.458017" lon="-5.294467">
        <ele>2398.0</ele>
        <time>2015-07-25T13:11:52Z</time>
      </trkpt>
      <trkpt lat="40.458083" lon="-5.294517">
        <ele>2397.0</ele>
        <time>2015-07-25T13:11:53Z</time>
      </trkpt>
      <trkpt lat="40.458150" lon="-5.294567">
        <ele>2396.0</ele>
        <time>2015-07-25T13:11:54Z</time>
      </trkpt>
      <trkpt lat="40.458233" lon="-5.294617">
        <ele>2395.0</ele>
        <time>2015-07-25T13:11:55Z</time>
      </trkpt>
      <trkpt lat="40.458317" lon="-5.294667">
        <ele>2394.0</ele>
        <time>2015-07-25T13:11:56Z</time>
      </trkpt>
      <trkpt lat="40.458400" lon="-5.294683">
        <ele>2394.0</ele>
        <time>2015-07-25T13:11:57Z</time>
      </trkpt>
      <trkpt lat="40.458483" lon="-5.294700">
        <ele>2394.0</ele>
        <time>2015-07-25T13:11:58Z</time>
      </trkpt>
      <trkpt lat="40.458567" lon="-5.294717">
        <ele>2394.0</ele>
        <time>2015-07-25T13:11:59Z</time>
      </trkpt>
      <trkpt lat="40.458633" lon="-5.294750">
        <ele>2393.0</ele>
        <time>2015-07-25T13:12:00Z</time>
      </trkpt>
      <trkpt lat="40.458717" lon="-5.294767">
        <ele>2392.0</ele>
        <time>2015-07-25T13:12:01Z</time>
      </trkpt>
      <trkpt lat="40.458800" lon="-5.294800">
        <ele>2391.0</ele>
        <time>2015-07-25T13:12:02Z</time>
      </trkpt>
      <trkpt lat="40.458883" lon="-5.294817">
        <ele>2390.0</ele>
        <time>2015-07-25T13:12:03Z</time>
      </trkpt>
      <trkpt lat="40.458967" lon="-5.294833">
        <ele>2389.0</ele>
        <time>2015-07-25T13:12:04Z</time>
      </trkpt>
      <trkpt lat="40.459050" lon="-5.294850">
        <ele>2388.0</ele>
        <time>2015-07-25T13:12:05Z</time>
      </trkpt>
      <trkpt lat="40.459133" lon="-5.294900">
        <ele>2386.0</ele>
        <time>2015-07-25T13:12:06Z</time>
      </trkpt>
      <trkpt lat="40.459200" lon="-5.294950">
        <ele>2385.0</ele>
        <time>2015-07-25T13:12:07Z</time>
      </trkpt>
      <trkpt lat="40.459283" lon="-5.295000">
        <ele>2383.0</ele>
        <time>2015-07-25T13:12:08Z</time>
      </trkpt>
      <trkpt lat="40.459367" lon="-5.295050">
        <ele>2381.0</ele>
        <time>2015-07-25T13:12:09Z</time>
      </trkpt>
      <trkpt lat="40.459433" lon="-5.295100">
        <ele>2379.0</ele>
        <time>2015-07-25T13:12:10Z</time>
      </trkpt>
      <trkpt lat="40.459533" lon="-5.295133">
        <ele>2378.0</ele>
        <time>2015-07-25T13:12:11Z</time>
      </trkpt>
      <trkpt lat="40.459617" lon="-5.295183">
        <ele>2376.0</ele>
        <time>2015-07-25T13:12:12Z</time>
      </trkpt>
      <trkpt lat="40.459700" lon="-5.295233">
        <ele>2376.0</ele>
        <time>2015-07-25T13:12:13Z</time>
      </trkpt>
      <trkpt lat="40.459783" lon="-5.295300">
        <ele>2376.0</ele>
        <time>2015-07-25T13:12:14Z</time>
      </trkpt>
      <trkpt lat="40.459867" lon="-5.295350">
        <ele>2377.0</ele>
        <time>2015-07-25T13:12:15Z</time>
      </trkpt>
      <trkpt lat="40.459933" lon="-5.295417">
        <ele>2377.0</ele>
        <time>2015-07-25T13:12:16Z</time>
      </trkpt>
      <trkpt lat="40.460017" lon="-5.295467">
        <ele>2377.0</ele>
        <time>2015-07-25T13:12:17Z</time>
      </trkpt>
      <trkpt lat="40.460100" lon="-5.295517">
        <ele>2376.0</ele>
        <time>2015-07-25T13:12:18Z</time>
      </trkpt>
      <trkpt lat="40.460183" lon="-5.295583">
        <ele>2376.0</ele>
        <time>2015-07-25T13:12:19Z</time>
      </trkpt>
      <trkpt lat="40.460250" lon="-5.295650">
        <ele>2376.0</ele>
        <time>2015-07-25T13:12:20Z</time>
      </trkpt>
      <trkpt lat="40.460333" lon="-5.295717">
        <ele>2376.0</ele>
        <time>2015-07-25T13:12:21Z</time>
      </trkpt>
      <trkpt lat="40.460400" lon="-5.295800">
        <ele>2377.0</ele>
        <time>2015-07-25T13:12:22Z</time>
      </trkpt>
      <trkpt lat="40.460467" lon="-5.295867">
        <ele>2378.0</ele>
        <time>2015-07-25T13:12:23Z</time>
      </trkpt>
      <trkpt lat="40.460533" lon="-5.295917">
        <ele>2379.0</ele>
        <time>2015-07-25T13:12:24Z</time>
      </trkpt>
      <trkpt lat="40.460600" lon="-5.295967">
        <ele>2379.0</ele>
        <time>2015-07-25T13:12:25Z</time>
      </trkpt>
      <trkpt lat="40.460667" lon="-5.296033">
        <ele>2379.0</ele>
        <time>2015-07-25T13:12:26Z</time>
      </trkpt>
      <trkpt lat="40.460733" lon="-5.296083">
        <ele>2379.0</ele>
        <time>2015-07-25T13:12:27Z</time>
      </trkpt>
      <trkpt lat="40.460800" lon="-5.296167">
        <ele>2378.0</ele>
        <time>2015-07-25T13:12:28Z</time>
      </trkpt>
      <trkpt lat="40.460867" lon="-5.296233">
        <ele>2378.0</ele>
        <time>2015-07-25T13:12:29Z</time>
      </trkpt>
      <trkpt lat="40.460950" lon="-5.296300">
        <ele>2378.0</ele>
        <time>2015-07-25T13:12:30Z</time>
      </trkpt>
      <trkpt lat="40.461017" lon="-5.296383">
        <ele>2378.0</ele>
        <time>2015-07-25T13:12:31Z</time>
      </trkpt>
      <trkpt lat="40.461083" lon="-5.296450">
        <ele>2379.0</ele>
        <time>2015-07-25T13:12:32Z</time>
      </trkpt>
      <trkpt lat="40.461167" lon="-5.296533">
        <ele>2379.0</ele>
        <time>2015-07-25T13:12:33Z</time>
      </trkpt>
      <trkpt lat="40.461233" lon="-5.296600">
        <ele>2379.0</ele>
        <time>2015-07-25T13:12:34Z</time>
      </trkpt>
      <trkpt lat="40.461300" lon="-5.296683">
        <ele>2379.0</ele>
        <time>2015-07-25T13:12:35Z</time>
      </trkpt>
      <trkpt lat="40.461383" lon="-5.296733">
        <ele>2379.0</ele>
        <time>2015-07-25T13:12:36Z</time>
      </trkpt>
      <trkpt lat="40.461467" lon="-5.296800">
        <ele>2378.0</ele>
        <time>2015-07-25T13:12:37Z</time>
      </trkpt>
      <trkpt lat="40.461550" lon="-5.296850">
        <ele>2379.0</ele>
        <time>2015-07-25T13:12:38Z</time>
      </trkpt>
      <trkpt lat="40.461633" lon="-5.296917">
        <ele>2379.0</ele>
        <time>2015-07-25T13:12:39Z</time>
      </trkpt>
      <trkpt lat="40.461717" lon="-5.296967">
        <ele>2379.0</ele>
        <time>2015-07-25T13:12:40Z</time>
      </trkpt>
      <trkpt lat="40.461800" lon="-5.297017">
        <ele>2379.0</ele>
        <time>2015-07-25T13:12:41Z</time>
      </trkpt>
      <trkpt lat="40.461883" lon="-5.297067">
        <ele>2379.0</ele>
        <time>2015-07-25T13:12:42Z</time>
      </trkpt>
      <trkpt lat="40.461967" lon="-5.297133">
        <ele>2378.0</ele>
        <time>2015-07-25T13:12:43Z</time>
      </trkpt>
      <trkpt lat="40.462067" lon="-5.297183">
        <ele>2377.0</ele>
        <time>2015-07-25T13:12:44Z</time>
      </trkpt>
      <trkpt lat="40.462150" lon="-5.297233">
        <ele>2376.0</ele>
        <time>2015-07-25T13:12:45Z</time>
      </trkpt>
      <trkpt lat="40.462233" lon="-5.297283">
        <ele>2376.0</ele>
        <time>2015-07-25T13:12:46Z</time>
      </trkpt>
      <trkpt lat="40.462317" lon="-5.297333">
        <ele>2376.0</ele>
        <time>2015-07-25T13:12:47Z</time>
      </trkpt>
      <trkpt lat="40.462400" lon="-5.297383">
        <ele>2376.0</ele>
        <time>2015-07-25T13:12:48Z</time>
      </trkpt>
      <trkpt lat="40.462483" lon="-5.297433">
        <ele>2374.0</ele>
        <time>2015-07-25T13:12:49Z</time>
      </trkpt>
      <trkpt lat="40.462567" lon="-5.297483">
        <ele>2372.0</ele>
        <time>2015-07-25T13:12:50Z</time>
      </trkpt>
      <trkpt lat="40.462667" lon="-5.297550">
        <ele>2371.0</ele>
        <time>2015-07-25T13:12:51Z</time>
      </trkpt>
      <trkpt lat="40.462767" lon="-5.297600">
        <ele>2370.0</ele>
        <time>2015-07-25T13:12:52Z</time>
      </trkpt>
      <trkpt lat="40.462850" lon="-5.297650">
        <ele>2370.0</ele>
        <time>2015-07-25T13:12:53Z</time>
      </trkpt>
      <trkpt lat="40.462933" lon="-5.297700">
        <ele>2371.0</ele>
        <time>2015-07-25T13:12:54Z</time>
      </trkpt>
      <trkpt lat="40.463017" lon="-5.297733">
        <ele>2371.0</ele>
        <time>2015-07-25T13:12:55Z</time>
      </trkpt>
      <trkpt lat="40.463100" lon="-5.297783">
        <ele>2371.0</ele>
        <time>2015-07-25T13:12:56Z</time>
      </trkpt>
      <trkpt lat="40.463183" lon="-5.297817">
        <ele>2369.0</ele>
        <time>2015-07-25T13:12:57Z</time>
      </trkpt>
      <trkpt lat="40.463283" lon="-5.297867">
        <ele>2368.0</ele>
        <time>2015-07-25T13:12:58Z</time>
      </trkpt>
      <trkpt lat="40.463383" lon="-5.297900">
        <ele>2368.0</ele>
        <time>2015-07-25T13:12:59Z</time>
      </trkpt>
      <trkpt lat="40.463467" lon="-5.297933">
        <ele>2368.0</ele>
        <time>2015-07-25T13:13:00Z</time>
      </trkpt>
      <trkpt lat="40.463567" lon="-5.297967">
        <ele>2368.0</ele>
        <time>2015-07-25T13:13:01Z</time>
      </trkpt>
      <trkpt lat="40.463667" lon="-5.298017">
        <ele>2368.0</ele>
        <time>2015-07-25T13:13:02Z</time>
      </trkpt>
      <trkpt lat="40.463733" lon="-5.298083">
        <ele>2368.0</ele>
        <time>2015-07-25T13:13:03Z</time>
      </trkpt>
      <trkpt lat="40.463817" lon="-5.298150">
        <ele>2367.0</ele>
        <time>2015-07-25T13:13:04Z</time>
      </trkpt>
      <trkpt lat="40.463900" lon="-5.298233">
        <ele>2366.0</ele>
        <time>2015-07-25T13:13:05Z</time>
      </trkpt>
      <trkpt lat="40.463983" lon="-5.298300">
        <ele>2365.0</ele>
        <time>2015-07-25T13:13:06Z</time>
      </trkpt>
      <trkpt lat="40.464067" lon="-5.298367">
        <ele>2363.0</ele>
        <time>2015-07-25T13:13:07Z</time>
      </trkpt>
      <trkpt lat="40.464150" lon="-5.298417">
        <ele>2362.0</ele>
        <time>2015-07-25T13:13:08Z</time>
      </trkpt>
      <trkpt lat="40.464233" lon="-5.298483">
        <ele>2361.0</ele>
        <time>2015-07-25T13:13:09Z</time>
      </trkpt>
      <trkpt lat="40.464333" lon="-5.298550">
        <ele>2360.0</ele>
        <time>2015-07-25T13:13:10Z</time>
      </trkpt>
      <trkpt lat="40.464417" lon="-5.298600">
        <ele>2359.0</ele>
        <time>2015-07-25T13:13:11Z</time>
      </trkpt>
      <trkpt lat="40.464500" lon="-5.298667">
        <ele>2360.0</ele>
        <time>2015-07-25T13:13:12Z</time>
      </trkpt>
      <trkpt lat="40.464583" lon="-5.298717">
        <ele>2360.0</ele>
        <time>2015-07-25T13:13:13Z</time>
      </trkpt>
      <trkpt lat="40.464650" lon="-5.298783">
        <ele>2360.0</ele>
        <time>2015-07-25T13:13:14Z</time>
      </trkpt>
      <trkpt lat="40.464733" lon="-5.298833">
        <ele>2360.0</ele>
        <time>2015-07-25T13:13:15Z</time>
      </trkpt>
      <trkpt lat="40.464817" lon="-5.298883">
        <ele>2360.0</ele>
        <time>2015-07-25T13:13:16Z</time>
      </trkpt>
      <trkpt lat="40.464900" lon="-5.298950">
        <ele>2360.0</ele>
        <time>2015-07-25T13:13:17Z</time>
      </trkpt>
      <trkpt lat="40.464967" lon="-5.299000">
        <ele>2360.0</ele>
        <time>2015-07-25T13:13:18Z</time>
      </trkpt>
      <trkpt lat="40.465017" lon="-5.299067">
        <ele>2358.0</ele>
        <time>2015-07-25T13:13:19Z</time>
      </trkpt>
      <trkpt lat="40.465067" lon="-5.299150">
        <ele>2356.0</ele>
        <time>2015-07-25T13:13:20Z</time>
      </trkpt>
      <trkpt lat="40.465100" lon="-5.299267">
        <ele>2353.0</ele>
        <time>2015-07-25T13:13:21Z</time>
      </trkpt>
      <trkpt lat="40.465117" lon="-5.299383">
        <ele>2351.0</ele>
        <time>2015-07-25T13:13:22Z</time>
      </trkpt>
      <trkpt lat="40.465117" lon="-5.299517">
        <ele>2349.0</ele>
        <time>2015-07-25T13:13:23Z</time>
      </trkpt>
      <trkpt lat="40.465083" lon="-5.299633">
        <ele>2347.0</ele>
        <time>2015-07-25T13:13:24Z</time>
      </trkpt>
      <trkpt lat="40.465033" lon="-5.299750">
        <ele>2345.0</ele>
        <time>2015-07-25T13:13:25Z</time>
      </trkpt>
      <trkpt lat="40.464950" lon="-5.299850">
        <ele>2343.0</ele>
        <time>2015-07-25T13:13:26Z</time>
      </trkpt>
      <trkpt lat="40.464850" lon="-5.299917">
        <ele>2342.0</ele>
        <time>2015-07-25T13:13:27Z</time>
      </trkpt>
      <trkpt lat="40.464733" lon="-5.299950">
        <ele>2341.0</ele>
        <time>2015-07-25T13:13:28Z</time>
      </trkpt>
      <trkpt lat="40.464633" lon="-5.299967">
        <ele>2341.0</ele>
        <time>2015-07-25T13:13:29Z</time>
      </trkpt>
      <trkpt lat="40.464533" lon="-5.299967">
        <ele>2341.0</ele>
        <time>2015-07-25T13:13:30Z</time>
      </trkpt>
      <trkpt lat="40.464433" lon="-5.299950">
        <ele>2340.0</ele>
        <time>2015-07-25T13:13:31Z</time>
      </trkpt>
      <trkpt lat="40.464317" lon="-5.299933">
        <ele>2339.0</ele>
        <time>2015-07-25T13:13:32Z</time>
      </trkpt>
      <trkpt lat="40.464217" lon="-5.299900">
        <ele>2337.0</ele>
        <time>2015-07-25T13:13:33Z</time>
      </trkpt>
      <trkpt lat="40.464100" lon="-5.299867">
        <ele>2336.0</ele>
        <time>2015-07-25T13:13:34Z</time>
      </trkpt>
      <trkpt lat="40.463983" lon="-5.299850">
        <ele>2334.0</ele>
        <time>2015-07-25T13:13:35Z</time>
      </trkpt>
      <trkpt lat="40.463850" lon="-5.299833">
        <ele>2334.0</ele>
        <time>2015-07-25T13:13:36Z</time>
      </trkpt>
      <trkpt lat="40.463733" lon="-5.299817">
        <ele>2333.0</ele>
        <time>2015-07-25T13:13:37Z</time>
      </trkpt>
      <trkpt lat="40.463617" lon="-5.299800">
        <ele>2333.0</ele>
        <time>2015-07-25T13:13:38Z</time>
      </trkpt>
      <trkpt lat="40.463517" lon="-5.299767">
        <ele>2332.0</ele>
        <time>2015-07-25T13:13:39Z</time>
      </trkpt>
      <trkpt lat="40.463400" lon="-5.299733">
        <ele>2331.0</ele>
        <time>2015-07-25T13:13:40Z</time>
      </trkpt>
      <trkpt lat="40.463300" lon="-5.299717">
        <ele>2330.0</ele>
        <time>2015-07-25T13:13:41Z</time>
      </trkpt>
      <trkpt lat="40.463183" lon="-5.299683">
        <ele>2328.0</ele>
        <time>2015-07-25T13:13:42Z</time>
      </trkpt>
      <trkpt lat="40.463083" lon="-5.299650">
        <ele>2327.0</ele>
        <time>2015-07-25T13:13:43Z</time>
      </trkpt>
      <trkpt lat="40.462967" lon="-5.299617">
        <ele>2326.0</ele>
        <time>2015-07-25T13:13:44Z</time>
      </trkpt>
      <trkpt lat="40.462867" lon="-5.299583">
        <ele>2325.0</ele>
        <time>2015-07-25T13:13:45Z</time>
      </trkpt>
      <trkpt lat="40.462767" lon="-5.299567">
        <ele>2323.0</ele>
        <time>2015-07-25T13:13:46Z</time>
      </trkpt>
      <trkpt lat="40.462650" lon="-5.299550">
        <ele>2321.0</ele>
        <time>2015-07-25T13:13:47Z</time>
      </trkpt>
      <trkpt lat="40.462533" lon="-5.299550">
        <ele>2319.0</ele>
        <time>2015-07-25T13:13:48Z</time>
      </trkpt>
      <trkpt lat="40.462417" lon="-5.299567">
        <ele>2318.0</ele>
        <time>2015-07-25T13:13:49Z</time>
      </trkpt>
      <trkpt lat="40.462317" lon="-5.299567">
        <ele>2319.0</ele>
        <time>2015-07-25T13:13:50Z</time>
      </trkpt>
      <trkpt lat="40.462217" lon="-5.299583">
        <ele>2319.0</ele>
        <time>2015-07-25T13:13:51Z</time>
      </trkpt>
      <trkpt lat="40.462133" lon="-5.299617">
        <ele>2318.0</ele>
        <time>2015-07-25T13:13:52Z</time>
      </trkpt>
      <trkpt lat="40.462050" lon="-5.299633">
        <ele>2316.0</ele>
        <time>2015-07-25T13:13:53Z</time>
      </trkpt>
      <trkpt lat="40.461950" lon="-5.299667">
        <ele>2314.0</ele>
        <time>2015-07-25T13:13:54Z</time>
      </trkpt>
      <trkpt lat="40.461833" lon="-5.299667">
        <ele>2311.0</ele>
        <time>2015-07-25T13:13:55Z</time>
      </trkpt>
      <trkpt lat="40.461733" lon="-5.299667">
        <ele>2309.0</ele>
        <time>2015-07-25T13:13:56Z</time>
      </trkpt>
      <trkpt lat="40.461617" lon="-5.299667">
        <ele>2307.0</ele>
        <time>2015-07-25T13:13:57Z</time>
      </trkpt>
      <trkpt lat="40.461517" lon="-5.299683">
        <ele>2305.0</ele>
        <time>2015-07-25T13:13:58Z</time>
      </trkpt>
      <trkpt lat="40.461400" lon="-5.299700">
        <ele>2303.0</ele>
        <time>2015-07-25T13:13:59Z</time>
      </trkpt>
      <trkpt lat="40.461283" lon="-5.299733">
        <ele>2302.0</ele>
        <time>2015-07-25T13:14:00Z</time>
      </trkpt>
      <trkpt lat="40.461183" lon="-5.299767">
        <ele>2302.0</ele>
        <time>2015-07-25T13:14:01Z</time>
      </trkpt>
      <trkpt lat="40.461083" lon="-5.299800">
        <ele>2302.0</ele>
        <time>2015-07-25T13:14:02Z</time>
      </trkpt>
      <trkpt lat="40.460983" lon="-5.299817">
        <ele>2301.0</ele>
        <time>2015-07-25T13:14:03Z</time>
      </trkpt>
      <trkpt lat="40.460883" lon="-5.299833">
        <ele>2299.0</ele>
        <time>2015-07-25T13:14:04Z</time>
      </trkpt>
      <trkpt lat="40.460767" lon="-5.299833">
        <ele>2297.0</ele>
        <time>2015-07-25T13:14:05Z</time>
      </trkpt>
      <trkpt lat="40.460650" lon="-5.299833">
        <ele>2295.0</ele>
        <time>2015-07-25T13:14:06Z</time>
      </trkpt>
      <trkpt lat="40.460533" lon="-5.299833">
        <ele>2294.0</ele>
        <time>2015-07-25T13:14:07Z</time>
      </trkpt>
      <trkpt lat="40.460433" lon="-5.299833">
        <ele>2293.0</ele>
        <time>2015-07-25T13:14:08Z</time>
      </trkpt>
      <trkpt lat="40.460317" lon="-5.299833">
        <ele>2293.0</ele>
        <time>2015-07-25T13:14:09Z</time>
      </trkpt>
      <trkpt lat="40.460217" lon="-5.299850">
        <ele>2292.0</ele>
        <time>2015-07-25T13:14:10Z</time>
      </trkpt>
      <trkpt lat="40.460100" lon="-5.299867">
        <ele>2290.0</ele>
        <time>2015-07-25T13:14:11Z</time>
      </trkpt>
      <trkpt lat="40.459983" lon="-5.299900">
        <ele>2288.0</ele>
        <time>2015-07-25T13:14:12Z</time>
      </trkpt>
      <trkpt lat="40.459850" lon="-5.299950">
        <ele>2286.0</ele>
        <time>2015-07-25T13:14:13Z</time>
      </trkpt>
      <trkpt lat="40.459733" lon="-5.300000">
        <ele>2285.0</ele>
        <time>2015-07-25T13:14:14Z</time>
      </trkpt>
      <trkpt lat="40.459617" lon="-5.300050">
        <ele>2286.0</ele>
        <time>2015-07-25T13:14:15Z</time>
      </trkpt>
      <trkpt lat="40.459517" lon="-5.300083">
        <ele>2287.0</ele>
        <time>2015-07-25T13:14:16Z</time>
      </trkpt>
      <trkpt lat="40.459433" lon="-5.300133">
        <ele>2286.0</ele>
        <time>2015-07-25T13:14:17Z</time>
      </trkpt>
      <trkpt lat="40.459333" lon="-5.300167">
        <ele>2284.0</ele>
        <time>2015-07-25T13:14:18Z</time>
      </trkpt>
      <trkpt lat="40.459250" lon="-5.300217">
        <ele>2281.0</ele>
        <time>2015-07-25T13:14:19Z</time>
      </trkpt>
      <trkpt lat="40.459133" lon="-5.300267">
        <ele>2278.0</ele>
        <time>2015-07-25T13:14:20Z</time>
      </trkpt>
      <trkpt lat="40.459017" lon="-5.300317">
        <ele>2276.0</ele>
        <time>2015-07-25T13:14:21Z</time>
      </trkpt>
      <trkpt lat="40.458883" lon="-5.300367">
        <ele>2275.0</ele>
        <time>2015-07-25T13:14:22Z</time>
      </trkpt>
      <trkpt lat="40.458750" lon="-5.300400">
        <ele>2275.0</ele>
        <time>2015-07-25T13:14:23Z</time>
      </trkpt>
      <trkpt lat="40.458633" lon="-5.300433">
        <ele>2276.0</ele>
        <time>2015-07-25T13:14:24Z</time>
      </trkpt>
      <trkpt lat="40.458517" lon="-5.300467">
        <ele>2276.0</ele>
        <time>2015-07-25T13:14:25Z</time>
      </trkpt>
      <trkpt lat="40.458417" lon="-5.300517">
        <ele>2275.0</ele>
        <time>2015-07-25T13:14:26Z</time>
      </trkpt>
      <trkpt lat="40.458300" lon="-5.300567">
        <ele>2273.0</ele>
        <time>2015-07-25T13:14:27Z</time>
      </trkpt>
      <trkpt lat="40.458167" lon="-5.300617">
        <ele>2271.0</ele>
        <time>2015-07-25T13:14:28Z</time>
      </trkpt>
      <trkpt lat="40.458033" lon="-5.300633">
        <ele>2269.0</ele>
        <time>2015-07-25T13:14:29Z</time>
      </trkpt>
      <trkpt lat="40.457900" lon="-5.300650">
        <ele>2269.0</ele>
        <time>2015-07-25T13:14:30Z</time>
      </trkpt>
      <trkpt lat="40.457767" lon="-5.300683">
        <ele>2268.0</ele>
        <time>2015-07-25T13:14:31Z</time>
      </trkpt>
      <trkpt lat="40.457650" lon="-5.300733">
        <ele>2268.0</ele>
        <time>2015-07-25T13:14:32Z</time>
      </trkpt>
      <trkpt lat="40.457517" lon="-5.300783">
        <ele>2267.0</ele>
        <time>2015-07-25T13:14:33Z</time>
      </trkpt>
      <trkpt lat="40.457400" lon="-5.300833">
        <ele>2266.0</ele>
        <time>2015-07-25T13:14:34Z</time>
      </trkpt>
      <trkpt lat="40.457283" lon="-5.300883">
        <ele>2264.0</ele>
        <time>2015-07-25T13:14:35Z</time>
      </trkpt>
      <trkpt lat="40.457150" lon="-5.300933">
        <ele>2263.0</ele>
        <time>2015-07-25T13:14:36Z</time>
      </trkpt>
      <trkpt lat="40.457000" lon="-5.300967">
        <ele>2261.0</ele>
        <time>2015-07-25T13:14:37Z</time>
      </trkpt>
      <trkpt lat="40.456867" lon="-5.301017">
        <ele>2262.0</ele>
        <time>2015-07-25T13:14:38Z</time>
      </trkpt>
      <trkpt lat="40.456733" lon="-5.301067">
        <ele>2263.0</ele>
        <time>2015-07-25T13:14:39Z</time>
      </trkpt>
      <trkpt lat="40.456617" lon="-5.301100">
        <ele>2264.0</ele>
        <time>2015-07-25T13:14:40Z</time>
      </trkpt>
      <trkpt lat="40.456500" lon="-5.301150">
        <ele>2264.0</ele>
        <time>2015-07-25T13:14:41Z</time>
      </trkpt>
      <trkpt lat="40.456383" lon="-5.301183">
        <ele>2263.0</ele>
        <time>2015-07-25T13:14:42Z</time>
      </trkpt>
      <trkpt lat="40.456267" lon="-5.301233">
        <ele>2262.0</ele>
        <time>2015-07-25T13:14:43Z</time>
      </trkpt>
      <trkpt lat="40.456133" lon="-5.301267">
        <ele>2261.0</ele>
        <time>2015-07-25T13:14:44Z</time>
      </trkpt>
      <trkpt lat="40.456017" lon="-5.301317">
        <ele>2261.0</ele>
        <time>2015-07-25T13:14:45Z</time>
      </trkpt>
      <trkpt lat="40.455883" lon="-5.301350">
        <ele>2261.0</ele>
        <time>2015-07-25T13:14:46Z</time>
      </trkpt>
      <trkpt lat="40.455767" lon="-5.301383">
        <ele>2261.0</ele>
        <time>2015-07-25T13:14:47Z</time>
      </trkpt>
      <trkpt lat="40.455633" lon="-5.301400">
        <ele>2261.0</ele>
        <time>2015-07-25T13:14:48Z</time>
      </trkpt>
      <trkpt lat="40.455517" lon="-5.301417">
        <ele>2261.0</ele>
        <time>2015-07-25T13:14:49Z</time>
      </trkpt>
      <trkpt lat="40.455383" lon="-5.301433">
        <ele>2260.0</ele>
        <time>2015-07-25T13:14:50Z</time>
      </trkpt>
      <trkpt lat="40.455250" lon="-5.301433">
        <ele>2259.0</ele>
        <time>2015-07-25T13:14:51Z</time>
      </trkpt>
      <trkpt lat="40.455117" lon="-5.301450">
        <ele>2259.0</ele>
        <time>2015-07-25T13:14:52Z</time>
      </trkpt>
      <trkpt lat="40.455000" lon="-5.301450">
        <ele>2259.0</ele>
        <time>2015-07-25T13:14:53Z</time>
      </trkpt>
      <trkpt lat="40.454883" lon="-5.301450">
        <ele>2258.0</ele>
        <time>2015-07-25T13:14:54Z</time>
      </trkpt>
      <trkpt lat="40.454767" lon="-5.301483">
        <ele>2258.0</ele>
        <time>2015-07-25T13:14:55Z</time>
      </trkpt>
      <trkpt lat="40.454650" lon="-5.301517">
        <ele>2256.0</ele>
        <time>2015-07-25T13:14:56Z</time>
      </trkpt>
      <trkpt lat="40.454533" lon="-5.301567">
        <ele>2256.0</ele>
        <time>2015-07-25T13:14:57Z</time>
      </trkpt>
      <trkpt lat="40.454417" lon="-5.301600">
        <ele>2256.0</ele>
        <time>2015-07-25T13:14:58Z</time>
      </trkpt>
      <trkpt lat="40.454300" lon="-5.301617">
        <ele>2256.0</ele>
        <time>2015-07-25T13:14:59Z</time>
      </trkpt>
      <trkpt lat="40.454200" lon="-5.301633">
        <ele>2256.0</ele>
        <time>2015-07-25T13:15:00Z</time>
      </trkpt>
      <trkpt lat="40.454100" lon="-5.301650">
        <ele>2256.0</ele>
        <time>2015-07-25T13:15:01Z</time>
      </trkpt>
      <trkpt lat="40.454000" lon="-5.301683">
        <ele>2255.0</ele>
        <time>2015-07-25T13:15:02Z</time>
      </trkpt>
      <trkpt lat="40.453900" lon="-5.301733">
        <ele>2252.0</ele>
        <time>2015-07-25T13:15:03Z</time>
      </trkpt>
      <trkpt lat="40.453800" lon="-5.301783">
        <ele>2250.0</ele>
        <time>2015-07-25T13:15:04Z</time>
      </trkpt>
      <trkpt lat="40.453683" lon="-5.301833">
        <ele>2248.0</ele>
        <time>2015-07-25T13:15:05Z</time>
      </trkpt>
      <trkpt lat="40.453583" lon="-5.301883">
        <ele>2247.0</ele>
        <time>2015-07-25T13:15:06Z</time>
      </trkpt>
      <trkpt lat="40.453467" lon="-5.301933">
        <ele>2246.0</ele>
        <time>2015-07-25T13:15:07Z</time>
      </trkpt>
      <trkpt lat="40.453350" lon="-5.302000">
        <ele>2245.0</ele>
        <time>2015-07-25T13:15:08Z</time>
      </trkpt>
      <trkpt lat="40.453250" lon="-5.302067">
        <ele>2244.0</ele>
        <time>2015-07-25T13:15:09Z</time>
      </trkpt>
      <trkpt lat="40.453150" lon="-5.302117">
        <ele>2243.0</ele>
        <time>2015-07-25T13:15:10Z</time>
      </trkpt>
      <trkpt lat="40.453050" lon="-5.302167">
        <ele>2241.0</ele>
        <time>2015-07-25T13:15:11Z</time>
      </trkpt>
      <trkpt lat="40.452933" lon="-5.302217">
        <ele>2239.0</ele>
        <time>2015-07-25T13:15:12Z</time>
      </trkpt>
      <trkpt lat="40.452833" lon="-5.302250">
        <ele>2236.0</ele>
        <time>2015-07-25T13:15:13Z</time>
      </trkpt>
      <trkpt lat="40.452717" lon="-5.302267">
        <ele>2234.0</ele>
        <time>2015-07-25T13:15:14Z</time>
      </trkpt>
      <trkpt lat="40.452617" lon="-5.302300">
        <ele>2231.0</ele>
        <time>2015-07-25T13:15:15Z</time>
      </trkpt>
      <trkpt lat="40.452500" lon="-5.302333">
        <ele>2228.0</ele>
        <time>2015-07-25T13:15:16Z</time>
      </trkpt>
      <trkpt lat="40.452383" lon="-5.302350">
        <ele>2224.0</ele>
        <time>2015-07-25T13:15:17Z</time>
      </trkpt>
      <trkpt lat="40.452250" lon="-5.302383">
        <ele>2222.0</ele>
        <time>2015-07-25T13:15:18Z</time>
      </trkpt>
      <trkpt lat="40.452150" lon="-5.302417">
        <ele>2219.0</ele>
        <time>2015-07-25T13:15:19Z</time>
      </trkpt>
      <trkpt lat="40.452033" lon="-5.302433">
        <ele>2217.0</ele>
        <time>2015-07-25T13:15:20Z</time>
      </trkpt>
      <trkpt lat="40.451917" lon="-5.302467">
        <ele>2213.0</ele>
        <time>2015-07-25T13:15:21Z</time>
      </trkpt>
      <trkpt lat="40.451800" lon="-5.302500">
        <ele>2210.0</ele>
        <time>2015-07-25T13:15:22Z</time>
      </trkpt>
      <trkpt lat="40.451683" lon="-5.302533">
        <ele>2207.0</ele>
        <time>2015-07-25T13:15:23Z</time>
      </trkpt>
      <trkpt lat="40.451567" lon="-5.302567">
        <ele>2205.0</ele>
        <time>2015-07-25T13:15:24Z</time>
      </trkpt>
      <trkpt lat="40.451433" lon="-5.302600">
        <ele>2203.0</ele>
        <time>2015-07-25T13:15:25Z</time>
      </trkpt>
      <trkpt lat="40.451317" lon="-5.302617">
        <ele>2201.0</ele>
        <time>2015-07-25T13:15:26Z</time>
      </trkpt>
      <trkpt lat="40.451200" lon="-5.302633">
        <ele>2200.0</ele>
        <time>2015-07-25T13:15:27Z</time>
      </trkpt>
      <trkpt lat="40.451083" lon="-5.302650">
        <ele>2197.0</ele>
        <time>2015-07-25T13:15:28Z</time>
      </trkpt>
      <trkpt lat="40.450967" lon="-5.302667">
        <ele>2193.0</ele>
        <time>2015-07-25T13:15:29Z</time>
      </trkpt>
      <trkpt lat="40.450833" lon="-5.302683">
        <ele>2189.0</ele>
        <time>2015-07-25T13:15:30Z</time>
      </trkpt>
      <trkpt lat="40.450683" lon="-5.302717">
        <ele>2186.0</ele>
        <time>2015-07-25T13:15:31Z</time>
      </trkpt>
      <trkpt lat="40.450550" lon="-5.302750">
        <ele>2186.0</ele>
        <time>2015-07-25T13:15:32Z</time>
      </trkpt>
      <trkpt lat="40.450417" lon="-5.302767">
        <ele>2186.0</ele>
        <time>2015-07-25T13:15:33Z</time>
      </trkpt>
      <trkpt lat="40.450283" lon="-5.302767">
        <ele>2186.0</ele>
        <time>2015-07-25T13:15:34Z</time>
      </trkpt>
      <trkpt lat="40.450167" lon="-5.302783">
        <ele>2186.0</ele>
        <time>2015-07-25T13:15:35Z</time>
      </trkpt>
      <trkpt lat="40.450050" lon="-5.302783">
        <ele>2185.0</ele>
        <time>2015-07-25T13:15:36Z</time>
      </trkpt>
      <trkpt lat="40.449917" lon="-5.302800">
        <ele>2184.0</ele>
        <time>2015-07-25T13:15:37Z</time>
      </trkpt>
      <trkpt lat="40.449767" lon="-5.302817">
        <ele>2183.0</ele>
        <time>2015-07-25T13:15:38Z</time>
      </trkpt>
      <trkpt lat="40.449633" lon="-5.302833">
        <ele>2183.0</ele>
        <time>2015-07-25T13:15:39Z</time>
      </trkpt>
      <trkpt lat="40.449500" lon="-5.302850">
        <ele>2183.0</ele>
        <time>2015-07-25T13:15:40Z</time>
      </trkpt>
      <trkpt lat="40.449383" lon="-5.302867">
        <ele>2183.0</ele>
        <time>2015-07-25T13:15:41Z</time>
      </trkpt>
      <trkpt lat="40.449267" lon="-5.302900">
        <ele>2183.0</ele>
        <time>2015-07-25T13:15:42Z</time>
      </trkpt>
      <trkpt lat="40.449150" lon="-5.302917">
        <ele>2181.0</ele>
        <time>2015-07-25T13:15:43Z</time>
      </trkpt>
      <trkpt lat="40.449033" lon="-5.302933">
        <ele>2178.0</ele>
        <time>2015-07-25T13:15:44Z</time>
      </trkpt>
      <trkpt lat="40.448900" lon="-5.302933">
        <ele>2175.0</ele>
        <time>2015-07-25T13:15:45Z</time>
      </trkpt>
      <trkpt lat="40.448750" lon="-5.302933">
        <ele>2173.0</ele>
        <time>2015-07-25T13:15:46Z</time>
      </trkpt>
      <trkpt lat="40.448617" lon="-5.302933">
        <ele>2172.0</ele>
        <time>2015-07-25T13:15:47Z</time>
      </trkpt>
      <trkpt lat="40.448467" lon="-5.302950">
        <ele>2173.0</ele>
        <time>2015-07-25T13:15:48Z</time>
      </trkpt>
      <trkpt lat="40.448350" lon="-5.302967">
        <ele>2174.0</ele>
        <time>2015-07-25T13:15:49Z</time>
      </trkpt>
      <trkpt lat="40.448217" lon="-5.303000">
        <ele>2174.0</ele>
        <time>2015-07-25T13:15:50Z</time>
      </trkpt>
      <trkpt lat="40.448100" lon="-5.303033">
        <ele>2174.0</ele>
        <time>2015-07-25T13:15:51Z</time>
      </trkpt>
      <trkpt lat="40.447967" lon="-5.303033">
        <ele>2174.0</ele>
        <time>2015-07-25T13:15:52Z</time>
      </trkpt>
      <trkpt lat="40.447850" lon="-5.303050">
        <ele>2174.0</ele>
        <time>2015-07-25T13:15:53Z</time>
      </trkpt>
      <trkpt lat="40.447733" lon="-5.303067">
        <ele>2173.0</ele>
        <time>2015-07-25T13:15:54Z</time>
      </trkpt>
      <trkpt lat="40.447633" lon="-5.303083">
        <ele>2173.0</ele>
        <time>2015-07-25T13:15:55Z</time>
      </trkpt>
      <trkpt lat="40.447533" lon="-5.303100">
        <ele>2171.0</ele>
        <time>2015-07-25T13:15:56Z</time>
      </trkpt>
      <trkpt lat="40.447417" lon="-5.303117">
        <ele>2169.0</ele>
        <time>2015-07-25T13:15:57Z</time>
      </trkpt>
      <trkpt lat="40.447317" lon="-5.303133">
        <ele>2166.0</ele>
        <time>2015-07-25T13:15:58Z</time>
      </trkpt>
      <trkpt lat="40.447183" lon="-5.303133">
        <ele>2163.0</ele>
        <time>2015-07-25T13:15:59Z</time>
      </trkpt>
      <trkpt lat="40.447067" lon="-5.303133">
        <ele>2161.0</ele>
        <time>2015-07-25T13:16:00Z</time>
      </trkpt>
      <trkpt lat="40.446950" lon="-5.303150">
        <ele>2159.0</ele>
        <time>2015-07-25T13:16:01Z</time>
      </trkpt>
      <trkpt lat="40.446833" lon="-5.303167">
        <ele>2158.0</ele>
        <time>2015-07-25T13:16:02Z</time>
      </trkpt>
      <trkpt lat="40.446717" lon="-5.303183">
        <ele>2156.0</ele>
        <time>2015-07-25T13:16:03Z</time>
      </trkpt>
      <trkpt lat="40.446600" lon="-5.303200">
        <ele>2154.0</ele>
        <time>2015-07-25T13:16:04Z</time>
      </trkpt>
      <trkpt lat="40.446483" lon="-5.303217">
        <ele>2152.0</ele>
        <time>2015-07-25T13:16:05Z</time>
      </trkpt>
      <trkpt lat="40.446367" lon="-5.303217">
        <ele>2150.0</ele>
        <time>2015-07-25T13:16:06Z</time>
      </trkpt>
      <trkpt lat="40.446233" lon="-5.303217">
        <ele>2148.0</ele>
        <time>2015-07-25T13:16:07Z</time>
      </trkpt>
      <trkpt lat="40.446117" lon="-5.303200">
        <ele>2146.0</ele>
        <time>2015-07-25T13:16:08Z</time>
      </trkpt>
      <trkpt lat="40.446000" lon="-5.303200">
        <ele>2144.0</ele>
        <time>2015-07-25T13:16:09Z</time>
      </trkpt>
      <trkpt lat="40.445883" lon="-5.303217">
        <ele>2143.0</ele>
        <time>2015-07-25T13:16:10Z</time>
      </trkpt>
      <trkpt lat="40.445767" lon="-5.303217">
        <ele>2142.0</ele>
        <time>2015-07-25T13:16:11Z</time>
      </trkpt>
      <trkpt lat="40.445667" lon="-5.303217">
        <ele>2141.0</ele>
        <time>2015-07-25T13:16:12Z</time>
      </trkpt>
      <trkpt lat="40.445567" lon="-5.303217">
        <ele>2139.0</ele>
        <time>2015-07-25T13:16:13Z</time>
      </trkpt>
      <trkpt lat="40.445467" lon="-5.303217">
        <ele>2137.0</ele>
        <time>2015-07-25T13:16:14Z</time>
      </trkpt>
      <trkpt lat="40.445367" lon="-5.303200">
        <ele>2135.0</ele>
        <time>2015-07-25T13:16:15Z</time>
      </trkpt>
      <trkpt lat="40.445250" lon="-5.303200">
        <ele>2132.0</ele>
        <time>2015-07-25T13:16:16Z</time>
      </trkpt>
      <trkpt lat="40.445133" lon="-5.303200">
        <ele>2130.0</ele>
        <time>2015-07-25T13:16:17Z</time>
      </trkpt>
      <trkpt lat="40.445017" lon="-5.303200">
        <ele>2129.0</ele>
        <time>2015-07-25T13:16:18Z</time>
      </trkpt>
      <trkpt lat="40.444900" lon="-5.303217">
        <ele>2129.0</ele>
        <time>2015-07-25T13:16:19Z</time>
      </trkpt>
      <trkpt lat="40.444783" lon="-5.303200">
        <ele>2128.0</ele>
        <time>2015-07-25T13:16:20Z</time>
      </trkpt>
      <trkpt lat="40.444683" lon="-5.303183">
        <ele>2127.0</ele>
        <time>2015-07-25T13:16:21Z</time>
      </trkpt>
      <trkpt lat="40.444583" lon="-5.303183">
        <ele>2126.0</ele>
        <time>2015-07-25T13:16:22Z</time>
      </trkpt>
      <trkpt lat="40.444467" lon="-5.303167">
        <ele>2125.0</ele>
        <time>2015-07-25T13:16:23Z</time>
      </trkpt>
      <trkpt lat="40.444367" lon="-5.303167">
        <ele>2123.0</ele>
        <time>2015-07-25T13:16:24Z</time>
      </trkpt>
      <trkpt lat="40.444250" lon="-5.303167">
        <ele>2122.0</ele>
        <time>2015-07-25T13:16:25Z</time>
      </trkpt>
      <trkpt lat="40.444133" lon="-5.303167">
        <ele>2120.0</ele>
        <time>2015-07-25T13:16:26Z</time>
      </trkpt>
      <trkpt lat="40.444017" lon="-5.303183">
        <ele>2118.0</ele>
        <time>2015-07-25T13:16:27Z</time>
      </trkpt>
      <trkpt lat="40.443900" lon="-5.303167">
        <ele>2115.0</ele>
        <time>2015-07-25T13:16:28Z</time>
      </trkpt>
      <trkpt lat="40.443800" lon="-5.303150">
        <ele>2112.0</ele>
        <time>2015-07-25T13:16:29Z</time>
      </trkpt>
      <trkpt lat="40.443683" lon="-5.303117">
        <ele>2110.0</ele>
        <time>2015-07-25T13:16:30Z</time>
      </trkpt>
      <trkpt lat="40.443583" lon="-5.303083">
        <ele>2107.0</ele>
        <time>2015-07-25T13:16:31Z</time>
      </trkpt>
      <trkpt lat="40.443467" lon="-5.303067">
        <ele>2104.0</ele>
        <time>2015-07-25T13:16:32Z</time>
      </trkpt>
      <trkpt lat="40.443350" lon="-5.303033">
        <ele>2101.0</ele>
        <time>2015-07-25T13:16:33Z</time>
      </trkpt>
      <trkpt lat="40.443217" lon="-5.302983">
        <ele>2099.0</ele>
        <time>2015-07-25T13:16:34Z</time>
      </trkpt>
      <trkpt lat="40.443100" lon="-5.302933">
        <ele>2098.0</ele>
        <time>2015-07-25T13:16:35Z</time>
      </trkpt>
      <trkpt lat="40.442983" lon="-5.302900">
        <ele>2098.0</ele>
        <time>2015-07-25T13:16:36Z</time>
      </trkpt>
      <trkpt lat="40.442883" lon="-5.302867">
        <ele>2098.0</ele>
        <time>2015-07-25T13:16:37Z</time>
      </trkpt>
      <trkpt lat="40.442767" lon="-5.302833">
        <ele>2096.0</ele>
        <time>2015-07-25T13:16:38Z</time>
      </trkpt>
      <trkpt lat="40.442650" lon="-5.302783">
        <ele>2094.0</ele>
        <time>2015-07-25T13:16:39Z</time>
      </trkpt>
      <trkpt lat="40.442533" lon="-5.302733">
        <ele>2091.0</ele>
        <time>2015-07-25T13:16:40Z</time>
      </trkpt>
      <trkpt lat="40.442400" lon="-5.302683">
        <ele>2089.0</ele>
        <time>2015-07-25T13:16:41Z</time>
      </trkpt>
      <trkpt lat="40.442267" lon="-5.302650">
        <ele>2088.0</ele>
        <time>2015-07-25T13:16:42Z</time>
      </trkpt>
      <trkpt lat="40.442133" lon="-5.302617">
        <ele>2088.0</ele>
        <time>2015-07-25T13:16:43Z</time>
      </trkpt>
      <trkpt lat="40.442017" lon="-5.302600">
        <ele>2088.0</ele>
        <time>2015-07-25T13:16:44Z</time>
      </trkpt>
      <trkpt lat="40.441900" lon="-5.302583">
        <ele>2087.0</ele>
        <time>2015-07-25T13:16:45Z</time>
      </trkpt>
      <trkpt lat="40.441783" lon="-5.302567">
        <ele>2086.0</ele>
        <time>2015-07-25T13:16:46Z</time>
      </trkpt>
      <trkpt lat="40.441650" lon="-5.302567">
        <ele>2084.0</ele>
        <time>2015-07-25T13:16:47Z</time>
      </trkpt>
      <trkpt lat="40.441533" lon="-5.302567">
        <ele>2083.0</ele>
        <time>2015-07-25T13:16:48Z</time>
      </trkpt>
      <trkpt lat="40.441400" lon="-5.302550">
        <ele>2082.0</ele>
        <time>2015-07-25T13:16:49Z</time>
      </trkpt>
      <trkpt lat="40.441283" lon="-5.302533">
        <ele>2082.0</ele>
        <time>2015-07-25T13:16:50Z</time>
      </trkpt>
      <trkpt lat="40.441167" lon="-5.302500">
        <ele>2081.0</ele>
        <time>2015-07-25T13:16:51Z</time>
      </trkpt>
      <trkpt lat="40.441050" lon="-5.302483">
        <ele>2080.0</ele>
        <time>2015-07-25T13:16:52Z</time>
      </trkpt>
      <trkpt lat="40.440933" lon="-5.302483">
        <ele>2080.0</ele>
        <time>2015-07-25T13:16:53Z</time>
      </trkpt>
      <trkpt lat="40.440800" lon="-5.302467">
        <ele>2078.0</ele>
        <time>2015-07-25T13:16:54Z</time>
      </trkpt>
      <trkpt lat="40.440683" lon="-5.302450">
        <ele>2076.0</ele>
        <time>2015-07-25T13:16:55Z</time>
      </trkpt>
      <trkpt lat="40.440567" lon="-5.302417">
        <ele>2074.0</ele>
        <time>2015-07-25T13:16:56Z</time>
      </trkpt>
      <trkpt lat="40.440433" lon="-5.302383">
        <ele>2072.0</ele>
        <time>2015-07-25T13:16:57Z</time>
      </trkpt>
      <trkpt lat="40.440317" lon="-5.302367">
        <ele>2071.0</ele>
        <time>2015-07-25T13:16:58Z</time>
      </trkpt>
      <trkpt lat="40.440183" lon="-5.302333">
        <ele>2069.0</ele>
        <time>2015-07-25T13:16:59Z</time>
      </trkpt>
      <trkpt lat="40.440067" lon="-5.302317">
        <ele>2068.0</ele>
        <time>2015-07-25T13:17:00Z</time>
      </trkpt>
      <trkpt lat="40.439933" lon="-5.302267">
        <ele>2067.0</ele>
        <time>2015-07-25T13:17:01Z</time>
      </trkpt>
      <trkpt lat="40.439817" lon="-5.302233">
        <ele>2066.0</ele>
        <time>2015-07-25T13:17:02Z</time>
      </trkpt>
      <trkpt lat="40.439700" lon="-5.302183">
        <ele>2065.0</ele>
        <time>2015-07-25T13:17:03Z</time>
      </trkpt>
      <trkpt lat="40.439567" lon="-5.302133">
        <ele>2063.0</ele>
        <time>2015-07-25T13:17:04Z</time>
      </trkpt>
      <trkpt lat="40.439450" lon="-5.302083">
        <ele>2063.0</ele>
        <time>2015-07-25T13:17:05Z</time>
      </trkpt>
      <trkpt lat="40.439333" lon="-5.302033">
        <ele>2062.0</ele>
        <time>2015-07-25T13:17:06Z</time>
      </trkpt>
      <trkpt lat="40.439217" lon="-5.301967">
        <ele>2063.0</ele>
        <time>2015-07-25T13:17:07Z</time>
      </trkpt>
      <trkpt lat="40.439100" lon="-5.301900">
        <ele>2062.0</ele>
        <time>2015-07-25T13:17:08Z</time>
      </trkpt>
      <trkpt lat="40.439000" lon="-5.301850">
        <ele>2062.0</ele>
        <time>2015-07-25T13:17:09Z</time>
      </trkpt>
      <trkpt lat="40.438883" lon="-5.301817">
        <ele>2061.0</ele>
        <time>2015-07-25T13:17:10Z</time>
      </trkpt>
      <trkpt lat="40.438767" lon="-5.301783">
        <ele>2059.0</ele>
        <time>2015-07-25T13:17:11Z</time>
      </trkpt>
      <trkpt lat="40.438650" lon="-5.301733">
        <ele>2057.0</ele>
        <time>2015-07-25T13:17:12Z</time>
      </trkpt>
      <trkpt lat="40.438533" lon="-5.301683">
        <ele>2054.0</ele>
        <time>2015-07-25T13:17:13Z</time>
      </trkpt>
      <trkpt lat="40.438417" lon="-5.301617">
        <ele>2051.0</ele>
        <time>2015-07-25T13:17:14Z</time>
      </trkpt>
      <trkpt lat="40.438283" lon="-5.301567">
        <ele>2049.0</ele>
        <time>2015-07-25T13:17:15Z</time>
      </trkpt>
      <trkpt lat="40.438150" lon="-5.301517">
        <ele>2047.0</ele>
        <time>2015-07-25T13:17:16Z</time>
      </trkpt>
      <trkpt lat="40.438017" lon="-5.301483">
        <ele>2045.0</ele>
        <time>2015-07-25T13:17:17Z</time>
      </trkpt>
      <trkpt lat="40.437900" lon="-5.301450">
        <ele>2044.0</ele>
        <time>2015-07-25T13:17:18Z</time>
      </trkpt>
      <trkpt lat="40.437783" lon="-5.301417">
        <ele>2042.0</ele>
        <time>2015-07-25T13:17:19Z</time>
      </trkpt>
      <trkpt lat="40.437667" lon="-5.301400">
        <ele>2040.0</ele>
        <time>2015-07-25T13:17:20Z</time>
      </trkpt>
      <trkpt lat="40.437533" lon="-5.301383">
        <ele>2036.0</ele>
        <time>2015-07-25T13:17:21Z</time>
      </trkpt>
      <trkpt lat="40.437400" lon="-5.301367">
        <ele>2034.0</ele>
        <time>2015-07-25T13:17:22Z</time>
      </trkpt>
      <trkpt lat="40.437267" lon="-5.301367">
        <ele>2032.0</ele>
        <time>2015-07-25T13:17:23Z</time>
      </trkpt>
      <trkpt lat="40.437133" lon="-5.301350">
        <ele>2031.0</ele>
        <time>2015-07-25T13:17:24Z</time>
      </trkpt>
      <trkpt lat="40.437017" lon="-5.301333">
        <ele>2030.0</ele>
        <time>2015-07-25T13:17:25Z</time>
      </trkpt>
      <trkpt lat="40.436900" lon="-5.301333">
        <ele>2028.0</ele>
        <time>2015-07-25T13:17:26Z</time>
      </trkpt>
      <trkpt lat="40.436783" lon="-5.301350">
        <ele>2025.0</ele>
        <time>2015-07-25T13:17:27Z</time>
      </trkpt>
      <trkpt lat="40.436650" lon="-5.301367">
        <ele>2021.0</ele>
        <time>2015-07-25T13:17:28Z</time>
      </trkpt>
      <trkpt lat="40.436517" lon="-5.301367">
        <ele>2019.0</ele>
        <time>2015-07-25T13:17:29Z</time>
      </trkpt>
      <trkpt lat="40.436367" lon="-5.301367">
        <ele>2017.0</ele>
        <time>2015-07-25T13:17:30Z</time>
      </trkpt>
      <trkpt lat="40.436233" lon="-5.301367">
        <ele>2016.0</ele>
        <time>2015-07-25T13:17:31Z</time>
      </trkpt>
      <trkpt lat="40.436117" lon="-5.301350">
        <ele>2016.0</ele>
        <time>2015-07-25T13:17:32Z</time>
      </trkpt>
      <trkpt lat="40.435983" lon="-5.301333">
        <ele>2015.0</ele>
        <time>2015-07-25T13:17:33Z</time>
      </trkpt>
      <trkpt lat="40.435867" lon="-5.301317">
        <ele>2013.0</ele>
        <time>2015-07-25T13:17:34Z</time>
      </trkpt>
      <trkpt lat="40.435750" lon="-5.301300">
        <ele>2012.0</ele>
        <time>2015-07-25T13:17:35Z</time>
      </trkpt>
      <trkpt lat="40.435617" lon="-5.301267">
        <ele>2009.0</ele>
        <time>2015-07-25T13:17:36Z</time>
      </trkpt>
      <trkpt lat="40.435483" lon="-5.301250">
        <ele>2007.0</ele>
        <time>2015-07-25T13:17:37Z</time>
      </trkpt>
      <trkpt lat="40.435350" lon="-5.301217">
        <ele>2005.0</ele>
        <time>2015-07-25T13:17:38Z</time>
      </trkpt>
      <trkpt lat="40.435200" lon="-5.301183">
        <ele>2003.0</ele>
        <time>2015-07-25T13:17:39Z</time>
      </trkpt>
      <trkpt lat="40.435067" lon="-5.301167">
        <ele>2003.0</ele>
        <time>2015-07-25T13:17:40Z</time>
      </trkpt>
      <trkpt lat="40.434933" lon="-5.301133">
        <ele>2003.0</ele>
        <time>2015-07-25T13:17:41Z</time>
      </trkpt>
      <trkpt lat="40.434800" lon="-5.301117">
        <ele>2003.0</ele>
        <time>2015-07-25T13:17:42Z</time>
      </trkpt>
      <trkpt lat="40.434683" lon="-5.301100">
        <ele>2003.0</ele>
        <time>2015-07-25T13:17:43Z</time>
      </trkpt>
      <trkpt lat="40.434550" lon="-5.301067">
        <ele>2001.0</ele>
        <time>2015-07-25T13:17:44Z</time>
      </trkpt>
      <trkpt lat="40.434400" lon="-5.301050">
        <ele>1998.0</ele>
        <time>2015-07-25T13:17:45Z</time>
      </trkpt>
      <trkpt lat="40.434267" lon="-5.301033">
        <ele>1996.0</ele>
        <time>2015-07-25T13:17:46Z</time>
      </trkpt>
      <trkpt lat="40.434117" lon="-5.301017">
        <ele>1993.0</ele>
        <time>2015-07-25T13:17:47Z</time>
      </trkpt>
      <trkpt lat="40.433983" lon="-5.300983">
        <ele>1991.0</ele>
        <time>2015-07-25T13:17:48Z</time>
      </trkpt>
      <trkpt lat="40.433833" lon="-5.300967">
        <ele>1988.0</ele>
        <time>2015-07-25T13:17:49Z</time>
      </trkpt>
      <trkpt lat="40.433700" lon="-5.300933">
        <ele>1986.0</ele>
        <time>2015-07-25T13:17:50Z</time>
      </trkpt>
      <trkpt lat="40.433550" lon="-5.300917">
        <ele>1984.0</ele>
        <time>2015-07-25T13:17:51Z</time>
      </trkpt>
      <trkpt lat="40.433400" lon="-5.300900">
        <ele>1982.0</ele>
        <time>2015-07-25T13:17:52Z</time>
      </trkpt>
      <trkpt lat="40.433250" lon="-5.300883">
        <ele>1980.0</ele>
        <time>2015-07-25T13:17:53Z</time>
      </trkpt>
      <trkpt lat="40.433117" lon="-5.300883">
        <ele>1979.0</ele>
        <time>2015-07-25T13:17:54Z</time>
      </trkpt>
      <trkpt lat="40.432967" lon="-5.300867">
        <ele>1979.0</ele>
        <time>2015-07-25T13:17:55Z</time>
      </trkpt>
      <trkpt lat="40.432833" lon="-5.300833">
        <ele>1979.0</ele>
        <time>2015-07-25T13:17:56Z</time>
      </trkpt>
      <trkpt lat="40.432717" lon="-5.300800">
        <ele>1977.0</ele>
        <time>2015-07-25T13:17:57Z</time>
      </trkpt>
      <trkpt lat="40.432583" lon="-5.300783">
        <ele>1976.0</ele>
        <time>2015-07-25T13:17:58Z</time>
      </trkpt>
      <trkpt lat="40.432450" lon="-5.300767">
        <ele>1975.0</ele>
        <time>2015-07-25T13:17:59Z</time>
      </trkpt>
      <trkpt lat="40.432300" lon="-5.300750">
        <ele>1973.0</ele>
        <time>2015-07-25T13:18:00Z</time>
      </trkpt>
      <trkpt lat="40.432167" lon="-5.300733">
        <ele>1972.0</ele>
        <time>2015-07-25T13:18:01Z</time>
      </trkpt>
      <trkpt lat="40.432033" lon="-5.300700">
        <ele>1971.0</ele>
        <time>2015-07-25T13:18:02Z</time>
      </trkpt>
      <trkpt lat="40.431900" lon="-5.300667">
        <ele>1970.0</ele>
        <time>2015-07-25T13:18:03Z</time>
      </trkpt>
      <trkpt lat="40.431767" lon="-5.300633">
        <ele>1969.0</ele>
        <time>2015-07-25T13:18:04Z</time>
      </trkpt>
      <trkpt lat="40.431650" lon="-5.300617">
        <ele>1968.0</ele>
        <time>2015-07-25T13:18:05Z</time>
      </trkpt>
      <trkpt lat="40.431517" lon="-5.300617">
        <ele>1967.0</ele>
        <time>2015-07-25T13:18:06Z</time>
      </trkpt>
      <trkpt lat="40.431383" lon="-5.300600">
        <ele>1966.0</ele>
        <time>2015-07-25T13:18:07Z</time>
      </trkpt>
      <trkpt lat="40.431250" lon="-5.300583">
        <ele>1965.0</ele>
        <time>2015-07-25T13:18:08Z</time>
      </trkpt>
      <trkpt lat="40.431100" lon="-5.300550">
        <ele>1965.0</ele>
        <time>2015-07-25T13:18:09Z</time>
      </trkpt>
      <trkpt lat="40.430983" lon="-5.300517">
        <ele>1965.0</ele>
        <time>2015-07-25T13:18:10Z</time>
      </trkpt>
      <trkpt lat="40.430850" lon="-5.300483">
        <ele>1965.0</ele>
        <time>2015-07-25T13:18:11Z</time>
      </trkpt>
      <trkpt lat="40.430717" lon="-5.300450">
        <ele>1965.0</ele>
        <time>2015-07-25T13:18:12Z</time>
      </trkpt>
      <trkpt lat="40.430583" lon="-5.300417">
        <ele>1964.0</ele>
        <time>2015-07-25T13:18:13Z</time>
      </trkpt>
      <trkpt lat="40.430450" lon="-5.300383">
        <ele>1963.0</ele>
        <time>2015-07-25T13:18:14Z</time>
      </trkpt>
      <trkpt lat="40.430317" lon="-5.300333">
        <ele>1962.0</ele>
        <time>2015-07-25T13:18:15Z</time>
      </trkpt>
      <trkpt lat="40.430183" lon="-5.300300">
        <ele>1962.0</ele>
        <time>2015-07-25T13:18:16Z</time>
      </trkpt>
      <trkpt lat="40.430050" lon="-5.300267">
        <ele>1961.0</ele>
        <time>2015-07-25T13:18:17Z</time>
      </trkpt>
      <trkpt lat="40.429917" lon="-5.300217">
        <ele>1962.0</ele>
        <time>2015-07-25T13:18:18Z</time>
      </trkpt>
      <trkpt lat="40.429767" lon="-5.300167">
        <ele>1962.0</ele>
        <time>2015-07-25T13:18:19Z</time>
      </trkpt>
      <trkpt lat="40.429650" lon="-5.300133">
        <ele>1961.0</ele>
        <time>2015-07-25T13:18:20Z</time>
      </trkpt>
      <trkpt lat="40.429517" lon="-5.300083">
        <ele>1961.0</ele>
        <time>2015-07-25T13:18:21Z</time>
      </trkpt>
      <trkpt lat="40.429383" lon="-5.300050">
        <ele>1960.0</ele>
        <time>2015-07-25T13:18:22Z</time>
      </trkpt>
      <trkpt lat="40.429233" lon="-5.300017">
        <ele>1959.0</ele>
        <time>2015-07-25T13:18:23Z</time>
      </trkpt>
      <trkpt lat="40.429083" lon="-5.299983">
        <ele>1960.0</ele>
        <time>2015-07-25T13:18:24Z</time>
      </trkpt>
      <trkpt lat="40.428933" lon="-5.299950">
        <ele>1961.0</ele>
        <time>2015-07-25T13:18:25Z</time>
      </trkpt>
      <trkpt lat="40.428783" lon="-5.299917">
        <ele>1962.0</ele>
        <time>2015-07-25T13:18:26Z</time>
      </trkpt>
      <trkpt lat="40.428650" lon="-5.299867">
        <ele>1962.0</ele>
        <time>2015-07-25T13:18:27Z</time>
      </trkpt>
      <trkpt lat="40.428500" lon="-5.299833">
        <ele>1963.0</ele>
        <time>2015-07-25T13:18:28Z</time>
      </trkpt>
      <trkpt lat="40.428350" lon="-5.299800">
        <ele>1964.0</ele>
        <time>2015-07-25T13:18:29Z</time>
      </trkpt>
      <trkpt lat="40.428217" lon="-5.299800">
        <ele>1966.0</ele>
        <time>2015-07-25T13:18:30Z</time>
      </trkpt>
      <trkpt lat="40.428100" lon="-5.299850">
        <ele>1967.0</ele>
        <time>2015-07-25T13:18:31Z</time>
      </trkpt>
      <trkpt lat="40.428000" lon="-5.299933">
        <ele>1968.0</ele>
        <time>2015-07-25T13:18:32Z</time>
      </trkpt>
      <trkpt lat="40.427950" lon="-5.300067">
        <ele>1970.0</ele>
        <time>2015-07-25T13:18:33Z</time>
      </trkpt>
      <trkpt lat="40.427967" lon="-5.300183">
        <ele>1972.0</ele>
        <time>2015-07-25T13:18:34Z</time>
      </trkpt>
      <trkpt lat="40.428000" lon="-5.300250">
        <ele>1974.0</ele>
        <time>2015-07-25T13:18:35Z</time>
      </trkpt>
      <trkpt lat="40.428067" lon="-5.300267">
        <ele>1975.0</ele>
        <time>2015-07-25T13:18:36Z</time>
      </trkpt>
      <trkpt lat="40.428133" lon="-5.300217">
        <ele>1975.0</ele>
        <time>2015-07-25T13:18:37Z</time>
      </trkpt>
      <trkpt lat="40.428183" lon="-5.300100">
        <ele>1976.0</ele>
        <time>2015-07-25T13:18:38Z</time>
      </trkpt>
      <trkpt lat="40.428183" lon="-5.299967">
        <ele>1977.0</ele>
        <time>2015-07-25T13:18:39Z</time>
      </trkpt>
      <trkpt lat="40.428150" lon="-5.299817">
        <ele>1979.0</ele>
        <time>2015-07-25T13:18:40Z</time>
      </trkpt>
      <trkpt lat="40.428050" lon="-5.299683">
        <ele>1978.0</ele>
        <time>2015-07-25T13:18:41Z</time>
      </trkpt>
      <trkpt lat="40.427900" lon="-5.299617">
        <ele>1977.0</ele>
        <time>2015-07-25T13:18:42Z</time>
      </trkpt>
      <trkpt lat="40.427750" lon="-5.299633">
        <ele>1977.0</ele>
        <time>2015-07-25T13:18:43Z</time>
      </trkpt>
      <trkpt lat="40.427617" lon="-5.299700">
        <ele>1978.0</ele>
        <time>2015-07-25T13:18:44Z</time>
      </trkpt>
      <trkpt lat="40.427517" lon="-5.299800">
        <ele>1984.0</ele>
        <time>2015-07-25T13:18:45Z</time>
      </trkpt>
      <trkpt lat="40.427450" lon="-5.299883">
        <ele>1990.0</ele>
        <time>2015-07-25T13:18:46Z</time>
      </trkpt>
      <trkpt lat="40.427383" lon="-5.299950">
        <ele>1995.0</ele>
        <time>2015-07-25T13:18:47Z</time>
      </trkpt>
      <trkpt lat="40.427317" lon="-5.300017">
        <ele>1999.0</ele>
        <time>2015-07-25T13:18:48Z</time>
      </trkpt>
      <trkpt lat="40.427283" lon="-5.300083">
        <ele>2002.0</ele>
        <time>2015-07-25T13:18:49Z</time>
      </trkpt>
      <trkpt lat="40.427300" lon="-5.300167">
        <ele>2004.0</ele>
        <time>2015-07-25T13:18:50Z</time>
      </trkpt>
      <trkpt lat="40.427333" lon="-5.300217">
        <ele>2006.0</ele>
        <time>2015-07-25T13:18:51Z</time>
      </trkpt>
      <trkpt lat="40.427400" lon="-5.300200">
        <ele>2008.0</ele>
        <time>2015-07-25T13:18:52Z</time>
      </trkpt>
      <trkpt lat="40.427450" lon="-5.300133">
        <ele>2009.0</ele>
        <time>2015-07-25T13:18:53Z</time>
      </trkpt>
      <trkpt lat="40.427467" lon="-5.300017">
        <ele>2010.0</ele>
        <time>2015-07-25T13:18:54Z</time>
      </trkpt>
      <trkpt lat="40.427450" lon="-5.299883">
        <ele>2011.0</ele>
        <time>2015-07-25T13:18:55Z</time>
      </trkpt>
      <trkpt lat="40.427400" lon="-5.299750">
        <ele>2014.0</ele>
        <time>2015-07-25T13:18:56Z</time>
      </trkpt>
      <trkpt lat="40.427300" lon="-5.299650">
        <ele>2017.0</ele>
        <time>2015-07-25T13:18:57Z</time>
      </trkpt>
      <trkpt lat="40.427183" lon="-5.299600">
        <ele>2018.0</ele>
        <time>2015-07-25T13:18:58Z</time>
      </trkpt>
      <trkpt lat="40.427033" lon="-5.299600">
        <ele>2017.0</ele>
        <time>2015-07-25T13:18:59Z</time>
      </trkpt>
      <trkpt lat="40.426883" lon="-5.299633">
        <ele>2019.0</ele>
        <time>2015-07-25T13:19:00Z</time>
      </trkpt>
      <trkpt lat="40.426783" lon="-5.299717">
        <ele>2023.0</ele>
        <time>2015-07-25T13:19:01Z</time>
      </trkpt>
      <trkpt lat="40.426733" lon="-5.299800">
        <ele>2027.0</ele>
        <time>2015-07-25T13:19:02Z</time>
      </trkpt>
      <trkpt lat="40.426733" lon="-5.299883">
        <ele>2029.0</ele>
        <time>2015-07-25T13:19:03Z</time>
      </trkpt>
      <trkpt lat="40.426767" lon="-5.299933">
        <ele>2031.0</ele>
        <time>2015-07-25T13:19:04Z</time>
      </trkpt>
      <trkpt lat="40.426817" lon="-5.299950">
        <ele>2033.0</ele>
        <time>2015-07-25T13:19:05Z</time>
      </trkpt>
      <trkpt lat="40.426867" lon="-5.299917">
        <ele>2035.0</ele>
        <time>2015-07-25T13:19:06Z</time>
      </trkpt>
      <trkpt lat="40.426933" lon="-5.299833">
        <ele>2038.0</ele>
        <time>2015-07-25T13:19:07Z</time>
      </trkpt>
      <trkpt lat="40.426967" lon="-5.299717">
        <ele>2040.0</ele>
        <time>2015-07-25T13:19:08Z</time>
      </trkpt>
      <trkpt lat="40.426983" lon="-5.299567">
        <ele>2042.0</ele>
        <time>2015-07-25T13:19:09Z</time>
      </trkpt>
      <trkpt lat="40.426950" lon="-5.299400">
        <ele>2045.0</ele>
        <time>2015-07-25T13:19:10Z</time>
      </trkpt>
      <trkpt lat="40.426883" lon="-5.299250">
        <ele>2047.0</ele>
        <time>2015-07-25T13:19:11Z</time>
      </trkpt>
      <trkpt lat="40.426767" lon="-5.299150">
        <ele>2049.0</ele>
        <time>2015-07-25T13:19:12Z</time>
      </trkpt>
      <trkpt lat="40.426633" lon="-5.299083">
        <ele>2050.0</ele>
        <time>2015-07-25T13:19:13Z</time>
      </trkpt>
      <trkpt lat="40.426500" lon="-5.299050">
        <ele>2052.0</ele>
        <time>2015-07-25T13:19:14Z</time>
      </trkpt>
      <trkpt lat="40.426367" lon="-5.299050">
        <ele>2054.0</ele>
        <time>2015-07-25T13:19:15Z</time>
      </trkpt>
      <trkpt lat="40.426250" lon="-5.299067">
        <ele>2057.0</ele>
        <time>2015-07-25T13:19:16Z</time>
      </trkpt>
      <trkpt lat="40.426150" lon="-5.299117">
        <ele>2059.0</ele>
        <time>2015-07-25T13:19:17Z</time>
      </trkpt>
      <trkpt lat="40.426067" lon="-5.299167">
        <ele>2060.0</ele>
        <time>2015-07-25T13:19:18Z</time>
      </trkpt>
      <trkpt lat="40.426017" lon="-5.299267">
        <ele>2061.0</ele>
        <time>2015-07-25T13:19:19Z</time>
      </trkpt>
      <trkpt lat="40.426000" lon="-5.299350">
        <ele>2062.0</ele>
        <time>2015-07-25T13:19:20Z</time>
      </trkpt>
      <trkpt lat="40.426033" lon="-5.299417">
        <ele>2062.0</ele>
        <time>2015-07-25T13:19:21Z</time>
      </trkpt>
      <trkpt lat="40.426083" lon="-5.299433">
        <ele>2063.0</ele>
        <time>2015-07-25T13:19:22Z</time>
      </trkpt>
      <trkpt lat="40.426167" lon="-5.299383">
        <ele>2064.0</ele>
        <time>2015-07-25T13:19:23Z</time>
      </trkpt>
      <trkpt lat="40.426233" lon="-5.299267">
        <ele>2067.0</ele>
        <time>2015-07-25T13:19:24Z</time>
      </trkpt>
      <trkpt lat="40.426250" lon="-5.299100">
        <ele>2069.0</ele>
        <time>2015-07-25T13:19:25Z</time>
      </trkpt>
      <trkpt lat="40.426217" lon="-5.298933">
        <ele>2072.0</ele>
        <time>2015-07-25T13:19:26Z</time>
      </trkpt>
      <trkpt lat="40.426150" lon="-5.298767">
        <ele>2075.0</ele>
        <time>2015-07-25T13:19:27Z</time>
      </trkpt>
      <trkpt lat="40.426050" lon="-5.298633">
        <ele>2078.0</ele>
        <time>2015-07-25T13:19:28Z</time>
      </trkpt>
      <trkpt lat="40.425967" lon="-5.298517">
        <ele>2080.0</ele>
        <time>2015-07-25T13:19:29Z</time>
      </trkpt>
      <trkpt lat="40.425850" lon="-5.298417">
        <ele>2082.0</ele>
        <time>2015-07-25T13:19:30Z</time>
      </trkpt>
      <trkpt lat="40.425717" lon="-5.298333">
        <ele>2083.0</ele>
        <time>2015-07-25T13:19:31Z</time>
      </trkpt>
      <trkpt lat="40.425583" lon="-5.298300">
        <ele>2084.0</ele>
        <time>2015-07-25T13:19:32Z</time>
      </trkpt>
      <trkpt lat="40.425450" lon="-5.298300">
        <ele>2085.0</ele>
        <time>2015-07-25T13:19:33Z</time>
      </trkpt>
      <trkpt lat="40.425333" lon="-5.298350">
        <ele>2085.0</ele>
        <time>2015-07-25T13:19:34Z</time>
      </trkpt>
      <trkpt lat="40.425250" lon="-5.298433">
        <ele>2085.0</ele>
        <time>2015-07-25T13:19:35Z</time>
      </trkpt>
      <trkpt lat="40.425200" lon="-5.298517">
        <ele>2084.0</ele>
        <time>2015-07-25T13:19:36Z</time>
      </trkpt>
      <trkpt lat="40.425183" lon="-5.298600">
        <ele>2084.0</ele>
        <time>2015-07-25T13:19:37Z</time>
      </trkpt>
      <trkpt lat="40.425200" lon="-5.298633">
        <ele>2085.0</ele>
        <time>2015-07-25T13:19:38Z</time>
      </trkpt>
      <trkpt lat="40.425233" lon="-5.298650">
        <ele>2085.0</ele>
        <time>2015-07-25T13:19:39Z</time>
      </trkpt>
      <trkpt lat="40.425283" lon="-5.298633">
        <ele>2085.0</ele>
        <time>2015-07-25T13:19:40Z</time>
      </trkpt>
      <trkpt lat="40.425350" lon="-5.298617">
        <ele>2085.0</ele>
        <time>2015-07-25T13:19:41Z</time>
      </trkpt>
      <trkpt lat="40.425400" lon="-5.298567">
        <ele>2086.0</ele>
        <time>2015-07-25T13:19:42Z</time>
      </trkpt>
      <trkpt lat="40.425467" lon="-5.298517">
        <ele>2088.0</ele>
        <time>2015-07-25T13:19:43Z</time>
      </trkpt>
      <trkpt lat="40.425517" lon="-5.298433">
        <ele>2091.0</ele>
        <time>2015-07-25T13:19:44Z</time>
      </trkpt>
      <trkpt lat="40.425550" lon="-5.298350">
        <ele>2093.0</ele>
        <time>2015-07-25T13:19:45Z</time>
      </trkpt>
      <trkpt lat="40.425567" lon="-5.298200">
        <ele>2095.0</ele>
        <time>2015-07-25T13:19:46Z</time>
      </trkpt>
      <trkpt lat="40.425550" lon="-5.298033">
        <ele>2097.0</ele>
        <time>2015-07-25T13:19:47Z</time>
      </trkpt>
      <trkpt lat="40.425467" lon="-5.297883">
        <ele>2098.0</ele>
        <time>2015-07-25T13:19:48Z</time>
      </trkpt>
      <trkpt lat="40.425333" lon="-5.297767">
        <ele>2100.0</ele>
        <time>2015-07-25T13:19:49Z</time>
      </trkpt>
      <trkpt lat="40.425200" lon="-5.297683">
        <ele>2102.0</ele>
        <time>2015-07-25T13:19:50Z</time>
      </trkpt>
      <trkpt lat="40.425050" lon="-5.297667">
        <ele>2104.0</ele>
        <time>2015-07-25T13:19:51Z</time>
      </trkpt>
      <trkpt lat="40.424917" lon="-5.297700">
        <ele>2107.0</ele>
        <time>2015-07-25T13:19:52Z</time>
      </trkpt>
      <trkpt lat="40.424833" lon="-5.297783">
        <ele>2108.0</ele>
        <time>2015-07-25T13:19:53Z</time>
      </trkpt>
      <trkpt lat="40.424800" lon="-5.297867">
        <ele>2108.0</ele>
        <time>2015-07-25T13:19:54Z</time>
      </trkpt>
      <trkpt lat="40.424817" lon="-5.297950">
        <ele>2107.0</ele>
        <time>2015-07-25T13:19:55Z</time>
      </trkpt>
      <trkpt lat="40.424883" lon="-5.297983">
        <ele>2108.0</ele>
        <time>2015-07-25T13:19:56Z</time>
      </trkpt>
      <trkpt lat="40.424950" lon="-5.297983">
        <ele>2112.0</ele>
        <time>2015-07-25T13:19:57Z</time>
      </trkpt>
      <trkpt lat="40.425000" lon="-5.297950">
        <ele>2115.0</ele>
        <time>2015-07-25T13:19:58Z</time>
      </trkpt>
      <trkpt lat="40.425050" lon="-5.297867">
        <ele>2119.0</ele>
        <time>2015-07-25T13:19:59Z</time>
      </trkpt>
      <trkpt lat="40.425083" lon="-5.297767">
        <ele>2120.0</ele>
        <time>2015-07-25T13:20:00Z</time>
      </trkpt>
      <trkpt lat="40.425083" lon="-5.297617">
        <ele>2121.0</ele>
        <time>2015-07-25T13:20:01Z</time>
      </trkpt>
      <trkpt lat="40.425050" lon="-5.297450">
        <ele>2122.0</ele>
        <time>2015-07-25T13:20:02Z</time>
      </trkpt>
      <trkpt lat="40.424967" lon="-5.297300">
        <ele>2123.0</ele>
        <time>2015-07-25T13:20:03Z</time>
      </trkpt>
      <trkpt lat="40.424833" lon="-5.297183">
        <ele>2123.0</ele>
        <time>2015-07-25T13:20:04Z</time>
      </trkpt>
      <trkpt lat="40.424683" lon="-5.297133">
        <ele>2121.0</ele>
        <time>2015-07-25T13:20:05Z</time>
      </trkpt>
      <trkpt lat="40.424517" lon="-5.297150">
        <ele>2121.0</ele>
        <time>2015-07-25T13:20:06Z</time>
      </trkpt>
      <trkpt lat="40.424383" lon="-5.297217">
        <ele>2122.0</ele>
        <time>2015-07-25T13:20:07Z</time>
      </trkpt>
      <trkpt lat="40.424267" lon="-5.297317">
        <ele>2127.0</ele>
        <time>2015-07-25T13:20:08Z</time>
      </trkpt>
      <trkpt lat="40.424200" lon="-5.297417">
        <ele>2131.0</ele>
        <time>2015-07-25T13:20:09Z</time>
      </trkpt>
      <trkpt lat="40.424167" lon="-5.297483">
        <ele>2136.0</ele>
        <time>2015-07-25T13:20:10Z</time>
      </trkpt>
      <trkpt lat="40.424150" lon="-5.297500">
        <ele>2138.0</ele>
        <time>2015-07-25T13:20:11Z</time>
      </trkpt>
      <trkpt lat="40.424150" lon="-5.297517">
        <ele>2138.0</ele>
        <time>2015-07-25T13:20:12Z</time>
      </trkpt>
      <trkpt lat="40.424133" lon="-5.297517">
        <ele>2137.0</ele>
        <time>2015-07-25T13:20:13Z</time>
      </trkpt>
      <trkpt lat="40.424133" lon="-5.297550">
        <ele>2135.0</ele>
        <time>2015-07-25T13:20:14Z</time>
      </trkpt>
      <trkpt lat="40.424133" lon="-5.297617">
        <ele>2133.0</ele>
        <time>2015-07-25T13:20:15Z</time>
      </trkpt>
      <trkpt lat="40.424133" lon="-5.297700">
        <ele>2131.0</ele>
        <time>2015-07-25T13:20:16Z</time>
      </trkpt>
      <trkpt lat="40.424117" lon="-5.297800">
        <ele>2130.0</ele>
        <time>2015-07-25T13:20:17Z</time>
      </trkpt>
      <trkpt lat="40.424117" lon="-5.297867">
        <ele>2133.0</ele>
        <time>2015-07-25T13:20:18Z</time>
      </trkpt>
      <trkpt lat="40.424117" lon="-5.297933">
        <ele>2133.0</ele>
        <time>2015-07-25T13:20:19Z</time>
      </trkpt>
      <trkpt lat="40.424133" lon="-5.297983">
        <ele>2133.0</ele>
        <time>2015-07-25T13:20:20Z</time>
      </trkpt>
      <trkpt lat="40.424167" lon="-5.298050">
        <ele>2133.0</ele>
        <time>2015-07-25T13:20:21Z</time>
      </trkpt>
      <trkpt lat="40.424200" lon="-5.298100">
        <ele>2134.0</ele>
        <time>2015-07-25T13:20:22Z</time>
      </trkpt>
      <trkpt lat="40.424233" lon="-5.298133">
        <ele>2135.0</ele>
        <time>2015-07-25T13:20:23Z</time>
      </trkpt>
      <trkpt lat="40.424283" lon="-5.298183">
        <ele>2136.0</ele>
        <time>2015-07-25T13:20:24Z</time>
      </trkpt>
      <trkpt lat="40.424333" lon="-5.298200">
        <ele>2136.0</ele>
        <time>2015-07-25T13:20:25Z</time>
      </trkpt>
      <trkpt lat="40.424400" lon="-5.298200">
        <ele>2137.0</ele>
        <time>2015-07-25T13:20:26Z</time>
      </trkpt>
      <trkpt lat="40.424450" lon="-5.298150">
        <ele>2137.0</ele>
        <time>2015-07-25T13:20:27Z</time>
      </trkpt>
      <trkpt lat="40.424517" lon="-5.298083">
        <ele>2137.0</ele>
        <time>2015-07-25T13:20:28Z</time>
      </trkpt>
      <trkpt lat="40.424567" lon="-5.297967">
        <ele>2138.0</ele>
        <time>2015-07-25T13:20:29Z</time>
      </trkpt>
      <trkpt lat="40.424583" lon="-5.297850">
        <ele>2139.0</ele>
        <time>2015-07-25T13:20:30Z</time>
      </trkpt>
      <trkpt lat="40.424583" lon="-5.297700">
        <ele>2140.0</ele>
        <time>2015-07-25T13:20:31Z</time>
      </trkpt>
      <trkpt lat="40.424567" lon="-5.297550">
        <ele>2139.0</ele>
        <time>2015-07-25T13:20:32Z</time>
      </trkpt>
      <trkpt lat="40.424517" lon="-5.297383">
        <ele>2139.0</ele>
        <time>2015-07-25T13:20:33Z</time>
      </trkpt>
      <trkpt lat="40.424450" lon="-5.297233">
        <ele>2138.0</ele>
        <time>2015-07-25T13:20:34Z</time>
      </trkpt>
      <trkpt lat="40.424350" lon="-5.297083">
        <ele>2138.0</ele>
        <time>2015-07-25T13:20:35Z</time>
      </trkpt>
      <trkpt lat="40.424233" lon="-5.296983">
        <ele>2138.0</ele>
        <time>2015-07-25T13:20:36Z</time>
      </trkpt>
      <trkpt lat="40.424083" lon="-5.296933">
        <ele>2139.0</ele>
        <time>2015-07-25T13:20:37Z</time>
      </trkpt>
      <trkpt lat="40.423950" lon="-5.296933">
        <ele>2140.0</ele>
        <time>2015-07-25T13:20:38Z</time>
      </trkpt>
      <trkpt lat="40.423833" lon="-5.296967">
        <ele>2140.0</ele>
        <time>2015-07-25T13:20:39Z</time>
      </trkpt>
      <trkpt lat="40.423750" lon="-5.297033">
        <ele>2139.0</ele>
        <time>2015-07-25T13:20:40Z</time>
      </trkpt>
      <trkpt lat="40.423683" lon="-5.297150">
        <ele>2138.0</ele>
        <time>2015-07-25T13:20:41Z</time>
      </trkpt>
      <trkpt lat="40.423650" lon="-5.297250">
        <ele>2138.0</ele>
        <time>2015-07-25T13:20:42Z</time>
      </trkpt>
      <trkpt lat="40.423650" lon="-5.297350">
        <ele>2138.0</ele>
        <time>2015-07-25T13:20:43Z</time>
      </trkpt>
      <trkpt lat="40.423667" lon="-5.297433">
        <ele>2139.0</ele>
        <time>2015-07-25T13:20:44Z</time>
      </trkpt>
      <trkpt lat="40.423700" lon="-5.297483">
        <ele>2140.0</ele>
        <time>2015-07-25T13:20:45Z</time>
      </trkpt>
      <trkpt lat="40.423717" lon="-5.297533">
        <ele>2141.0</ele>
        <time>2015-07-25T13:20:46Z</time>
      </trkpt>
      <trkpt lat="40.423733" lon="-5.297583">
        <ele>2141.0</ele>
        <time>2015-07-25T13:20:47Z</time>
      </trkpt>
      <trkpt lat="40.423750" lon="-5.297633">
        <ele>2142.0</ele>
        <time>2015-07-25T13:20:48Z</time>
      </trkpt>
      <trkpt lat="40.423800" lon="-5.297683">
        <ele>2142.0</ele>
        <time>2015-07-25T13:20:49Z</time>
      </trkpt>
      <trkpt lat="40.423833" lon="-5.297717">
        <ele>2144.0</ele>
        <time>2015-07-25T13:20:50Z</time>
      </trkpt>
      <trkpt lat="40.423883" lon="-5.297767">
        <ele>2145.0</ele>
        <time>2015-07-25T13:20:51Z</time>
      </trkpt>
      <trkpt lat="40.423917" lon="-5.297817">
        <ele>2146.0</ele>
        <time>2015-07-25T13:20:52Z</time>
      </trkpt>
      <trkpt lat="40.423967" lon="-5.297867">
        <ele>2147.0</ele>
        <time>2015-07-25T13:20:53Z</time>
      </trkpt>
      <trkpt lat="40.424000" lon="-5.297933">
        <ele>2148.0</ele>
        <time>2015-07-25T13:20:54Z</time>
      </trkpt>
      <trkpt lat="40.424050" lon="-5.297983">
        <ele>2148.0</ele>
        <time>2015-07-25T13:20:55Z</time>
      </trkpt>
      <trkpt lat="40.424083" lon="-5.298050">
        <ele>2149.0</ele>
        <time>2015-07-25T13:20:56Z</time>
      </trkpt>
      <trkpt lat="40.424117" lon="-5.298117">
        <ele>2150.0</ele>
        <time>2015-07-25T13:20:57Z</time>
      </trkpt>
      <trkpt lat="40.424150" lon="-5.298183">
        <ele>2151.0</ele>
        <time>2015-07-25T13:20:58Z</time>
      </trkpt>
      <trkpt lat="40.424167" lon="-5.298250">
        <ele>2152.0</ele>
        <time>2015-07-25T13:20:59Z</time>
      </trkpt>
      <trkpt lat="40.424183" lon="-5.298317">
        <ele>2151.0</ele>
        <time>2015-07-25T13:21:00Z</time>
      </trkpt>
      <trkpt lat="40.424183" lon="-5.298400">
        <ele>2150.0</ele>
        <time>2015-07-25T13:21:01Z</time>
      </trkpt>
      <trkpt lat="40.424183" lon="-5.298500">
        <ele>2149.0</ele>
        <time>2015-07-25T13:21:02Z</time>
      </trkpt>
      <trkpt lat="40.424183" lon="-5.298617">
        <ele>2149.0</ele>
        <time>2015-07-25T13:21:03Z</time>
      </trkpt>
      <trkpt lat="40.424183" lon="-5.298700">
        <ele>2149.0</ele>
        <time>2015-07-25T13:21:04Z</time>
      </trkpt>
      <trkpt lat="40.424200" lon="-5.298783">
        <ele>2150.0</ele>
        <time>2015-07-25T13:21:05Z</time>
      </trkpt>
      <trkpt lat="40.424200" lon="-5.298850">
        <ele>2149.0</ele>
        <time>2015-07-25T13:21:06Z</time>
      </trkpt>
      <trkpt lat="40.424200" lon="-5.298917">
        <ele>2148.0</ele>
        <time>2015-07-25T13:21:07Z</time>
      </trkpt>
      <trkpt lat="40.424200" lon="-5.299000">
        <ele>2146.0</ele>
        <time>2015-07-25T13:21:08Z</time>
      </trkpt>
      <trkpt lat="40.424217" lon="-5.299100">
        <ele>2144.0</ele>
        <time>2015-07-25T13:21:09Z</time>
      </trkpt>
      <trkpt lat="40.424217" lon="-5.299200">
        <ele>2142.0</ele>
        <time>2015-07-25T13:21:10Z</time>
      </trkpt>
      <trkpt lat="40.424250" lon="-5.299300">
        <ele>2142.0</ele>
        <time>2015-07-25T13:21:11Z</time>
      </trkpt>
      <trkpt lat="40.424283" lon="-5.299400">
        <ele>2142.0</ele>
        <time>2015-07-25T13:21:12Z</time>
      </trkpt>
      <trkpt lat="40.424300" lon="-5.299467">
        <ele>2144.0</ele>
        <time>2015-07-25T13:21:13Z</time>
      </trkpt>
      <trkpt lat="40.424300" lon="-5.299533">
        <ele>2145.0</ele>
        <time>2015-07-25T13:21:14Z</time>
      </trkpt>
      <trkpt lat="40.424300" lon="-5.299617">
        <ele>2146.0</ele>
        <time>2015-07-25T13:21:15Z</time>
      </trkpt>
      <trkpt lat="40.424300" lon="-5.299700">
        <ele>2146.0</ele>
        <time>2015-07-25T13:21:16Z</time>
      </trkpt>
      <trkpt lat="40.424283" lon="-5.299800">
        <ele>2146.0</ele>
        <time>2015-07-25T13:21:17Z</time>
      </trkpt>
      <trkpt lat="40.424267" lon="-5.299900">
        <ele>2146.0</ele>
        <time>2015-07-25T13:21:18Z</time>
      </trkpt>
      <trkpt lat="40.424217" lon="-5.300000">
        <ele>2145.0</ele>
        <time>2015-07-25T13:21:19Z</time>
      </trkpt>
      <trkpt lat="40.424183" lon="-5.300117">
        <ele>2143.0</ele>
        <time>2015-07-25T13:21:20Z</time>
      </trkpt>
      <trkpt lat="40.424150" lon="-5.300217">
        <ele>2141.0</ele>
        <time>2015-07-25T13:21:21Z</time>
      </trkpt>
      <trkpt lat="40.424150" lon="-5.300333">
        <ele>2139.0</ele>
        <time>2015-07-25T13:21:22Z</time>
      </trkpt>
      <trkpt lat="40.424150" lon="-5.300450">
        <ele>2136.0</ele>
        <time>2015-07-25T13:21:23Z</time>
      </trkpt>
      <trkpt lat="40.424150" lon="-5.300583">
        <ele>2135.0</ele>
        <time>2015-07-25T13:21:24Z</time>
      </trkpt>
      <trkpt lat="40.424167" lon="-5.300683">
        <ele>2136.0</ele>
        <time>2015-07-25T13:21:25Z</time>
      </trkpt>
      <trkpt lat="40.424183" lon="-5.300767">
        <ele>2137.0</ele>
        <time>2015-07-25T13:21:26Z</time>
      </trkpt>
      <trkpt lat="40.424183" lon="-5.300833">
        <ele>2137.0</ele>
        <time>2015-07-25T13:21:27Z</time>
      </trkpt>
      <trkpt lat="40.424200" lon="-5.300900">
        <ele>2136.0</ele>
        <time>2015-07-25T13:21:28Z</time>
      </trkpt>
      <trkpt lat="40.424200" lon="-5.300983">
        <ele>2134.0</ele>
        <time>2015-07-25T13:21:29Z</time>
      </trkpt>
      <trkpt lat="40.424217" lon="-5.301067">
        <ele>2132.0</ele>
        <time>2015-07-25T13:21:30Z</time>
      </trkpt>
      <trkpt lat="40.424233" lon="-5.301183">
        <ele>2131.0</ele>
        <time>2015-07-25T13:21:31Z</time>
      </trkpt>
      <trkpt lat="40.424250" lon="-5.301300">
        <ele>2130.0</ele>
        <time>2015-07-25T13:21:32Z</time>
      </trkpt>
      <trkpt lat="40.424283" lon="-5.301400">
        <ele>2131.0</ele>
        <time>2015-07-25T13:21:33Z</time>
      </trkpt>
      <trkpt lat="40.424300" lon="-5.301500">
        <ele>2131.0</ele>
        <time>2015-07-25T13:21:34Z</time>
      </trkpt>
      <trkpt lat="40.424317" lon="-5.301617">
        <ele>2132.0</ele>
        <time>2015-07-25T13:21:35Z</time>
      </trkpt>
      <trkpt lat="40.424350" lon="-5.301717">
        <ele>2132.0</ele>
        <time>2015-07-25T13:21:36Z</time>
      </trkpt>
      <trkpt lat="40.424367" lon="-5.301833">
        <ele>2133.0</ele>
        <time>2015-07-25T13:21:37Z</time>
      </trkpt>
      <trkpt lat="40.424400" lon="-5.301933">
        <ele>2134.0</ele>
        <time>2015-07-25T13:21:38Z</time>
      </trkpt>
      <trkpt lat="40.424417" lon="-5.302033">
        <ele>2135.0</ele>
        <time>2015-07-25T13:21:39Z</time>
      </trkpt>
      <trkpt lat="40.424450" lon="-5.302133">
        <ele>2136.0</ele>
        <time>2015-07-25T13:21:40Z</time>
      </trkpt>
      <trkpt lat="40.424467" lon="-5.302217">
        <ele>2137.0</ele>
        <time>2015-07-25T13:21:41Z</time>
      </trkpt>
      <trkpt lat="40.424500" lon="-5.302317">
        <ele>2137.0</ele>
        <time>2015-07-25T13:21:42Z</time>
      </trkpt>
      <trkpt lat="40.424533" lon="-5.302417">
        <ele>2137.0</ele>
        <time>2015-07-25T13:21:43Z</time>
      </trkpt>
      <trkpt lat="40.424567" lon="-5.302517">
        <ele>2136.0</ele>
        <time>2015-07-25T13:21:44Z</time>
      </trkpt>
      <trkpt lat="40.424600" lon="-5.302617">
        <ele>2136.0</ele>
        <time>2015-07-25T13:21:45Z</time>
      </trkpt>
      <trkpt lat="40.424617" lon="-5.302717">
        <ele>2137.0</ele>
        <time>2015-07-25T13:21:46Z</time>
      </trkpt>
      <trkpt lat="40.424650" lon="-5.302800">
        <ele>2137.0</ele>
        <time>2015-07-25T13:21:47Z</time>
      </trkpt>
      <trkpt lat="40.424683" lon="-5.302883">
        <ele>2137.0</ele>
        <time>2015-07-25T13:21:48Z</time>
      </trkpt>
      <trkpt lat="40.424700" lon="-5.302950">
        <ele>2136.0</ele>
        <time>2015-07-25T13:21:49Z</time>
      </trkpt>
      <trkpt lat="40.424733" lon="-5.303033">
        <ele>2134.0</ele>
        <time>2015-07-25T13:21:50Z</time>
      </trkpt>
      <trkpt lat="40.424767" lon="-5.303133">
        <ele>2132.0</ele>
        <time>2015-07-25T13:21:51Z</time>
      </trkpt>
      <trkpt lat="40.424800" lon="-5.303217">
        <ele>2130.0</ele>
        <time>2015-07-25T13:21:52Z</time>
      </trkpt>
      <trkpt lat="40.424833" lon="-5.303317">
        <ele>2128.0</ele>
        <time>2015-07-25T13:21:53Z</time>
      </trkpt>
      <trkpt lat="40.424867" lon="-5.303400">
        <ele>2127.0</ele>
        <time>2015-07-25T13:21:54Z</time>
      </trkpt>
      <trkpt lat="40.424900" lon="-5.303467">
        <ele>2125.0</ele>
        <time>2015-07-25T13:21:55Z</time>
      </trkpt>
      <trkpt lat="40.424950" lon="-5.303550">
        <ele>2122.0</ele>
        <time>2015-07-25T13:21:56Z</time>
      </trkpt>
      <trkpt lat="40.424983" lon="-5.303633">
        <ele>2120.0</ele>
        <time>2015-07-25T13:21:57Z</time>
      </trkpt>
      <trkpt lat="40.425033" lon="-5.303733">
        <ele>2119.0</ele>
        <time>2015-07-25T13:21:58Z</time>
      </trkpt>
      <trkpt lat="40.425083" lon="-5.303833">
        <ele>2119.0</ele>
        <time>2015-07-25T13:21:59Z</time>
      </trkpt>
      <trkpt lat="40.425117" lon="-5.303917">
        <ele>2121.0</ele>
        <time>2015-07-25T13:22:00Z</time>
      </trkpt>
      <trkpt lat="40.425133" lon="-5.304000">
        <ele>2122.0</ele>
        <time>2015-07-25T13:22:01Z</time>
      </trkpt>
      <trkpt lat="40.425167" lon="-5.304050">
        <ele>2121.0</ele>
        <time>2015-07-25T13:22:02Z</time>
      </trkpt>
      <trkpt lat="40.425183" lon="-5.304117">
        <ele>2119.0</ele>
        <time>2015-07-25T13:22:03Z</time>
      </trkpt>
      <trkpt lat="40.425217" lon="-5.304183">
        <ele>2118.0</ele>
        <time>2015-07-25T13:22:04Z</time>
      </trkpt>
      <trkpt lat="40.425250" lon="-5.304283">
        <ele>2116.0</ele>
        <time>2015-07-25T13:22:05Z</time>
      </trkpt>
      <trkpt lat="40.425267" lon="-5.304383">
        <ele>2114.0</ele>
        <time>2015-07-25T13:22:06Z</time>
      </trkpt>
      <trkpt lat="40.425300" lon="-5.304500">
        <ele>2113.0</ele>
        <time>2015-07-25T13:22:07Z</time>
      </trkpt>
      <trkpt lat="40.425317" lon="-5.304600">
        <ele>2111.0</ele>
        <time>2015-07-25T13:22:08Z</time>
      </trkpt>
      <trkpt lat="40.425350" lon="-5.304717">
        <ele>2110.0</ele>
        <time>2015-07-25T13:22:09Z</time>
      </trkpt>
      <trkpt lat="40.425383" lon="-5.304817">
        <ele>2109.0</ele>
        <time>2015-07-25T13:22:10Z</time>
      </trkpt>
      <trkpt lat="40.425400" lon="-5.304917">
        <ele>2108.0</ele>
        <time>2015-07-25T13:22:11Z</time>
      </trkpt>
      <trkpt lat="40.425433" lon="-5.305000">
        <ele>2107.0</ele>
        <time>2015-07-25T13:22:12Z</time>
      </trkpt>
      <trkpt lat="40.425450" lon="-5.305083">
        <ele>2106.0</ele>
        <time>2015-07-25T13:22:13Z</time>
      </trkpt>
      <trkpt lat="40.425467" lon="-5.305183">
        <ele>2104.0</ele>
        <time>2015-07-25T13:22:14Z</time>
      </trkpt>
      <trkpt lat="40.425500" lon="-5.305283">
        <ele>2101.0</ele>
        <time>2015-07-25T13:22:15Z</time>
      </trkpt>
      <trkpt lat="40.425500" lon="-5.305383">
        <ele>2099.0</ele>
        <time>2015-07-25T13:22:16Z</time>
      </trkpt>
      <trkpt lat="40.425517" lon="-5.305483">
        <ele>2098.0</ele>
        <time>2015-07-25T13:22:17Z</time>
      </trkpt>
      <trkpt lat="40.425517" lon="-5.305583">
        <ele>2096.0</ele>
        <time>2015-07-25T13:22:18Z</time>
      </trkpt>
      <trkpt lat="40.425517" lon="-5.305683">
        <ele>2094.0</ele>
        <time>2015-07-25T13:22:19Z</time>
      </trkpt>
      <trkpt lat="40.425533" lon="-5.305783">
        <ele>2091.0</ele>
        <time>2015-07-25T13:22:20Z</time>
      </trkpt>
      <trkpt lat="40.425550" lon="-5.305900">
        <ele>2088.0</ele>
        <time>2015-07-25T13:22:21Z</time>
      </trkpt>
      <trkpt lat="40.425583" lon="-5.306000">
        <ele>2086.0</ele>
        <time>2015-07-25T13:22:22Z</time>
      </trkpt>
      <trkpt lat="40.425617" lon="-5.306083">
        <ele>2084.0</ele>
        <time>2015-07-25T13:22:23Z</time>
      </trkpt>
      <trkpt lat="40.425633" lon="-5.306183">
        <ele>2083.0</ele>
        <time>2015-07-25T13:22:24Z</time>
      </trkpt>
      <trkpt lat="40.425650" lon="-5.306267">
        <ele>2081.0</ele>
        <time>2015-07-25T13:22:25Z</time>
      </trkpt>
      <trkpt lat="40.425667" lon="-5.306367">
        <ele>2079.0</ele>
        <time>2015-07-25T13:22:26Z</time>
      </trkpt>
      <trkpt lat="40.425650" lon="-5.306467">
        <ele>2076.0</ele>
        <time>2015-07-25T13:22:27Z</time>
      </trkpt>
      <trkpt lat="40.425633" lon="-5.306583">
        <ele>2073.0</ele>
        <time>2015-07-25T13:22:28Z</time>
      </trkpt>
      <trkpt lat="40.425617" lon="-5.306700">
        <ele>2069.0</ele>
        <time>2015-07-25T13:22:29Z</time>
      </trkpt>
      <trkpt lat="40.425583" lon="-5.306817">
        <ele>2066.0</ele>
        <time>2015-07-25T13:22:30Z</time>
      </trkpt>
      <trkpt lat="40.425550" lon="-5.306933">
        <ele>2064.0</ele>
        <time>2015-07-25T13:22:31Z</time>
      </trkpt>
      <trkpt lat="40.425483" lon="-5.307050">
        <ele>2061.0</ele>
        <time>2015-07-25T13:22:32Z</time>
      </trkpt>
      <trkpt lat="40.425400" lon="-5.307183">
        <ele>2057.0</ele>
        <time>2015-07-25T13:22:33Z</time>
      </trkpt>
      <trkpt lat="40.425317" lon="-5.307300">
        <ele>2055.0</ele>
        <time>2015-07-25T13:22:34Z</time>
      </trkpt>
      <trkpt lat="40.425233" lon="-5.307433">
        <ele>2054.0</ele>
        <time>2015-07-25T13:22:35Z</time>
      </trkpt>
      <trkpt lat="40.425150" lon="-5.307550">
        <ele>2053.0</ele>
        <time>2015-07-25T13:22:36Z</time>
      </trkpt>
      <trkpt lat="40.425067" lon="-5.307650">
        <ele>2053.0</ele>
        <time>2015-07-25T13:22:37Z</time>
      </trkpt>
      <trkpt lat="40.424950" lon="-5.307733">
        <ele>2052.0</ele>
        <time>2015-07-25T13:22:38Z</time>
      </trkpt>
      <trkpt lat="40.424833" lon="-5.307800">
        <ele>2050.0</ele>
        <time>2015-07-25T13:22:39Z</time>
      </trkpt>
      <trkpt lat="40.424717" lon="-5.307883">
        <ele>2049.0</ele>
        <time>2015-07-25T13:22:40Z</time>
      </trkpt>
      <trkpt lat="40.424600" lon="-5.307967">
        <ele>2048.0</ele>
        <time>2015-07-25T13:22:41Z</time>
      </trkpt>
      <trkpt lat="40.424483" lon="-5.308050">
        <ele>2047.0</ele>
        <time>2015-07-25T13:22:42Z</time>
      </trkpt>
      <trkpt lat="40.424367" lon="-5.308133">
        <ele>2046.0</ele>
        <time>2015-07-25T13:22:43Z</time>
      </trkpt>
      <trkpt lat="40.424233" lon="-5.308217">
        <ele>2045.0</ele>
        <time>2015-07-25T13:22:44Z</time>
      </trkpt>
      <trkpt lat="40.424117" lon="-5.308300">
        <ele>2045.0</ele>
        <time>2015-07-25T13:22:45Z</time>
      </trkpt>
      <trkpt lat="40.424000" lon="-5.308367">
        <ele>2046.0</ele>
        <time>2015-07-25T13:22:46Z</time>
      </trkpt>
      <trkpt lat="40.423883" lon="-5.308467">
        <ele>2048.0</ele>
        <time>2015-07-25T13:22:47Z</time>
      </trkpt>
      <trkpt lat="40.423800" lon="-5.308567">
        <ele>2050.0</ele>
        <time>2015-07-25T13:22:48Z</time>
      </trkpt>
      <trkpt lat="40.423733" lon="-5.308667">
        <ele>2051.0</ele>
        <time>2015-07-25T13:22:49Z</time>
      </trkpt>
      <trkpt lat="40.423667" lon="-5.308783">
        <ele>2052.0</ele>
        <time>2015-07-25T13:22:50Z</time>
      </trkpt>
      <trkpt lat="40.423617" lon="-5.308900">
        <ele>2053.0</ele>
        <time>2015-07-25T13:22:51Z</time>
      </trkpt>
      <trkpt lat="40.423600" lon="-5.309017">
        <ele>2055.0</ele>
        <time>2015-07-25T13:22:52Z</time>
      </trkpt>
      <trkpt lat="40.423617" lon="-5.309100">
        <ele>2057.0</ele>
        <time>2015-07-25T13:22:53Z</time>
      </trkpt>
      <trkpt lat="40.423683" lon="-5.309150">
        <ele>2057.0</ele>
        <time>2015-07-25T13:22:54Z</time>
      </trkpt>
      <trkpt lat="40.423767" lon="-5.309150">
        <ele>2056.0</ele>
        <time>2015-07-25T13:22:55Z</time>
      </trkpt>
      <trkpt lat="40.423850" lon="-5.309050">
        <ele>2056.0</ele>
        <time>2015-07-25T13:22:56Z</time>
      </trkpt>
      <trkpt lat="40.423900" lon="-5.308917">
        <ele>2057.0</ele>
        <time>2015-07-25T13:22:57Z</time>
      </trkpt>
      <trkpt lat="40.423883" lon="-5.308750">
        <ele>2058.0</ele>
        <time>2015-07-25T13:22:58Z</time>
      </trkpt>
      <trkpt lat="40.423817" lon="-5.308600">
        <ele>2058.0</ele>
        <time>2015-07-25T13:22:59Z</time>
      </trkpt>
      <trkpt lat="40.423700" lon="-5.308483">
        <ele>2058.0</ele>
        <time>2015-07-25T13:23:00Z</time>
      </trkpt>
      <trkpt lat="40.423567" lon="-5.308417">
        <ele>2058.0</ele>
        <time>2015-07-25T13:23:01Z</time>
      </trkpt>
      <trkpt lat="40.423433" lon="-5.308417">
        <ele>2057.0</ele>
        <time>2015-07-25T13:23:02Z</time>
      </trkpt>
      <trkpt lat="40.423317" lon="-5.308483">
        <ele>2057.0</ele>
        <time>2015-07-25T13:23:03Z</time>
      </trkpt>
      <trkpt lat="40.423217" lon="-5.308583">
        <ele>2058.0</ele>
        <time>2015-07-25T13:23:04Z</time>
      </trkpt>
      <trkpt lat="40.423167" lon="-5.308683">
        <ele>2058.0</ele>
        <time>2015-07-25T13:23:05Z</time>
      </trkpt>
      <trkpt lat="40.423117" lon="-5.308800">
        <ele>2060.0</ele>
        <time>2015-07-25T13:23:06Z</time>
      </trkpt>
      <trkpt lat="40.423100" lon="-5.308917">
        <ele>2062.0</ele>
        <time>2015-07-25T13:23:07Z</time>
      </trkpt>
      <trkpt lat="40.423100" lon="-5.309000">
        <ele>2064.0</ele>
        <time>2015-07-25T13:23:08Z</time>
      </trkpt>
      <trkpt lat="40.423150" lon="-5.309050">
        <ele>2064.0</ele>
        <time>2015-07-25T13:23:09Z</time>
      </trkpt>
      <trkpt lat="40.423233" lon="-5.309067">
        <ele>2064.0</ele>
        <time>2015-07-25T13:23:10Z</time>
      </trkpt>
      <trkpt lat="40.423317" lon="-5.309033">
        <ele>2064.0</ele>
        <time>2015-07-25T13:23:11Z</time>
      </trkpt>
      <trkpt lat="40.423383" lon="-5.308950">
        <ele>2065.0</ele>
        <time>2015-07-25T13:23:12Z</time>
      </trkpt>
      <trkpt lat="40.423433" lon="-5.308833">
        <ele>2065.0</ele>
        <time>2015-07-25T13:23:13Z</time>
      </trkpt>
      <trkpt lat="40.423433" lon="-5.308683">
        <ele>2066.0</ele>
        <time>2015-07-25T13:23:14Z</time>
      </trkpt>
      <trkpt lat="40.423400" lon="-5.308533">
        <ele>2065.0</ele>
        <time>2015-07-25T13:23:15Z</time>
      </trkpt>
      <trkpt lat="40.423317" lon="-5.308400">
        <ele>2064.0</ele>
        <time>2015-07-25T13:23:16Z</time>
      </trkpt>
      <trkpt lat="40.423183" lon="-5.308283">
        <ele>2062.0</ele>
        <time>2015-07-25T13:23:17Z</time>
      </trkpt>
      <trkpt lat="40.423033" lon="-5.308233">
        <ele>2061.0</ele>
        <time>2015-07-25T13:23:18Z</time>
      </trkpt>
      <trkpt lat="40.422867" lon="-5.308233">
        <ele>2060.0</ele>
        <time>2015-07-25T13:23:19Z</time>
      </trkpt>
      <trkpt lat="40.422733" lon="-5.308300">
        <ele>2061.0</ele>
        <time>2015-07-25T13:23:20Z</time>
      </trkpt>
      <trkpt lat="40.422617" lon="-5.308367">
        <ele>2064.0</ele>
        <time>2015-07-25T13:23:21Z</time>
      </trkpt>
      <trkpt lat="40.422533" lon="-5.308450">
        <ele>2067.0</ele>
        <time>2015-07-25T13:23:22Z</time>
      </trkpt>
      <trkpt lat="40.422467" lon="-5.308517">
        <ele>2068.0</ele>
        <time>2015-07-25T13:23:23Z</time>
      </trkpt>
      <trkpt lat="40.422417" lon="-5.308600">
        <ele>2068.0</ele>
        <time>2015-07-25T13:23:24Z</time>
      </trkpt>
      <trkpt lat="40.422367" lon="-5.308700">
        <ele>2068.0</ele>
        <time>2015-07-25T13:23:25Z</time>
      </trkpt>
      <trkpt lat="40.422333" lon="-5.308817">
        <ele>2068.0</ele>
        <time>2015-07-25T13:23:26Z</time>
      </trkpt>
      <trkpt lat="40.422317" lon="-5.308933">
        <ele>2069.0</ele>
        <time>2015-07-25T13:23:27Z</time>
      </trkpt>
      <trkpt lat="40.422333" lon="-5.309033">
        <ele>2070.0</ele>
        <time>2015-07-25T13:23:28Z</time>
      </trkpt>
      <trkpt lat="40.422350" lon="-5.309117">
        <ele>2071.0</ele>
        <time>2015-07-25T13:23:29Z</time>
      </trkpt>
      <trkpt lat="40.422400" lon="-5.309150">
        <ele>2071.0</ele>
        <time>2015-07-25T13:23:30Z</time>
      </trkpt>
      <trkpt lat="40.422467" lon="-5.309167">
        <ele>2070.0</ele>
        <time>2015-07-25T13:23:31Z</time>
      </trkpt>
      <trkpt lat="40.422533" lon="-5.309117">
        <ele>2069.0</ele>
        <time>2015-07-25T13:23:32Z</time>
      </trkpt>
      <trkpt lat="40.422583" lon="-5.309017">
        <ele>2068.0</ele>
        <time>2015-07-25T13:23:33Z</time>
      </trkpt>
      <trkpt lat="40.422600" lon="-5.308867">
        <ele>2067.0</ele>
        <time>2015-07-25T13:23:34Z</time>
      </trkpt>
      <trkpt lat="40.422583" lon="-5.308717">
        <ele>2066.0</ele>
        <time>2015-07-25T13:23:35Z</time>
      </trkpt>
      <trkpt lat="40.422533" lon="-5.308567">
        <ele>2067.0</ele>
        <time>2015-07-25T13:23:36Z</time>
      </trkpt>
      <trkpt lat="40.422450" lon="-5.308433">
        <ele>2067.0</ele>
        <time>2015-07-25T13:23:37Z</time>
      </trkpt>
      <trkpt lat="40.422333" lon="-5.308350">
        <ele>2066.0</ele>
        <time>2015-07-25T13:23:38Z</time>
      </trkpt>
      <trkpt lat="40.422200" lon="-5.308283">
        <ele>2067.0</ele>
        <time>2015-07-25T13:23:39Z</time>
      </trkpt>
      <trkpt lat="40.422067" lon="-5.308250">
        <ele>2067.0</ele>
        <time>2015-07-25T13:23:40Z</time>
      </trkpt>
      <trkpt lat="40.421933" lon="-5.308283">
        <ele>2066.0</ele>
        <time>2015-07-25T13:23:41Z</time>
      </trkpt>
      <trkpt lat="40.421817" lon="-5.308350">
        <ele>2064.0</ele>
        <time>2015-07-25T13:23:42Z</time>
      </trkpt>
      <trkpt lat="40.421717" lon="-5.308467">
        <ele>2062.0</ele>
        <time>2015-07-25T13:23:43Z</time>
      </trkpt>
      <trkpt lat="40.421667" lon="-5.308617">
        <ele>2061.0</ele>
        <time>2015-07-25T13:23:44Z</time>
      </trkpt>
      <trkpt lat="40.421633" lon="-5.308750">
        <ele>2062.0</ele>
        <time>2015-07-25T13:23:45Z</time>
      </trkpt>
      <trkpt lat="40.421650" lon="-5.308867">
        <ele>2064.0</ele>
        <time>2015-07-25T13:23:46Z</time>
      </trkpt>
      <trkpt lat="40.421650" lon="-5.308933">
        <ele>2067.0</ele>
        <time>2015-07-25T13:23:47Z</time>
      </trkpt>
      <trkpt lat="40.421667" lon="-5.309000">
        <ele>2069.0</ele>
        <time>2015-07-25T13:23:48Z</time>
      </trkpt>
      <trkpt lat="40.421650" lon="-5.309067">
        <ele>2070.0</ele>
        <time>2015-07-25T13:23:49Z</time>
      </trkpt>
      <trkpt lat="40.421633" lon="-5.309150">
        <ele>2070.0</ele>
        <time>2015-07-25T13:23:50Z</time>
      </trkpt>
      <trkpt lat="40.421600" lon="-5.309233">
        <ele>2069.0</ele>
        <time>2015-07-25T13:23:51Z</time>
      </trkpt>
      <trkpt lat="40.421583" lon="-5.309333">
        <ele>2067.0</ele>
        <time>2015-07-25T13:23:52Z</time>
      </trkpt>
      <trkpt lat="40.421583" lon="-5.309433">
        <ele>2067.0</ele>
        <time>2015-07-25T13:23:53Z</time>
      </trkpt>
      <trkpt lat="40.421600" lon="-5.309517">
        <ele>2066.0</ele>
        <time>2015-07-25T13:23:54Z</time>
      </trkpt>
      <trkpt lat="40.421600" lon="-5.309617">
        <ele>2065.0</ele>
        <time>2015-07-25T13:23:55Z</time>
      </trkpt>
      <trkpt lat="40.421617" lon="-5.309717">
        <ele>2065.0</ele>
        <time>2015-07-25T13:23:56Z</time>
      </trkpt>
      <trkpt lat="40.421633" lon="-5.309817">
        <ele>2064.0</ele>
        <time>2015-07-25T13:23:57Z</time>
      </trkpt>
      <trkpt lat="40.421650" lon="-5.309933">
        <ele>2063.0</ele>
        <time>2015-07-25T13:23:58Z</time>
      </trkpt>
      <trkpt lat="40.421683" lon="-5.310033">
        <ele>2062.0</ele>
        <time>2015-07-25T13:23:59Z</time>
      </trkpt>
      <trkpt lat="40.421700" lon="-5.310150">
        <ele>2062.0</ele>
        <time>2015-07-25T13:24:00Z</time>
      </trkpt>
      <trkpt lat="40.421700" lon="-5.310250">
        <ele>2062.0</ele>
        <time>2015-07-25T13:24:01Z</time>
      </trkpt>
      <trkpt lat="40.421700" lon="-5.310350">
        <ele>2062.0</ele>
        <time>2015-07-25T13:24:02Z</time>
      </trkpt>
      <trkpt lat="40.421700" lon="-5.310467">
        <ele>2061.0</ele>
        <time>2015-07-25T13:24:03Z</time>
      </trkpt>
      <trkpt lat="40.421717" lon="-5.310567">
        <ele>2061.0</ele>
        <time>2015-07-25T13:24:04Z</time>
      </trkpt>
      <trkpt lat="40.421717" lon="-5.310683">
        <ele>2060.0</ele>
        <time>2015-07-25T13:24:05Z</time>
      </trkpt>
      <trkpt lat="40.421700" lon="-5.310783">
        <ele>2059.0</ele>
        <time>2015-07-25T13:24:06Z</time>
      </trkpt>
      <trkpt lat="40.421683" lon="-5.310917">
        <ele>2058.0</ele>
        <time>2015-07-25T13:24:07Z</time>
      </trkpt>
      <trkpt lat="40.421683" lon="-5.311033">
        <ele>2057.0</ele>
        <time>2015-07-25T13:24:08Z</time>
      </trkpt>
      <trkpt lat="40.421667" lon="-5.311167">
        <ele>2057.0</ele>
        <time>2015-07-25T13:24:09Z</time>
      </trkpt>
      <trkpt lat="40.421650" lon="-5.311283">
        <ele>2058.0</ele>
        <time>2015-07-25T13:24:10Z</time>
      </trkpt>
      <trkpt lat="40.421650" lon="-5.311400">
        <ele>2059.0</ele>
        <time>2015-07-25T13:24:11Z</time>
      </trkpt>
      <trkpt lat="40.421633" lon="-5.311483">
        <ele>2060.0</ele>
        <time>2015-07-25T13:24:12Z</time>
      </trkpt>
      <trkpt lat="40.421617" lon="-5.311583">
        <ele>2060.0</ele>
        <time>2015-07-25T13:24:13Z</time>
      </trkpt>
      <trkpt lat="40.421600" lon="-5.311683">
        <ele>2061.0</ele>
        <time>2015-07-25T13:24:14Z</time>
      </trkpt>
      <trkpt lat="40.421567" lon="-5.311800">
        <ele>2062.0</ele>
        <time>2015-07-25T13:24:15Z</time>
      </trkpt>
      <trkpt lat="40.421517" lon="-5.311917">
        <ele>2064.0</ele>
        <time>2015-07-25T13:24:16Z</time>
      </trkpt>
      <trkpt lat="40.421450" lon="-5.312017">
        <ele>2067.0</ele>
        <time>2015-07-25T13:24:17Z</time>
      </trkpt>
      <trkpt lat="40.421383" lon="-5.312100">
        <ele>2070.0</ele>
        <time>2015-07-25T13:24:18Z</time>
      </trkpt>
      <trkpt lat="40.421333" lon="-5.312183">
        <ele>2073.0</ele>
        <time>2015-07-25T13:24:19Z</time>
      </trkpt>
      <trkpt lat="40.421333" lon="-5.312233">
        <ele>2074.0</ele>
        <time>2015-07-25T13:24:20Z</time>
      </trkpt>
      <trkpt lat="40.421367" lon="-5.312283">
        <ele>2074.0</ele>
        <time>2015-07-25T13:24:21Z</time>
      </trkpt>
      <trkpt lat="40.421433" lon="-5.312283">
        <ele>2073.0</ele>
        <time>2015-07-25T13:24:22Z</time>
      </trkpt>
      <trkpt lat="40.421517" lon="-5.312217">
        <ele>2072.0</ele>
        <time>2015-07-25T13:24:23Z</time>
      </trkpt>
      <trkpt lat="40.421567" lon="-5.312083">
        <ele>2071.0</ele>
        <time>2015-07-25T13:24:24Z</time>
      </trkpt>
      <trkpt lat="40.421583" lon="-5.311917">
        <ele>2071.0</ele>
        <time>2015-07-25T13:24:25Z</time>
      </trkpt>
      <trkpt lat="40.421533" lon="-5.311733">
        <ele>2071.0</ele>
        <time>2015-07-25T13:24:26Z</time>
      </trkpt>
      <trkpt lat="40.421450" lon="-5.311567">
        <ele>2071.0</ele>
        <time>2015-07-25T13:24:27Z</time>
      </trkpt>
      <trkpt lat="40.421300" lon="-5.311467">
        <ele>2072.0</ele>
        <time>2015-07-25T13:24:28Z</time>
      </trkpt>
      <trkpt lat="40.421133" lon="-5.311433">
        <ele>2072.0</ele>
        <time>2015-07-25T13:24:29Z</time>
      </trkpt>
      <trkpt lat="40.420983" lon="-5.311450">
        <ele>2073.0</ele>
        <time>2015-07-25T13:24:30Z</time>
      </trkpt>
      <trkpt lat="40.420833" lon="-5.311483">
        <ele>2076.0</ele>
        <time>2015-07-25T13:24:31Z</time>
      </trkpt>
      <trkpt lat="40.420683" lon="-5.311517">
        <ele>2081.0</ele>
        <time>2015-07-25T13:24:32Z</time>
      </trkpt>
      <trkpt lat="40.420567" lon="-5.311533">
        <ele>2085.0</ele>
        <time>2015-07-25T13:24:33Z</time>
      </trkpt>
      <trkpt lat="40.420467" lon="-5.311550">
        <ele>2088.0</ele>
        <time>2015-07-25T13:24:34Z</time>
      </trkpt>
      <trkpt lat="40.420383" lon="-5.311583">
        <ele>2090.0</ele>
        <time>2015-07-25T13:24:35Z</time>
      </trkpt>
      <trkpt lat="40.420300" lon="-5.311633">
        <ele>2090.0</ele>
        <time>2015-07-25T13:24:36Z</time>
      </trkpt>
      <trkpt lat="40.420217" lon="-5.311717">
        <ele>2090.0</ele>
        <time>2015-07-25T13:24:37Z</time>
      </trkpt>
      <trkpt lat="40.420183" lon="-5.311833">
        <ele>2090.0</ele>
        <time>2015-07-25T13:24:38Z</time>
      </trkpt>
      <trkpt lat="40.420183" lon="-5.311950">
        <ele>2090.0</ele>
        <time>2015-07-25T13:24:39Z</time>
      </trkpt>
      <trkpt lat="40.420233" lon="-5.312033">
        <ele>2090.0</ele>
        <time>2015-07-25T13:24:40Z</time>
      </trkpt>
      <trkpt lat="40.420300" lon="-5.312083">
        <ele>2089.0</ele>
        <time>2015-07-25T13:24:41Z</time>
      </trkpt>
      <trkpt lat="40.420350" lon="-5.312133">
        <ele>2091.0</ele>
        <time>2015-07-25T13:24:42Z</time>
      </trkpt>
      <trkpt lat="40.420383" lon="-5.312183">
        <ele>2091.0</ele>
        <time>2015-07-25T13:24:43Z</time>
      </trkpt>
      <trkpt lat="40.420400" lon="-5.312267">
        <ele>2091.0</ele>
        <time>2015-07-25T13:24:44Z</time>
      </trkpt>
      <trkpt lat="40.420417" lon="-5.312350">
        <ele>2090.0</ele>
        <time>2015-07-25T13:24:45Z</time>
      </trkpt>
      <trkpt lat="40.420417" lon="-5.312417">
        <ele>2089.0</ele>
        <time>2015-07-25T13:24:46Z</time>
      </trkpt>
      <trkpt lat="40.420433" lon="-5.312500">
        <ele>2088.0</ele>
        <time>2015-07-25T13:24:47Z</time>
      </trkpt>
      <trkpt lat="40.420450" lon="-5.312583">
        <ele>2086.0</ele>
        <time>2015-07-25T13:24:48Z</time>
      </trkpt>
      <trkpt lat="40.420467" lon="-5.312667">
        <ele>2085.0</ele>
        <time>2015-07-25T13:24:49Z</time>
      </trkpt>
      <trkpt lat="40.420500" lon="-5.312767">
        <ele>2083.0</ele>
        <time>2015-07-25T13:24:50Z</time>
      </trkpt>
      <trkpt lat="40.420533" lon="-5.312850">
        <ele>2082.0</ele>
        <time>2015-07-25T13:24:51Z</time>
      </trkpt>
      <trkpt lat="40.420567" lon="-5.312917">
        <ele>2081.0</ele>
        <time>2015-07-25T13:24:52Z</time>
      </trkpt>
      <trkpt lat="40.420617" lon="-5.312983">
        <ele>2080.0</ele>
        <time>2015-07-25T13:24:53Z</time>
      </trkpt>
      <trkpt lat="40.420650" lon="-5.313050">
        <ele>2079.0</ele>
        <time>2015-07-25T13:24:54Z</time>
      </trkpt>
      <trkpt lat="40.420683" lon="-5.313117">
        <ele>2079.0</ele>
        <time>2015-07-25T13:24:55Z</time>
      </trkpt>
      <trkpt lat="40.420717" lon="-5.313183">
        <ele>2077.0</ele>
        <time>2015-07-25T13:24:56Z</time>
      </trkpt>
      <trkpt lat="40.420767" lon="-5.313250">
        <ele>2076.0</ele>
        <time>2015-07-25T13:24:57Z</time>
      </trkpt>
      <trkpt lat="40.420800" lon="-5.313317">
        <ele>2075.0</ele>
        <time>2015-07-25T13:24:58Z</time>
      </trkpt>
      <trkpt lat="40.420850" lon="-5.313367">
        <ele>2073.0</ele>
        <time>2015-07-25T13:24:59Z</time>
      </trkpt>
      <trkpt lat="40.420883" lon="-5.313433">
        <ele>2071.0</ele>
        <time>2015-07-25T13:25:00Z</time>
      </trkpt>
      <trkpt lat="40.420933" lon="-5.313483">
        <ele>2069.0</ele>
        <time>2015-07-25T13:25:01Z</time>
      </trkpt>
      <trkpt lat="40.420983" lon="-5.313550">
        <ele>2068.0</ele>
        <time>2015-07-25T13:25:02Z</time>
      </trkpt>
      <trkpt lat="40.421033" lon="-5.313617">
        <ele>2067.0</ele>
        <time>2015-07-25T13:25:03Z</time>
      </trkpt>
      <trkpt lat="40.421067" lon="-5.313667">
        <ele>2066.0</ele>
        <time>2015-07-25T13:25:04Z</time>
      </trkpt>
      <trkpt lat="40.421100" lon="-5.313733">
        <ele>2067.0</ele>
        <time>2015-07-25T13:25:05Z</time>
      </trkpt>
      <trkpt lat="40.421133" lon="-5.313783">
        <ele>2066.0</ele>
        <time>2015-07-25T13:25:06Z</time>
      </trkpt>
      <trkpt lat="40.421167" lon="-5.313833">
        <ele>2065.0</ele>
        <time>2015-07-25T13:25:07Z</time>
      </trkpt>
      <trkpt lat="40.421200" lon="-5.313900">
        <ele>2063.0</ele>
        <time>2015-07-25T13:25:08Z</time>
      </trkpt>
      <trkpt lat="40.421250" lon="-5.313983">
        <ele>2061.0</ele>
        <time>2015-07-25T13:25:09Z</time>
      </trkpt>
      <trkpt lat="40.421283" lon="-5.314050">
        <ele>2060.0</ele>
        <time>2015-07-25T13:25:10Z</time>
      </trkpt>
      <trkpt lat="40.421317" lon="-5.314133">
        <ele>2059.0</ele>
        <time>2015-07-25T13:25:11Z</time>
      </trkpt>
      <trkpt lat="40.421367" lon="-5.314200">
        <ele>2058.0</ele>
        <time>2015-07-25T13:25:12Z</time>
      </trkpt>
      <trkpt lat="40.421400" lon="-5.314283">
        <ele>2058.0</ele>
        <time>2015-07-25T13:25:13Z</time>
      </trkpt>
      <trkpt lat="40.421433" lon="-5.314367">
        <ele>2057.0</ele>
        <time>2015-07-25T13:25:14Z</time>
      </trkpt>
      <trkpt lat="40.421467" lon="-5.314450">
        <ele>2057.0</ele>
        <time>2015-07-25T13:25:15Z</time>
      </trkpt>
      <trkpt lat="40.421483" lon="-5.314550">
        <ele>2057.0</ele>
        <time>2015-07-25T13:25:16Z</time>
      </trkpt>
      <trkpt lat="40.421500" lon="-5.314650">
        <ele>2057.0</ele>
        <time>2015-07-25T13:25:17Z</time>
      </trkpt>
      <trkpt lat="40.421517" lon="-5.314750">
        <ele>2056.0</ele>
        <time>2015-07-25T13:25:18Z</time>
      </trkpt>
      <trkpt lat="40.421550" lon="-5.314850">
        <ele>2055.0</ele>
        <time>2015-07-25T13:25:19Z</time>
      </trkpt>
      <trkpt lat="40.421567" lon="-5.314950">
        <ele>2054.0</ele>
        <time>2015-07-25T13:25:20Z</time>
      </trkpt>
      <trkpt lat="40.421600" lon="-5.315033">
        <ele>2054.0</ele>
        <time>2015-07-25T13:25:21Z</time>
      </trkpt>
      <trkpt lat="40.421617" lon="-5.315117">
        <ele>2053.0</ele>
        <time>2015-07-25T13:25:22Z</time>
      </trkpt>
      <trkpt lat="40.421650" lon="-5.315200">
        <ele>2052.0</ele>
        <time>2015-07-25T13:25:23Z</time>
      </trkpt>
      <trkpt lat="40.421667" lon="-5.315300">
        <ele>2051.0</ele>
        <time>2015-07-25T13:25:24Z</time>
      </trkpt>
      <trkpt lat="40.421700" lon="-5.315383">
        <ele>2050.0</ele>
        <time>2015-07-25T13:25:25Z</time>
      </trkpt>
      <trkpt lat="40.421717" lon="-5.315467">
        <ele>2049.0</ele>
        <time>2015-07-25T13:25:26Z</time>
      </trkpt>
      <trkpt lat="40.421733" lon="-5.315567">
        <ele>2047.0</ele>
        <time>2015-07-25T13:25:27Z</time>
      </trkpt>
      <trkpt lat="40.421750" lon="-5.315650">
        <ele>2045.0</ele>
        <time>2015-07-25T13:25:28Z</time>
      </trkpt>
      <trkpt lat="40.421767" lon="-5.315750">
        <ele>2043.0</ele>
        <time>2015-07-25T13:25:29Z</time>
      </trkpt>
      <trkpt lat="40.421800" lon="-5.315833">
        <ele>2040.0</ele>
        <time>2015-07-25T13:25:30Z</time>
      </trkpt>
      <trkpt lat="40.421833" lon="-5.315917">
        <ele>2038.0</ele>
        <time>2015-07-25T13:25:31Z</time>
      </trkpt>
      <trkpt lat="40.421867" lon="-5.316000">
        <ele>2035.0</ele>
        <time>2015-07-25T13:25:32Z</time>
      </trkpt>
      <trkpt lat="40.421900" lon="-5.316083">
        <ele>2032.0</ele>
        <time>2015-07-25T13:25:33Z</time>
      </trkpt>
      <trkpt lat="40.421933" lon="-5.316183">
        <ele>2030.0</ele>
        <time>2015-07-25T13:25:34Z</time>
      </trkpt>
      <trkpt lat="40.421967" lon="-5.316283">
        <ele>2027.0</ele>
        <time>2015-07-25T13:25:35Z</time>
      </trkpt>
      <trkpt lat="40.422000" lon="-5.316367">
        <ele>2025.0</ele>
        <time>2015-07-25T13:25:36Z</time>
      </trkpt>
      <trkpt lat="40.422033" lon="-5.316467">
        <ele>2023.0</ele>
        <time>2015-07-25T13:25:37Z</time>
      </trkpt>
      <trkpt lat="40.422067" lon="-5.316567">
        <ele>2020.0</ele>
        <time>2015-07-25T13:25:38Z</time>
      </trkpt>
      <trkpt lat="40.422100" lon="-5.316667">
        <ele>2017.0</ele>
        <time>2015-07-25T13:25:39Z</time>
      </trkpt>
      <trkpt lat="40.422133" lon="-5.316783">
        <ele>2015.0</ele>
        <time>2015-07-25T13:25:40Z</time>
      </trkpt>
      <trkpt lat="40.422183" lon="-5.316883">
        <ele>2014.0</ele>
        <time>2015-07-25T13:25:41Z</time>
      </trkpt>
      <trkpt lat="40.422200" lon="-5.317000">
        <ele>2013.0</ele>
        <time>2015-07-25T13:25:42Z</time>
      </trkpt>
      <trkpt lat="40.422233" lon="-5.317100">
        <ele>2012.0</ele>
        <time>2015-07-25T13:25:43Z</time>
      </trkpt>
      <trkpt lat="40.422283" lon="-5.317200">
        <ele>2010.0</ele>
        <time>2015-07-25T13:25:44Z</time>
      </trkpt>
      <trkpt lat="40.422317" lon="-5.317317">
        <ele>2008.0</ele>
        <time>2015-07-25T13:25:45Z</time>
      </trkpt>
      <trkpt lat="40.422367" lon="-5.317417">
        <ele>2007.0</ele>
        <time>2015-07-25T13:25:46Z</time>
      </trkpt>
      <trkpt lat="40.422417" lon="-5.317517">
        <ele>2006.0</ele>
        <time>2015-07-25T13:25:47Z</time>
      </trkpt>
      <trkpt lat="40.422467" lon="-5.317617">
        <ele>2005.0</ele>
        <time>2015-07-25T13:25:48Z</time>
      </trkpt>
      <trkpt lat="40.422500" lon="-5.317733">
        <ele>2004.0</ele>
        <time>2015-07-25T13:25:49Z</time>
      </trkpt>
      <trkpt lat="40.422550" lon="-5.317833">
        <ele>2002.0</ele>
        <time>2015-07-25T13:25:50Z</time>
      </trkpt>
      <trkpt lat="40.422583" lon="-5.317933">
        <ele>2001.0</ele>
        <time>2015-07-25T13:25:51Z</time>
      </trkpt>
      <trkpt lat="40.422633" lon="-5.318050">
        <ele>1999.0</ele>
        <time>2015-07-25T13:25:52Z</time>
      </trkpt>
      <trkpt lat="40.422683" lon="-5.318167">
        <ele>1997.0</ele>
        <time>2015-07-25T13:25:53Z</time>
      </trkpt>
      <trkpt lat="40.422717" lon="-5.318300">
        <ele>1997.0</ele>
        <time>2015-07-25T13:25:54Z</time>
      </trkpt>
      <trkpt lat="40.422733" lon="-5.318433">
        <ele>1996.0</ele>
        <time>2015-07-25T13:25:55Z</time>
      </trkpt>
      <trkpt lat="40.422767" lon="-5.318550">
        <ele>1996.0</ele>
        <time>2015-07-25T13:25:56Z</time>
      </trkpt>
      <trkpt lat="40.422783" lon="-5.318683">
        <ele>1996.0</ele>
        <time>2015-07-25T13:25:57Z</time>
      </trkpt>
      <trkpt lat="40.422833" lon="-5.318800">
        <ele>1997.0</ele>
        <time>2015-07-25T13:25:58Z</time>
      </trkpt>
      <trkpt lat="40.422867" lon="-5.318900">
        <ele>1997.0</ele>
        <time>2015-07-25T13:25:59Z</time>
      </trkpt>
      <trkpt lat="40.422900" lon="-5.319000">
        <ele>1997.0</ele>
        <time>2015-07-25T13:26:00Z</time>
      </trkpt>
      <trkpt lat="40.422917" lon="-5.319117">
        <ele>1997.0</ele>
        <time>2015-07-25T13:26:01Z</time>
      </trkpt>
      <trkpt lat="40.422933" lon="-5.319233">
        <ele>1998.0</ele>
        <time>2015-07-25T13:26:02Z</time>
      </trkpt>
      <trkpt lat="40.422950" lon="-5.319350">
        <ele>1998.0</ele>
        <time>2015-07-25T13:26:03Z</time>
      </trkpt>
      <trkpt lat="40.422983" lon="-5.319433">
        <ele>1999.0</ele>
        <time>2015-07-25T13:26:04Z</time>
      </trkpt>
      <trkpt lat="40.423017" lon="-5.319533">
        <ele>2000.0</ele>
        <time>2015-07-25T13:26:05Z</time>
      </trkpt>
      <trkpt lat="40.423033" lon="-5.319633">
        <ele>2001.0</ele>
        <time>2015-07-25T13:26:06Z</time>
      </trkpt>
      <trkpt lat="40.423050" lon="-5.319717">
        <ele>2002.0</ele>
        <time>2015-07-25T13:26:07Z</time>
      </trkpt>
      <trkpt lat="40.423050" lon="-5.319783">
        <ele>2002.0</ele>
        <time>2015-07-25T13:26:08Z</time>
      </trkpt>
      <trkpt lat="40.423050" lon="-5.319867">
        <ele>2002.0</ele>
        <time>2015-07-25T13:26:09Z</time>
      </trkpt>
      <trkpt lat="40.423033" lon="-5.319967">
        <ele>2000.0</ele>
        <time>2015-07-25T13:26:10Z</time>
      </trkpt>
      <trkpt lat="40.423000" lon="-5.320067">
        <ele>1998.0</ele>
        <time>2015-07-25T13:26:11Z</time>
      </trkpt>
      <trkpt lat="40.422983" lon="-5.320200">
        <ele>1995.0</ele>
        <time>2015-07-25T13:26:12Z</time>
      </trkpt>
      <trkpt lat="40.422983" lon="-5.320317">
        <ele>1992.0</ele>
        <time>2015-07-25T13:26:13Z</time>
      </trkpt>
      <trkpt lat="40.422983" lon="-5.320467">
        <ele>1990.0</ele>
        <time>2015-07-25T13:26:14Z</time>
      </trkpt>
      <trkpt lat="40.423000" lon="-5.320583">
        <ele>1989.0</ele>
        <time>2015-07-25T13:26:15Z</time>
      </trkpt>
      <trkpt lat="40.423017" lon="-5.320700">
        <ele>1988.0</ele>
        <time>2015-07-25T13:26:16Z</time>
      </trkpt>
      <trkpt lat="40.423033" lon="-5.320817">
        <ele>1988.0</ele>
        <time>2015-07-25T13:26:17Z</time>
      </trkpt>
      <trkpt lat="40.423067" lon="-5.320917">
        <ele>1986.0</ele>
        <time>2015-07-25T13:26:18Z</time>
      </trkpt>
      <trkpt lat="40.423100" lon="-5.321017">
        <ele>1985.0</ele>
        <time>2015-07-25T13:26:19Z</time>
      </trkpt>
      <trkpt lat="40.423150" lon="-5.321083">
        <ele>1984.0</ele>
        <time>2015-07-25T13:26:20Z</time>
      </trkpt>
      <trkpt lat="40.423200" lon="-5.321167">
        <ele>1983.0</ele>
        <time>2015-07-25T13:26:21Z</time>
      </trkpt>
      <trkpt lat="40.423250" lon="-5.321233">
        <ele>1982.0</ele>
        <time>2015-07-25T13:26:22Z</time>
      </trkpt>
      <trkpt lat="40.423300" lon="-5.321300">
        <ele>1980.0</ele>
        <time>2015-07-25T13:26:23Z</time>
      </trkpt>
      <trkpt lat="40.423350" lon="-5.321367">
        <ele>1979.0</ele>
        <time>2015-07-25T13:26:24Z</time>
      </trkpt>
      <trkpt lat="40.423433" lon="-5.321417">
        <ele>1977.0</ele>
        <time>2015-07-25T13:26:25Z</time>
      </trkpt>
      <trkpt lat="40.423500" lon="-5.321467">
        <ele>1976.0</ele>
        <time>2015-07-25T13:26:26Z</time>
      </trkpt>
      <trkpt lat="40.423583" lon="-5.321533">
        <ele>1975.0</ele>
        <time>2015-07-25T13:26:27Z</time>
      </trkpt>
      <trkpt lat="40.423650" lon="-5.321617">
        <ele>1973.0</ele>
        <time>2015-07-25T13:26:28Z</time>
      </trkpt>
      <trkpt lat="40.423700" lon="-5.321733">
        <ele>1972.0</ele>
        <time>2015-07-25T13:26:29Z</time>
      </trkpt>
      <trkpt lat="40.423750" lon="-5.321850">
        <ele>1972.0</ele>
        <time>2015-07-25T13:26:30Z</time>
      </trkpt>
      <trkpt lat="40.423800" lon="-5.321933">
        <ele>1973.0</ele>
        <time>2015-07-25T13:26:31Z</time>
      </trkpt>
      <trkpt lat="40.423850" lon="-5.322017">
        <ele>1973.0</ele>
        <time>2015-07-25T13:26:32Z</time>
      </trkpt>
      <trkpt lat="40.423900" lon="-5.322083">
        <ele>1974.0</ele>
        <time>2015-07-25T13:26:33Z</time>
      </trkpt>
      <trkpt lat="40.423933" lon="-5.322167">
        <ele>1974.0</ele>
        <time>2015-07-25T13:26:34Z</time>
      </trkpt>
      <trkpt lat="40.423950" lon="-5.322267">
        <ele>1974.0</ele>
        <time>2015-07-25T13:26:35Z</time>
      </trkpt>
      <trkpt lat="40.423967" lon="-5.322367">
        <ele>1973.0</ele>
        <time>2015-07-25T13:26:36Z</time>
      </trkpt>
      <trkpt lat="40.423983" lon="-5.322467">
        <ele>1972.0</ele>
        <time>2015-07-25T13:26:37Z</time>
      </trkpt>
      <trkpt lat="40.424017" lon="-5.322583">
        <ele>1972.0</ele>
        <time>2015-07-25T13:26:38Z</time>
      </trkpt>
      <trkpt lat="40.424067" lon="-5.322683">
        <ele>1972.0</ele>
        <time>2015-07-25T13:26:39Z</time>
      </trkpt>
      <trkpt lat="40.424117" lon="-5.322767">
        <ele>1973.0</ele>
        <time>2015-07-25T13:26:40Z</time>
      </trkpt>
      <trkpt lat="40.424167" lon="-5.322850">
        <ele>1974.0</ele>
        <time>2015-07-25T13:26:41Z</time>
      </trkpt>
      <trkpt lat="40.424217" lon="-5.322933">
        <ele>1975.0</ele>
        <time>2015-07-25T13:26:42Z</time>
      </trkpt>
      <trkpt lat="40.424250" lon="-5.323033">
        <ele>1976.0</ele>
        <time>2015-07-25T13:26:43Z</time>
      </trkpt>
      <trkpt lat="40.424300" lon="-5.323117">
        <ele>1976.0</ele>
        <time>2015-07-25T13:26:44Z</time>
      </trkpt>
      <trkpt lat="40.424350" lon="-5.323217">
        <ele>1978.0</ele>
        <time>2015-07-25T13:26:45Z</time>
      </trkpt>
      <trkpt lat="40.424400" lon="-5.323300">
        <ele>1979.0</ele>
        <time>2015-07-25T13:26:46Z</time>
      </trkpt>
      <trkpt lat="40.424433" lon="-5.323383">
        <ele>1982.0</ele>
        <time>2015-07-25T13:26:47Z</time>
      </trkpt>
      <trkpt lat="40.424467" lon="-5.323450">
        <ele>1983.0</ele>
        <time>2015-07-25T13:26:48Z</time>
      </trkpt>
      <trkpt lat="40.424500" lon="-5.323533">
        <ele>1984.0</ele>
        <time>2015-07-25T13:26:49Z</time>
      </trkpt>
      <trkpt lat="40.424533" lon="-5.323583">
        <ele>1985.0</ele>
        <time>2015-07-25T13:26:50Z</time>
      </trkpt>
      <trkpt lat="40.424600" lon="-5.323600">
        <ele>1985.0</ele>
        <time>2015-07-25T13:26:51Z</time>
      </trkpt>
      <trkpt lat="40.424683" lon="-5.323567">
        <ele>1983.0</ele>
        <time>2015-07-25T13:26:52Z</time>
      </trkpt>
      <trkpt lat="40.424750" lon="-5.323483">
        <ele>1983.0</ele>
        <time>2015-07-25T13:26:53Z</time>
      </trkpt>
      <trkpt lat="40.424800" lon="-5.323350">
        <ele>1984.0</ele>
        <time>2015-07-25T13:26:54Z</time>
      </trkpt>
      <trkpt lat="40.424800" lon="-5.323217">
        <ele>1986.0</ele>
        <time>2015-07-25T13:26:55Z</time>
      </trkpt>
      <trkpt lat="40.424733" lon="-5.323117">
        <ele>1987.0</ele>
        <time>2015-07-25T13:26:56Z</time>
      </trkpt>
      <trkpt lat="40.424650" lon="-5.323033">
        <ele>1987.0</ele>
        <time>2015-07-25T13:26:57Z</time>
      </trkpt>
      <trkpt lat="40.424533" lon="-5.323000">
        <ele>1987.0</ele>
        <time>2015-07-25T13:26:58Z</time>
      </trkpt>
      <trkpt lat="40.424417" lon="-5.323017">
        <ele>1987.0</ele>
        <time>2015-07-25T13:26:59Z</time>
      </trkpt>
      <trkpt lat="40.424300" lon="-5.323050">
        <ele>1987.0</ele>
        <time>2015-07-25T13:27:00Z</time>
      </trkpt>
      <trkpt lat="40.424200" lon="-5.323150">
        <ele>1987.0</ele>
        <time>2015-07-25T13:27:01Z</time>
      </trkpt>
      <trkpt lat="40.424133" lon="-5.323267">
        <ele>1987.0</ele>
        <time>2015-07-25T13:27:02Z</time>
      </trkpt>
      <trkpt lat="40.424083" lon="-5.323417">
        <ele>1988.0</ele>
        <time>2015-07-25T13:27:03Z</time>
      </trkpt>
      <trkpt lat="40.424067" lon="-5.323550">
        <ele>1990.0</ele>
        <time>2015-07-25T13:27:04Z</time>
      </trkpt>
      <trkpt lat="40.424050" lon="-5.323650">
        <ele>1993.0</ele>
        <time>2015-07-25T13:27:05Z</time>
      </trkpt>
      <trkpt lat="40.424050" lon="-5.323750">
        <ele>1996.0</ele>
        <time>2015-07-25T13:27:06Z</time>
      </trkpt>
      <trkpt lat="40.424067" lon="-5.323850">
        <ele>1997.0</ele>
        <time>2015-07-25T13:27:07Z</time>
      </trkpt>
      <trkpt lat="40.424117" lon="-5.323900">
        <ele>1997.0</ele>
        <time>2015-07-25T13:27:08Z</time>
      </trkpt>
      <trkpt lat="40.424183" lon="-5.323933">
        <ele>1997.0</ele>
        <time>2015-07-25T13:27:09Z</time>
      </trkpt>
      <trkpt lat="40.424267" lon="-5.323917">
        <ele>1997.0</ele>
        <time>2015-07-25T13:27:10Z</time>
      </trkpt>
      <trkpt lat="40.424317" lon="-5.323850">
        <ele>1997.0</ele>
        <time>2015-07-25T13:27:11Z</time>
      </trkpt>
      <trkpt lat="40.424367" lon="-5.323733">
        <ele>1998.0</ele>
        <time>2015-07-25T13:27:12Z</time>
      </trkpt>
      <trkpt lat="40.424350" lon="-5.323617">
        <ele>2000.0</ele>
        <time>2015-07-25T13:27:13Z</time>
      </trkpt>
      <trkpt lat="40.424300" lon="-5.323500">
        <ele>2001.0</ele>
        <time>2015-07-25T13:27:14Z</time>
      </trkpt>
      <trkpt lat="40.424217" lon="-5.323400">
        <ele>2002.0</ele>
        <time>2015-07-25T13:27:15Z</time>
      </trkpt>
      <trkpt lat="40.424100" lon="-5.323350">
        <ele>2002.0</ele>
        <time>2015-07-25T13:27:16Z</time>
      </trkpt>
      <trkpt lat="40.423967" lon="-5.323367">
        <ele>2002.0</ele>
        <time>2015-07-25T13:27:17Z</time>
      </trkpt>
      <trkpt lat="40.423850" lon="-5.323417">
        <ele>2003.0</ele>
        <time>2015-07-25T13:27:18Z</time>
      </trkpt>
      <trkpt lat="40.423750" lon="-5.323483">
        <ele>2004.0</ele>
        <time>2015-07-25T13:27:19Z</time>
      </trkpt>
      <trkpt lat="40.423650" lon="-5.323583">
        <ele>2005.0</ele>
        <time>2015-07-25T13:27:20Z</time>
      </trkpt>
      <trkpt lat="40.423583" lon="-5.323683">
        <ele>2007.0</ele>
        <time>2015-07-25T13:27:21Z</time>
      </trkpt>
      <trkpt lat="40.423517" lon="-5.323800">
        <ele>2008.0</ele>
        <time>2015-07-25T13:27:22Z</time>
      </trkpt>
      <trkpt lat="40.423467" lon="-5.323917">
        <ele>2009.0</ele>
        <time>2015-07-25T13:27:23Z</time>
      </trkpt>
      <trkpt lat="40.423417" lon="-5.324050">
        <ele>2011.0</ele>
        <time>2015-07-25T13:27:24Z</time>
      </trkpt>
      <trkpt lat="40.423383" lon="-5.324183">
        <ele>2014.0</ele>
        <time>2015-07-25T13:27:25Z</time>
      </trkpt>
      <trkpt lat="40.423333" lon="-5.324300">
        <ele>2017.0</ele>
        <time>2015-07-25T13:27:26Z</time>
      </trkpt>
      <trkpt lat="40.423300" lon="-5.324417">
        <ele>2022.0</ele>
        <time>2015-07-25T13:27:27Z</time>
      </trkpt>
      <trkpt lat="40.423267" lon="-5.324517">
        <ele>2026.0</ele>
        <time>2015-07-25T13:27:28Z</time>
      </trkpt>
      <trkpt lat="40.423250" lon="-5.324617">
        <ele>2029.0</ele>
        <time>2015-07-25T13:27:29Z</time>
      </trkpt>
      <trkpt lat="40.423250" lon="-5.324683">
        <ele>2031.0</ele>
        <time>2015-07-25T13:27:30Z</time>
      </trkpt>
      <trkpt lat="40.423283" lon="-5.324750">
        <ele>2031.0</ele>
        <time>2015-07-25T13:27:31Z</time>
      </trkpt>
      <trkpt lat="40.423367" lon="-5.324767">
        <ele>2032.0</ele>
        <time>2015-07-25T13:27:32Z</time>
      </trkpt>
      <trkpt lat="40.423433" lon="-5.324733">
        <ele>2033.0</ele>
        <time>2015-07-25T13:27:33Z</time>
      </trkpt>
      <trkpt lat="40.423500" lon="-5.324650">
        <ele>2035.0</ele>
        <time>2015-07-25T13:27:34Z</time>
      </trkpt>
      <trkpt lat="40.423500" lon="-5.324517">
        <ele>2037.0</ele>
        <time>2015-07-25T13:27:35Z</time>
      </trkpt>
      <trkpt lat="40.423467" lon="-5.324367">
        <ele>2038.0</ele>
        <time>2015-07-25T13:27:36Z</time>
      </trkpt>
      <trkpt lat="40.423367" lon="-5.324250">
        <ele>2039.0</ele>
        <time>2015-07-25T13:27:37Z</time>
      </trkpt>
      <trkpt lat="40.423250" lon="-5.324167">
        <ele>2042.0</ele>
        <time>2015-07-25T13:27:38Z</time>
      </trkpt>
      <trkpt lat="40.423117" lon="-5.324150">
        <ele>2046.0</ele>
        <time>2015-07-25T13:27:39Z</time>
      </trkpt>
      <trkpt lat="40.423000" lon="-5.324200">
        <ele>2048.0</ele>
        <time>2015-07-25T13:27:40Z</time>
      </trkpt>
      <trkpt lat="40.422900" lon="-5.324300">
        <ele>2050.0</ele>
        <time>2015-07-25T13:27:41Z</time>
      </trkpt>
      <trkpt lat="40.422867" lon="-5.324433">
        <ele>2051.0</ele>
        <time>2015-07-25T13:27:42Z</time>
      </trkpt>
      <trkpt lat="40.422883" lon="-5.324567">
        <ele>2053.0</ele>
        <time>2015-07-25T13:27:43Z</time>
      </trkpt>
      <trkpt lat="40.422950" lon="-5.324633">
        <ele>2054.0</ele>
        <time>2015-07-25T13:27:44Z</time>
      </trkpt>
      <trkpt lat="40.423050" lon="-5.324633">
        <ele>2056.0</ele>
        <time>2015-07-25T13:27:45Z</time>
      </trkpt>
      <trkpt lat="40.423117" lon="-5.324550">
        <ele>2058.0</ele>
        <time>2015-07-25T13:27:46Z</time>
      </trkpt>
      <trkpt lat="40.423150" lon="-5.324417">
        <ele>2060.0</ele>
        <time>2015-07-25T13:27:47Z</time>
      </trkpt>
      <trkpt lat="40.423100" lon="-5.324267">
        <ele>2062.0</ele>
        <time>2015-07-25T13:27:48Z</time>
      </trkpt>
      <trkpt lat="40.423000" lon="-5.324150">
        <ele>2063.0</ele>
        <time>2015-07-25T13:27:49Z</time>
      </trkpt>
      <trkpt lat="40.422850" lon="-5.324117">
        <ele>2064.0</ele>
        <time>2015-07-25T13:27:50Z</time>
      </trkpt>
      <trkpt lat="40.422700" lon="-5.324167">
        <ele>2065.0</ele>
        <time>2015-07-25T13:27:51Z</time>
      </trkpt>
      <trkpt lat="40.422583" lon="-5.324283">
        <ele>2067.0</ele>
        <time>2015-07-25T13:27:52Z</time>
      </trkpt>
      <trkpt lat="40.422550" lon="-5.324450">
        <ele>2070.0</ele>
        <time>2015-07-25T13:27:53Z</time>
      </trkpt>
      <trkpt lat="40.422567" lon="-5.324583">
        <ele>2073.0</ele>
        <time>2015-07-25T13:27:54Z</time>
      </trkpt>
      <trkpt lat="40.422633" lon="-5.324667">
        <ele>2077.0</ele>
        <time>2015-07-25T13:27:55Z</time>
      </trkpt>
      <trkpt lat="40.422717" lon="-5.324700">
        <ele>2080.0</ele>
        <time>2015-07-25T13:27:56Z</time>
      </trkpt>
      <trkpt lat="40.422783" lon="-5.324667">
        <ele>2083.0</ele>
        <time>2015-07-25T13:27:57Z</time>
      </trkpt>
      <trkpt lat="40.422850" lon="-5.324583">
        <ele>2086.0</ele>
        <time>2015-07-25T13:27:58Z</time>
      </trkpt>
      <trkpt lat="40.422850" lon="-5.324483">
        <ele>2089.0</ele>
        <time>2015-07-25T13:27:59Z</time>
      </trkpt>
      <trkpt lat="40.422833" lon="-5.324367">
        <ele>2091.0</ele>
        <time>2015-07-25T13:28:00Z</time>
      </trkpt>
      <trkpt lat="40.422750" lon="-5.324250">
        <ele>2092.0</ele>
        <time>2015-07-25T13:28:01Z</time>
      </trkpt>
      <trkpt lat="40.422650" lon="-5.324167">
        <ele>2092.0</ele>
        <time>2015-07-25T13:28:02Z</time>
      </trkpt>
      <trkpt lat="40.422517" lon="-5.324133">
        <ele>2094.0</ele>
        <time>2015-07-25T13:28:03Z</time>
      </trkpt>
      <trkpt lat="40.422383" lon="-5.324150">
        <ele>2096.0</ele>
        <time>2015-07-25T13:28:04Z</time>
      </trkpt>
      <trkpt lat="40.422250" lon="-5.324217">
        <ele>2098.0</ele>
        <time>2015-07-25T13:28:05Z</time>
      </trkpt>
      <trkpt lat="40.422150" lon="-5.324333">
        <ele>2102.0</ele>
        <time>2015-07-25T13:28:06Z</time>
      </trkpt>
      <trkpt lat="40.422117" lon="-5.324483">
        <ele>2105.0</ele>
        <time>2015-07-25T13:28:07Z</time>
      </trkpt>
      <trkpt lat="40.422133" lon="-5.324617">
        <ele>2108.0</ele>
        <time>2015-07-25T13:28:08Z</time>
      </trkpt>
      <trkpt lat="40.422183" lon="-5.324717">
        <ele>2111.0</ele>
        <time>2015-07-25T13:28:09Z</time>
      </trkpt>
      <trkpt lat="40.422283" lon="-5.324767">
        <ele>2113.0</ele>
        <time>2015-07-25T13:28:10Z</time>
      </trkpt>
      <trkpt lat="40.422367" lon="-5.324733">
        <ele>2115.0</ele>
        <time>2015-07-25T13:28:11Z</time>
      </trkpt>
      <trkpt lat="40.422417" lon="-5.324633">
        <ele>2117.0</ele>
        <time>2015-07-25T13:28:12Z</time>
      </trkpt>
      <trkpt lat="40.422433" lon="-5.324517">
        <ele>2119.0</ele>
        <time>2015-07-25T13:28:13Z</time>
      </trkpt>
      <trkpt lat="40.422417" lon="-5.324383">
        <ele>2122.0</ele>
        <time>2015-07-25T13:28:14Z</time>
      </trkpt>
      <trkpt lat="40.422350" lon="-5.324283">
        <ele>2123.0</ele>
        <time>2015-07-25T13:28:15Z</time>
      </trkpt>
      <trkpt lat="40.422250" lon="-5.324200">
        <ele>2124.0</ele>
        <time>2015-07-25T13:28:16Z</time>
      </trkpt>
      <trkpt lat="40.422133" lon="-5.324150">
        <ele>2127.0</ele>
        <time>2015-07-25T13:28:17Z</time>
      </trkpt>
      <trkpt lat="40.422000" lon="-5.324167">
        <ele>2129.0</ele>
        <time>2015-07-25T13:28:18Z</time>
      </trkpt>
      <trkpt lat="40.421883" lon="-5.324233">
        <ele>2131.0</ele>
        <time>2015-07-25T13:28:19Z</time>
      </trkpt>
      <trkpt lat="40.421800" lon="-5.324367">
        <ele>2132.0</ele>
        <time>2015-07-25T13:28:20Z</time>
      </trkpt>
      <trkpt lat="40.421800" lon="-5.324533">
        <ele>2133.0</ele>
        <time>2015-07-25T13:28:21Z</time>
      </trkpt>
      <trkpt lat="40.421850" lon="-5.324667">
        <ele>2135.0</ele>
        <time>2015-07-25T13:28:22Z</time>
      </trkpt>
      <trkpt lat="40.421933" lon="-5.324733">
        <ele>2139.0</ele>
        <time>2015-07-25T13:28:23Z</time>
      </trkpt>
      <trkpt lat="40.422017" lon="-5.324717">
        <ele>2144.0</ele>
        <time>2015-07-25T13:28:24Z</time>
      </trkpt>
      <trkpt lat="40.422067" lon="-5.324667">
        <ele>2148.0</ele>
        <time>2015-07-25T13:28:25Z</time>
      </trkpt>
      <trkpt lat="40.422083" lon="-5.324600">
        <ele>2150.0</ele>
        <time>2015-07-25T13:28:26Z</time>
      </trkpt>
      <trkpt lat="40.422083" lon="-5.324500">
        <ele>2152.0</ele>
        <time>2015-07-25T13:28:27Z</time>
      </trkpt>
      <trkpt lat="40.422067" lon="-5.324400">
        <ele>2152.0</ele>
        <time>2015-07-25T13:28:28Z</time>
      </trkpt>
      <trkpt lat="40.422033" lon="-5.324283">
        <ele>2153.0</ele>
        <time>2015-07-25T13:28:29Z</time>
      </trkpt>
      <trkpt lat="40.421983" lon="-5.324167">
        <ele>2154.0</ele>
        <time>2015-07-25T13:28:30Z</time>
      </trkpt>
      <trkpt lat="40.421883" lon="-5.324083">
        <ele>2155.0</ele>
        <time>2015-07-25T13:28:31Z</time>
      </trkpt>
      <trkpt lat="40.421767" lon="-5.324017">
        <ele>2157.0</ele>
        <time>2015-07-25T13:28:32Z</time>
      </trkpt>
      <trkpt lat="40.421633" lon="-5.323967">
        <ele>2160.0</ele>
        <time>2015-07-25T13:28:33Z</time>
      </trkpt>
      <trkpt lat="40.421517" lon="-5.323967">
        <ele>2164.0</ele>
        <time>2015-07-25T13:28:34Z</time>
      </trkpt>
      <trkpt lat="40.421417" lon="-5.324033">
        <ele>2166.0</ele>
        <time>2015-07-25T13:28:35Z</time>
      </trkpt>
      <trkpt lat="40.421333" lon="-5.324133">
        <ele>2168.0</ele>
        <time>2015-07-25T13:28:36Z</time>
      </trkpt>
      <trkpt lat="40.421283" lon="-5.324283">
        <ele>2170.0</ele>
        <time>2015-07-25T13:28:37Z</time>
      </trkpt>
      <trkpt lat="40.421267" lon="-5.324417">
        <ele>2174.0</ele>
        <time>2015-07-25T13:28:38Z</time>
      </trkpt>
      <trkpt lat="40.421283" lon="-5.324533">
        <ele>2177.0</ele>
        <time>2015-07-25T13:28:39Z</time>
      </trkpt>
      <trkpt lat="40.421333" lon="-5.324617">
        <ele>2180.0</ele>
        <time>2015-07-25T13:28:40Z</time>
      </trkpt>
      <trkpt lat="40.421400" lon="-5.324667">
        <ele>2183.0</ele>
        <time>2015-07-25T13:28:41Z</time>
      </trkpt>
      <trkpt lat="40.421467" lon="-5.324683">
        <ele>2184.0</ele>
        <time>2015-07-25T13:28:42Z</time>
      </trkpt>
      <trkpt lat="40.421533" lon="-5.324667">
        <ele>2186.0</ele>
        <time>2015-07-25T13:28:43Z</time>
      </trkpt>
      <trkpt lat="40.421567" lon="-5.324600">
        <ele>2188.0</ele>
        <time>2015-07-25T13:28:44Z</time>
      </trkpt>
      <trkpt lat="40.421600" lon="-5.324517">
        <ele>2190.0</ele>
        <time>2015-07-25T13:28:45Z</time>
      </trkpt>
      <trkpt lat="40.421600" lon="-5.324400">
        <ele>2191.0</ele>
        <time>2015-07-25T13:28:46Z</time>
      </trkpt>
      <trkpt lat="40.421550" lon="-5.324283">
        <ele>2192.0</ele>
        <time>2015-07-25T13:28:47Z</time>
      </trkpt>
      <trkpt lat="40.421483" lon="-5.324150">
        <ele>2192.0</ele>
        <time>2015-07-25T13:28:48Z</time>
      </trkpt>
      <trkpt lat="40.421383" lon="-5.324050">
        <ele>2194.0</ele>
        <time>2015-07-25T13:28:49Z</time>
      </trkpt>
      <trkpt lat="40.421250" lon="-5.324000">
        <ele>2196.0</ele>
        <time>2015-07-25T13:28:50Z</time>
      </trkpt>
      <trkpt lat="40.421133" lon="-5.323983">
        <ele>2198.0</ele>
        <time>2015-07-25T13:28:51Z</time>
      </trkpt>
      <trkpt lat="40.421017" lon="-5.324033">
        <ele>2200.0</ele>
        <time>2015-07-25T13:28:52Z</time>
      </trkpt>
      <trkpt lat="40.420933" lon="-5.324100">
        <ele>2203.0</ele>
        <time>2015-07-25T13:28:53Z</time>
      </trkpt>
      <trkpt lat="40.420850" lon="-5.324200">
        <ele>2205.0</ele>
        <time>2015-07-25T13:28:54Z</time>
      </trkpt>
      <trkpt lat="40.420817" lon="-5.324317">
        <ele>2207.0</ele>
        <time>2015-07-25T13:28:55Z</time>
      </trkpt>
      <trkpt lat="40.420783" lon="-5.324417">
        <ele>2209.0</ele>
        <time>2015-07-25T13:28:56Z</time>
      </trkpt>
      <trkpt lat="40.420800" lon="-5.324533">
        <ele>2210.0</ele>
        <time>2015-07-25T13:28:57Z</time>
      </trkpt>
      <trkpt lat="40.420867" lon="-5.324600">
        <ele>2211.0</ele>
        <time>2015-07-25T13:28:58Z</time>
      </trkpt>
      <trkpt lat="40.420933" lon="-5.324617">
        <ele>2212.0</ele>
        <time>2015-07-25T13:28:59Z</time>
      </trkpt>
      <trkpt lat="40.421017" lon="-5.324567">
        <ele>2214.0</ele>
        <time>2015-07-25T13:29:00Z</time>
      </trkpt>
      <trkpt lat="40.421050" lon="-5.324467">
        <ele>2217.0</ele>
        <time>2015-07-25T13:29:01Z</time>
      </trkpt>
      <trkpt lat="40.421050" lon="-5.324350">
        <ele>2219.0</ele>
        <time>2015-07-25T13:29:02Z</time>
      </trkpt>
      <trkpt lat="40.421033" lon="-5.324233">
        <ele>2222.0</ele>
        <time>2015-07-25T13:29:03Z</time>
      </trkpt>
      <trkpt lat="40.420967" lon="-5.324117">
        <ele>2224.0</ele>
        <time>2015-07-25T13:29:04Z</time>
      </trkpt>
      <trkpt lat="40.420867" lon="-5.324017">
        <ele>2225.0</ele>
        <time>2015-07-25T13:29:05Z</time>
      </trkpt>
      <trkpt lat="40.420750" lon="-5.323933">
        <ele>2227.0</ele>
        <time>2015-07-25T13:29:06Z</time>
      </trkpt>
      <trkpt lat="40.420633" lon="-5.323900">
        <ele>2228.0</ele>
        <time>2015-07-25T13:29:07Z</time>
      </trkpt>
      <trkpt lat="40.420483" lon="-5.323917">
        <ele>2229.0</ele>
        <time>2015-07-25T13:29:08Z</time>
      </trkpt>
      <trkpt lat="40.420367" lon="-5.323967">
        <ele>2231.0</ele>
        <time>2015-07-25T13:29:09Z</time>
      </trkpt>
      <trkpt lat="40.420267" lon="-5.324067">
        <ele>2234.0</ele>
        <time>2015-07-25T13:29:10Z</time>
      </trkpt>
      <trkpt lat="40.420183" lon="-5.324167">
        <ele>2237.0</ele>
        <time>2015-07-25T13:29:11Z</time>
      </trkpt>
      <trkpt lat="40.420150" lon="-5.324300">
        <ele>2239.0</ele>
        <time>2015-07-25T13:29:12Z</time>
      </trkpt>
      <trkpt lat="40.420150" lon="-5.324417">
        <ele>2240.0</ele>
        <time>2015-07-25T13:29:13Z</time>
      </trkpt>
      <trkpt lat="40.420167" lon="-5.324533">
        <ele>2242.0</ele>
        <time>2015-07-25T13:29:14Z</time>
      </trkpt>
      <trkpt lat="40.420233" lon="-5.324600">
        <ele>2243.0</ele>
        <time>2015-07-25T13:29:15Z</time>
      </trkpt>
      <trkpt lat="40.420300" lon="-5.324650">
        <ele>2245.0</ele>
        <time>2015-07-25T13:29:16Z</time>
      </trkpt>
      <trkpt lat="40.420383" lon="-5.324633">
        <ele>2246.0</ele>
        <time>2015-07-25T13:29:17Z</time>
      </trkpt>
      <trkpt lat="40.420450" lon="-5.324550">
        <ele>2247.0</ele>
        <time>2015-07-25T13:29:18Z</time>
      </trkpt>
      <trkpt lat="40.420483" lon="-5.324433">
        <ele>2249.0</ele>
        <time>2015-07-25T13:29:19Z</time>
      </trkpt>
      <trkpt lat="40.420483" lon="-5.324283">
        <ele>2251.0</ele>
        <time>2015-07-25T13:29:20Z</time>
      </trkpt>
      <trkpt lat="40.420417" lon="-5.324117">
        <ele>2254.0</ele>
        <time>2015-07-25T13:29:21Z</time>
      </trkpt>
      <trkpt lat="40.420333" lon="-5.324000">
        <ele>2257.0</ele>
        <time>2015-07-25T13:29:22Z</time>
      </trkpt>
      <trkpt lat="40.420200" lon="-5.323900">
        <ele>2260.0</ele>
        <time>2015-07-25T13:29:23Z</time>
      </trkpt>
      <trkpt lat="40.420067" lon="-5.323867">
        <ele>2263.0</ele>
        <time>2015-07-25T13:29:24Z</time>
      </trkpt>
      <trkpt lat="40.419933" lon="-5.323867">
        <ele>2265.0</ele>
        <time>2015-07-25T13:29:25Z</time>
      </trkpt>
      <trkpt lat="40.419800" lon="-5.323917">
        <ele>2267.0</ele>
        <time>2015-07-25T13:29:26Z</time>
      </trkpt>
      <trkpt lat="40.419717" lon="-5.324017">
        <ele>2269.0</ele>
        <time>2015-07-25T13:29:27Z</time>
      </trkpt>
      <trkpt lat="40.419650" lon="-5.324117">
        <ele>2270.0</ele>
        <time>2015-07-25T13:29:28Z</time>
      </trkpt>
      <trkpt lat="40.419617" lon="-5.324250">
        <ele>2271.0</ele>
        <time>2015-07-25T13:29:29Z</time>
      </trkpt>
      <trkpt lat="40.419617" lon="-5.324350">
        <ele>2272.0</ele>
        <time>2015-07-25T13:29:30Z</time>
      </trkpt>
      <trkpt lat="40.419667" lon="-5.324467">
        <ele>2273.0</ele>
        <time>2015-07-25T13:29:31Z</time>
      </trkpt>
      <trkpt lat="40.419717" lon="-5.324517">
        <ele>2275.0</ele>
        <time>2015-07-25T13:29:32Z</time>
      </trkpt>
      <trkpt lat="40.419783" lon="-5.324517">
        <ele>2276.0</ele>
        <time>2015-07-25T13:29:33Z</time>
      </trkpt>
      <trkpt lat="40.419850" lon="-5.324450">
        <ele>2277.0</ele>
        <time>2015-07-25T13:29:34Z</time>
      </trkpt>
      <trkpt lat="40.419883" lon="-5.324317">
        <ele>2278.0</ele>
        <time>2015-07-25T13:29:35Z</time>
      </trkpt>
      <trkpt lat="40.419867" lon="-5.324150">
        <ele>2280.0</ele>
        <time>2015-07-25T13:29:36Z</time>
      </trkpt>
      <trkpt lat="40.419817" lon="-5.324017">
        <ele>2284.0</ele>
        <time>2015-07-25T13:29:37Z</time>
      </trkpt>
      <trkpt lat="40.419733" lon="-5.323900">
        <ele>2289.0</ele>
        <time>2015-07-25T13:29:38Z</time>
      </trkpt>
      <trkpt lat="40.419617" lon="-5.323817">
        <ele>2294.0</ele>
        <time>2015-07-25T13:29:39Z</time>
      </trkpt>
      <trkpt lat="40.419517" lon="-5.323767">
        <ele>2297.0</ele>
        <time>2015-07-25T13:29:40Z</time>
      </trkpt>
      <trkpt lat="40.419400" lon="-5.323767">
        <ele>2299.0</ele>
        <time>2015-07-25T13:29:41Z</time>
      </trkpt>
      <trkpt lat="40.419300" lon="-5.323783">
        <ele>2300.0</ele>
        <time>2015-07-25T13:29:42Z</time>
      </trkpt>
      <trkpt lat="40.419200" lon="-5.323850">
        <ele>2300.0</ele>
        <time>2015-07-25T13:29:43Z</time>
      </trkpt>
      <trkpt lat="40.419117" lon="-5.323950">
        <ele>2301.0</ele>
        <time>2015-07-25T13:29:44Z</time>
      </trkpt>
      <trkpt lat="40.419050" lon="-5.324050">
        <ele>2302.0</ele>
        <time>2015-07-25T13:29:45Z</time>
      </trkpt>
      <trkpt lat="40.419000" lon="-5.324150">
        <ele>2304.0</ele>
        <time>2015-07-25T13:29:46Z</time>
      </trkpt>
      <trkpt lat="40.418983" lon="-5.324267">
        <ele>2305.0</ele>
        <time>2015-07-25T13:29:47Z</time>
      </trkpt>
      <trkpt lat="40.419000" lon="-5.324383">
        <ele>2306.0</ele>
        <time>2015-07-25T13:29:48Z</time>
      </trkpt>
      <trkpt lat="40.419050" lon="-5.324467">
        <ele>2307.0</ele>
        <time>2015-07-25T13:29:49Z</time>
      </trkpt>
      <trkpt lat="40.419117" lon="-5.324517">
        <ele>2308.0</ele>
        <time>2015-07-25T13:29:50Z</time>
      </trkpt>
      <trkpt lat="40.419183" lon="-5.324533">
        <ele>2311.0</ele>
        <time>2015-07-25T13:29:51Z</time>
      </trkpt>
      <trkpt lat="40.419250" lon="-5.324500">
        <ele>2313.0</ele>
        <time>2015-07-25T13:29:52Z</time>
      </trkpt>
      <trkpt lat="40.419317" lon="-5.324467">
        <ele>2315.0</ele>
        <time>2015-07-25T13:29:53Z</time>
      </trkpt>
      <trkpt lat="40.419367" lon="-5.324417">
        <ele>2318.0</ele>
        <time>2015-07-25T13:29:54Z</time>
      </trkpt>
      <trkpt lat="40.419417" lon="-5.324350">
        <ele>2321.0</ele>
        <time>2015-07-25T13:29:55Z</time>
      </trkpt>
      <trkpt lat="40.419467" lon="-5.324283">
        <ele>2324.0</ele>
        <time>2015-07-25T13:29:56Z</time>
      </trkpt>
      <trkpt lat="40.419500" lon="-5.324200">
        <ele>2327.0</ele>
        <time>2015-07-25T13:29:57Z</time>
      </trkpt>
      <trkpt lat="40.419517" lon="-5.324100">
        <ele>2329.0</ele>
        <time>2015-07-25T13:29:58Z</time>
      </trkpt>
      <trkpt lat="40.419517" lon="-5.323967">
        <ele>2331.0</ele>
        <time>2015-07-25T13:29:59Z</time>
      </trkpt>
      <trkpt lat="40.419483" lon="-5.323833">
        <ele>2334.0</ele>
        <time>2015-07-25T13:30:00Z</time>
      </trkpt>
      <trkpt lat="40.419417" lon="-5.323700">
        <ele>2336.0</ele>
        <time>2015-07-25T13:30:01Z</time>
      </trkpt>
      <trkpt lat="40.419317" lon="-5.323600">
        <ele>2339.0</ele>
        <time>2015-07-25T13:30:02Z</time>
      </trkpt>
      <trkpt lat="40.419200" lon="-5.323533">
        <ele>2343.0</ele>
        <time>2015-07-25T13:30:03Z</time>
      </trkpt>
      <trkpt lat="40.419083" lon="-5.323517">
        <ele>2347.0</ele>
        <time>2015-07-25T13:30:04Z</time>
      </trkpt>
      <trkpt lat="40.418983" lon="-5.323517">
        <ele>2349.0</ele>
        <time>2015-07-25T13:30:05Z</time>
      </trkpt>
      <trkpt lat="40.418883" lon="-5.323550">
        <ele>2351.0</ele>
        <time>2015-07-25T13:30:06Z</time>
      </trkpt>
      <trkpt lat="40.418783" lon="-5.323600">
        <ele>2352.0</ele>
        <time>2015-07-25T13:30:07Z</time>
      </trkpt>
      <trkpt lat="40.418700" lon="-5.323683">
        <ele>2353.0</ele>
        <time>2015-07-25T13:30:08Z</time>
      </trkpt>
      <trkpt lat="40.418617" lon="-5.323783">
        <ele>2353.0</ele>
        <time>2015-07-25T13:30:09Z</time>
      </trkpt>
      <trkpt lat="40.418550" lon="-5.323900">
        <ele>2355.0</ele>
        <time>2015-07-25T13:30:10Z</time>
      </trkpt>
      <trkpt lat="40.418500" lon="-5.324033">
        <ele>2357.0</ele>
        <time>2015-07-25T13:30:11Z</time>
      </trkpt>
      <trkpt lat="40.418500" lon="-5.324167">
        <ele>2359.0</ele>
        <time>2015-07-25T13:30:12Z</time>
      </trkpt>
      <trkpt lat="40.418517" lon="-5.324267">
        <ele>2360.0</ele>
        <time>2015-07-25T13:30:13Z</time>
      </trkpt>
      <trkpt lat="40.418550" lon="-5.324383">
        <ele>2362.0</ele>
        <time>2015-07-25T13:30:14Z</time>
      </trkpt>
      <trkpt lat="40.418617" lon="-5.324467">
        <ele>2364.0</ele>
        <time>2015-07-25T13:30:15Z</time>
      </trkpt>
      <trkpt lat="40.418683" lon="-5.324517">
        <ele>2367.0</ele>
        <time>2015-07-25T13:30:16Z</time>
      </trkpt>
      <trkpt lat="40.418750" lon="-5.324533">
        <ele>2370.0</ele>
        <time>2015-07-25T13:30:17Z</time>
      </trkpt>
      <trkpt lat="40.418817" lon="-5.324517">
        <ele>2372.0</ele>
        <time>2015-07-25T13:30:18Z</time>
      </trkpt>
      <trkpt lat="40.418883" lon="-5.324450">
        <ele>2374.0</ele>
        <time>2015-07-25T13:30:19Z</time>
      </trkpt>
      <trkpt lat="40.418950" lon="-5.324350">
        <ele>2377.0</ele>
        <time>2015-07-25T13:30:20Z</time>
      </trkpt>
      <trkpt lat="40.418950" lon="-5.324217">
        <ele>2379.0</ele>
        <time>2015-07-25T13:30:21Z</time>
      </trkpt>
      <trkpt lat="40.418933" lon="-5.324083">
        <ele>2381.0</ele>
        <time>2015-07-25T13:30:22Z</time>
      </trkpt>
      <trkpt lat="40.418850" lon="-5.323967">
        <ele>2383.0</ele>
        <time>2015-07-25T13:30:23Z</time>
      </trkpt>
      <trkpt lat="40.418750" lon="-5.323867">
        <ele>2384.0</ele>
        <time>2015-07-25T13:30:24Z</time>
      </trkpt>
      <trkpt lat="40.418617" lon="-5.323817">
        <ele>2387.0</ele>
        <time>2015-07-25T13:30:25Z</time>
      </trkpt>
      <trkpt lat="40.418467" lon="-5.323800">
        <ele>2391.0</ele>
        <time>2015-07-25T13:30:26Z</time>
      </trkpt>
      <trkpt lat="40.418350" lon="-5.323850">
        <ele>2396.0</ele>
        <time>2015-07-25T13:30:27Z</time>
      </trkpt>
      <trkpt lat="40.418233" lon="-5.323917">
        <ele>2401.0</ele>
        <time>2015-07-25T13:30:28Z</time>
      </trkpt>
      <trkpt lat="40.418150" lon="-5.323983">
        <ele>2405.0</ele>
        <time>2015-07-25T13:30:29Z</time>
      </trkpt>
      <trkpt lat="40.418083" lon="-5.324083">
        <ele>2408.0</ele>
        <time>2015-07-25T13:30:30Z</time>
      </trkpt>
      <trkpt lat="40.418033" lon="-5.324167">
        <ele>2409.0</ele>
        <time>2015-07-25T13:30:31Z</time>
      </trkpt>
      <trkpt lat="40.418000" lon="-5.324300">
        <ele>2410.0</ele>
        <time>2015-07-25T13:30:32Z</time>
      </trkpt>
      <trkpt lat="40.418000" lon="-5.324450">
        <ele>2410.0</ele>
        <time>2015-07-25T13:30:33Z</time>
      </trkpt>
      <trkpt lat="40.418033" lon="-5.324583">
        <ele>2411.0</ele>
        <time>2015-07-25T13:30:34Z</time>
      </trkpt>
      <trkpt lat="40.418117" lon="-5.324700">
        <ele>2413.0</ele>
        <time>2015-07-25T13:30:35Z</time>
      </trkpt>
      <trkpt lat="40.418200" lon="-5.324767">
        <ele>2416.0</ele>
        <time>2015-07-25T13:30:36Z</time>
      </trkpt>
      <trkpt lat="40.418283" lon="-5.324767">
        <ele>2420.0</ele>
        <time>2015-07-25T13:30:37Z</time>
      </trkpt>
      <trkpt lat="40.418333" lon="-5.324717">
        <ele>2424.0</ele>
        <time>2015-07-25T13:30:38Z</time>
      </trkpt>
      <trkpt lat="40.418383" lon="-5.324600">
        <ele>2425.0</ele>
        <time>2015-07-25T13:30:39Z</time>
      </trkpt>
      <trkpt lat="40.418383" lon="-5.324483">
        <ele>2426.0</ele>
        <time>2015-07-25T13:30:40Z</time>
      </trkpt>
      <trkpt lat="40.418350" lon="-5.324350">
        <ele>2428.0</ele>
        <time>2015-07-25T13:30:41Z</time>
      </trkpt>
      <trkpt lat="40.418267" lon="-5.324217">
        <ele>2429.0</ele>
        <time>2015-07-25T13:30:42Z</time>
      </trkpt>
      <trkpt lat="40.418167" lon="-5.324133">
        <ele>2430.0</ele>
        <time>2015-07-25T13:30:43Z</time>
      </trkpt>
      <trkpt lat="40.418033" lon="-5.324067">
        <ele>2433.0</ele>
        <time>2015-07-25T13:30:44Z</time>
      </trkpt>
      <trkpt lat="40.417883" lon="-5.324067">
        <ele>2437.0</ele>
        <time>2015-07-25T13:30:45Z</time>
      </trkpt>
      <trkpt lat="40.417767" lon="-5.324100">
        <ele>2442.0</ele>
        <time>2015-07-25T13:30:46Z</time>
      </trkpt>
      <trkpt lat="40.417667" lon="-5.324167">
        <ele>2446.0</ele>
        <time>2015-07-25T13:30:47Z</time>
      </trkpt>
      <trkpt lat="40.417583" lon="-5.324267">
        <ele>2449.0</ele>
        <time>2015-07-25T13:30:48Z</time>
      </trkpt>
      <trkpt lat="40.417517" lon="-5.324400">
        <ele>2451.0</ele>
        <time>2015-07-25T13:30:49Z</time>
      </trkpt>
      <trkpt lat="40.417483" lon="-5.324550">
        <ele>2453.0</ele>
        <time>2015-07-25T13:30:50Z</time>
      </trkpt>
      <trkpt lat="40.417483" lon="-5.324700">
        <ele>2454.0</ele>
        <time>2015-07-25T13:30:51Z</time>
      </trkpt>
      <trkpt lat="40.417517" lon="-5.324833">
        <ele>2456.0</ele>
        <time>2015-07-25T13:30:52Z</time>
      </trkpt>
      <trkpt lat="40.417583" lon="-5.324917">
        <ele>2458.0</ele>
        <time>2015-07-25T13:30:53Z</time>
      </trkpt>
      <trkpt lat="40.417667" lon="-5.324933">
        <ele>2460.0</ele>
        <time>2015-07-25T13:30:54Z</time>
      </trkpt>
      <trkpt lat="40.417750" lon="-5.324900">
        <ele>2462.0</ele>
        <time>2015-07-25T13:30:55Z</time>
      </trkpt>
      <trkpt lat="40.417817" lon="-5.324833">
        <ele>2464.0</ele>
        <time>2015-07-25T13:30:56Z</time>
      </trkpt>
      <trkpt lat="40.417850" lon="-5.324750">
        <ele>2467.0</ele>
        <time>2015-07-25T13:30:57Z</time>
      </trkpt>
      <trkpt lat="40.417867" lon="-5.324650">
        <ele>2469.0</ele>
        <time>2015-07-25T13:30:58Z</time>
      </trkpt>
      <trkpt lat="40.417850" lon="-5.324517">
        <ele>2470.0</ele>
        <time>2015-07-25T13:30:59Z</time>
      </trkpt>
      <trkpt lat="40.417817" lon="-5.324400">
        <ele>2469.0</ele>
        <time>2015-07-25T13:31:00Z</time>
      </trkpt>
      <trkpt lat="40.417733" lon="-5.324267">
        <ele>2469.0</ele>
        <time>2015-07-25T13:31:01Z</time>
      </trkpt>
      <trkpt lat="40.417617" lon="-5.324183">
        <ele>2470.0</ele>
        <time>2015-07-25T13:31:02Z</time>
      </trkpt>
      <trkpt lat="40.417467" lon="-5.324133">
        <ele>2473.0</ele>
        <time>2015-07-25T13:31:03Z</time>
      </trkpt>
      <trkpt lat="40.417333" lon="-5.324117">
        <ele>2477.0</ele>
        <time>2015-07-25T13:31:04Z</time>
      </trkpt>
      <trkpt lat="40.417217" lon="-5.324150">
        <ele>2482.0</ele>
        <time>2015-07-25T13:31:05Z</time>
      </trkpt>
      <trkpt lat="40.417117" lon="-5.324183">
        <ele>2486.0</ele>
        <time>2015-07-25T13:31:06Z</time>
      </trkpt>
      <trkpt lat="40.417017" lon="-5.324233">
        <ele>2490.0</ele>
        <time>2015-07-25T13:31:07Z</time>
      </trkpt>
      <trkpt lat="40.416933" lon="-5.324300">
        <ele>2492.0</ele>
        <time>2015-07-25T13:31:08Z</time>
      </trkpt>
      <trkpt lat="40.416833" lon="-5.324400">
        <ele>2494.0</ele>
        <time>2015-07-25T13:31:09Z</time>
      </trkpt>
      <trkpt lat="40.416767" lon="-5.324533">
        <ele>2496.0</ele>
        <time>2015-07-25T13:31:10Z</time>
      </trkpt>
      <trkpt lat="40.416733" lon="-5.324667">
        <ele>2497.0</ele>
        <time>2015-07-25T13:31:11Z</time>
      </trkpt>
      <trkpt lat="40.416733" lon="-5.324800">
        <ele>2499.0</ele>
        <time>2015-07-25T13:31:12Z</time>
      </trkpt>
      <trkpt lat="40.416767" lon="-5.324917">
        <ele>2500.0</ele>
        <time>2015-07-25T13:31:13Z</time>
      </trkpt>
      <trkpt lat="40.416833" lon="-5.325017">
        <ele>2501.0</ele>
        <time>2015-07-25T13:31:14Z</time>
      </trkpt>
      <trkpt lat="40.416917" lon="-5.325067">
        <ele>2503.0</ele>
        <time>2015-07-25T13:31:15Z</time>
      </trkpt>
      <trkpt lat="40.417000" lon="-5.325083">
        <ele>2504.0</ele>
        <time>2015-07-25T13:31:16Z</time>
      </trkpt>
      <trkpt lat="40.417083" lon="-5.325033">
        <ele>2505.0</ele>
        <time>2015-07-25T13:31:17Z</time>
      </trkpt>
      <trkpt lat="40.417133" lon="-5.324950">
        <ele>2507.0</ele>
        <time>2015-07-25T13:31:18Z</time>
      </trkpt>
      <trkpt lat="40.417167" lon="-5.324833">
        <ele>2508.0</ele>
        <time>2015-07-25T13:31:19Z</time>
      </trkpt>
      <trkpt lat="40.417167" lon="-5.324717">
        <ele>2510.0</ele>
        <time>2015-07-25T13:31:20Z</time>
      </trkpt>
      <trkpt lat="40.417117" lon="-5.324600">
        <ele>2511.0</ele>
        <time>2015-07-25T13:31:21Z</time>
      </trkpt>
      <trkpt lat="40.417050" lon="-5.324483">
        <ele>2512.0</ele>
        <time>2015-07-25T13:31:22Z</time>
      </trkpt>
      <trkpt lat="40.416950" lon="-5.324417">
        <ele>2511.0</ele>
        <time>2015-07-25T13:31:23Z</time>
      </trkpt>
      <trkpt lat="40.416800" lon="-5.324367">
        <ele>2511.0</ele>
        <time>2015-07-25T13:31:24Z</time>
      </trkpt>
      <trkpt lat="40.416650" lon="-5.324367">
        <ele>2512.0</ele>
        <time>2015-07-25T13:31:25Z</time>
      </trkpt>
      <trkpt lat="40.416517" lon="-5.324400">
        <ele>2516.0</ele>
        <time>2015-07-25T13:31:26Z</time>
      </trkpt>
      <trkpt lat="40.416400" lon="-5.324450">
        <ele>2519.0</ele>
        <time>2015-07-25T13:31:27Z</time>
      </trkpt>
      <trkpt lat="40.416283" lon="-5.324517">
        <ele>2522.0</ele>
        <time>2015-07-25T13:31:28Z</time>
      </trkpt>
      <trkpt lat="40.416183" lon="-5.324617">
        <ele>2524.0</ele>
        <time>2015-07-25T13:31:29Z</time>
      </trkpt>
      <trkpt lat="40.416100" lon="-5.324750">
        <ele>2525.0</ele>
        <time>2015-07-25T13:31:30Z</time>
      </trkpt>
      <trkpt lat="40.416050" lon="-5.324883">
        <ele>2525.0</ele>
        <time>2015-07-25T13:31:31Z</time>
      </trkpt>
      <trkpt lat="40.416017" lon="-5.325050">
        <ele>2526.0</ele>
        <time>2015-07-25T13:31:32Z</time>
      </trkpt>
      <trkpt lat="40.416033" lon="-5.325183">
        <ele>2527.0</ele>
        <time>2015-07-25T13:31:33Z</time>
      </trkpt>
      <trkpt lat="40.416083" lon="-5.325283">
        <ele>2527.0</ele>
        <time>2015-07-25T13:31:34Z</time>
      </trkpt>
      <trkpt lat="40.416150" lon="-5.325367">
        <ele>2528.0</ele>
        <time>2015-07-25T13:31:35Z</time>
      </trkpt>
      <trkpt lat="40.416233" lon="-5.325400">
        <ele>2529.0</ele>
        <time>2015-07-25T13:31:36Z</time>
      </trkpt>
      <trkpt lat="40.416317" lon="-5.325433">
        <ele>2529.0</ele>
        <time>2015-07-25T13:31:37Z</time>
      </trkpt>
      <trkpt lat="40.416400" lon="-5.325467">
        <ele>2530.0</ele>
        <time>2015-07-25T13:31:38Z</time>
      </trkpt>
      <trkpt lat="40.416483" lon="-5.325517">
        <ele>2531.0</ele>
        <time>2015-07-25T13:31:39Z</time>
      </trkpt>
      <trkpt lat="40.416533" lon="-5.325600">
        <ele>2532.0</ele>
        <time>2015-07-25T13:31:40Z</time>
      </trkpt>
      <trkpt lat="40.416583" lon="-5.325700">
        <ele>2533.0</ele>
        <time>2015-07-25T13:31:41Z</time>
      </trkpt>
      <trkpt lat="40.416633" lon="-5.325783">
        <ele>2534.0</ele>
        <time>2015-07-25T13:31:42Z</time>
      </trkpt>
      <trkpt lat="40.416667" lon="-5.325883">
        <ele>2535.0</ele>
        <time>2015-07-25T13:31:43Z</time>
      </trkpt>
      <trkpt lat="40.416717" lon="-5.326000">
        <ele>2536.0</ele>
        <time>2015-07-25T13:31:44Z</time>
      </trkpt>
      <trkpt lat="40.416750" lon="-5.326117">
        <ele>2537.0</ele>
        <time>2015-07-25T13:31:45Z</time>
      </trkpt>
      <trkpt lat="40.416800" lon="-5.326233">
        <ele>2538.0</ele>
        <time>2015-07-25T13:31:46Z</time>
      </trkpt>
      <trkpt lat="40.416833" lon="-5.326333">
        <ele>2539.0</ele>
        <time>2015-07-25T13:31:47Z</time>
      </trkpt>
      <trkpt lat="40.416867" lon="-5.326450">
        <ele>2540.0</ele>
        <time>2015-07-25T13:31:48Z</time>
      </trkpt>
      <trkpt lat="40.416917" lon="-5.326550">
        <ele>2539.0</ele>
        <time>2015-07-25T13:31:49Z</time>
      </trkpt>
      <trkpt lat="40.416950" lon="-5.326667">
        <ele>2539.0</ele>
        <time>2015-07-25T13:31:50Z</time>
      </trkpt>
      <trkpt lat="40.417000" lon="-5.326783">
        <ele>2537.0</ele>
        <time>2015-07-25T13:31:51Z</time>
      </trkpt>
      <trkpt lat="40.417050" lon="-5.326900">
        <ele>2537.0</ele>
        <time>2015-07-25T13:31:52Z</time>
      </trkpt>
      <trkpt lat="40.417117" lon="-5.327033">
        <ele>2537.0</ele>
        <time>2015-07-25T13:31:53Z</time>
      </trkpt>
      <trkpt lat="40.417167" lon="-5.327133">
        <ele>2538.0</ele>
        <time>2015-07-25T13:31:54Z</time>
      </trkpt>
      <trkpt lat="40.417217" lon="-5.327233">
        <ele>2539.0</ele>
        <time>2015-07-25T13:31:55Z</time>
      </trkpt>
      <trkpt lat="40.417283" lon="-5.327333">
        <ele>2539.0</ele>
        <time>2015-07-25T13:31:56Z</time>
      </trkpt>
      <trkpt lat="40.417317" lon="-5.327433">
        <ele>2538.0</ele>
        <time>2015-07-25T13:31:57Z</time>
      </trkpt>
      <trkpt lat="40.417333" lon="-5.327533">
        <ele>2536.0</ele>
        <time>2015-07-25T13:31:58Z</time>
      </trkpt>
      <trkpt lat="40.417367" lon="-5.327650">
        <ele>2533.0</ele>
        <time>2015-07-25T13:31:59Z</time>
      </trkpt>
      <trkpt lat="40.417400" lon="-5.327767">
        <ele>2530.0</ele>
        <time>2015-07-25T13:32:00Z</time>
      </trkpt>
      <trkpt lat="40.417450" lon="-5.327883">
        <ele>2526.0</ele>
        <time>2015-07-25T13:32:01Z</time>
      </trkpt>
      <trkpt lat="40.417517" lon="-5.328000">
        <ele>2522.0</ele>
        <time>2015-07-25T13:32:02Z</time>
      </trkpt>
      <trkpt lat="40.417617" lon="-5.328100">
        <ele>2520.0</ele>
        <time>2015-07-25T13:32:03Z</time>
      </trkpt>
      <trkpt lat="40.417700" lon="-5.328183">
        <ele>2520.0</ele>
        <time>2015-07-25T13:32:04Z</time>
      </trkpt>
      <trkpt lat="40.417800" lon="-5.328267">
        <ele>2522.0</ele>
        <time>2015-07-25T13:32:05Z</time>
      </trkpt>
      <trkpt lat="40.417867" lon="-5.328333">
        <ele>2523.0</ele>
        <time>2015-07-25T13:32:06Z</time>
      </trkpt>
      <trkpt lat="40.417917" lon="-5.328400">
        <ele>2523.0</ele>
        <time>2015-07-25T13:32:07Z</time>
      </trkpt>
      <trkpt lat="40.417967" lon="-5.328483">
        <ele>2520.0</ele>
        <time>2015-07-25T13:32:08Z</time>
      </trkpt>
      <trkpt lat="40.418000" lon="-5.328567">
        <ele>2516.0</ele>
        <time>2015-07-25T13:32:09Z</time>
      </trkpt>
      <trkpt lat="40.418067" lon="-5.328650">
        <ele>2513.0</ele>
        <time>2015-07-25T13:32:10Z</time>
      </trkpt>
      <trkpt lat="40.418150" lon="-5.328733">
        <ele>2510.0</ele>
        <time>2015-07-25T13:32:11Z</time>
      </trkpt>
      <trkpt lat="40.418233" lon="-5.328800">
        <ele>2507.0</ele>
        <time>2015-07-25T13:32:12Z</time>
      </trkpt>
      <trkpt lat="40.418317" lon="-5.328883">
        <ele>2505.0</ele>
        <time>2015-07-25T13:32:13Z</time>
      </trkpt>
      <trkpt lat="40.418383" lon="-5.328967">
        <ele>2505.0</ele>
        <time>2015-07-25T13:32:14Z</time>
      </trkpt>
      <trkpt lat="40.418433" lon="-5.329050">
        <ele>2505.0</ele>
        <time>2015-07-25T13:32:15Z</time>
      </trkpt>
      <trkpt lat="40.418483" lon="-5.329133">
        <ele>2504.0</ele>
        <time>2015-07-25T13:32:16Z</time>
      </trkpt>
      <trkpt lat="40.418533" lon="-5.329233">
        <ele>2504.0</ele>
        <time>2015-07-25T13:32:17Z</time>
      </trkpt>
      <trkpt lat="40.418600" lon="-5.329333">
        <ele>2504.0</ele>
        <time>2015-07-25T13:32:18Z</time>
      </trkpt>
      <trkpt lat="40.418667" lon="-5.329450">
        <ele>2503.0</ele>
        <time>2015-07-25T13:32:19Z</time>
      </trkpt>
      <trkpt lat="40.418717" lon="-5.329550">
        <ele>2504.0</ele>
        <time>2015-07-25T13:32:20Z</time>
      </trkpt>
      <trkpt lat="40.418783" lon="-5.329633">
        <ele>2505.0</ele>
        <time>2015-07-25T13:32:21Z</time>
      </trkpt>
      <trkpt lat="40.418817" lon="-5.329717">
        <ele>2505.0</ele>
        <time>2015-07-25T13:32:22Z</time>
      </trkpt>
      <trkpt lat="40.418867" lon="-5.329783">
        <ele>2504.0</ele>
        <time>2015-07-25T13:32:23Z</time>
      </trkpt>
      <trkpt lat="40.418900" lon="-5.329850">
        <ele>2501.0</ele>
        <time>2015-07-25T13:32:24Z</time>
      </trkpt>
      <trkpt lat="40.418950" lon="-5.329933">
        <ele>2498.0</ele>
        <time>2015-07-25T13:32:25Z</time>
      </trkpt>
      <trkpt lat="40.419000" lon="-5.330050">
        <ele>2495.0</ele>
        <time>2015-07-25T13:32:26Z</time>
      </trkpt>
      <trkpt lat="40.419067" lon="-5.330150">
        <ele>2493.0</ele>
        <time>2015-07-25T13:32:27Z</time>
      </trkpt>
      <trkpt lat="40.419133" lon="-5.330250">
        <ele>2491.0</ele>
        <time>2015-07-25T13:32:28Z</time>
      </trkpt>
      <trkpt lat="40.419200" lon="-5.330333">
        <ele>2490.0</ele>
        <time>2015-07-25T13:32:29Z</time>
      </trkpt>
      <trkpt lat="40.419267" lon="-5.330417">
        <ele>2490.0</ele>
        <time>2015-07-25T13:32:30Z</time>
      </trkpt>
      <trkpt lat="40.419300" lon="-5.330483">
        <ele>2488.0</ele>
        <time>2015-07-25T13:32:31Z</time>
      </trkpt>
      <trkpt lat="40.419350" lon="-5.330583">
        <ele>2486.0</ele>
        <time>2015-07-25T13:32:32Z</time>
      </trkpt>
      <trkpt lat="40.419383" lon="-5.330683">
        <ele>2484.0</ele>
        <time>2015-07-25T13:32:33Z</time>
      </trkpt>
      <trkpt lat="40.419433" lon="-5.330800">
        <ele>2483.0</ele>
        <time>2015-07-25T13:32:34Z</time>
      </trkpt>
      <trkpt lat="40.419500" lon="-5.330917">
        <ele>2482.0</ele>
        <time>2015-07-25T13:32:35Z</time>
      </trkpt>
      <trkpt lat="40.419567" lon="-5.331017">
        <ele>2481.0</ele>
        <time>2015-07-25T13:32:36Z</time>
      </trkpt>
      <trkpt lat="40.419633" lon="-5.331117">
        <ele>2480.0</ele>
        <time>2015-07-25T13:32:37Z</time>
      </trkpt>
      <trkpt lat="40.419717" lon="-5.331217">
        <ele>2480.0</ele>
        <time>2015-07-25T13:32:38Z</time>
      </trkpt>
      <trkpt lat="40.419783" lon="-5.331317">
        <ele>2480.0</ele>
        <time>2015-07-25T13:32:39Z</time>
      </trkpt>
      <trkpt lat="40.419867" lon="-5.331400">
        <ele>2480.0</ele>
        <time>2015-07-25T13:32:40Z</time>
      </trkpt>
      <trkpt lat="40.419933" lon="-5.331500">
        <ele>2479.0</ele>
        <time>2015-07-25T13:32:41Z</time>
      </trkpt>
      <trkpt lat="40.420017" lon="-5.331600">
        <ele>2479.0</ele>
        <time>2015-07-25T13:32:42Z</time>
      </trkpt>
      <trkpt lat="40.420083" lon="-5.331683">
        <ele>2478.0</ele>
        <time>2015-07-25T13:32:43Z</time>
      </trkpt>
      <trkpt lat="40.420167" lon="-5.331783">
        <ele>2477.0</ele>
        <time>2015-07-25T13:32:44Z</time>
      </trkpt>
      <trkpt lat="40.420233" lon="-5.331867">
        <ele>2475.0</ele>
        <time>2015-07-25T13:32:45Z</time>
      </trkpt>
      <trkpt lat="40.420300" lon="-5.331967">
        <ele>2474.0</ele>
        <time>2015-07-25T13:32:46Z</time>
      </trkpt>
      <trkpt lat="40.420367" lon="-5.332050">
        <ele>2472.0</ele>
        <time>2015-07-25T13:32:47Z</time>
      </trkpt>
      <trkpt lat="40.420433" lon="-5.332150">
        <ele>2470.0</ele>
        <time>2015-07-25T13:32:48Z</time>
      </trkpt>
      <trkpt lat="40.420500" lon="-5.332250">
        <ele>2469.0</ele>
        <time>2015-07-25T13:32:49Z</time>
      </trkpt>
      <trkpt lat="40.420567" lon="-5.332350">
        <ele>2468.0</ele>
        <time>2015-07-25T13:32:50Z</time>
      </trkpt>
      <trkpt lat="40.420633" lon="-5.332450">
        <ele>2466.0</ele>
        <time>2015-07-25T13:32:51Z</time>
      </trkpt>
      <trkpt lat="40.420700" lon="-5.332550">
        <ele>2465.0</ele>
        <time>2015-07-25T13:32:52Z</time>
      </trkpt>
      <trkpt lat="40.420767" lon="-5.332650">
        <ele>2463.0</ele>
        <time>2015-07-25T13:32:53Z</time>
      </trkpt>
      <trkpt lat="40.420833" lon="-5.332733">
        <ele>2461.0</ele>
        <time>2015-07-25T13:32:54Z</time>
      </trkpt>
      <trkpt lat="40.420883" lon="-5.332833">
        <ele>2459.0</ele>
        <time>2015-07-25T13:32:55Z</time>
      </trkpt>
      <trkpt lat="40.420950" lon="-5.332933">
        <ele>2457.0</ele>
        <time>2015-07-25T13:32:56Z</time>
      </trkpt>
      <trkpt lat="40.421000" lon="-5.333033">
        <ele>2455.0</ele>
        <time>2015-07-25T13:32:57Z</time>
      </trkpt>
      <trkpt lat="40.421067" lon="-5.333150">
        <ele>2454.0</ele>
        <time>2015-07-25T13:32:58Z</time>
      </trkpt>
      <trkpt lat="40.421117" lon="-5.333267">
        <ele>2453.0</ele>
        <time>2015-07-25T13:32:59Z</time>
      </trkpt>
      <trkpt lat="40.421167" lon="-5.333383">
        <ele>2452.0</ele>
        <time>2015-07-25T13:33:00Z</time>
      </trkpt>
      <trkpt lat="40.421200" lon="-5.333483">
        <ele>2450.0</ele>
        <time>2015-07-25T13:33:01Z</time>
      </trkpt>
      <trkpt lat="40.421217" lon="-5.333600">
        <ele>2448.0</ele>
        <time>2015-07-25T13:33:02Z</time>
      </trkpt>
      <trkpt lat="40.421217" lon="-5.333717">
        <ele>2445.0</ele>
        <time>2015-07-25T13:33:03Z</time>
      </trkpt>
      <trkpt lat="40.421217" lon="-5.333850">
        <ele>2443.0</ele>
        <time>2015-07-25T13:33:04Z</time>
      </trkpt>
      <trkpt lat="40.421200" lon="-5.333967">
        <ele>2441.0</ele>
        <time>2015-07-25T13:33:05Z</time>
      </trkpt>
      <trkpt lat="40.421167" lon="-5.334067">
        <ele>2440.0</ele>
        <time>2015-07-25T13:33:06Z</time>
      </trkpt>
      <trkpt lat="40.421117" lon="-5.334167">
        <ele>2438.0</ele>
        <time>2015-07-25T13:33:07Z</time>
      </trkpt>
      <trkpt lat="40.421067" lon="-5.334267">
        <ele>2436.0</ele>
        <time>2015-07-25T13:33:08Z</time>
      </trkpt>
      <trkpt lat="40.421033" lon="-5.334367">
        <ele>2434.0</ele>
        <time>2015-07-25T13:33:09Z</time>
      </trkpt>
      <trkpt lat="40.421000" lon="-5.334467">
        <ele>2432.0</ele>
        <time>2015-07-25T13:33:10Z</time>
      </trkpt>
      <trkpt lat="40.421000" lon="-5.334583">
        <ele>2430.0</ele>
        <time>2015-07-25T13:33:11Z</time>
      </trkpt>
      <trkpt lat="40.421033" lon="-5.334683">
        <ele>2427.0</ele>
        <time>2015-07-25T13:33:12Z</time>
      </trkpt>
      <trkpt lat="40.421100" lon="-5.334767">
        <ele>2423.0</ele>
        <time>2015-07-25T13:33:13Z</time>
      </trkpt>
      <trkpt lat="40.421183" lon="-5.334833">
        <ele>2421.0</ele>
        <time>2015-07-25T13:33:14Z</time>
      </trkpt>
      <trkpt lat="40.421283" lon="-5.334850">
        <ele>2419.0</ele>
        <time>2015-07-25T13:33:15Z</time>
      </trkpt>
      <trkpt lat="40.421367" lon="-5.334850">
        <ele>2418.0</ele>
        <time>2015-07-25T13:33:16Z</time>
      </trkpt>
      <trkpt lat="40.421450" lon="-5.334800">
        <ele>2417.0</ele>
        <time>2015-07-25T13:33:17Z</time>
      </trkpt>
      <trkpt lat="40.421517" lon="-5.334733">
        <ele>2414.0</ele>
        <time>2015-07-25T13:33:18Z</time>
      </trkpt>
      <trkpt lat="40.421567" lon="-5.334633">
        <ele>2411.0</ele>
        <time>2015-07-25T13:33:19Z</time>
      </trkpt>
      <trkpt lat="40.421600" lon="-5.334500">
        <ele>2407.0</ele>
        <time>2015-07-25T13:33:20Z</time>
      </trkpt>
      <trkpt lat="40.421617" lon="-5.334333">
        <ele>2404.0</ele>
        <time>2015-07-25T13:33:21Z</time>
      </trkpt>
      <trkpt lat="40.421617" lon="-5.334183">
        <ele>2401.0</ele>
        <time>2015-07-25T13:33:22Z</time>
      </trkpt>
      <trkpt lat="40.421583" lon="-5.334050">
        <ele>2399.0</ele>
        <time>2015-07-25T13:33:23Z</time>
      </trkpt>
      <trkpt lat="40.421517" lon="-5.333933">
        <ele>2398.0</ele>
        <time>2015-07-25T13:33:24Z</time>
      </trkpt>
      <trkpt lat="40.421450" lon="-5.333833">
        <ele>2397.0</ele>
        <time>2015-07-25T13:33:25Z</time>
      </trkpt>
      <trkpt lat="40.421383" lon="-5.333750">
        <ele>2395.0</ele>
        <time>2015-07-25T13:33:26Z</time>
      </trkpt>
      <trkpt lat="40.421300" lon="-5.333667">
        <ele>2394.0</ele>
        <time>2015-07-25T13:33:27Z</time>
      </trkpt>
      <trkpt lat="40.421233" lon="-5.333583">
        <ele>2392.0</ele>
        <time>2015-07-25T13:33:28Z</time>
      </trkpt>
      <trkpt lat="40.421150" lon="-5.333483">
        <ele>2390.0</ele>
        <time>2015-07-25T13:33:29Z</time>
      </trkpt>
      <trkpt lat="40.421083" lon="-5.333400">
        <ele>2387.0</ele>
        <time>2015-07-25T13:33:30Z</time>
      </trkpt>
      <trkpt lat="40.420983" lon="-5.333333">
        <ele>2385.0</ele>
        <time>2015-07-25T13:33:31Z</time>
      </trkpt>
      <trkpt lat="40.420900" lon="-5.333300">
        <ele>2383.0</ele>
        <time>2015-07-25T13:33:32Z</time>
      </trkpt>
      <trkpt lat="40.420800" lon="-5.333267">
        <ele>2380.0</ele>
        <time>2015-07-25T13:33:33Z</time>
      </trkpt>
      <trkpt lat="40.420700" lon="-5.333267">
        <ele>2379.0</ele>
        <time>2015-07-25T13:33:34Z</time>
      </trkpt>
      <trkpt lat="40.420600" lon="-5.333283">
        <ele>2377.0</ele>
        <time>2015-07-25T13:33:35Z</time>
      </trkpt>
      <trkpt lat="40.420533" lon="-5.333317">
        <ele>2376.0</ele>
        <time>2015-07-25T13:33:36Z</time>
      </trkpt>
      <trkpt lat="40.420450" lon="-5.333367">
        <ele>2373.0</ele>
        <time>2015-07-25T13:33:37Z</time>
      </trkpt>
      <trkpt lat="40.420383" lon="-5.333433">
        <ele>2371.0</ele>
        <time>2015-07-25T13:33:38Z</time>
      </trkpt>
      <trkpt lat="40.420333" lon="-5.333533">
        <ele>2368.0</ele>
        <time>2015-07-25T13:33:39Z</time>
      </trkpt>
      <trkpt lat="40.420283" lon="-5.333633">
        <ele>2366.0</ele>
        <time>2015-07-25T13:33:40Z</time>
      </trkpt>
      <trkpt lat="40.420267" lon="-5.333750">
        <ele>2363.0</ele>
        <time>2015-07-25T13:33:41Z</time>
      </trkpt>
      <trkpt lat="40.420250" lon="-5.333867">
        <ele>2361.0</ele>
        <time>2015-07-25T13:33:42Z</time>
      </trkpt>
      <trkpt lat="40.420250" lon="-5.334000">
        <ele>2359.0</ele>
        <time>2015-07-25T13:33:43Z</time>
      </trkpt>
      <trkpt lat="40.420250" lon="-5.334117">
        <ele>2357.0</ele>
        <time>2015-07-25T13:33:44Z</time>
      </trkpt>
      <trkpt lat="40.420267" lon="-5.334217">
        <ele>2356.0</ele>
        <time>2015-07-25T13:33:45Z</time>
      </trkpt>
      <trkpt lat="40.420300" lon="-5.334300">
        <ele>2355.0</ele>
        <time>2015-07-25T13:33:46Z</time>
      </trkpt>
      <trkpt lat="40.420333" lon="-5.334383">
        <ele>2352.0</ele>
        <time>2015-07-25T13:33:47Z</time>
      </trkpt>
      <trkpt lat="40.420367" lon="-5.334467">
        <ele>2349.0</ele>
        <time>2015-07-25T13:33:48Z</time>
      </trkpt>
      <trkpt lat="40.420417" lon="-5.334567">
        <ele>2345.0</ele>
        <time>2015-07-25T13:33:49Z</time>
      </trkpt>
      <trkpt lat="40.420467" lon="-5.334667">
        <ele>2342.0</ele>
        <time>2015-07-25T13:33:50Z</time>
      </trkpt>
      <trkpt lat="40.420500" lon="-5.334767">
        <ele>2340.0</ele>
        <time>2015-07-25T13:33:51Z</time>
      </trkpt>
      <trkpt lat="40.420567" lon="-5.334867">
        <ele>2339.0</ele>
        <time>2015-07-25T13:33:52Z</time>
      </trkpt>
      <trkpt lat="40.420633" lon="-5.334933">
        <ele>2337.0</ele>
        <time>2015-07-25T13:33:53Z</time>
      </trkpt>
      <trkpt lat="40.420700" lon="-5.334983">
        <ele>2335.0</ele>
        <time>2015-07-25T13:33:54Z</time>
      </trkpt>
      <trkpt lat="40.420767" lon="-5.335050">
        <ele>2333.0</ele>
        <time>2015-07-25T13:33:55Z</time>
      </trkpt>
      <trkpt lat="40.420817" lon="-5.335117">
        <ele>2330.0</ele>
        <time>2015-07-25T13:33:56Z</time>
      </trkpt>
      <trkpt lat="40.420883" lon="-5.335200">
        <ele>2326.0</ele>
        <time>2015-07-25T13:33:57Z</time>
      </trkpt>
      <trkpt lat="40.420950" lon="-5.335300">
        <ele>2323.0</ele>
        <time>2015-07-25T13:33:58Z</time>
      </trkpt>
      <trkpt lat="40.421017" lon="-5.335400">
        <ele>2320.0</ele>
        <time>2015-07-25T13:33:59Z</time>
      </trkpt>
      <trkpt lat="40.421083" lon="-5.335517">
        <ele>2317.0</ele>
        <time>2015-07-25T13:34:00Z</time>
      </trkpt>
      <trkpt lat="40.421150" lon="-5.335600">
        <ele>2315.0</ele>
        <time>2015-07-25T13:34:01Z</time>
      </trkpt>
      <trkpt lat="40.421233" lon="-5.335683">
        <ele>2314.0</ele>
        <time>2015-07-25T13:34:02Z</time>
      </trkpt>
      <trkpt lat="40.421300" lon="-5.335750">
        <ele>2311.0</ele>
        <time>2015-07-25T13:34:03Z</time>
      </trkpt>
      <trkpt lat="40.421350" lon="-5.335833">
        <ele>2308.0</ele>
        <time>2015-07-25T13:34:04Z</time>
      </trkpt>
      <trkpt lat="40.421417" lon="-5.335933">
        <ele>2304.0</ele>
        <time>2015-07-25T13:34:05Z</time>
      </trkpt>
      <trkpt lat="40.421483" lon="-5.336033">
        <ele>2300.0</ele>
        <time>2015-07-25T13:34:06Z</time>
      </trkpt>
      <trkpt lat="40.421550" lon="-5.336133">
        <ele>2297.0</ele>
        <time>2015-07-25T13:34:07Z</time>
      </trkpt>
      <trkpt lat="40.421617" lon="-5.336200">
        <ele>2294.0</ele>
        <time>2015-07-25T13:34:08Z</time>
      </trkpt>
      <trkpt lat="40.421667" lon="-5.336267">
        <ele>2292.0</ele>
        <time>2015-07-25T13:34:09Z</time>
      </trkpt>
      <trkpt lat="40.421733" lon="-5.336333">
        <ele>2288.0</ele>
        <time>2015-07-25T13:34:10Z</time>
      </trkpt>
      <trkpt lat="40.421800" lon="-5.336400">
        <ele>2285.0</ele>
        <time>2015-07-25T13:34:11Z</time>
      </trkpt>
      <trkpt lat="40.421850" lon="-5.336483">
        <ele>2282.0</ele>
        <time>2015-07-25T13:34:12Z</time>
      </trkpt>
      <trkpt lat="40.421900" lon="-5.336567">
        <ele>2280.0</ele>
        <time>2015-07-25T13:34:13Z</time>
      </trkpt>
      <trkpt lat="40.421950" lon="-5.336650">
        <ele>2278.0</ele>
        <time>2015-07-25T13:34:14Z</time>
      </trkpt>
      <trkpt lat="40.422017" lon="-5.336717">
        <ele>2275.0</ele>
        <time>2015-07-25T13:34:15Z</time>
      </trkpt>
      <trkpt lat="40.422083" lon="-5.336783">
        <ele>2274.0</ele>
        <time>2015-07-25T13:34:16Z</time>
      </trkpt>
      <trkpt lat="40.422150" lon="-5.336850">
        <ele>2272.0</ele>
        <time>2015-07-25T13:34:17Z</time>
      </trkpt>
      <trkpt lat="40.422200" lon="-5.336933">
        <ele>2271.0</ele>
        <time>2015-07-25T13:34:18Z</time>
      </trkpt>
      <trkpt lat="40.422267" lon="-5.337017">
        <ele>2269.0</ele>
        <time>2015-07-25T13:34:19Z</time>
      </trkpt>
      <trkpt lat="40.422317" lon="-5.337100">
        <ele>2268.0</ele>
        <time>2015-07-25T13:34:20Z</time>
      </trkpt>
      <trkpt lat="40.422367" lon="-5.337200">
        <ele>2266.0</ele>
        <time>2015-07-25T13:34:21Z</time>
      </trkpt>
      <trkpt lat="40.422417" lon="-5.337283">
        <ele>2265.0</ele>
        <time>2015-07-25T13:34:22Z</time>
      </trkpt>
      <trkpt lat="40.422483" lon="-5.337367">
        <ele>2264.0</ele>
        <time>2015-07-25T13:34:23Z</time>
      </trkpt>
      <trkpt lat="40.422533" lon="-5.337450">
        <ele>2263.0</ele>
        <time>2015-07-25T13:34:24Z</time>
      </trkpt>
      <trkpt lat="40.422600" lon="-5.337517">
        <ele>2263.0</ele>
        <time>2015-07-25T13:34:25Z</time>
      </trkpt>
      <trkpt lat="40.422650" lon="-5.337600">
        <ele>2262.0</ele>
        <time>2015-07-25T13:34:26Z</time>
      </trkpt>
      <trkpt lat="40.422683" lon="-5.337700">
        <ele>2261.0</ele>
        <time>2015-07-25T13:34:27Z</time>
      </trkpt>
      <trkpt lat="40.422733" lon="-5.337783">
        <ele>2259.0</ele>
        <time>2015-07-25T13:34:28Z</time>
      </trkpt>
      <trkpt lat="40.422783" lon="-5.337867">
        <ele>2257.0</ele>
        <time>2015-07-25T13:34:29Z</time>
      </trkpt>
      <trkpt lat="40.422833" lon="-5.337933">
        <ele>2255.0</ele>
        <time>2015-07-25T13:34:30Z</time>
      </trkpt>
      <trkpt lat="40.422883" lon="-5.338017">
        <ele>2253.0</ele>
        <time>2015-07-25T13:34:31Z</time>
      </trkpt>
      <trkpt lat="40.422933" lon="-5.338117">
        <ele>2251.0</ele>
        <time>2015-07-25T13:34:32Z</time>
      </trkpt>
      <trkpt lat="40.422967" lon="-5.338217">
        <ele>2249.0</ele>
        <time>2015-07-25T13:34:33Z</time>
      </trkpt>
      <trkpt lat="40.423000" lon="-5.338317">
        <ele>2247.0</ele>
        <time>2015-07-25T13:34:34Z</time>
      </trkpt>
      <trkpt lat="40.423033" lon="-5.338433">
        <ele>2246.0</ele>
        <time>2015-07-25T13:34:35Z</time>
      </trkpt>
      <trkpt lat="40.423083" lon="-5.338517">
        <ele>2246.0</ele>
        <time>2015-07-25T13:34:36Z</time>
      </trkpt>
      <trkpt lat="40.423117" lon="-5.338583">
        <ele>2246.0</ele>
        <time>2015-07-25T13:34:37Z</time>
      </trkpt>
      <trkpt lat="40.423150" lon="-5.338650">
        <ele>2244.0</ele>
        <time>2015-07-25T13:34:38Z</time>
      </trkpt>
      <trkpt lat="40.423183" lon="-5.338717">
        <ele>2241.0</ele>
        <time>2015-07-25T13:34:39Z</time>
      </trkpt>
      <trkpt lat="40.423233" lon="-5.338817">
        <ele>2237.0</ele>
        <time>2015-07-25T13:34:40Z</time>
      </trkpt>
      <trkpt lat="40.423300" lon="-5.338900">
        <ele>2233.0</ele>
        <time>2015-07-25T13:34:41Z</time>
      </trkpt>
      <trkpt lat="40.423367" lon="-5.338983">
        <ele>2231.0</ele>
        <time>2015-07-25T13:34:42Z</time>
      </trkpt>
      <trkpt lat="40.423417" lon="-5.339050">
        <ele>2228.0</ele>
        <time>2015-07-25T13:34:43Z</time>
      </trkpt>
      <trkpt lat="40.423483" lon="-5.339117">
        <ele>2227.0</ele>
        <time>2015-07-25T13:34:44Z</time>
      </trkpt>
      <trkpt lat="40.423550" lon="-5.339167">
        <ele>2225.0</ele>
        <time>2015-07-25T13:34:45Z</time>
      </trkpt>
      <trkpt lat="40.423617" lon="-5.339233">
        <ele>2223.0</ele>
        <time>2015-07-25T13:34:46Z</time>
      </trkpt>
      <trkpt lat="40.423683" lon="-5.339317">
        <ele>2221.0</ele>
        <time>2015-07-25T13:34:47Z</time>
      </trkpt>
      <trkpt lat="40.423733" lon="-5.339383">
        <ele>2219.0</ele>
        <time>2015-07-25T13:34:48Z</time>
      </trkpt>
      <trkpt lat="40.423800" lon="-5.339467">
        <ele>2218.0</ele>
        <time>2015-07-25T13:34:49Z</time>
      </trkpt>
      <trkpt lat="40.423867" lon="-5.339550">
        <ele>2217.0</ele>
        <time>2015-07-25T13:34:50Z</time>
      </trkpt>
      <trkpt lat="40.423917" lon="-5.339633">
        <ele>2217.0</ele>
        <time>2015-07-25T13:34:51Z</time>
      </trkpt>
      <trkpt lat="40.423983" lon="-5.339683">
        <ele>2217.0</ele>
        <time>2015-07-25T13:34:52Z</time>
      </trkpt>
      <trkpt lat="40.424050" lon="-5.339733">
        <ele>2216.0</ele>
        <time>2015-07-25T13:34:53Z</time>
      </trkpt>
      <trkpt lat="40.424117" lon="-5.339800">
        <ele>2216.0</ele>
        <time>2015-07-25T13:34:54Z</time>
      </trkpt>
      <trkpt lat="40.424200" lon="-5.339850">
        <ele>2215.0</ele>
        <time>2015-07-25T13:34:55Z</time>
      </trkpt>
      <trkpt lat="40.424267" lon="-5.339933">
        <ele>2216.0</ele>
        <time>2015-07-25T13:34:56Z</time>
      </trkpt>
      <trkpt lat="40.424317" lon="-5.340000">
        <ele>2217.0</ele>
        <time>2015-07-25T13:34:57Z</time>
      </trkpt>
      <trkpt lat="40.424367" lon="-5.340083">
        <ele>2217.0</ele>
        <time>2015-07-25T13:34:58Z</time>
      </trkpt>
      <trkpt lat="40.424417" lon="-5.340133">
        <ele>2217.0</ele>
        <time>2015-07-25T13:34:59Z</time>
      </trkpt>
      <trkpt lat="40.424467" lon="-5.340183">
        <ele>2217.0</ele>
        <time>2015-07-25T13:35:00Z</time>
      </trkpt>
      <trkpt lat="40.424533" lon="-5.340233">
        <ele>2216.0</ele>
        <time>2015-07-25T13:35:01Z</time>
      </trkpt>
      <trkpt lat="40.424600" lon="-5.340300">
        <ele>2215.0</ele>
        <time>2015-07-25T13:35:02Z</time>
      </trkpt>
      <trkpt lat="40.424667" lon="-5.340383">
        <ele>2215.0</ele>
        <time>2015-07-25T13:35:03Z</time>
      </trkpt>
      <trkpt lat="40.424733" lon="-5.340450">
        <ele>2217.0</ele>
        <time>2015-07-25T13:35:04Z</time>
      </trkpt>
      <trkpt lat="40.424783" lon="-5.340500">
        <ele>2218.0</ele>
        <time>2015-07-25T13:35:05Z</time>
      </trkpt>
      <trkpt lat="40.424833" lon="-5.340550">
        <ele>2219.0</ele>
        <time>2015-07-25T13:35:06Z</time>
      </trkpt>
      <trkpt lat="40.424867" lon="-5.340600">
        <ele>2219.0</ele>
        <time>2015-07-25T13:35:07Z</time>
      </trkpt>
      <trkpt lat="40.424917" lon="-5.340667">
        <ele>2218.0</ele>
        <time>2015-07-25T13:35:08Z</time>
      </trkpt>
      <trkpt lat="40.424967" lon="-5.340717">
        <ele>2217.0</ele>
        <time>2015-07-25T13:35:09Z</time>
      </trkpt>
      <trkpt lat="40.425000" lon="-5.340783">
        <ele>2216.0</ele>
        <time>2015-07-25T13:35:10Z</time>
      </trkpt>
      <trkpt lat="40.425050" lon="-5.340850">
        <ele>2215.0</ele>
        <time>2015-07-25T13:35:11Z</time>
      </trkpt>
      <trkpt lat="40.425100" lon="-5.340933">
        <ele>2213.0</ele>
        <time>2015-07-25T13:35:12Z</time>
      </trkpt>
      <trkpt lat="40.425150" lon="-5.341017">
        <ele>2212.0</ele>
        <time>2015-07-25T13:35:13Z</time>
      </trkpt>
      <trkpt lat="40.425183" lon="-5.341117">
        <ele>2213.0</ele>
        <time>2015-07-25T13:35:14Z</time>
      </trkpt>
      <trkpt lat="40.425233" lon="-5.341200">
        <ele>2217.0</ele>
        <time>2015-07-25T13:35:15Z</time>
      </trkpt>
      <trkpt lat="40.425283" lon="-5.341267">
        <ele>2221.0</ele>
        <time>2015-07-25T13:35:16Z</time>
      </trkpt>
      <trkpt lat="40.425317" lon="-5.341317">
        <ele>2224.0</ele>
        <time>2015-07-25T13:35:17Z</time>
      </trkpt>
      <trkpt lat="40.425367" lon="-5.341350">
        <ele>2226.0</ele>
        <time>2015-07-25T13:35:18Z</time>
      </trkpt>
      <trkpt lat="40.425400" lon="-5.341400">
        <ele>2227.0</ele>
        <time>2015-07-25T13:35:19Z</time>
      </trkpt>
      <trkpt lat="40.425433" lon="-5.341467">
        <ele>2227.0</ele>
        <time>2015-07-25T13:35:20Z</time>
      </trkpt>
      <trkpt lat="40.425417" lon="-5.341550">
        <ele>2227.0</ele>
        <time>2015-07-25T13:35:21Z</time>
      </trkpt>
      <trkpt lat="40.425383" lon="-5.341650">
        <ele>2226.0</ele>
        <time>2015-07-25T13:35:22Z</time>
      </trkpt>
      <trkpt lat="40.425300" lon="-5.341733">
        <ele>2227.0</ele>
        <time>2015-07-25T13:35:23Z</time>
      </trkpt>
      <trkpt lat="40.425200" lon="-5.341767">
        <ele>2228.0</ele>
        <time>2015-07-25T13:35:24Z</time>
      </trkpt>
      <trkpt lat="40.425100" lon="-5.341750">
        <ele>2230.0</ele>
        <time>2015-07-25T13:35:25Z</time>
      </trkpt>
      <trkpt lat="40.425017" lon="-5.341667">
        <ele>2233.0</ele>
        <time>2015-07-25T13:35:26Z</time>
      </trkpt>
      <trkpt lat="40.424983" lon="-5.341550">
        <ele>2235.0</ele>
        <time>2015-07-25T13:35:27Z</time>
      </trkpt>
      <trkpt lat="40.424967" lon="-5.341417">
        <ele>2236.0</ele>
        <time>2015-07-25T13:35:28Z</time>
      </trkpt>
      <trkpt lat="40.424967" lon="-5.341267">
        <ele>2238.0</ele>
        <time>2015-07-25T13:35:29Z</time>
      </trkpt>
      <trkpt lat="40.425000" lon="-5.341117">
        <ele>2240.0</ele>
        <time>2015-07-25T13:35:30Z</time>
      </trkpt>
      <trkpt lat="40.425067" lon="-5.341000">
        <ele>2242.0</ele>
        <time>2015-07-25T13:35:31Z</time>
      </trkpt>
      <trkpt lat="40.425150" lon="-5.340933">
        <ele>2243.0</ele>
        <time>2015-07-25T13:35:32Z</time>
      </trkpt>
      <trkpt lat="40.425233" lon="-5.340917">
        <ele>2243.0</ele>
        <time>2015-07-25T13:35:33Z</time>
      </trkpt>
      <trkpt lat="40.425317" lon="-5.340967">
        <ele>2244.0</ele>
        <time>2015-07-25T13:35:34Z</time>
      </trkpt>
      <trkpt lat="40.425367" lon="-5.341050">
        <ele>2246.0</ele>
        <time>2015-07-25T13:35:35Z</time>
      </trkpt>
      <trkpt lat="40.425400" lon="-5.341150">
        <ele>2248.0</ele>
        <time>2015-07-25T13:35:36Z</time>
      </trkpt>
      <trkpt lat="40.425400" lon="-5.341267">
        <ele>2250.0</ele>
        <time>2015-07-25T13:35:37Z</time>
      </trkpt>
      <trkpt lat="40.425350" lon="-5.341383">
        <ele>2250.0</ele>
        <time>2015-07-25T13:35:38Z</time>
      </trkpt>
      <trkpt lat="40.425250" lon="-5.341450">
        <ele>2250.0</ele>
        <time>2015-07-25T13:35:39Z</time>
      </trkpt>
      <trkpt lat="40.425150" lon="-5.341450">
        <ele>2251.0</ele>
        <time>2015-07-25T13:35:40Z</time>
      </trkpt>
      <trkpt lat="40.425067" lon="-5.341383">
        <ele>2254.0</ele>
        <time>2015-07-25T13:35:41Z</time>
      </trkpt>
      <trkpt lat="40.425017" lon="-5.341267">
        <ele>2255.0</ele>
        <time>2015-07-25T13:35:42Z</time>
      </trkpt>
      <trkpt lat="40.424983" lon="-5.341133">
        <ele>2257.0</ele>
        <time>2015-07-25T13:35:43Z</time>
      </trkpt>
      <trkpt lat="40.425000" lon="-5.341000">
        <ele>2258.0</ele>
        <time>2015-07-25T13:35:44Z</time>
      </trkpt>
      <trkpt lat="40.425033" lon="-5.340883">
        <ele>2259.0</ele>
        <time>2015-07-25T13:35:45Z</time>
      </trkpt>
      <trkpt lat="40.425117" lon="-5.340783">
        <ele>2258.0</ele>
        <time>2015-07-25T13:35:46Z</time>
      </trkpt>
      <trkpt lat="40.425200" lon="-5.340733">
        <ele>2258.0</ele>
        <time>2015-07-25T13:35:47Z</time>
      </trkpt>
      <trkpt lat="40.425317" lon="-5.340733">
        <ele>2258.0</ele>
        <time>2015-07-25T13:35:48Z</time>
      </trkpt>
      <trkpt lat="40.425400" lon="-5.340783">
        <ele>2260.0</ele>
        <time>2015-07-25T13:35:49Z</time>
      </trkpt>
      <trkpt lat="40.425483" lon="-5.340850">
        <ele>2263.0</ele>
        <time>2015-07-25T13:35:50Z</time>
      </trkpt>
      <trkpt lat="40.425533" lon="-5.340900">
        <ele>2267.0</ele>
        <time>2015-07-25T13:35:51Z</time>
      </trkpt>
      <trkpt lat="40.425567" lon="-5.340967">
        <ele>2270.0</ele>
        <time>2015-07-25T13:35:52Z</time>
      </trkpt>
      <trkpt lat="40.425600" lon="-5.341033">
        <ele>2271.0</ele>
        <time>2015-07-25T13:35:53Z</time>
      </trkpt>
      <trkpt lat="40.425617" lon="-5.341117">
        <ele>2271.0</ele>
        <time>2015-07-25T13:35:54Z</time>
      </trkpt>
      <trkpt lat="40.425617" lon="-5.341200">
        <ele>2271.0</ele>
        <time>2015-07-25T13:35:55Z</time>
      </trkpt>
      <trkpt lat="40.425583" lon="-5.341283">
        <ele>2270.0</ele>
        <time>2015-07-25T13:35:56Z</time>
      </trkpt>
      <trkpt lat="40.425500" lon="-5.341367">
        <ele>2269.0</ele>
        <time>2015-07-25T13:35:57Z</time>
      </trkpt>
      <trkpt lat="40.425383" lon="-5.341400">
        <ele>2267.0</ele>
        <time>2015-07-25T13:35:58Z</time>
      </trkpt>
      <trkpt lat="40.425283" lon="-5.341367">
        <ele>2266.0</ele>
        <time>2015-07-25T13:35:59Z</time>
      </trkpt>
      <trkpt lat="40.425200" lon="-5.341283">
        <ele>2265.0</ele>
        <time>2015-07-25T13:36:00Z</time>
      </trkpt>
      <trkpt lat="40.425150" lon="-5.341133">
        <ele>2264.0</ele>
        <time>2015-07-25T13:36:01Z</time>
      </trkpt>
      <trkpt lat="40.425150" lon="-5.340950">
        <ele>2263.0</ele>
        <time>2015-07-25T13:36:02Z</time>
      </trkpt>
      <trkpt lat="40.425183" lon="-5.340800">
        <ele>2264.0</ele>
        <time>2015-07-25T13:36:03Z</time>
      </trkpt>
      <trkpt lat="40.425233" lon="-5.340667">
        <ele>2266.0</ele>
        <time>2015-07-25T13:36:04Z</time>
      </trkpt>
      <trkpt lat="40.425300" lon="-5.340550">
        <ele>2267.0</ele>
        <time>2015-07-25T13:36:05Z</time>
      </trkpt>
      <trkpt lat="40.425350" lon="-5.340433">
        <ele>2269.0</ele>
        <time>2015-07-25T13:36:06Z</time>
      </trkpt>
      <trkpt lat="40.425383" lon="-5.340317">
        <ele>2270.0</ele>
        <time>2015-07-25T13:36:07Z</time>
      </trkpt>
      <trkpt lat="40.425433" lon="-5.340183">
        <ele>2272.0</ele>
        <time>2015-07-25T13:36:08Z</time>
      </trkpt>
      <trkpt lat="40.425467" lon="-5.340067">
        <ele>2275.0</ele>
        <time>2015-07-25T13:36:09Z</time>
      </trkpt>
      <trkpt lat="40.425517" lon="-5.339967">
        <ele>2277.0</ele>
        <time>2015-07-25T13:36:10Z</time>
      </trkpt>
      <trkpt lat="40.425567" lon="-5.339867">
        <ele>2278.0</ele>
        <time>2015-07-25T13:36:11Z</time>
      </trkpt>
      <trkpt lat="40.425633" lon="-5.339767">
        <ele>2277.0</ele>
        <time>2015-07-25T13:36:12Z</time>
      </trkpt>
      <trkpt lat="40.425700" lon="-5.339683">
        <ele>2277.0</ele>
        <time>2015-07-25T13:36:13Z</time>
      </trkpt>
      <trkpt lat="40.425783" lon="-5.339617">
        <ele>2277.0</ele>
        <time>2015-07-25T13:36:14Z</time>
      </trkpt>
      <trkpt lat="40.425867" lon="-5.339583">
        <ele>2277.0</ele>
        <time>2015-07-25T13:36:15Z</time>
      </trkpt>
      <trkpt lat="40.425950" lon="-5.339583">
        <ele>2277.0</ele>
        <time>2015-07-25T13:36:16Z</time>
      </trkpt>
      <trkpt lat="40.426033" lon="-5.339600">
        <ele>2276.0</ele>
        <time>2015-07-25T13:36:17Z</time>
      </trkpt>
      <trkpt lat="40.426100" lon="-5.339667">
        <ele>2276.0</ele>
        <time>2015-07-25T13:36:18Z</time>
      </trkpt>
      <trkpt lat="40.426150" lon="-5.339733">
        <ele>2276.0</ele>
        <time>2015-07-25T13:36:19Z</time>
      </trkpt>
      <trkpt lat="40.426183" lon="-5.339833">
        <ele>2276.0</ele>
        <time>2015-07-25T13:36:20Z</time>
      </trkpt>
      <trkpt lat="40.426200" lon="-5.339917">
        <ele>2277.0</ele>
        <time>2015-07-25T13:36:21Z</time>
      </trkpt>
      <trkpt lat="40.426233" lon="-5.340017">
        <ele>2277.0</ele>
        <time>2015-07-25T13:36:22Z</time>
      </trkpt>
      <trkpt lat="40.426250" lon="-5.340100">
        <ele>2276.0</ele>
        <time>2015-07-25T13:36:23Z</time>
      </trkpt>
      <trkpt lat="40.426283" lon="-5.340200">
        <ele>2276.0</ele>
        <time>2015-07-25T13:36:24Z</time>
      </trkpt>
      <trkpt lat="40.426317" lon="-5.340283">
        <ele>2276.0</ele>
        <time>2015-07-25T13:36:25Z</time>
      </trkpt>
      <trkpt lat="40.426333" lon="-5.340383">
        <ele>2275.0</ele>
        <time>2015-07-25T13:36:26Z</time>
      </trkpt>
      <trkpt lat="40.426367" lon="-5.340467">
        <ele>2274.0</ele>
        <time>2015-07-25T13:36:27Z</time>
      </trkpt>
      <trkpt lat="40.426383" lon="-5.340567">
        <ele>2273.0</ele>
        <time>2015-07-25T13:36:28Z</time>
      </trkpt>
      <trkpt lat="40.426400" lon="-5.340667">
        <ele>2271.0</ele>
        <time>2015-07-25T13:36:29Z</time>
      </trkpt>
      <trkpt lat="40.426433" lon="-5.340767">
        <ele>2269.0</ele>
        <time>2015-07-25T13:36:30Z</time>
      </trkpt>
      <trkpt lat="40.426483" lon="-5.340883">
        <ele>2268.0</ele>
        <time>2015-07-25T13:36:31Z</time>
      </trkpt>
      <trkpt lat="40.426533" lon="-5.340983">
        <ele>2266.0</ele>
        <time>2015-07-25T13:36:32Z</time>
      </trkpt>
      <trkpt lat="40.426583" lon="-5.341083">
        <ele>2264.0</ele>
        <time>2015-07-25T13:36:33Z</time>
      </trkpt>
      <trkpt lat="40.426633" lon="-5.341183">
        <ele>2263.0</ele>
        <time>2015-07-25T13:36:34Z</time>
      </trkpt>
      <trkpt lat="40.426667" lon="-5.341267">
        <ele>2262.0</ele>
        <time>2015-07-25T13:36:35Z</time>
      </trkpt>
      <trkpt lat="40.426700" lon="-5.341367">
        <ele>2260.0</ele>
        <time>2015-07-25T13:36:36Z</time>
      </trkpt>
      <trkpt lat="40.426717" lon="-5.341467">
        <ele>2258.0</ele>
        <time>2015-07-25T13:36:37Z</time>
      </trkpt>
      <trkpt lat="40.426767" lon="-5.341567">
        <ele>2256.0</ele>
        <time>2015-07-25T13:36:38Z</time>
      </trkpt>
      <trkpt lat="40.426800" lon="-5.341667">
        <ele>2253.0</ele>
        <time>2015-07-25T13:36:39Z</time>
      </trkpt>
      <trkpt lat="40.426850" lon="-5.341767">
        <ele>2252.0</ele>
        <time>2015-07-25T13:36:40Z</time>
      </trkpt>
      <trkpt lat="40.426867" lon="-5.341867">
        <ele>2250.0</ele>
        <time>2015-07-25T13:36:41Z</time>
      </trkpt>
      <trkpt lat="40.426883" lon="-5.341967">
        <ele>2248.0</ele>
        <time>2015-07-25T13:36:42Z</time>
      </trkpt>
      <trkpt lat="40.426883" lon="-5.342067">
        <ele>2247.0</ele>
        <time>2015-07-25T13:36:43Z</time>
      </trkpt>
      <trkpt lat="40.426867" lon="-5.342167">
        <ele>2245.0</ele>
        <time>2015-07-25T13:36:44Z</time>
      </trkpt>
      <trkpt lat="40.426867" lon="-5.342267">
        <ele>2243.0</ele>
        <time>2015-07-25T13:36:45Z</time>
      </trkpt>
      <trkpt lat="40.426867" lon="-5.342383">
        <ele>2241.0</ele>
        <time>2015-07-25T13:36:46Z</time>
      </trkpt>
      <trkpt lat="40.426867" lon="-5.342500">
        <ele>2240.0</ele>
        <time>2015-07-25T13:36:47Z</time>
      </trkpt>
      <trkpt lat="40.426850" lon="-5.342600">
        <ele>2240.0</ele>
        <time>2015-07-25T13:36:48Z</time>
      </trkpt>
      <trkpt lat="40.426850" lon="-5.342700">
        <ele>2239.0</ele>
        <time>2015-07-25T13:36:49Z</time>
      </trkpt>
      <trkpt lat="40.426850" lon="-5.342800">
        <ele>2239.0</ele>
        <time>2015-07-25T13:36:50Z</time>
      </trkpt>
      <trkpt lat="40.426850" lon="-5.342900">
        <ele>2238.0</ele>
        <time>2015-07-25T13:36:51Z</time>
      </trkpt>
      <trkpt lat="40.426850" lon="-5.343000">
        <ele>2236.0</ele>
        <time>2015-07-25T13:36:52Z</time>
      </trkpt>
      <trkpt lat="40.426850" lon="-5.343117">
        <ele>2235.0</ele>
        <time>2015-07-25T13:36:53Z</time>
      </trkpt>
      <trkpt lat="40.426867" lon="-5.343233">
        <ele>2234.0</ele>
        <time>2015-07-25T13:36:54Z</time>
      </trkpt>
      <trkpt lat="40.426867" lon="-5.343333">
        <ele>2233.0</ele>
        <time>2015-07-25T13:36:55Z</time>
      </trkpt>
      <trkpt lat="40.426850" lon="-5.343450">
        <ele>2233.0</ele>
        <time>2015-07-25T13:36:56Z</time>
      </trkpt>
      <trkpt lat="40.426850" lon="-5.343550">
        <ele>2232.0</ele>
        <time>2015-07-25T13:36:57Z</time>
      </trkpt>
      <trkpt lat="40.426850" lon="-5.343650">
        <ele>2231.0</ele>
        <time>2015-07-25T13:36:58Z</time>
      </trkpt>
      <trkpt lat="40.426850" lon="-5.343767">
        <ele>2230.0</ele>
        <time>2015-07-25T13:36:59Z</time>
      </trkpt>
      <trkpt lat="40.426850" lon="-5.343883">
        <ele>2229.0</ele>
        <time>2015-07-25T13:37:00Z</time>
      </trkpt>
      <trkpt lat="40.426850" lon="-5.344000">
        <ele>2228.0</ele>
        <time>2015-07-25T13:37:01Z</time>
      </trkpt>
      <trkpt lat="40.426850" lon="-5.344100">
        <ele>2227.0</ele>
        <time>2015-07-25T13:37:02Z</time>
      </trkpt>
      <trkpt lat="40.426850" lon="-5.344217">
        <ele>2226.0</ele>
        <time>2015-07-25T13:37:03Z</time>
      </trkpt>
      <trkpt lat="40.426850" lon="-5.344317">
        <ele>2225.0</ele>
        <time>2015-07-25T13:37:04Z</time>
      </trkpt>
      <trkpt lat="40.426850" lon="-5.344417">
        <ele>2223.0</ele>
        <time>2015-07-25T13:37:05Z</time>
      </trkpt>
      <trkpt lat="40.426850" lon="-5.344517">
        <ele>2221.0</ele>
        <time>2015-07-25T13:37:06Z</time>
      </trkpt>
      <trkpt lat="40.426867" lon="-5.344633">
        <ele>2218.0</ele>
        <time>2015-07-25T13:37:07Z</time>
      </trkpt>
      <trkpt lat="40.426867" lon="-5.344750">
        <ele>2216.0</ele>
        <time>2015-07-25T13:37:08Z</time>
      </trkpt>
      <trkpt lat="40.426867" lon="-5.344867">
        <ele>2213.0</ele>
        <time>2015-07-25T13:37:09Z</time>
      </trkpt>
      <trkpt lat="40.426883" lon="-5.344967">
        <ele>2212.0</ele>
        <time>2015-07-25T13:37:10Z</time>
      </trkpt>
      <trkpt lat="40.426883" lon="-5.345067">
        <ele>2211.0</ele>
        <time>2015-07-25T13:37:11Z</time>
      </trkpt>
      <trkpt lat="40.426900" lon="-5.345167">
        <ele>2210.0</ele>
        <time>2015-07-25T13:37:12Z</time>
      </trkpt>
      <trkpt lat="40.426900" lon="-5.345250">
        <ele>2208.0</ele>
        <time>2015-07-25T13:37:13Z</time>
      </trkpt>
      <trkpt lat="40.426917" lon="-5.345333">
        <ele>2206.0</ele>
        <time>2015-07-25T13:37:14Z</time>
      </trkpt>
      <trkpt lat="40.426933" lon="-5.345417">
        <ele>2204.0</ele>
        <time>2015-07-25T13:37:15Z</time>
      </trkpt>
      <trkpt lat="40.426933" lon="-5.345517">
        <ele>2201.0</ele>
        <time>2015-07-25T13:37:16Z</time>
      </trkpt>
      <trkpt lat="40.426950" lon="-5.345633">
        <ele>2199.0</ele>
        <time>2015-07-25T13:37:17Z</time>
      </trkpt>
      <trkpt lat="40.426967" lon="-5.345733">
        <ele>2197.0</ele>
        <time>2015-07-25T13:37:18Z</time>
      </trkpt>
      <trkpt lat="40.426983" lon="-5.345850">
        <ele>2195.0</ele>
        <time>2015-07-25T13:37:19Z</time>
      </trkpt>
      <trkpt lat="40.427000" lon="-5.345950">
        <ele>2193.0</ele>
        <time>2015-07-25T13:37:20Z</time>
      </trkpt>
      <trkpt lat="40.427000" lon="-5.346050">
        <ele>2192.0</ele>
        <time>2015-07-25T13:37:21Z</time>
      </trkpt>
      <trkpt lat="40.427017" lon="-5.346167">
        <ele>2190.0</ele>
        <time>2015-07-25T13:37:22Z</time>
      </trkpt>
      <trkpt lat="40.427017" lon="-5.346267">
        <ele>2188.0</ele>
        <time>2015-07-25T13:37:23Z</time>
      </trkpt>
      <trkpt lat="40.427017" lon="-5.346367">
        <ele>2186.0</ele>
        <time>2015-07-25T13:37:24Z</time>
      </trkpt>
      <trkpt lat="40.427017" lon="-5.346483">
        <ele>2183.0</ele>
        <time>2015-07-25T13:37:25Z</time>
      </trkpt>
      <trkpt lat="40.426983" lon="-5.346583">
        <ele>2181.0</ele>
        <time>2015-07-25T13:37:26Z</time>
      </trkpt>
      <trkpt lat="40.426967" lon="-5.346683">
        <ele>2179.0</ele>
        <time>2015-07-25T13:37:27Z</time>
      </trkpt>
      <trkpt lat="40.426967" lon="-5.346767">
        <ele>2177.0</ele>
        <time>2015-07-25T13:37:28Z</time>
      </trkpt>
      <trkpt lat="40.426967" lon="-5.346867">
        <ele>2175.0</ele>
        <time>2015-07-25T13:37:29Z</time>
      </trkpt>
      <trkpt lat="40.426983" lon="-5.346967">
        <ele>2173.0</ele>
        <time>2015-07-25T13:37:30Z</time>
      </trkpt>
      <trkpt lat="40.426983" lon="-5.347067">
        <ele>2172.0</ele>
        <time>2015-07-25T13:37:31Z</time>
      </trkpt>
      <trkpt lat="40.426983" lon="-5.347167">
        <ele>2170.0</ele>
        <time>2015-07-25T13:37:32Z</time>
      </trkpt>
      <trkpt lat="40.426967" lon="-5.347250">
        <ele>2167.0</ele>
        <time>2015-07-25T13:37:33Z</time>
      </trkpt>
      <trkpt lat="40.426933" lon="-5.347350">
        <ele>2164.0</ele>
        <time>2015-07-25T13:37:34Z</time>
      </trkpt>
      <trkpt lat="40.426933" lon="-5.347467">
        <ele>2161.0</ele>
        <time>2015-07-25T13:37:35Z</time>
      </trkpt>
      <trkpt lat="40.426933" lon="-5.347567">
        <ele>2159.0</ele>
        <time>2015-07-25T13:37:36Z</time>
      </trkpt>
      <trkpt lat="40.426933" lon="-5.347683">
        <ele>2156.0</ele>
        <time>2015-07-25T13:37:37Z</time>
      </trkpt>
      <trkpt lat="40.426933" lon="-5.347783">
        <ele>2153.0</ele>
        <time>2015-07-25T13:37:38Z</time>
      </trkpt>
      <trkpt lat="40.426917" lon="-5.347900">
        <ele>2150.0</ele>
        <time>2015-07-25T13:37:39Z</time>
      </trkpt>
      <trkpt lat="40.426917" lon="-5.348033">
        <ele>2146.0</ele>
        <time>2015-07-25T13:37:40Z</time>
      </trkpt>
      <trkpt lat="40.426917" lon="-5.348150">
        <ele>2142.0</ele>
        <time>2015-07-25T13:37:41Z</time>
      </trkpt>
      <trkpt lat="40.426933" lon="-5.348300">
        <ele>2138.0</ele>
        <time>2015-07-25T13:37:42Z</time>
      </trkpt>
      <trkpt lat="40.426950" lon="-5.348417">
        <ele>2134.0</ele>
        <time>2015-07-25T13:37:43Z</time>
      </trkpt>
      <trkpt lat="40.426967" lon="-5.348533">
        <ele>2132.0</ele>
        <time>2015-07-25T13:37:44Z</time>
      </trkpt>
      <trkpt lat="40.426983" lon="-5.348650">
        <ele>2129.0</ele>
        <time>2015-07-25T13:37:45Z</time>
      </trkpt>
      <trkpt lat="40.427000" lon="-5.348750">
        <ele>2125.0</ele>
        <time>2015-07-25T13:37:46Z</time>
      </trkpt>
      <trkpt lat="40.427017" lon="-5.348850">
        <ele>2121.0</ele>
        <time>2015-07-25T13:37:47Z</time>
      </trkpt>
      <trkpt lat="40.427033" lon="-5.348983">
        <ele>2117.0</ele>
        <time>2015-07-25T13:37:48Z</time>
      </trkpt>
      <trkpt lat="40.427067" lon="-5.349100">
        <ele>2113.0</ele>
        <time>2015-07-25T13:37:49Z</time>
      </trkpt>
      <trkpt lat="40.427083" lon="-5.349233">
        <ele>2109.0</ele>
        <time>2015-07-25T13:37:50Z</time>
      </trkpt>
      <trkpt lat="40.427117" lon="-5.349350">
        <ele>2107.0</ele>
        <time>2015-07-25T13:37:51Z</time>
      </trkpt>
      <trkpt lat="40.427150" lon="-5.349467">
        <ele>2104.0</ele>
        <time>2015-07-25T13:37:52Z</time>
      </trkpt>
      <trkpt lat="40.427200" lon="-5.349567">
        <ele>2102.0</ele>
        <time>2015-07-25T13:37:53Z</time>
      </trkpt>
      <trkpt lat="40.427250" lon="-5.349667">
        <ele>2100.0</ele>
        <time>2015-07-25T13:37:54Z</time>
      </trkpt>
      <trkpt lat="40.427283" lon="-5.349783">
        <ele>2099.0</ele>
        <time>2015-07-25T13:37:55Z</time>
      </trkpt>
      <trkpt lat="40.427283" lon="-5.349900">
        <ele>2098.0</ele>
        <time>2015-07-25T13:37:56Z</time>
      </trkpt>
      <trkpt lat="40.427300" lon="-5.350017">
        <ele>2097.0</ele>
        <time>2015-07-25T13:37:57Z</time>
      </trkpt>
      <trkpt lat="40.427300" lon="-5.350133">
        <ele>2097.0</ele>
        <time>2015-07-25T13:37:58Z</time>
      </trkpt>
      <trkpt lat="40.427333" lon="-5.350233">
        <ele>2096.0</ele>
        <time>2015-07-25T13:37:59Z</time>
      </trkpt>
      <trkpt lat="40.427367" lon="-5.350333">
        <ele>2096.0</ele>
        <time>2015-07-25T13:38:00Z</time>
      </trkpt>
      <trkpt lat="40.427383" lon="-5.350433">
        <ele>2095.0</ele>
        <time>2015-07-25T13:38:01Z</time>
      </trkpt>
      <trkpt lat="40.427383" lon="-5.350550">
        <ele>2093.0</ele>
        <time>2015-07-25T13:38:02Z</time>
      </trkpt>
      <trkpt lat="40.427383" lon="-5.350667">
        <ele>2092.0</ele>
        <time>2015-07-25T13:38:03Z</time>
      </trkpt>
      <trkpt lat="40.427383" lon="-5.350767">
        <ele>2091.0</ele>
        <time>2015-07-25T13:38:04Z</time>
      </trkpt>
      <trkpt lat="40.427383" lon="-5.350883">
        <ele>2090.0</ele>
        <time>2015-07-25T13:38:05Z</time>
      </trkpt>
      <trkpt lat="40.427383" lon="-5.351000">
        <ele>2088.0</ele>
        <time>2015-07-25T13:38:06Z</time>
      </trkpt>
      <trkpt lat="40.427383" lon="-5.351117">
        <ele>2087.0</ele>
        <time>2015-07-25T13:38:07Z</time>
      </trkpt>
      <trkpt lat="40.427383" lon="-5.351233">
        <ele>2086.0</ele>
        <time>2015-07-25T13:38:08Z</time>
      </trkpt>
      <trkpt lat="40.427400" lon="-5.351350">
        <ele>2085.0</ele>
        <time>2015-07-25T13:38:09Z</time>
      </trkpt>
      <trkpt lat="40.427417" lon="-5.351450">
        <ele>2084.0</ele>
        <time>2015-07-25T13:38:10Z</time>
      </trkpt>
      <trkpt lat="40.427433" lon="-5.351567">
        <ele>2083.0</ele>
        <time>2015-07-25T13:38:11Z</time>
      </trkpt>
      <trkpt lat="40.427450" lon="-5.351683">
        <ele>2083.0</ele>
        <time>2015-07-25T13:38:12Z</time>
      </trkpt>
      <trkpt lat="40.427450" lon="-5.351817">
        <ele>2083.0</ele>
        <time>2015-07-25T13:38:13Z</time>
      </trkpt>
      <trkpt lat="40.427467" lon="-5.351917">
        <ele>2084.0</ele>
        <time>2015-07-25T13:38:14Z</time>
      </trkpt>
      <trkpt lat="40.427467" lon="-5.352033">
        <ele>2084.0</ele>
        <time>2015-07-25T13:38:15Z</time>
      </trkpt>
      <trkpt lat="40.427483" lon="-5.352133">
        <ele>2083.0</ele>
        <time>2015-07-25T13:38:16Z</time>
      </trkpt>
      <trkpt lat="40.427500" lon="-5.352250">
        <ele>2083.0</ele>
        <time>2015-07-25T13:38:17Z</time>
      </trkpt>
      <trkpt lat="40.427500" lon="-5.352367">
        <ele>2081.0</ele>
        <time>2015-07-25T13:38:18Z</time>
      </trkpt>
      <trkpt lat="40.427483" lon="-5.352483">
        <ele>2080.0</ele>
        <time>2015-07-25T13:38:19Z</time>
      </trkpt>
      <trkpt lat="40.427483" lon="-5.352617">
        <ele>2079.0</ele>
        <time>2015-07-25T13:38:20Z</time>
      </trkpt>
      <trkpt lat="40.427500" lon="-5.352750">
        <ele>2078.0</ele>
        <time>2015-07-25T13:38:21Z</time>
      </trkpt>
      <trkpt lat="40.427500" lon="-5.352867">
        <ele>2078.0</ele>
        <time>2015-07-25T13:38:22Z</time>
      </trkpt>
      <trkpt lat="40.427500" lon="-5.353000">
        <ele>2079.0</ele>
        <time>2015-07-25T13:38:23Z</time>
      </trkpt>
      <trkpt lat="40.427483" lon="-5.353117">
        <ele>2080.0</ele>
        <time>2015-07-25T13:38:24Z</time>
      </trkpt>
      <trkpt lat="40.427450" lon="-5.353233">
        <ele>2080.0</ele>
        <time>2015-07-25T13:38:25Z</time>
      </trkpt>
      <trkpt lat="40.427417" lon="-5.353350">
        <ele>2081.0</ele>
        <time>2015-07-25T13:38:26Z</time>
      </trkpt>
      <trkpt lat="40.427400" lon="-5.353483">
        <ele>2082.0</ele>
        <time>2015-07-25T13:38:27Z</time>
      </trkpt>
      <trkpt lat="40.427400" lon="-5.353600">
        <ele>2083.0</ele>
        <time>2015-07-25T13:38:28Z</time>
      </trkpt>
      <trkpt lat="40.427383" lon="-5.353717">
        <ele>2085.0</ele>
        <time>2015-07-25T13:38:29Z</time>
      </trkpt>
      <trkpt lat="40.427350" lon="-5.353817">
        <ele>2086.0</ele>
        <time>2015-07-25T13:38:30Z</time>
      </trkpt>
      <trkpt lat="40.427300" lon="-5.353933">
        <ele>2087.0</ele>
        <time>2015-07-25T13:38:31Z</time>
      </trkpt>
      <trkpt lat="40.427267" lon="-5.354033">
        <ele>2089.0</ele>
        <time>2015-07-25T13:38:32Z</time>
      </trkpt>
      <trkpt lat="40.427233" lon="-5.354117">
        <ele>2090.0</ele>
        <time>2015-07-25T13:38:33Z</time>
      </trkpt>
      <trkpt lat="40.427217" lon="-5.354217">
        <ele>2091.0</ele>
        <time>2015-07-25T13:38:34Z</time>
      </trkpt>
      <trkpt lat="40.427250" lon="-5.354300">
        <ele>2090.0</ele>
        <time>2015-07-25T13:38:35Z</time>
      </trkpt>
      <trkpt lat="40.427283" lon="-5.354383">
        <ele>2089.0</ele>
        <time>2015-07-25T13:38:36Z</time>
      </trkpt>
      <trkpt lat="40.427333" lon="-5.354483">
        <ele>2088.0</ele>
        <time>2015-07-25T13:38:37Z</time>
      </trkpt>
      <trkpt lat="40.427350" lon="-5.354583">
        <ele>2088.0</ele>
        <time>2015-07-25T13:38:38Z</time>
      </trkpt>
      <trkpt lat="40.427333" lon="-5.354700">
        <ele>2089.0</ele>
        <time>2015-07-25T13:38:39Z</time>
      </trkpt>
      <trkpt lat="40.427283" lon="-5.354817">
        <ele>2089.0</ele>
        <time>2015-07-25T13:38:40Z</time>
      </trkpt>
      <trkpt lat="40.427217" lon="-5.354917">
        <ele>2089.0</ele>
        <time>2015-07-25T13:38:41Z</time>
      </trkpt>
      <trkpt lat="40.427150" lon="-5.355000">
        <ele>2090.0</ele>
        <time>2015-07-25T13:38:42Z</time>
      </trkpt>
      <trkpt lat="40.427067" lon="-5.355067">
        <ele>2091.0</ele>
        <time>2015-07-25T13:38:43Z</time>
      </trkpt>
      <trkpt lat="40.426967" lon="-5.355133">
        <ele>2092.0</ele>
        <time>2015-07-25T13:38:44Z</time>
      </trkpt>
      <trkpt lat="40.426867" lon="-5.355200">
        <ele>2094.0</ele>
        <time>2015-07-25T13:38:45Z</time>
      </trkpt>
      <trkpt lat="40.426783" lon="-5.355283">
        <ele>2096.0</ele>
        <time>2015-07-25T13:38:46Z</time>
      </trkpt>
      <trkpt lat="40.426700" lon="-5.355383">
        <ele>2099.0</ele>
        <time>2015-07-25T13:38:47Z</time>
      </trkpt>
      <trkpt lat="40.426633" lon="-5.355483">
        <ele>2101.0</ele>
        <time>2015-07-25T13:38:48Z</time>
      </trkpt>
      <trkpt lat="40.426533" lon="-5.355550">
        <ele>2105.0</ele>
        <time>2015-07-25T13:38:49Z</time>
      </trkpt>
      <trkpt lat="40.426433" lon="-5.355567">
        <ele>2109.0</ele>
        <time>2015-07-25T13:38:50Z</time>
      </trkpt>
      <trkpt lat="40.426333" lon="-5.355533">
        <ele>2111.0</ele>
        <time>2015-07-25T13:38:51Z</time>
      </trkpt>
      <trkpt lat="40.426233" lon="-5.355467">
        <ele>2113.0</ele>
        <time>2015-07-25T13:38:52Z</time>
      </trkpt>
      <trkpt lat="40.426150" lon="-5.355367">
        <ele>2114.0</ele>
        <time>2015-07-25T13:38:53Z</time>
      </trkpt>
      <trkpt lat="40.426067" lon="-5.355250">
        <ele>2117.0</ele>
        <time>2015-07-25T13:38:54Z</time>
      </trkpt>
      <trkpt lat="40.426017" lon="-5.355117">
        <ele>2120.0</ele>
        <time>2015-07-25T13:38:55Z</time>
      </trkpt>
      <trkpt lat="40.426017" lon="-5.354983">
        <ele>2122.0</ele>
        <time>2015-07-25T13:38:56Z</time>
      </trkpt>
      <trkpt lat="40.426050" lon="-5.354883">
        <ele>2123.0</ele>
        <time>2015-07-25T13:38:57Z</time>
      </trkpt>
      <trkpt lat="40.426133" lon="-5.354800">
        <ele>2123.0</ele>
        <time>2015-07-25T13:38:58Z</time>
      </trkpt>
      <trkpt lat="40.426233" lon="-5.354783">
        <ele>2124.0</ele>
        <time>2015-07-25T13:38:59Z</time>
      </trkpt>
      <trkpt lat="40.426317" lon="-5.354817">
        <ele>2126.0</ele>
        <time>2015-07-25T13:39:00Z</time>
      </trkpt>
      <trkpt lat="40.426383" lon="-5.354900">
        <ele>2127.0</ele>
        <time>2015-07-25T13:39:01Z</time>
      </trkpt>
      <trkpt lat="40.426417" lon="-5.355033">
        <ele>2130.0</ele>
        <time>2015-07-25T13:39:02Z</time>
      </trkpt>
      <trkpt lat="40.426433" lon="-5.355167">
        <ele>2133.0</ele>
        <time>2015-07-25T13:39:03Z</time>
      </trkpt>
      <trkpt lat="40.426417" lon="-5.355300">
        <ele>2136.0</ele>
        <time>2015-07-25T13:39:04Z</time>
      </trkpt>
      <trkpt lat="40.426383" lon="-5.355417">
        <ele>2138.0</ele>
        <time>2015-07-25T13:39:05Z</time>
      </trkpt>
      <trkpt lat="40.426333" lon="-5.355517">
        <ele>2141.0</ele>
        <time>2015-07-25T13:39:06Z</time>
      </trkpt>
      <trkpt lat="40.426250" lon="-5.355617">
        <ele>2143.0</ele>
        <time>2015-07-25T13:39:07Z</time>
      </trkpt>
      <trkpt lat="40.426167" lon="-5.355717">
        <ele>2145.0</ele>
        <time>2015-07-25T13:39:08Z</time>
      </trkpt>
      <trkpt lat="40.426083" lon="-5.355800">
        <ele>2147.0</ele>
        <time>2015-07-25T13:39:09Z</time>
      </trkpt>
      <trkpt lat="40.426000" lon="-5.355900">
        <ele>2150.0</ele>
        <time>2015-07-25T13:39:10Z</time>
      </trkpt>
      <trkpt lat="40.425917" lon="-5.355967">
        <ele>2153.0</ele>
        <time>2015-07-25T13:39:11Z</time>
      </trkpt>
      <trkpt lat="40.425833" lon="-5.356017">
        <ele>2156.0</ele>
        <time>2015-07-25T13:39:12Z</time>
      </trkpt>
      <trkpt lat="40.425733" lon="-5.356033">
        <ele>2158.0</ele>
        <time>2015-07-25T13:39:13Z</time>
      </trkpt>
      <trkpt lat="40.425633" lon="-5.356017">
        <ele>2159.0</ele>
        <time>2015-07-25T13:39:14Z</time>
      </trkpt>
      <trkpt lat="40.425517" lon="-5.355950">
        <ele>2160.0</ele>
        <time>2015-07-25T13:39:15Z</time>
      </trkpt>
      <trkpt lat="40.425433" lon="-5.355850">
        <ele>2162.0</ele>
        <time>2015-07-25T13:39:16Z</time>
      </trkpt>
      <trkpt lat="40.425367" lon="-5.355717">
        <ele>2165.0</ele>
        <time>2015-07-25T13:39:17Z</time>
      </trkpt>
      <trkpt lat="40.425333" lon="-5.355567">
        <ele>2167.0</ele>
        <time>2015-07-25T13:39:18Z</time>
      </trkpt>
      <trkpt lat="40.425350" lon="-5.355433">
        <ele>2170.0</ele>
        <time>2015-07-25T13:39:19Z</time>
      </trkpt>
      <trkpt lat="40.425400" lon="-5.355317">
        <ele>2172.0</ele>
        <time>2015-07-25T13:39:20Z</time>
      </trkpt>
      <trkpt lat="40.425483" lon="-5.355233">
        <ele>2175.0</ele>
        <time>2015-07-25T13:39:21Z</time>
      </trkpt>
      <trkpt lat="40.425567" lon="-5.355200">
        <ele>2176.0</ele>
        <time>2015-07-25T13:39:22Z</time>
      </trkpt>
      <trkpt lat="40.425650" lon="-5.355183">
        <ele>2179.0</ele>
        <time>2015-07-25T13:39:23Z</time>
      </trkpt>
      <trkpt lat="40.425717" lon="-5.355217">
        <ele>2181.0</ele>
        <time>2015-07-25T13:39:24Z</time>
      </trkpt>
      <trkpt lat="40.425750" lon="-5.355283">
        <ele>2183.0</ele>
        <time>2015-07-25T13:39:25Z</time>
      </trkpt>
      <trkpt lat="40.425783" lon="-5.355383">
        <ele>2184.0</ele>
        <time>2015-07-25T13:39:26Z</time>
      </trkpt>
      <trkpt lat="40.425783" lon="-5.355517">
        <ele>2185.0</ele>
        <time>2015-07-25T13:39:27Z</time>
      </trkpt>
      <trkpt lat="40.425767" lon="-5.355650">
        <ele>2186.0</ele>
        <time>2015-07-25T13:39:28Z</time>
      </trkpt>
      <trkpt lat="40.425750" lon="-5.355767">
        <ele>2189.0</ele>
        <time>2015-07-25T13:39:29Z</time>
      </trkpt>
      <trkpt lat="40.425700" lon="-5.355883">
        <ele>2192.0</ele>
        <time>2015-07-25T13:39:30Z</time>
      </trkpt>
      <trkpt lat="40.425667" lon="-5.355983">
        <ele>2195.0</ele>
        <time>2015-07-25T13:39:31Z</time>
      </trkpt>
      <trkpt lat="40.425617" lon="-5.356083">
        <ele>2198.0</ele>
        <time>2015-07-25T13:39:32Z</time>
      </trkpt>
      <trkpt lat="40.425583" lon="-5.356183">
        <ele>2201.0</ele>
        <time>2015-07-25T13:39:33Z</time>
      </trkpt>
      <trkpt lat="40.425550" lon="-5.356300">
        <ele>2204.0</ele>
        <time>2015-07-25T13:39:34Z</time>
      </trkpt>
      <trkpt lat="40.425517" lon="-5.356400">
        <ele>2207.0</ele>
        <time>2015-07-25T13:39:35Z</time>
      </trkpt>
      <trkpt lat="40.425467" lon="-5.356500">
        <ele>2209.0</ele>
        <time>2015-07-25T13:39:36Z</time>
      </trkpt>
      <trkpt lat="40.425433" lon="-5.356583">
        <ele>2211.0</ele>
        <time>2015-07-25T13:39:37Z</time>
      </trkpt>
      <trkpt lat="40.425383" lon="-5.356667">
        <ele>2212.0</ele>
        <time>2015-07-25T13:39:38Z</time>
      </trkpt>
      <trkpt lat="40.425317" lon="-5.356733">
        <ele>2212.0</ele>
        <time>2015-07-25T13:39:39Z</time>
      </trkpt>
      <trkpt lat="40.425233" lon="-5.356783">
        <ele>2212.0</ele>
        <time>2015-07-25T13:39:40Z</time>
      </trkpt>
      <trkpt lat="40.425117" lon="-5.356800">
        <ele>2212.0</ele>
        <time>2015-07-25T13:39:41Z</time>
      </trkpt>
      <trkpt lat="40.425017" lon="-5.356767">
        <ele>2212.0</ele>
        <time>2015-07-25T13:39:42Z</time>
      </trkpt>
      <trkpt lat="40.424917" lon="-5.356700">
        <ele>2212.0</ele>
        <time>2015-07-25T13:39:43Z</time>
      </trkpt>
      <trkpt lat="40.424850" lon="-5.356600">
        <ele>2211.0</ele>
        <time>2015-07-25T13:39:44Z</time>
      </trkpt>
      <trkpt lat="40.424800" lon="-5.356450">
        <ele>2211.0</ele>
        <time>2015-07-25T13:39:45Z</time>
      </trkpt>
      <trkpt lat="40.424783" lon="-5.356300">
        <ele>2213.0</ele>
        <time>2015-07-25T13:39:46Z</time>
      </trkpt>
      <trkpt lat="40.424817" lon="-5.356167">
        <ele>2215.0</ele>
        <time>2015-07-25T13:39:47Z</time>
      </trkpt>
      <trkpt lat="40.424867" lon="-5.356067">
        <ele>2218.0</ele>
        <time>2015-07-25T13:39:48Z</time>
      </trkpt>
      <trkpt lat="40.424917" lon="-5.355967">
        <ele>2221.0</ele>
        <time>2015-07-25T13:39:49Z</time>
      </trkpt>
      <trkpt lat="40.424967" lon="-5.355883">
        <ele>2224.0</ele>
        <time>2015-07-25T13:39:50Z</time>
      </trkpt>
      <trkpt lat="40.425000" lon="-5.355800">
        <ele>2226.0</ele>
        <time>2015-07-25T13:39:51Z</time>
      </trkpt>
      <trkpt lat="40.425050" lon="-5.355750">
        <ele>2228.0</ele>
        <time>2015-07-25T13:39:52Z</time>
      </trkpt>
      <trkpt lat="40.425117" lon="-5.355733">
        <ele>2229.0</ele>
        <time>2015-07-25T13:39:53Z</time>
      </trkpt>
      <trkpt lat="40.425233" lon="-5.355783">
        <ele>2230.0</ele>
        <time>2015-07-25T13:39:54Z</time>
      </trkpt>
      <trkpt lat="40.425267" lon="-5.355817">
        <ele>2231.0</ele>
        <time>2015-07-25T13:39:55Z</time>
      </trkpt>
      <trkpt lat="40.425317" lon="-5.355917">
        <ele>2233.0</ele>
        <time>2015-07-25T13:39:56Z</time>
      </trkpt>
      <trkpt lat="40.425333" lon="-5.356017">
        <ele>2235.0</ele>
        <time>2015-07-25T13:39:57Z</time>
      </trkpt>
      <trkpt lat="40.425333" lon="-5.356133">
        <ele>2239.0</ele>
        <time>2015-07-25T13:39:58Z</time>
      </trkpt>
      <trkpt lat="40.425300" lon="-5.356250">
        <ele>2242.0</ele>
        <time>2015-07-25T13:39:59Z</time>
      </trkpt>
      <trkpt lat="40.425267" lon="-5.356350">
        <ele>2245.0</ele>
        <time>2015-07-25T13:40:00Z</time>
      </trkpt>
      <trkpt lat="40.425183" lon="-5.356433">
        <ele>2246.0</ele>
        <time>2015-07-25T13:40:01Z</time>
      </trkpt>
      <trkpt lat="40.425100" lon="-5.356483">
        <ele>2247.0</ele>
        <time>2015-07-25T13:40:02Z</time>
      </trkpt>
      <trkpt lat="40.425000" lon="-5.356500">
        <ele>2249.0</ele>
        <time>2015-07-25T13:40:03Z</time>
      </trkpt>
      <trkpt lat="40.424900" lon="-5.356467">
        <ele>2249.0</ele>
        <time>2015-07-25T13:40:04Z</time>
      </trkpt>
      <trkpt lat="40.424783" lon="-5.356400">
        <ele>2249.0</ele>
        <time>2015-07-25T13:40:05Z</time>
      </trkpt>
      <trkpt lat="40.424683" lon="-5.356300">
        <ele>2249.0</ele>
        <time>2015-07-25T13:40:06Z</time>
      </trkpt>
      <trkpt lat="40.424600" lon="-5.356167">
        <ele>2250.0</ele>
        <time>2015-07-25T13:40:07Z</time>
      </trkpt>
      <trkpt lat="40.424550" lon="-5.356033">
        <ele>2252.0</ele>
        <time>2015-07-25T13:40:08Z</time>
      </trkpt>
      <trkpt lat="40.424517" lon="-5.355900">
        <ele>2254.0</ele>
        <time>2015-07-25T13:40:09Z</time>
      </trkpt>
      <trkpt lat="40.424517" lon="-5.355767">
        <ele>2255.0</ele>
        <time>2015-07-25T13:40:10Z</time>
      </trkpt>
      <trkpt lat="40.424550" lon="-5.355633">
        <ele>2257.0</ele>
        <time>2015-07-25T13:40:11Z</time>
      </trkpt>
      <trkpt lat="40.424600" lon="-5.355533">
        <ele>2259.0</ele>
        <time>2015-07-25T13:40:12Z</time>
      </trkpt>
      <trkpt lat="40.424650" lon="-5.355467">
        <ele>2261.0</ele>
        <time>2015-07-25T13:40:13Z</time>
      </trkpt>
      <trkpt lat="40.424717" lon="-5.355433">
        <ele>2262.0</ele>
        <time>2015-07-25T13:40:14Z</time>
      </trkpt>
      <trkpt lat="40.424800" lon="-5.355417">
        <ele>2263.0</ele>
        <time>2015-07-25T13:40:15Z</time>
      </trkpt>
      <trkpt lat="40.424883" lon="-5.355450">
        <ele>2264.0</ele>
        <time>2015-07-25T13:40:16Z</time>
      </trkpt>
      <trkpt lat="40.424950" lon="-5.355500">
        <ele>2266.0</ele>
        <time>2015-07-25T13:40:17Z</time>
      </trkpt>
      <trkpt lat="40.425017" lon="-5.355567">
        <ele>2268.0</ele>
        <time>2015-07-25T13:40:18Z</time>
      </trkpt>
      <trkpt lat="40.425050" lon="-5.355667">
        <ele>2270.0</ele>
        <time>2015-07-25T13:40:19Z</time>
      </trkpt>
      <trkpt lat="40.425067" lon="-5.355767">
        <ele>2272.0</ele>
        <time>2015-07-25T13:40:20Z</time>
      </trkpt>
      <trkpt lat="40.425083" lon="-5.355883">
        <ele>2274.0</ele>
        <time>2015-07-25T13:40:21Z</time>
      </trkpt>
      <trkpt lat="40.425067" lon="-5.356017">
        <ele>2276.0</ele>
        <time>2015-07-25T13:40:22Z</time>
      </trkpt>
      <trkpt lat="40.425033" lon="-5.356133">
        <ele>2278.0</ele>
        <time>2015-07-25T13:40:23Z</time>
      </trkpt>
      <trkpt lat="40.424950" lon="-5.356217">
        <ele>2278.0</ele>
        <time>2015-07-25T13:40:24Z</time>
      </trkpt>
      <trkpt lat="40.424867" lon="-5.356283">
        <ele>2279.0</ele>
        <time>2015-07-25T13:40:25Z</time>
      </trkpt>
      <trkpt lat="40.424750" lon="-5.356300">
        <ele>2281.0</ele>
        <time>2015-07-25T13:40:26Z</time>
      </trkpt>
      <trkpt lat="40.424633" lon="-5.356283">
        <ele>2282.0</ele>
        <time>2015-07-25T13:40:27Z</time>
      </trkpt>
      <trkpt lat="40.424533" lon="-5.356233">
        <ele>2283.0</ele>
        <time>2015-07-25T13:40:28Z</time>
      </trkpt>
      <trkpt lat="40.424450" lon="-5.356133">
        <ele>2282.0</ele>
        <time>2015-07-25T13:40:29Z</time>
      </trkpt>
      <trkpt lat="40.424383" lon="-5.356017">
        <ele>2281.0</ele>
        <time>2015-07-25T13:40:30Z</time>
      </trkpt>
      <trkpt lat="40.424317" lon="-5.355867">
        <ele>2280.0</ele>
        <time>2015-07-25T13:40:31Z</time>
      </trkpt>
      <trkpt lat="40.424300" lon="-5.355717">
        <ele>2282.0</ele>
        <time>2015-07-25T13:40:32Z</time>
      </trkpt>
      <trkpt lat="40.424317" lon="-5.355583">
        <ele>2284.0</ele>
        <time>2015-07-25T13:40:33Z</time>
      </trkpt>
      <trkpt lat="40.424367" lon="-5.355467">
        <ele>2286.0</ele>
        <time>2015-07-25T13:40:34Z</time>
      </trkpt>
      <trkpt lat="40.424417" lon="-5.355400">
        <ele>2287.0</ele>
        <time>2015-07-25T13:40:35Z</time>
      </trkpt>
      <trkpt lat="40.424483" lon="-5.355350">
        <ele>2289.0</ele>
        <time>2015-07-25T13:40:36Z</time>
      </trkpt>
      <trkpt lat="40.424550" lon="-5.355333">
        <ele>2291.0</ele>
        <time>2015-07-25T13:40:37Z</time>
      </trkpt>
      <trkpt lat="40.424617" lon="-5.355333">
        <ele>2292.0</ele>
        <time>2015-07-25T13:40:38Z</time>
      </trkpt>
      <trkpt lat="40.424683" lon="-5.355367">
        <ele>2293.0</ele>
        <time>2015-07-25T13:40:39Z</time>
      </trkpt>
      <trkpt lat="40.424750" lon="-5.355433">
        <ele>2293.0</ele>
        <time>2015-07-25T13:40:40Z</time>
      </trkpt>
      <trkpt lat="40.424800" lon="-5.355517">
        <ele>2293.0</ele>
        <time>2015-07-25T13:40:41Z</time>
      </trkpt>
      <trkpt lat="40.424817" lon="-5.355650">
        <ele>2294.0</ele>
        <time>2015-07-25T13:40:42Z</time>
      </trkpt>
      <trkpt lat="40.424817" lon="-5.355783">
        <ele>2296.0</ele>
        <time>2015-07-25T13:40:43Z</time>
      </trkpt>
      <trkpt lat="40.424800" lon="-5.355917">
        <ele>2299.0</ele>
        <time>2015-07-25T13:40:44Z</time>
      </trkpt>
      <trkpt lat="40.424750" lon="-5.356033">
        <ele>2301.0</ele>
        <time>2015-07-25T13:40:45Z</time>
      </trkpt>
      <trkpt lat="40.424683" lon="-5.356133">
        <ele>2302.0</ele>
        <time>2015-07-25T13:40:46Z</time>
      </trkpt>
      <trkpt lat="40.424583" lon="-5.356217">
        <ele>2303.0</ele>
        <time>2015-07-25T13:40:47Z</time>
      </trkpt>
      <trkpt lat="40.424467" lon="-5.356250">
        <ele>2303.0</ele>
        <time>2015-07-25T13:40:48Z</time>
      </trkpt>
      <trkpt lat="40.424350" lon="-5.356250">
        <ele>2304.0</ele>
        <time>2015-07-25T13:40:49Z</time>
      </trkpt>
      <trkpt lat="40.424233" lon="-5.356233">
        <ele>2305.0</ele>
        <time>2015-07-25T13:40:50Z</time>
      </trkpt>
      <trkpt lat="40.424117" lon="-5.356183">
        <ele>2306.0</ele>
        <time>2015-07-25T13:40:51Z</time>
      </trkpt>
      <trkpt lat="40.424033" lon="-5.356100">
        <ele>2306.0</ele>
        <time>2015-07-25T13:40:52Z</time>
      </trkpt>
      <trkpt lat="40.423933" lon="-5.356000">
        <ele>2305.0</ele>
        <time>2015-07-25T13:40:53Z</time>
      </trkpt>
      <trkpt lat="40.423867" lon="-5.355867">
        <ele>2304.0</ele>
        <time>2015-07-25T13:40:54Z</time>
      </trkpt>
      <trkpt lat="40.423833" lon="-5.355717">
        <ele>2304.0</ele>
        <time>2015-07-25T13:40:55Z</time>
      </trkpt>
      <trkpt lat="40.423833" lon="-5.355567">
        <ele>2304.0</ele>
        <time>2015-07-25T13:40:56Z</time>
      </trkpt>
      <trkpt lat="40.423867" lon="-5.355433">
        <ele>2305.0</ele>
        <time>2015-07-25T13:40:57Z</time>
      </trkpt>
      <trkpt lat="40.423917" lon="-5.355350">
        <ele>2307.0</ele>
        <time>2015-07-25T13:40:58Z</time>
      </trkpt>
      <trkpt lat="40.423983" lon="-5.355283">
        <ele>2309.0</ele>
        <time>2015-07-25T13:40:59Z</time>
      </trkpt>
      <trkpt lat="40.424050" lon="-5.355250">
        <ele>2310.0</ele>
        <time>2015-07-25T13:41:00Z</time>
      </trkpt>
      <trkpt lat="40.424117" lon="-5.355250">
        <ele>2310.0</ele>
        <time>2015-07-25T13:41:01Z</time>
      </trkpt>
      <trkpt lat="40.424200" lon="-5.355300">
        <ele>2310.0</ele>
        <time>2015-07-25T13:41:02Z</time>
      </trkpt>
      <trkpt lat="40.424267" lon="-5.355367">
        <ele>2310.0</ele>
        <time>2015-07-25T13:41:03Z</time>
      </trkpt>
      <trkpt lat="40.424333" lon="-5.355433">
        <ele>2312.0</ele>
        <time>2015-07-25T13:41:04Z</time>
      </trkpt>
      <trkpt lat="40.424400" lon="-5.355500">
        <ele>2314.0</ele>
        <time>2015-07-25T13:41:05Z</time>
      </trkpt>
      <trkpt lat="40.424450" lon="-5.355550">
        <ele>2315.0</ele>
        <time>2015-07-25T13:41:06Z</time>
      </trkpt>
      <trkpt lat="40.424517" lon="-5.355600">
        <ele>2317.0</ele>
        <time>2015-07-25T13:41:07Z</time>
      </trkpt>
      <trkpt lat="40.424567" lon="-5.355667">
        <ele>2318.0</ele>
        <time>2015-07-25T13:41:08Z</time>
      </trkpt>
      <trkpt lat="40.424617" lon="-5.355733">
        <ele>2318.0</ele>
        <time>2015-07-25T13:41:09Z</time>
      </trkpt>
      <trkpt lat="40.424650" lon="-5.355817">
        <ele>2319.0</ele>
        <time>2015-07-25T13:41:10Z</time>
      </trkpt>
      <trkpt lat="40.424700" lon="-5.355933">
        <ele>2319.0</ele>
        <time>2015-07-25T13:41:11Z</time>
      </trkpt>
      <trkpt lat="40.424717" lon="-5.356050">
        <ele>2320.0</ele>
        <time>2015-07-25T13:41:12Z</time>
      </trkpt>
      <trkpt lat="40.424750" lon="-5.356183">
        <ele>2320.0</ele>
        <time>2015-07-25T13:41:13Z</time>
      </trkpt>
      <trkpt lat="40.424767" lon="-5.356317">
        <ele>2321.0</ele>
        <time>2015-07-25T13:41:14Z</time>
      </trkpt>
      <trkpt lat="40.424783" lon="-5.356450">
        <ele>2323.0</ele>
        <time>2015-07-25T13:41:15Z</time>
      </trkpt>
      <trkpt lat="40.424800" lon="-5.356567">
        <ele>2324.0</ele>
        <time>2015-07-25T13:41:16Z</time>
      </trkpt>
      <trkpt lat="40.424833" lon="-5.356650">
        <ele>2325.0</ele>
        <time>2015-07-25T13:41:17Z</time>
      </trkpt>
      <trkpt lat="40.424867" lon="-5.356750">
        <ele>2326.0</ele>
        <time>2015-07-25T13:41:18Z</time>
      </trkpt>
      <trkpt lat="40.424867" lon="-5.356833">
        <ele>2326.0</ele>
        <time>2015-07-25T13:41:19Z</time>
      </trkpt>
      <trkpt lat="40.424867" lon="-5.356950">
        <ele>2326.0</ele>
        <time>2015-07-25T13:41:20Z</time>
      </trkpt>
      <trkpt lat="40.424833" lon="-5.357067">
        <ele>2324.0</ele>
        <time>2015-07-25T13:41:21Z</time>
      </trkpt>
      <trkpt lat="40.424783" lon="-5.357183">
        <ele>2324.0</ele>
        <time>2015-07-25T13:41:22Z</time>
      </trkpt>
      <trkpt lat="40.424700" lon="-5.357300">
        <ele>2324.0</ele>
        <time>2015-07-25T13:41:23Z</time>
      </trkpt>
      <trkpt lat="40.424633" lon="-5.357383">
        <ele>2326.0</ele>
        <time>2015-07-25T13:41:24Z</time>
      </trkpt>
      <trkpt lat="40.424550" lon="-5.357450">
        <ele>2328.0</ele>
        <time>2015-07-25T13:41:25Z</time>
      </trkpt>
      <trkpt lat="40.424483" lon="-5.357517">
        <ele>2329.0</ele>
        <time>2015-07-25T13:41:26Z</time>
      </trkpt>
      <trkpt lat="40.424400" lon="-5.357583">
        <ele>2330.0</ele>
        <time>2015-07-25T13:41:27Z</time>
      </trkpt>
      <trkpt lat="40.424300" lon="-5.357667">
        <ele>2331.0</ele>
        <time>2015-07-25T13:41:28Z</time>
      </trkpt>
      <trkpt lat="40.424183" lon="-5.357750">
        <ele>2333.0</ele>
        <time>2015-07-25T13:41:29Z</time>
      </trkpt>
      <trkpt lat="40.424067" lon="-5.357833">
        <ele>2337.0</ele>
        <time>2015-07-25T13:41:30Z</time>
      </trkpt>
      <trkpt lat="40.423967" lon="-5.357917">
        <ele>2342.0</ele>
        <time>2015-07-25T13:41:31Z</time>
      </trkpt>
      <trkpt lat="40.423883" lon="-5.357983">
        <ele>2348.0</ele>
        <time>2015-07-25T13:41:32Z</time>
      </trkpt>
      <trkpt lat="40.423783" lon="-5.358050">
        <ele>2352.0</ele>
        <time>2015-07-25T13:41:33Z</time>
      </trkpt>
      <trkpt lat="40.423700" lon="-5.358117">
        <ele>2356.0</ele>
        <time>2015-07-25T13:41:34Z</time>
      </trkpt>
      <trkpt lat="40.423600" lon="-5.358183">
        <ele>2359.0</ele>
        <time>2015-07-25T13:41:35Z</time>
      </trkpt>
      <trkpt lat="40.423483" lon="-5.358217">
        <ele>2362.0</ele>
        <time>2015-07-25T13:41:36Z</time>
      </trkpt>
      <trkpt lat="40.423367" lon="-5.358200">
        <ele>2365.0</ele>
        <time>2015-07-25T13:41:37Z</time>
      </trkpt>
      <trkpt lat="40.423250" lon="-5.358133">
        <ele>2366.0</ele>
        <time>2015-07-25T13:41:38Z</time>
      </trkpt>
      <trkpt lat="40.423150" lon="-5.358000">
        <ele>2367.0</ele>
        <time>2015-07-25T13:41:39Z</time>
      </trkpt>
      <trkpt lat="40.423083" lon="-5.357833">
        <ele>2369.0</ele>
        <time>2015-07-25T13:41:40Z</time>
      </trkpt>
      <trkpt lat="40.423033" lon="-5.357650">
        <ele>2374.0</ele>
        <time>2015-07-25T13:41:41Z</time>
      </trkpt>
      <trkpt lat="40.423050" lon="-5.357500">
        <ele>2379.0</ele>
        <time>2015-07-25T13:41:42Z</time>
      </trkpt>
      <trkpt lat="40.423083" lon="-5.357383">
        <ele>2384.0</ele>
        <time>2015-07-25T13:41:43Z</time>
      </trkpt>
      <trkpt lat="40.423150" lon="-5.357283">
        <ele>2388.0</ele>
        <time>2015-07-25T13:41:44Z</time>
      </trkpt>
      <trkpt lat="40.423217" lon="-5.357233">
        <ele>2391.0</ele>
        <time>2015-07-25T13:41:45Z</time>
      </trkpt>
      <trkpt lat="40.423283" lon="-5.357217">
        <ele>2394.0</ele>
        <time>2015-07-25T13:41:46Z</time>
      </trkpt>
      <trkpt lat="40.423350" lon="-5.357233">
        <ele>2397.0</ele>
        <time>2015-07-25T13:41:47Z</time>
      </trkpt>
      <trkpt lat="40.423400" lon="-5.357283">
        <ele>2400.0</ele>
        <time>2015-07-25T13:41:48Z</time>
      </trkpt>
      <trkpt lat="40.423417" lon="-5.357367">
        <ele>2403.0</ele>
        <time>2015-07-25T13:41:49Z</time>
      </trkpt>
      <trkpt lat="40.423433" lon="-5.357467">
        <ele>2405.0</ele>
        <time>2015-07-25T13:41:50Z</time>
      </trkpt>
      <trkpt lat="40.423433" lon="-5.357583">
        <ele>2408.0</ele>
        <time>2015-07-25T13:41:51Z</time>
      </trkpt>
      <trkpt lat="40.423400" lon="-5.357700">
        <ele>2412.0</ele>
        <time>2015-07-25T13:41:52Z</time>
      </trkpt>
      <trkpt lat="40.423333" lon="-5.357800">
        <ele>2415.0</ele>
        <time>2015-07-25T13:41:53Z</time>
      </trkpt>
      <trkpt lat="40.423267" lon="-5.357900">
        <ele>2420.0</ele>
        <time>2015-07-25T13:41:54Z</time>
      </trkpt>
      <trkpt lat="40.423183" lon="-5.357950">
        <ele>2424.0</ele>
        <time>2015-07-25T13:41:55Z</time>
      </trkpt>
      <trkpt lat="40.423067" lon="-5.357983">
        <ele>2426.0</ele>
        <time>2015-07-25T13:41:56Z</time>
      </trkpt>
      <trkpt lat="40.422967" lon="-5.357983">
        <ele>2429.0</ele>
        <time>2015-07-25T13:41:57Z</time>
      </trkpt>
      <trkpt lat="40.422833" lon="-5.357933">
        <ele>2432.0</ele>
        <time>2015-07-25T13:41:58Z</time>
      </trkpt>
      <trkpt lat="40.422717" lon="-5.357850">
        <ele>2435.0</ele>
        <time>2015-07-25T13:41:59Z</time>
      </trkpt>
      <trkpt lat="40.422617" lon="-5.357733">
        <ele>2439.0</ele>
        <time>2015-07-25T13:42:00Z</time>
      </trkpt>
      <trkpt lat="40.422567" lon="-5.357583">
        <ele>2443.0</ele>
        <time>2015-07-25T13:42:01Z</time>
      </trkpt>
      <trkpt lat="40.422533" lon="-5.357433">
        <ele>2447.0</ele>
        <time>2015-07-25T13:42:02Z</time>
      </trkpt>
      <trkpt lat="40.422550" lon="-5.357300">
        <ele>2451.0</ele>
        <time>2015-07-25T13:42:03Z</time>
      </trkpt>
      <trkpt lat="40.422583" lon="-5.357183">
        <ele>2455.0</ele>
        <time>2015-07-25T13:42:04Z</time>
      </trkpt>
      <trkpt lat="40.422633" lon="-5.357100">
        <ele>2458.0</ele>
        <time>2015-07-25T13:42:05Z</time>
      </trkpt>
      <trkpt lat="40.422700" lon="-5.357050">
        <ele>2460.0</ele>
        <time>2015-07-25T13:42:06Z</time>
      </trkpt>
      <trkpt lat="40.422783" lon="-5.357033">
        <ele>2463.0</ele>
        <time>2015-07-25T13:42:07Z</time>
      </trkpt>
      <trkpt lat="40.422850" lon="-5.357050">
        <ele>2465.0</ele>
        <time>2015-07-25T13:42:08Z</time>
      </trkpt>
      <trkpt lat="40.422900" lon="-5.357100">
        <ele>2467.0</ele>
        <time>2015-07-25T13:42:09Z</time>
      </trkpt>
      <trkpt lat="40.422933" lon="-5.357183">
        <ele>2470.0</ele>
        <time>2015-07-25T13:42:10Z</time>
      </trkpt>
      <trkpt lat="40.422950" lon="-5.357283">
        <ele>2473.0</ele>
        <time>2015-07-25T13:42:11Z</time>
      </trkpt>
      <trkpt lat="40.422933" lon="-5.357400">
        <ele>2476.0</ele>
        <time>2015-07-25T13:42:12Z</time>
      </trkpt>
      <trkpt lat="40.422900" lon="-5.357517">
        <ele>2479.0</ele>
        <time>2015-07-25T13:42:13Z</time>
      </trkpt>
      <trkpt lat="40.422833" lon="-5.357633">
        <ele>2481.0</ele>
        <time>2015-07-25T13:42:14Z</time>
      </trkpt>
      <trkpt lat="40.422750" lon="-5.357717">
        <ele>2484.0</ele>
        <time>2015-07-25T13:42:15Z</time>
      </trkpt>
      <trkpt lat="40.422617" lon="-5.357750">
        <ele>2488.0</ele>
        <time>2015-07-25T13:42:16Z</time>
      </trkpt>
      <trkpt lat="40.422500" lon="-5.357733">
        <ele>2492.0</ele>
        <time>2015-07-25T13:42:17Z</time>
      </trkpt>
      <trkpt lat="40.422383" lon="-5.357667">
        <ele>2497.0</ele>
        <time>2015-07-25T13:42:18Z</time>
      </trkpt>
      <trkpt lat="40.422283" lon="-5.357583">
        <ele>2501.0</ele>
        <time>2015-07-25T13:42:19Z</time>
      </trkpt>
      <trkpt lat="40.422200" lon="-5.357467">
        <ele>2505.0</ele>
        <time>2015-07-25T13:42:20Z</time>
      </trkpt>
      <trkpt lat="40.422133" lon="-5.357317">
        <ele>2508.0</ele>
        <time>2015-07-25T13:42:21Z</time>
      </trkpt>
      <trkpt lat="40.422083" lon="-5.357183">
        <ele>2512.0</ele>
        <time>2015-07-25T13:42:22Z</time>
      </trkpt>
      <trkpt lat="40.422067" lon="-5.357067">
        <ele>2516.0</ele>
        <time>2015-07-25T13:42:23Z</time>
      </trkpt>
      <trkpt lat="40.422083" lon="-5.356950">
        <ele>2519.0</ele>
        <time>2015-07-25T13:42:24Z</time>
      </trkpt>
      <trkpt lat="40.422133" lon="-5.356850">
        <ele>2520.0</ele>
        <time>2015-07-25T13:42:25Z</time>
      </trkpt>
      <trkpt lat="40.422200" lon="-5.356767">
        <ele>2522.0</ele>
        <time>2015-07-25T13:42:26Z</time>
      </trkpt>
      <trkpt lat="40.422267" lon="-5.356717">
        <ele>2524.0</ele>
        <time>2015-07-25T13:42:27Z</time>
      </trkpt>
      <trkpt lat="40.422350" lon="-5.356700">
        <ele>2526.0</ele>
        <time>2015-07-25T13:42:28Z</time>
      </trkpt>
      <trkpt lat="40.422417" lon="-5.356700">
        <ele>2528.0</ele>
        <time>2015-07-25T13:42:29Z</time>
      </trkpt>
      <trkpt lat="40.422467" lon="-5.356717">
        <ele>2531.0</ele>
        <time>2015-07-25T13:42:30Z</time>
      </trkpt>
      <trkpt lat="40.422500" lon="-5.356750">
        <ele>2534.0</ele>
        <time>2015-07-25T13:42:31Z</time>
      </trkpt>
      <trkpt lat="40.422517" lon="-5.356817">
        <ele>2536.0</ele>
        <time>2015-07-25T13:42:32Z</time>
      </trkpt>
      <trkpt lat="40.422533" lon="-5.356900">
        <ele>2538.0</ele>
        <time>2015-07-25T13:42:33Z</time>
      </trkpt>
      <trkpt lat="40.422517" lon="-5.357000">
        <ele>2541.0</ele>
        <time>2015-07-25T13:42:34Z</time>
      </trkpt>
      <trkpt lat="40.422500" lon="-5.357100">
        <ele>2543.0</ele>
        <time>2015-07-25T13:42:35Z</time>
      </trkpt>
      <trkpt lat="40.422467" lon="-5.357200">
        <ele>2545.0</ele>
        <time>2015-07-25T13:42:36Z</time>
      </trkpt>
      <trkpt lat="40.422433" lon="-5.357317">
        <ele>2546.0</ele>
        <time>2015-07-25T13:42:37Z</time>
      </trkpt>
      <trkpt lat="40.422350" lon="-5.357417">
        <ele>2548.0</ele>
        <time>2015-07-25T13:42:38Z</time>
      </trkpt>
      <trkpt lat="40.422233" lon="-5.357483">
        <ele>2550.0</ele>
        <time>2015-07-25T13:42:39Z</time>
      </trkpt>
      <trkpt lat="40.422117" lon="-5.357500">
        <ele>2553.0</ele>
        <time>2015-07-25T13:42:40Z</time>
      </trkpt>
      <trkpt lat="40.421983" lon="-5.357467">
        <ele>2556.0</ele>
        <time>2015-07-25T13:42:41Z</time>
      </trkpt>
      <trkpt lat="40.421867" lon="-5.357417">
        <ele>2560.0</ele>
        <time>2015-07-25T13:42:42Z</time>
      </trkpt>
      <trkpt lat="40.421783" lon="-5.357317">
        <ele>2564.0</ele>
        <time>2015-07-25T13:42:43Z</time>
      </trkpt>
      <trkpt lat="40.421700" lon="-5.357200">
        <ele>2566.0</ele>
        <time>2015-07-25T13:42:44Z</time>
      </trkpt>
      <trkpt lat="40.421650" lon="-5.357050">
        <ele>2568.0</ele>
        <time>2015-07-25T13:42:45Z</time>
      </trkpt>
      <trkpt lat="40.421617" lon="-5.356900">
        <ele>2570.0</ele>
        <time>2015-07-25T13:42:46Z</time>
      </trkpt>
      <trkpt lat="40.421617" lon="-5.356767">
        <ele>2573.0</ele>
        <time>2015-07-25T13:42:47Z</time>
      </trkpt>
      <trkpt lat="40.421650" lon="-5.356650">
        <ele>2576.0</ele>
        <time>2015-07-25T13:42:48Z</time>
      </trkpt>
      <trkpt lat="40.421700" lon="-5.356550">
        <ele>2578.0</ele>
        <time>2015-07-25T13:42:49Z</time>
      </trkpt>
      <trkpt lat="40.421783" lon="-5.356483">
        <ele>2579.0</ele>
        <time>2015-07-25T13:42:50Z</time>
      </trkpt>
      <trkpt lat="40.421867" lon="-5.356450">
        <ele>2579.0</ele>
        <time>2015-07-25T13:42:51Z</time>
      </trkpt>
      <trkpt lat="40.421950" lon="-5.356450">
        <ele>2580.0</ele>
        <time>2015-07-25T13:42:52Z</time>
      </trkpt>
      <trkpt lat="40.422033" lon="-5.356467">
        <ele>2582.0</ele>
        <time>2015-07-25T13:42:53Z</time>
      </trkpt>
      <trkpt lat="40.422117" lon="-5.356517">
        <ele>2584.0</ele>
        <time>2015-07-25T13:42:54Z</time>
      </trkpt>
      <trkpt lat="40.422167" lon="-5.356583">
        <ele>2588.0</ele>
        <time>2015-07-25T13:42:55Z</time>
      </trkpt>
      <trkpt lat="40.422200" lon="-5.356650">
        <ele>2592.0</ele>
        <time>2015-07-25T13:42:56Z</time>
      </trkpt>
      <trkpt lat="40.422233" lon="-5.356700">
        <ele>2595.0</ele>
        <time>2015-07-25T13:42:57Z</time>
      </trkpt>
      <trkpt lat="40.422267" lon="-5.356767">
        <ele>2597.0</ele>
        <time>2015-07-25T13:42:58Z</time>
      </trkpt>
      <trkpt lat="40.422283" lon="-5.356833">
        <ele>2599.0</ele>
        <time>2015-07-25T13:42:59Z</time>
      </trkpt>
      <trkpt lat="40.422333" lon="-5.356917">
        <ele>2598.0</ele>
        <time>2015-07-25T13:43:00Z</time>
      </trkpt>
      <trkpt lat="40.422367" lon="-5.357000">
        <ele>2597.0</ele>
        <time>2015-07-25T13:43:01Z</time>
      </trkpt>
      <trkpt lat="40.422417" lon="-5.357083">
        <ele>2597.0</ele>
        <time>2015-07-25T13:43:02Z</time>
      </trkpt>
      <trkpt lat="40.422450" lon="-5.357183">
        <ele>2596.0</ele>
        <time>2015-07-25T13:43:03Z</time>
      </trkpt>
      <trkpt lat="40.422483" lon="-5.357300">
        <ele>2595.0</ele>
        <time>2015-07-25T13:43:04Z</time>
      </trkpt>
      <trkpt lat="40.422517" lon="-5.357417">
        <ele>2595.0</ele>
        <time>2015-07-25T13:43:05Z</time>
      </trkpt>
      <trkpt lat="40.422550" lon="-5.357517">
        <ele>2596.0</ele>
        <time>2015-07-25T13:43:06Z</time>
      </trkpt>
      <trkpt lat="40.422583" lon="-5.357633">
        <ele>2597.0</ele>
        <time>2015-07-25T13:43:07Z</time>
      </trkpt>
      <trkpt lat="40.422617" lon="-5.357717">
        <ele>2598.0</ele>
        <time>2015-07-25T13:43:08Z</time>
      </trkpt>
      <trkpt lat="40.422650" lon="-5.357800">
        <ele>2599.0</ele>
        <time>2015-07-25T13:43:09Z</time>
      </trkpt>
      <trkpt lat="40.422700" lon="-5.357883">
        <ele>2599.0</ele>
        <time>2015-07-25T13:43:10Z</time>
      </trkpt>
      <trkpt lat="40.422750" lon="-5.357967">
        <ele>2599.0</ele>
        <time>2015-07-25T13:43:11Z</time>
      </trkpt>
      <trkpt lat="40.422783" lon="-5.358067">
        <ele>2600.0</ele>
        <time>2015-07-25T13:43:12Z</time>
      </trkpt>
      <trkpt lat="40.422833" lon="-5.358150">
        <ele>2601.0</ele>
        <time>2015-07-25T13:43:13Z</time>
      </trkpt>
      <trkpt lat="40.422867" lon="-5.358217">
        <ele>2602.0</ele>
        <time>2015-07-25T13:43:14Z</time>
      </trkpt>
      <trkpt lat="40.422917" lon="-5.358283">
        <ele>2602.0</ele>
        <time>2015-07-25T13:43:15Z</time>
      </trkpt>
      <trkpt lat="40.422967" lon="-5.358350">
        <ele>2602.0</ele>
        <time>2015-07-25T13:43:16Z</time>
      </trkpt>
      <trkpt lat="40.423017" lon="-5.358417">
        <ele>2601.0</ele>
        <time>2015-07-25T13:43:17Z</time>
      </trkpt>
      <trkpt lat="40.423067" lon="-5.358500">
        <ele>2599.0</ele>
        <time>2015-07-25T13:43:18Z</time>
      </trkpt>
      <trkpt lat="40.423117" lon="-5.358583">
        <ele>2598.0</ele>
        <time>2015-07-25T13:43:19Z</time>
      </trkpt>
      <trkpt lat="40.423150" lon="-5.358667">
        <ele>2598.0</ele>
        <time>2015-07-25T13:43:20Z</time>
      </trkpt>
      <trkpt lat="40.423200" lon="-5.358733">
        <ele>2597.0</ele>
        <time>2015-07-25T13:43:21Z</time>
      </trkpt>
      <trkpt lat="40.423250" lon="-5.358817">
        <ele>2595.0</ele>
        <time>2015-07-25T13:43:22Z</time>
      </trkpt>
      <trkpt lat="40.423333" lon="-5.358883">
        <ele>2594.0</ele>
        <time>2015-07-25T13:43:23Z</time>
      </trkpt>
      <trkpt lat="40.423400" lon="-5.358967">
        <ele>2593.0</ele>
        <time>2015-07-25T13:43:24Z</time>
      </trkpt>
      <trkpt lat="40.423483" lon="-5.359033">
        <ele>2593.0</ele>
        <time>2015-07-25T13:43:25Z</time>
      </trkpt>
      <trkpt lat="40.423567" lon="-5.359117">
        <ele>2593.0</ele>
        <time>2015-07-25T13:43:26Z</time>
      </trkpt>
      <trkpt lat="40.423633" lon="-5.359183">
        <ele>2593.0</ele>
        <time>2015-07-25T13:43:27Z</time>
      </trkpt>
      <trkpt lat="40.423700" lon="-5.359250">
        <ele>2594.0</ele>
        <time>2015-07-25T13:43:28Z</time>
      </trkpt>
      <trkpt lat="40.423750" lon="-5.359317">
        <ele>2595.0</ele>
        <time>2015-07-25T13:43:29Z</time>
      </trkpt>
      <trkpt lat="40.423817" lon="-5.359383">
        <ele>2595.0</ele>
        <time>2015-07-25T13:43:30Z</time>
      </trkpt>
      <trkpt lat="40.423883" lon="-5.359450">
        <ele>2595.0</ele>
        <time>2015-07-25T13:43:31Z</time>
      </trkpt>
      <trkpt lat="40.423950" lon="-5.359533">
        <ele>2596.0</ele>
        <time>2015-07-25T13:43:32Z</time>
      </trkpt>
      <trkpt lat="40.424017" lon="-5.359600">
        <ele>2597.0</ele>
        <time>2015-07-25T13:43:33Z</time>
      </trkpt>
      <trkpt lat="40.424100" lon="-5.359667">
        <ele>2598.0</ele>
        <time>2015-07-25T13:43:34Z</time>
      </trkpt>
      <trkpt lat="40.424167" lon="-5.359717">
        <ele>2599.0</ele>
        <time>2015-07-25T13:43:35Z</time>
      </trkpt>
      <trkpt lat="40.424233" lon="-5.359767">
        <ele>2600.0</ele>
        <time>2015-07-25T13:43:36Z</time>
      </trkpt>
      <trkpt lat="40.424317" lon="-5.359817">
        <ele>2601.0</ele>
        <time>2015-07-25T13:43:37Z</time>
      </trkpt>
      <trkpt lat="40.424383" lon="-5.359867">
        <ele>2603.0</ele>
        <time>2015-07-25T13:43:38Z</time>
      </trkpt>
      <trkpt lat="40.424467" lon="-5.359900">
        <ele>2604.0</ele>
        <time>2015-07-25T13:43:39Z</time>
      </trkpt>
      <trkpt lat="40.424533" lon="-5.359933">
        <ele>2605.0</ele>
        <time>2015-07-25T13:43:40Z</time>
      </trkpt>
      <trkpt lat="40.424617" lon="-5.359967">
        <ele>2605.0</ele>
        <time>2015-07-25T13:43:41Z</time>
      </trkpt>
      <trkpt lat="40.424717" lon="-5.360017">
        <ele>2606.0</ele>
        <time>2015-07-25T13:43:42Z</time>
      </trkpt>
      <trkpt lat="40.424800" lon="-5.360067">
        <ele>2607.0</ele>
        <time>2015-07-25T13:43:43Z</time>
      </trkpt>
      <trkpt lat="40.424883" lon="-5.360150">
        <ele>2609.0</ele>
        <time>2015-07-25T13:43:44Z</time>
      </trkpt>
      <trkpt lat="40.424950" lon="-5.360233">
        <ele>2611.0</ele>
        <time>2015-07-25T13:43:45Z</time>
      </trkpt>
      <trkpt lat="40.425000" lon="-5.360333">
        <ele>2613.0</ele>
        <time>2015-07-25T13:43:46Z</time>
      </trkpt>
      <trkpt lat="40.425067" lon="-5.360433">
        <ele>2614.0</ele>
        <time>2015-07-25T13:43:47Z</time>
      </trkpt>
      <trkpt lat="40.425117" lon="-5.360533">
        <ele>2615.0</ele>
        <time>2015-07-25T13:43:48Z</time>
      </trkpt>
      <trkpt lat="40.425183" lon="-5.360633">
        <ele>2616.0</ele>
        <time>2015-07-25T13:43:49Z</time>
      </trkpt>
      <trkpt lat="40.425250" lon="-5.360733">
        <ele>2616.0</ele>
        <time>2015-07-25T13:43:50Z</time>
      </trkpt>
      <trkpt lat="40.425317" lon="-5.360817">
        <ele>2617.0</ele>
        <time>2015-07-25T13:43:51Z</time>
      </trkpt>
      <trkpt lat="40.425400" lon="-5.360900">
        <ele>2617.0</ele>
        <time>2015-07-25T13:43:52Z</time>
      </trkpt>
      <trkpt lat="40.425483" lon="-5.361000">
        <ele>2618.0</ele>
        <time>2015-07-25T13:43:53Z</time>
      </trkpt>
      <trkpt lat="40.425567" lon="-5.361083">
        <ele>2619.0</ele>
        <time>2015-07-25T13:43:54Z</time>
      </trkpt>
      <trkpt lat="40.425667" lon="-5.361167">
        <ele>2620.0</ele>
        <time>2015-07-25T13:43:55Z</time>
      </trkpt>
      <trkpt lat="40.425750" lon="-5.361267">
        <ele>2621.0</ele>
        <time>2015-07-25T13:43:56Z</time>
      </trkpt>
      <trkpt lat="40.425833" lon="-5.361383">
        <ele>2621.0</ele>
        <time>2015-07-25T13:43:57Z</time>
      </trkpt>
      <trkpt lat="40.425900" lon="-5.361483">
        <ele>2622.0</ele>
        <time>2015-07-25T13:43:58Z</time>
      </trkpt>
      <trkpt lat="40.425983" lon="-5.361600">
        <ele>2622.0</ele>
        <time>2015-07-25T13:43:59Z</time>
      </trkpt>
      <trkpt lat="40.426067" lon="-5.361683">
        <ele>2622.0</ele>
        <time>2015-07-25T13:44:00Z</time>
      </trkpt>
      <trkpt lat="40.426150" lon="-5.361783">
        <ele>2621.0</ele>
        <time>2015-07-25T13:44:01Z</time>
      </trkpt>
      <trkpt lat="40.426233" lon="-5.361883">
        <ele>2620.0</ele>
        <time>2015-07-25T13:44:02Z</time>
      </trkpt>
      <trkpt lat="40.426300" lon="-5.361983">
        <ele>2619.0</ele>
        <time>2015-07-25T13:44:03Z</time>
      </trkpt>
      <trkpt lat="40.426367" lon="-5.362083">
        <ele>2618.0</ele>
        <time>2015-07-25T13:44:04Z</time>
      </trkpt>
      <trkpt lat="40.426450" lon="-5.362200">
        <ele>2616.0</ele>
        <time>2015-07-25T13:44:05Z</time>
      </trkpt>
      <trkpt lat="40.426533" lon="-5.362300">
        <ele>2614.0</ele>
        <time>2015-07-25T13:44:06Z</time>
      </trkpt>
      <trkpt lat="40.426633" lon="-5.362417">
        <ele>2614.0</ele>
        <time>2015-07-25T13:44:07Z</time>
      </trkpt>
      <trkpt lat="40.426717" lon="-5.362517">
        <ele>2615.0</ele>
        <time>2015-07-25T13:44:08Z</time>
      </trkpt>
      <trkpt lat="40.426783" lon="-5.362633">
        <ele>2616.0</ele>
        <time>2015-07-25T13:44:09Z</time>
      </trkpt>
      <trkpt lat="40.426850" lon="-5.362750">
        <ele>2618.0</ele>
        <time>2015-07-25T13:44:10Z</time>
      </trkpt>
      <trkpt lat="40.426917" lon="-5.362867">
        <ele>2619.0</ele>
        <time>2015-07-25T13:44:11Z</time>
      </trkpt>
      <trkpt lat="40.426983" lon="-5.362967">
        <ele>2620.0</ele>
        <time>2015-07-25T13:44:12Z</time>
      </trkpt>
      <trkpt lat="40.427050" lon="-5.363067">
        <ele>2621.0</ele>
        <time>2015-07-25T13:44:13Z</time>
      </trkpt>
      <trkpt lat="40.427117" lon="-5.363167">
        <ele>2623.0</ele>
        <time>2015-07-25T13:44:14Z</time>
      </trkpt>
      <trkpt lat="40.427183" lon="-5.363267">
        <ele>2625.0</ele>
        <time>2015-07-25T13:44:15Z</time>
      </trkpt>
      <trkpt lat="40.427250" lon="-5.363367">
        <ele>2626.0</ele>
        <time>2015-07-25T13:44:16Z</time>
      </trkpt>
      <trkpt lat="40.427300" lon="-5.363450">
        <ele>2628.0</ele>
        <time>2015-07-25T13:44:17Z</time>
      </trkpt>
      <trkpt lat="40.427350" lon="-5.363550">
        <ele>2629.0</ele>
        <time>2015-07-25T13:44:18Z</time>
      </trkpt>
      <trkpt lat="40.427383" lon="-5.363650">
        <ele>2628.0</ele>
        <time>2015-07-25T13:44:19Z</time>
      </trkpt>
      <trkpt lat="40.427417" lon="-5.363750">
        <ele>2628.0</ele>
        <time>2015-07-25T13:44:20Z</time>
      </trkpt>
      <trkpt lat="40.427450" lon="-5.363867">
        <ele>2626.0</ele>
        <time>2015-07-25T13:44:21Z</time>
      </trkpt>
      <trkpt lat="40.427500" lon="-5.363983">
        <ele>2624.0</ele>
        <time>2015-07-25T13:44:22Z</time>
      </trkpt>
      <trkpt lat="40.427567" lon="-5.364100">
        <ele>2622.0</ele>
        <time>2015-07-25T13:44:23Z</time>
      </trkpt>
      <trkpt lat="40.427633" lon="-5.364217">
        <ele>2620.0</ele>
        <time>2015-07-25T13:44:24Z</time>
      </trkpt>
      <trkpt lat="40.427717" lon="-5.364317">
        <ele>2619.0</ele>
        <time>2015-07-25T13:44:25Z</time>
      </trkpt>
      <trkpt lat="40.427783" lon="-5.364433">
        <ele>2618.0</ele>
        <time>2015-07-25T13:44:26Z</time>
      </trkpt>
      <trkpt lat="40.427850" lon="-5.364550">
        <ele>2616.0</ele>
        <time>2015-07-25T13:44:27Z</time>
      </trkpt>
      <trkpt lat="40.427917" lon="-5.364650">
        <ele>2615.0</ele>
        <time>2015-07-25T13:44:28Z</time>
      </trkpt>
      <trkpt lat="40.427983" lon="-5.364750">
        <ele>2612.0</ele>
        <time>2015-07-25T13:44:29Z</time>
      </trkpt>
      <trkpt lat="40.428067" lon="-5.364867">
        <ele>2610.0</ele>
        <time>2015-07-25T13:44:30Z</time>
      </trkpt>
      <trkpt lat="40.428150" lon="-5.364967">
        <ele>2608.0</ele>
        <time>2015-07-25T13:44:31Z</time>
      </trkpt>
      <trkpt lat="40.428233" lon="-5.365067">
        <ele>2607.0</ele>
        <time>2015-07-25T13:44:32Z</time>
      </trkpt>
      <trkpt lat="40.428317" lon="-5.365150">
        <ele>2608.0</ele>
        <time>2015-07-25T13:44:33Z</time>
      </trkpt>
      <trkpt lat="40.428400" lon="-5.365233">
        <ele>2609.0</ele>
        <time>2015-07-25T13:44:34Z</time>
      </trkpt>
      <trkpt lat="40.428467" lon="-5.365317">
        <ele>2610.0</ele>
        <time>2015-07-25T13:44:35Z</time>
      </trkpt>
      <trkpt lat="40.428533" lon="-5.365383">
        <ele>2609.0</ele>
        <time>2015-07-25T13:44:36Z</time>
      </trkpt>
      <trkpt lat="40.428600" lon="-5.365450">
        <ele>2608.0</ele>
        <time>2015-07-25T13:44:37Z</time>
      </trkpt>
      <trkpt lat="40.428667" lon="-5.365533">
        <ele>2607.0</ele>
        <time>2015-07-25T13:44:38Z</time>
      </trkpt>
      <trkpt lat="40.428750" lon="-5.365633">
        <ele>2605.0</ele>
        <time>2015-07-25T13:44:39Z</time>
      </trkpt>
      <trkpt lat="40.428833" lon="-5.365750">
        <ele>2604.0</ele>
        <time>2015-07-25T13:44:40Z</time>
      </trkpt>
      <trkpt lat="40.428917" lon="-5.365850">
        <ele>2605.0</ele>
        <time>2015-07-25T13:44:41Z</time>
      </trkpt>
      <trkpt lat="40.429000" lon="-5.365917">
        <ele>2607.0</ele>
        <time>2015-07-25T13:44:42Z</time>
      </trkpt>
      <trkpt lat="40.429083" lon="-5.365983">
        <ele>2608.0</ele>
        <time>2015-07-25T13:44:43Z</time>
      </trkpt>
      <trkpt lat="40.429150" lon="-5.366050">
        <ele>2608.0</ele>
        <time>2015-07-25T13:44:44Z</time>
      </trkpt>
      <trkpt lat="40.429233" lon="-5.366133">
        <ele>2607.0</ele>
        <time>2015-07-25T13:44:45Z</time>
      </trkpt>
      <trkpt lat="40.429317" lon="-5.366200">
        <ele>2606.0</ele>
        <time>2015-07-25T13:44:46Z</time>
      </trkpt>
      <trkpt lat="40.429417" lon="-5.366300">
        <ele>2605.0</ele>
        <time>2015-07-25T13:44:47Z</time>
      </trkpt>
      <trkpt lat="40.429500" lon="-5.366383">
        <ele>2605.0</ele>
        <time>2015-07-25T13:44:48Z</time>
      </trkpt>
      <trkpt lat="40.429600" lon="-5.366467">
        <ele>2606.0</ele>
        <time>2015-07-25T13:44:49Z</time>
      </trkpt>
      <trkpt lat="40.429683" lon="-5.366550">
        <ele>2606.0</ele>
        <time>2015-07-25T13:44:50Z</time>
      </trkpt>
      <trkpt lat="40.429767" lon="-5.366633">
        <ele>2606.0</ele>
        <time>2015-07-25T13:44:51Z</time>
      </trkpt>
      <trkpt lat="40.429850" lon="-5.366733">
        <ele>2606.0</ele>
        <time>2015-07-25T13:44:52Z</time>
      </trkpt>
      <trkpt lat="40.429933" lon="-5.366817">
        <ele>2605.0</ele>
        <time>2015-07-25T13:44:53Z</time>
      </trkpt>
      <trkpt lat="40.430000" lon="-5.366917">
        <ele>2604.0</ele>
        <time>2015-07-25T13:44:54Z</time>
      </trkpt>
      <trkpt lat="40.430083" lon="-5.367033">
        <ele>2602.0</ele>
        <time>2015-07-25T13:44:55Z</time>
      </trkpt>
      <trkpt lat="40.430167" lon="-5.367150">
        <ele>2600.0</ele>
        <time>2015-07-25T13:44:56Z</time>
      </trkpt>
      <trkpt lat="40.430250" lon="-5.367250">
        <ele>2599.0</ele>
        <time>2015-07-25T13:44:57Z</time>
      </trkpt>
      <trkpt lat="40.430350" lon="-5.367367">
        <ele>2598.0</ele>
        <time>2015-07-25T13:44:58Z</time>
      </trkpt>
      <trkpt lat="40.430450" lon="-5.367467">
        <ele>2598.0</ele>
        <time>2015-07-25T13:44:59Z</time>
      </trkpt>
      <trkpt lat="40.430533" lon="-5.367550">
        <ele>2599.0</ele>
        <time>2015-07-25T13:45:00Z</time>
      </trkpt>
      <trkpt lat="40.430633" lon="-5.367633">
        <ele>2599.0</ele>
        <time>2015-07-25T13:45:01Z</time>
      </trkpt>
      <trkpt lat="40.430717" lon="-5.367717">
        <ele>2598.0</ele>
        <time>2015-07-25T13:45:02Z</time>
      </trkpt>
      <trkpt lat="40.430817" lon="-5.367783">
        <ele>2597.0</ele>
        <time>2015-07-25T13:45:03Z</time>
      </trkpt>
      <trkpt lat="40.430917" lon="-5.367867">
        <ele>2596.0</ele>
        <time>2015-07-25T13:45:04Z</time>
      </trkpt>
      <trkpt lat="40.431017" lon="-5.367950">
        <ele>2594.0</ele>
        <time>2015-07-25T13:45:05Z</time>
      </trkpt>
      <trkpt lat="40.431117" lon="-5.368050">
        <ele>2593.0</ele>
        <time>2015-07-25T13:45:06Z</time>
      </trkpt>
      <trkpt lat="40.431217" lon="-5.368150">
        <ele>2593.0</ele>
        <time>2015-07-25T13:45:07Z</time>
      </trkpt>
      <trkpt lat="40.431300" lon="-5.368250">
        <ele>2593.0</ele>
        <time>2015-07-25T13:45:08Z</time>
      </trkpt>
      <trkpt lat="40.431367" lon="-5.368367">
        <ele>2593.0</ele>
        <time>2015-07-25T13:45:09Z</time>
      </trkpt>
      <trkpt lat="40.431417" lon="-5.368467">
        <ele>2592.0</ele>
        <time>2015-07-25T13:45:10Z</time>
      </trkpt>
      <trkpt lat="40.431483" lon="-5.368567">
        <ele>2589.0</ele>
        <time>2015-07-25T13:45:11Z</time>
      </trkpt>
      <trkpt lat="40.431550" lon="-5.368700">
        <ele>2586.0</ele>
        <time>2015-07-25T13:45:12Z</time>
      </trkpt>
      <trkpt lat="40.431617" lon="-5.368817">
        <ele>2584.0</ele>
        <time>2015-07-25T13:45:13Z</time>
      </trkpt>
      <trkpt lat="40.431683" lon="-5.368950">
        <ele>2582.0</ele>
        <time>2015-07-25T13:45:14Z</time>
      </trkpt>
      <trkpt lat="40.431750" lon="-5.369083">
        <ele>2582.0</ele>
        <time>2015-07-25T13:45:15Z</time>
      </trkpt>
      <trkpt lat="40.431817" lon="-5.369200">
        <ele>2581.0</ele>
        <time>2015-07-25T13:45:16Z</time>
      </trkpt>
      <trkpt lat="40.431900" lon="-5.369317">
        <ele>2580.0</ele>
        <time>2015-07-25T13:45:17Z</time>
      </trkpt>
      <trkpt lat="40.431967" lon="-5.369433">
        <ele>2579.0</ele>
        <time>2015-07-25T13:45:18Z</time>
      </trkpt>
      <trkpt lat="40.432017" lon="-5.369550">
        <ele>2577.0</ele>
        <time>2015-07-25T13:45:19Z</time>
      </trkpt>
      <trkpt lat="40.432083" lon="-5.369683">
        <ele>2576.0</ele>
        <time>2015-07-25T13:45:20Z</time>
      </trkpt>
      <trkpt lat="40.432150" lon="-5.369817">
        <ele>2574.0</ele>
        <time>2015-07-25T13:45:21Z</time>
      </trkpt>
      <trkpt lat="40.432200" lon="-5.369950">
        <ele>2573.0</ele>
        <time>2015-07-25T13:45:22Z</time>
      </trkpt>
      <trkpt lat="40.432267" lon="-5.370083">
        <ele>2571.0</ele>
        <time>2015-07-25T13:45:23Z</time>
      </trkpt>
      <trkpt lat="40.432317" lon="-5.370217">
        <ele>2569.0</ele>
        <time>2015-07-25T13:45:24Z</time>
      </trkpt>
      <trkpt lat="40.432367" lon="-5.370350">
        <ele>2568.0</ele>
        <time>2015-07-25T13:45:25Z</time>
      </trkpt>
      <trkpt lat="40.432417" lon="-5.370483">
        <ele>2566.0</ele>
        <time>2015-07-25T13:45:26Z</time>
      </trkpt>
      <trkpt lat="40.432467" lon="-5.370617">
        <ele>2564.0</ele>
        <time>2015-07-25T13:45:27Z</time>
      </trkpt>
      <trkpt lat="40.432533" lon="-5.370733">
        <ele>2561.0</ele>
        <time>2015-07-25T13:45:28Z</time>
      </trkpt>
      <trkpt lat="40.432583" lon="-5.370867">
        <ele>2560.0</ele>
        <time>2015-07-25T13:45:29Z</time>
      </trkpt>
      <trkpt lat="40.432633" lon="-5.371000">
        <ele>2557.0</ele>
        <time>2015-07-25T13:45:30Z</time>
      </trkpt>
      <trkpt lat="40.432683" lon="-5.371117">
        <ele>2555.0</ele>
        <time>2015-07-25T13:45:31Z</time>
      </trkpt>
      <trkpt lat="40.432750" lon="-5.371250">
        <ele>2554.0</ele>
        <time>2015-07-25T13:45:32Z</time>
      </trkpt>
      <trkpt lat="40.432800" lon="-5.371383">
        <ele>2553.0</ele>
        <time>2015-07-25T13:45:33Z</time>
      </trkpt>
      <trkpt lat="40.432867" lon="-5.371517">
        <ele>2552.0</ele>
        <time>2015-07-25T13:45:34Z</time>
      </trkpt>
      <trkpt lat="40.432917" lon="-5.371633">
        <ele>2551.0</ele>
        <time>2015-07-25T13:45:35Z</time>
      </trkpt>
      <trkpt lat="40.432950" lon="-5.371767">
        <ele>2550.0</ele>
        <time>2015-07-25T13:45:36Z</time>
      </trkpt>
      <trkpt lat="40.433000" lon="-5.371883">
        <ele>2548.0</ele>
        <time>2015-07-25T13:45:37Z</time>
      </trkpt>
      <trkpt lat="40.433067" lon="-5.371983">
        <ele>2546.0</ele>
        <time>2015-07-25T13:45:38Z</time>
      </trkpt>
      <trkpt lat="40.433117" lon="-5.372117">
        <ele>2544.0</ele>
        <time>2015-07-25T13:45:39Z</time>
      </trkpt>
      <trkpt lat="40.433167" lon="-5.372233">
        <ele>2543.0</ele>
        <time>2015-07-25T13:45:40Z</time>
      </trkpt>
      <trkpt lat="40.433217" lon="-5.372367">
        <ele>2542.0</ele>
        <time>2015-07-25T13:45:41Z</time>
      </trkpt>
      <trkpt lat="40.433283" lon="-5.372483">
        <ele>2542.0</ele>
        <time>2015-07-25T13:45:42Z</time>
      </trkpt>
      <trkpt lat="40.433350" lon="-5.372600">
        <ele>2542.0</ele>
        <time>2015-07-25T13:45:43Z</time>
      </trkpt>
      <trkpt lat="40.433400" lon="-5.372700">
        <ele>2541.0</ele>
        <time>2015-07-25T13:45:44Z</time>
      </trkpt>
      <trkpt lat="40.433433" lon="-5.372800">
        <ele>2540.0</ele>
        <time>2015-07-25T13:45:45Z</time>
      </trkpt>
      <trkpt lat="40.433467" lon="-5.372917">
        <ele>2538.0</ele>
        <time>2015-07-25T13:45:46Z</time>
      </trkpt>
      <trkpt lat="40.433500" lon="-5.373033">
        <ele>2535.0</ele>
        <time>2015-07-25T13:45:47Z</time>
      </trkpt>
      <trkpt lat="40.433550" lon="-5.373150">
        <ele>2533.0</ele>
        <time>2015-07-25T13:45:48Z</time>
      </trkpt>
      <trkpt lat="40.433600" lon="-5.373283">
        <ele>2530.0</ele>
        <time>2015-07-25T13:45:49Z</time>
      </trkpt>
      <trkpt lat="40.433667" lon="-5.373400">
        <ele>2528.0</ele>
        <time>2015-07-25T13:45:50Z</time>
      </trkpt>
      <trkpt lat="40.433717" lon="-5.373517">
        <ele>2527.0</ele>
        <time>2015-07-25T13:45:51Z</time>
      </trkpt>
      <trkpt lat="40.433767" lon="-5.373650">
        <ele>2525.0</ele>
        <time>2015-07-25T13:45:52Z</time>
      </trkpt>
      <trkpt lat="40.433817" lon="-5.373783">
        <ele>2523.0</ele>
        <time>2015-07-25T13:45:53Z</time>
      </trkpt>
      <trkpt lat="40.433867" lon="-5.373900">
        <ele>2521.0</ele>
        <time>2015-07-25T13:45:54Z</time>
      </trkpt>
      <trkpt lat="40.433933" lon="-5.374017">
        <ele>2519.0</ele>
        <time>2015-07-25T13:45:55Z</time>
      </trkpt>
      <trkpt lat="40.434000" lon="-5.374133">
        <ele>2517.0</ele>
        <time>2015-07-25T13:45:56Z</time>
      </trkpt>
      <trkpt lat="40.434067" lon="-5.374250">
        <ele>2515.0</ele>
        <time>2015-07-25T13:45:57Z</time>
      </trkpt>
      <trkpt lat="40.434133" lon="-5.374367">
        <ele>2513.0</ele>
        <time>2015-07-25T13:45:58Z</time>
      </trkpt>
      <trkpt lat="40.434200" lon="-5.374483">
        <ele>2511.0</ele>
        <time>2015-07-25T13:45:59Z</time>
      </trkpt>
      <trkpt lat="40.434267" lon="-5.374600">
        <ele>2508.0</ele>
        <time>2015-07-25T13:46:00Z</time>
      </trkpt>
      <trkpt lat="40.434317" lon="-5.374717">
        <ele>2506.0</ele>
        <time>2015-07-25T13:46:01Z</time>
      </trkpt>
      <trkpt lat="40.434400" lon="-5.374817">
        <ele>2503.0</ele>
        <time>2015-07-25T13:46:02Z</time>
      </trkpt>
      <trkpt lat="40.434467" lon="-5.374950">
        <ele>2501.0</ele>
        <time>2015-07-25T13:46:03Z</time>
      </trkpt>
      <trkpt lat="40.434533" lon="-5.375067">
        <ele>2499.0</ele>
        <time>2015-07-25T13:46:04Z</time>
      </trkpt>
      <trkpt lat="40.434617" lon="-5.375167">
        <ele>2499.0</ele>
        <time>2015-07-25T13:46:05Z</time>
      </trkpt>
      <trkpt lat="40.434683" lon="-5.375267">
        <ele>2499.0</ele>
        <time>2015-07-25T13:46:06Z</time>
      </trkpt>
      <trkpt lat="40.434767" lon="-5.375350">
        <ele>2499.0</ele>
        <time>2015-07-25T13:46:07Z</time>
      </trkpt>
      <trkpt lat="40.434833" lon="-5.375433">
        <ele>2498.0</ele>
        <time>2015-07-25T13:46:08Z</time>
      </trkpt>
      <trkpt lat="40.434900" lon="-5.375533">
        <ele>2496.0</ele>
        <time>2015-07-25T13:46:09Z</time>
      </trkpt>
      <trkpt lat="40.434983" lon="-5.375617">
        <ele>2494.0</ele>
        <time>2015-07-25T13:46:10Z</time>
      </trkpt>
      <trkpt lat="40.435067" lon="-5.375717">
        <ele>2492.0</ele>
        <time>2015-07-25T13:46:11Z</time>
      </trkpt>
      <trkpt lat="40.435150" lon="-5.375833">
        <ele>2491.0</ele>
        <time>2015-07-25T13:46:12Z</time>
      </trkpt>
      <trkpt lat="40.435217" lon="-5.375933">
        <ele>2490.0</ele>
        <time>2015-07-25T13:46:13Z</time>
      </trkpt>
      <trkpt lat="40.435300" lon="-5.376033">
        <ele>2490.0</ele>
        <time>2015-07-25T13:46:14Z</time>
      </trkpt>
      <trkpt lat="40.435350" lon="-5.376133">
        <ele>2489.0</ele>
        <time>2015-07-25T13:46:15Z</time>
      </trkpt>
      <trkpt lat="40.435417" lon="-5.376233">
        <ele>2487.0</ele>
        <time>2015-07-25T13:46:16Z</time>
      </trkpt>
      <trkpt lat="40.435467" lon="-5.376333">
        <ele>2484.0</ele>
        <time>2015-07-25T13:46:17Z</time>
      </trkpt>
      <trkpt lat="40.435517" lon="-5.376467">
        <ele>2481.0</ele>
        <time>2015-07-25T13:46:18Z</time>
      </trkpt>
      <trkpt lat="40.435550" lon="-5.376617">
        <ele>2479.0</ele>
        <time>2015-07-25T13:46:19Z</time>
      </trkpt>
      <trkpt lat="40.435600" lon="-5.376750">
        <ele>2478.0</ele>
        <time>2015-07-25T13:46:20Z</time>
      </trkpt>
      <trkpt lat="40.435633" lon="-5.376883">
        <ele>2478.0</ele>
        <time>2015-07-25T13:46:21Z</time>
      </trkpt>
      <trkpt lat="40.435683" lon="-5.377017">
        <ele>2477.0</ele>
        <time>2015-07-25T13:46:22Z</time>
      </trkpt>
      <trkpt lat="40.435717" lon="-5.377150">
        <ele>2474.0</ele>
        <time>2015-07-25T13:46:23Z</time>
      </trkpt>
      <trkpt lat="40.435767" lon="-5.377300">
        <ele>2472.0</ele>
        <time>2015-07-25T13:46:24Z</time>
      </trkpt>
      <trkpt lat="40.435800" lon="-5.377450">
        <ele>2469.0</ele>
        <time>2015-07-25T13:46:25Z</time>
      </trkpt>
      <trkpt lat="40.435850" lon="-5.377583">
        <ele>2468.0</ele>
        <time>2015-07-25T13:46:26Z</time>
      </trkpt>
      <trkpt lat="40.435883" lon="-5.377717">
        <ele>2469.0</ele>
        <time>2015-07-25T13:46:27Z</time>
      </trkpt>
      <trkpt lat="40.435917" lon="-5.377817">
        <ele>2469.0</ele>
        <time>2015-07-25T13:46:28Z</time>
      </trkpt>
      <trkpt lat="40.435950" lon="-5.377917">
        <ele>2468.0</ele>
        <time>2015-07-25T13:46:29Z</time>
      </trkpt>
      <trkpt lat="40.436000" lon="-5.377983">
        <ele>2468.0</ele>
        <time>2015-07-25T13:46:30Z</time>
      </trkpt>
      <trkpt lat="40.436033" lon="-5.378067">
        <ele>2467.0</ele>
        <time>2015-07-25T13:46:31Z</time>
      </trkpt>
      <trkpt lat="40.436067" lon="-5.378167">
        <ele>2465.0</ele>
        <time>2015-07-25T13:46:32Z</time>
      </trkpt>
      <trkpt lat="40.436100" lon="-5.378267">
        <ele>2463.0</ele>
        <time>2015-07-25T13:46:33Z</time>
      </trkpt>
      <trkpt lat="40.436133" lon="-5.378367">
        <ele>2462.0</ele>
        <time>2015-07-25T13:46:34Z</time>
      </trkpt>
      <trkpt lat="40.436183" lon="-5.378483">
        <ele>2460.0</ele>
        <time>2015-07-25T13:46:35Z</time>
      </trkpt>
      <trkpt lat="40.436233" lon="-5.378583">
        <ele>2460.0</ele>
        <time>2015-07-25T13:46:36Z</time>
      </trkpt>
      <trkpt lat="40.436283" lon="-5.378667">
        <ele>2461.0</ele>
        <time>2015-07-25T13:46:37Z</time>
      </trkpt>
      <trkpt lat="40.436317" lon="-5.378750">
        <ele>2461.0</ele>
        <time>2015-07-25T13:46:38Z</time>
      </trkpt>
      <trkpt lat="40.436350" lon="-5.378833">
        <ele>2459.0</ele>
        <time>2015-07-25T13:46:39Z</time>
      </trkpt>
      <trkpt lat="40.436367" lon="-5.378933">
        <ele>2457.0</ele>
        <time>2015-07-25T13:46:40Z</time>
      </trkpt>
      <trkpt lat="40.436400" lon="-5.379050">
        <ele>2454.0</ele>
        <time>2015-07-25T13:46:41Z</time>
      </trkpt>
      <trkpt lat="40.436417" lon="-5.379183">
        <ele>2452.0</ele>
        <time>2015-07-25T13:46:42Z</time>
      </trkpt>
      <trkpt lat="40.436450" lon="-5.379317">
        <ele>2450.0</ele>
        <time>2015-07-25T13:46:43Z</time>
      </trkpt>
      <trkpt lat="40.436467" lon="-5.379467">
        <ele>2449.0</ele>
        <time>2015-07-25T13:46:44Z</time>
      </trkpt>
      <trkpt lat="40.436517" lon="-5.379583">
        <ele>2449.0</ele>
        <time>2015-07-25T13:46:45Z</time>
      </trkpt>
      <trkpt lat="40.436567" lon="-5.379667">
        <ele>2449.0</ele>
        <time>2015-07-25T13:46:46Z</time>
      </trkpt>
      <trkpt lat="40.436600" lon="-5.379750">
        <ele>2448.0</ele>
        <time>2015-07-25T13:46:47Z</time>
      </trkpt>
      <trkpt lat="40.436650" lon="-5.379817">
        <ele>2447.0</ele>
        <time>2015-07-25T13:46:48Z</time>
      </trkpt>
      <trkpt lat="40.436700" lon="-5.379900">
        <ele>2444.0</ele>
        <time>2015-07-25T13:46:49Z</time>
      </trkpt>
      <trkpt lat="40.436733" lon="-5.380000">
        <ele>2440.0</ele>
        <time>2015-07-25T13:46:50Z</time>
      </trkpt>
      <trkpt lat="40.436783" lon="-5.380100">
        <ele>2436.0</ele>
        <time>2015-07-25T13:46:51Z</time>
      </trkpt>
      <trkpt lat="40.436817" lon="-5.380217">
        <ele>2431.0</ele>
        <time>2015-07-25T13:46:52Z</time>
      </trkpt>
      <trkpt lat="40.436867" lon="-5.380333">
        <ele>2428.0</ele>
        <time>2015-07-25T13:46:53Z</time>
      </trkpt>
      <trkpt lat="40.436917" lon="-5.380433">
        <ele>2425.0</ele>
        <time>2015-07-25T13:46:54Z</time>
      </trkpt>
      <trkpt lat="40.436967" lon="-5.380533">
        <ele>2421.0</ele>
        <time>2015-07-25T13:46:55Z</time>
      </trkpt>
      <trkpt lat="40.437017" lon="-5.380617">
        <ele>2418.0</ele>
        <time>2015-07-25T13:46:56Z</time>
      </trkpt>
      <trkpt lat="40.437067" lon="-5.380700">
        <ele>2414.0</ele>
        <time>2015-07-25T13:46:57Z</time>
      </trkpt>
      <trkpt lat="40.437117" lon="-5.380783">
        <ele>2411.0</ele>
        <time>2015-07-25T13:46:58Z</time>
      </trkpt>
      <trkpt lat="40.437150" lon="-5.380867">
        <ele>2407.0</ele>
        <time>2015-07-25T13:46:59Z</time>
      </trkpt>
      <trkpt lat="40.437183" lon="-5.380950">
        <ele>2402.0</ele>
        <time>2015-07-25T13:47:00Z</time>
      </trkpt>
      <trkpt lat="40.437233" lon="-5.381050">
        <ele>2396.0</ele>
        <time>2015-07-25T13:47:01Z</time>
      </trkpt>
      <trkpt lat="40.437283" lon="-5.381133">
        <ele>2389.0</ele>
        <time>2015-07-25T13:47:02Z</time>
      </trkpt>
      <trkpt lat="40.437350" lon="-5.381217">
        <ele>2383.0</ele>
        <time>2015-07-25T13:47:03Z</time>
      </trkpt>
      <trkpt lat="40.437417" lon="-5.381300">
        <ele>2378.0</ele>
        <time>2015-07-25T13:47:04Z</time>
      </trkpt>
      <trkpt lat="40.437483" lon="-5.381367">
        <ele>2374.0</ele>
        <time>2015-07-25T13:47:05Z</time>
      </trkpt>
      <trkpt lat="40.437550" lon="-5.381450">
        <ele>2371.0</ele>
        <time>2015-07-25T13:47:06Z</time>
      </trkpt>
      <trkpt lat="40.437600" lon="-5.381533">
        <ele>2369.0</ele>
        <time>2015-07-25T13:47:07Z</time>
      </trkpt>
      <trkpt lat="40.437667" lon="-5.381600">
        <ele>2367.0</ele>
        <time>2015-07-25T13:47:08Z</time>
      </trkpt>
      <trkpt lat="40.437717" lon="-5.381650">
        <ele>2365.0</ele>
        <time>2015-07-25T13:47:09Z</time>
      </trkpt>
      <trkpt lat="40.437767" lon="-5.381717">
        <ele>2363.0</ele>
        <time>2015-07-25T13:47:10Z</time>
      </trkpt>
      <trkpt lat="40.437817" lon="-5.381800">
        <ele>2361.0</ele>
        <time>2015-07-25T13:47:11Z</time>
      </trkpt>
      <trkpt lat="40.437850" lon="-5.381867">
        <ele>2360.0</ele>
        <time>2015-07-25T13:47:12Z</time>
      </trkpt>
      <trkpt lat="40.437900" lon="-5.381917">
        <ele>2358.0</ele>
        <time>2015-07-25T13:47:13Z</time>
      </trkpt>
      <trkpt lat="40.437950" lon="-5.381950">
        <ele>2356.0</ele>
        <time>2015-07-25T13:47:14Z</time>
      </trkpt>
      <trkpt lat="40.438000" lon="-5.381983">
        <ele>2354.0</ele>
        <time>2015-07-25T13:47:15Z</time>
      </trkpt>
      <trkpt lat="40.438033" lon="-5.382017">
        <ele>2351.0</ele>
        <time>2015-07-25T13:47:16Z</time>
      </trkpt>
      <trkpt lat="40.438083" lon="-5.382067">
        <ele>2348.0</ele>
        <time>2015-07-25T13:47:17Z</time>
      </trkpt>
      <trkpt lat="40.438133" lon="-5.382117">
        <ele>2344.0</ele>
        <time>2015-07-25T13:47:18Z</time>
      </trkpt>
      <trkpt lat="40.438183" lon="-5.382150">
        <ele>2340.0</ele>
        <time>2015-07-25T13:47:19Z</time>
      </trkpt>
      <trkpt lat="40.438250" lon="-5.382200">
        <ele>2337.0</ele>
        <time>2015-07-25T13:47:20Z</time>
      </trkpt>
      <trkpt lat="40.438300" lon="-5.382250">
        <ele>2334.0</ele>
        <time>2015-07-25T13:47:21Z</time>
      </trkpt>
      <trkpt lat="40.438350" lon="-5.382333">
        <ele>2333.0</ele>
        <time>2015-07-25T13:47:22Z</time>
      </trkpt>
      <trkpt lat="40.438383" lon="-5.382400">
        <ele>2333.0</ele>
        <time>2015-07-25T13:47:23Z</time>
      </trkpt>
      <trkpt lat="40.438417" lon="-5.382467">
        <ele>2332.0</ele>
        <time>2015-07-25T13:47:24Z</time>
      </trkpt>
      <trkpt lat="40.438450" lon="-5.382533">
        <ele>2330.0</ele>
        <time>2015-07-25T13:47:25Z</time>
      </trkpt>
      <trkpt lat="40.438483" lon="-5.382600">
        <ele>2327.0</ele>
        <time>2015-07-25T13:47:26Z</time>
      </trkpt>
      <trkpt lat="40.438533" lon="-5.382667">
        <ele>2325.0</ele>
        <time>2015-07-25T13:47:27Z</time>
      </trkpt>
      <trkpt lat="40.438567" lon="-5.382750">
        <ele>2323.0</ele>
        <time>2015-07-25T13:47:28Z</time>
      </trkpt>
      <trkpt lat="40.438600" lon="-5.382833">
        <ele>2321.0</ele>
        <time>2015-07-25T13:47:29Z</time>
      </trkpt>
      <trkpt lat="40.438617" lon="-5.382917">
        <ele>2320.0</ele>
        <time>2015-07-25T13:47:30Z</time>
      </trkpt>
      <trkpt lat="40.438617" lon="-5.383017">
        <ele>2318.0</ele>
        <time>2015-07-25T13:47:31Z</time>
      </trkpt>
      <trkpt lat="40.438650" lon="-5.383133">
        <ele>2315.0</ele>
        <time>2015-07-25T13:47:32Z</time>
      </trkpt>
      <trkpt lat="40.438683" lon="-5.383233">
        <ele>2313.0</ele>
        <time>2015-07-25T13:47:33Z</time>
      </trkpt>
      <trkpt lat="40.438733" lon="-5.383333">
        <ele>2312.0</ele>
        <time>2015-07-25T13:47:34Z</time>
      </trkpt>
      <trkpt lat="40.438783" lon="-5.383433">
        <ele>2311.0</ele>
        <time>2015-07-25T13:47:35Z</time>
      </trkpt>
      <trkpt lat="40.438833" lon="-5.383517">
        <ele>2311.0</ele>
        <time>2015-07-25T13:47:36Z</time>
      </trkpt>
      <trkpt lat="40.438883" lon="-5.383617">
        <ele>2310.0</ele>
        <time>2015-07-25T13:47:37Z</time>
      </trkpt>
      <trkpt lat="40.438933" lon="-5.383717">
        <ele>2310.0</ele>
        <time>2015-07-25T13:47:38Z</time>
      </trkpt>
      <trkpt lat="40.438983" lon="-5.383817">
        <ele>2309.0</ele>
        <time>2015-07-25T13:47:39Z</time>
      </trkpt>
      <trkpt lat="40.439050" lon="-5.383900">
        <ele>2308.0</ele>
        <time>2015-07-25T13:47:40Z</time>
      </trkpt>
      <trkpt lat="40.439117" lon="-5.383983">
        <ele>2307.0</ele>
        <time>2015-07-25T13:47:41Z</time>
      </trkpt>
      <trkpt lat="40.439200" lon="-5.384083">
        <ele>2308.0</ele>
        <time>2015-07-25T13:47:42Z</time>
      </trkpt>
      <trkpt lat="40.439300" lon="-5.384167">
        <ele>2309.0</ele>
        <time>2015-07-25T13:47:43Z</time>
      </trkpt>
      <trkpt lat="40.439400" lon="-5.384233">
        <ele>2311.0</ele>
        <time>2015-07-25T13:47:44Z</time>
      </trkpt>
      <trkpt lat="40.439467" lon="-5.384283">
        <ele>2316.0</ele>
        <time>2015-07-25T13:47:45Z</time>
      </trkpt>
      <trkpt lat="40.439550" lon="-5.384333">
        <ele>2320.0</ele>
        <time>2015-07-25T13:47:46Z</time>
      </trkpt>
      <trkpt lat="40.439617" lon="-5.384383">
        <ele>2325.0</ele>
        <time>2015-07-25T13:47:47Z</time>
      </trkpt>
      <trkpt lat="40.439667" lon="-5.384450">
        <ele>2330.0</ele>
        <time>2015-07-25T13:47:48Z</time>
      </trkpt>
      <trkpt lat="40.439700" lon="-5.384500">
        <ele>2334.0</ele>
        <time>2015-07-25T13:47:49Z</time>
      </trkpt>
      <trkpt lat="40.439750" lon="-5.384550">
        <ele>2337.0</ele>
        <time>2015-07-25T13:47:50Z</time>
      </trkpt>
      <trkpt lat="40.439800" lon="-5.384567">
        <ele>2339.0</ele>
        <time>2015-07-25T13:47:51Z</time>
      </trkpt>
      <trkpt lat="40.439850" lon="-5.384550">
        <ele>2340.0</ele>
        <time>2015-07-25T13:47:52Z</time>
      </trkpt>
      <trkpt lat="40.439933" lon="-5.384500">
        <ele>2340.0</ele>
        <time>2015-07-25T13:47:53Z</time>
      </trkpt>
      <trkpt lat="40.439983" lon="-5.384400">
        <ele>2340.0</ele>
        <time>2015-07-25T13:47:54Z</time>
      </trkpt>
      <trkpt lat="40.440000" lon="-5.384267">
        <ele>2340.0</ele>
        <time>2015-07-25T13:47:55Z</time>
      </trkpt>
      <trkpt lat="40.439967" lon="-5.384133">
        <ele>2341.0</ele>
        <time>2015-07-25T13:47:56Z</time>
      </trkpt>
      <trkpt lat="40.439900" lon="-5.384000">
        <ele>2341.0</ele>
        <time>2015-07-25T13:47:57Z</time>
      </trkpt>
      <trkpt lat="40.439783" lon="-5.383900">
        <ele>2341.0</ele>
        <time>2015-07-25T13:47:58Z</time>
      </trkpt>
      <trkpt lat="40.439633" lon="-5.383850">
        <ele>2341.0</ele>
        <time>2015-07-25T13:47:59Z</time>
      </trkpt>
      <trkpt lat="40.439483" lon="-5.383833">
        <ele>2342.0</ele>
        <time>2015-07-25T13:48:00Z</time>
      </trkpt>
      <trkpt lat="40.439333" lon="-5.383867">
        <ele>2347.0</ele>
        <time>2015-07-25T13:48:01Z</time>
      </trkpt>
      <trkpt lat="40.439200" lon="-5.383933">
        <ele>2353.0</ele>
        <time>2015-07-25T13:48:02Z</time>
      </trkpt>
      <trkpt lat="40.439100" lon="-5.383983">
        <ele>2358.0</ele>
        <time>2015-07-25T13:48:03Z</time>
      </trkpt>
      <trkpt lat="40.439000" lon="-5.384033">
        <ele>2362.0</ele>
        <time>2015-07-25T13:48:04Z</time>
      </trkpt>
      <trkpt lat="40.438917" lon="-5.384083">
        <ele>2364.0</ele>
        <time>2015-07-25T13:48:05Z</time>
      </trkpt>
      <trkpt lat="40.438833" lon="-5.384167">
        <ele>2365.0</ele>
        <time>2015-07-25T13:48:06Z</time>
      </trkpt>
      <trkpt lat="40.438767" lon="-5.384283">
        <ele>2365.0</ele>
        <time>2015-07-25T13:48:07Z</time>
      </trkpt>
      <trkpt lat="40.438750" lon="-5.384417">
        <ele>2366.0</ele>
        <time>2015-07-25T13:48:08Z</time>
      </trkpt>
      <trkpt lat="40.438800" lon="-5.384533">
        <ele>2367.0</ele>
        <time>2015-07-25T13:48:09Z</time>
      </trkpt>
      <trkpt lat="40.438867" lon="-5.384567">
        <ele>2369.0</ele>
        <time>2015-07-25T13:48:10Z</time>
      </trkpt>
      <trkpt lat="40.438933" lon="-5.384517">
        <ele>2371.0</ele>
        <time>2015-07-25T13:48:11Z</time>
      </trkpt>
      <trkpt lat="40.438983" lon="-5.384400">
        <ele>2374.0</ele>
        <time>2015-07-25T13:48:12Z</time>
      </trkpt>
      <trkpt lat="40.438983" lon="-5.384267">
        <ele>2376.0</ele>
        <time>2015-07-25T13:48:13Z</time>
      </trkpt>
      <trkpt lat="40.438917" lon="-5.384117">
        <ele>2379.0</ele>
        <time>2015-07-25T13:48:14Z</time>
      </trkpt>
      <trkpt lat="40.438833" lon="-5.384000">
        <ele>2380.0</ele>
        <time>2015-07-25T13:48:15Z</time>
      </trkpt>
      <trkpt lat="40.438717" lon="-5.383917">
        <ele>2381.0</ele>
        <time>2015-07-25T13:48:16Z</time>
      </trkpt>
      <trkpt lat="40.438583" lon="-5.383867">
        <ele>2383.0</ele>
        <time>2015-07-25T13:48:17Z</time>
      </trkpt>
      <trkpt lat="40.438433" lon="-5.383867">
        <ele>2385.0</ele>
        <time>2015-07-25T13:48:18Z</time>
      </trkpt>
      <trkpt lat="40.438300" lon="-5.383900">
        <ele>2387.0</ele>
        <time>2015-07-25T13:48:19Z</time>
      </trkpt>
      <trkpt lat="40.438183" lon="-5.383950">
        <ele>2389.0</ele>
        <time>2015-07-25T13:48:20Z</time>
      </trkpt>
      <trkpt lat="40.438083" lon="-5.384017">
        <ele>2391.0</ele>
        <time>2015-07-25T13:48:21Z</time>
      </trkpt>
      <trkpt lat="40.437983" lon="-5.384100">
        <ele>2394.0</ele>
        <time>2015-07-25T13:48:22Z</time>
      </trkpt>
      <trkpt lat="40.437900" lon="-5.384217">
        <ele>2396.0</ele>
        <time>2015-07-25T13:48:23Z</time>
      </trkpt>
      <trkpt lat="40.437867" lon="-5.384350">
        <ele>2397.0</ele>
        <time>2015-07-25T13:48:24Z</time>
      </trkpt>
      <trkpt lat="40.437867" lon="-5.384467">
        <ele>2399.0</ele>
        <time>2015-07-25T13:48:25Z</time>
      </trkpt>
      <trkpt lat="40.437900" lon="-5.384533">
        <ele>2400.0</ele>
        <time>2015-07-25T13:48:26Z</time>
      </trkpt>
      <trkpt lat="40.437950" lon="-5.384533">
        <ele>2402.0</ele>
        <time>2015-07-25T13:48:27Z</time>
      </trkpt>
      <trkpt lat="40.438017" lon="-5.384483">
        <ele>2403.0</ele>
        <time>2015-07-25T13:48:28Z</time>
      </trkpt>
      <trkpt lat="40.438067" lon="-5.384383">
        <ele>2405.0</ele>
        <time>2015-07-25T13:48:29Z</time>
      </trkpt>
      <trkpt lat="40.438100" lon="-5.384267">
        <ele>2409.0</ele>
        <time>2015-07-25T13:48:30Z</time>
      </trkpt>
      <trkpt lat="40.438100" lon="-5.384117">
        <ele>2412.0</ele>
        <time>2015-07-25T13:48:31Z</time>
      </trkpt>
      <trkpt lat="40.438067" lon="-5.383967">
        <ele>2414.0</ele>
        <time>2015-07-25T13:48:32Z</time>
      </trkpt>
      <trkpt lat="40.437983" lon="-5.383800">
        <ele>2415.0</ele>
        <time>2015-07-25T13:48:33Z</time>
      </trkpt>
      <trkpt lat="40.437883" lon="-5.383667">
        <ele>2418.0</ele>
        <time>2015-07-25T13:48:34Z</time>
      </trkpt>
      <trkpt lat="40.437783" lon="-5.383583">
        <ele>2422.0</ele>
        <time>2015-07-25T13:48:35Z</time>
      </trkpt>
      <trkpt lat="40.437683" lon="-5.383517">
        <ele>2427.0</ele>
        <time>2015-07-25T13:48:36Z</time>
      </trkpt>
      <trkpt lat="40.437600" lon="-5.383467">
        <ele>2430.0</ele>
        <time>2015-07-25T13:48:37Z</time>
      </trkpt>
      <trkpt lat="40.437500" lon="-5.383433">
        <ele>2432.0</ele>
        <time>2015-07-25T13:48:38Z</time>
      </trkpt>
      <trkpt lat="40.437383" lon="-5.383433">
        <ele>2434.0</ele>
        <time>2015-07-25T13:48:39Z</time>
      </trkpt>
      <trkpt lat="40.437283" lon="-5.383467">
        <ele>2434.0</ele>
        <time>2015-07-25T13:48:40Z</time>
      </trkpt>
      <trkpt lat="40.437183" lon="-5.383567">
        <ele>2433.0</ele>
        <time>2015-07-25T13:48:41Z</time>
      </trkpt>
      <trkpt lat="40.437133" lon="-5.383700">
        <ele>2432.0</ele>
        <time>2015-07-25T13:48:42Z</time>
      </trkpt>
      <trkpt lat="40.437117" lon="-5.383850">
        <ele>2430.0</ele>
        <time>2015-07-25T13:48:43Z</time>
      </trkpt>
      <trkpt lat="40.437167" lon="-5.383967">
        <ele>2429.0</ele>
        <time>2015-07-25T13:48:44Z</time>
      </trkpt>
      <trkpt lat="40.437267" lon="-5.384017">
        <ele>2429.0</ele>
        <time>2015-07-25T13:48:45Z</time>
      </trkpt>
      <trkpt lat="40.437367" lon="-5.383983">
        <ele>2431.0</ele>
        <time>2015-07-25T13:48:46Z</time>
      </trkpt>
      <trkpt lat="40.437433" lon="-5.383883">
        <ele>2435.0</ele>
        <time>2015-07-25T13:48:47Z</time>
      </trkpt>
      <trkpt lat="40.437483" lon="-5.383800">
        <ele>2440.0</ele>
        <time>2015-07-25T13:48:48Z</time>
      </trkpt>
      <trkpt lat="40.437533" lon="-5.383733">
        <ele>2444.0</ele>
        <time>2015-07-25T13:48:49Z</time>
      </trkpt>
      <trkpt lat="40.437567" lon="-5.383667">
        <ele>2446.0</ele>
        <time>2015-07-25T13:48:50Z</time>
      </trkpt>
      <trkpt lat="40.437617" lon="-5.383617">
        <ele>2448.0</ele>
        <time>2015-07-25T13:48:51Z</time>
      </trkpt>
      <trkpt lat="40.437650" lon="-5.383550">
        <ele>2448.0</ele>
        <time>2015-07-25T13:48:52Z</time>
      </trkpt>
      <trkpt lat="40.437683" lon="-5.383450">
        <ele>2447.0</ele>
        <time>2015-07-25T13:48:53Z</time>
      </trkpt>
      <trkpt lat="40.437700" lon="-5.383300">
        <ele>2445.0</ele>
        <time>2015-07-25T13:48:54Z</time>
      </trkpt>
      <trkpt lat="40.437683" lon="-5.383150">
        <ele>2445.0</ele>
        <time>2015-07-25T13:48:55Z</time>
      </trkpt>
      <trkpt lat="40.437633" lon="-5.383000">
        <ele>2447.0</ele>
        <time>2015-07-25T13:48:56Z</time>
      </trkpt>
      <trkpt lat="40.437550" lon="-5.382867">
        <ele>2449.0</ele>
        <time>2015-07-25T13:48:57Z</time>
      </trkpt>
      <trkpt lat="40.437450" lon="-5.382783">
        <ele>2450.0</ele>
        <time>2015-07-25T13:48:58Z</time>
      </trkpt>
      <trkpt lat="40.437333" lon="-5.382733">
        <ele>2450.0</ele>
        <time>2015-07-25T13:48:59Z</time>
      </trkpt>
      <trkpt lat="40.437200" lon="-5.382717">
        <ele>2451.0</ele>
        <time>2015-07-25T13:49:00Z</time>
      </trkpt>
      <trkpt lat="40.437067" lon="-5.382733">
        <ele>2453.0</ele>
        <time>2015-07-25T13:49:01Z</time>
      </trkpt>
      <trkpt lat="40.436950" lon="-5.382783">
        <ele>2456.0</ele>
        <time>2015-07-25T13:49:02Z</time>
      </trkpt>
      <trkpt lat="40.436850" lon="-5.382867">
        <ele>2458.0</ele>
        <time>2015-07-25T13:49:03Z</time>
      </trkpt>
      <trkpt lat="40.436783" lon="-5.382950">
        <ele>2461.0</ele>
        <time>2015-07-25T13:49:04Z</time>
      </trkpt>
      <trkpt lat="40.436717" lon="-5.383050">
        <ele>2463.0</ele>
        <time>2015-07-25T13:49:05Z</time>
      </trkpt>
      <trkpt lat="40.436683" lon="-5.383117">
        <ele>2464.0</ele>
        <time>2015-07-25T13:49:06Z</time>
      </trkpt>
      <trkpt lat="40.436650" lon="-5.383200">
        <ele>2465.0</ele>
        <time>2015-07-25T13:49:07Z</time>
      </trkpt>
      <trkpt lat="40.436650" lon="-5.383267">
        <ele>2464.0</ele>
        <time>2015-07-25T13:49:08Z</time>
      </trkpt>
      <trkpt lat="40.436650" lon="-5.383350">
        <ele>2464.0</ele>
        <time>2015-07-25T13:49:09Z</time>
      </trkpt>
      <trkpt lat="40.436667" lon="-5.383450">
        <ele>2464.0</ele>
        <time>2015-07-25T13:49:10Z</time>
      </trkpt>
      <trkpt lat="40.436700" lon="-5.383533">
        <ele>2465.0</ele>
        <time>2015-07-25T13:49:11Z</time>
      </trkpt>
      <trkpt lat="40.436733" lon="-5.383617">
        <ele>2468.0</ele>
        <time>2015-07-25T13:49:12Z</time>
      </trkpt>
      <trkpt lat="40.436783" lon="-5.383667">
        <ele>2471.0</ele>
        <time>2015-07-25T13:49:13Z</time>
      </trkpt>
      <trkpt lat="40.436833" lon="-5.383700">
        <ele>2475.0</ele>
        <time>2015-07-25T13:49:14Z</time>
      </trkpt>
      <trkpt lat="40.436883" lon="-5.383700">
        <ele>2478.0</ele>
        <time>2015-07-25T13:49:15Z</time>
      </trkpt>
      <trkpt lat="40.436933" lon="-5.383667">
        <ele>2480.0</ele>
        <time>2015-07-25T13:49:16Z</time>
      </trkpt>
      <trkpt lat="40.436967" lon="-5.383600">
        <ele>2480.0</ele>
        <time>2015-07-25T13:49:17Z</time>
      </trkpt>
      <trkpt lat="40.437017" lon="-5.383550">
        <ele>2479.0</ele>
        <time>2015-07-25T13:49:18Z</time>
      </trkpt>
      <trkpt lat="40.437083" lon="-5.383500">
        <ele>2478.0</ele>
        <time>2015-07-25T13:49:19Z</time>
      </trkpt>
      <trkpt lat="40.437150" lon="-5.383483">
        <ele>2477.0</ele>
        <time>2015-07-25T13:49:20Z</time>
      </trkpt>
      <trkpt lat="40.437217" lon="-5.383483">
        <ele>2478.0</ele>
        <time>2015-07-25T13:49:21Z</time>
      </trkpt>
      <trkpt lat="40.437283" lon="-5.383483">
        <ele>2478.0</ele>
        <time>2015-07-25T13:49:22Z</time>
      </trkpt>
      <trkpt lat="40.437333" lon="-5.383483">
        <ele>2477.0</ele>
        <time>2015-07-25T13:49:23Z</time>
      </trkpt>
      <trkpt lat="40.437383" lon="-5.383500">
        <ele>2477.0</ele>
        <time>2015-07-25T13:49:24Z</time>
      </trkpt>
      <trkpt lat="40.437450" lon="-5.383517">
        <ele>2477.0</ele>
        <time>2015-07-25T13:49:25Z</time>
      </trkpt>
      <trkpt lat="40.437517" lon="-5.383583">
        <ele>2478.0</ele>
        <time>2015-07-25T13:49:26Z</time>
      </trkpt>
      <trkpt lat="40.437550" lon="-5.383650">
        <ele>2479.0</ele>
        <time>2015-07-25T13:49:27Z</time>
      </trkpt>
      <trkpt lat="40.437567" lon="-5.383733">
        <ele>2479.0</ele>
        <time>2015-07-25T13:49:28Z</time>
      </trkpt>
      <trkpt lat="40.437583" lon="-5.383817">
        <ele>2477.0</ele>
        <time>2015-07-25T13:49:29Z</time>
      </trkpt>
      <trkpt lat="40.437617" lon="-5.383900">
        <ele>2474.0</ele>
        <time>2015-07-25T13:49:30Z</time>
      </trkpt>
      <trkpt lat="40.437650" lon="-5.383983">
        <ele>2471.0</ele>
        <time>2015-07-25T13:49:31Z</time>
      </trkpt>
      <trkpt lat="40.437700" lon="-5.384100">
        <ele>2467.0</ele>
        <time>2015-07-25T13:49:32Z</time>
      </trkpt>
      <trkpt lat="40.437733" lon="-5.384233">
        <ele>2465.0</ele>
        <time>2015-07-25T13:49:33Z</time>
      </trkpt>
      <trkpt lat="40.437750" lon="-5.384367">
        <ele>2466.0</ele>
        <time>2015-07-25T13:49:34Z</time>
      </trkpt>
      <trkpt lat="40.437767" lon="-5.384483">
        <ele>2469.0</ele>
        <time>2015-07-25T13:49:35Z</time>
      </trkpt>
      <trkpt lat="40.437767" lon="-5.384583">
        <ele>2472.0</ele>
        <time>2015-07-25T13:49:36Z</time>
      </trkpt>
      <trkpt lat="40.437800" lon="-5.384683">
        <ele>2475.0</ele>
        <time>2015-07-25T13:49:37Z</time>
      </trkpt>
      <trkpt lat="40.437833" lon="-5.384767">
        <ele>2477.0</ele>
        <time>2015-07-25T13:49:38Z</time>
      </trkpt>
      <trkpt lat="40.437850" lon="-5.384850">
        <ele>2479.0</ele>
        <time>2015-07-25T13:49:39Z</time>
      </trkpt>
      <trkpt lat="40.437883" lon="-5.384933">
        <ele>2480.0</ele>
        <time>2015-07-25T13:49:40Z</time>
      </trkpt>
      <trkpt lat="40.437917" lon="-5.385000">
        <ele>2480.0</ele>
        <time>2015-07-25T13:49:41Z</time>
      </trkpt>
      <trkpt lat="40.437950" lon="-5.385067">
        <ele>2478.0</ele>
        <time>2015-07-25T13:49:42Z</time>
      </trkpt>
      <trkpt lat="40.438017" lon="-5.385117">
        <ele>2475.0</ele>
        <time>2015-07-25T13:49:43Z</time>
      </trkpt>
      <trkpt lat="40.438100" lon="-5.385167">
        <ele>2473.0</ele>
        <time>2015-07-25T13:49:44Z</time>
      </trkpt>
      <trkpt lat="40.438183" lon="-5.385233">
        <ele>2474.0</ele>
        <time>2015-07-25T13:49:45Z</time>
      </trkpt>
      <trkpt lat="40.438267" lon="-5.385317">
        <ele>2475.0</ele>
        <time>2015-07-25T13:49:46Z</time>
      </trkpt>
      <trkpt lat="40.438317" lon="-5.385400">
        <ele>2477.0</ele>
        <time>2015-07-25T13:49:47Z</time>
      </trkpt>
      <trkpt lat="40.438367" lon="-5.385483">
        <ele>2479.0</ele>
        <time>2015-07-25T13:49:48Z</time>
      </trkpt>
      <trkpt lat="40.438400" lon="-5.385550">
        <ele>2481.0</ele>
        <time>2015-07-25T13:49:49Z</time>
      </trkpt>
      <trkpt lat="40.438433" lon="-5.385633">
        <ele>2482.0</ele>
        <time>2015-07-25T13:49:50Z</time>
      </trkpt>
      <trkpt lat="40.438483" lon="-5.385717">
        <ele>2483.0</ele>
        <time>2015-07-25T13:49:51Z</time>
      </trkpt>
      <trkpt lat="40.438533" lon="-5.385800">
        <ele>2484.0</ele>
        <time>2015-07-25T13:49:52Z</time>
      </trkpt>
      <trkpt lat="40.438567" lon="-5.385883">
        <ele>2487.0</ele>
        <time>2015-07-25T13:49:53Z</time>
      </trkpt>
      <trkpt lat="40.438600" lon="-5.385967">
        <ele>2490.0</ele>
        <time>2015-07-25T13:49:54Z</time>
      </trkpt>
      <trkpt lat="40.438617" lon="-5.386067">
        <ele>2493.0</ele>
        <time>2015-07-25T13:49:55Z</time>
      </trkpt>
      <trkpt lat="40.438600" lon="-5.386150">
        <ele>2495.0</ele>
        <time>2015-07-25T13:49:56Z</time>
      </trkpt>
      <trkpt lat="40.438600" lon="-5.386200">
        <ele>2497.0</ele>
        <time>2015-07-25T13:49:57Z</time>
      </trkpt>
      <trkpt lat="40.438600" lon="-5.386250">
        <ele>2498.0</ele>
        <time>2015-07-25T13:49:58Z</time>
      </trkpt>
      <trkpt lat="40.438633" lon="-5.386283">
        <ele>2497.0</ele>
        <time>2015-07-25T13:49:59Z</time>
      </trkpt>
      <trkpt lat="40.438683" lon="-5.386300">
        <ele>2494.0</ele>
        <time>2015-07-25T13:50:00Z</time>
      </trkpt>
      <trkpt lat="40.438750" lon="-5.386283">
        <ele>2492.0</ele>
        <time>2015-07-25T13:50:01Z</time>
      </trkpt>
      <trkpt lat="40.438800" lon="-5.386233">
        <ele>2491.0</ele>
        <time>2015-07-25T13:50:02Z</time>
      </trkpt>
      <trkpt lat="40.438850" lon="-5.386133">
        <ele>2491.0</ele>
        <time>2015-07-25T13:50:03Z</time>
      </trkpt>
      <trkpt lat="40.438850" lon="-5.386017">
        <ele>2491.0</ele>
        <time>2015-07-25T13:50:04Z</time>
      </trkpt>
      <trkpt lat="40.438833" lon="-5.385883">
        <ele>2491.0</ele>
        <time>2015-07-25T13:50:05Z</time>
      </trkpt>
      <trkpt lat="40.438767" lon="-5.385767">
        <ele>2491.0</ele>
        <time>2015-07-25T13:50:06Z</time>
      </trkpt>
      <trkpt lat="40.438667" lon="-5.385667">
        <ele>2492.0</ele>
        <time>2015-07-25T13:50:07Z</time>
      </trkpt>
      <trkpt lat="40.438550" lon="-5.385600">
        <ele>2495.0</ele>
        <time>2015-07-25T13:50:08Z</time>
      </trkpt>
      <trkpt lat="40.438433" lon="-5.385567">
        <ele>2497.0</ele>
        <time>2015-07-25T13:50:09Z</time>
      </trkpt>
      <trkpt lat="40.438300" lon="-5.385550">
        <ele>2500.0</ele>
        <time>2015-07-25T13:50:10Z</time>
      </trkpt>
      <trkpt lat="40.438183" lon="-5.385567">
        <ele>2502.0</ele>
        <time>2015-07-25T13:50:11Z</time>
      </trkpt>
      <trkpt lat="40.438050" lon="-5.385617">
        <ele>2503.0</ele>
        <time>2015-07-25T13:50:12Z</time>
      </trkpt>
      <trkpt lat="40.437933" lon="-5.385683">
        <ele>2504.0</ele>
        <time>2015-07-25T13:50:13Z</time>
      </trkpt>
      <trkpt lat="40.437833" lon="-5.385767">
        <ele>2506.0</ele>
        <time>2015-07-25T13:50:14Z</time>
      </trkpt>
      <trkpt lat="40.437750" lon="-5.385850">
        <ele>2509.0</ele>
        <time>2015-07-25T13:50:15Z</time>
      </trkpt>
      <trkpt lat="40.437683" lon="-5.385950">
        <ele>2510.0</ele>
        <time>2015-07-25T13:50:16Z</time>
      </trkpt>
      <trkpt lat="40.437667" lon="-5.386067">
        <ele>2510.0</ele>
        <time>2015-07-25T13:50:17Z</time>
      </trkpt>
      <trkpt lat="40.437683" lon="-5.386183">
        <ele>2509.0</ele>
        <time>2015-07-25T13:50:18Z</time>
      </trkpt>
      <trkpt lat="40.437733" lon="-5.386300">
        <ele>2509.0</ele>
        <time>2015-07-25T13:50:19Z</time>
      </trkpt>
      <trkpt lat="40.437817" lon="-5.386367">
        <ele>2511.0</ele>
        <time>2015-07-25T13:50:20Z</time>
      </trkpt>
      <trkpt lat="40.437917" lon="-5.386383">
        <ele>2514.0</ele>
        <time>2015-07-25T13:50:21Z</time>
      </trkpt>
      <trkpt lat="40.438000" lon="-5.386333">
        <ele>2517.0</ele>
        <time>2015-07-25T13:50:22Z</time>
      </trkpt>
      <trkpt lat="40.438050" lon="-5.386233">
        <ele>2520.0</ele>
        <time>2015-07-25T13:50:23Z</time>
      </trkpt>
      <trkpt lat="40.438067" lon="-5.386133">
        <ele>2521.0</ele>
        <time>2015-07-25T13:50:24Z</time>
      </trkpt>
      <trkpt lat="40.438050" lon="-5.386017">
        <ele>2522.0</ele>
        <time>2015-07-25T13:50:25Z</time>
      </trkpt>
      <trkpt lat="40.438033" lon="-5.385900">
        <ele>2522.0</ele>
        <time>2015-07-25T13:50:26Z</time>
      </trkpt>
      <trkpt lat="40.437983" lon="-5.385767">
        <ele>2522.0</ele>
        <time>2015-07-25T13:50:27Z</time>
      </trkpt>
      <trkpt lat="40.437917" lon="-5.385633">
        <ele>2521.0</ele>
        <time>2015-07-25T13:50:28Z</time>
      </trkpt>
      <trkpt lat="40.437817" lon="-5.385517">
        <ele>2523.0</ele>
        <time>2015-07-25T13:50:29Z</time>
      </trkpt>
      <trkpt lat="40.437700" lon="-5.385450">
        <ele>2524.0</ele>
        <time>2015-07-25T13:50:30Z</time>
      </trkpt>
      <trkpt lat="40.437567" lon="-5.385450">
        <ele>2526.0</ele>
        <time>2015-07-25T13:50:31Z</time>
      </trkpt>
      <trkpt lat="40.437433" lon="-5.385500">
        <ele>2528.0</ele>
        <time>2015-07-25T13:50:32Z</time>
      </trkpt>
      <trkpt lat="40.437333" lon="-5.385567">
        <ele>2532.0</ele>
        <time>2015-07-25T13:50:33Z</time>
      </trkpt>
      <trkpt lat="40.437267" lon="-5.385667">
        <ele>2536.0</ele>
        <time>2015-07-25T13:50:34Z</time>
      </trkpt>
      <trkpt lat="40.437200" lon="-5.385750">
        <ele>2539.0</ele>
        <time>2015-07-25T13:50:35Z</time>
      </trkpt>
      <trkpt lat="40.437167" lon="-5.385850">
        <ele>2542.0</ele>
        <time>2015-07-25T13:50:36Z</time>
      </trkpt>
      <trkpt lat="40.437117" lon="-5.385950">
        <ele>2544.0</ele>
        <time>2015-07-25T13:50:37Z</time>
      </trkpt>
      <trkpt lat="40.437100" lon="-5.386050">
        <ele>2546.0</ele>
        <time>2015-07-25T13:50:38Z</time>
      </trkpt>
      <trkpt lat="40.437083" lon="-5.386150">
        <ele>2548.0</ele>
        <time>2015-07-25T13:50:39Z</time>
      </trkpt>
      <trkpt lat="40.437100" lon="-5.386250">
        <ele>2549.0</ele>
        <time>2015-07-25T13:50:40Z</time>
      </trkpt>
      <trkpt lat="40.437167" lon="-5.386333">
        <ele>2549.0</ele>
        <time>2015-07-25T13:50:41Z</time>
      </trkpt>
      <trkpt lat="40.437267" lon="-5.386367">
        <ele>2552.0</ele>
        <time>2015-07-25T13:50:42Z</time>
      </trkpt>
      <trkpt lat="40.437350" lon="-5.386350">
        <ele>2555.0</ele>
        <time>2015-07-25T13:50:43Z</time>
      </trkpt>
      <trkpt lat="40.437417" lon="-5.386267">
        <ele>2559.0</ele>
        <time>2015-07-25T13:50:44Z</time>
      </trkpt>
      <trkpt lat="40.437450" lon="-5.386167">
        <ele>2563.0</ele>
        <time>2015-07-25T13:50:45Z</time>
      </trkpt>
      <trkpt lat="40.437433" lon="-5.386033">
        <ele>2567.0</ele>
        <time>2015-07-25T13:50:46Z</time>
      </trkpt>
      <trkpt lat="40.437417" lon="-5.385900">
        <ele>2569.0</ele>
        <time>2015-07-25T13:50:47Z</time>
      </trkpt>
      <trkpt lat="40.437350" lon="-5.385767">
        <ele>2570.0</ele>
        <time>2015-07-25T13:50:48Z</time>
      </trkpt>
      <trkpt lat="40.437267" lon="-5.385650">
        <ele>2572.0</ele>
        <time>2015-07-25T13:50:49Z</time>
      </trkpt>
      <trkpt lat="40.437183" lon="-5.385550">
        <ele>2573.0</ele>
        <time>2015-07-25T13:50:50Z</time>
      </trkpt>
      <trkpt lat="40.437083" lon="-5.385467">
        <ele>2575.0</ele>
        <time>2015-07-25T13:50:51Z</time>
      </trkpt>
      <trkpt lat="40.436983" lon="-5.385400">
        <ele>2576.0</ele>
        <time>2015-07-25T13:50:52Z</time>
      </trkpt>
      <trkpt lat="40.436867" lon="-5.385367">
        <ele>2578.0</ele>
        <time>2015-07-25T13:50:53Z</time>
      </trkpt>
      <trkpt lat="40.436750" lon="-5.385350">
        <ele>2580.0</ele>
        <time>2015-07-25T13:50:54Z</time>
      </trkpt>
      <trkpt lat="40.436633" lon="-5.385367">
        <ele>2582.0</ele>
        <time>2015-07-25T13:50:55Z</time>
      </trkpt>
      <trkpt lat="40.436533" lon="-5.385417">
        <ele>2583.0</ele>
        <time>2015-07-25T13:50:56Z</time>
      </trkpt>
      <trkpt lat="40.436467" lon="-5.385500">
        <ele>2584.0</ele>
        <time>2015-07-25T13:50:57Z</time>
      </trkpt>
      <trkpt lat="40.436417" lon="-5.385600">
        <ele>2584.0</ele>
        <time>2015-07-25T13:50:58Z</time>
      </trkpt>
      <trkpt lat="40.436417" lon="-5.385717">
        <ele>2584.0</ele>
        <time>2015-07-25T13:50:59Z</time>
      </trkpt>
      <trkpt lat="40.436433" lon="-5.385850">
        <ele>2585.0</ele>
        <time>2015-07-25T13:51:00Z</time>
      </trkpt>
      <trkpt lat="40.436483" lon="-5.385950">
        <ele>2586.0</ele>
        <time>2015-07-25T13:51:01Z</time>
      </trkpt>
      <trkpt lat="40.436550" lon="-5.386017">
        <ele>2588.0</ele>
        <time>2015-07-25T13:51:02Z</time>
      </trkpt>
      <trkpt lat="40.436633" lon="-5.386050">
        <ele>2589.0</ele>
        <time>2015-07-25T13:51:03Z</time>
      </trkpt>
      <trkpt lat="40.436717" lon="-5.386050">
        <ele>2592.0</ele>
        <time>2015-07-25T13:51:04Z</time>
      </trkpt>
      <trkpt lat="40.436800" lon="-5.385983">
        <ele>2594.0</ele>
        <time>2015-07-25T13:51:05Z</time>
      </trkpt>
      <trkpt lat="40.436850" lon="-5.385883">
        <ele>2596.0</ele>
        <time>2015-07-25T13:51:06Z</time>
      </trkpt>
      <trkpt lat="40.436883" lon="-5.385750">
        <ele>2597.0</ele>
        <time>2015-07-25T13:51:07Z</time>
      </trkpt>
      <trkpt lat="40.436883" lon="-5.385600">
        <ele>2598.0</ele>
        <time>2015-07-25T13:51:08Z</time>
      </trkpt>
      <trkpt lat="40.436833" lon="-5.385450">
        <ele>2600.0</ele>
        <time>2015-07-25T13:51:09Z</time>
      </trkpt>
      <trkpt lat="40.436767" lon="-5.385333">
        <ele>2601.0</ele>
        <time>2015-07-25T13:51:10Z</time>
      </trkpt>
      <trkpt lat="40.436683" lon="-5.385250">
        <ele>2602.0</ele>
        <time>2015-07-25T13:51:11Z</time>
      </trkpt>
      <trkpt lat="40.436550" lon="-5.385233">
        <ele>2602.0</ele>
        <time>2015-07-25T13:51:12Z</time>
      </trkpt>
      <trkpt lat="40.436433" lon="-5.385267">
        <ele>2603.0</ele>
        <time>2015-07-25T13:51:13Z</time>
      </trkpt>
      <trkpt lat="40.436333" lon="-5.385333">
        <ele>2605.0</ele>
        <time>2015-07-25T13:51:14Z</time>
      </trkpt>
      <trkpt lat="40.436267" lon="-5.385433">
        <ele>2609.0</ele>
        <time>2015-07-25T13:51:15Z</time>
      </trkpt>
      <trkpt lat="40.436217" lon="-5.385533">
        <ele>2612.0</ele>
        <time>2015-07-25T13:51:16Z</time>
      </trkpt>
      <trkpt lat="40.436200" lon="-5.385633">
        <ele>2613.0</ele>
        <time>2015-07-25T13:51:17Z</time>
      </trkpt>
      <trkpt lat="40.436183" lon="-5.385733">
        <ele>2614.0</ele>
        <time>2015-07-25T13:51:18Z</time>
      </trkpt>
      <trkpt lat="40.436200" lon="-5.385833">
        <ele>2614.0</ele>
        <time>2015-07-25T13:51:19Z</time>
      </trkpt>
      <trkpt lat="40.436233" lon="-5.385917">
        <ele>2615.0</ele>
        <time>2015-07-25T13:51:20Z</time>
      </trkpt>
      <trkpt lat="40.436300" lon="-5.386000">
        <ele>2615.0</ele>
        <time>2015-07-25T13:51:21Z</time>
      </trkpt>
      <trkpt lat="40.436383" lon="-5.386050">
        <ele>2615.0</ele>
        <time>2015-07-25T13:51:22Z</time>
      </trkpt>
      <trkpt lat="40.436467" lon="-5.386067">
        <ele>2617.0</ele>
        <time>2015-07-25T13:51:23Z</time>
      </trkpt>
      <trkpt lat="40.436550" lon="-5.386050">
        <ele>2619.0</ele>
        <time>2015-07-25T13:51:24Z</time>
      </trkpt>
      <trkpt lat="40.436617" lon="-5.386000">
        <ele>2622.0</ele>
        <time>2015-07-25T13:51:25Z</time>
      </trkpt>
      <trkpt lat="40.436667" lon="-5.385917">
        <ele>2623.0</ele>
        <time>2015-07-25T13:51:26Z</time>
      </trkpt>
      <trkpt lat="40.436700" lon="-5.385800">
        <ele>2623.0</ele>
        <time>2015-07-25T13:51:27Z</time>
      </trkpt>
      <trkpt lat="40.436700" lon="-5.385650">
        <ele>2623.0</ele>
        <time>2015-07-25T13:51:28Z</time>
      </trkpt>
      <trkpt lat="40.436667" lon="-5.385517">
        <ele>2624.0</ele>
        <time>2015-07-25T13:51:29Z</time>
      </trkpt>
      <trkpt lat="40.436600" lon="-5.385383">
        <ele>2625.0</ele>
        <time>2015-07-25T13:51:30Z</time>
      </trkpt>
      <trkpt lat="40.436500" lon="-5.385300">
        <ele>2626.0</ele>
        <time>2015-07-25T13:51:31Z</time>
      </trkpt>
      <trkpt lat="40.436383" lon="-5.385267">
        <ele>2627.0</ele>
        <time>2015-07-25T13:51:32Z</time>
      </trkpt>
      <trkpt lat="40.436250" lon="-5.385283">
        <ele>2628.0</ele>
        <time>2015-07-25T13:51:33Z</time>
      </trkpt>
      <trkpt lat="40.436150" lon="-5.385333">
        <ele>2629.0</ele>
        <time>2015-07-25T13:51:34Z</time>
      </trkpt>
      <trkpt lat="40.436067" lon="-5.385417">
        <ele>2631.0</ele>
        <time>2015-07-25T13:51:35Z</time>
      </trkpt>
      <trkpt lat="40.436000" lon="-5.385533">
        <ele>2633.0</ele>
        <time>2015-07-25T13:51:36Z</time>
      </trkpt>
      <trkpt lat="40.435967" lon="-5.385633">
        <ele>2633.0</ele>
        <time>2015-07-25T13:51:37Z</time>
      </trkpt>
      <trkpt lat="40.435950" lon="-5.385767">
        <ele>2633.0</ele>
        <time>2015-07-25T13:51:38Z</time>
      </trkpt>
      <trkpt lat="40.435967" lon="-5.385900">
        <ele>2632.0</ele>
        <time>2015-07-25T13:51:39Z</time>
      </trkpt>
      <trkpt lat="40.436017" lon="-5.386017">
        <ele>2632.0</ele>
        <time>2015-07-25T13:51:40Z</time>
      </trkpt>
      <trkpt lat="40.436100" lon="-5.386100">
        <ele>2634.0</ele>
        <time>2015-07-25T13:51:41Z</time>
      </trkpt>
      <trkpt lat="40.436183" lon="-5.386150">
        <ele>2635.0</ele>
        <time>2015-07-25T13:51:42Z</time>
      </trkpt>
      <trkpt lat="40.436283" lon="-5.386133">
        <ele>2636.0</ele>
        <time>2015-07-25T13:51:43Z</time>
      </trkpt>
      <trkpt lat="40.436367" lon="-5.386067">
        <ele>2637.0</ele>
        <time>2015-07-25T13:51:44Z</time>
      </trkpt>
      <trkpt lat="40.436433" lon="-5.385950">
        <ele>2638.0</ele>
        <time>2015-07-25T13:51:45Z</time>
      </trkpt>
      <trkpt lat="40.436450" lon="-5.385817">
        <ele>2640.0</ele>
        <time>2015-07-25T13:51:46Z</time>
      </trkpt>
      <trkpt lat="40.436433" lon="-5.385683">
        <ele>2641.0</ele>
        <time>2015-07-25T13:51:47Z</time>
      </trkpt>
      <trkpt lat="40.436383" lon="-5.385583">
        <ele>2642.0</ele>
        <time>2015-07-25T13:51:48Z</time>
      </trkpt>
      <trkpt lat="40.436300" lon="-5.385500">
        <ele>2642.0</ele>
        <time>2015-07-25T13:51:49Z</time>
      </trkpt>
      <trkpt lat="40.436183" lon="-5.385433">
        <ele>2642.0</ele>
        <time>2015-07-25T13:51:50Z</time>
      </trkpt>
      <trkpt lat="40.436067" lon="-5.385417">
        <ele>2643.0</ele>
        <time>2015-07-25T13:51:51Z</time>
      </trkpt>
      <trkpt lat="40.435950" lon="-5.385433">
        <ele>2643.0</ele>
        <time>2015-07-25T13:51:52Z</time>
      </trkpt>
      <trkpt lat="40.435833" lon="-5.385500">
        <ele>2644.0</ele>
        <time>2015-07-25T13:51:53Z</time>
      </trkpt>
      <trkpt lat="40.435750" lon="-5.385600">
        <ele>2645.0</ele>
        <time>2015-07-25T13:51:54Z</time>
      </trkpt>
      <trkpt lat="40.435700" lon="-5.385717">
        <ele>2645.0</ele>
        <time>2015-07-25T13:51:55Z</time>
      </trkpt>
      <trkpt lat="40.435667" lon="-5.385867">
        <ele>2645.0</ele>
        <time>2015-07-25T13:51:56Z</time>
      </trkpt>
      <trkpt lat="40.435667" lon="-5.386000">
        <ele>2645.0</ele>
        <time>2015-07-25T13:51:57Z</time>
      </trkpt>
      <trkpt lat="40.435700" lon="-5.386133">
        <ele>2646.0</ele>
        <time>2015-07-25T13:51:58Z</time>
      </trkpt>
      <trkpt lat="40.435767" lon="-5.386233">
        <ele>2647.0</ele>
        <time>2015-07-25T13:51:59Z</time>
      </trkpt>
      <trkpt lat="40.435867" lon="-5.386283">
        <ele>2647.0</ele>
        <time>2015-07-25T13:52:00Z</time>
      </trkpt>
      <trkpt lat="40.435950" lon="-5.386267">
        <ele>2649.0</ele>
        <time>2015-07-25T13:52:01Z</time>
      </trkpt>
      <trkpt lat="40.436017" lon="-5.386200">
        <ele>2650.0</ele>
        <time>2015-07-25T13:52:02Z</time>
      </trkpt>
      <trkpt lat="40.436067" lon="-5.386100">
        <ele>2651.0</ele>
        <time>2015-07-25T13:52:03Z</time>
      </trkpt>
      <trkpt lat="40.436100" lon="-5.385983">
        <ele>2651.0</ele>
        <time>2015-07-25T13:52:04Z</time>
      </trkpt>
      <trkpt lat="40.436100" lon="-5.385867">
        <ele>2651.0</ele>
        <time>2015-07-25T13:52:05Z</time>
      </trkpt>
      <trkpt lat="40.436067" lon="-5.385750">
        <ele>2650.0</ele>
        <time>2015-07-25T13:52:06Z</time>
      </trkpt>
      <trkpt lat="40.436000" lon="-5.385650">
        <ele>2648.0</ele>
        <time>2015-07-25T13:52:07Z</time>
      </trkpt>
      <trkpt lat="40.435883" lon="-5.385567">
        <ele>2647.0</ele>
        <time>2015-07-25T13:52:08Z</time>
      </trkpt>
      <trkpt lat="40.435767" lon="-5.385533">
        <ele>2646.0</ele>
        <time>2015-07-25T13:52:09Z</time>
      </trkpt>
      <trkpt lat="40.435633" lon="-5.385567">
        <ele>2646.0</ele>
        <time>2015-07-25T13:52:10Z</time>
      </trkpt>
      <trkpt lat="40.435517" lon="-5.385650">
        <ele>2647.0</ele>
        <time>2015-07-25T13:52:11Z</time>
      </trkpt>
      <trkpt lat="40.435433" lon="-5.385767">
        <ele>2647.0</ele>
        <time>2015-07-25T13:52:12Z</time>
      </trkpt>
      <trkpt lat="40.435383" lon="-5.385900">
        <ele>2648.0</ele>
        <time>2015-07-25T13:52:13Z</time>
      </trkpt>
      <trkpt lat="40.435350" lon="-5.386033">
        <ele>2649.0</ele>
        <time>2015-07-25T13:52:14Z</time>
      </trkpt>
      <trkpt lat="40.435333" lon="-5.386150">
        <ele>2651.0</ele>
        <time>2015-07-25T13:52:15Z</time>
      </trkpt>
      <trkpt lat="40.435317" lon="-5.386250">
        <ele>2652.0</ele>
        <time>2015-07-25T13:52:16Z</time>
      </trkpt>
      <trkpt lat="40.435283" lon="-5.386367">
        <ele>2653.0</ele>
        <time>2015-07-25T13:52:17Z</time>
      </trkpt>
      <trkpt lat="40.435267" lon="-5.386483">
        <ele>2653.0</ele>
        <time>2015-07-25T13:52:18Z</time>
      </trkpt>
      <trkpt lat="40.435233" lon="-5.386583">
        <ele>2653.0</ele>
        <time>2015-07-25T13:52:19Z</time>
      </trkpt>
      <trkpt lat="40.435217" lon="-5.386683">
        <ele>2653.0</ele>
        <time>2015-07-25T13:52:20Z</time>
      </trkpt>
      <trkpt lat="40.435233" lon="-5.386767">
        <ele>2652.0</ele>
        <time>2015-07-25T13:52:21Z</time>
      </trkpt>
      <trkpt lat="40.435283" lon="-5.386817">
        <ele>2650.0</ele>
        <time>2015-07-25T13:52:22Z</time>
      </trkpt>
      <trkpt lat="40.435350" lon="-5.386850">
        <ele>2647.0</ele>
        <time>2015-07-25T13:52:23Z</time>
      </trkpt>
      <trkpt lat="40.435400" lon="-5.386883">
        <ele>2646.0</ele>
        <time>2015-07-25T13:52:24Z</time>
      </trkpt>
      <trkpt lat="40.435467" lon="-5.386917">
        <ele>2645.0</ele>
        <time>2015-07-25T13:52:25Z</time>
      </trkpt>
      <trkpt lat="40.435517" lon="-5.386983">
        <ele>2644.0</ele>
        <time>2015-07-25T13:52:26Z</time>
      </trkpt>
      <trkpt lat="40.435567" lon="-5.387050">
        <ele>2643.0</ele>
        <time>2015-07-25T13:52:27Z</time>
      </trkpt>
      <trkpt lat="40.435617" lon="-5.387150">
        <ele>2642.0</ele>
        <time>2015-07-25T13:52:28Z</time>
      </trkpt>
      <trkpt lat="40.435633" lon="-5.387250">
        <ele>2640.0</ele>
        <time>2015-07-25T13:52:29Z</time>
      </trkpt>
      <trkpt lat="40.435650" lon="-5.387367">
        <ele>2638.0</ele>
        <time>2015-07-25T13:52:30Z</time>
      </trkpt>
      <trkpt lat="40.435667" lon="-5.387500">
        <ele>2636.0</ele>
        <time>2015-07-25T13:52:31Z</time>
      </trkpt>
      <trkpt lat="40.435683" lon="-5.387617">
        <ele>2635.0</ele>
        <time>2015-07-25T13:52:32Z</time>
      </trkpt>
      <trkpt lat="40.435700" lon="-5.387717">
        <ele>2634.0</ele>
        <time>2015-07-25T13:52:33Z</time>
      </trkpt>
      <trkpt lat="40.435717" lon="-5.387833">
        <ele>2632.0</ele>
        <time>2015-07-25T13:52:34Z</time>
      </trkpt>
      <trkpt lat="40.435717" lon="-5.387933">
        <ele>2630.0</ele>
        <time>2015-07-25T13:52:35Z</time>
      </trkpt>
      <trkpt lat="40.435733" lon="-5.388033">
        <ele>2627.0</ele>
        <time>2015-07-25T13:52:36Z</time>
      </trkpt>
      <trkpt lat="40.435750" lon="-5.388150">
        <ele>2624.0</ele>
        <time>2015-07-25T13:52:37Z</time>
      </trkpt>
      <trkpt lat="40.435783" lon="-5.388267">
        <ele>2622.0</ele>
        <time>2015-07-25T13:52:38Z</time>
      </trkpt>
      <trkpt lat="40.435800" lon="-5.388367">
        <ele>2621.0</ele>
        <time>2015-07-25T13:52:39Z</time>
      </trkpt>
      <trkpt lat="40.435817" lon="-5.388450">
        <ele>2621.0</ele>
        <time>2015-07-25T13:52:40Z</time>
      </trkpt>
      <trkpt lat="40.435817" lon="-5.388517">
        <ele>2620.0</ele>
        <time>2015-07-25T13:52:41Z</time>
      </trkpt>
      <trkpt lat="40.435850" lon="-5.388550">
        <ele>2619.0</ele>
        <time>2015-07-25T13:52:42Z</time>
      </trkpt>
      <trkpt lat="40.435867" lon="-5.388583">
        <ele>2616.0</ele>
        <time>2015-07-25T13:52:43Z</time>
      </trkpt>
      <trkpt lat="40.435900" lon="-5.388617">
        <ele>2614.0</ele>
        <time>2015-07-25T13:52:44Z</time>
      </trkpt>
      <trkpt lat="40.435933" lon="-5.388650">
        <ele>2611.0</ele>
        <time>2015-07-25T13:52:45Z</time>
      </trkpt>
      <trkpt lat="40.435967" lon="-5.388667">
        <ele>2607.0</ele>
        <time>2015-07-25T13:52:46Z</time>
      </trkpt>
      <trkpt lat="40.436017" lon="-5.388683">
        <ele>2604.0</ele>
        <time>2015-07-25T13:52:47Z</time>
      </trkpt>
      <trkpt lat="40.436083" lon="-5.388700">
        <ele>2602.0</ele>
        <time>2015-07-25T13:52:48Z</time>
      </trkpt>
      <trkpt lat="40.436133" lon="-5.388717">
        <ele>2600.0</ele>
        <time>2015-07-25T13:52:49Z</time>
      </trkpt>
      <trkpt lat="40.436167" lon="-5.388733">
        <ele>2598.0</ele>
        <time>2015-07-25T13:52:50Z</time>
      </trkpt>
      <trkpt lat="40.436217" lon="-5.388783">
        <ele>2597.0</ele>
        <time>2015-07-25T13:52:51Z</time>
      </trkpt>
      <trkpt lat="40.436267" lon="-5.388817">
        <ele>2595.0</ele>
        <time>2015-07-25T13:52:52Z</time>
      </trkpt>
      <trkpt lat="40.436300" lon="-5.388850">
        <ele>2594.0</ele>
        <time>2015-07-25T13:52:53Z</time>
      </trkpt>
      <trkpt lat="40.436333" lon="-5.388867">
        <ele>2592.0</ele>
        <time>2015-07-25T13:52:54Z</time>
      </trkpt>
      <trkpt lat="40.436367" lon="-5.388883">
        <ele>2590.0</ele>
        <time>2015-07-25T13:52:55Z</time>
      </trkpt>
      <trkpt lat="40.436417" lon="-5.388917">
        <ele>2587.0</ele>
        <time>2015-07-25T13:52:56Z</time>
      </trkpt>
      <trkpt lat="40.436450" lon="-5.388967">
        <ele>2584.0</ele>
        <time>2015-07-25T13:52:57Z</time>
      </trkpt>
      <trkpt lat="40.436500" lon="-5.389033">
        <ele>2582.0</ele>
        <time>2015-07-25T13:52:58Z</time>
      </trkpt>
      <trkpt lat="40.436550" lon="-5.389083">
        <ele>2582.0</ele>
        <time>2015-07-25T13:52:59Z</time>
      </trkpt>
      <trkpt lat="40.436600" lon="-5.389117">
        <ele>2582.0</ele>
        <time>2015-07-25T13:53:00Z</time>
      </trkpt>
      <trkpt lat="40.436633" lon="-5.389150">
        <ele>2581.0</ele>
        <time>2015-07-25T13:53:01Z</time>
      </trkpt>
      <trkpt lat="40.436667" lon="-5.389183">
        <ele>2580.0</ele>
        <time>2015-07-25T13:53:02Z</time>
      </trkpt>
      <trkpt lat="40.436700" lon="-5.389233">
        <ele>2579.0</ele>
        <time>2015-07-25T13:53:03Z</time>
      </trkpt>
      <trkpt lat="40.436733" lon="-5.389300">
        <ele>2578.0</ele>
        <time>2015-07-25T13:53:04Z</time>
      </trkpt>
      <trkpt lat="40.436767" lon="-5.389383">
        <ele>2577.0</ele>
        <time>2015-07-25T13:53:05Z</time>
      </trkpt>
      <trkpt lat="40.436817" lon="-5.389467">
        <ele>2576.0</ele>
        <time>2015-07-25T13:53:06Z</time>
      </trkpt>
      <trkpt lat="40.436850" lon="-5.389550">
        <ele>2577.0</ele>
        <time>2015-07-25T13:53:07Z</time>
      </trkpt>
      <trkpt lat="40.436883" lon="-5.389617">
        <ele>2578.0</ele>
        <time>2015-07-25T13:53:08Z</time>
      </trkpt>
      <trkpt lat="40.436917" lon="-5.389667">
        <ele>2579.0</ele>
        <time>2015-07-25T13:53:09Z</time>
      </trkpt>
      <trkpt lat="40.436950" lon="-5.389733">
        <ele>2579.0</ele>
        <time>2015-07-25T13:53:10Z</time>
      </trkpt>
      <trkpt lat="40.436983" lon="-5.389800">
        <ele>2578.0</ele>
        <time>2015-07-25T13:53:11Z</time>
      </trkpt>
      <trkpt lat="40.437017" lon="-5.389867">
        <ele>2577.0</ele>
        <time>2015-07-25T13:53:12Z</time>
      </trkpt>
      <trkpt lat="40.437050" lon="-5.389933">
        <ele>2575.0</ele>
        <time>2015-07-25T13:53:13Z</time>
      </trkpt>
      <trkpt lat="40.437100" lon="-5.390017">
        <ele>2574.0</ele>
        <time>2015-07-25T13:53:14Z</time>
      </trkpt>
      <trkpt lat="40.437133" lon="-5.390100">
        <ele>2572.0</ele>
        <time>2015-07-25T13:53:15Z</time>
      </trkpt>
      <trkpt lat="40.437167" lon="-5.390200">
        <ele>2570.0</ele>
        <time>2015-07-25T13:53:16Z</time>
      </trkpt>
      <trkpt lat="40.437200" lon="-5.390317">
        <ele>2568.0</ele>
        <time>2015-07-25T13:53:17Z</time>
      </trkpt>
      <trkpt lat="40.437250" lon="-5.390417">
        <ele>2566.0</ele>
        <time>2015-07-25T13:53:18Z</time>
      </trkpt>
      <trkpt lat="40.437300" lon="-5.390517">
        <ele>2566.0</ele>
        <time>2015-07-25T13:53:19Z</time>
      </trkpt>
      <trkpt lat="40.437350" lon="-5.390600">
        <ele>2566.0</ele>
        <time>2015-07-25T13:53:20Z</time>
      </trkpt>
      <trkpt lat="40.437383" lon="-5.390683">
        <ele>2565.0</ele>
        <time>2015-07-25T13:53:21Z</time>
      </trkpt>
      <trkpt lat="40.437433" lon="-5.390767">
        <ele>2565.0</ele>
        <time>2015-07-25T13:53:22Z</time>
      </trkpt>
      <trkpt lat="40.437483" lon="-5.390850">
        <ele>2564.0</ele>
        <time>2015-07-25T13:53:23Z</time>
      </trkpt>
      <trkpt lat="40.437517" lon="-5.390933">
        <ele>2563.0</ele>
        <time>2015-07-25T13:53:24Z</time>
      </trkpt>
      <trkpt lat="40.437550" lon="-5.391050">
        <ele>2563.0</ele>
        <time>2015-07-25T13:53:25Z</time>
      </trkpt>
      <trkpt lat="40.437583" lon="-5.391150">
        <ele>2563.0</ele>
        <time>2015-07-25T13:53:26Z</time>
      </trkpt>
      <trkpt lat="40.437617" lon="-5.391267">
        <ele>2563.0</ele>
        <time>2015-07-25T13:53:27Z</time>
      </trkpt>
      <trkpt lat="40.437633" lon="-5.391383">
        <ele>2563.0</ele>
        <time>2015-07-25T13:53:28Z</time>
      </trkpt>
      <trkpt lat="40.437667" lon="-5.391500">
        <ele>2562.0</ele>
        <time>2015-07-25T13:53:29Z</time>
      </trkpt>
      <trkpt lat="40.437700" lon="-5.391617">
        <ele>2562.0</ele>
        <time>2015-07-25T13:53:30Z</time>
      </trkpt>
      <trkpt lat="40.437733" lon="-5.391733">
        <ele>2561.0</ele>
        <time>2015-07-25T13:53:31Z</time>
      </trkpt>
      <trkpt lat="40.437783" lon="-5.391850">
        <ele>2562.0</ele>
        <time>2015-07-25T13:53:32Z</time>
      </trkpt>
      <trkpt lat="40.437817" lon="-5.391967">
        <ele>2564.0</ele>
        <time>2015-07-25T13:53:33Z</time>
      </trkpt>
      <trkpt lat="40.437833" lon="-5.392067">
        <ele>2566.0</ele>
        <time>2015-07-25T13:53:34Z</time>
      </trkpt>
      <trkpt lat="40.437867" lon="-5.392150">
        <ele>2567.0</ele>
        <time>2015-07-25T13:53:35Z</time>
      </trkpt>
      <trkpt lat="40.437900" lon="-5.392250">
        <ele>2567.0</ele>
        <time>2015-07-25T13:53:36Z</time>
      </trkpt>
      <trkpt lat="40.437933" lon="-5.392350">
        <ele>2568.0</ele>
        <time>2015-07-25T13:53:37Z</time>
      </trkpt>
      <trkpt lat="40.437967" lon="-5.392467">
        <ele>2569.0</ele>
        <time>2015-07-25T13:53:38Z</time>
      </trkpt>
      <trkpt lat="40.437983" lon="-5.392583">
        <ele>2571.0</ele>
        <time>2015-07-25T13:53:39Z</time>
      </trkpt>
      <trkpt lat="40.438033" lon="-5.392667">
        <ele>2573.0</ele>
        <time>2015-07-25T13:53:40Z</time>
      </trkpt>
      <trkpt lat="40.438067" lon="-5.392733">
        <ele>2575.0</ele>
        <time>2015-07-25T13:53:41Z</time>
      </trkpt>
      <trkpt lat="40.438117" lon="-5.392750">
        <ele>2575.0</ele>
        <time>2015-07-25T13:53:42Z</time>
      </trkpt>
      <trkpt lat="40.438167" lon="-5.392733">
        <ele>2574.0</ele>
        <time>2015-07-25T13:53:43Z</time>
      </trkpt>
      <trkpt lat="40.438217" lon="-5.392683">
        <ele>2573.0</ele>
        <time>2015-07-25T13:53:44Z</time>
      </trkpt>
      <trkpt lat="40.438250" lon="-5.392583">
        <ele>2573.0</ele>
        <time>2015-07-25T13:53:45Z</time>
      </trkpt>
      <trkpt lat="40.438250" lon="-5.392483">
        <ele>2573.0</ele>
        <time>2015-07-25T13:53:46Z</time>
      </trkpt>
      <trkpt lat="40.438217" lon="-5.392367">
        <ele>2573.0</ele>
        <time>2015-07-25T13:53:47Z</time>
      </trkpt>
      <trkpt lat="40.438150" lon="-5.392267">
        <ele>2573.0</ele>
        <time>2015-07-25T13:53:48Z</time>
      </trkpt>
      <trkpt lat="40.438083" lon="-5.392183">
        <ele>2572.0</ele>
        <time>2015-07-25T13:53:49Z</time>
      </trkpt>
      <trkpt lat="40.437967" lon="-5.392100">
        <ele>2571.0</ele>
        <time>2015-07-25T13:53:50Z</time>
      </trkpt>
      <trkpt lat="40.437833" lon="-5.392050">
        <ele>2571.0</ele>
        <time>2015-07-25T13:53:51Z</time>
      </trkpt>
      <trkpt lat="40.437700" lon="-5.392033">
        <ele>2571.0</ele>
        <time>2015-07-25T13:53:52Z</time>
      </trkpt>
      <trkpt lat="40.437550" lon="-5.392050">
        <ele>2570.0</ele>
        <time>2015-07-25T13:53:53Z</time>
      </trkpt>
      <trkpt lat="40.437417" lon="-5.392100">
        <ele>2569.0</ele>
        <time>2015-07-25T13:53:54Z</time>
      </trkpt>
      <trkpt lat="40.437267" lon="-5.392200">
        <ele>2567.0</ele>
        <time>2015-07-25T13:53:55Z</time>
      </trkpt>
      <trkpt lat="40.437150" lon="-5.392333">
        <ele>2566.0</ele>
        <time>2015-07-25T13:53:56Z</time>
      </trkpt>
      <trkpt lat="40.437033" lon="-5.392483">
        <ele>2567.0</ele>
        <time>2015-07-25T13:53:57Z</time>
      </trkpt>
      <trkpt lat="40.436933" lon="-5.392617">
        <ele>2568.0</ele>
        <time>2015-07-25T13:53:58Z</time>
      </trkpt>
      <trkpt lat="40.436867" lon="-5.392767">
        <ele>2568.0</ele>
        <time>2015-07-25T13:53:59Z</time>
      </trkpt>
      <trkpt lat="40.436800" lon="-5.392950">
        <ele>2568.0</ele>
        <time>2015-07-25T13:54:00Z</time>
      </trkpt>
      <trkpt lat="40.436767" lon="-5.393133">
        <ele>2568.0</ele>
        <time>2015-07-25T13:54:01Z</time>
      </trkpt>
      <trkpt lat="40.436733" lon="-5.393317">
        <ele>2569.0</ele>
        <time>2015-07-25T13:54:02Z</time>
      </trkpt>
      <trkpt lat="40.436733" lon="-5.393500">
        <ele>2570.0</ele>
        <time>2015-07-25T13:54:03Z</time>
      </trkpt>
      <trkpt lat="40.436717" lon="-5.393667">
        <ele>2571.0</ele>
        <time>2015-07-25T13:54:04Z</time>
      </trkpt>
      <trkpt lat="40.436700" lon="-5.393833">
        <ele>2573.0</ele>
        <time>2015-07-25T13:54:05Z</time>
      </trkpt>
      <trkpt lat="40.436683" lon="-5.393983">
        <ele>2573.0</ele>
        <time>2015-07-25T13:54:06Z</time>
      </trkpt>
      <trkpt lat="40.436667" lon="-5.394150">
        <ele>2572.0</ele>
        <time>2015-07-25T13:54:07Z</time>
      </trkpt>
      <trkpt lat="40.436667" lon="-5.394300">
        <ele>2571.0</ele>
        <time>2015-07-25T13:54:08Z</time>
      </trkpt>
      <trkpt lat="40.436667" lon="-5.394450">
        <ele>2570.0</ele>
        <time>2015-07-25T13:54:09Z</time>
      </trkpt>
      <trkpt lat="40.436683" lon="-5.394583">
        <ele>2570.0</ele>
        <time>2015-07-25T13:54:10Z</time>
      </trkpt>
      <trkpt lat="40.436700" lon="-5.394717">
        <ele>2568.0</ele>
        <time>2015-07-25T13:54:11Z</time>
      </trkpt>
      <trkpt lat="40.436733" lon="-5.394817">
        <ele>2568.0</ele>
        <time>2015-07-25T13:54:12Z</time>
      </trkpt>
      <trkpt lat="40.436783" lon="-5.394917">
        <ele>2566.0</ele>
        <time>2015-07-25T13:54:13Z</time>
      </trkpt>
      <trkpt lat="40.436833" lon="-5.395000">
        <ele>2565.0</ele>
        <time>2015-07-25T13:54:14Z</time>
      </trkpt>
      <trkpt lat="40.436900" lon="-5.395050">
        <ele>2563.0</ele>
        <time>2015-07-25T13:54:15Z</time>
      </trkpt>
      <trkpt lat="40.436950" lon="-5.395117">
        <ele>2560.0</ele>
        <time>2015-07-25T13:54:16Z</time>
      </trkpt>
      <trkpt lat="40.437033" lon="-5.395167">
        <ele>2557.0</ele>
        <time>2015-07-25T13:54:17Z</time>
      </trkpt>
      <trkpt lat="40.437100" lon="-5.395250">
        <ele>2555.0</ele>
        <time>2015-07-25T13:54:18Z</time>
      </trkpt>
      <trkpt lat="40.437150" lon="-5.395317">
        <ele>2553.0</ele>
        <time>2015-07-25T13:54:19Z</time>
      </trkpt>
      <trkpt lat="40.437217" lon="-5.395383">
        <ele>2552.0</ele>
        <time>2015-07-25T13:54:20Z</time>
      </trkpt>
      <trkpt lat="40.437283" lon="-5.395450">
        <ele>2550.0</ele>
        <time>2015-07-25T13:54:21Z</time>
      </trkpt>
      <trkpt lat="40.437333" lon="-5.395517">
        <ele>2549.0</ele>
        <time>2015-07-25T13:54:22Z</time>
      </trkpt>
      <trkpt lat="40.437400" lon="-5.395583">
        <ele>2547.0</ele>
        <time>2015-07-25T13:54:23Z</time>
      </trkpt>
      <trkpt lat="40.437450" lon="-5.395650">
        <ele>2546.0</ele>
        <time>2015-07-25T13:54:24Z</time>
      </trkpt>
      <trkpt lat="40.437500" lon="-5.395733">
        <ele>2545.0</ele>
        <time>2015-07-25T13:54:25Z</time>
      </trkpt>
      <trkpt lat="40.437550" lon="-5.395800">
        <ele>2544.0</ele>
        <time>2015-07-25T13:54:26Z</time>
      </trkpt>
      <trkpt lat="40.437600" lon="-5.395867">
        <ele>2542.0</ele>
        <time>2015-07-25T13:54:27Z</time>
      </trkpt>
      <trkpt lat="40.437667" lon="-5.395967">
        <ele>2540.0</ele>
        <time>2015-07-25T13:54:28Z</time>
      </trkpt>
      <trkpt lat="40.437717" lon="-5.396067">
        <ele>2539.0</ele>
        <time>2015-07-25T13:54:29Z</time>
      </trkpt>
      <trkpt lat="40.437767" lon="-5.396183">
        <ele>2538.0</ele>
        <time>2015-07-25T13:54:30Z</time>
      </trkpt>
      <trkpt lat="40.437800" lon="-5.396283">
        <ele>2537.0</ele>
        <time>2015-07-25T13:54:31Z</time>
      </trkpt>
      <trkpt lat="40.437850" lon="-5.396400">
        <ele>2536.0</ele>
        <time>2015-07-25T13:54:32Z</time>
      </trkpt>
      <trkpt lat="40.437900" lon="-5.396500">
        <ele>2534.0</ele>
        <time>2015-07-25T13:54:33Z</time>
      </trkpt>
      <trkpt lat="40.437950" lon="-5.396617">
        <ele>2532.0</ele>
        <time>2015-07-25T13:54:34Z</time>
      </trkpt>
      <trkpt lat="40.438017" lon="-5.396733">
        <ele>2530.0</ele>
        <time>2015-07-25T13:54:35Z</time>
      </trkpt>
      <trkpt lat="40.438067" lon="-5.396850">
        <ele>2530.0</ele>
        <time>2015-07-25T13:54:36Z</time>
      </trkpt>
      <trkpt lat="40.438100" lon="-5.396950">
        <ele>2530.0</ele>
        <time>2015-07-25T13:54:37Z</time>
      </trkpt>
      <trkpt lat="40.438150" lon="-5.397067">
        <ele>2530.0</ele>
        <time>2015-07-25T13:54:38Z</time>
      </trkpt>
      <trkpt lat="40.438183" lon="-5.397167">
        <ele>2530.0</ele>
        <time>2015-07-25T13:54:39Z</time>
      </trkpt>
      <trkpt lat="40.438217" lon="-5.397267">
        <ele>2528.0</ele>
        <time>2015-07-25T13:54:40Z</time>
      </trkpt>
      <trkpt lat="40.438250" lon="-5.397367">
        <ele>2527.0</ele>
        <time>2015-07-25T13:54:41Z</time>
      </trkpt>
      <trkpt lat="40.438267" lon="-5.397483">
        <ele>2525.0</ele>
        <time>2015-07-25T13:54:42Z</time>
      </trkpt>
      <trkpt lat="40.438283" lon="-5.397583">
        <ele>2524.0</ele>
        <time>2015-07-25T13:54:43Z</time>
      </trkpt>
      <trkpt lat="40.438300" lon="-5.397683">
        <ele>2522.0</ele>
        <time>2015-07-25T13:54:44Z</time>
      </trkpt>
      <trkpt lat="40.438333" lon="-5.397767">
        <ele>2520.0</ele>
        <time>2015-07-25T13:54:45Z</time>
      </trkpt>
      <trkpt lat="40.438350" lon="-5.397850">
        <ele>2517.0</ele>
        <time>2015-07-25T13:54:46Z</time>
      </trkpt>
      <trkpt lat="40.438383" lon="-5.397950">
        <ele>2515.0</ele>
        <time>2015-07-25T13:54:47Z</time>
      </trkpt>
      <trkpt lat="40.438417" lon="-5.398033">
        <ele>2513.0</ele>
        <time>2015-07-25T13:54:48Z</time>
      </trkpt>
      <trkpt lat="40.438450" lon="-5.398133">
        <ele>2511.0</ele>
        <time>2015-07-25T13:54:49Z</time>
      </trkpt>
      <trkpt lat="40.438483" lon="-5.398217">
        <ele>2511.0</ele>
        <time>2015-07-25T13:54:50Z</time>
      </trkpt>
      <trkpt lat="40.438533" lon="-5.398317">
        <ele>2511.0</ele>
        <time>2015-07-25T13:54:51Z</time>
      </trkpt>
      <trkpt lat="40.438567" lon="-5.398383">
        <ele>2510.0</ele>
        <time>2015-07-25T13:54:52Z</time>
      </trkpt>
      <trkpt lat="40.438600" lon="-5.398467">
        <ele>2510.0</ele>
        <time>2015-07-25T13:54:53Z</time>
      </trkpt>
      <trkpt lat="40.438617" lon="-5.398550">
        <ele>2509.0</ele>
        <time>2015-07-25T13:54:54Z</time>
      </trkpt>
      <trkpt lat="40.438650" lon="-5.398650">
        <ele>2507.0</ele>
        <time>2015-07-25T13:54:55Z</time>
      </trkpt>
      <trkpt lat="40.438667" lon="-5.398733">
        <ele>2504.0</ele>
        <time>2015-07-25T13:54:56Z</time>
      </trkpt>
      <trkpt lat="40.438717" lon="-5.398817">
        <ele>2501.0</ele>
        <time>2015-07-25T13:54:57Z</time>
      </trkpt>
      <trkpt lat="40.438783" lon="-5.398900">
        <ele>2498.0</ele>
        <time>2015-07-25T13:54:58Z</time>
      </trkpt>
      <trkpt lat="40.438850" lon="-5.398967">
        <ele>2496.0</ele>
        <time>2015-07-25T13:54:59Z</time>
      </trkpt>
      <trkpt lat="40.438917" lon="-5.399017">
        <ele>2497.0</ele>
        <time>2015-07-25T13:55:00Z</time>
      </trkpt>
      <trkpt lat="40.438950" lon="-5.399083">
        <ele>2497.0</ele>
        <time>2015-07-25T13:55:01Z</time>
      </trkpt>
      <trkpt lat="40.438967" lon="-5.399150">
        <ele>2496.0</ele>
        <time>2015-07-25T13:55:02Z</time>
      </trkpt>
      <trkpt lat="40.438983" lon="-5.399217">
        <ele>2493.0</ele>
        <time>2015-07-25T13:55:03Z</time>
      </trkpt>
      <trkpt lat="40.439017" lon="-5.399283">
        <ele>2490.0</ele>
        <time>2015-07-25T13:55:04Z</time>
      </trkpt>
      <trkpt lat="40.439067" lon="-5.399367">
        <ele>2487.0</ele>
        <time>2015-07-25T13:55:05Z</time>
      </trkpt>
      <trkpt lat="40.439100" lon="-5.399450">
        <ele>2486.0</ele>
        <time>2015-07-25T13:55:06Z</time>
      </trkpt>
      <trkpt lat="40.439117" lon="-5.399550">
        <ele>2484.0</ele>
        <time>2015-07-25T13:55:07Z</time>
      </trkpt>
      <trkpt lat="40.439117" lon="-5.399667">
        <ele>2483.0</ele>
        <time>2015-07-25T13:55:08Z</time>
      </trkpt>
      <trkpt lat="40.439133" lon="-5.399783">
        <ele>2481.0</ele>
        <time>2015-07-25T13:55:09Z</time>
      </trkpt>
      <trkpt lat="40.439150" lon="-5.399883">
        <ele>2479.0</ele>
        <time>2015-07-25T13:55:10Z</time>
      </trkpt>
      <trkpt lat="40.439167" lon="-5.400000">
        <ele>2477.0</ele>
        <time>2015-07-25T13:55:11Z</time>
      </trkpt>
      <trkpt lat="40.439183" lon="-5.400100">
        <ele>2474.0</ele>
        <time>2015-07-25T13:55:12Z</time>
      </trkpt>
      <trkpt lat="40.439200" lon="-5.400233">
        <ele>2472.0</ele>
        <time>2015-07-25T13:55:13Z</time>
      </trkpt>
      <trkpt lat="40.439200" lon="-5.400367">
        <ele>2468.0</ele>
        <time>2015-07-25T13:55:14Z</time>
      </trkpt>
      <trkpt lat="40.439200" lon="-5.400500">
        <ele>2465.0</ele>
        <time>2015-07-25T13:55:15Z</time>
      </trkpt>
      <trkpt lat="40.439217" lon="-5.400633">
        <ele>2463.0</ele>
        <time>2015-07-25T13:55:16Z</time>
      </trkpt>
      <trkpt lat="40.439217" lon="-5.400733">
        <ele>2461.0</ele>
        <time>2015-07-25T13:55:17Z</time>
      </trkpt>
      <trkpt lat="40.439233" lon="-5.400833">
        <ele>2459.0</ele>
        <time>2015-07-25T13:55:18Z</time>
      </trkpt>
      <trkpt lat="40.439233" lon="-5.400933">
        <ele>2456.0</ele>
        <time>2015-07-25T13:55:19Z</time>
      </trkpt>
      <trkpt lat="40.439233" lon="-5.401033">
        <ele>2454.0</ele>
        <time>2015-07-25T13:55:20Z</time>
      </trkpt>
      <trkpt lat="40.439250" lon="-5.401133">
        <ele>2450.0</ele>
        <time>2015-07-25T13:55:21Z</time>
      </trkpt>
      <trkpt lat="40.439267" lon="-5.401233">
        <ele>2447.0</ele>
        <time>2015-07-25T13:55:22Z</time>
      </trkpt>
      <trkpt lat="40.439283" lon="-5.401350">
        <ele>2445.0</ele>
        <time>2015-07-25T13:55:23Z</time>
      </trkpt>
      <trkpt lat="40.439300" lon="-5.401467">
        <ele>2443.0</ele>
        <time>2015-07-25T13:55:24Z</time>
      </trkpt>
      <trkpt lat="40.439317" lon="-5.401583">
        <ele>2441.0</ele>
        <time>2015-07-25T13:55:25Z</time>
      </trkpt>
      <trkpt lat="40.439333" lon="-5.401683">
        <ele>2441.0</ele>
        <time>2015-07-25T13:55:26Z</time>
      </trkpt>
      <trkpt lat="40.439350" lon="-5.401783">
        <ele>2440.0</ele>
        <time>2015-07-25T13:55:27Z</time>
      </trkpt>
      <trkpt lat="40.439350" lon="-5.401867">
        <ele>2440.0</ele>
        <time>2015-07-25T13:55:28Z</time>
      </trkpt>
      <trkpt lat="40.439350" lon="-5.401967">
        <ele>2438.0</ele>
        <time>2015-07-25T13:55:29Z</time>
      </trkpt>
      <trkpt lat="40.439367" lon="-5.402083">
        <ele>2436.0</ele>
        <time>2015-07-25T13:55:30Z</time>
      </trkpt>
      <trkpt lat="40.439367" lon="-5.402183">
        <ele>2434.0</ele>
        <time>2015-07-25T13:55:31Z</time>
      </trkpt>
      <trkpt lat="40.439383" lon="-5.402300">
        <ele>2431.0</ele>
        <time>2015-07-25T13:55:32Z</time>
      </trkpt>
      <trkpt lat="40.439417" lon="-5.402383">
        <ele>2429.0</ele>
        <time>2015-07-25T13:55:33Z</time>
      </trkpt>
      <trkpt lat="40.439450" lon="-5.402483">
        <ele>2427.0</ele>
        <time>2015-07-25T13:55:34Z</time>
      </trkpt>
      <trkpt lat="40.439500" lon="-5.402550">
        <ele>2426.0</ele>
        <time>2015-07-25T13:55:35Z</time>
      </trkpt>
      <trkpt lat="40.439533" lon="-5.402633">
        <ele>2426.0</ele>
        <time>2015-07-25T13:55:36Z</time>
      </trkpt>
      <trkpt lat="40.439567" lon="-5.402683">
        <ele>2426.0</ele>
        <time>2015-07-25T13:55:37Z</time>
      </trkpt>
      <trkpt lat="40.439583" lon="-5.402750">
        <ele>2425.0</ele>
        <time>2015-07-25T13:55:38Z</time>
      </trkpt>
      <trkpt lat="40.439600" lon="-5.402817">
        <ele>2424.0</ele>
        <time>2015-07-25T13:55:39Z</time>
      </trkpt>
      <trkpt lat="40.439633" lon="-5.402900">
        <ele>2421.0</ele>
        <time>2015-07-25T13:55:40Z</time>
      </trkpt>
      <trkpt lat="40.439650" lon="-5.402983">
        <ele>2419.0</ele>
        <time>2015-07-25T13:55:41Z</time>
      </trkpt>
      <trkpt lat="40.439683" lon="-5.403083">
        <ele>2417.0</ele>
        <time>2015-07-25T13:55:42Z</time>
      </trkpt>
      <trkpt lat="40.439700" lon="-5.403183">
        <ele>2416.0</ele>
        <time>2015-07-25T13:55:43Z</time>
      </trkpt>
      <trkpt lat="40.439733" lon="-5.403267">
        <ele>2415.0</ele>
        <time>2015-07-25T13:55:44Z</time>
      </trkpt>
      <trkpt lat="40.439783" lon="-5.403333">
        <ele>2414.0</ele>
        <time>2015-07-25T13:55:45Z</time>
      </trkpt>
      <trkpt lat="40.439817" lon="-5.403400">
        <ele>2412.0</ele>
        <time>2015-07-25T13:55:46Z</time>
      </trkpt>
      <trkpt lat="40.439867" lon="-5.403467">
        <ele>2411.0</ele>
        <time>2015-07-25T13:55:47Z</time>
      </trkpt>
      <trkpt lat="40.439917" lon="-5.403533">
        <ele>2409.0</ele>
        <time>2015-07-25T13:55:48Z</time>
      </trkpt>
      <trkpt lat="40.439967" lon="-5.403583">
        <ele>2408.0</ele>
        <time>2015-07-25T13:55:49Z</time>
      </trkpt>
      <trkpt lat="40.440017" lon="-5.403617">
        <ele>2405.0</ele>
        <time>2015-07-25T13:55:50Z</time>
      </trkpt>
      <trkpt lat="40.440067" lon="-5.403650">
        <ele>2403.0</ele>
        <time>2015-07-25T13:55:51Z</time>
      </trkpt>
      <trkpt lat="40.440133" lon="-5.403667">
        <ele>2400.0</ele>
        <time>2015-07-25T13:55:52Z</time>
      </trkpt>
      <trkpt lat="40.440217" lon="-5.403667">
        <ele>2398.0</ele>
        <time>2015-07-25T13:55:53Z</time>
      </trkpt>
      <trkpt lat="40.440283" lon="-5.403667">
        <ele>2397.0</ele>
        <time>2015-07-25T13:55:54Z</time>
      </trkpt>
      <trkpt lat="40.440350" lon="-5.403667">
        <ele>2396.0</ele>
        <time>2015-07-25T13:55:55Z</time>
      </trkpt>
      <trkpt lat="40.440400" lon="-5.403650">
        <ele>2396.0</ele>
        <time>2015-07-25T13:55:56Z</time>
      </trkpt>
      <trkpt lat="40.440450" lon="-5.403633">
        <ele>2394.0</ele>
        <time>2015-07-25T13:55:57Z</time>
      </trkpt>
      <trkpt lat="40.440500" lon="-5.403600">
        <ele>2392.0</ele>
        <time>2015-07-25T13:55:58Z</time>
      </trkpt>
      <trkpt lat="40.440550" lon="-5.403567">
        <ele>2390.0</ele>
        <time>2015-07-25T13:55:59Z</time>
      </trkpt>
      <trkpt lat="40.440617" lon="-5.403533">
        <ele>2389.0</ele>
        <time>2015-07-25T13:56:00Z</time>
      </trkpt>
      <trkpt lat="40.440667" lon="-5.403483">
        <ele>2388.0</ele>
        <time>2015-07-25T13:56:01Z</time>
      </trkpt>
      <trkpt lat="40.440700" lon="-5.403450">
        <ele>2387.0</ele>
        <time>2015-07-25T13:56:02Z</time>
      </trkpt>
      <trkpt lat="40.440733" lon="-5.403417">
        <ele>2386.0</ele>
        <time>2015-07-25T13:56:03Z</time>
      </trkpt>
      <trkpt lat="40.440783" lon="-5.403383">
        <ele>2383.0</ele>
        <time>2015-07-25T13:56:04Z</time>
      </trkpt>
      <trkpt lat="40.440817" lon="-5.403350">
        <ele>2381.0</ele>
        <time>2015-07-25T13:56:05Z</time>
      </trkpt>
      <trkpt lat="40.440867" lon="-5.403317">
        <ele>2378.0</ele>
        <time>2015-07-25T13:56:06Z</time>
      </trkpt>
      <trkpt lat="40.440933" lon="-5.403283">
        <ele>2377.0</ele>
        <time>2015-07-25T13:56:07Z</time>
      </trkpt>
      <trkpt lat="40.440983" lon="-5.403300">
        <ele>2376.0</ele>
        <time>2015-07-25T13:56:08Z</time>
      </trkpt>
      <trkpt lat="40.441033" lon="-5.403317">
        <ele>2375.0</ele>
        <time>2015-07-25T13:56:09Z</time>
      </trkpt>
      <trkpt lat="40.441083" lon="-5.403350">
        <ele>2375.0</ele>
        <time>2015-07-25T13:56:10Z</time>
      </trkpt>
      <trkpt lat="40.441117" lon="-5.403383">
        <ele>2373.0</ele>
        <time>2015-07-25T13:56:11Z</time>
      </trkpt>
      <trkpt lat="40.441150" lon="-5.403417">
        <ele>2371.0</ele>
        <time>2015-07-25T13:56:12Z</time>
      </trkpt>
      <trkpt lat="40.441200" lon="-5.403433">
        <ele>2365.0</ele>
        <time>2015-07-25T13:56:13Z</time>
      </trkpt>
      <trkpt lat="40.441267" lon="-5.403450">
        <ele>2361.0</ele>
        <time>2015-07-25T13:56:14Z</time>
      </trkpt>
      <trkpt lat="40.441367" lon="-5.403467">
        <ele>2358.0</ele>
        <time>2015-07-25T13:56:15Z</time>
      </trkpt>
      <trkpt lat="40.441500" lon="-5.403517">
        <ele>2358.0</ele>
        <time>2015-07-25T13:56:16Z</time>
      </trkpt>
      <trkpt lat="40.441600" lon="-5.403567">
        <ele>2363.0</ele>
        <time>2015-07-25T13:56:17Z</time>
      </trkpt>
      <trkpt lat="40.441683" lon="-5.403600">
        <ele>2370.0</ele>
        <time>2015-07-25T13:56:18Z</time>
      </trkpt>
      <trkpt lat="40.441767" lon="-5.403633">
        <ele>2376.0</ele>
        <time>2015-07-25T13:56:19Z</time>
      </trkpt>
      <trkpt lat="40.441817" lon="-5.403683">
        <ele>2380.0</ele>
        <time>2015-07-25T13:56:20Z</time>
      </trkpt>
      <trkpt lat="40.441883" lon="-5.403717">
        <ele>2382.0</ele>
        <time>2015-07-25T13:56:21Z</time>
      </trkpt>
      <trkpt lat="40.441950" lon="-5.403767">
        <ele>2385.0</ele>
        <time>2015-07-25T13:56:22Z</time>
      </trkpt>
      <trkpt lat="40.442017" lon="-5.403817">
        <ele>2386.0</ele>
        <time>2015-07-25T13:56:23Z</time>
      </trkpt>
      <trkpt lat="40.442083" lon="-5.403850">
        <ele>2388.0</ele>
        <time>2015-07-25T13:56:24Z</time>
      </trkpt>
      <trkpt lat="40.442150" lon="-5.403833">
        <ele>2389.0</ele>
        <time>2015-07-25T13:56:25Z</time>
      </trkpt>
      <trkpt lat="40.442200" lon="-5.403733">
        <ele>2389.0</ele>
        <time>2015-07-25T13:56:26Z</time>
      </trkpt>
      <trkpt lat="40.442217" lon="-5.403600">
        <ele>2388.0</ele>
        <time>2015-07-25T13:56:27Z</time>
      </trkpt>
      <trkpt lat="40.442167" lon="-5.403450">
        <ele>2389.0</ele>
        <time>2015-07-25T13:56:28Z</time>
      </trkpt>
      <trkpt lat="40.442083" lon="-5.403333">
        <ele>2391.0</ele>
        <time>2015-07-25T13:56:29Z</time>
      </trkpt>
      <trkpt lat="40.441967" lon="-5.403300">
        <ele>2392.0</ele>
        <time>2015-07-25T13:56:30Z</time>
      </trkpt>
      <trkpt lat="40.441850" lon="-5.403317">
        <ele>2392.0</ele>
        <time>2015-07-25T13:56:31Z</time>
      </trkpt>
      <trkpt lat="40.441717" lon="-5.403367">
        <ele>2392.0</ele>
        <time>2015-07-25T13:56:32Z</time>
      </trkpt>
      <trkpt lat="40.441600" lon="-5.403450">
        <ele>2393.0</ele>
        <time>2015-07-25T13:56:33Z</time>
      </trkpt>
      <trkpt lat="40.441500" lon="-5.403533">
        <ele>2395.0</ele>
        <time>2015-07-25T13:56:34Z</time>
      </trkpt>
      <trkpt lat="40.441383" lon="-5.403617">
        <ele>2398.0</ele>
        <time>2015-07-25T13:56:35Z</time>
      </trkpt>
      <trkpt lat="40.441283" lon="-5.403700">
        <ele>2400.0</ele>
        <time>2015-07-25T13:56:36Z</time>
      </trkpt>
      <trkpt lat="40.441200" lon="-5.403800">
        <ele>2402.0</ele>
        <time>2015-07-25T13:56:37Z</time>
      </trkpt>
      <trkpt lat="40.441133" lon="-5.403933">
        <ele>2402.0</ele>
        <time>2015-07-25T13:56:38Z</time>
      </trkpt>
      <trkpt lat="40.441100" lon="-5.404083">
        <ele>2401.0</ele>
        <time>2015-07-25T13:56:39Z</time>
      </trkpt>
      <trkpt lat="40.441100" lon="-5.404250">
        <ele>2398.0</ele>
        <time>2015-07-25T13:56:40Z</time>
      </trkpt>
      <trkpt lat="40.441150" lon="-5.404417">
        <ele>2394.0</ele>
        <time>2015-07-25T13:56:41Z</time>
      </trkpt>
      <trkpt lat="40.441217" lon="-5.404567">
        <ele>2392.0</ele>
        <time>2015-07-25T13:56:42Z</time>
      </trkpt>
      <trkpt lat="40.441283" lon="-5.404650">
        <ele>2390.0</ele>
        <time>2015-07-25T13:56:43Z</time>
      </trkpt>
      <trkpt lat="40.441367" lon="-5.404667">
        <ele>2388.0</ele>
        <time>2015-07-25T13:56:44Z</time>
      </trkpt>
      <trkpt lat="40.441450" lon="-5.404633">
        <ele>2385.0</ele>
        <time>2015-07-25T13:56:45Z</time>
      </trkpt>
      <trkpt lat="40.441533" lon="-5.404567">
        <ele>2383.0</ele>
        <time>2015-07-25T13:56:46Z</time>
      </trkpt>
      <trkpt lat="40.441600" lon="-5.404483">
        <ele>2382.0</ele>
        <time>2015-07-25T13:56:47Z</time>
      </trkpt>
      <trkpt lat="40.441633" lon="-5.404350">
        <ele>2382.0</ele>
        <time>2015-07-25T13:56:48Z</time>
      </trkpt>
      <trkpt lat="40.441650" lon="-5.404200">
        <ele>2382.0</ele>
        <time>2015-07-25T13:56:49Z</time>
      </trkpt>
      <trkpt lat="40.441600" lon="-5.404033">
        <ele>2383.0</ele>
        <time>2015-07-25T13:56:50Z</time>
      </trkpt>
      <trkpt lat="40.441533" lon="-5.403900">
        <ele>2384.0</ele>
        <time>2015-07-25T13:56:51Z</time>
      </trkpt>
      <trkpt lat="40.441433" lon="-5.403783">
        <ele>2387.0</ele>
        <time>2015-07-25T13:56:52Z</time>
      </trkpt>
      <trkpt lat="40.441333" lon="-5.403717">
        <ele>2390.0</ele>
        <time>2015-07-25T13:56:53Z</time>
      </trkpt>
      <trkpt lat="40.441233" lon="-5.403667">
        <ele>2394.0</ele>
        <time>2015-07-25T13:56:54Z</time>
      </trkpt>
      <trkpt lat="40.441133" lon="-5.403650">
        <ele>2397.0</ele>
        <time>2015-07-25T13:56:55Z</time>
      </trkpt>
      <trkpt lat="40.441033" lon="-5.403633">
        <ele>2398.0</ele>
        <time>2015-07-25T13:56:56Z</time>
      </trkpt>
      <trkpt lat="40.440933" lon="-5.403617">
        <ele>2398.0</ele>
        <time>2015-07-25T13:56:57Z</time>
      </trkpt>
      <trkpt lat="40.440817" lon="-5.403600">
        <ele>2399.0</ele>
        <time>2015-07-25T13:56:58Z</time>
      </trkpt>
      <trkpt lat="40.440700" lon="-5.403600">
        <ele>2400.0</ele>
        <time>2015-07-25T13:56:59Z</time>
      </trkpt>
      <trkpt lat="40.440567" lon="-5.403633">
        <ele>2401.0</ele>
        <time>2015-07-25T13:57:00Z</time>
      </trkpt>
      <trkpt lat="40.440450" lon="-5.403717">
        <ele>2402.0</ele>
        <time>2015-07-25T13:57:01Z</time>
      </trkpt>
      <trkpt lat="40.440350" lon="-5.403817">
        <ele>2400.0</ele>
        <time>2015-07-25T13:57:02Z</time>
      </trkpt>
      <trkpt lat="40.440283" lon="-5.403917">
        <ele>2396.0</ele>
        <time>2015-07-25T13:57:03Z</time>
      </trkpt>
      <trkpt lat="40.440217" lon="-5.404067">
        <ele>2392.0</ele>
        <time>2015-07-25T13:57:04Z</time>
      </trkpt>
      <trkpt lat="40.440150" lon="-5.404233">
        <ele>2386.0</ele>
        <time>2015-07-25T13:57:05Z</time>
      </trkpt>
      <trkpt lat="40.440133" lon="-5.404433">
        <ele>2381.0</ele>
        <time>2015-07-25T13:57:06Z</time>
      </trkpt>
      <trkpt lat="40.440150" lon="-5.404600">
        <ele>2378.0</ele>
        <time>2015-07-25T13:57:07Z</time>
      </trkpt>
      <trkpt lat="40.440200" lon="-5.404750">
        <ele>2375.0</ele>
        <time>2015-07-25T13:57:08Z</time>
      </trkpt>
      <trkpt lat="40.440283" lon="-5.404867">
        <ele>2372.0</ele>
        <time>2015-07-25T13:57:09Z</time>
      </trkpt>
      <trkpt lat="40.440350" lon="-5.404950">
        <ele>2371.0</ele>
        <time>2015-07-25T13:57:10Z</time>
      </trkpt>
      <trkpt lat="40.440400" lon="-5.405033">
        <ele>2369.0</ele>
        <time>2015-07-25T13:57:11Z</time>
      </trkpt>
      <trkpt lat="40.440433" lon="-5.405117">
        <ele>2366.0</ele>
        <time>2015-07-25T13:57:12Z</time>
      </trkpt>
      <trkpt lat="40.440483" lon="-5.405200">
        <ele>2362.0</ele>
        <time>2015-07-25T13:57:13Z</time>
      </trkpt>
      <trkpt lat="40.440550" lon="-5.405317">
        <ele>2359.0</ele>
        <time>2015-07-25T13:57:14Z</time>
      </trkpt>
      <trkpt lat="40.440617" lon="-5.405417">
        <ele>2357.0</ele>
        <time>2015-07-25T13:57:15Z</time>
      </trkpt>
      <trkpt lat="40.440700" lon="-5.405517">
        <ele>2355.0</ele>
        <time>2015-07-25T13:57:16Z</time>
      </trkpt>
      <trkpt lat="40.440767" lon="-5.405600">
        <ele>2353.0</ele>
        <time>2015-07-25T13:57:17Z</time>
      </trkpt>
      <trkpt lat="40.440867" lon="-5.405667">
        <ele>2352.0</ele>
        <time>2015-07-25T13:57:18Z</time>
      </trkpt>
      <trkpt lat="40.440950" lon="-5.405733">
        <ele>2353.0</ele>
        <time>2015-07-25T13:57:19Z</time>
      </trkpt>
      <trkpt lat="40.441033" lon="-5.405800">
        <ele>2355.0</ele>
        <time>2015-07-25T13:57:20Z</time>
      </trkpt>
      <trkpt lat="40.441100" lon="-5.405833">
        <ele>2358.0</ele>
        <time>2015-07-25T13:57:21Z</time>
      </trkpt>
      <trkpt lat="40.441150" lon="-5.405867">
        <ele>2360.0</ele>
        <time>2015-07-25T13:57:22Z</time>
      </trkpt>
      <trkpt lat="40.441200" lon="-5.405917">
        <ele>2361.0</ele>
        <time>2015-07-25T13:57:23Z</time>
      </trkpt>
      <trkpt lat="40.441233" lon="-5.405950">
        <ele>2361.0</ele>
        <time>2015-07-25T13:57:24Z</time>
      </trkpt>
      <trkpt lat="40.441283" lon="-5.406017">
        <ele>2360.0</ele>
        <time>2015-07-25T13:57:25Z</time>
      </trkpt>
      <trkpt lat="40.441350" lon="-5.406083">
        <ele>2359.0</ele>
        <time>2015-07-25T13:57:26Z</time>
      </trkpt>
      <trkpt lat="40.441433" lon="-5.406150">
        <ele>2359.0</ele>
        <time>2015-07-25T13:57:27Z</time>
      </trkpt>
      <trkpt lat="40.441483" lon="-5.406217">
        <ele>2359.0</ele>
        <time>2015-07-25T13:57:28Z</time>
      </trkpt>
      <trkpt lat="40.441550" lon="-5.406300">
        <ele>2358.0</ele>
        <time>2015-07-25T13:57:29Z</time>
      </trkpt>
      <trkpt lat="40.441600" lon="-5.406383">
        <ele>2357.0</ele>
        <time>2015-07-25T13:57:30Z</time>
      </trkpt>
      <trkpt lat="40.441650" lon="-5.406467">
        <ele>2355.0</ele>
        <time>2015-07-25T13:57:31Z</time>
      </trkpt>
      <trkpt lat="40.441717" lon="-5.406567">
        <ele>2353.0</ele>
        <time>2015-07-25T13:57:32Z</time>
      </trkpt>
      <trkpt lat="40.441783" lon="-5.406683">
        <ele>2352.0</ele>
        <time>2015-07-25T13:57:33Z</time>
      </trkpt>
      <trkpt lat="40.441867" lon="-5.406767">
        <ele>2353.0</ele>
        <time>2015-07-25T13:57:34Z</time>
      </trkpt>
      <trkpt lat="40.441933" lon="-5.406850">
        <ele>2354.0</ele>
        <time>2015-07-25T13:57:35Z</time>
      </trkpt>
      <trkpt lat="40.442000" lon="-5.406917">
        <ele>2354.0</ele>
        <time>2015-07-25T13:57:36Z</time>
      </trkpt>
      <trkpt lat="40.442067" lon="-5.406983">
        <ele>2355.0</ele>
        <time>2015-07-25T13:57:37Z</time>
      </trkpt>
      <trkpt lat="40.442133" lon="-5.407050">
        <ele>2354.0</ele>
        <time>2015-07-25T13:57:38Z</time>
      </trkpt>
      <trkpt lat="40.442183" lon="-5.407150">
        <ele>2353.0</ele>
        <time>2015-07-25T13:57:39Z</time>
      </trkpt>
      <trkpt lat="40.442250" lon="-5.407233">
        <ele>2352.0</ele>
        <time>2015-07-25T13:57:40Z</time>
      </trkpt>
      <trkpt lat="40.442300" lon="-5.407317">
        <ele>2352.0</ele>
        <time>2015-07-25T13:57:41Z</time>
      </trkpt>
      <trkpt lat="40.442367" lon="-5.407400">
        <ele>2352.0</ele>
        <time>2015-07-25T13:57:42Z</time>
      </trkpt>
      <trkpt lat="40.442433" lon="-5.407450">
        <ele>2352.0</ele>
        <time>2015-07-25T13:57:43Z</time>
      </trkpt>
      <trkpt lat="40.442500" lon="-5.407517">
        <ele>2353.0</ele>
        <time>2015-07-25T13:57:44Z</time>
      </trkpt>
      <trkpt lat="40.442567" lon="-5.407567">
        <ele>2354.0</ele>
        <time>2015-07-25T13:57:45Z</time>
      </trkpt>
      <trkpt lat="40.442633" lon="-5.407633">
        <ele>2355.0</ele>
        <time>2015-07-25T13:57:46Z</time>
      </trkpt>
      <trkpt lat="40.442717" lon="-5.407700">
        <ele>2356.0</ele>
        <time>2015-07-25T13:57:47Z</time>
      </trkpt>
      <trkpt lat="40.442783" lon="-5.407750">
        <ele>2357.0</ele>
        <time>2015-07-25T13:57:48Z</time>
      </trkpt>
      <trkpt lat="40.442850" lon="-5.407800">
        <ele>2358.0</ele>
        <time>2015-07-25T13:57:49Z</time>
      </trkpt>
      <trkpt lat="40.442900" lon="-5.407867">
        <ele>2360.0</ele>
        <time>2015-07-25T13:57:50Z</time>
      </trkpt>
      <trkpt lat="40.442950" lon="-5.407967">
        <ele>2360.0</ele>
        <time>2015-07-25T13:57:51Z</time>
      </trkpt>
      <trkpt lat="40.442967" lon="-5.408067">
        <ele>2360.0</ele>
        <time>2015-07-25T13:57:52Z</time>
      </trkpt>
      <trkpt lat="40.442983" lon="-5.408183">
        <ele>2361.0</ele>
        <time>2015-07-25T13:57:53Z</time>
      </trkpt>
      <trkpt lat="40.442983" lon="-5.408283">
        <ele>2363.0</ele>
        <time>2015-07-25T13:57:54Z</time>
      </trkpt>
      <trkpt lat="40.442950" lon="-5.408383">
        <ele>2363.0</ele>
        <time>2015-07-25T13:57:55Z</time>
      </trkpt>
      <trkpt lat="40.442867" lon="-5.408450">
        <ele>2362.0</ele>
        <time>2015-07-25T13:57:56Z</time>
      </trkpt>
      <trkpt lat="40.442783" lon="-5.408483">
        <ele>2361.0</ele>
        <time>2015-07-25T13:57:57Z</time>
      </trkpt>
      <trkpt lat="40.442667" lon="-5.408483">
        <ele>2361.0</ele>
        <time>2015-07-25T13:57:58Z</time>
      </trkpt>
      <trkpt lat="40.442567" lon="-5.408450">
        <ele>2361.0</ele>
        <time>2015-07-25T13:57:59Z</time>
      </trkpt>
      <trkpt lat="40.442483" lon="-5.408367">
        <ele>2361.0</ele>
        <time>2015-07-25T13:58:00Z</time>
      </trkpt>
      <trkpt lat="40.442417" lon="-5.408250">
        <ele>2361.0</ele>
        <time>2015-07-25T13:58:01Z</time>
      </trkpt>
      <trkpt lat="40.442383" lon="-5.408117">
        <ele>2360.0</ele>
        <time>2015-07-25T13:58:02Z</time>
      </trkpt>
      <trkpt lat="40.442400" lon="-5.407967">
        <ele>2360.0</ele>
        <time>2015-07-25T13:58:03Z</time>
      </trkpt>
      <trkpt lat="40.442417" lon="-5.407850">
        <ele>2360.0</ele>
        <time>2015-07-25T13:58:04Z</time>
      </trkpt>
      <trkpt lat="40.442450" lon="-5.407733">
        <ele>2361.0</ele>
        <time>2015-07-25T13:58:05Z</time>
      </trkpt>
      <trkpt lat="40.442500" lon="-5.407667">
        <ele>2363.0</ele>
        <time>2015-07-25T13:58:06Z</time>
      </trkpt>
      <trkpt lat="40.442567" lon="-5.407600">
        <ele>2363.0</ele>
        <time>2015-07-25T13:58:07Z</time>
      </trkpt>
      <trkpt lat="40.442633" lon="-5.407517">
        <ele>2364.0</ele>
        <time>2015-07-25T13:58:08Z</time>
      </trkpt>
      <trkpt lat="40.442700" lon="-5.407450">
        <ele>2366.0</ele>
        <time>2015-07-25T13:58:09Z</time>
      </trkpt>
      <trkpt lat="40.442767" lon="-5.407383">
        <ele>2367.0</ele>
        <time>2015-07-25T13:58:10Z</time>
      </trkpt>
      <trkpt lat="40.442817" lon="-5.407333">
        <ele>2368.0</ele>
        <time>2015-07-25T13:58:11Z</time>
      </trkpt>
      <trkpt lat="40.442883" lon="-5.407300">
        <ele>2369.0</ele>
        <time>2015-07-25T13:58:12Z</time>
      </trkpt>
      <trkpt lat="40.442933" lon="-5.407317">
        <ele>2368.0</ele>
        <time>2015-07-25T13:58:13Z</time>
      </trkpt>
      <trkpt lat="40.443000" lon="-5.407367">
        <ele>2367.0</ele>
        <time>2015-07-25T13:58:14Z</time>
      </trkpt>
      <trkpt lat="40.443050" lon="-5.407450">
        <ele>2366.0</ele>
        <time>2015-07-25T13:58:15Z</time>
      </trkpt>
      <trkpt lat="40.443083" lon="-5.407583">
        <ele>2368.0</ele>
        <time>2015-07-25T13:58:16Z</time>
      </trkpt>
      <trkpt lat="40.443083" lon="-5.407717">
        <ele>2371.0</ele>
        <time>2015-07-25T13:58:17Z</time>
      </trkpt>
      <trkpt lat="40.443083" lon="-5.407833">
        <ele>2373.0</ele>
        <time>2015-07-25T13:58:18Z</time>
      </trkpt>
      <trkpt lat="40.443100" lon="-5.407933">
        <ele>2375.0</ele>
        <time>2015-07-25T13:58:19Z</time>
      </trkpt>
      <trkpt lat="40.443100" lon="-5.408033">
        <ele>2376.0</ele>
        <time>2015-07-25T13:58:20Z</time>
      </trkpt>
      <trkpt lat="40.443083" lon="-5.408133">
        <ele>2377.0</ele>
        <time>2015-07-25T13:58:21Z</time>
      </trkpt>
      <trkpt lat="40.443050" lon="-5.408233">
        <ele>2377.0</ele>
        <time>2015-07-25T13:58:22Z</time>
      </trkpt>
      <trkpt lat="40.442967" lon="-5.408333">
        <ele>2376.0</ele>
        <time>2015-07-25T13:58:23Z</time>
      </trkpt>
      <trkpt lat="40.442867" lon="-5.408417">
        <ele>2376.0</ele>
        <time>2015-07-25T13:58:24Z</time>
      </trkpt>
      <trkpt lat="40.442750" lon="-5.408450">
        <ele>2376.0</ele>
        <time>2015-07-25T13:58:25Z</time>
      </trkpt>
      <trkpt lat="40.442633" lon="-5.408433">
        <ele>2377.0</ele>
        <time>2015-07-25T13:58:26Z</time>
      </trkpt>
      <trkpt lat="40.442533" lon="-5.408367">
        <ele>2378.0</ele>
        <time>2015-07-25T13:58:27Z</time>
      </trkpt>
      <trkpt lat="40.442467" lon="-5.408250">
        <ele>2379.0</ele>
        <time>2015-07-25T13:58:28Z</time>
      </trkpt>
      <trkpt lat="40.442417" lon="-5.408117">
        <ele>2379.0</ele>
        <time>2015-07-25T13:58:29Z</time>
      </trkpt>
      <trkpt lat="40.442417" lon="-5.407983">
        <ele>2380.0</ele>
        <time>2015-07-25T13:58:30Z</time>
      </trkpt>
      <trkpt lat="40.442433" lon="-5.407867">
        <ele>2381.0</ele>
        <time>2015-07-25T13:58:31Z</time>
      </trkpt>
      <trkpt lat="40.442467" lon="-5.407750">
        <ele>2380.0</ele>
        <time>2015-07-25T13:58:32Z</time>
      </trkpt>
      <trkpt lat="40.442550" lon="-5.407683">
        <ele>2380.0</ele>
        <time>2015-07-25T13:58:33Z</time>
      </trkpt>
      <trkpt lat="40.442633" lon="-5.407650">
        <ele>2379.0</ele>
        <time>2015-07-25T13:58:34Z</time>
      </trkpt>
      <trkpt lat="40.442717" lon="-5.407700">
        <ele>2380.0</ele>
        <time>2015-07-25T13:58:35Z</time>
      </trkpt>
      <trkpt lat="40.442783" lon="-5.407783">
        <ele>2380.0</ele>
        <time>2015-07-25T13:58:36Z</time>
      </trkpt>
      <trkpt lat="40.442833" lon="-5.407900">
        <ele>2381.0</ele>
        <time>2015-07-25T13:58:37Z</time>
      </trkpt>
      <trkpt lat="40.442833" lon="-5.408033">
        <ele>2381.0</ele>
        <time>2015-07-25T13:58:38Z</time>
      </trkpt>
      <trkpt lat="40.442783" lon="-5.408167">
        <ele>2380.0</ele>
        <time>2015-07-25T13:58:39Z</time>
      </trkpt>
      <trkpt lat="40.442700" lon="-5.408283">
        <ele>2380.0</ele>
        <time>2015-07-25T13:58:40Z</time>
      </trkpt>
      <trkpt lat="40.442583" lon="-5.408350">
        <ele>2380.0</ele>
        <time>2015-07-25T13:58:41Z</time>
      </trkpt>
      <trkpt lat="40.442467" lon="-5.408367">
        <ele>2381.0</ele>
        <time>2015-07-25T13:58:42Z</time>
      </trkpt>
      <trkpt lat="40.442350" lon="-5.408300">
        <ele>2382.0</ele>
        <time>2015-07-25T13:58:43Z</time>
      </trkpt>
      <trkpt lat="40.442250" lon="-5.408217">
        <ele>2384.0</ele>
        <time>2015-07-25T13:58:44Z</time>
      </trkpt>
      <trkpt lat="40.442183" lon="-5.408083">
        <ele>2385.0</ele>
        <time>2015-07-25T13:58:45Z</time>
      </trkpt>
      <trkpt lat="40.442167" lon="-5.407950">
        <ele>2386.0</ele>
        <time>2015-07-25T13:58:46Z</time>
      </trkpt>
      <trkpt lat="40.442167" lon="-5.407817">
        <ele>2387.0</ele>
        <time>2015-07-25T13:58:47Z</time>
      </trkpt>
      <trkpt lat="40.442217" lon="-5.407717">
        <ele>2388.0</ele>
        <time>2015-07-25T13:58:48Z</time>
      </trkpt>
      <trkpt lat="40.442267" lon="-5.407617">
        <ele>2389.0</ele>
        <time>2015-07-25T13:58:49Z</time>
      </trkpt>
      <trkpt lat="40.442333" lon="-5.407567">
        <ele>2389.0</ele>
        <time>2015-07-25T13:58:50Z</time>
      </trkpt>
      <trkpt lat="40.442417" lon="-5.407550">
        <ele>2389.0</ele>
        <time>2015-07-25T13:58:51Z</time>
      </trkpt>
      <trkpt lat="40.442500" lon="-5.407583">
        <ele>2389.0</ele>
        <time>2015-07-25T13:58:52Z</time>
      </trkpt>
      <trkpt lat="40.442567" lon="-5.407650">
        <ele>2388.0</ele>
        <time>2015-07-25T13:58:53Z</time>
      </trkpt>
      <trkpt lat="40.442617" lon="-5.407767">
        <ele>2389.0</ele>
        <time>2015-07-25T13:58:54Z</time>
      </trkpt>
      <trkpt lat="40.442633" lon="-5.407883">
        <ele>2389.0</ele>
        <time>2015-07-25T13:58:55Z</time>
      </trkpt>
      <trkpt lat="40.442633" lon="-5.408017">
        <ele>2390.0</ele>
        <time>2015-07-25T13:58:56Z</time>
      </trkpt>
      <trkpt lat="40.442617" lon="-5.408150">
        <ele>2390.0</ele>
        <time>2015-07-25T13:58:57Z</time>
      </trkpt>
      <trkpt lat="40.442583" lon="-5.408267">
        <ele>2391.0</ele>
        <time>2015-07-25T13:58:58Z</time>
      </trkpt>
      <trkpt lat="40.442567" lon="-5.408400">
        <ele>2391.0</ele>
        <time>2015-07-25T13:58:59Z</time>
      </trkpt>
      <trkpt lat="40.442550" lon="-5.408517">
        <ele>2391.0</ele>
        <time>2015-07-25T13:59:00Z</time>
      </trkpt>
      <trkpt lat="40.442500" lon="-5.408633">
        <ele>2391.0</ele>
        <time>2015-07-25T13:59:01Z</time>
      </trkpt>
      <trkpt lat="40.442433" lon="-5.408733">
        <ele>2391.0</ele>
        <time>2015-07-25T13:59:02Z</time>
      </trkpt>
      <trkpt lat="40.442333" lon="-5.408800">
        <ele>2390.0</ele>
        <time>2015-07-25T13:59:03Z</time>
      </trkpt>
      <trkpt lat="40.442217" lon="-5.408850">
        <ele>2389.0</ele>
        <time>2015-07-25T13:59:04Z</time>
      </trkpt>
      <trkpt lat="40.442100" lon="-5.408833">
        <ele>2388.0</ele>
        <time>2015-07-25T13:59:05Z</time>
      </trkpt>
      <trkpt lat="40.441983" lon="-5.408767">
        <ele>2388.0</ele>
        <time>2015-07-25T13:59:06Z</time>
      </trkpt>
      <trkpt lat="40.441900" lon="-5.408683">
        <ele>2389.0</ele>
        <time>2015-07-25T13:59:07Z</time>
      </trkpt>
      <trkpt lat="40.441833" lon="-5.408550">
        <ele>2389.0</ele>
        <time>2015-07-25T13:59:08Z</time>
      </trkpt>
      <trkpt lat="40.441800" lon="-5.408417">
        <ele>2389.0</ele>
        <time>2015-07-25T13:59:09Z</time>
      </trkpt>
      <trkpt lat="40.441800" lon="-5.408283">
        <ele>2389.0</ele>
        <time>2015-07-25T13:59:10Z</time>
      </trkpt>
      <trkpt lat="40.441817" lon="-5.408150">
        <ele>2389.0</ele>
        <time>2015-07-25T13:59:11Z</time>
      </trkpt>
      <trkpt lat="40.441867" lon="-5.408050">
        <ele>2390.0</ele>
        <time>2015-07-25T13:59:12Z</time>
      </trkpt>
      <trkpt lat="40.441933" lon="-5.407983">
        <ele>2391.0</ele>
        <time>2015-07-25T13:59:13Z</time>
      </trkpt>
      <trkpt lat="40.442017" lon="-5.407950">
        <ele>2392.0</ele>
        <time>2015-07-25T13:59:14Z</time>
      </trkpt>
      <trkpt lat="40.442100" lon="-5.407950">
        <ele>2393.0</ele>
        <time>2015-07-25T13:59:15Z</time>
      </trkpt>
      <trkpt lat="40.442167" lon="-5.407967">
        <ele>2394.0</ele>
        <time>2015-07-25T13:59:16Z</time>
      </trkpt>
      <trkpt lat="40.442217" lon="-5.408000">
        <ele>2395.0</ele>
        <time>2015-07-25T13:59:17Z</time>
      </trkpt>
      <trkpt lat="40.442267" lon="-5.408050">
        <ele>2394.0</ele>
        <time>2015-07-25T13:59:18Z</time>
      </trkpt>
      <trkpt lat="40.442317" lon="-5.408100">
        <ele>2393.0</ele>
        <time>2015-07-25T13:59:19Z</time>
      </trkpt>
      <trkpt lat="40.442367" lon="-5.408183">
        <ele>2391.0</ele>
        <time>2015-07-25T13:59:20Z</time>
      </trkpt>
      <trkpt lat="40.442433" lon="-5.408267">
        <ele>2390.0</ele>
        <time>2015-07-25T13:59:21Z</time>
      </trkpt>
      <trkpt lat="40.442483" lon="-5.408367">
        <ele>2389.0</ele>
        <time>2015-07-25T13:59:22Z</time>
      </trkpt>
      <trkpt lat="40.442550" lon="-5.408450">
        <ele>2388.0</ele>
        <time>2015-07-25T13:59:23Z</time>
      </trkpt>
      <trkpt lat="40.442617" lon="-5.408550">
        <ele>2387.0</ele>
        <time>2015-07-25T13:59:24Z</time>
      </trkpt>
      <trkpt lat="40.442667" lon="-5.408650">
        <ele>2387.0</ele>
        <time>2015-07-25T13:59:25Z</time>
      </trkpt>
      <trkpt lat="40.442717" lon="-5.408750">
        <ele>2387.0</ele>
        <time>2015-07-25T13:59:26Z</time>
      </trkpt>
      <trkpt lat="40.442767" lon="-5.408850">
        <ele>2387.0</ele>
        <time>2015-07-25T13:59:27Z</time>
      </trkpt>
      <trkpt lat="40.442817" lon="-5.408967">
        <ele>2388.0</ele>
        <time>2015-07-25T13:59:28Z</time>
      </trkpt>
      <trkpt lat="40.442850" lon="-5.409067">
        <ele>2389.0</ele>
        <time>2015-07-25T13:59:29Z</time>
      </trkpt>
      <trkpt lat="40.442867" lon="-5.409150">
        <ele>2390.0</ele>
        <time>2015-07-25T13:59:30Z</time>
      </trkpt>
      <trkpt lat="40.442900" lon="-5.409233">
        <ele>2391.0</ele>
        <time>2015-07-25T13:59:31Z</time>
      </trkpt>
      <trkpt lat="40.442933" lon="-5.409317">
        <ele>2391.0</ele>
        <time>2015-07-25T13:59:32Z</time>
      </trkpt>
      <trkpt lat="40.442983" lon="-5.409400">
        <ele>2391.0</ele>
        <time>2015-07-25T13:59:33Z</time>
      </trkpt>
      <trkpt lat="40.443017" lon="-5.409467">
        <ele>2391.0</ele>
        <time>2015-07-25T13:59:34Z</time>
      </trkpt>
      <trkpt lat="40.443067" lon="-5.409550">
        <ele>2390.0</ele>
        <time>2015-07-25T13:59:35Z</time>
      </trkpt>
      <trkpt lat="40.443117" lon="-5.409633">
        <ele>2390.0</ele>
        <time>2015-07-25T13:59:36Z</time>
      </trkpt>
      <trkpt lat="40.443150" lon="-5.409733">
        <ele>2389.0</ele>
        <time>2015-07-25T13:59:37Z</time>
      </trkpt>
      <trkpt lat="40.443200" lon="-5.409833">
        <ele>2390.0</ele>
        <time>2015-07-25T13:59:38Z</time>
      </trkpt>
      <trkpt lat="40.443233" lon="-5.409933">
        <ele>2392.0</ele>
        <time>2015-07-25T13:59:39Z</time>
      </trkpt>
      <trkpt lat="40.443267" lon="-5.410017">
        <ele>2393.0</ele>
        <time>2015-07-25T13:59:40Z</time>
      </trkpt>
      <trkpt lat="40.443300" lon="-5.410083">
        <ele>2394.0</ele>
        <time>2015-07-25T13:59:41Z</time>
      </trkpt>
      <trkpt lat="40.443350" lon="-5.410133">
        <ele>2394.0</ele>
        <time>2015-07-25T13:59:42Z</time>
      </trkpt>
      <trkpt lat="40.443400" lon="-5.410217">
        <ele>2393.0</ele>
        <time>2015-07-25T13:59:43Z</time>
      </trkpt>
      <trkpt lat="40.443433" lon="-5.410317">
        <ele>2392.0</ele>
        <time>2015-07-25T13:59:44Z</time>
      </trkpt>
      <trkpt lat="40.443483" lon="-5.410417">
        <ele>2392.0</ele>
        <time>2015-07-25T13:59:45Z</time>
      </trkpt>
      <trkpt lat="40.443533" lon="-5.410517">
        <ele>2392.0</ele>
        <time>2015-07-25T13:59:46Z</time>
      </trkpt>
      <trkpt lat="40.443567" lon="-5.410617">
        <ele>2394.0</ele>
        <time>2015-07-25T13:59:47Z</time>
      </trkpt>
      <trkpt lat="40.443600" lon="-5.410700">
        <ele>2395.0</ele>
        <time>2015-07-25T13:59:48Z</time>
      </trkpt>
      <trkpt lat="40.443633" lon="-5.410783">
        <ele>2396.0</ele>
        <time>2015-07-25T13:59:49Z</time>
      </trkpt>
      <trkpt lat="40.443667" lon="-5.410883">
        <ele>2396.0</ele>
        <time>2015-07-25T13:59:50Z</time>
      </trkpt>
      <trkpt lat="40.443700" lon="-5.410983">
        <ele>2396.0</ele>
        <time>2015-07-25T13:59:51Z</time>
      </trkpt>
      <trkpt lat="40.443750" lon="-5.411067">
        <ele>2395.0</ele>
        <time>2015-07-25T13:59:52Z</time>
      </trkpt>
      <trkpt lat="40.443783" lon="-5.411167">
        <ele>2393.0</ele>
        <time>2015-07-25T13:59:53Z</time>
      </trkpt>
      <trkpt lat="40.443833" lon="-5.411267">
        <ele>2392.0</ele>
        <time>2015-07-25T13:59:54Z</time>
      </trkpt>
      <trkpt lat="40.443883" lon="-5.411367">
        <ele>2391.0</ele>
        <time>2015-07-25T13:59:55Z</time>
      </trkpt>
      <trkpt lat="40.443933" lon="-5.411467">
        <ele>2390.0</ele>
        <time>2015-07-25T13:59:56Z</time>
      </trkpt>
      <trkpt lat="40.443983" lon="-5.411567">
        <ele>2390.0</ele>
        <time>2015-07-25T13:59:57Z</time>
      </trkpt>
      <trkpt lat="40.444033" lon="-5.411650">
        <ele>2390.0</ele>
        <time>2015-07-25T13:59:58Z</time>
      </trkpt>
      <trkpt lat="40.444083" lon="-5.411750">
        <ele>2390.0</ele>
        <time>2015-07-25T13:59:59Z</time>
      </trkpt>
      <trkpt lat="40.444133" lon="-5.411867">
        <ele>2390.0</ele>
        <time>2015-07-25T14:00:00Z</time>
      </trkpt>
      <trkpt lat="40.444167" lon="-5.411983">
        <ele>2389.0</ele>
        <time>2015-07-25T14:00:01Z</time>
      </trkpt>
      <trkpt lat="40.444217" lon="-5.412083">
        <ele>2389.0</ele>
        <time>2015-07-25T14:00:02Z</time>
      </trkpt>
      <trkpt lat="40.444267" lon="-5.412183">
        <ele>2389.0</ele>
        <time>2015-07-25T14:00:03Z</time>
      </trkpt>
      <trkpt lat="40.444317" lon="-5.412283">
        <ele>2389.0</ele>
        <time>2015-07-25T14:00:04Z</time>
      </trkpt>
      <trkpt lat="40.444367" lon="-5.412383">
        <ele>2389.0</ele>
        <time>2015-07-25T14:00:05Z</time>
      </trkpt>
      <trkpt lat="40.444417" lon="-5.412483">
        <ele>2388.0</ele>
        <time>2015-07-25T14:00:06Z</time>
      </trkpt>
      <trkpt lat="40.444450" lon="-5.412600">
        <ele>2386.0</ele>
        <time>2015-07-25T14:00:07Z</time>
      </trkpt>
      <trkpt lat="40.444500" lon="-5.412717">
        <ele>2385.0</ele>
        <time>2015-07-25T14:00:08Z</time>
      </trkpt>
      <trkpt lat="40.444550" lon="-5.412850">
        <ele>2383.0</ele>
        <time>2015-07-25T14:00:09Z</time>
      </trkpt>
      <trkpt lat="40.444583" lon="-5.412967">
        <ele>2382.0</ele>
        <time>2015-07-25T14:00:10Z</time>
      </trkpt>
      <trkpt lat="40.444617" lon="-5.413100">
        <ele>2381.0</ele>
        <time>2015-07-25T14:00:11Z</time>
      </trkpt>
      <trkpt lat="40.444633" lon="-5.413217">
        <ele>2381.0</ele>
        <time>2015-07-25T14:00:12Z</time>
      </trkpt>
      <trkpt lat="40.444650" lon="-5.413333">
        <ele>2380.0</ele>
        <time>2015-07-25T14:00:13Z</time>
      </trkpt>
      <trkpt lat="40.444683" lon="-5.413433">
        <ele>2379.0</ele>
        <time>2015-07-25T14:00:14Z</time>
      </trkpt>
      <trkpt lat="40.444717" lon="-5.413550">
        <ele>2377.0</ele>
        <time>2015-07-25T14:00:15Z</time>
      </trkpt>
      <trkpt lat="40.444767" lon="-5.413650">
        <ele>2374.0</ele>
        <time>2015-07-25T14:00:16Z</time>
      </trkpt>
      <trkpt lat="40.444817" lon="-5.413733">
        <ele>2372.0</ele>
        <time>2015-07-25T14:00:17Z</time>
      </trkpt>
      <trkpt lat="40.444900" lon="-5.413833">
        <ele>2370.0</ele>
        <time>2015-07-25T14:00:18Z</time>
      </trkpt>
      <trkpt lat="40.444967" lon="-5.413933">
        <ele>2368.0</ele>
        <time>2015-07-25T14:00:19Z</time>
      </trkpt>
      <trkpt lat="40.445017" lon="-5.414033">
        <ele>2367.0</ele>
        <time>2015-07-25T14:00:20Z</time>
      </trkpt>
      <trkpt lat="40.445067" lon="-5.414133">
        <ele>2366.0</ele>
        <time>2015-07-25T14:00:21Z</time>
      </trkpt>
      <trkpt lat="40.445100" lon="-5.414250">
        <ele>2364.0</ele>
        <time>2015-07-25T14:00:22Z</time>
      </trkpt>
      <trkpt lat="40.445133" lon="-5.414367">
        <ele>2362.0</ele>
        <time>2015-07-25T14:00:23Z</time>
      </trkpt>
      <trkpt lat="40.445183" lon="-5.414483">
        <ele>2359.0</ele>
        <time>2015-07-25T14:00:24Z</time>
      </trkpt>
      <trkpt lat="40.445233" lon="-5.414600">
        <ele>2356.0</ele>
        <time>2015-07-25T14:00:25Z</time>
      </trkpt>
      <trkpt lat="40.445283" lon="-5.414733">
        <ele>2353.0</ele>
        <time>2015-07-25T14:00:26Z</time>
      </trkpt>
      <trkpt lat="40.445333" lon="-5.414867">
        <ele>2353.0</ele>
        <time>2015-07-25T14:00:27Z</time>
      </trkpt>
      <trkpt lat="40.445383" lon="-5.415017">
        <ele>2353.0</ele>
        <time>2015-07-25T14:00:28Z</time>
      </trkpt>
      <trkpt lat="40.445417" lon="-5.415133">
        <ele>2354.0</ele>
        <time>2015-07-25T14:00:29Z</time>
      </trkpt>
      <trkpt lat="40.445467" lon="-5.415233">
        <ele>2354.0</ele>
        <time>2015-07-25T14:00:30Z</time>
      </trkpt>
      <trkpt lat="40.445517" lon="-5.415317">
        <ele>2352.0</ele>
        <time>2015-07-25T14:00:31Z</time>
      </trkpt>
      <trkpt lat="40.445567" lon="-5.415400">
        <ele>2350.0</ele>
        <time>2015-07-25T14:00:32Z</time>
      </trkpt>
      <trkpt lat="40.445633" lon="-5.415483">
        <ele>2347.0</ele>
        <time>2015-07-25T14:00:33Z</time>
      </trkpt>
      <trkpt lat="40.445700" lon="-5.415583">
        <ele>2345.0</ele>
        <time>2015-07-25T14:00:34Z</time>
      </trkpt>
      <trkpt lat="40.445750" lon="-5.415683">
        <ele>2343.0</ele>
        <time>2015-07-25T14:00:35Z</time>
      </trkpt>
      <trkpt lat="40.445817" lon="-5.415783">
        <ele>2342.0</ele>
        <time>2015-07-25T14:00:36Z</time>
      </trkpt>
      <trkpt lat="40.445867" lon="-5.415867">
        <ele>2340.0</ele>
        <time>2015-07-25T14:00:37Z</time>
      </trkpt>
      <trkpt lat="40.445933" lon="-5.415950">
        <ele>2339.0</ele>
        <time>2015-07-25T14:00:38Z</time>
      </trkpt>
      <trkpt lat="40.446000" lon="-5.416017">
        <ele>2336.0</ele>
        <time>2015-07-25T14:00:39Z</time>
      </trkpt>
      <trkpt lat="40.446067" lon="-5.416117">
        <ele>2334.0</ele>
        <time>2015-07-25T14:00:40Z</time>
      </trkpt>
      <trkpt lat="40.446117" lon="-5.416200">
        <ele>2331.0</ele>
        <time>2015-07-25T14:00:41Z</time>
      </trkpt>
      <trkpt lat="40.446183" lon="-5.416300">
        <ele>2329.0</ele>
        <time>2015-07-25T14:00:42Z</time>
      </trkpt>
      <trkpt lat="40.446250" lon="-5.416383">
        <ele>2326.0</ele>
        <time>2015-07-25T14:00:43Z</time>
      </trkpt>
      <trkpt lat="40.446333" lon="-5.416450">
        <ele>2324.0</ele>
        <time>2015-07-25T14:00:44Z</time>
      </trkpt>
      <trkpt lat="40.446400" lon="-5.416517">
        <ele>2322.0</ele>
        <time>2015-07-25T14:00:45Z</time>
      </trkpt>
      <trkpt lat="40.446450" lon="-5.416583">
        <ele>2320.0</ele>
        <time>2015-07-25T14:00:46Z</time>
      </trkpt>
      <trkpt lat="40.446517" lon="-5.416650">
        <ele>2318.0</ele>
        <time>2015-07-25T14:00:47Z</time>
      </trkpt>
      <trkpt lat="40.446583" lon="-5.416717">
        <ele>2316.0</ele>
        <time>2015-07-25T14:00:48Z</time>
      </trkpt>
      <trkpt lat="40.446633" lon="-5.416800">
        <ele>2313.0</ele>
        <time>2015-07-25T14:00:49Z</time>
      </trkpt>
      <trkpt lat="40.446700" lon="-5.416867">
        <ele>2310.0</ele>
        <time>2015-07-25T14:00:50Z</time>
      </trkpt>
      <trkpt lat="40.446750" lon="-5.416950">
        <ele>2307.0</ele>
        <time>2015-07-25T14:00:51Z</time>
      </trkpt>
      <trkpt lat="40.446817" lon="-5.417050">
        <ele>2304.0</ele>
        <time>2015-07-25T14:00:52Z</time>
      </trkpt>
      <trkpt lat="40.446867" lon="-5.417150">
        <ele>2302.0</ele>
        <time>2015-07-25T14:00:53Z</time>
      </trkpt>
      <trkpt lat="40.446917" lon="-5.417233">
        <ele>2300.0</ele>
        <time>2015-07-25T14:00:54Z</time>
      </trkpt>
      <trkpt lat="40.446967" lon="-5.417317">
        <ele>2298.0</ele>
        <time>2015-07-25T14:00:55Z</time>
      </trkpt>
      <trkpt lat="40.447000" lon="-5.417400">
        <ele>2296.0</ele>
        <time>2015-07-25T14:00:56Z</time>
      </trkpt>
      <trkpt lat="40.447050" lon="-5.417500">
        <ele>2293.0</ele>
        <time>2015-07-25T14:00:57Z</time>
      </trkpt>
      <trkpt lat="40.447083" lon="-5.417617">
        <ele>2290.0</ele>
        <time>2015-07-25T14:00:58Z</time>
      </trkpt>
      <trkpt lat="40.447133" lon="-5.417733">
        <ele>2288.0</ele>
        <time>2015-07-25T14:00:59Z</time>
      </trkpt>
      <trkpt lat="40.447183" lon="-5.417850">
        <ele>2285.0</ele>
        <time>2015-07-25T14:01:00Z</time>
      </trkpt>
      <trkpt lat="40.447233" lon="-5.417950">
        <ele>2282.0</ele>
        <time>2015-07-25T14:01:01Z</time>
      </trkpt>
      <trkpt lat="40.447283" lon="-5.418050">
        <ele>2279.0</ele>
        <time>2015-07-25T14:01:02Z</time>
      </trkpt>
      <trkpt lat="40.447333" lon="-5.418167">
        <ele>2276.0</ele>
        <time>2015-07-25T14:01:03Z</time>
      </trkpt>
      <trkpt lat="40.447400" lon="-5.418283">
        <ele>2272.0</ele>
        <time>2015-07-25T14:01:04Z</time>
      </trkpt>
      <trkpt lat="40.447450" lon="-5.418400">
        <ele>2269.0</ele>
        <time>2015-07-25T14:01:05Z</time>
      </trkpt>
      <trkpt lat="40.447500" lon="-5.418517">
        <ele>2267.0</ele>
        <time>2015-07-25T14:01:06Z</time>
      </trkpt>
      <trkpt lat="40.447567" lon="-5.418650">
        <ele>2265.0</ele>
        <time>2015-07-25T14:01:07Z</time>
      </trkpt>
      <trkpt lat="40.447633" lon="-5.418750">
        <ele>2263.0</ele>
        <time>2015-07-25T14:01:08Z</time>
      </trkpt>
      <trkpt lat="40.447700" lon="-5.418867">
        <ele>2260.0</ele>
        <time>2015-07-25T14:01:09Z</time>
      </trkpt>
      <trkpt lat="40.447783" lon="-5.418983">
        <ele>2257.0</ele>
        <time>2015-07-25T14:01:10Z</time>
      </trkpt>
      <trkpt lat="40.447867" lon="-5.419083">
        <ele>2253.0</ele>
        <time>2015-07-25T14:01:11Z</time>
      </trkpt>
      <trkpt lat="40.447950" lon="-5.419200">
        <ele>2250.0</ele>
        <time>2015-07-25T14:01:12Z</time>
      </trkpt>
      <trkpt lat="40.448033" lon="-5.419300">
        <ele>2247.0</ele>
        <time>2015-07-25T14:01:13Z</time>
      </trkpt>
      <trkpt lat="40.448117" lon="-5.419417">
        <ele>2245.0</ele>
        <time>2015-07-25T14:01:14Z</time>
      </trkpt>
      <trkpt lat="40.448200" lon="-5.419517">
        <ele>2243.0</ele>
        <time>2015-07-25T14:01:15Z</time>
      </trkpt>
      <trkpt lat="40.448283" lon="-5.419600">
        <ele>2240.0</ele>
        <time>2015-07-25T14:01:16Z</time>
      </trkpt>
      <trkpt lat="40.448350" lon="-5.419683">
        <ele>2236.0</ele>
        <time>2015-07-25T14:01:17Z</time>
      </trkpt>
      <trkpt lat="40.448433" lon="-5.419767">
        <ele>2232.0</ele>
        <time>2015-07-25T14:01:18Z</time>
      </trkpt>
      <trkpt lat="40.448533" lon="-5.419867">
        <ele>2228.0</ele>
        <time>2015-07-25T14:01:19Z</time>
      </trkpt>
      <trkpt lat="40.448633" lon="-5.419950">
        <ele>2226.0</ele>
        <time>2015-07-25T14:01:20Z</time>
      </trkpt>
      <trkpt lat="40.448733" lon="-5.420050">
        <ele>2225.0</ele>
        <time>2015-07-25T14:01:21Z</time>
      </trkpt>
      <trkpt lat="40.448800" lon="-5.420150">
        <ele>2224.0</ele>
        <time>2015-07-25T14:01:22Z</time>
      </trkpt>
      <trkpt lat="40.448883" lon="-5.420233">
        <ele>2222.0</ele>
        <time>2015-07-25T14:01:23Z</time>
      </trkpt>
      <trkpt lat="40.448950" lon="-5.420333">
        <ele>2220.0</ele>
        <time>2015-07-25T14:01:24Z</time>
      </trkpt>
      <trkpt lat="40.449033" lon="-5.420417">
        <ele>2218.0</ele>
        <time>2015-07-25T14:01:25Z</time>
      </trkpt>
      <trkpt lat="40.449117" lon="-5.420517">
        <ele>2215.0</ele>
        <time>2015-07-25T14:01:26Z</time>
      </trkpt>
      <trkpt lat="40.449217" lon="-5.420600">
        <ele>2212.0</ele>
        <time>2015-07-25T14:01:27Z</time>
      </trkpt>
      <trkpt lat="40.449317" lon="-5.420667">
        <ele>2210.0</ele>
        <time>2015-07-25T14:01:28Z</time>
      </trkpt>
      <trkpt lat="40.449400" lon="-5.420733">
        <ele>2208.0</ele>
        <time>2015-07-25T14:01:29Z</time>
      </trkpt>
      <trkpt lat="40.449500" lon="-5.420817">
        <ele>2205.0</ele>
        <time>2015-07-25T14:01:30Z</time>
      </trkpt>
      <trkpt lat="40.449567" lon="-5.420917">
        <ele>2203.0</ele>
        <time>2015-07-25T14:01:31Z</time>
      </trkpt>
      <trkpt lat="40.449650" lon="-5.421017">
        <ele>2201.0</ele>
        <time>2015-07-25T14:01:32Z</time>
      </trkpt>
      <trkpt lat="40.449717" lon="-5.421133">
        <ele>2200.0</ele>
        <time>2015-07-25T14:01:33Z</time>
      </trkpt>
      <trkpt lat="40.449767" lon="-5.421233">
        <ele>2198.0</ele>
        <time>2015-07-25T14:01:34Z</time>
      </trkpt>
      <trkpt lat="40.449817" lon="-5.421333">
        <ele>2197.0</ele>
        <time>2015-07-25T14:01:35Z</time>
      </trkpt>
      <trkpt lat="40.449867" lon="-5.421417">
        <ele>2195.0</ele>
        <time>2015-07-25T14:01:36Z</time>
      </trkpt>
      <trkpt lat="40.449933" lon="-5.421517">
        <ele>2191.0</ele>
        <time>2015-07-25T14:01:37Z</time>
      </trkpt>
      <trkpt lat="40.449983" lon="-5.421617">
        <ele>2188.0</ele>
        <time>2015-07-25T14:01:38Z</time>
      </trkpt>
      <trkpt lat="40.450050" lon="-5.421733">
        <ele>2184.0</ele>
        <time>2015-07-25T14:01:39Z</time>
      </trkpt>
      <trkpt lat="40.450100" lon="-5.421850">
        <ele>2181.0</ele>
        <time>2015-07-25T14:01:40Z</time>
      </trkpt>
      <trkpt lat="40.450167" lon="-5.421950">
        <ele>2178.0</ele>
        <time>2015-07-25T14:01:41Z</time>
      </trkpt>
      <trkpt lat="40.450233" lon="-5.422050">
        <ele>2175.0</ele>
        <time>2015-07-25T14:01:42Z</time>
      </trkpt>
      <trkpt lat="40.450317" lon="-5.422150">
        <ele>2172.0</ele>
        <time>2015-07-25T14:01:43Z</time>
      </trkpt>
      <trkpt lat="40.450383" lon="-5.422233">
        <ele>2168.0</ele>
        <time>2015-07-25T14:01:44Z</time>
      </trkpt>
      <trkpt lat="40.450467" lon="-5.422317">
        <ele>2163.0</ele>
        <time>2015-07-25T14:01:45Z</time>
      </trkpt>
      <trkpt lat="40.450550" lon="-5.422417">
        <ele>2158.0</ele>
        <time>2015-07-25T14:01:46Z</time>
      </trkpt>
      <trkpt lat="40.450633" lon="-5.422517">
        <ele>2154.0</ele>
        <time>2015-07-25T14:01:47Z</time>
      </trkpt>
      <trkpt lat="40.450733" lon="-5.422617">
        <ele>2151.0</ele>
        <time>2015-07-25T14:01:48Z</time>
      </trkpt>
      <trkpt lat="40.450817" lon="-5.422683">
        <ele>2147.0</ele>
        <time>2015-07-25T14:01:49Z</time>
      </trkpt>
      <trkpt lat="40.450900" lon="-5.422750">
        <ele>2144.0</ele>
        <time>2015-07-25T14:01:50Z</time>
      </trkpt>
      <trkpt lat="40.450983" lon="-5.422817">
        <ele>2141.0</ele>
        <time>2015-07-25T14:01:51Z</time>
      </trkpt>
      <trkpt lat="40.451050" lon="-5.422900">
        <ele>2138.0</ele>
        <time>2015-07-25T14:01:52Z</time>
      </trkpt>
      <trkpt lat="40.451133" lon="-5.423000">
        <ele>2135.0</ele>
        <time>2015-07-25T14:01:53Z</time>
      </trkpt>
      <trkpt lat="40.451200" lon="-5.423100">
        <ele>2132.0</ele>
        <time>2015-07-25T14:01:54Z</time>
      </trkpt>
      <trkpt lat="40.451267" lon="-5.423200">
        <ele>2131.0</ele>
        <time>2015-07-25T14:01:55Z</time>
      </trkpt>
      <trkpt lat="40.451333" lon="-5.423300">
        <ele>2130.0</ele>
        <time>2015-07-25T14:01:56Z</time>
      </trkpt>
      <trkpt lat="40.451383" lon="-5.423383">
        <ele>2128.0</ele>
        <time>2015-07-25T14:01:57Z</time>
      </trkpt>
      <trkpt lat="40.451450" lon="-5.423450">
        <ele>2126.0</ele>
        <time>2015-07-25T14:01:58Z</time>
      </trkpt>
      <trkpt lat="40.451500" lon="-5.423533">
        <ele>2123.0</ele>
        <time>2015-07-25T14:01:59Z</time>
      </trkpt>
      <trkpt lat="40.451567" lon="-5.423633">
        <ele>2120.0</ele>
        <time>2015-07-25T14:02:00Z</time>
      </trkpt>
      <trkpt lat="40.451633" lon="-5.423733">
        <ele>2117.0</ele>
        <time>2015-07-25T14:02:01Z</time>
      </trkpt>
      <trkpt lat="40.451683" lon="-5.423867">
        <ele>2115.0</ele>
        <time>2015-07-25T14:02:02Z</time>
      </trkpt>
      <trkpt lat="40.451717" lon="-5.423967">
        <ele>2115.0</ele>
        <time>2015-07-25T14:02:03Z</time>
      </trkpt>
      <trkpt lat="40.451750" lon="-5.424067">
        <ele>2115.0</ele>
        <time>2015-07-25T14:02:04Z</time>
      </trkpt>
      <trkpt lat="40.451783" lon="-5.424167">
        <ele>2114.0</ele>
        <time>2015-07-25T14:02:05Z</time>
      </trkpt>
      <trkpt lat="40.451817" lon="-5.424267">
        <ele>2112.0</ele>
        <time>2015-07-25T14:02:06Z</time>
      </trkpt>
      <trkpt lat="40.451850" lon="-5.424367">
        <ele>2109.0</ele>
        <time>2015-07-25T14:02:07Z</time>
      </trkpt>
      <trkpt lat="40.451900" lon="-5.424483">
        <ele>2108.0</ele>
        <time>2015-07-25T14:02:08Z</time>
      </trkpt>
      <trkpt lat="40.451950" lon="-5.424600">
        <ele>2107.0</ele>
        <time>2015-07-25T14:02:09Z</time>
      </trkpt>
      <trkpt lat="40.451983" lon="-5.424700">
        <ele>2108.0</ele>
        <time>2015-07-25T14:02:10Z</time>
      </trkpt>
      <trkpt lat="40.452033" lon="-5.424800">
        <ele>2109.0</ele>
        <time>2015-07-25T14:02:11Z</time>
      </trkpt>
      <trkpt lat="40.452067" lon="-5.424900">
        <ele>2110.0</ele>
        <time>2015-07-25T14:02:12Z</time>
      </trkpt>
      <trkpt lat="40.452117" lon="-5.425000">
        <ele>2109.0</ele>
        <time>2015-07-25T14:02:13Z</time>
      </trkpt>
      <trkpt lat="40.452167" lon="-5.425100">
        <ele>2109.0</ele>
        <time>2015-07-25T14:02:14Z</time>
      </trkpt>
      <trkpt lat="40.452233" lon="-5.425200">
        <ele>2109.0</ele>
        <time>2015-07-25T14:02:15Z</time>
      </trkpt>
      <trkpt lat="40.452300" lon="-5.425300">
        <ele>2110.0</ele>
        <time>2015-07-25T14:02:16Z</time>
      </trkpt>
      <trkpt lat="40.452350" lon="-5.425400">
        <ele>2110.0</ele>
        <time>2015-07-25T14:02:17Z</time>
      </trkpt>
      <trkpt lat="40.452417" lon="-5.425517">
        <ele>2110.0</ele>
        <time>2015-07-25T14:02:18Z</time>
      </trkpt>
      <trkpt lat="40.452483" lon="-5.425633">
        <ele>2110.0</ele>
        <time>2015-07-25T14:02:19Z</time>
      </trkpt>
      <trkpt lat="40.452533" lon="-5.425767">
        <ele>2111.0</ele>
        <time>2015-07-25T14:02:20Z</time>
      </trkpt>
      <trkpt lat="40.452600" lon="-5.425900">
        <ele>2112.0</ele>
        <time>2015-07-25T14:02:21Z</time>
      </trkpt>
      <trkpt lat="40.452650" lon="-5.426033">
        <ele>2114.0</ele>
        <time>2015-07-25T14:02:22Z</time>
      </trkpt>
      <trkpt lat="40.452717" lon="-5.426133">
        <ele>2117.0</ele>
        <time>2015-07-25T14:02:23Z</time>
      </trkpt>
      <trkpt lat="40.452767" lon="-5.426233">
        <ele>2119.0</ele>
        <time>2015-07-25T14:02:24Z</time>
      </trkpt>
      <trkpt lat="40.452833" lon="-5.426300">
        <ele>2121.0</ele>
        <time>2015-07-25T14:02:25Z</time>
      </trkpt>
      <trkpt lat="40.452883" lon="-5.426367">
        <ele>2122.0</ele>
        <time>2015-07-25T14:02:26Z</time>
      </trkpt>
      <trkpt lat="40.452933" lon="-5.426467">
        <ele>2123.0</ele>
        <time>2015-07-25T14:02:27Z</time>
      </trkpt>
      <trkpt lat="40.452950" lon="-5.426600">
        <ele>2124.0</ele>
        <time>2015-07-25T14:02:28Z</time>
      </trkpt>
      <trkpt lat="40.452933" lon="-5.426750">
        <ele>2124.0</ele>
        <time>2015-07-25T14:02:29Z</time>
      </trkpt>
      <trkpt lat="40.452883" lon="-5.426900">
        <ele>2125.0</ele>
        <time>2015-07-25T14:02:30Z</time>
      </trkpt>
      <trkpt lat="40.452800" lon="-5.427017">
        <ele>2126.0</ele>
        <time>2015-07-25T14:02:31Z</time>
      </trkpt>
      <trkpt lat="40.452683" lon="-5.427100">
        <ele>2127.0</ele>
        <time>2015-07-25T14:02:32Z</time>
      </trkpt>
      <trkpt lat="40.452567" lon="-5.427117">
        <ele>2128.0</ele>
        <time>2015-07-25T14:02:33Z</time>
      </trkpt>
      <trkpt lat="40.452467" lon="-5.427083">
        <ele>2128.0</ele>
        <time>2015-07-25T14:02:34Z</time>
      </trkpt>
      <trkpt lat="40.452367" lon="-5.427000">
        <ele>2128.0</ele>
        <time>2015-07-25T14:02:35Z</time>
      </trkpt>
      <trkpt lat="40.452283" lon="-5.426900">
        <ele>2128.0</ele>
        <time>2015-07-25T14:02:36Z</time>
      </trkpt>
      <trkpt lat="40.452267" lon="-5.426767">
        <ele>2128.0</ele>
        <time>2015-07-25T14:02:37Z</time>
      </trkpt>
      <trkpt lat="40.452283" lon="-5.426650">
        <ele>2129.0</ele>
        <time>2015-07-25T14:02:38Z</time>
      </trkpt>
      <trkpt lat="40.452317" lon="-5.426567">
        <ele>2131.0</ele>
        <time>2015-07-25T14:02:39Z</time>
      </trkpt>
      <trkpt lat="40.452367" lon="-5.426517">
        <ele>2133.0</ele>
        <time>2015-07-25T14:02:40Z</time>
      </trkpt>
      <trkpt lat="40.452417" lon="-5.426467">
        <ele>2134.0</ele>
        <time>2015-07-25T14:02:41Z</time>
      </trkpt>
      <trkpt lat="40.452483" lon="-5.426450">
        <ele>2134.0</ele>
        <time>2015-07-25T14:02:42Z</time>
      </trkpt>
      <trkpt lat="40.452550" lon="-5.426450">
        <ele>2134.0</ele>
        <time>2015-07-25T14:02:43Z</time>
      </trkpt>
      <trkpt lat="40.452617" lon="-5.426483">
        <ele>2135.0</ele>
        <time>2015-07-25T14:02:44Z</time>
      </trkpt>
      <trkpt lat="40.452700" lon="-5.426567">
        <ele>2135.0</ele>
        <time>2015-07-25T14:02:45Z</time>
      </trkpt>
      <trkpt lat="40.452750" lon="-5.426683">
        <ele>2136.0</ele>
        <time>2015-07-25T14:02:46Z</time>
      </trkpt>
      <trkpt lat="40.452783" lon="-5.426833">
        <ele>2138.0</ele>
        <time>2015-07-25T14:02:47Z</time>
      </trkpt>
      <trkpt lat="40.452783" lon="-5.426967">
        <ele>2139.0</ele>
        <time>2015-07-25T14:02:48Z</time>
      </trkpt>
      <trkpt lat="40.452750" lon="-5.427117">
        <ele>2139.0</ele>
        <time>2015-07-25T14:02:49Z</time>
      </trkpt>
      <trkpt lat="40.452683" lon="-5.427233">
        <ele>2139.0</ele>
        <time>2015-07-25T14:02:50Z</time>
      </trkpt>
      <trkpt lat="40.452583" lon="-5.427317">
        <ele>2138.0</ele>
        <time>2015-07-25T14:02:51Z</time>
      </trkpt>
      <trkpt lat="40.452450" lon="-5.427367">
        <ele>2137.0</ele>
        <time>2015-07-25T14:02:52Z</time>
      </trkpt>
      <trkpt lat="40.452317" lon="-5.427333">
        <ele>2136.0</ele>
        <time>2015-07-25T14:02:53Z</time>
      </trkpt>
      <trkpt lat="40.452200" lon="-5.427250">
        <ele>2137.0</ele>
        <time>2015-07-25T14:02:54Z</time>
      </trkpt>
      <trkpt lat="40.452133" lon="-5.427150">
        <ele>2137.0</ele>
        <time>2015-07-25T14:02:55Z</time>
      </trkpt>
      <trkpt lat="40.452100" lon="-5.427017">
        <ele>2138.0</ele>
        <time>2015-07-25T14:02:56Z</time>
      </trkpt>
      <trkpt lat="40.452100" lon="-5.426917">
        <ele>2139.0</ele>
        <time>2015-07-25T14:02:57Z</time>
      </trkpt>
      <trkpt lat="40.452133" lon="-5.426833">
        <ele>2141.0</ele>
        <time>2015-07-25T14:02:58Z</time>
      </trkpt>
      <trkpt lat="40.452167" lon="-5.426750">
        <ele>2142.0</ele>
        <time>2015-07-25T14:02:59Z</time>
      </trkpt>
      <trkpt lat="40.452200" lon="-5.426683">
        <ele>2142.0</ele>
        <time>2015-07-25T14:03:00Z</time>
      </trkpt>
      <trkpt lat="40.452217" lon="-5.426600">
        <ele>2143.0</ele>
        <time>2015-07-25T14:03:01Z</time>
      </trkpt>
      <trkpt lat="40.452267" lon="-5.426550">
        <ele>2143.0</ele>
        <time>2015-07-25T14:03:02Z</time>
      </trkpt>
      <trkpt lat="40.452333" lon="-5.426517">
        <ele>2142.0</ele>
        <time>2015-07-25T14:03:03Z</time>
      </trkpt>
      <trkpt lat="40.452417" lon="-5.426533">
        <ele>2142.0</ele>
        <time>2015-07-25T14:03:04Z</time>
      </trkpt>
      <trkpt lat="40.452500" lon="-5.426583">
        <ele>2142.0</ele>
        <time>2015-07-25T14:03:05Z</time>
      </trkpt>
      <trkpt lat="40.452567" lon="-5.426683">
        <ele>2144.0</ele>
        <time>2015-07-25T14:03:06Z</time>
      </trkpt>
      <trkpt lat="40.452600" lon="-5.426783">
        <ele>2145.0</ele>
        <time>2015-07-25T14:03:07Z</time>
      </trkpt>
      <trkpt lat="40.452617" lon="-5.426917">
        <ele>2146.0</ele>
        <time>2015-07-25T14:03:08Z</time>
      </trkpt>
      <trkpt lat="40.452600" lon="-5.427050">
        <ele>2145.0</ele>
        <time>2015-07-25T14:03:09Z</time>
      </trkpt>
      <trkpt lat="40.452550" lon="-5.427183">
        <ele>2144.0</ele>
        <time>2015-07-25T14:03:10Z</time>
      </trkpt>
      <trkpt lat="40.452467" lon="-5.427317">
        <ele>2143.0</ele>
        <time>2015-07-25T14:03:11Z</time>
      </trkpt>
      <trkpt lat="40.452350" lon="-5.427400">
        <ele>2142.0</ele>
        <time>2015-07-25T14:03:12Z</time>
      </trkpt>
      <trkpt lat="40.452233" lon="-5.427450">
        <ele>2142.0</ele>
        <time>2015-07-25T14:03:13Z</time>
      </trkpt>
      <trkpt lat="40.452100" lon="-5.427450">
        <ele>2142.0</ele>
        <time>2015-07-25T14:03:14Z</time>
      </trkpt>
      <trkpt lat="40.452000" lon="-5.427417">
        <ele>2142.0</ele>
        <time>2015-07-25T14:03:15Z</time>
      </trkpt>
      <trkpt lat="40.451917" lon="-5.427333">
        <ele>2142.0</ele>
        <time>2015-07-25T14:03:16Z</time>
      </trkpt>
      <trkpt lat="40.451850" lon="-5.427250">
        <ele>2140.0</ele>
        <time>2015-07-25T14:03:17Z</time>
      </trkpt>
      <trkpt lat="40.451800" lon="-5.427133">
        <ele>2138.0</ele>
        <time>2015-07-25T14:03:18Z</time>
      </trkpt>
      <trkpt lat="40.451800" lon="-5.427000">
        <ele>2137.0</ele>
        <time>2015-07-25T14:03:19Z</time>
      </trkpt>
      <trkpt lat="40.451817" lon="-5.426867">
        <ele>2136.0</ele>
        <time>2015-07-25T14:03:20Z</time>
      </trkpt>
      <trkpt lat="40.451867" lon="-5.426767">
        <ele>2136.0</ele>
        <time>2015-07-25T14:03:21Z</time>
      </trkpt>
      <trkpt lat="40.451933" lon="-5.426717">
        <ele>2137.0</ele>
        <time>2015-07-25T14:03:22Z</time>
      </trkpt>
      <trkpt lat="40.452000" lon="-5.426717">
        <ele>2138.0</ele>
        <time>2015-07-25T14:03:23Z</time>
      </trkpt>
      <trkpt lat="40.452083" lon="-5.426733">
        <ele>2138.0</ele>
        <time>2015-07-25T14:03:24Z</time>
      </trkpt>
      <trkpt lat="40.452150" lon="-5.426783">
        <ele>2138.0</ele>
        <time>2015-07-25T14:03:25Z</time>
      </trkpt>
      <trkpt lat="40.452233" lon="-5.426850">
        <ele>2138.0</ele>
        <time>2015-07-25T14:03:26Z</time>
      </trkpt>
      <trkpt lat="40.452283" lon="-5.426950">
        <ele>2138.0</ele>
        <time>2015-07-25T14:03:27Z</time>
      </trkpt>
      <trkpt lat="40.452333" lon="-5.427067">
        <ele>2138.0</ele>
        <time>2015-07-25T14:03:28Z</time>
      </trkpt>
      <trkpt lat="40.452383" lon="-5.427167">
        <ele>2139.0</ele>
        <time>2015-07-25T14:03:29Z</time>
      </trkpt>
      <trkpt lat="40.452417" lon="-5.427300">
        <ele>2138.0</ele>
        <time>2015-07-25T14:03:30Z</time>
      </trkpt>
      <trkpt lat="40.452450" lon="-5.427417">
        <ele>2138.0</ele>
        <time>2015-07-25T14:03:31Z</time>
      </trkpt>
      <trkpt lat="40.452500" lon="-5.427550">
        <ele>2138.0</ele>
        <time>2015-07-25T14:03:32Z</time>
      </trkpt>
      <trkpt lat="40.452533" lon="-5.427683">
        <ele>2138.0</ele>
        <time>2015-07-25T14:03:33Z</time>
      </trkpt>
      <trkpt lat="40.452583" lon="-5.427817">
        <ele>2139.0</ele>
        <time>2015-07-25T14:03:34Z</time>
      </trkpt>
      <trkpt lat="40.452600" lon="-5.427933">
        <ele>2140.0</ele>
        <time>2015-07-25T14:03:35Z</time>
      </trkpt>
      <trkpt lat="40.452633" lon="-5.428050">
        <ele>2140.0</ele>
        <time>2015-07-25T14:03:36Z</time>
      </trkpt>
      <trkpt lat="40.452633" lon="-5.428167">
        <ele>2140.0</ele>
        <time>2015-07-25T14:03:37Z</time>
      </trkpt>
      <trkpt lat="40.452667" lon="-5.428283">
        <ele>2139.0</ele>
        <time>2015-07-25T14:03:38Z</time>
      </trkpt>
      <trkpt lat="40.452683" lon="-5.428400">
        <ele>2138.0</ele>
        <time>2015-07-25T14:03:39Z</time>
      </trkpt>
      <trkpt lat="40.452700" lon="-5.428533">
        <ele>2137.0</ele>
        <time>2015-07-25T14:03:40Z</time>
      </trkpt>
      <trkpt lat="40.452717" lon="-5.428667">
        <ele>2136.0</ele>
        <time>2015-07-25T14:03:41Z</time>
      </trkpt>
      <trkpt lat="40.452733" lon="-5.428783">
        <ele>2136.0</ele>
        <time>2015-07-25T14:03:42Z</time>
      </trkpt>
      <trkpt lat="40.452733" lon="-5.428900">
        <ele>2136.0</ele>
        <time>2015-07-25T14:03:43Z</time>
      </trkpt>
      <trkpt lat="40.452733" lon="-5.429017">
        <ele>2136.0</ele>
        <time>2015-07-25T14:03:44Z</time>
      </trkpt>
      <trkpt lat="40.452733" lon="-5.429117">
        <ele>2135.0</ele>
        <time>2015-07-25T14:03:45Z</time>
      </trkpt>
      <trkpt lat="40.452750" lon="-5.429217">
        <ele>2134.0</ele>
        <time>2015-07-25T14:03:46Z</time>
      </trkpt>
      <trkpt lat="40.452750" lon="-5.429317">
        <ele>2132.0</ele>
        <time>2015-07-25T14:03:47Z</time>
      </trkpt>
      <trkpt lat="40.452750" lon="-5.429450">
        <ele>2130.0</ele>
        <time>2015-07-25T14:03:48Z</time>
      </trkpt>
      <trkpt lat="40.452750" lon="-5.429567">
        <ele>2128.0</ele>
        <time>2015-07-25T14:03:49Z</time>
      </trkpt>
      <trkpt lat="40.452750" lon="-5.429683">
        <ele>2126.0</ele>
        <time>2015-07-25T14:03:50Z</time>
      </trkpt>
      <trkpt lat="40.452767" lon="-5.429800">
        <ele>2124.0</ele>
        <time>2015-07-25T14:03:51Z</time>
      </trkpt>
      <trkpt lat="40.452783" lon="-5.429917">
        <ele>2121.0</ele>
        <time>2015-07-25T14:03:52Z</time>
      </trkpt>
      <trkpt lat="40.452800" lon="-5.430033">
        <ele>2117.0</ele>
        <time>2015-07-25T14:03:53Z</time>
      </trkpt>
      <trkpt lat="40.452817" lon="-5.430167">
        <ele>2114.0</ele>
        <time>2015-07-25T14:03:54Z</time>
      </trkpt>
      <trkpt lat="40.452867" lon="-5.430283">
        <ele>2111.0</ele>
        <time>2015-07-25T14:03:55Z</time>
      </trkpt>
      <trkpt lat="40.452917" lon="-5.430400">
        <ele>2109.0</ele>
        <time>2015-07-25T14:03:56Z</time>
      </trkpt>
      <trkpt lat="40.452983" lon="-5.430483">
        <ele>2108.0</ele>
        <time>2015-07-25T14:03:57Z</time>
      </trkpt>
      <trkpt lat="40.453050" lon="-5.430567">
        <ele>2107.0</ele>
        <time>2015-07-25T14:03:58Z</time>
      </trkpt>
      <trkpt lat="40.453100" lon="-5.430650">
        <ele>2107.0</ele>
        <time>2015-07-25T14:03:59Z</time>
      </trkpt>
      <trkpt lat="40.453150" lon="-5.430750">
        <ele>2106.0</ele>
        <time>2015-07-25T14:04:00Z</time>
      </trkpt>
      <trkpt lat="40.453200" lon="-5.430833">
        <ele>2105.0</ele>
        <time>2015-07-25T14:04:01Z</time>
      </trkpt>
      <trkpt lat="40.453250" lon="-5.430900">
        <ele>2104.0</ele>
        <time>2015-07-25T14:04:02Z</time>
      </trkpt>
      <trkpt lat="40.453300" lon="-5.430983">
        <ele>2102.0</ele>
        <time>2015-07-25T14:04:03Z</time>
      </trkpt>
      <trkpt lat="40.453350" lon="-5.431067">
        <ele>2101.0</ele>
        <time>2015-07-25T14:04:04Z</time>
      </trkpt>
      <trkpt lat="40.453400" lon="-5.431167">
        <ele>2101.0</ele>
        <time>2015-07-25T14:04:05Z</time>
      </trkpt>
      <trkpt lat="40.453433" lon="-5.431267">
        <ele>2100.0</ele>
        <time>2015-07-25T14:04:06Z</time>
      </trkpt>
      <trkpt lat="40.453483" lon="-5.431367">
        <ele>2100.0</ele>
        <time>2015-07-25T14:04:07Z</time>
      </trkpt>
      <trkpt lat="40.453517" lon="-5.431450">
        <ele>2099.0</ele>
        <time>2015-07-25T14:04:08Z</time>
      </trkpt>
      <trkpt lat="40.453567" lon="-5.431550">
        <ele>2099.0</ele>
        <time>2015-07-25T14:04:09Z</time>
      </trkpt>
      <trkpt lat="40.453600" lon="-5.431633">
        <ele>2098.0</ele>
        <time>2015-07-25T14:04:10Z</time>
      </trkpt>
      <trkpt lat="40.453650" lon="-5.431717">
        <ele>2096.0</ele>
        <time>2015-07-25T14:04:11Z</time>
      </trkpt>
      <trkpt lat="40.453700" lon="-5.431800">
        <ele>2094.0</ele>
        <time>2015-07-25T14:04:12Z</time>
      </trkpt>
      <trkpt lat="40.453750" lon="-5.431883">
        <ele>2092.0</ele>
        <time>2015-07-25T14:04:13Z</time>
      </trkpt>
      <trkpt lat="40.453783" lon="-5.431983">
        <ele>2089.0</ele>
        <time>2015-07-25T14:04:14Z</time>
      </trkpt>
      <trkpt lat="40.453833" lon="-5.432083">
        <ele>2087.0</ele>
        <time>2015-07-25T14:04:15Z</time>
      </trkpt>
      <trkpt lat="40.453867" lon="-5.432200">
        <ele>2084.0</ele>
        <time>2015-07-25T14:04:16Z</time>
      </trkpt>
      <trkpt lat="40.453917" lon="-5.432300">
        <ele>2082.0</ele>
        <time>2015-07-25T14:04:17Z</time>
      </trkpt>
      <trkpt lat="40.453983" lon="-5.432400">
        <ele>2080.0</ele>
        <time>2015-07-25T14:04:18Z</time>
      </trkpt>
      <trkpt lat="40.454033" lon="-5.432500">
        <ele>2078.0</ele>
        <time>2015-07-25T14:04:19Z</time>
      </trkpt>
      <trkpt lat="40.454100" lon="-5.432600">
        <ele>2076.0</ele>
        <time>2015-07-25T14:04:20Z</time>
      </trkpt>
      <trkpt lat="40.454150" lon="-5.432700">
        <ele>2075.0</ele>
        <time>2015-07-25T14:04:21Z</time>
      </trkpt>
      <trkpt lat="40.454200" lon="-5.432800">
        <ele>2073.0</ele>
        <time>2015-07-25T14:04:22Z</time>
      </trkpt>
      <trkpt lat="40.454267" lon="-5.432900">
        <ele>2072.0</ele>
        <time>2015-07-25T14:04:23Z</time>
      </trkpt>
      <trkpt lat="40.454317" lon="-5.432983">
        <ele>2071.0</ele>
        <time>2015-07-25T14:04:24Z</time>
      </trkpt>
      <trkpt lat="40.454383" lon="-5.433067">
        <ele>2071.0</ele>
        <time>2015-07-25T14:04:25Z</time>
      </trkpt>
      <trkpt lat="40.454433" lon="-5.433133">
        <ele>2070.0</ele>
        <time>2015-07-25T14:04:26Z</time>
      </trkpt>
      <trkpt lat="40.454483" lon="-5.433200">
        <ele>2069.0</ele>
        <time>2015-07-25T14:04:27Z</time>
      </trkpt>
      <trkpt lat="40.454533" lon="-5.433283">
        <ele>2066.0</ele>
        <time>2015-07-25T14:04:28Z</time>
      </trkpt>
      <trkpt lat="40.454583" lon="-5.433383">
        <ele>2064.0</ele>
        <time>2015-07-25T14:04:29Z</time>
      </trkpt>
      <trkpt lat="40.454617" lon="-5.433483">
        <ele>2063.0</ele>
        <time>2015-07-25T14:04:30Z</time>
      </trkpt>
      <trkpt lat="40.454650" lon="-5.433583">
        <ele>2061.0</ele>
        <time>2015-07-25T14:04:31Z</time>
      </trkpt>
      <trkpt lat="40.454683" lon="-5.433667">
        <ele>2059.0</ele>
        <time>2015-07-25T14:04:32Z</time>
      </trkpt>
      <trkpt lat="40.454717" lon="-5.433767">
        <ele>2056.0</ele>
        <time>2015-07-25T14:04:33Z</time>
      </trkpt>
      <trkpt lat="40.454750" lon="-5.433850">
        <ele>2053.0</ele>
        <time>2015-07-25T14:04:34Z</time>
      </trkpt>
      <trkpt lat="40.454783" lon="-5.433933">
        <ele>2049.0</ele>
        <time>2015-07-25T14:04:35Z</time>
      </trkpt>
      <trkpt lat="40.454817" lon="-5.434017">
        <ele>2045.0</ele>
        <time>2015-07-25T14:04:36Z</time>
      </trkpt>
      <trkpt lat="40.454867" lon="-5.434100">
        <ele>2041.0</ele>
        <time>2015-07-25T14:04:37Z</time>
      </trkpt>
      <trkpt lat="40.454917" lon="-5.434183">
        <ele>2038.0</ele>
        <time>2015-07-25T14:04:38Z</time>
      </trkpt>
      <trkpt lat="40.454967" lon="-5.434267">
        <ele>2035.0</ele>
        <time>2015-07-25T14:04:39Z</time>
      </trkpt>
      <trkpt lat="40.455017" lon="-5.434350">
        <ele>2032.0</ele>
        <time>2015-07-25T14:04:40Z</time>
      </trkpt>
      <trkpt lat="40.455050" lon="-5.434433">
        <ele>2029.0</ele>
        <time>2015-07-25T14:04:41Z</time>
      </trkpt>
      <trkpt lat="40.455083" lon="-5.434533">
        <ele>2026.0</ele>
        <time>2015-07-25T14:04:42Z</time>
      </trkpt>
      <trkpt lat="40.455117" lon="-5.434617">
        <ele>2023.0</ele>
        <time>2015-07-25T14:04:43Z</time>
      </trkpt>
      <trkpt lat="40.455167" lon="-5.434683">
        <ele>2021.0</ele>
        <time>2015-07-25T14:04:44Z</time>
      </trkpt>
      <trkpt lat="40.455233" lon="-5.434717">
        <ele>2018.0</ele>
        <time>2015-07-25T14:04:45Z</time>
      </trkpt>
      <trkpt lat="40.455283" lon="-5.434767">
        <ele>2016.0</ele>
        <time>2015-07-25T14:04:46Z</time>
      </trkpt>
      <trkpt lat="40.455333" lon="-5.434817">
        <ele>2016.0</ele>
        <time>2015-07-25T14:04:47Z</time>
      </trkpt>
      <trkpt lat="40.455367" lon="-5.434883">
        <ele>2015.0</ele>
        <time>2015-07-25T14:04:48Z</time>
      </trkpt>
      <trkpt lat="40.455400" lon="-5.434967">
        <ele>2013.0</ele>
        <time>2015-07-25T14:04:49Z</time>
      </trkpt>
      <trkpt lat="40.455433" lon="-5.435033">
        <ele>2011.0</ele>
        <time>2015-07-25T14:04:50Z</time>
      </trkpt>
      <trkpt lat="40.455483" lon="-5.435117">
        <ele>2008.0</ele>
        <time>2015-07-25T14:04:51Z</time>
      </trkpt>
      <trkpt lat="40.455517" lon="-5.435217">
        <ele>2006.0</ele>
        <time>2015-07-25T14:04:52Z</time>
      </trkpt>
      <trkpt lat="40.455533" lon="-5.435333">
        <ele>2003.0</ele>
        <time>2015-07-25T14:04:53Z</time>
      </trkpt>
      <trkpt lat="40.455550" lon="-5.435450">
        <ele>2001.0</ele>
        <time>2015-07-25T14:04:54Z</time>
      </trkpt>
      <trkpt lat="40.455550" lon="-5.435567">
        <ele>1998.0</ele>
        <time>2015-07-25T14:04:55Z</time>
      </trkpt>
      <trkpt lat="40.455583" lon="-5.435683">
        <ele>1994.0</ele>
        <time>2015-07-25T14:04:56Z</time>
      </trkpt>
      <trkpt lat="40.455600" lon="-5.435800">
        <ele>1990.0</ele>
        <time>2015-07-25T14:04:57Z</time>
      </trkpt>
      <trkpt lat="40.455650" lon="-5.435917">
        <ele>1987.0</ele>
        <time>2015-07-25T14:04:58Z</time>
      </trkpt>
      <trkpt lat="40.455683" lon="-5.436050">
        <ele>1984.0</ele>
        <time>2015-07-25T14:04:59Z</time>
      </trkpt>
      <trkpt lat="40.455700" lon="-5.436167">
        <ele>1983.0</ele>
        <time>2015-07-25T14:05:00Z</time>
      </trkpt>
      <trkpt lat="40.455717" lon="-5.436283">
        <ele>1982.0</ele>
        <time>2015-07-25T14:05:01Z</time>
      </trkpt>
      <trkpt lat="40.455733" lon="-5.436383">
        <ele>1980.0</ele>
        <time>2015-07-25T14:05:02Z</time>
      </trkpt>
      <trkpt lat="40.455767" lon="-5.436467">
        <ele>1978.0</ele>
        <time>2015-07-25T14:05:03Z</time>
      </trkpt>
      <trkpt lat="40.455800" lon="-5.436567">
        <ele>1976.0</ele>
        <time>2015-07-25T14:05:04Z</time>
      </trkpt>
      <trkpt lat="40.455850" lon="-5.436667">
        <ele>1973.0</ele>
        <time>2015-07-25T14:05:05Z</time>
      </trkpt>
      <trkpt lat="40.455900" lon="-5.436783">
        <ele>1971.0</ele>
        <time>2015-07-25T14:05:06Z</time>
      </trkpt>
      <trkpt lat="40.455933" lon="-5.436900">
        <ele>1969.0</ele>
        <time>2015-07-25T14:05:07Z</time>
      </trkpt>
      <trkpt lat="40.455967" lon="-5.437017">
        <ele>1968.0</ele>
        <time>2015-07-25T14:05:08Z</time>
      </trkpt>
      <trkpt lat="40.456000" lon="-5.437150">
        <ele>1968.0</ele>
        <time>2015-07-25T14:05:09Z</time>
      </trkpt>
      <trkpt lat="40.456017" lon="-5.437267">
        <ele>1968.0</ele>
        <time>2015-07-25T14:05:10Z</time>
      </trkpt>
      <trkpt lat="40.456033" lon="-5.437400">
        <ele>1969.0</ele>
        <time>2015-07-25T14:05:11Z</time>
      </trkpt>
      <trkpt lat="40.456050" lon="-5.437517">
        <ele>1968.0</ele>
        <time>2015-07-25T14:05:12Z</time>
      </trkpt>
      <trkpt lat="40.456067" lon="-5.437633">
        <ele>1967.0</ele>
        <time>2015-07-25T14:05:13Z</time>
      </trkpt>
      <trkpt lat="40.456100" lon="-5.437767">
        <ele>1966.0</ele>
        <time>2015-07-25T14:05:14Z</time>
      </trkpt>
      <trkpt lat="40.456117" lon="-5.437917">
        <ele>1966.0</ele>
        <time>2015-07-25T14:05:15Z</time>
      </trkpt>
      <trkpt lat="40.456150" lon="-5.438033">
        <ele>1968.0</ele>
        <time>2015-07-25T14:05:16Z</time>
      </trkpt>
      <trkpt lat="40.456167" lon="-5.438150">
        <ele>1970.0</ele>
        <time>2015-07-25T14:05:17Z</time>
      </trkpt>
      <trkpt lat="40.456167" lon="-5.438233">
        <ele>1971.0</ele>
        <time>2015-07-25T14:05:18Z</time>
      </trkpt>
      <trkpt lat="40.456183" lon="-5.438333">
        <ele>1971.0</ele>
        <time>2015-07-25T14:05:19Z</time>
      </trkpt>
      <trkpt lat="40.456183" lon="-5.438433">
        <ele>1970.0</ele>
        <time>2015-07-25T14:05:20Z</time>
      </trkpt>
      <trkpt lat="40.456200" lon="-5.438550">
        <ele>1970.0</ele>
        <time>2015-07-25T14:05:21Z</time>
      </trkpt>
      <trkpt lat="40.456200" lon="-5.438683">
        <ele>1970.0</ele>
        <time>2015-07-25T14:05:22Z</time>
      </trkpt>
      <trkpt lat="40.456200" lon="-5.438817">
        <ele>1970.0</ele>
        <time>2015-07-25T14:05:23Z</time>
      </trkpt>
      <trkpt lat="40.456217" lon="-5.438950">
        <ele>1970.0</ele>
        <time>2015-07-25T14:05:24Z</time>
      </trkpt>
      <trkpt lat="40.456233" lon="-5.439083">
        <ele>1971.0</ele>
        <time>2015-07-25T14:05:25Z</time>
      </trkpt>
      <trkpt lat="40.456233" lon="-5.439217">
        <ele>1971.0</ele>
        <time>2015-07-25T14:05:26Z</time>
      </trkpt>
      <trkpt lat="40.456250" lon="-5.439367">
        <ele>1972.0</ele>
        <time>2015-07-25T14:05:27Z</time>
      </trkpt>
      <trkpt lat="40.456250" lon="-5.439500">
        <ele>1972.0</ele>
        <time>2015-07-25T14:05:28Z</time>
      </trkpt>
      <trkpt lat="40.456267" lon="-5.439633">
        <ele>1973.0</ele>
        <time>2015-07-25T14:05:29Z</time>
      </trkpt>
      <trkpt lat="40.456283" lon="-5.439750">
        <ele>1974.0</ele>
        <time>2015-07-25T14:05:30Z</time>
      </trkpt>
      <trkpt lat="40.456300" lon="-5.439883">
        <ele>1975.0</ele>
        <time>2015-07-25T14:05:31Z</time>
      </trkpt>
      <trkpt lat="40.456317" lon="-5.439983">
        <ele>1975.0</ele>
        <time>2015-07-25T14:05:32Z</time>
      </trkpt>
      <trkpt lat="40.456350" lon="-5.440050">
        <ele>1974.0</ele>
        <time>2015-07-25T14:05:33Z</time>
      </trkpt>
      <trkpt lat="40.456383" lon="-5.440100">
        <ele>1971.0</ele>
        <time>2015-07-25T14:05:34Z</time>
      </trkpt>
      <trkpt lat="40.456433" lon="-5.440117">
        <ele>1968.0</ele>
        <time>2015-07-25T14:05:35Z</time>
      </trkpt>
      <trkpt lat="40.456500" lon="-5.440167">
        <ele>1967.0</ele>
        <time>2015-07-25T14:05:36Z</time>
      </trkpt>
      <trkpt lat="40.456567" lon="-5.440217">
        <ele>1966.0</ele>
        <time>2015-07-25T14:05:37Z</time>
      </trkpt>
      <trkpt lat="40.456633" lon="-5.440317">
        <ele>1966.0</ele>
        <time>2015-07-25T14:05:38Z</time>
      </trkpt>
      <trkpt lat="40.456683" lon="-5.440433">
        <ele>1968.0</ele>
        <time>2015-07-25T14:05:39Z</time>
      </trkpt>
      <trkpt lat="40.456700" lon="-5.440583">
        <ele>1969.0</ele>
        <time>2015-07-25T14:05:40Z</time>
      </trkpt>
      <trkpt lat="40.456700" lon="-5.440717">
        <ele>1970.0</ele>
        <time>2015-07-25T14:05:41Z</time>
      </trkpt>
      <trkpt lat="40.456717" lon="-5.440850">
        <ele>1971.0</ele>
        <time>2015-07-25T14:05:42Z</time>
      </trkpt>
      <trkpt lat="40.456717" lon="-5.440983">
        <ele>1971.0</ele>
        <time>2015-07-25T14:05:43Z</time>
      </trkpt>
      <trkpt lat="40.456750" lon="-5.441117">
        <ele>1970.0</ele>
        <time>2015-07-25T14:05:44Z</time>
      </trkpt>
      <trkpt lat="40.456767" lon="-5.441250">
        <ele>1969.0</ele>
        <time>2015-07-25T14:05:45Z</time>
      </trkpt>
      <trkpt lat="40.456800" lon="-5.441383">
        <ele>1968.0</ele>
        <time>2015-07-25T14:05:46Z</time>
      </trkpt>
      <trkpt lat="40.456850" lon="-5.441533">
        <ele>1967.0</ele>
        <time>2015-07-25T14:05:47Z</time>
      </trkpt>
      <trkpt lat="40.456883" lon="-5.441667">
        <ele>1967.0</ele>
        <time>2015-07-25T14:05:48Z</time>
      </trkpt>
      <trkpt lat="40.456917" lon="-5.441800">
        <ele>1968.0</ele>
        <time>2015-07-25T14:05:49Z</time>
      </trkpt>
      <trkpt lat="40.456933" lon="-5.441933">
        <ele>1969.0</ele>
        <time>2015-07-25T14:05:50Z</time>
      </trkpt>
      <trkpt lat="40.456967" lon="-5.442067">
        <ele>1968.0</ele>
        <time>2015-07-25T14:05:51Z</time>
      </trkpt>
      <trkpt lat="40.457000" lon="-5.442200">
        <ele>1968.0</ele>
        <time>2015-07-25T14:05:52Z</time>
      </trkpt>
      <trkpt lat="40.457050" lon="-5.442333">
        <ele>1967.0</ele>
        <time>2015-07-25T14:05:53Z</time>
      </trkpt>
      <trkpt lat="40.457100" lon="-5.442467">
        <ele>1966.0</ele>
        <time>2015-07-25T14:05:54Z</time>
      </trkpt>
      <trkpt lat="40.457150" lon="-5.442600">
        <ele>1966.0</ele>
        <time>2015-07-25T14:05:55Z</time>
      </trkpt>
      <trkpt lat="40.457200" lon="-5.442733">
        <ele>1966.0</ele>
        <time>2015-07-25T14:05:56Z</time>
      </trkpt>
      <trkpt lat="40.457233" lon="-5.442850">
        <ele>1966.0</ele>
        <time>2015-07-25T14:05:57Z</time>
      </trkpt>
      <trkpt lat="40.457267" lon="-5.442983">
        <ele>1966.0</ele>
        <time>2015-07-25T14:05:58Z</time>
      </trkpt>
      <trkpt lat="40.457283" lon="-5.443100">
        <ele>1965.0</ele>
        <time>2015-07-25T14:05:59Z</time>
      </trkpt>
      <trkpt lat="40.457317" lon="-5.443217">
        <ele>1962.0</ele>
        <time>2015-07-25T14:06:00Z</time>
      </trkpt>
      <trkpt lat="40.457333" lon="-5.443350">
        <ele>1959.0</ele>
        <time>2015-07-25T14:06:01Z</time>
      </trkpt>
      <trkpt lat="40.457367" lon="-5.443483">
        <ele>1957.0</ele>
        <time>2015-07-25T14:06:02Z</time>
      </trkpt>
      <trkpt lat="40.457400" lon="-5.443633">
        <ele>1955.0</ele>
        <time>2015-07-25T14:06:03Z</time>
      </trkpt>
      <trkpt lat="40.457433" lon="-5.443767">
        <ele>1954.0</ele>
        <time>2015-07-25T14:06:04Z</time>
      </trkpt>
      <trkpt lat="40.457467" lon="-5.443883">
        <ele>1953.0</ele>
        <time>2015-07-25T14:06:05Z</time>
      </trkpt>
      <trkpt lat="40.457483" lon="-5.443983">
        <ele>1950.0</ele>
        <time>2015-07-25T14:06:06Z</time>
      </trkpt>
      <trkpt lat="40.457517" lon="-5.444100">
        <ele>1947.0</ele>
        <time>2015-07-25T14:06:07Z</time>
      </trkpt>
      <trkpt lat="40.457550" lon="-5.444233">
        <ele>1944.0</ele>
        <time>2015-07-25T14:06:08Z</time>
      </trkpt>
      <trkpt lat="40.457600" lon="-5.444367">
        <ele>1942.0</ele>
        <time>2015-07-25T14:06:09Z</time>
      </trkpt>
      <trkpt lat="40.457650" lon="-5.444483">
        <ele>1940.0</ele>
        <time>2015-07-25T14:06:10Z</time>
      </trkpt>
      <trkpt lat="40.457700" lon="-5.444617">
        <ele>1939.0</ele>
        <time>2015-07-25T14:06:11Z</time>
      </trkpt>
      <trkpt lat="40.457733" lon="-5.444750">
        <ele>1937.0</ele>
        <time>2015-07-25T14:06:12Z</time>
      </trkpt>
      <trkpt lat="40.457750" lon="-5.444850">
        <ele>1934.0</ele>
        <time>2015-07-25T14:06:13Z</time>
      </trkpt>
      <trkpt lat="40.457783" lon="-5.444967">
        <ele>1930.0</ele>
        <time>2015-07-25T14:06:14Z</time>
      </trkpt>
      <trkpt lat="40.457833" lon="-5.445083">
        <ele>1926.0</ele>
        <time>2015-07-25T14:06:15Z</time>
      </trkpt>
      <trkpt lat="40.457883" lon="-5.445217">
        <ele>1923.0</ele>
        <time>2015-07-25T14:06:16Z</time>
      </trkpt>
      <trkpt lat="40.457933" lon="-5.445333">
        <ele>1921.0</ele>
        <time>2015-07-25T14:06:17Z</time>
      </trkpt>
      <trkpt lat="40.457983" lon="-5.445467">
        <ele>1920.0</ele>
        <time>2015-07-25T14:06:18Z</time>
      </trkpt>
      <trkpt lat="40.458017" lon="-5.445567">
        <ele>1919.0</ele>
        <time>2015-07-25T14:06:19Z</time>
      </trkpt>
      <trkpt lat="40.458050" lon="-5.445667">
        <ele>1918.0</ele>
        <time>2015-07-25T14:06:20Z</time>
      </trkpt>
      <trkpt lat="40.458083" lon="-5.445750">
        <ele>1916.0</ele>
        <time>2015-07-25T14:06:21Z</time>
      </trkpt>
      <trkpt lat="40.458117" lon="-5.445833">
        <ele>1913.0</ele>
        <time>2015-07-25T14:06:22Z</time>
      </trkpt>
      <trkpt lat="40.458133" lon="-5.445917">
        <ele>1909.0</ele>
        <time>2015-07-25T14:06:23Z</time>
      </trkpt>
      <trkpt lat="40.458167" lon="-5.446017">
        <ele>1905.0</ele>
        <time>2015-07-25T14:06:24Z</time>
      </trkpt>
      <trkpt lat="40.458183" lon="-5.446133">
        <ele>1901.0</ele>
        <time>2015-07-25T14:06:25Z</time>
      </trkpt>
      <trkpt lat="40.458217" lon="-5.446233">
        <ele>1897.0</ele>
        <time>2015-07-25T14:06:26Z</time>
      </trkpt>
      <trkpt lat="40.458250" lon="-5.446333">
        <ele>1894.0</ele>
        <time>2015-07-25T14:06:27Z</time>
      </trkpt>
      <trkpt lat="40.458300" lon="-5.446433">
        <ele>1892.0</ele>
        <time>2015-07-25T14:06:28Z</time>
      </trkpt>
      <trkpt lat="40.458333" lon="-5.446500">
        <ele>1889.0</ele>
        <time>2015-07-25T14:06:29Z</time>
      </trkpt>
      <trkpt lat="40.458383" lon="-5.446583">
        <ele>1886.0</ele>
        <time>2015-07-25T14:06:30Z</time>
      </trkpt>
      <trkpt lat="40.458417" lon="-5.446667">
        <ele>1883.0</ele>
        <time>2015-07-25T14:06:31Z</time>
      </trkpt>
      <trkpt lat="40.458467" lon="-5.446750">
        <ele>1879.0</ele>
        <time>2015-07-25T14:06:32Z</time>
      </trkpt>
      <trkpt lat="40.458517" lon="-5.446833">
        <ele>1875.0</ele>
        <time>2015-07-25T14:06:33Z</time>
      </trkpt>
      <trkpt lat="40.458583" lon="-5.446900">
        <ele>1871.0</ele>
        <time>2015-07-25T14:06:34Z</time>
      </trkpt>
      <trkpt lat="40.458650" lon="-5.446983">
        <ele>1868.0</ele>
        <time>2015-07-25T14:06:35Z</time>
      </trkpt>
      <trkpt lat="40.458700" lon="-5.447067">
        <ele>1866.0</ele>
        <time>2015-07-25T14:06:36Z</time>
      </trkpt>
      <trkpt lat="40.458733" lon="-5.447167">
        <ele>1862.0</ele>
        <time>2015-07-25T14:06:37Z</time>
      </trkpt>
      <trkpt lat="40.458767" lon="-5.447283">
        <ele>1860.0</ele>
        <time>2015-07-25T14:06:38Z</time>
      </trkpt>
      <trkpt lat="40.458817" lon="-5.447383">
        <ele>1857.0</ele>
        <time>2015-07-25T14:06:39Z</time>
      </trkpt>
      <trkpt lat="40.458883" lon="-5.447467">
        <ele>1856.0</ele>
        <time>2015-07-25T14:06:40Z</time>
      </trkpt>
      <trkpt lat="40.458933" lon="-5.447533">
        <ele>1854.0</ele>
        <time>2015-07-25T14:06:41Z</time>
      </trkpt>
      <trkpt lat="40.458983" lon="-5.447617">
        <ele>1853.0</ele>
        <time>2015-07-25T14:06:42Z</time>
      </trkpt>
      <trkpt lat="40.459017" lon="-5.447683">
        <ele>1851.0</ele>
        <time>2015-07-25T14:06:43Z</time>
      </trkpt>
      <trkpt lat="40.459067" lon="-5.447767">
        <ele>1849.0</ele>
        <time>2015-07-25T14:06:44Z</time>
      </trkpt>
      <trkpt lat="40.459117" lon="-5.447850">
        <ele>1846.0</ele>
        <time>2015-07-25T14:06:45Z</time>
      </trkpt>
      <trkpt lat="40.459183" lon="-5.447917">
        <ele>1843.0</ele>
        <time>2015-07-25T14:06:46Z</time>
      </trkpt>
      <trkpt lat="40.459233" lon="-5.448017">
        <ele>1840.0</ele>
        <time>2015-07-25T14:06:47Z</time>
      </trkpt>
      <trkpt lat="40.459283" lon="-5.448117">
        <ele>1838.0</ele>
        <time>2015-07-25T14:06:48Z</time>
      </trkpt>
      <trkpt lat="40.459317" lon="-5.448217">
        <ele>1835.0</ele>
        <time>2015-07-25T14:06:49Z</time>
      </trkpt>
      <trkpt lat="40.459350" lon="-5.448333">
        <ele>1832.0</ele>
        <time>2015-07-25T14:06:50Z</time>
      </trkpt>
      <trkpt lat="40.459383" lon="-5.448450">
        <ele>1829.0</ele>
        <time>2015-07-25T14:06:51Z</time>
      </trkpt>
      <trkpt lat="40.459433" lon="-5.448567">
        <ele>1826.0</ele>
        <time>2015-07-25T14:06:52Z</time>
      </trkpt>
      <trkpt lat="40.459483" lon="-5.448667">
        <ele>1824.0</ele>
        <time>2015-07-25T14:06:53Z</time>
      </trkpt>
      <trkpt lat="40.459533" lon="-5.448783">
        <ele>1822.0</ele>
        <time>2015-07-25T14:06:54Z</time>
      </trkpt>
      <trkpt lat="40.459583" lon="-5.448900">
        <ele>1821.0</ele>
        <time>2015-07-25T14:06:55Z</time>
      </trkpt>
      <trkpt lat="40.459633" lon="-5.449000">
        <ele>1819.0</ele>
        <time>2015-07-25T14:06:56Z</time>
      </trkpt>
      <trkpt lat="40.459683" lon="-5.449083">
        <ele>1817.0</ele>
        <time>2015-07-25T14:06:57Z</time>
      </trkpt>
      <trkpt lat="40.459733" lon="-5.449167">
        <ele>1815.0</ele>
        <time>2015-07-25T14:06:58Z</time>
      </trkpt>
      <trkpt lat="40.459783" lon="-5.449267">
        <ele>1813.0</ele>
        <time>2015-07-25T14:06:59Z</time>
      </trkpt>
      <trkpt lat="40.459833" lon="-5.449350">
        <ele>1812.0</ele>
        <time>2015-07-25T14:07:00Z</time>
      </trkpt>
      <trkpt lat="40.459900" lon="-5.449450">
        <ele>1811.0</ele>
        <time>2015-07-25T14:07:01Z</time>
      </trkpt>
      <trkpt lat="40.459950" lon="-5.449533">
        <ele>1811.0</ele>
        <time>2015-07-25T14:07:02Z</time>
      </trkpt>
      <trkpt lat="40.460000" lon="-5.449600">
        <ele>1811.0</ele>
        <time>2015-07-25T14:07:03Z</time>
      </trkpt>
      <trkpt lat="40.460050" lon="-5.449667">
        <ele>1810.0</ele>
        <time>2015-07-25T14:07:04Z</time>
      </trkpt>
      <trkpt lat="40.460100" lon="-5.449733">
        <ele>1807.0</ele>
        <time>2015-07-25T14:07:05Z</time>
      </trkpt>
      <trkpt lat="40.460150" lon="-5.449817">
        <ele>1805.0</ele>
        <time>2015-07-25T14:07:06Z</time>
      </trkpt>
      <trkpt lat="40.460217" lon="-5.449900">
        <ele>1804.0</ele>
        <time>2015-07-25T14:07:07Z</time>
      </trkpt>
      <trkpt lat="40.460267" lon="-5.450000">
        <ele>1802.0</ele>
        <time>2015-07-25T14:07:08Z</time>
      </trkpt>
      <trkpt lat="40.460300" lon="-5.450083">
        <ele>1801.0</ele>
        <time>2015-07-25T14:07:09Z</time>
      </trkpt>
      <trkpt lat="40.460350" lon="-5.450167">
        <ele>1800.0</ele>
        <time>2015-07-25T14:07:10Z</time>
      </trkpt>
      <trkpt lat="40.460417" lon="-5.450250">
        <ele>1799.0</ele>
        <time>2015-07-25T14:07:11Z</time>
      </trkpt>
      <trkpt lat="40.460467" lon="-5.450333">
        <ele>1798.0</ele>
        <time>2015-07-25T14:07:12Z</time>
      </trkpt>
      <trkpt lat="40.460533" lon="-5.450433">
        <ele>1797.0</ele>
        <time>2015-07-25T14:07:13Z</time>
      </trkpt>
      <trkpt lat="40.460583" lon="-5.450550">
        <ele>1796.0</ele>
        <time>2015-07-25T14:07:14Z</time>
      </trkpt>
      <trkpt lat="40.460633" lon="-5.450650">
        <ele>1796.0</ele>
        <time>2015-07-25T14:07:15Z</time>
      </trkpt>
      <trkpt lat="40.460683" lon="-5.450733">
        <ele>1797.0</ele>
        <time>2015-07-25T14:07:16Z</time>
      </trkpt>
      <trkpt lat="40.460750" lon="-5.450817">
        <ele>1798.0</ele>
        <time>2015-07-25T14:07:17Z</time>
      </trkpt>
      <trkpt lat="40.460800" lon="-5.450883">
        <ele>1799.0</ele>
        <time>2015-07-25T14:07:18Z</time>
      </trkpt>
      <trkpt lat="40.460833" lon="-5.450967">
        <ele>1800.0</ele>
        <time>2015-07-25T14:07:19Z</time>
      </trkpt>
      <trkpt lat="40.460867" lon="-5.451050">
        <ele>1801.0</ele>
        <time>2015-07-25T14:07:20Z</time>
      </trkpt>
      <trkpt lat="40.460900" lon="-5.451117">
        <ele>1801.0</ele>
        <time>2015-07-25T14:07:21Z</time>
      </trkpt>
      <trkpt lat="40.460933" lon="-5.451183">
        <ele>1801.0</ele>
        <time>2015-07-25T14:07:22Z</time>
      </trkpt>
      <trkpt lat="40.460933" lon="-5.451250">
        <ele>1802.0</ele>
        <time>2015-07-25T14:07:23Z</time>
      </trkpt>
      <trkpt lat="40.460933" lon="-5.451333">
        <ele>1801.0</ele>
        <time>2015-07-25T14:07:24Z</time>
      </trkpt>
      <trkpt lat="40.460883" lon="-5.451433">
        <ele>1799.0</ele>
        <time>2015-07-25T14:07:25Z</time>
      </trkpt>
      <trkpt lat="40.460833" lon="-5.451533">
        <ele>1799.0</ele>
        <time>2015-07-25T14:07:26Z</time>
      </trkpt>
      <trkpt lat="40.460800" lon="-5.451650">
        <ele>1800.0</ele>
        <time>2015-07-25T14:07:27Z</time>
      </trkpt>
      <trkpt lat="40.460783" lon="-5.451750">
        <ele>1800.0</ele>
        <time>2015-07-25T14:07:28Z</time>
      </trkpt>
      <trkpt lat="40.460783" lon="-5.451850">
        <ele>1799.0</ele>
        <time>2015-07-25T14:07:29Z</time>
      </trkpt>
      <trkpt lat="40.460783" lon="-5.451950">
        <ele>1798.0</ele>
        <time>2015-07-25T14:07:30Z</time>
      </trkpt>
      <trkpt lat="40.460783" lon="-5.452050">
        <ele>1797.0</ele>
        <time>2015-07-25T14:07:31Z</time>
      </trkpt>
      <trkpt lat="40.460800" lon="-5.452150">
        <ele>1797.0</ele>
        <time>2015-07-25T14:07:32Z</time>
      </trkpt>
      <trkpt lat="40.460817" lon="-5.452233">
        <ele>1797.0</ele>
        <time>2015-07-25T14:07:33Z</time>
      </trkpt>
      <trkpt lat="40.460850" lon="-5.452317">
        <ele>1797.0</ele>
        <time>2015-07-25T14:07:34Z</time>
      </trkpt>
      <trkpt lat="40.460900" lon="-5.452383">
        <ele>1798.0</ele>
        <time>2015-07-25T14:07:35Z</time>
      </trkpt>
      <trkpt lat="40.460933" lon="-5.452450">
        <ele>1799.0</ele>
        <time>2015-07-25T14:07:36Z</time>
      </trkpt>
      <trkpt lat="40.460967" lon="-5.452533">
        <ele>1800.0</ele>
        <time>2015-07-25T14:07:37Z</time>
      </trkpt>
      <trkpt lat="40.461000" lon="-5.452600">
        <ele>1801.0</ele>
        <time>2015-07-25T14:07:38Z</time>
      </trkpt>
      <trkpt lat="40.461033" lon="-5.452633">
        <ele>1802.0</ele>
        <time>2015-07-25T14:07:39Z</time>
      </trkpt>
      <trkpt lat="40.461083" lon="-5.452667">
        <ele>1802.0</ele>
        <time>2015-07-25T14:07:40Z</time>
      </trkpt>
      <trkpt lat="40.461133" lon="-5.452700">
        <ele>1802.0</ele>
        <time>2015-07-25T14:07:41Z</time>
      </trkpt>
      <trkpt lat="40.461183" lon="-5.452750">
        <ele>1802.0</ele>
        <time>2015-07-25T14:07:42Z</time>
      </trkpt>
      <trkpt lat="40.461200" lon="-5.452817">
        <ele>1801.0</ele>
        <time>2015-07-25T14:07:43Z</time>
      </trkpt>
      <trkpt lat="40.461217" lon="-5.452883">
        <ele>1800.0</ele>
        <time>2015-07-25T14:07:44Z</time>
      </trkpt>
      <trkpt lat="40.461250" lon="-5.452950">
        <ele>1800.0</ele>
        <time>2015-07-25T14:07:45Z</time>
      </trkpt>
      <trkpt lat="40.461267" lon="-5.453017">
        <ele>1799.0</ele>
        <time>2015-07-25T14:07:46Z</time>
      </trkpt>
      <trkpt lat="40.461300" lon="-5.453100">
        <ele>1798.0</ele>
        <time>2015-07-25T14:07:47Z</time>
      </trkpt>
      <trkpt lat="40.461333" lon="-5.453167">
        <ele>1796.0</ele>
        <time>2015-07-25T14:07:48Z</time>
      </trkpt>
      <trkpt lat="40.461367" lon="-5.453250">
        <ele>1795.0</ele>
        <time>2015-07-25T14:07:49Z</time>
      </trkpt>
      <trkpt lat="40.461417" lon="-5.453317">
        <ele>1794.0</ele>
        <time>2015-07-25T14:07:50Z</time>
      </trkpt>
      <trkpt lat="40.461467" lon="-5.453367">
        <ele>1793.0</ele>
        <time>2015-07-25T14:07:51Z</time>
      </trkpt>
      <trkpt lat="40.461517" lon="-5.453417">
        <ele>1793.0</ele>
        <time>2015-07-25T14:07:52Z</time>
      </trkpt>
      <trkpt lat="40.461550" lon="-5.453467">
        <ele>1793.0</ele>
        <time>2015-07-25T14:07:53Z</time>
      </trkpt>
      <trkpt lat="40.461583" lon="-5.453533">
        <ele>1793.0</ele>
        <time>2015-07-25T14:07:54Z</time>
      </trkpt>
      <trkpt lat="40.461617" lon="-5.453583">
        <ele>1791.0</ele>
        <time>2015-07-25T14:07:55Z</time>
      </trkpt>
      <trkpt lat="40.461650" lon="-5.453633">
        <ele>1789.0</ele>
        <time>2015-07-25T14:07:56Z</time>
      </trkpt>
      <trkpt lat="40.461700" lon="-5.453717">
        <ele>1786.0</ele>
        <time>2015-07-25T14:07:57Z</time>
      </trkpt>
      <trkpt lat="40.461750" lon="-5.453817">
        <ele>1784.0</ele>
        <time>2015-07-25T14:07:58Z</time>
      </trkpt>
      <trkpt lat="40.461817" lon="-5.453917">
        <ele>1782.0</ele>
        <time>2015-07-25T14:07:59Z</time>
      </trkpt>
      <trkpt lat="40.461867" lon="-5.454017">
        <ele>1782.0</ele>
        <time>2015-07-25T14:08:00Z</time>
      </trkpt>
      <trkpt lat="40.461917" lon="-5.454100">
        <ele>1783.0</ele>
        <time>2015-07-25T14:08:01Z</time>
      </trkpt>
      <trkpt lat="40.461967" lon="-5.454200">
        <ele>1783.0</ele>
        <time>2015-07-25T14:08:02Z</time>
      </trkpt>
      <trkpt lat="40.462017" lon="-5.454283">
        <ele>1783.0</ele>
        <time>2015-07-25T14:08:03Z</time>
      </trkpt>
      <trkpt lat="40.462050" lon="-5.454383">
        <ele>1782.0</ele>
        <time>2015-07-25T14:08:04Z</time>
      </trkpt>
      <trkpt lat="40.462100" lon="-5.454483">
        <ele>1781.0</ele>
        <time>2015-07-25T14:08:05Z</time>
      </trkpt>
      <trkpt lat="40.462167" lon="-5.454583">
        <ele>1781.0</ele>
        <time>2015-07-25T14:08:06Z</time>
      </trkpt>
      <trkpt lat="40.462200" lon="-5.454683">
        <ele>1781.0</ele>
        <time>2015-07-25T14:08:07Z</time>
      </trkpt>
      <trkpt lat="40.462250" lon="-5.454767">
        <ele>1780.0</ele>
        <time>2015-07-25T14:08:08Z</time>
      </trkpt>
      <trkpt lat="40.462283" lon="-5.454850">
        <ele>1779.0</ele>
        <time>2015-07-25T14:08:09Z</time>
      </trkpt>
      <trkpt lat="40.462333" lon="-5.454950">
        <ele>1777.0</ele>
        <time>2015-07-25T14:08:10Z</time>
      </trkpt>
      <trkpt lat="40.462367" lon="-5.455050">
        <ele>1775.0</ele>
        <time>2015-07-25T14:08:11Z</time>
      </trkpt>
      <trkpt lat="40.462417" lon="-5.455150">
        <ele>1774.0</ele>
        <time>2015-07-25T14:08:12Z</time>
      </trkpt>
      <trkpt lat="40.462467" lon="-5.455250">
        <ele>1773.0</ele>
        <time>2015-07-25T14:08:13Z</time>
      </trkpt>
      <trkpt lat="40.462517" lon="-5.455350">
        <ele>1773.0</ele>
        <time>2015-07-25T14:08:14Z</time>
      </trkpt>
      <trkpt lat="40.462567" lon="-5.455433">
        <ele>1772.0</ele>
        <time>2015-07-25T14:08:15Z</time>
      </trkpt>
      <trkpt lat="40.462617" lon="-5.455533">
        <ele>1771.0</ele>
        <time>2015-07-25T14:08:16Z</time>
      </trkpt>
      <trkpt lat="40.462683" lon="-5.455633">
        <ele>1770.0</ele>
        <time>2015-07-25T14:08:17Z</time>
      </trkpt>
      <trkpt lat="40.462733" lon="-5.455733">
        <ele>1768.0</ele>
        <time>2015-07-25T14:08:18Z</time>
      </trkpt>
      <trkpt lat="40.462800" lon="-5.455833">
        <ele>1766.0</ele>
        <time>2015-07-25T14:08:19Z</time>
      </trkpt>
      <trkpt lat="40.462867" lon="-5.455950">
        <ele>1765.0</ele>
        <time>2015-07-25T14:08:20Z</time>
      </trkpt>
      <trkpt lat="40.462933" lon="-5.456067">
        <ele>1763.0</ele>
        <time>2015-07-25T14:08:21Z</time>
      </trkpt>
      <trkpt lat="40.462983" lon="-5.456183">
        <ele>1761.0</ele>
        <time>2015-07-25T14:08:22Z</time>
      </trkpt>
      <trkpt lat="40.463033" lon="-5.456283">
        <ele>1760.0</ele>
        <time>2015-07-25T14:08:23Z</time>
      </trkpt>
      <trkpt lat="40.463083" lon="-5.456400">
        <ele>1757.0</ele>
        <time>2015-07-25T14:08:24Z</time>
      </trkpt>
      <trkpt lat="40.463117" lon="-5.456517">
        <ele>1754.0</ele>
        <time>2015-07-25T14:08:25Z</time>
      </trkpt>
      <trkpt lat="40.463133" lon="-5.456650">
        <ele>1751.0</ele>
        <time>2015-07-25T14:08:26Z</time>
      </trkpt>
      <trkpt lat="40.463183" lon="-5.456767">
        <ele>1747.0</ele>
        <time>2015-07-25T14:08:27Z</time>
      </trkpt>
      <trkpt lat="40.463233" lon="-5.456850">
        <ele>1744.0</ele>
        <time>2015-07-25T14:08:28Z</time>
      </trkpt>
      <trkpt lat="40.463283" lon="-5.456950">
        <ele>1740.0</ele>
        <time>2015-07-25T14:08:29Z</time>
      </trkpt>
      <trkpt lat="40.463350" lon="-5.457033">
        <ele>1737.0</ele>
        <time>2015-07-25T14:08:30Z</time>
      </trkpt>
      <trkpt lat="40.463417" lon="-5.457100">
        <ele>1734.0</ele>
        <time>2015-07-25T14:08:31Z</time>
      </trkpt>
      <trkpt lat="40.463483" lon="-5.457167">
        <ele>1731.0</ele>
        <time>2015-07-25T14:08:32Z</time>
      </trkpt>
      <trkpt lat="40.463550" lon="-5.457217">
        <ele>1729.0</ele>
        <time>2015-07-25T14:08:33Z</time>
      </trkpt>
      <trkpt lat="40.463600" lon="-5.457300">
        <ele>1726.0</ele>
        <time>2015-07-25T14:08:34Z</time>
      </trkpt>
      <trkpt lat="40.463650" lon="-5.457383">
        <ele>1723.0</ele>
        <time>2015-07-25T14:08:35Z</time>
      </trkpt>
      <trkpt lat="40.463717" lon="-5.457483">
        <ele>1721.0</ele>
        <time>2015-07-25T14:08:36Z</time>
      </trkpt>
      <trkpt lat="40.463783" lon="-5.457567">
        <ele>1720.0</ele>
        <time>2015-07-25T14:08:37Z</time>
      </trkpt>
      <trkpt lat="40.463833" lon="-5.457633">
        <ele>1718.0</ele>
        <time>2015-07-25T14:08:38Z</time>
      </trkpt>
      <trkpt lat="40.463900" lon="-5.457700">
        <ele>1716.0</ele>
        <time>2015-07-25T14:08:39Z</time>
      </trkpt>
      <trkpt lat="40.463950" lon="-5.457783">
        <ele>1714.0</ele>
        <time>2015-07-25T14:08:40Z</time>
      </trkpt>
      <trkpt lat="40.464033" lon="-5.457883">
        <ele>1712.0</ele>
        <time>2015-07-25T14:08:41Z</time>
      </trkpt>
      <trkpt lat="40.464100" lon="-5.457983">
        <ele>1712.0</ele>
        <time>2015-07-25T14:08:42Z</time>
      </trkpt>
      <trkpt lat="40.464167" lon="-5.458067">
        <ele>1712.0</ele>
        <time>2015-07-25T14:08:43Z</time>
      </trkpt>
      <trkpt lat="40.464217" lon="-5.458150">
        <ele>1713.0</ele>
        <time>2015-07-25T14:08:44Z</time>
      </trkpt>
      <trkpt lat="40.464267" lon="-5.458233">
        <ele>1713.0</ele>
        <time>2015-07-25T14:08:45Z</time>
      </trkpt>
      <trkpt lat="40.464333" lon="-5.458333">
        <ele>1712.0</ele>
        <time>2015-07-25T14:08:46Z</time>
      </trkpt>
      <trkpt lat="40.464383" lon="-5.458417">
        <ele>1710.0</ele>
        <time>2015-07-25T14:08:47Z</time>
      </trkpt>
      <trkpt lat="40.464450" lon="-5.458517">
        <ele>1710.0</ele>
        <time>2015-07-25T14:08:48Z</time>
      </trkpt>
      <trkpt lat="40.464500" lon="-5.458600">
        <ele>1710.0</ele>
        <time>2015-07-25T14:08:49Z</time>
      </trkpt>
      <trkpt lat="40.464567" lon="-5.458667">
        <ele>1709.0</ele>
        <time>2015-07-25T14:08:50Z</time>
      </trkpt>
      <trkpt lat="40.464617" lon="-5.458750">
        <ele>1708.0</ele>
        <time>2015-07-25T14:08:51Z</time>
      </trkpt>
      <trkpt lat="40.464650" lon="-5.458833">
        <ele>1707.0</ele>
        <time>2015-07-25T14:08:52Z</time>
      </trkpt>
      <trkpt lat="40.464700" lon="-5.458933">
        <ele>1705.0</ele>
        <time>2015-07-25T14:08:53Z</time>
      </trkpt>
      <trkpt lat="40.464750" lon="-5.459050">
        <ele>1704.0</ele>
        <time>2015-07-25T14:08:54Z</time>
      </trkpt>
      <trkpt lat="40.464783" lon="-5.459150">
        <ele>1704.0</ele>
        <time>2015-07-25T14:08:55Z</time>
      </trkpt>
      <trkpt lat="40.464817" lon="-5.459233">
        <ele>1705.0</ele>
        <time>2015-07-25T14:08:56Z</time>
      </trkpt>
      <trkpt lat="40.464833" lon="-5.459317">
        <ele>1705.0</ele>
        <time>2015-07-25T14:08:57Z</time>
      </trkpt>
      <trkpt lat="40.464850" lon="-5.459400">
        <ele>1703.0</ele>
        <time>2015-07-25T14:08:58Z</time>
      </trkpt>
      <trkpt lat="40.464883" lon="-5.459483">
        <ele>1700.0</ele>
        <time>2015-07-25T14:08:59Z</time>
      </trkpt>
      <trkpt lat="40.464900" lon="-5.459567">
        <ele>1697.0</ele>
        <time>2015-07-25T14:09:00Z</time>
      </trkpt>
      <trkpt lat="40.464933" lon="-5.459650">
        <ele>1694.0</ele>
        <time>2015-07-25T14:09:01Z</time>
      </trkpt>
      <trkpt lat="40.464967" lon="-5.459750">
        <ele>1690.0</ele>
        <time>2015-07-25T14:09:02Z</time>
      </trkpt>
      <trkpt lat="40.465017" lon="-5.459833">
        <ele>1687.0</ele>
        <time>2015-07-25T14:09:03Z</time>
      </trkpt>
      <trkpt lat="40.465067" lon="-5.459917">
        <ele>1684.0</ele>
        <time>2015-07-25T14:09:04Z</time>
      </trkpt>
      <trkpt lat="40.465117" lon="-5.460000">
        <ele>1684.0</ele>
        <time>2015-07-25T14:09:05Z</time>
      </trkpt>
      <trkpt lat="40.465150" lon="-5.460067">
        <ele>1683.0</ele>
        <time>2015-07-25T14:09:06Z</time>
      </trkpt>
      <trkpt lat="40.465183" lon="-5.460133">
        <ele>1683.0</ele>
        <time>2015-07-25T14:09:07Z</time>
      </trkpt>
      <trkpt lat="40.465217" lon="-5.460200">
        <ele>1681.0</ele>
        <time>2015-07-25T14:09:08Z</time>
      </trkpt>
      <trkpt lat="40.465267" lon="-5.460267">
        <ele>1679.0</ele>
        <time>2015-07-25T14:09:09Z</time>
      </trkpt>
      <trkpt lat="40.465317" lon="-5.460350">
        <ele>1677.0</ele>
        <time>2015-07-25T14:09:10Z</time>
      </trkpt>
      <trkpt lat="40.465367" lon="-5.460417">
        <ele>1675.0</ele>
        <time>2015-07-25T14:09:11Z</time>
      </trkpt>
      <trkpt lat="40.465417" lon="-5.460500">
        <ele>1673.0</ele>
        <time>2015-07-25T14:09:12Z</time>
      </trkpt>
      <trkpt lat="40.465467" lon="-5.460583">
        <ele>1672.0</ele>
        <time>2015-07-25T14:09:13Z</time>
      </trkpt>
      <trkpt lat="40.465500" lon="-5.460650">
        <ele>1671.0</ele>
        <time>2015-07-25T14:09:14Z</time>
      </trkpt>
      <trkpt lat="40.465533" lon="-5.460733">
        <ele>1670.0</ele>
        <time>2015-07-25T14:09:15Z</time>
      </trkpt>
      <trkpt lat="40.465567" lon="-5.460817">
        <ele>1669.0</ele>
        <time>2015-07-25T14:09:16Z</time>
      </trkpt>
      <trkpt lat="40.465583" lon="-5.460900">
        <ele>1667.0</ele>
        <time>2015-07-25T14:09:17Z</time>
      </trkpt>
      <trkpt lat="40.465617" lon="-5.460983">
        <ele>1664.0</ele>
        <time>2015-07-25T14:09:18Z</time>
      </trkpt>
      <trkpt lat="40.465650" lon="-5.461083">
        <ele>1661.0</ele>
        <time>2015-07-25T14:09:19Z</time>
      </trkpt>
      <trkpt lat="40.465700" lon="-5.461167">
        <ele>1658.0</ele>
        <time>2015-07-25T14:09:20Z</time>
      </trkpt>
      <trkpt lat="40.465750" lon="-5.461267">
        <ele>1656.0</ele>
        <time>2015-07-25T14:09:21Z</time>
      </trkpt>
      <trkpt lat="40.465817" lon="-5.461350">
        <ele>1653.0</ele>
        <time>2015-07-25T14:09:22Z</time>
      </trkpt>
      <trkpt lat="40.465883" lon="-5.461433">
        <ele>1650.0</ele>
        <time>2015-07-25T14:09:23Z</time>
      </trkpt>
      <trkpt lat="40.465950" lon="-5.461500">
        <ele>1647.0</ele>
        <time>2015-07-25T14:09:24Z</time>
      </trkpt>
      <trkpt lat="40.466033" lon="-5.461583">
        <ele>1644.0</ele>
        <time>2015-07-25T14:09:25Z</time>
      </trkpt>
      <trkpt lat="40.466100" lon="-5.461667">
        <ele>1644.0</ele>
        <time>2015-07-25T14:09:26Z</time>
      </trkpt>
      <trkpt lat="40.466150" lon="-5.461783">
        <ele>1644.0</ele>
        <time>2015-07-25T14:09:27Z</time>
      </trkpt>
      <trkpt lat="40.466183" lon="-5.461867">
        <ele>1644.0</ele>
        <time>2015-07-25T14:09:28Z</time>
      </trkpt>
      <trkpt lat="40.466217" lon="-5.461950">
        <ele>1643.0</ele>
        <time>2015-07-25T14:09:29Z</time>
      </trkpt>
      <trkpt lat="40.466267" lon="-5.462017">
        <ele>1643.0</ele>
        <time>2015-07-25T14:09:30Z</time>
      </trkpt>
      <trkpt lat="40.466300" lon="-5.462067">
        <ele>1642.0</ele>
        <time>2015-07-25T14:09:31Z</time>
      </trkpt>
      <trkpt lat="40.466317" lon="-5.462133">
        <ele>1640.0</ele>
        <time>2015-07-25T14:09:32Z</time>
      </trkpt>
      <trkpt lat="40.466333" lon="-5.462233">
        <ele>1638.0</ele>
        <time>2015-07-25T14:09:33Z</time>
      </trkpt>
      <trkpt lat="40.466350" lon="-5.462317">
        <ele>1637.0</ele>
        <time>2015-07-25T14:09:34Z</time>
      </trkpt>
      <trkpt lat="40.466367" lon="-5.462417">
        <ele>1635.0</ele>
        <time>2015-07-25T14:09:35Z</time>
      </trkpt>
      <trkpt lat="40.466417" lon="-5.462517">
        <ele>1633.0</ele>
        <time>2015-07-25T14:09:36Z</time>
      </trkpt>
      <trkpt lat="40.466450" lon="-5.462583">
        <ele>1633.0</ele>
        <time>2015-07-25T14:09:37Z</time>
      </trkpt>
      <trkpt lat="40.466483" lon="-5.462667">
        <ele>1633.0</ele>
        <time>2015-07-25T14:09:38Z</time>
      </trkpt>
      <trkpt lat="40.466517" lon="-5.462750">
        <ele>1633.0</ele>
        <time>2015-07-25T14:09:39Z</time>
      </trkpt>
      <trkpt lat="40.466517" lon="-5.462833">
        <ele>1632.0</ele>
        <time>2015-07-25T14:09:40Z</time>
      </trkpt>
      <trkpt lat="40.466533" lon="-5.462917">
        <ele>1630.0</ele>
        <time>2015-07-25T14:09:41Z</time>
      </trkpt>
      <trkpt lat="40.466550" lon="-5.463000">
        <ele>1628.0</ele>
        <time>2015-07-25T14:09:42Z</time>
      </trkpt>
      <trkpt lat="40.466583" lon="-5.463100">
        <ele>1626.0</ele>
        <time>2015-07-25T14:09:43Z</time>
      </trkpt>
      <trkpt lat="40.466617" lon="-5.463200">
        <ele>1625.0</ele>
        <time>2015-07-25T14:09:44Z</time>
      </trkpt>
      <trkpt lat="40.466633" lon="-5.463317">
        <ele>1626.0</ele>
        <time>2015-07-25T14:09:45Z</time>
      </trkpt>
      <trkpt lat="40.466650" lon="-5.463417">
        <ele>1628.0</ele>
        <time>2015-07-25T14:09:46Z</time>
      </trkpt>
      <trkpt lat="40.466667" lon="-5.463517">
        <ele>1629.0</ele>
        <time>2015-07-25T14:09:47Z</time>
      </trkpt>
      <trkpt lat="40.466683" lon="-5.463617">
        <ele>1630.0</ele>
        <time>2015-07-25T14:09:48Z</time>
      </trkpt>
      <trkpt lat="40.466700" lon="-5.463717">
        <ele>1629.0</ele>
        <time>2015-07-25T14:09:49Z</time>
      </trkpt>
      <trkpt lat="40.466717" lon="-5.463800">
        <ele>1627.0</ele>
        <time>2015-07-25T14:09:50Z</time>
      </trkpt>
      <trkpt lat="40.466717" lon="-5.463900">
        <ele>1624.0</ele>
        <time>2015-07-25T14:09:51Z</time>
      </trkpt>
      <trkpt lat="40.466733" lon="-5.464017">
        <ele>1621.0</ele>
        <time>2015-07-25T14:09:52Z</time>
      </trkpt>
      <trkpt lat="40.466767" lon="-5.464133">
        <ele>1617.0</ele>
        <time>2015-07-25T14:09:53Z</time>
      </trkpt>
      <trkpt lat="40.466817" lon="-5.464250">
        <ele>1612.0</ele>
        <time>2015-07-25T14:09:54Z</time>
      </trkpt>
      <trkpt lat="40.466883" lon="-5.464350">
        <ele>1609.0</ele>
        <time>2015-07-25T14:09:55Z</time>
      </trkpt>
      <trkpt lat="40.466933" lon="-5.464400">
        <ele>1608.0</ele>
        <time>2015-07-25T14:09:56Z</time>
      </trkpt>
      <trkpt lat="40.467000" lon="-5.464450">
        <ele>1606.0</ele>
        <time>2015-07-25T14:09:57Z</time>
      </trkpt>
      <trkpt lat="40.467050" lon="-5.464500">
        <ele>1604.0</ele>
        <time>2015-07-25T14:09:58Z</time>
      </trkpt>
      <trkpt lat="40.467083" lon="-5.464567">
        <ele>1600.0</ele>
        <time>2015-07-25T14:09:59Z</time>
      </trkpt>
      <trkpt lat="40.467133" lon="-5.464633">
        <ele>1596.0</ele>
        <time>2015-07-25T14:10:00Z</time>
      </trkpt>
      <trkpt lat="40.467183" lon="-5.464717">
        <ele>1592.0</ele>
        <time>2015-07-25T14:10:01Z</time>
      </trkpt>
      <trkpt lat="40.467233" lon="-5.464817">
        <ele>1588.0</ele>
        <time>2015-07-25T14:10:02Z</time>
      </trkpt>
      <trkpt lat="40.467300" lon="-5.464883">
        <ele>1585.0</ele>
        <time>2015-07-25T14:10:03Z</time>
      </trkpt>
      <trkpt lat="40.467350" lon="-5.464950">
        <ele>1583.0</ele>
        <time>2015-07-25T14:10:04Z</time>
      </trkpt>
      <trkpt lat="40.467400" lon="-5.465017">
        <ele>1580.0</ele>
        <time>2015-07-25T14:10:05Z</time>
      </trkpt>
      <trkpt lat="40.467417" lon="-5.465083">
        <ele>1577.0</ele>
        <time>2015-07-25T14:10:06Z</time>
      </trkpt>
      <trkpt lat="40.467450" lon="-5.465167">
        <ele>1573.0</ele>
        <time>2015-07-25T14:10:07Z</time>
      </trkpt>
      <trkpt lat="40.467483" lon="-5.465250">
        <ele>1570.0</ele>
        <time>2015-07-25T14:10:08Z</time>
      </trkpt>
      <trkpt lat="40.467517" lon="-5.465333">
        <ele>1567.0</ele>
        <time>2015-07-25T14:10:09Z</time>
      </trkpt>
      <trkpt lat="40.467567" lon="-5.465417">
        <ele>1566.0</ele>
        <time>2015-07-25T14:10:10Z</time>
      </trkpt>
      <trkpt lat="40.467617" lon="-5.465500">
        <ele>1565.0</ele>
        <time>2015-07-25T14:10:11Z</time>
      </trkpt>
      <trkpt lat="40.467650" lon="-5.465583">
        <ele>1563.0</ele>
        <time>2015-07-25T14:10:12Z</time>
      </trkpt>
      <trkpt lat="40.467683" lon="-5.465667">
        <ele>1562.0</ele>
        <time>2015-07-25T14:10:13Z</time>
      </trkpt>
      <trkpt lat="40.467700" lon="-5.465733">
        <ele>1561.0</ele>
        <time>2015-07-25T14:10:14Z</time>
      </trkpt>
      <trkpt lat="40.467750" lon="-5.465800">
        <ele>1559.0</ele>
        <time>2015-07-25T14:10:15Z</time>
      </trkpt>
      <trkpt lat="40.467800" lon="-5.465867">
        <ele>1557.0</ele>
        <time>2015-07-25T14:10:16Z</time>
      </trkpt>
      <trkpt lat="40.467833" lon="-5.465933">
        <ele>1555.0</ele>
        <time>2015-07-25T14:10:17Z</time>
      </trkpt>
      <trkpt lat="40.467867" lon="-5.466000">
        <ele>1554.0</ele>
        <time>2015-07-25T14:10:18Z</time>
      </trkpt>
      <trkpt lat="40.467917" lon="-5.466067">
        <ele>1552.0</ele>
        <time>2015-07-25T14:10:19Z</time>
      </trkpt>
      <trkpt lat="40.467967" lon="-5.466133">
        <ele>1551.0</ele>
        <time>2015-07-25T14:10:20Z</time>
      </trkpt>
      <trkpt lat="40.468033" lon="-5.466217">
        <ele>1550.0</ele>
        <time>2015-07-25T14:10:21Z</time>
      </trkpt>
      <trkpt lat="40.468100" lon="-5.466300">
        <ele>1551.0</ele>
        <time>2015-07-25T14:10:22Z</time>
      </trkpt>
      <trkpt lat="40.468167" lon="-5.466350">
        <ele>1553.0</ele>
        <time>2015-07-25T14:10:23Z</time>
      </trkpt>
      <trkpt lat="40.468233" lon="-5.466400">
        <ele>1554.0</ele>
        <time>2015-07-25T14:10:24Z</time>
      </trkpt>
      <trkpt lat="40.468283" lon="-5.466450">
        <ele>1554.0</ele>
        <time>2015-07-25T14:10:25Z</time>
      </trkpt>
      <trkpt lat="40.468317" lon="-5.466517">
        <ele>1554.0</ele>
        <time>2015-07-25T14:10:26Z</time>
      </trkpt>
      <trkpt lat="40.468367" lon="-5.466567">
        <ele>1554.0</ele>
        <time>2015-07-25T14:10:27Z</time>
      </trkpt>
      <trkpt lat="40.468433" lon="-5.466600">
        <ele>1554.0</ele>
        <time>2015-07-25T14:10:28Z</time>
      </trkpt>
      <trkpt lat="40.468517" lon="-5.466600">
        <ele>1554.0</ele>
        <time>2015-07-25T14:10:29Z</time>
      </trkpt>
      <trkpt lat="40.468583" lon="-5.466567">
        <ele>1553.0</ele>
        <time>2015-07-25T14:10:30Z</time>
      </trkpt>
      <trkpt lat="40.468650" lon="-5.466467">
        <ele>1552.0</ele>
        <time>2015-07-25T14:10:31Z</time>
      </trkpt>
      <trkpt lat="40.468717" lon="-5.466367">
        <ele>1551.0</ele>
        <time>2015-07-25T14:10:32Z</time>
      </trkpt>
      <trkpt lat="40.468767" lon="-5.466267">
        <ele>1550.0</ele>
        <time>2015-07-25T14:10:33Z</time>
      </trkpt>
      <trkpt lat="40.468800" lon="-5.466133">
        <ele>1548.0</ele>
        <time>2015-07-25T14:10:34Z</time>
      </trkpt>
      <trkpt lat="40.468817" lon="-5.466000">
        <ele>1546.0</ele>
        <time>2015-07-25T14:10:35Z</time>
      </trkpt>
      <trkpt lat="40.468800" lon="-5.465833">
        <ele>1543.0</ele>
        <time>2015-07-25T14:10:36Z</time>
      </trkpt>
      <trkpt lat="40.468750" lon="-5.465683">
        <ele>1540.0</ele>
        <time>2015-07-25T14:10:37Z</time>
      </trkpt>
      <trkpt lat="40.468667" lon="-5.465517">
        <ele>1539.0</ele>
        <time>2015-07-25T14:10:38Z</time>
      </trkpt>
      <trkpt lat="40.468600" lon="-5.465450">
        <ele>1538.0</ele>
        <time>2015-07-25T14:10:39Z</time>
      </trkpt>
      <trkpt lat="40.468483" lon="-5.465400">
        <ele>1537.0</ele>
        <time>2015-07-25T14:10:40Z</time>
      </trkpt>
      <trkpt lat="40.468367" lon="-5.465383">
        <ele>1535.0</ele>
        <time>2015-07-25T14:10:41Z</time>
      </trkpt>
      <trkpt lat="40.468267" lon="-5.465433">
        <ele>1533.0</ele>
        <time>2015-07-25T14:10:42Z</time>
      </trkpt>
      <trkpt lat="40.468200" lon="-5.465517">
        <ele>1532.0</ele>
        <time>2015-07-25T14:10:43Z</time>
      </trkpt>
      <trkpt lat="40.468150" lon="-5.465633">
        <ele>1531.0</ele>
        <time>2015-07-25T14:10:44Z</time>
      </trkpt>
      <trkpt lat="40.468117" lon="-5.465750">
        <ele>1532.0</ele>
        <time>2015-07-25T14:10:45Z</time>
      </trkpt>
      <trkpt lat="40.468100" lon="-5.465850">
        <ele>1533.0</ele>
        <time>2015-07-25T14:10:46Z</time>
      </trkpt>
      <trkpt lat="40.468067" lon="-5.465933">
        <ele>1534.0</ele>
        <time>2015-07-25T14:10:47Z</time>
      </trkpt>
      <trkpt lat="40.468033" lon="-5.466017">
        <ele>1533.0</ele>
        <time>2015-07-25T14:10:48Z</time>
      </trkpt>
      <trkpt lat="40.467983" lon="-5.466100">
        <ele>1533.0</ele>
        <time>2015-07-25T14:10:49Z</time>
      </trkpt>
      <trkpt lat="40.467933" lon="-5.466167">
        <ele>1532.0</ele>
        <time>2015-07-25T14:10:50Z</time>
      </trkpt>
      <trkpt lat="40.467883" lon="-5.466250">
        <ele>1532.0</ele>
        <time>2015-07-25T14:10:51Z</time>
      </trkpt>
      <trkpt lat="40.467867" lon="-5.466350">
        <ele>1531.0</ele>
        <time>2015-07-25T14:10:52Z</time>
      </trkpt>
      <trkpt lat="40.467850" lon="-5.466450">
        <ele>1530.0</ele>
        <time>2015-07-25T14:10:53Z</time>
      </trkpt>
      <trkpt lat="40.467867" lon="-5.466550">
        <ele>1529.0</ele>
        <time>2015-07-25T14:10:54Z</time>
      </trkpt>
      <trkpt lat="40.467883" lon="-5.466633">
        <ele>1528.0</ele>
        <time>2015-07-25T14:10:55Z</time>
      </trkpt>
      <trkpt lat="40.467900" lon="-5.466717">
        <ele>1527.0</ele>
        <time>2015-07-25T14:10:56Z</time>
      </trkpt>
      <trkpt lat="40.467933" lon="-5.466783">
        <ele>1526.0</ele>
        <time>2015-07-25T14:10:57Z</time>
      </trkpt>
      <trkpt lat="40.467950" lon="-5.466867">
        <ele>1524.0</ele>
        <time>2015-07-25T14:10:58Z</time>
      </trkpt>
      <trkpt lat="40.467983" lon="-5.466950">
        <ele>1522.0</ele>
        <time>2015-07-25T14:10:59Z</time>
      </trkpt>
      <trkpt lat="40.468000" lon="-5.467033">
        <ele>1520.0</ele>
        <time>2015-07-25T14:11:00Z</time>
      </trkpt>
      <trkpt lat="40.468033" lon="-5.467133">
        <ele>1519.0</ele>
        <time>2015-07-25T14:11:01Z</time>
      </trkpt>
      <trkpt lat="40.468067" lon="-5.467217">
        <ele>1518.0</ele>
        <time>2015-07-25T14:11:02Z</time>
      </trkpt>
      <trkpt lat="40.468133" lon="-5.467300">
        <ele>1517.0</ele>
        <time>2015-07-25T14:11:03Z</time>
      </trkpt>
      <trkpt lat="40.468183" lon="-5.467383">
        <ele>1516.0</ele>
        <time>2015-07-25T14:11:04Z</time>
      </trkpt>
      <trkpt lat="40.468233" lon="-5.467450">
        <ele>1516.0</ele>
        <time>2015-07-25T14:11:05Z</time>
      </trkpt>
      <trkpt lat="40.468283" lon="-5.467533">
        <ele>1515.0</ele>
        <time>2015-07-25T14:11:06Z</time>
      </trkpt>
      <trkpt lat="40.468333" lon="-5.467617">
        <ele>1513.0</ele>
        <time>2015-07-25T14:11:07Z</time>
      </trkpt>
      <trkpt lat="40.468383" lon="-5.467700">
        <ele>1511.0</ele>
        <time>2015-07-25T14:11:08Z</time>
      </trkpt>
      <trkpt lat="40.468433" lon="-5.467800">
        <ele>1509.0</ele>
        <time>2015-07-25T14:11:09Z</time>
      </trkpt>
      <trkpt lat="40.468483" lon="-5.467883">
        <ele>1508.0</ele>
        <time>2015-07-25T14:11:10Z</time>
      </trkpt>
      <trkpt lat="40.468517" lon="-5.468000">
        <ele>1506.0</ele>
        <time>2015-07-25T14:11:11Z</time>
      </trkpt>
      <trkpt lat="40.468550" lon="-5.468100">
        <ele>1505.0</ele>
        <time>2015-07-25T14:11:12Z</time>
      </trkpt>
      <trkpt lat="40.468583" lon="-5.468200">
        <ele>1503.0</ele>
        <time>2015-07-25T14:11:13Z</time>
      </trkpt>
      <trkpt lat="40.468617" lon="-5.468317">
        <ele>1501.0</ele>
        <time>2015-07-25T14:11:14Z</time>
      </trkpt>
      <trkpt lat="40.468650" lon="-5.468433">
        <ele>1499.0</ele>
        <time>2015-07-25T14:11:15Z</time>
      </trkpt>
      <trkpt lat="40.468700" lon="-5.468550">
        <ele>1498.0</ele>
        <time>2015-07-25T14:11:16Z</time>
      </trkpt>
      <trkpt lat="40.468733" lon="-5.468683">
        <ele>1498.0</ele>
        <time>2015-07-25T14:11:17Z</time>
      </trkpt>
      <trkpt lat="40.468767" lon="-5.468800">
        <ele>1499.0</ele>
        <time>2015-07-25T14:11:18Z</time>
      </trkpt>
      <trkpt lat="40.468800" lon="-5.468917">
        <ele>1499.0</ele>
        <time>2015-07-25T14:11:19Z</time>
      </trkpt>
      <trkpt lat="40.468833" lon="-5.469033">
        <ele>1499.0</ele>
        <time>2015-07-25T14:11:20Z</time>
      </trkpt>
      <trkpt lat="40.468867" lon="-5.469167">
        <ele>1498.0</ele>
        <time>2015-07-25T14:11:21Z</time>
      </trkpt>
      <trkpt lat="40.468900" lon="-5.469300">
        <ele>1497.0</ele>
        <time>2015-07-25T14:11:22Z</time>
      </trkpt>
      <trkpt lat="40.468950" lon="-5.469433">
        <ele>1496.0</ele>
        <time>2015-07-25T14:11:23Z</time>
      </trkpt>
      <trkpt lat="40.468983" lon="-5.469567">
        <ele>1495.0</ele>
        <time>2015-07-25T14:11:24Z</time>
      </trkpt>
      <trkpt lat="40.469017" lon="-5.469717">
        <ele>1494.0</ele>
        <time>2015-07-25T14:11:25Z</time>
      </trkpt>
      <trkpt lat="40.469033" lon="-5.469883">
        <ele>1493.0</ele>
        <time>2015-07-25T14:11:26Z</time>
      </trkpt>
      <trkpt lat="40.469067" lon="-5.470067">
        <ele>1495.0</ele>
        <time>2015-07-25T14:11:27Z</time>
      </trkpt>
      <trkpt lat="40.469083" lon="-5.470200">
        <ele>1497.0</ele>
        <time>2015-07-25T14:11:28Z</time>
      </trkpt>
      <trkpt lat="40.469083" lon="-5.470333">
        <ele>1499.0</ele>
        <time>2015-07-25T14:11:29Z</time>
      </trkpt>
      <trkpt lat="40.469100" lon="-5.470450">
        <ele>1499.0</ele>
        <time>2015-07-25T14:11:30Z</time>
      </trkpt>
      <trkpt lat="40.469117" lon="-5.470583">
        <ele>1499.0</ele>
        <time>2015-07-25T14:11:31Z</time>
      </trkpt>
      <trkpt lat="40.469117" lon="-5.470717">
        <ele>1498.0</ele>
        <time>2015-07-25T14:11:32Z</time>
      </trkpt>
      <trkpt lat="40.469133" lon="-5.470850">
        <ele>1498.0</ele>
        <time>2015-07-25T14:11:33Z</time>
      </trkpt>
      <trkpt lat="40.469167" lon="-5.470967">
        <ele>1497.0</ele>
        <time>2015-07-25T14:11:34Z</time>
      </trkpt>
      <trkpt lat="40.469200" lon="-5.471083">
        <ele>1496.0</ele>
        <time>2015-07-25T14:11:35Z</time>
      </trkpt>
      <trkpt lat="40.469233" lon="-5.471183">
        <ele>1495.0</ele>
        <time>2015-07-25T14:11:36Z</time>
      </trkpt>
      <trkpt lat="40.469267" lon="-5.471317">
        <ele>1495.0</ele>
        <time>2015-07-25T14:11:37Z</time>
      </trkpt>
      <trkpt lat="40.469317" lon="-5.471433">
        <ele>1495.0</ele>
        <time>2015-07-25T14:11:38Z</time>
      </trkpt>
      <trkpt lat="40.469350" lon="-5.471550">
        <ele>1496.0</ele>
        <time>2015-07-25T14:11:39Z</time>
      </trkpt>
      <trkpt lat="40.469383" lon="-5.471650">
        <ele>1497.0</ele>
        <time>2015-07-25T14:11:40Z</time>
      </trkpt>
      <trkpt lat="40.469433" lon="-5.471733">
        <ele>1499.0</ele>
        <time>2015-07-25T14:11:41Z</time>
      </trkpt>
      <trkpt lat="40.469467" lon="-5.471833">
        <ele>1499.0</ele>
        <time>2015-07-25T14:11:42Z</time>
      </trkpt>
      <trkpt lat="40.469500" lon="-5.471933">
        <ele>1500.0</ele>
        <time>2015-07-25T14:11:43Z</time>
      </trkpt>
      <trkpt lat="40.469517" lon="-5.472050">
        <ele>1501.0</ele>
        <time>2015-07-25T14:11:44Z</time>
      </trkpt>
      <trkpt lat="40.469517" lon="-5.472150">
        <ele>1502.0</ele>
        <time>2015-07-25T14:11:45Z</time>
      </trkpt>
      <trkpt lat="40.469533" lon="-5.472267">
        <ele>1503.0</ele>
        <time>2015-07-25T14:11:46Z</time>
      </trkpt>
      <trkpt lat="40.469550" lon="-5.472350">
        <ele>1505.0</ele>
        <time>2015-07-25T14:11:47Z</time>
      </trkpt>
      <trkpt lat="40.469567" lon="-5.472417">
        <ele>1505.0</ele>
        <time>2015-07-25T14:11:48Z</time>
      </trkpt>
      <trkpt lat="40.469617" lon="-5.472450">
        <ele>1504.0</ele>
        <time>2015-07-25T14:11:49Z</time>
      </trkpt>
      <trkpt lat="40.469683" lon="-5.472467">
        <ele>1502.0</ele>
        <time>2015-07-25T14:11:50Z</time>
      </trkpt>
      <trkpt lat="40.469750" lon="-5.472450">
        <ele>1500.0</ele>
        <time>2015-07-25T14:11:51Z</time>
      </trkpt>
      <trkpt lat="40.469833" lon="-5.472433">
        <ele>1498.0</ele>
        <time>2015-07-25T14:11:52Z</time>
      </trkpt>
      <trkpt lat="40.469917" lon="-5.472433">
        <ele>1497.0</ele>
        <time>2015-07-25T14:11:53Z</time>
      </trkpt>
      <trkpt lat="40.469983" lon="-5.472483">
        <ele>1496.0</ele>
        <time>2015-07-25T14:11:54Z</time>
      </trkpt>
      <trkpt lat="40.470033" lon="-5.472550">
        <ele>1495.0</ele>
        <time>2015-07-25T14:11:55Z</time>
      </trkpt>
      <trkpt lat="40.470067" lon="-5.472633">
        <ele>1495.0</ele>
        <time>2015-07-25T14:11:56Z</time>
      </trkpt>
      <trkpt lat="40.470067" lon="-5.472733">
        <ele>1495.0</ele>
        <time>2015-07-25T14:11:57Z</time>
      </trkpt>
      <trkpt lat="40.470067" lon="-5.472817">
        <ele>1493.0</ele>
        <time>2015-07-25T14:11:58Z</time>
      </trkpt>
      <trkpt lat="40.470050" lon="-5.472917">
        <ele>1492.0</ele>
        <time>2015-07-25T14:11:59Z</time>
      </trkpt>
      <trkpt lat="40.470033" lon="-5.473033">
        <ele>1489.0</ele>
        <time>2015-07-25T14:12:00Z</time>
      </trkpt>
      <trkpt lat="40.470000" lon="-5.473183">
        <ele>1487.0</ele>
        <time>2015-07-25T14:12:01Z</time>
      </trkpt>
      <trkpt lat="40.469967" lon="-5.473350">
        <ele>1486.0</ele>
        <time>2015-07-25T14:12:02Z</time>
      </trkpt>
      <trkpt lat="40.469967" lon="-5.473517">
        <ele>1487.0</ele>
        <time>2015-07-25T14:12:03Z</time>
      </trkpt>
      <trkpt lat="40.469967" lon="-5.473650">
        <ele>1489.0</ele>
        <time>2015-07-25T14:12:04Z</time>
      </trkpt>
      <trkpt lat="40.469983" lon="-5.473767">
        <ele>1490.0</ele>
        <time>2015-07-25T14:12:05Z</time>
      </trkpt>
      <trkpt lat="40.469967" lon="-5.473867">
        <ele>1490.0</ele>
        <time>2015-07-25T14:12:06Z</time>
      </trkpt>
      <trkpt lat="40.469967" lon="-5.473983">
        <ele>1489.0</ele>
        <time>2015-07-25T14:12:07Z</time>
      </trkpt>
      <trkpt lat="40.469950" lon="-5.474100">
        <ele>1488.0</ele>
        <time>2015-07-25T14:12:08Z</time>
      </trkpt>
      <trkpt lat="40.469933" lon="-5.474217">
        <ele>1485.0</ele>
        <time>2015-07-25T14:12:09Z</time>
      </trkpt>
      <trkpt lat="40.469950" lon="-5.474350">
        <ele>1483.0</ele>
        <time>2015-07-25T14:12:10Z</time>
      </trkpt>
      <trkpt lat="40.469950" lon="-5.474483">
        <ele>1480.0</ele>
        <time>2015-07-25T14:12:11Z</time>
      </trkpt>
      <trkpt lat="40.469950" lon="-5.474600">
        <ele>1478.0</ele>
        <time>2015-07-25T14:12:12Z</time>
      </trkpt>
      <trkpt lat="40.469967" lon="-5.474733">
        <ele>1476.0</ele>
        <time>2015-07-25T14:12:13Z</time>
      </trkpt>
      <trkpt lat="40.469983" lon="-5.474850">
        <ele>1473.0</ele>
        <time>2015-07-25T14:12:14Z</time>
      </trkpt>
      <trkpt lat="40.470017" lon="-5.474967">
        <ele>1470.0</ele>
        <time>2015-07-25T14:12:15Z</time>
      </trkpt>
      <trkpt lat="40.470050" lon="-5.475100">
        <ele>1467.0</ele>
        <time>2015-07-25T14:12:16Z</time>
      </trkpt>
      <trkpt lat="40.470100" lon="-5.475217">
        <ele>1464.0</ele>
        <time>2015-07-25T14:12:17Z</time>
      </trkpt>
      <trkpt lat="40.470133" lon="-5.475333">
        <ele>1462.0</ele>
        <time>2015-07-25T14:12:18Z</time>
      </trkpt>
      <trkpt lat="40.470183" lon="-5.475450">
        <ele>1460.0</ele>
        <time>2015-07-25T14:12:19Z</time>
      </trkpt>
      <trkpt lat="40.470233" lon="-5.475550">
        <ele>1457.0</ele>
        <time>2015-07-25T14:12:20Z</time>
      </trkpt>
      <trkpt lat="40.470283" lon="-5.475650">
        <ele>1455.0</ele>
        <time>2015-07-25T14:12:21Z</time>
      </trkpt>
      <trkpt lat="40.470350" lon="-5.475750">
        <ele>1452.0</ele>
        <time>2015-07-25T14:12:22Z</time>
      </trkpt>
      <trkpt lat="40.470383" lon="-5.475867">
        <ele>1451.0</ele>
        <time>2015-07-25T14:12:23Z</time>
      </trkpt>
      <trkpt lat="40.470433" lon="-5.475967">
        <ele>1451.0</ele>
        <time>2015-07-25T14:12:24Z</time>
      </trkpt>
      <trkpt lat="40.470467" lon="-5.476067">
        <ele>1451.0</ele>
        <time>2015-07-25T14:12:25Z</time>
      </trkpt>
      <trkpt lat="40.470517" lon="-5.476167">
        <ele>1450.0</ele>
        <time>2015-07-25T14:12:26Z</time>
      </trkpt>
      <trkpt lat="40.470550" lon="-5.476250">
        <ele>1449.0</ele>
        <time>2015-07-25T14:12:27Z</time>
      </trkpt>
      <trkpt lat="40.470600" lon="-5.476350">
        <ele>1448.0</ele>
        <time>2015-07-25T14:12:28Z</time>
      </trkpt>
      <trkpt lat="40.470650" lon="-5.476450">
        <ele>1447.0</ele>
        <time>2015-07-25T14:12:29Z</time>
      </trkpt>
      <trkpt lat="40.470700" lon="-5.476550">
        <ele>1446.0</ele>
        <time>2015-07-25T14:12:30Z</time>
      </trkpt>
      <trkpt lat="40.470750" lon="-5.476633">
        <ele>1446.0</ele>
        <time>2015-07-25T14:12:31Z</time>
      </trkpt>
      <trkpt lat="40.470783" lon="-5.476733">
        <ele>1445.0</ele>
        <time>2015-07-25T14:12:32Z</time>
      </trkpt>
      <trkpt lat="40.470817" lon="-5.476833">
        <ele>1445.0</ele>
        <time>2015-07-25T14:12:33Z</time>
      </trkpt>
      <trkpt lat="40.470850" lon="-5.476950">
        <ele>1443.0</ele>
        <time>2015-07-25T14:12:34Z</time>
      </trkpt>
      <trkpt lat="40.470883" lon="-5.477067">
        <ele>1442.0</ele>
        <time>2015-07-25T14:12:35Z</time>
      </trkpt>
      <trkpt lat="40.470917" lon="-5.477167">
        <ele>1441.0</ele>
        <time>2015-07-25T14:12:36Z</time>
      </trkpt>
      <trkpt lat="40.470967" lon="-5.477267">
        <ele>1441.0</ele>
        <time>2015-07-25T14:12:37Z</time>
      </trkpt>
      <trkpt lat="40.471000" lon="-5.477367">
        <ele>1441.0</ele>
        <time>2015-07-25T14:12:38Z</time>
      </trkpt>
      <trkpt lat="40.471033" lon="-5.477467">
        <ele>1441.0</ele>
        <time>2015-07-25T14:12:39Z</time>
      </trkpt>
      <trkpt lat="40.471067" lon="-5.477583">
        <ele>1442.0</ele>
        <time>2015-07-25T14:12:40Z</time>
      </trkpt>
      <trkpt lat="40.471083" lon="-5.477683">
        <ele>1443.0</ele>
        <time>2015-07-25T14:12:41Z</time>
      </trkpt>
      <trkpt lat="40.471117" lon="-5.477783">
        <ele>1443.0</ele>
        <time>2015-07-25T14:12:42Z</time>
      </trkpt>
      <trkpt lat="40.471150" lon="-5.477867">
        <ele>1443.0</ele>
        <time>2015-07-25T14:12:43Z</time>
      </trkpt>
      <trkpt lat="40.471200" lon="-5.477950">
        <ele>1443.0</ele>
        <time>2015-07-25T14:12:44Z</time>
      </trkpt>
      <trkpt lat="40.471233" lon="-5.478017">
        <ele>1443.0</ele>
        <time>2015-07-25T14:12:45Z</time>
      </trkpt>
      <trkpt lat="40.471283" lon="-5.478100">
        <ele>1443.0</ele>
        <time>2015-07-25T14:12:46Z</time>
      </trkpt>
      <trkpt lat="40.471333" lon="-5.478167">
        <ele>1443.0</ele>
        <time>2015-07-25T14:12:47Z</time>
      </trkpt>
      <trkpt lat="40.471400" lon="-5.478233">
        <ele>1444.0</ele>
        <time>2015-07-25T14:12:48Z</time>
      </trkpt>
      <trkpt lat="40.471450" lon="-5.478300">
        <ele>1444.0</ele>
        <time>2015-07-25T14:12:49Z</time>
      </trkpt>
      <trkpt lat="40.471483" lon="-5.478367">
        <ele>1445.0</ele>
        <time>2015-07-25T14:12:50Z</time>
      </trkpt>
      <trkpt lat="40.471533" lon="-5.478433">
        <ele>1445.0</ele>
        <time>2015-07-25T14:12:51Z</time>
      </trkpt>
      <trkpt lat="40.471583" lon="-5.478500">
        <ele>1445.0</ele>
        <time>2015-07-25T14:12:52Z</time>
      </trkpt>
      <trkpt lat="40.471617" lon="-5.478567">
        <ele>1446.0</ele>
        <time>2015-07-25T14:12:53Z</time>
      </trkpt>
      <trkpt lat="40.471650" lon="-5.478633">
        <ele>1447.0</ele>
        <time>2015-07-25T14:12:54Z</time>
      </trkpt>
      <trkpt lat="40.471667" lon="-5.478700">
        <ele>1446.0</ele>
        <time>2015-07-25T14:12:55Z</time>
      </trkpt>
      <trkpt lat="40.471700" lon="-5.478783">
        <ele>1446.0</ele>
        <time>2015-07-25T14:12:56Z</time>
      </trkpt>
      <trkpt lat="40.471717" lon="-5.478883">
        <ele>1446.0</ele>
        <time>2015-07-25T14:12:57Z</time>
      </trkpt>
      <trkpt lat="40.471750" lon="-5.478967">
        <ele>1447.0</ele>
        <time>2015-07-25T14:12:58Z</time>
      </trkpt>
      <trkpt lat="40.471767" lon="-5.479067">
        <ele>1447.0</ele>
        <time>2015-07-25T14:12:59Z</time>
      </trkpt>
      <trkpt lat="40.471767" lon="-5.479183">
        <ele>1448.0</ele>
        <time>2015-07-25T14:13:00Z</time>
      </trkpt>
      <trkpt lat="40.471767" lon="-5.479317">
        <ele>1450.0</ele>
        <time>2015-07-25T14:13:01Z</time>
      </trkpt>
      <trkpt lat="40.471767" lon="-5.479433">
        <ele>1451.0</ele>
        <time>2015-07-25T14:13:02Z</time>
      </trkpt>
      <trkpt lat="40.471750" lon="-5.479533">
        <ele>1452.0</ele>
        <time>2015-07-25T14:13:03Z</time>
      </trkpt>
      <trkpt lat="40.471767" lon="-5.479617">
        <ele>1453.0</ele>
        <time>2015-07-25T14:13:04Z</time>
      </trkpt>
      <trkpt lat="40.471783" lon="-5.479667">
        <ele>1453.0</ele>
        <time>2015-07-25T14:13:05Z</time>
      </trkpt>
      <trkpt lat="40.471817" lon="-5.479717">
        <ele>1452.0</ele>
        <time>2015-07-25T14:13:06Z</time>
      </trkpt>
      <trkpt lat="40.471850" lon="-5.479717">
        <ele>1453.0</ele>
        <time>2015-07-25T14:13:07Z</time>
      </trkpt>
      <trkpt lat="40.471867" lon="-5.479700">
        <ele>1452.0</ele>
        <time>2015-07-25T14:13:08Z</time>
      </trkpt>
      <trkpt lat="40.471883" lon="-5.479600">
        <ele>1451.0</ele>
        <time>2015-07-25T14:13:09Z</time>
      </trkpt>
      <trkpt lat="40.471867" lon="-5.479483">
        <ele>1450.0</ele>
        <time>2015-07-25T14:13:10Z</time>
      </trkpt>
      <trkpt lat="40.471800" lon="-5.479350">
        <ele>1450.0</ele>
        <time>2015-07-25T14:13:11Z</time>
      </trkpt>
      <trkpt lat="40.471700" lon="-5.479250">
        <ele>1452.0</ele>
        <time>2015-07-25T14:13:12Z</time>
      </trkpt>
      <trkpt lat="40.471567" lon="-5.479200">
        <ele>1454.0</ele>
        <time>2015-07-25T14:13:13Z</time>
      </trkpt>
      <trkpt lat="40.471417" lon="-5.479183">
        <ele>1456.0</ele>
        <time>2015-07-25T14:13:14Z</time>
      </trkpt>
      <trkpt lat="40.471283" lon="-5.479167">
        <ele>1459.0</ele>
        <time>2015-07-25T14:13:15Z</time>
      </trkpt>
      <trkpt lat="40.471167" lon="-5.479167">
        <ele>1461.0</ele>
        <time>2015-07-25T14:13:16Z</time>
      </trkpt>
      <trkpt lat="40.471050" lon="-5.479183">
        <ele>1462.0</ele>
        <time>2015-07-25T14:13:17Z</time>
      </trkpt>
      <trkpt lat="40.470933" lon="-5.479250">
        <ele>1463.0</ele>
        <time>2015-07-25T14:13:18Z</time>
      </trkpt>
      <trkpt lat="40.470833" lon="-5.479333">
        <ele>1462.0</ele>
        <time>2015-07-25T14:13:19Z</time>
      </trkpt>
      <trkpt lat="40.470733" lon="-5.479433">
        <ele>1462.0</ele>
        <time>2015-07-25T14:13:20Z</time>
      </trkpt>
      <trkpt lat="40.470667" lon="-5.479567">
        <ele>1462.0</ele>
        <time>2015-07-25T14:13:21Z</time>
      </trkpt>
      <trkpt lat="40.470633" lon="-5.479683">
        <ele>1463.0</ele>
        <time>2015-07-25T14:13:22Z</time>
      </trkpt>
      <trkpt lat="40.470617" lon="-5.479817">
        <ele>1463.0</ele>
        <time>2015-07-25T14:13:23Z</time>
      </trkpt>
      <trkpt lat="40.470633" lon="-5.479917">
        <ele>1463.0</ele>
        <time>2015-07-25T14:13:24Z</time>
      </trkpt>
      <trkpt lat="40.470667" lon="-5.480000">
        <ele>1464.0</ele>
        <time>2015-07-25T14:13:25Z</time>
      </trkpt>
      <trkpt lat="40.470700" lon="-5.480067">
        <ele>1465.0</ele>
        <time>2015-07-25T14:13:26Z</time>
      </trkpt>
      <trkpt lat="40.470733" lon="-5.480083">
        <ele>1465.0</ele>
        <time>2015-07-25T14:13:27Z</time>
      </trkpt>
      <trkpt lat="40.470767" lon="-5.480067">
        <ele>1465.0</ele>
        <time>2015-07-25T14:13:28Z</time>
      </trkpt>
      <trkpt lat="40.470800" lon="-5.480017">
        <ele>1466.0</ele>
        <time>2015-07-25T14:13:29Z</time>
      </trkpt>
      <trkpt lat="40.470800" lon="-5.479933">
        <ele>1467.0</ele>
        <time>2015-07-25T14:13:30Z</time>
      </trkpt>
      <trkpt lat="40.470767" lon="-5.479833">
        <ele>1468.0</ele>
        <time>2015-07-25T14:13:31Z</time>
      </trkpt>
      <trkpt lat="40.470717" lon="-5.479733">
        <ele>1469.0</ele>
        <time>2015-07-25T14:13:32Z</time>
      </trkpt>
      <trkpt lat="40.470617" lon="-5.479633">
        <ele>1470.0</ele>
        <time>2015-07-25T14:13:33Z</time>
      </trkpt>
      <trkpt lat="40.470500" lon="-5.479550">
        <ele>1470.0</ele>
        <time>2015-07-25T14:13:34Z</time>
      </trkpt>
      <trkpt lat="40.470383" lon="-5.479500">
        <ele>1472.0</ele>
        <time>2015-07-25T14:13:35Z</time>
      </trkpt>
      <trkpt lat="40.470250" lon="-5.479500">
        <ele>1473.0</ele>
        <time>2015-07-25T14:13:36Z</time>
      </trkpt>
      <trkpt lat="40.470117" lon="-5.479550">
        <ele>1475.0</ele>
        <time>2015-07-25T14:13:37Z</time>
      </trkpt>
      <trkpt lat="40.470017" lon="-5.479617">
        <ele>1475.0</ele>
        <time>2015-07-25T14:13:38Z</time>
      </trkpt>
      <trkpt lat="40.469917" lon="-5.479717">
        <ele>1475.0</ele>
        <time>2015-07-25T14:13:39Z</time>
      </trkpt>
      <trkpt lat="40.469850" lon="-5.479833">
        <ele>1475.0</ele>
        <time>2015-07-25T14:13:40Z</time>
      </trkpt>
      <trkpt lat="40.469800" lon="-5.479967">
        <ele>1474.0</ele>
        <time>2015-07-25T14:13:41Z</time>
      </trkpt>
      <trkpt lat="40.469800" lon="-5.480100">
        <ele>1474.0</ele>
        <time>2015-07-25T14:13:42Z</time>
      </trkpt>
      <trkpt lat="40.469817" lon="-5.480233">
        <ele>1474.0</ele>
        <time>2015-07-25T14:13:43Z</time>
      </trkpt>
      <trkpt lat="40.469833" lon="-5.480333">
        <ele>1475.0</ele>
        <time>2015-07-25T14:13:44Z</time>
      </trkpt>
      <trkpt lat="40.469883" lon="-5.480400">
        <ele>1476.0</ele>
        <time>2015-07-25T14:13:45Z</time>
      </trkpt>
      <trkpt lat="40.469950" lon="-5.480433">
        <ele>1476.0</ele>
        <time>2015-07-25T14:13:46Z</time>
      </trkpt>
      <trkpt lat="40.470017" lon="-5.480450">
        <ele>1477.0</ele>
        <time>2015-07-25T14:13:47Z</time>
      </trkpt>
      <trkpt lat="40.470067" lon="-5.480450">
        <ele>1478.0</ele>
        <time>2015-07-25T14:13:48Z</time>
      </trkpt>
      <trkpt lat="40.470117" lon="-5.480417">
        <ele>1480.0</ele>
        <time>2015-07-25T14:13:49Z</time>
      </trkpt>
      <trkpt lat="40.470150" lon="-5.480367">
        <ele>1482.0</ele>
        <time>2015-07-25T14:13:50Z</time>
      </trkpt>
      <trkpt lat="40.470183" lon="-5.480300">
        <ele>1485.0</ele>
        <time>2015-07-25T14:13:51Z</time>
      </trkpt>
      <trkpt lat="40.470200" lon="-5.480217">
        <ele>1488.0</ele>
        <time>2015-07-25T14:13:52Z</time>
      </trkpt>
      <trkpt lat="40.470200" lon="-5.480150">
        <ele>1492.0</ele>
        <time>2015-07-25T14:13:53Z</time>
      </trkpt>
      <trkpt lat="40.470200" lon="-5.480100">
        <ele>1495.0</ele>
        <time>2015-07-25T14:13:54Z</time>
      </trkpt>
      <trkpt lat="40.470183" lon="-5.480033">
        <ele>1498.0</ele>
        <time>2015-07-25T14:13:55Z</time>
      </trkpt>
      <trkpt lat="40.470150" lon="-5.479950">
        <ele>1499.0</ele>
        <time>2015-07-25T14:13:56Z</time>
      </trkpt>
      <trkpt lat="40.470083" lon="-5.479850">
        <ele>1500.0</ele>
        <time>2015-07-25T14:13:57Z</time>
      </trkpt>
      <trkpt lat="40.470000" lon="-5.479767">
        <ele>1501.0</ele>
        <time>2015-07-25T14:13:58Z</time>
      </trkpt>
      <trkpt lat="40.469900" lon="-5.479683">
        <ele>1503.0</ele>
        <time>2015-07-25T14:13:59Z</time>
      </trkpt>
      <trkpt lat="40.469783" lon="-5.479650">
        <ele>1505.0</ele>
        <time>2015-07-25T14:14:00Z</time>
      </trkpt>
      <trkpt lat="40.469667" lon="-5.479650">
        <ele>1507.0</ele>
        <time>2015-07-25T14:14:01Z</time>
      </trkpt>
      <trkpt lat="40.469550" lon="-5.479717">
        <ele>1509.0</ele>
        <time>2015-07-25T14:14:02Z</time>
      </trkpt>
      <trkpt lat="40.469450" lon="-5.479817">
        <ele>1512.0</ele>
        <time>2015-07-25T14:14:03Z</time>
      </trkpt>
      <trkpt lat="40.469400" lon="-5.479933">
        <ele>1514.0</ele>
        <time>2015-07-25T14:14:04Z</time>
      </trkpt>
      <trkpt lat="40.469383" lon="-5.480050">
        <ele>1515.0</ele>
        <time>2015-07-25T14:14:05Z</time>
      </trkpt>
      <trkpt lat="40.469383" lon="-5.480167">
        <ele>1516.0</ele>
        <time>2015-07-25T14:14:06Z</time>
      </trkpt>
      <trkpt lat="40.469417" lon="-5.480267">
        <ele>1519.0</ele>
        <time>2015-07-25T14:14:07Z</time>
      </trkpt>
      <trkpt lat="40.469467" lon="-5.480367">
        <ele>1521.0</ele>
        <time>2015-07-25T14:14:08Z</time>
      </trkpt>
      <trkpt lat="40.469517" lon="-5.480433">
        <ele>1524.0</ele>
        <time>2015-07-25T14:14:09Z</time>
      </trkpt>
      <trkpt lat="40.469567" lon="-5.480467">
        <ele>1527.0</ele>
        <time>2015-07-25T14:14:10Z</time>
      </trkpt>
      <trkpt lat="40.469600" lon="-5.480483">
        <ele>1530.0</ele>
        <time>2015-07-25T14:14:11Z</time>
      </trkpt>
      <trkpt lat="40.469650" lon="-5.480517">
        <ele>1534.0</ele>
        <time>2015-07-25T14:14:12Z</time>
      </trkpt>
      <trkpt lat="40.469683" lon="-5.480583">
        <ele>1536.0</ele>
        <time>2015-07-25T14:14:13Z</time>
      </trkpt>
      <trkpt lat="40.469717" lon="-5.480650">
        <ele>1538.0</ele>
        <time>2015-07-25T14:14:14Z</time>
      </trkpt>
      <trkpt lat="40.469750" lon="-5.480683">
        <ele>1541.0</ele>
        <time>2015-07-25T14:14:15Z</time>
      </trkpt>
      <trkpt lat="40.469800" lon="-5.480667">
        <ele>1543.0</ele>
        <time>2015-07-25T14:14:16Z</time>
      </trkpt>
      <trkpt lat="40.469833" lon="-5.480583">
        <ele>1545.0</ele>
        <time>2015-07-25T14:14:17Z</time>
      </trkpt>
      <trkpt lat="40.469833" lon="-5.480483">
        <ele>1546.0</ele>
        <time>2015-07-25T14:14:18Z</time>
      </trkpt>
      <trkpt lat="40.469783" lon="-5.480367">
        <ele>1549.0</ele>
        <time>2015-07-25T14:14:19Z</time>
      </trkpt>
      <trkpt lat="40.469717" lon="-5.480267">
        <ele>1552.0</ele>
        <time>2015-07-25T14:14:20Z</time>
      </trkpt>
      <trkpt lat="40.469617" lon="-5.480200">
        <ele>1554.0</ele>
        <time>2015-07-25T14:14:21Z</time>
      </trkpt>
      <trkpt lat="40.469500" lon="-5.480150">
        <ele>1555.0</ele>
        <time>2015-07-25T14:14:22Z</time>
      </trkpt>
      <trkpt lat="40.469367" lon="-5.480167">
        <ele>1556.0</ele>
        <time>2015-07-25T14:14:23Z</time>
      </trkpt>
      <trkpt lat="40.469233" lon="-5.480200">
        <ele>1557.0</ele>
        <time>2015-07-25T14:14:24Z</time>
      </trkpt>
      <trkpt lat="40.469117" lon="-5.480283">
        <ele>1558.0</ele>
        <time>2015-07-25T14:14:25Z</time>
      </trkpt>
      <trkpt lat="40.469000" lon="-5.480383">
        <ele>1561.0</ele>
        <time>2015-07-25T14:14:26Z</time>
      </trkpt>
      <trkpt lat="40.468933" lon="-5.480500">
        <ele>1563.0</ele>
        <time>2015-07-25T14:14:27Z</time>
      </trkpt>
      <trkpt lat="40.468867" lon="-5.480633">
        <ele>1564.0</ele>
        <time>2015-07-25T14:14:28Z</time>
      </trkpt>
      <trkpt lat="40.468850" lon="-5.480783">
        <ele>1566.0</ele>
        <time>2015-07-25T14:14:29Z</time>
      </trkpt>
      <trkpt lat="40.468850" lon="-5.480900">
        <ele>1569.0</ele>
        <time>2015-07-25T14:14:30Z</time>
      </trkpt>
      <trkpt lat="40.468883" lon="-5.480983">
        <ele>1571.0</ele>
        <time>2015-07-25T14:14:31Z</time>
      </trkpt>
      <trkpt lat="40.468933" lon="-5.481033">
        <ele>1573.0</ele>
        <time>2015-07-25T14:14:32Z</time>
      </trkpt>
      <trkpt lat="40.469000" lon="-5.481050">
        <ele>1575.0</ele>
        <time>2015-07-25T14:14:33Z</time>
      </trkpt>
      <trkpt lat="40.469050" lon="-5.481017">
        <ele>1577.0</ele>
        <time>2015-07-25T14:14:34Z</time>
      </trkpt>
      <trkpt lat="40.469100" lon="-5.480933">
        <ele>1580.0</ele>
        <time>2015-07-25T14:14:35Z</time>
      </trkpt>
      <trkpt lat="40.469100" lon="-5.480833">
        <ele>1583.0</ele>
        <time>2015-07-25T14:14:36Z</time>
      </trkpt>
      <trkpt lat="40.469083" lon="-5.480717">
        <ele>1586.0</ele>
        <time>2015-07-25T14:14:37Z</time>
      </trkpt>
      <trkpt lat="40.469017" lon="-5.480600">
        <ele>1589.0</ele>
        <time>2015-07-25T14:14:38Z</time>
      </trkpt>
      <trkpt lat="40.468933" lon="-5.480517">
        <ele>1591.0</ele>
        <time>2015-07-25T14:14:39Z</time>
      </trkpt>
      <trkpt lat="40.468817" lon="-5.480467">
        <ele>1593.0</ele>
        <time>2015-07-25T14:14:40Z</time>
      </trkpt>
      <trkpt lat="40.468700" lon="-5.480433">
        <ele>1594.0</ele>
        <time>2015-07-25T14:14:41Z</time>
      </trkpt>
      <trkpt lat="40.468567" lon="-5.480433">
        <ele>1595.0</ele>
        <time>2015-07-25T14:14:42Z</time>
      </trkpt>
      <trkpt lat="40.468433" lon="-5.480483">
        <ele>1595.0</ele>
        <time>2015-07-25T14:14:43Z</time>
      </trkpt>
      <trkpt lat="40.468300" lon="-5.480567">
        <ele>1596.0</ele>
        <time>2015-07-25T14:14:44Z</time>
      </trkpt>
      <trkpt lat="40.468183" lon="-5.480667">
        <ele>1599.0</ele>
        <time>2015-07-25T14:14:45Z</time>
      </trkpt>
      <trkpt lat="40.468100" lon="-5.480800">
        <ele>1602.0</ele>
        <time>2015-07-25T14:14:46Z</time>
      </trkpt>
      <trkpt lat="40.468050" lon="-5.480933">
        <ele>1605.0</ele>
        <time>2015-07-25T14:14:47Z</time>
      </trkpt>
      <trkpt lat="40.468017" lon="-5.481050">
        <ele>1608.0</ele>
        <time>2015-07-25T14:14:48Z</time>
      </trkpt>
      <trkpt lat="40.468017" lon="-5.481167">
        <ele>1609.0</ele>
        <time>2015-07-25T14:14:49Z</time>
      </trkpt>
      <trkpt lat="40.468033" lon="-5.481250">
        <ele>1611.0</ele>
        <time>2015-07-25T14:14:50Z</time>
      </trkpt>
      <trkpt lat="40.468083" lon="-5.481317">
        <ele>1613.0</ele>
        <time>2015-07-25T14:14:51Z</time>
      </trkpt>
      <trkpt lat="40.468133" lon="-5.481367">
        <ele>1614.0</ele>
        <time>2015-07-25T14:14:52Z</time>
      </trkpt>
      <trkpt lat="40.468200" lon="-5.481367">
        <ele>1616.0</ele>
        <time>2015-07-25T14:14:53Z</time>
      </trkpt>
      <trkpt lat="40.468267" lon="-5.481333">
        <ele>1618.0</ele>
        <time>2015-07-25T14:14:54Z</time>
      </trkpt>
      <trkpt lat="40.468317" lon="-5.481267">
        <ele>1620.0</ele>
        <time>2015-07-25T14:14:55Z</time>
      </trkpt>
      <trkpt lat="40.468333" lon="-5.481150">
        <ele>1622.0</ele>
        <time>2015-07-25T14:14:56Z</time>
      </trkpt>
      <trkpt lat="40.468317" lon="-5.481033">
        <ele>1626.0</ele>
        <time>2015-07-25T14:14:57Z</time>
      </trkpt>
      <trkpt lat="40.468267" lon="-5.480917">
        <ele>1629.0</ele>
        <time>2015-07-25T14:14:58Z</time>
      </trkpt>
      <trkpt lat="40.468167" lon="-5.480833">
        <ele>1633.0</ele>
        <time>2015-07-25T14:14:59Z</time>
      </trkpt>
      <trkpt lat="40.468050" lon="-5.480783">
        <ele>1634.0</ele>
        <time>2015-07-25T14:15:00Z</time>
      </trkpt>
      <trkpt lat="40.467917" lon="-5.480783">
        <ele>1635.0</ele>
        <time>2015-07-25T14:15:01Z</time>
      </trkpt>
      <trkpt lat="40.467767" lon="-5.480817">
        <ele>1637.0</ele>
        <time>2015-07-25T14:15:02Z</time>
      </trkpt>
      <trkpt lat="40.467633" lon="-5.480883">
        <ele>1638.0</ele>
        <time>2015-07-25T14:15:03Z</time>
      </trkpt>
      <trkpt lat="40.467517" lon="-5.480983">
        <ele>1641.0</ele>
        <time>2015-07-25T14:15:04Z</time>
      </trkpt>
      <trkpt lat="40.467417" lon="-5.481117">
        <ele>1645.0</ele>
        <time>2015-07-25T14:15:05Z</time>
      </trkpt>
      <trkpt lat="40.467367" lon="-5.481267">
        <ele>1649.0</ele>
        <time>2015-07-25T14:15:06Z</time>
      </trkpt>
      <trkpt lat="40.467350" lon="-5.481400">
        <ele>1654.0</ele>
        <time>2015-07-25T14:15:07Z</time>
      </trkpt>
      <trkpt lat="40.467333" lon="-5.481500">
        <ele>1658.0</ele>
        <time>2015-07-25T14:15:08Z</time>
      </trkpt>
      <trkpt lat="40.467350" lon="-5.481583">
        <ele>1661.0</ele>
        <time>2015-07-25T14:15:09Z</time>
      </trkpt>
      <trkpt lat="40.467383" lon="-5.481650">
        <ele>1663.0</ele>
        <time>2015-07-25T14:15:10Z</time>
      </trkpt>
      <trkpt lat="40.467433" lon="-5.481700">
        <ele>1663.0</ele>
        <time>2015-07-25T14:15:11Z</time>
      </trkpt>
      <trkpt lat="40.467517" lon="-5.481717">
        <ele>1665.0</ele>
        <time>2015-07-25T14:15:12Z</time>
      </trkpt>
      <trkpt lat="40.467583" lon="-5.481683">
        <ele>1668.0</ele>
        <time>2015-07-25T14:15:13Z</time>
      </trkpt>
      <trkpt lat="40.467633" lon="-5.481617">
        <ele>1671.0</ele>
        <time>2015-07-25T14:15:14Z</time>
      </trkpt>
      <trkpt lat="40.467633" lon="-5.481500">
        <ele>1673.0</ele>
        <time>2015-07-25T14:15:15Z</time>
      </trkpt>
      <trkpt lat="40.467600" lon="-5.481383">
        <ele>1674.0</ele>
        <time>2015-07-25T14:15:16Z</time>
      </trkpt>
      <trkpt lat="40.467550" lon="-5.481267">
        <ele>1676.0</ele>
        <time>2015-07-25T14:15:17Z</time>
      </trkpt>
      <trkpt lat="40.467450" lon="-5.481167">
        <ele>1679.0</ele>
        <time>2015-07-25T14:15:18Z</time>
      </trkpt>
      <trkpt lat="40.467333" lon="-5.481100">
        <ele>1682.0</ele>
        <time>2015-07-25T14:15:19Z</time>
      </trkpt>
      <trkpt lat="40.467200" lon="-5.481083">
        <ele>1684.0</ele>
        <time>2015-07-25T14:15:20Z</time>
      </trkpt>
      <trkpt lat="40.467067" lon="-5.481083">
        <ele>1687.0</ele>
        <time>2015-07-25T14:15:21Z</time>
      </trkpt>
      <trkpt lat="40.466950" lon="-5.481133">
        <ele>1691.0</ele>
        <time>2015-07-25T14:15:22Z</time>
      </trkpt>
      <trkpt lat="40.466817" lon="-5.481183">
        <ele>1694.0</ele>
        <time>2015-07-25T14:15:23Z</time>
      </trkpt>
      <trkpt lat="40.466717" lon="-5.481267">
        <ele>1697.0</ele>
        <time>2015-07-25T14:15:24Z</time>
      </trkpt>
      <trkpt lat="40.466633" lon="-5.481367">
        <ele>1700.0</ele>
        <time>2015-07-25T14:15:25Z</time>
      </trkpt>
      <trkpt lat="40.466567" lon="-5.481500">
        <ele>1702.0</ele>
        <time>2015-07-25T14:15:26Z</time>
      </trkpt>
      <trkpt lat="40.466550" lon="-5.481633">
        <ele>1705.0</ele>
        <time>2015-07-25T14:15:27Z</time>
      </trkpt>
      <trkpt lat="40.466567" lon="-5.481750">
        <ele>1706.0</ele>
        <time>2015-07-25T14:15:28Z</time>
      </trkpt>
      <trkpt lat="40.466633" lon="-5.481833">
        <ele>1708.0</ele>
        <time>2015-07-25T14:15:29Z</time>
      </trkpt>
      <trkpt lat="40.466700" lon="-5.481867">
        <ele>1710.0</ele>
        <time>2015-07-25T14:15:30Z</time>
      </trkpt>
      <trkpt lat="40.466767" lon="-5.481817">
        <ele>1712.0</ele>
        <time>2015-07-25T14:15:31Z</time>
      </trkpt>
      <trkpt lat="40.466833" lon="-5.481733">
        <ele>1714.0</ele>
        <time>2015-07-25T14:15:32Z</time>
      </trkpt>
      <trkpt lat="40.466850" lon="-5.481617">
        <ele>1717.0</ele>
        <time>2015-07-25T14:15:33Z</time>
      </trkpt>
      <trkpt lat="40.466833" lon="-5.481483">
        <ele>1721.0</ele>
        <time>2015-07-25T14:15:34Z</time>
      </trkpt>
      <trkpt lat="40.466783" lon="-5.481367">
        <ele>1725.0</ele>
        <time>2015-07-25T14:15:35Z</time>
      </trkpt>
      <trkpt lat="40.466700" lon="-5.481283">
        <ele>1728.0</ele>
        <time>2015-07-25T14:15:36Z</time>
      </trkpt>
      <trkpt lat="40.466600" lon="-5.481233">
        <ele>1730.0</ele>
        <time>2015-07-25T14:15:37Z</time>
      </trkpt>
      <trkpt lat="40.466467" lon="-5.481200">
        <ele>1733.0</ele>
        <time>2015-07-25T14:15:38Z</time>
      </trkpt>
      <trkpt lat="40.466333" lon="-5.481233">
        <ele>1734.0</ele>
        <time>2015-07-25T14:15:39Z</time>
      </trkpt>
      <trkpt lat="40.466217" lon="-5.481300">
        <ele>1736.0</ele>
        <time>2015-07-25T14:15:40Z</time>
      </trkpt>
      <trkpt lat="40.466133" lon="-5.481400">
        <ele>1739.0</ele>
        <time>2015-07-25T14:15:41Z</time>
      </trkpt>
      <trkpt lat="40.466067" lon="-5.481517">
        <ele>1740.0</ele>
        <time>2015-07-25T14:15:42Z</time>
      </trkpt>
      <trkpt lat="40.466050" lon="-5.481667">
        <ele>1742.0</ele>
        <time>2015-07-25T14:15:43Z</time>
      </trkpt>
      <trkpt lat="40.466083" lon="-5.481783">
        <ele>1745.0</ele>
        <time>2015-07-25T14:15:44Z</time>
      </trkpt>
      <trkpt lat="40.466133" lon="-5.481867">
        <ele>1747.0</ele>
        <time>2015-07-25T14:15:45Z</time>
      </trkpt>
      <trkpt lat="40.466200" lon="-5.481917">
        <ele>1750.0</ele>
        <time>2015-07-25T14:15:46Z</time>
      </trkpt>
      <trkpt lat="40.466267" lon="-5.481900">
        <ele>1752.0</ele>
        <time>2015-07-25T14:15:47Z</time>
      </trkpt>
      <trkpt lat="40.466317" lon="-5.481833">
        <ele>1755.0</ele>
        <time>2015-07-25T14:15:48Z</time>
      </trkpt>
      <trkpt lat="40.466367" lon="-5.481750">
        <ele>1757.0</ele>
        <time>2015-07-25T14:15:49Z</time>
      </trkpt>
      <trkpt lat="40.466350" lon="-5.481617">
        <ele>1759.0</ele>
        <time>2015-07-25T14:15:50Z</time>
      </trkpt>
      <trkpt lat="40.466317" lon="-5.481483">
        <ele>1760.0</ele>
        <time>2015-07-25T14:15:51Z</time>
      </trkpt>
      <trkpt lat="40.466217" lon="-5.481367">
        <ele>1762.0</ele>
        <time>2015-07-25T14:15:52Z</time>
      </trkpt>
      <trkpt lat="40.466100" lon="-5.481300">
        <ele>1764.0</ele>
        <time>2015-07-25T14:15:53Z</time>
      </trkpt>
      <trkpt lat="40.465950" lon="-5.481283">
        <ele>1767.0</ele>
        <time>2015-07-25T14:15:54Z</time>
      </trkpt>
      <trkpt lat="40.465833" lon="-5.481333">
        <ele>1770.0</ele>
        <time>2015-07-25T14:15:55Z</time>
      </trkpt>
      <trkpt lat="40.465733" lon="-5.481433">
        <ele>1774.0</ele>
        <time>2015-07-25T14:15:56Z</time>
      </trkpt>
      <trkpt lat="40.465667" lon="-5.481550">
        <ele>1776.0</ele>
        <time>2015-07-25T14:15:57Z</time>
      </trkpt>
      <trkpt lat="40.465617" lon="-5.481683">
        <ele>1779.0</ele>
        <time>2015-07-25T14:15:58Z</time>
      </trkpt>
      <trkpt lat="40.465617" lon="-5.481817">
        <ele>1781.0</ele>
        <time>2015-07-25T14:15:59Z</time>
      </trkpt>
      <trkpt lat="40.465650" lon="-5.481917">
        <ele>1784.0</ele>
        <time>2015-07-25T14:16:00Z</time>
      </trkpt>
      <trkpt lat="40.465700" lon="-5.481983">
        <ele>1786.0</ele>
        <time>2015-07-25T14:16:01Z</time>
      </trkpt>
      <trkpt lat="40.465767" lon="-5.482017">
        <ele>1787.0</ele>
        <time>2015-07-25T14:16:02Z</time>
      </trkpt>
      <trkpt lat="40.465850" lon="-5.481983">
        <ele>1787.0</ele>
        <time>2015-07-25T14:16:03Z</time>
      </trkpt>
      <trkpt lat="40.465917" lon="-5.481933">
        <ele>1789.0</ele>
        <time>2015-07-25T14:16:04Z</time>
      </trkpt>
      <trkpt lat="40.465967" lon="-5.481833">
        <ele>1791.0</ele>
        <time>2015-07-25T14:16:05Z</time>
      </trkpt>
      <trkpt lat="40.465967" lon="-5.481700">
        <ele>1793.0</ele>
        <time>2015-07-25T14:16:06Z</time>
      </trkpt>
      <trkpt lat="40.465933" lon="-5.481567">
        <ele>1795.0</ele>
        <time>2015-07-25T14:16:07Z</time>
      </trkpt>
      <trkpt lat="40.465850" lon="-5.481450">
        <ele>1796.0</ele>
        <time>2015-07-25T14:16:08Z</time>
      </trkpt>
      <trkpt lat="40.465717" lon="-5.481350">
        <ele>1798.0</ele>
        <time>2015-07-25T14:16:09Z</time>
      </trkpt>
      <trkpt lat="40.465583" lon="-5.481317">
        <ele>1801.0</ele>
        <time>2015-07-25T14:16:10Z</time>
      </trkpt>
      <trkpt lat="40.465450" lon="-5.481333">
        <ele>1803.0</ele>
        <time>2015-07-25T14:16:11Z</time>
      </trkpt>
      <trkpt lat="40.465317" lon="-5.481417">
        <ele>1805.0</ele>
        <time>2015-07-25T14:16:12Z</time>
      </trkpt>
      <trkpt lat="40.465233" lon="-5.481533">
        <ele>1807.0</ele>
        <time>2015-07-25T14:16:13Z</time>
      </trkpt>
      <trkpt lat="40.465183" lon="-5.481667">
        <ele>1810.0</ele>
        <time>2015-07-25T14:16:14Z</time>
      </trkpt>
      <trkpt lat="40.465167" lon="-5.481783">
        <ele>1813.0</ele>
        <time>2015-07-25T14:16:15Z</time>
      </trkpt>
      <trkpt lat="40.465200" lon="-5.481883">
        <ele>1815.0</ele>
        <time>2015-07-25T14:16:16Z</time>
      </trkpt>
      <trkpt lat="40.465250" lon="-5.481950">
        <ele>1816.0</ele>
        <time>2015-07-25T14:16:17Z</time>
      </trkpt>
      <trkpt lat="40.465317" lon="-5.481983">
        <ele>1817.0</ele>
        <time>2015-07-25T14:16:18Z</time>
      </trkpt>
      <trkpt lat="40.465383" lon="-5.481967">
        <ele>1817.0</ele>
        <time>2015-07-25T14:16:19Z</time>
      </trkpt>
      <trkpt lat="40.465450" lon="-5.481900">
        <ele>1817.0</ele>
        <time>2015-07-25T14:16:20Z</time>
      </trkpt>
      <trkpt lat="40.465500" lon="-5.481783">
        <ele>1818.0</ele>
        <time>2015-07-25T14:16:21Z</time>
      </trkpt>
      <trkpt lat="40.465483" lon="-5.481633">
        <ele>1819.0</ele>
        <time>2015-07-25T14:16:22Z</time>
      </trkpt>
      <trkpt lat="40.465433" lon="-5.481500">
        <ele>1821.0</ele>
        <time>2015-07-25T14:16:23Z</time>
      </trkpt>
      <trkpt lat="40.465350" lon="-5.481400">
        <ele>1824.0</ele>
        <time>2015-07-25T14:16:24Z</time>
      </trkpt>
      <trkpt lat="40.465250" lon="-5.481317">
        <ele>1826.0</ele>
        <time>2015-07-25T14:16:25Z</time>
      </trkpt>
      <trkpt lat="40.465117" lon="-5.481250">
        <ele>1827.0</ele>
        <time>2015-07-25T14:16:26Z</time>
      </trkpt>
      <trkpt lat="40.464983" lon="-5.481217">
        <ele>1828.0</ele>
        <time>2015-07-25T14:16:27Z</time>
      </trkpt>
      <trkpt lat="40.464833" lon="-5.481250">
        <ele>1828.0</ele>
        <time>2015-07-25T14:16:28Z</time>
      </trkpt>
      <trkpt lat="40.464700" lon="-5.481317">
        <ele>1830.0</ele>
        <time>2015-07-25T14:16:29Z</time>
      </trkpt>
      <trkpt lat="40.464600" lon="-5.481433">
        <ele>1833.0</ele>
        <time>2015-07-25T14:16:30Z</time>
      </trkpt>
      <trkpt lat="40.464517" lon="-5.481533">
        <ele>1838.0</ele>
        <time>2015-07-25T14:16:31Z</time>
      </trkpt>
      <trkpt lat="40.464433" lon="-5.481617">
        <ele>1842.0</ele>
        <time>2015-07-25T14:16:32Z</time>
      </trkpt>
      <trkpt lat="40.464350" lon="-5.481700">
        <ele>1844.0</ele>
        <time>2015-07-25T14:16:33Z</time>
      </trkpt>
      <trkpt lat="40.464267" lon="-5.481767">
        <ele>1845.0</ele>
        <time>2015-07-25T14:16:34Z</time>
      </trkpt>
      <trkpt lat="40.464217" lon="-5.481850">
        <ele>1846.0</ele>
        <time>2015-07-25T14:16:35Z</time>
      </trkpt>
      <trkpt lat="40.464183" lon="-5.481967">
        <ele>1846.0</ele>
        <time>2015-07-25T14:16:36Z</time>
      </trkpt>
      <trkpt lat="40.464200" lon="-5.482100">
        <ele>1845.0</ele>
        <time>2015-07-25T14:16:37Z</time>
      </trkpt>
      <trkpt lat="40.464233" lon="-5.482200">
        <ele>1845.0</ele>
        <time>2015-07-25T14:16:38Z</time>
      </trkpt>
      <trkpt lat="40.464300" lon="-5.482250">
        <ele>1844.0</ele>
        <time>2015-07-25T14:16:39Z</time>
      </trkpt>
      <trkpt lat="40.464367" lon="-5.482267">
        <ele>1844.0</ele>
        <time>2015-07-25T14:16:40Z</time>
      </trkpt>
      <trkpt lat="40.464450" lon="-5.482217">
        <ele>1842.0</ele>
        <time>2015-07-25T14:16:41Z</time>
      </trkpt>
      <trkpt lat="40.464517" lon="-5.482133">
        <ele>1840.0</ele>
        <time>2015-07-25T14:16:42Z</time>
      </trkpt>
      <trkpt lat="40.464583" lon="-5.482017">
        <ele>1838.0</ele>
        <time>2015-07-25T14:16:43Z</time>
      </trkpt>
      <trkpt lat="40.464600" lon="-5.481867">
        <ele>1837.0</ele>
        <time>2015-07-25T14:16:44Z</time>
      </trkpt>
      <trkpt lat="40.464617" lon="-5.481733">
        <ele>1837.0</ele>
        <time>2015-07-25T14:16:45Z</time>
      </trkpt>
      <trkpt lat="40.464600" lon="-5.481583">
        <ele>1839.0</ele>
        <time>2015-07-25T14:16:46Z</time>
      </trkpt>
      <trkpt lat="40.464583" lon="-5.481450">
        <ele>1841.0</ele>
        <time>2015-07-25T14:16:47Z</time>
      </trkpt>
      <trkpt lat="40.464583" lon="-5.481333">
        <ele>1843.0</ele>
        <time>2015-07-25T14:16:48Z</time>
      </trkpt>
      <trkpt lat="40.464583" lon="-5.481200">
        <ele>1846.0</ele>
        <time>2015-07-25T14:16:49Z</time>
      </trkpt>
      <trkpt lat="40.464600" lon="-5.481083">
        <ele>1849.0</ele>
        <time>2015-07-25T14:16:50Z</time>
      </trkpt>
      <trkpt lat="40.464600" lon="-5.480967">
        <ele>1852.0</ele>
        <time>2015-07-25T14:16:51Z</time>
      </trkpt>
      <trkpt lat="40.464583" lon="-5.480850">
        <ele>1855.0</ele>
        <time>2015-07-25T14:16:52Z</time>
      </trkpt>
      <trkpt lat="40.464550" lon="-5.480733">
        <ele>1857.0</ele>
        <time>2015-07-25T14:16:53Z</time>
      </trkpt>
      <trkpt lat="40.464483" lon="-5.480633">
        <ele>1858.0</ele>
        <time>2015-07-25T14:16:54Z</time>
      </trkpt>
      <trkpt lat="40.464383" lon="-5.480533">
        <ele>1859.0</ele>
        <time>2015-07-25T14:16:55Z</time>
      </trkpt>
      <trkpt lat="40.464250" lon="-5.480450">
        <ele>1859.0</ele>
        <time>2015-07-25T14:16:56Z</time>
      </trkpt>
      <trkpt lat="40.464100" lon="-5.480417">
        <ele>1859.0</ele>
        <time>2015-07-25T14:16:57Z</time>
      </trkpt>
      <trkpt lat="40.463950" lon="-5.480450">
        <ele>1860.0</ele>
        <time>2015-07-25T14:16:58Z</time>
      </trkpt>
      <trkpt lat="40.463817" lon="-5.480517">
        <ele>1863.0</ele>
        <time>2015-07-25T14:16:59Z</time>
      </trkpt>
      <trkpt lat="40.463717" lon="-5.480617">
        <ele>1866.0</ele>
        <time>2015-07-25T14:17:00Z</time>
      </trkpt>
      <trkpt lat="40.463650" lon="-5.480733">
        <ele>1869.0</ele>
        <time>2015-07-25T14:17:01Z</time>
      </trkpt>
      <trkpt lat="40.463617" lon="-5.480850">
        <ele>1872.0</ele>
        <time>2015-07-25T14:17:02Z</time>
      </trkpt>
      <trkpt lat="40.463600" lon="-5.480933">
        <ele>1873.0</ele>
        <time>2015-07-25T14:17:03Z</time>
      </trkpt>
      <trkpt lat="40.463633" lon="-5.481000">
        <ele>1874.0</ele>
        <time>2015-07-25T14:17:04Z</time>
      </trkpt>
      <trkpt lat="40.463700" lon="-5.481050">
        <ele>1873.0</ele>
        <time>2015-07-25T14:17:05Z</time>
      </trkpt>
      <trkpt lat="40.463767" lon="-5.481050">
        <ele>1873.0</ele>
        <time>2015-07-25T14:17:06Z</time>
      </trkpt>
      <trkpt lat="40.463850" lon="-5.481000">
        <ele>1875.0</ele>
        <time>2015-07-25T14:17:07Z</time>
      </trkpt>
      <trkpt lat="40.463917" lon="-5.480917">
        <ele>1877.0</ele>
        <time>2015-07-25T14:17:08Z</time>
      </trkpt>
      <trkpt lat="40.463967" lon="-5.480817">
        <ele>1881.0</ele>
        <time>2015-07-25T14:17:09Z</time>
      </trkpt>
      <trkpt lat="40.463983" lon="-5.480717">
        <ele>1884.0</ele>
        <time>2015-07-25T14:17:10Z</time>
      </trkpt>
      <trkpt lat="40.464017" lon="-5.480617">
        <ele>1888.0</ele>
        <time>2015-07-25T14:17:11Z</time>
      </trkpt>
      <trkpt lat="40.464050" lon="-5.480533">
        <ele>1890.0</ele>
        <time>2015-07-25T14:17:12Z</time>
      </trkpt>
      <trkpt lat="40.464083" lon="-5.480433">
        <ele>1892.0</ele>
        <time>2015-07-25T14:17:13Z</time>
      </trkpt>
      <trkpt lat="40.464100" lon="-5.480317">
        <ele>1894.0</ele>
        <time>2015-07-25T14:17:14Z</time>
      </trkpt>
      <trkpt lat="40.464083" lon="-5.480167">
        <ele>1896.0</ele>
        <time>2015-07-25T14:17:15Z</time>
      </trkpt>
      <trkpt lat="40.464033" lon="-5.480017">
        <ele>1897.0</ele>
        <time>2015-07-25T14:17:16Z</time>
      </trkpt>
      <trkpt lat="40.463967" lon="-5.479883">
        <ele>1900.0</ele>
        <time>2015-07-25T14:17:17Z</time>
      </trkpt>
      <trkpt lat="40.463883" lon="-5.479767">
        <ele>1903.0</ele>
        <time>2015-07-25T14:17:18Z</time>
      </trkpt>
      <trkpt lat="40.463767" lon="-5.479683">
        <ele>1906.0</ele>
        <time>2015-07-25T14:17:19Z</time>
      </trkpt>
      <trkpt lat="40.463650" lon="-5.479667">
        <ele>1907.0</ele>
        <time>2015-07-25T14:17:20Z</time>
      </trkpt>
      <trkpt lat="40.463533" lon="-5.479683">
        <ele>1907.0</ele>
        <time>2015-07-25T14:17:21Z</time>
      </trkpt>
      <trkpt lat="40.463417" lon="-5.479733">
        <ele>1907.0</ele>
        <time>2015-07-25T14:17:22Z</time>
      </trkpt>
      <trkpt lat="40.463317" lon="-5.479817">
        <ele>1908.0</ele>
        <time>2015-07-25T14:17:23Z</time>
      </trkpt>
      <trkpt lat="40.463250" lon="-5.479917">
        <ele>1909.0</ele>
        <time>2015-07-25T14:17:24Z</time>
      </trkpt>
      <trkpt lat="40.463217" lon="-5.480033">
        <ele>1910.0</ele>
        <time>2015-07-25T14:17:25Z</time>
      </trkpt>
      <trkpt lat="40.463217" lon="-5.480150">
        <ele>1910.0</ele>
        <time>2015-07-25T14:17:26Z</time>
      </trkpt>
      <trkpt lat="40.463233" lon="-5.480250">
        <ele>1912.0</ele>
        <time>2015-07-25T14:17:27Z</time>
      </trkpt>
      <trkpt lat="40.463267" lon="-5.480317">
        <ele>1915.0</ele>
        <time>2015-07-25T14:17:28Z</time>
      </trkpt>
      <trkpt lat="40.463317" lon="-5.480367">
        <ele>1917.0</ele>
        <time>2015-07-25T14:17:29Z</time>
      </trkpt>
      <trkpt lat="40.463367" lon="-5.480367">
        <ele>1920.0</ele>
        <time>2015-07-25T14:17:30Z</time>
      </trkpt>
      <trkpt lat="40.463433" lon="-5.480350">
        <ele>1922.0</ele>
        <time>2015-07-25T14:17:31Z</time>
      </trkpt>
      <trkpt lat="40.463467" lon="-5.480283">
        <ele>1924.0</ele>
        <time>2015-07-25T14:17:32Z</time>
      </trkpt>
      <trkpt lat="40.463500" lon="-5.480183">
        <ele>1925.0</ele>
        <time>2015-07-25T14:17:33Z</time>
      </trkpt>
      <trkpt lat="40.463517" lon="-5.480050">
        <ele>1926.0</ele>
        <time>2015-07-25T14:17:34Z</time>
      </trkpt>
      <trkpt lat="40.463500" lon="-5.479917">
        <ele>1927.0</ele>
        <time>2015-07-25T14:17:35Z</time>
      </trkpt>
      <trkpt lat="40.463450" lon="-5.479783">
        <ele>1930.0</ele>
        <time>2015-07-25T14:17:36Z</time>
      </trkpt>
      <trkpt lat="40.463383" lon="-5.479650">
        <ele>1932.0</ele>
        <time>2015-07-25T14:17:37Z</time>
      </trkpt>
      <trkpt lat="40.463300" lon="-5.479533">
        <ele>1935.0</ele>
        <time>2015-07-25T14:17:38Z</time>
      </trkpt>
      <trkpt lat="40.463217" lon="-5.479450">
        <ele>1936.0</ele>
        <time>2015-07-25T14:17:39Z</time>
      </trkpt>
      <trkpt lat="40.463117" lon="-5.479383">
        <ele>1937.0</ele>
        <time>2015-07-25T14:17:40Z</time>
      </trkpt>
      <trkpt lat="40.463000" lon="-5.479317">
        <ele>1937.0</ele>
        <time>2015-07-25T14:17:41Z</time>
      </trkpt>
      <trkpt lat="40.462883" lon="-5.479283">
        <ele>1937.0</ele>
        <time>2015-07-25T14:17:42Z</time>
      </trkpt>
      <trkpt lat="40.462767" lon="-5.479267">
        <ele>1938.0</ele>
        <time>2015-07-25T14:17:43Z</time>
      </trkpt>
      <trkpt lat="40.462650" lon="-5.479317">
        <ele>1938.0</ele>
        <time>2015-07-25T14:17:44Z</time>
      </trkpt>
      <trkpt lat="40.462550" lon="-5.479383">
        <ele>1938.0</ele>
        <time>2015-07-25T14:17:45Z</time>
      </trkpt>
      <trkpt lat="40.462450" lon="-5.479483">
        <ele>1938.0</ele>
        <time>2015-07-25T14:17:46Z</time>
      </trkpt>
      <trkpt lat="40.462400" lon="-5.479600">
        <ele>1939.0</ele>
        <time>2015-07-25T14:17:47Z</time>
      </trkpt>
      <trkpt lat="40.462367" lon="-5.479700">
        <ele>1940.0</ele>
        <time>2015-07-25T14:17:48Z</time>
      </trkpt>
      <trkpt lat="40.462367" lon="-5.479817">
        <ele>1942.0</ele>
        <time>2015-07-25T14:17:49Z</time>
      </trkpt>
      <trkpt lat="40.462367" lon="-5.479900">
        <ele>1943.0</ele>
        <time>2015-07-25T14:17:50Z</time>
      </trkpt>
      <trkpt lat="40.462383" lon="-5.479983">
        <ele>1946.0</ele>
        <time>2015-07-25T14:17:51Z</time>
      </trkpt>
      <trkpt lat="40.462417" lon="-5.480050">
        <ele>1947.0</ele>
        <time>2015-07-25T14:17:52Z</time>
      </trkpt>
      <trkpt lat="40.462467" lon="-5.480100">
        <ele>1949.0</ele>
        <time>2015-07-25T14:17:53Z</time>
      </trkpt>
      <trkpt lat="40.462500" lon="-5.480133">
        <ele>1951.0</ele>
        <time>2015-07-25T14:17:54Z</time>
      </trkpt>
      <trkpt lat="40.462550" lon="-5.480150">
        <ele>1953.0</ele>
        <time>2015-07-25T14:17:55Z</time>
      </trkpt>
      <trkpt lat="40.462600" lon="-5.480150">
        <ele>1954.0</ele>
        <time>2015-07-25T14:17:56Z</time>
      </trkpt>
      <trkpt lat="40.462667" lon="-5.480100">
        <ele>1954.0</ele>
        <time>2015-07-25T14:17:57Z</time>
      </trkpt>
      <trkpt lat="40.462717" lon="-5.480033">
        <ele>1955.0</ele>
        <time>2015-07-25T14:17:58Z</time>
      </trkpt>
      <trkpt lat="40.462750" lon="-5.479933">
        <ele>1955.0</ele>
        <time>2015-07-25T14:17:59Z</time>
      </trkpt>
      <trkpt lat="40.462800" lon="-5.479817">
        <ele>1957.0</ele>
        <time>2015-07-25T14:18:00Z</time>
      </trkpt>
      <trkpt lat="40.462800" lon="-5.479700">
        <ele>1960.0</ele>
        <time>2015-07-25T14:18:01Z</time>
      </trkpt>
      <trkpt lat="40.462800" lon="-5.479583">
        <ele>1962.0</ele>
        <time>2015-07-25T14:18:02Z</time>
      </trkpt>
      <trkpt lat="40.462767" lon="-5.479450">
        <ele>1963.0</ele>
        <time>2015-07-25T14:18:03Z</time>
      </trkpt>
      <trkpt lat="40.462733" lon="-5.479333">
        <ele>1963.0</ele>
        <time>2015-07-25T14:18:04Z</time>
      </trkpt>
      <trkpt lat="40.462683" lon="-5.479217">
        <ele>1964.0</ele>
        <time>2015-07-25T14:18:05Z</time>
      </trkpt>
      <trkpt lat="40.462617" lon="-5.479100">
        <ele>1964.0</ele>
        <time>2015-07-25T14:18:06Z</time>
      </trkpt>
      <trkpt lat="40.462533" lon="-5.479000">
        <ele>1964.0</ele>
        <time>2015-07-25T14:18:07Z</time>
      </trkpt>
      <trkpt lat="40.462417" lon="-5.478917">
        <ele>1964.0</ele>
        <time>2015-07-25T14:18:08Z</time>
      </trkpt>
      <trkpt lat="40.462300" lon="-5.478883">
        <ele>1964.0</ele>
        <time>2015-07-25T14:18:09Z</time>
      </trkpt>
      <trkpt lat="40.462167" lon="-5.478867">
        <ele>1964.0</ele>
        <time>2015-07-25T14:18:10Z</time>
      </trkpt>
      <trkpt lat="40.462050" lon="-5.478867">
        <ele>1965.0</ele>
        <time>2015-07-25T14:18:11Z</time>
      </trkpt>
      <trkpt lat="40.461933" lon="-5.478900">
        <ele>1965.0</ele>
        <time>2015-07-25T14:18:12Z</time>
      </trkpt>
      <trkpt lat="40.461817" lon="-5.478950">
        <ele>1965.0</ele>
        <time>2015-07-25T14:18:13Z</time>
      </trkpt>
      <trkpt lat="40.461700" lon="-5.479033">
        <ele>1965.0</ele>
        <time>2015-07-25T14:18:14Z</time>
      </trkpt>
      <trkpt lat="40.461617" lon="-5.479133">
        <ele>1966.0</ele>
        <time>2015-07-25T14:18:15Z</time>
      </trkpt>
      <trkpt lat="40.461567" lon="-5.479233">
        <ele>1967.0</ele>
        <time>2015-07-25T14:18:16Z</time>
      </trkpt>
      <trkpt lat="40.461533" lon="-5.479350">
        <ele>1969.0</ele>
        <time>2015-07-25T14:18:17Z</time>
      </trkpt>
      <trkpt lat="40.461533" lon="-5.479450">
        <ele>1971.0</ele>
        <time>2015-07-25T14:18:18Z</time>
      </trkpt>
      <trkpt lat="40.461533" lon="-5.479533">
        <ele>1972.0</ele>
        <time>2015-07-25T14:18:19Z</time>
      </trkpt>
      <trkpt lat="40.461550" lon="-5.479600">
        <ele>1973.0</ele>
        <time>2015-07-25T14:18:20Z</time>
      </trkpt>
      <trkpt lat="40.461583" lon="-5.479667">
        <ele>1974.0</ele>
        <time>2015-07-25T14:18:21Z</time>
      </trkpt>
      <trkpt lat="40.461650" lon="-5.479700">
        <ele>1974.0</ele>
        <time>2015-07-25T14:18:22Z</time>
      </trkpt>
      <trkpt lat="40.461717" lon="-5.479683">
        <ele>1973.0</ele>
        <time>2015-07-25T14:18:23Z</time>
      </trkpt>
      <trkpt lat="40.461783" lon="-5.479650">
        <ele>1973.0</ele>
        <time>2015-07-25T14:18:24Z</time>
      </trkpt>
      <trkpt lat="40.461850" lon="-5.479617">
        <ele>1973.0</ele>
        <time>2015-07-25T14:18:25Z</time>
      </trkpt>
      <trkpt lat="40.461917" lon="-5.479567">
        <ele>1974.0</ele>
        <time>2015-07-25T14:18:26Z</time>
      </trkpt>
      <trkpt lat="40.461983" lon="-5.479533">
        <ele>1976.0</ele>
        <time>2015-07-25T14:18:27Z</time>
      </trkpt>
      <trkpt lat="40.462033" lon="-5.479467">
        <ele>1977.0</ele>
        <time>2015-07-25T14:18:28Z</time>
      </trkpt>
      <trkpt lat="40.462067" lon="-5.479400">
        <ele>1979.0</ele>
        <time>2015-07-25T14:18:29Z</time>
      </trkpt>
      <trkpt lat="40.462117" lon="-5.479317">
        <ele>1980.0</ele>
        <time>2015-07-25T14:18:30Z</time>
      </trkpt>
      <trkpt lat="40.462150" lon="-5.479250">
        <ele>1980.0</ele>
        <time>2015-07-25T14:18:31Z</time>
      </trkpt>
      <trkpt lat="40.462183" lon="-5.479150">
        <ele>1979.0</ele>
        <time>2015-07-25T14:18:32Z</time>
      </trkpt>
      <trkpt lat="40.462200" lon="-5.479033">
        <ele>1979.0</ele>
        <time>2015-07-25T14:18:33Z</time>
      </trkpt>
      <trkpt lat="40.462200" lon="-5.478900">
        <ele>1977.0</ele>
        <time>2015-07-25T14:18:34Z</time>
      </trkpt>
      <trkpt lat="40.462167" lon="-5.478750">
        <ele>1976.0</ele>
        <time>2015-07-25T14:18:35Z</time>
      </trkpt>
      <trkpt lat="40.462100" lon="-5.478600">
        <ele>1975.0</ele>
        <time>2015-07-25T14:18:36Z</time>
      </trkpt>
      <trkpt lat="40.462017" lon="-5.478483">
        <ele>1974.0</ele>
        <time>2015-07-25T14:18:37Z</time>
      </trkpt>
      <trkpt lat="40.461900" lon="-5.478400">
        <ele>1974.0</ele>
        <time>2015-07-25T14:18:38Z</time>
      </trkpt>
      <trkpt lat="40.461767" lon="-5.478350">
        <ele>1974.0</ele>
        <time>2015-07-25T14:18:39Z</time>
      </trkpt>
      <trkpt lat="40.461650" lon="-5.478350">
        <ele>1974.0</ele>
        <time>2015-07-25T14:18:40Z</time>
      </trkpt>
      <trkpt lat="40.461517" lon="-5.478383">
        <ele>1973.0</ele>
        <time>2015-07-25T14:18:41Z</time>
      </trkpt>
      <trkpt lat="40.461400" lon="-5.478450">
        <ele>1972.0</ele>
        <time>2015-07-25T14:18:42Z</time>
      </trkpt>
      <trkpt lat="40.461300" lon="-5.478533">
        <ele>1972.0</ele>
        <time>2015-07-25T14:18:43Z</time>
      </trkpt>
      <trkpt lat="40.461217" lon="-5.478650">
        <ele>1974.0</ele>
        <time>2015-07-25T14:18:44Z</time>
      </trkpt>
      <trkpt lat="40.461150" lon="-5.478750">
        <ele>1976.0</ele>
        <time>2015-07-25T14:18:45Z</time>
      </trkpt>
      <trkpt lat="40.461083" lon="-5.478867">
        <ele>1978.0</ele>
        <time>2015-07-25T14:18:46Z</time>
      </trkpt>
      <trkpt lat="40.461050" lon="-5.478967">
        <ele>1980.0</ele>
        <time>2015-07-25T14:18:47Z</time>
      </trkpt>
      <trkpt lat="40.461000" lon="-5.479067">
        <ele>1982.0</ele>
        <time>2015-07-25T14:18:48Z</time>
      </trkpt>
      <trkpt lat="40.460967" lon="-5.479167">
        <ele>1984.0</ele>
        <time>2015-07-25T14:18:49Z</time>
      </trkpt>
      <trkpt lat="40.460933" lon="-5.479250">
        <ele>1984.0</ele>
        <time>2015-07-25T14:18:50Z</time>
      </trkpt>
      <trkpt lat="40.460883" lon="-5.479333">
        <ele>1984.0</ele>
        <time>2015-07-25T14:18:51Z</time>
      </trkpt>
      <trkpt lat="40.460867" lon="-5.479433">
        <ele>1984.0</ele>
        <time>2015-07-25T14:18:52Z</time>
      </trkpt>
      <trkpt lat="40.460850" lon="-5.479533">
        <ele>1984.0</ele>
        <time>2015-07-25T14:18:53Z</time>
      </trkpt>
      <trkpt lat="40.460883" lon="-5.479617">
        <ele>1983.0</ele>
        <time>2015-07-25T14:18:54Z</time>
      </trkpt>
      <trkpt lat="40.460933" lon="-5.479700">
        <ele>1984.0</ele>
        <time>2015-07-25T14:18:55Z</time>
      </trkpt>
      <trkpt lat="40.460983" lon="-5.479767">
        <ele>1986.0</ele>
        <time>2015-07-25T14:18:56Z</time>
      </trkpt>
      <trkpt lat="40.461033" lon="-5.479817">
        <ele>1988.0</ele>
        <time>2015-07-25T14:18:57Z</time>
      </trkpt>
      <trkpt lat="40.461083" lon="-5.479850">
        <ele>1990.0</ele>
        <time>2015-07-25T14:18:58Z</time>
      </trkpt>
      <trkpt lat="40.461133" lon="-5.479883">
        <ele>1991.0</ele>
        <time>2015-07-25T14:18:59Z</time>
      </trkpt>
      <trkpt lat="40.461183" lon="-5.479917">
        <ele>1990.0</ele>
        <time>2015-07-25T14:19:00Z</time>
      </trkpt>
      <trkpt lat="40.461250" lon="-5.479967">
        <ele>1989.0</ele>
        <time>2015-07-25T14:19:01Z</time>
      </trkpt>
      <trkpt lat="40.461333" lon="-5.480033">
        <ele>1989.0</ele>
        <time>2015-07-25T14:19:02Z</time>
      </trkpt>
      <trkpt lat="40.461400" lon="-5.480100">
        <ele>1990.0</ele>
        <time>2015-07-25T14:19:03Z</time>
      </trkpt>
      <trkpt lat="40.461483" lon="-5.480167">
        <ele>1993.0</ele>
        <time>2015-07-25T14:19:04Z</time>
      </trkpt>
      <trkpt lat="40.461533" lon="-5.480217">
        <ele>1995.0</ele>
        <time>2015-07-25T14:19:05Z</time>
      </trkpt>
      <trkpt lat="40.461583" lon="-5.480250">
        <ele>1996.0</ele>
        <time>2015-07-25T14:19:06Z</time>
      </trkpt>
      <trkpt lat="40.461650" lon="-5.480300">
        <ele>1996.0</ele>
        <time>2015-07-25T14:19:07Z</time>
      </trkpt>
      <trkpt lat="40.461717" lon="-5.480350">
        <ele>1995.0</ele>
        <time>2015-07-25T14:19:08Z</time>
      </trkpt>
      <trkpt lat="40.461783" lon="-5.480417">
        <ele>1994.0</ele>
        <time>2015-07-25T14:19:09Z</time>
      </trkpt>
      <trkpt lat="40.461850" lon="-5.480483">
        <ele>1995.0</ele>
        <time>2015-07-25T14:19:10Z</time>
      </trkpt>
      <trkpt lat="40.461917" lon="-5.480567">
        <ele>1997.0</ele>
        <time>2015-07-25T14:19:11Z</time>
      </trkpt>
      <trkpt lat="40.461967" lon="-5.480633">
        <ele>1999.0</ele>
        <time>2015-07-25T14:19:12Z</time>
      </trkpt>
      <trkpt lat="40.462017" lon="-5.480700">
        <ele>2001.0</ele>
        <time>2015-07-25T14:19:13Z</time>
      </trkpt>
      <trkpt lat="40.462050" lon="-5.480783">
        <ele>2002.0</ele>
        <time>2015-07-25T14:19:14Z</time>
      </trkpt>
      <trkpt lat="40.462083" lon="-5.480883">
        <ele>2002.0</ele>
        <time>2015-07-25T14:19:15Z</time>
      </trkpt>
      <trkpt lat="40.462117" lon="-5.480967">
        <ele>2003.0</ele>
        <time>2015-07-25T14:19:16Z</time>
      </trkpt>
      <trkpt lat="40.462150" lon="-5.481033">
        <ele>2004.0</ele>
        <time>2015-07-25T14:19:17Z</time>
      </trkpt>
      <trkpt lat="40.462217" lon="-5.481050">
        <ele>2005.0</ele>
        <time>2015-07-25T14:19:18Z</time>
      </trkpt>
      <trkpt lat="40.462267" lon="-5.481017">
        <ele>2006.0</ele>
        <time>2015-07-25T14:19:19Z</time>
      </trkpt>
      <trkpt lat="40.462300" lon="-5.480933">
        <ele>2005.0</ele>
        <time>2015-07-25T14:19:20Z</time>
      </trkpt>
      <trkpt lat="40.462300" lon="-5.480817">
        <ele>2006.0</ele>
        <time>2015-07-25T14:19:21Z</time>
      </trkpt>
      <trkpt lat="40.462267" lon="-5.480683">
        <ele>2005.0</ele>
        <time>2015-07-25T14:19:22Z</time>
      </trkpt>
      <trkpt lat="40.462200" lon="-5.480583">
        <ele>2003.0</ele>
        <time>2015-07-25T14:19:23Z</time>
      </trkpt>
      <trkpt lat="40.462100" lon="-5.480500">
        <ele>2001.0</ele>
        <time>2015-07-25T14:19:24Z</time>
      </trkpt>
      <trkpt lat="40.461967" lon="-5.480467">
        <ele>1999.0</ele>
        <time>2015-07-25T14:19:25Z</time>
      </trkpt>
      <trkpt lat="40.461850" lon="-5.480483">
        <ele>1998.0</ele>
        <time>2015-07-25T14:19:26Z</time>
      </trkpt>
      <trkpt lat="40.461717" lon="-5.480533">
        <ele>1998.0</ele>
        <time>2015-07-25T14:19:27Z</time>
      </trkpt>
      <trkpt lat="40.461600" lon="-5.480583">
        <ele>2000.0</ele>
        <time>2015-07-25T14:19:28Z</time>
      </trkpt>
      <trkpt lat="40.461483" lon="-5.480633">
        <ele>2001.0</ele>
        <time>2015-07-25T14:19:29Z</time>
      </trkpt>
      <trkpt lat="40.461367" lon="-5.480683">
        <ele>2003.0</ele>
        <time>2015-07-25T14:19:30Z</time>
      </trkpt>
      <trkpt lat="40.461283" lon="-5.480750">
        <ele>2004.0</ele>
        <time>2015-07-25T14:19:31Z</time>
      </trkpt>
      <trkpt lat="40.461200" lon="-5.480850">
        <ele>2004.0</ele>
        <time>2015-07-25T14:19:32Z</time>
      </trkpt>
      <trkpt lat="40.461133" lon="-5.480950">
        <ele>2005.0</ele>
        <time>2015-07-25T14:19:33Z</time>
      </trkpt>
      <trkpt lat="40.461083" lon="-5.481067">
        <ele>2005.0</ele>
        <time>2015-07-25T14:19:34Z</time>
      </trkpt>
      <trkpt lat="40.461017" lon="-5.481183">
        <ele>2007.0</ele>
        <time>2015-07-25T14:19:35Z</time>
      </trkpt>
      <trkpt lat="40.460933" lon="-5.481300">
        <ele>2009.0</ele>
        <time>2015-07-25T14:19:36Z</time>
      </trkpt>
      <trkpt lat="40.460883" lon="-5.481400">
        <ele>2011.0</ele>
        <time>2015-07-25T14:19:37Z</time>
      </trkpt>
      <trkpt lat="40.460833" lon="-5.481517">
        <ele>2014.0</ele>
        <time>2015-07-25T14:19:38Z</time>
      </trkpt>
      <trkpt lat="40.460800" lon="-5.481633">
        <ele>2015.0</ele>
        <time>2015-07-25T14:19:39Z</time>
      </trkpt>
      <trkpt lat="40.460817" lon="-5.481733">
        <ele>2017.0</ele>
        <time>2015-07-25T14:19:40Z</time>
      </trkpt>
      <trkpt lat="40.460867" lon="-5.481817">
        <ele>2017.0</ele>
        <time>2015-07-25T14:19:41Z</time>
      </trkpt>
      <trkpt lat="40.460933" lon="-5.481817">
        <ele>2017.0</ele>
        <time>2015-07-25T14:19:42Z</time>
      </trkpt>
      <trkpt lat="40.461000" lon="-5.481733">
        <ele>2017.0</ele>
        <time>2015-07-25T14:19:43Z</time>
      </trkpt>
      <trkpt lat="40.461017" lon="-5.481600">
        <ele>2018.0</ele>
        <time>2015-07-25T14:19:44Z</time>
      </trkpt>
      <trkpt lat="40.461000" lon="-5.481433">
        <ele>2020.0</ele>
        <time>2015-07-25T14:19:45Z</time>
      </trkpt>
      <trkpt lat="40.460917" lon="-5.481300">
        <ele>2021.0</ele>
        <time>2015-07-25T14:19:46Z</time>
      </trkpt>
      <trkpt lat="40.460817" lon="-5.481200">
        <ele>2023.0</ele>
        <time>2015-07-25T14:19:47Z</time>
      </trkpt>
      <trkpt lat="40.460683" lon="-5.481133">
        <ele>2024.0</ele>
        <time>2015-07-25T14:19:48Z</time>
      </trkpt>
      <trkpt lat="40.460550" lon="-5.481100">
        <ele>2025.0</ele>
        <time>2015-07-25T14:19:49Z</time>
      </trkpt>
      <trkpt lat="40.460417" lon="-5.481083">
        <ele>2026.0</ele>
        <time>2015-07-25T14:19:50Z</time>
      </trkpt>
      <trkpt lat="40.460267" lon="-5.481100">
        <ele>2027.0</ele>
        <time>2015-07-25T14:19:51Z</time>
      </trkpt>
      <trkpt lat="40.460117" lon="-5.481133">
        <ele>2030.0</ele>
        <time>2015-07-25T14:19:52Z</time>
      </trkpt>
      <trkpt lat="40.460000" lon="-5.481150">
        <ele>2033.0</ele>
        <time>2015-07-25T14:19:53Z</time>
      </trkpt>
      <trkpt lat="40.459900" lon="-5.481167">
        <ele>2035.0</ele>
        <time>2015-07-25T14:19:54Z</time>
      </trkpt>
      <trkpt lat="40.459783" lon="-5.481183">
        <ele>2036.0</ele>
        <time>2015-07-25T14:19:55Z</time>
      </trkpt>
      <trkpt lat="40.459683" lon="-5.481200">
        <ele>2036.0</ele>
        <time>2015-07-25T14:19:56Z</time>
      </trkpt>
      <trkpt lat="40.459583" lon="-5.481267">
        <ele>2036.0</ele>
        <time>2015-07-25T14:19:57Z</time>
      </trkpt>
      <trkpt lat="40.459483" lon="-5.481367">
        <ele>2035.0</ele>
        <time>2015-07-25T14:19:58Z</time>
      </trkpt>
      <trkpt lat="40.459433" lon="-5.481483">
        <ele>2036.0</ele>
        <time>2015-07-25T14:19:59Z</time>
      </trkpt>
      <trkpt lat="40.459417" lon="-5.481600">
        <ele>2036.0</ele>
        <time>2015-07-25T14:20:00Z</time>
      </trkpt>
      <trkpt lat="40.459400" lon="-5.481700">
        <ele>2037.0</ele>
        <time>2015-07-25T14:20:01Z</time>
      </trkpt>
      <trkpt lat="40.459417" lon="-5.481783">
        <ele>2037.0</ele>
        <time>2015-07-25T14:20:02Z</time>
      </trkpt>
      <trkpt lat="40.459450" lon="-5.481867">
        <ele>2037.0</ele>
        <time>2015-07-25T14:20:03Z</time>
      </trkpt>
      <trkpt lat="40.459500" lon="-5.481933">
        <ele>2036.0</ele>
        <time>2015-07-25T14:20:04Z</time>
      </trkpt>
      <trkpt lat="40.459550" lon="-5.482000">
        <ele>2036.0</ele>
        <time>2015-07-25T14:20:05Z</time>
      </trkpt>
      <trkpt lat="40.459617" lon="-5.482050">
        <ele>2037.0</ele>
        <time>2015-07-25T14:20:06Z</time>
      </trkpt>
      <trkpt lat="40.459683" lon="-5.482100">
        <ele>2039.0</ele>
        <time>2015-07-25T14:20:07Z</time>
      </trkpt>
      <trkpt lat="40.459733" lon="-5.482150">
        <ele>2040.0</ele>
        <time>2015-07-25T14:20:08Z</time>
      </trkpt>
      <trkpt lat="40.459783" lon="-5.482200">
        <ele>2042.0</ele>
        <time>2015-07-25T14:20:09Z</time>
      </trkpt>
      <trkpt lat="40.459833" lon="-5.482250">
        <ele>2042.0</ele>
        <time>2015-07-25T14:20:10Z</time>
      </trkpt>
      <trkpt lat="40.459883" lon="-5.482317">
        <ele>2043.0</ele>
        <time>2015-07-25T14:20:11Z</time>
      </trkpt>
      <trkpt lat="40.459950" lon="-5.482400">
        <ele>2044.0</ele>
        <time>2015-07-25T14:20:12Z</time>
      </trkpt>
      <trkpt lat="40.460000" lon="-5.482467">
        <ele>2046.0</ele>
        <time>2015-07-25T14:20:13Z</time>
      </trkpt>
      <trkpt lat="40.460083" lon="-5.482533">
        <ele>2048.0</ele>
        <time>2015-07-25T14:20:14Z</time>
      </trkpt>
      <trkpt lat="40.460133" lon="-5.482567">
        <ele>2052.0</ele>
        <time>2015-07-25T14:20:15Z</time>
      </trkpt>
      <trkpt lat="40.460200" lon="-5.482567">
        <ele>2056.0</ele>
        <time>2015-07-25T14:20:16Z</time>
      </trkpt>
      <trkpt lat="40.460250" lon="-5.482517">
        <ele>2058.0</ele>
        <time>2015-07-25T14:20:17Z</time>
      </trkpt>
      <trkpt lat="40.460300" lon="-5.482417">
        <ele>2058.0</ele>
        <time>2015-07-25T14:20:18Z</time>
      </trkpt>
      <trkpt lat="40.460317" lon="-5.482283">
        <ele>2058.0</ele>
        <time>2015-07-25T14:20:19Z</time>
      </trkpt>
      <trkpt lat="40.460317" lon="-5.482117">
        <ele>2059.0</ele>
        <time>2015-07-25T14:20:20Z</time>
      </trkpt>
      <trkpt lat="40.460283" lon="-5.481967">
        <ele>2061.0</ele>
        <time>2015-07-25T14:20:21Z</time>
      </trkpt>
      <trkpt lat="40.460183" lon="-5.481867">
        <ele>2064.0</ele>
        <time>2015-07-25T14:20:22Z</time>
      </trkpt>
      <trkpt lat="40.460067" lon="-5.481800">
        <ele>2065.0</ele>
        <time>2015-07-25T14:20:23Z</time>
      </trkpt>
      <trkpt lat="40.459950" lon="-5.481783">
        <ele>2068.0</ele>
        <time>2015-07-25T14:20:24Z</time>
      </trkpt>
      <trkpt lat="40.459833" lon="-5.481767">
        <ele>2071.0</ele>
        <time>2015-07-25T14:20:25Z</time>
      </trkpt>
      <trkpt lat="40.459717" lon="-5.481800">
        <ele>2073.0</ele>
        <time>2015-07-25T14:20:26Z</time>
      </trkpt>
      <trkpt lat="40.459600" lon="-5.481850">
        <ele>2074.0</ele>
        <time>2015-07-25T14:20:27Z</time>
      </trkpt>
      <trkpt lat="40.459500" lon="-5.481933">
        <ele>2075.0</ele>
        <time>2015-07-25T14:20:28Z</time>
      </trkpt>
      <trkpt lat="40.459417" lon="-5.482050">
        <ele>2077.0</ele>
        <time>2015-07-25T14:20:29Z</time>
      </trkpt>
      <trkpt lat="40.459350" lon="-5.482150">
        <ele>2079.0</ele>
        <time>2015-07-25T14:20:30Z</time>
      </trkpt>
      <trkpt lat="40.459333" lon="-5.482267">
        <ele>2081.0</ele>
        <time>2015-07-25T14:20:31Z</time>
      </trkpt>
      <trkpt lat="40.459333" lon="-5.482367">
        <ele>2082.0</ele>
        <time>2015-07-25T14:20:32Z</time>
      </trkpt>
      <trkpt lat="40.459367" lon="-5.482450">
        <ele>2083.0</ele>
        <time>2015-07-25T14:20:33Z</time>
      </trkpt>
      <trkpt lat="40.459433" lon="-5.482500">
        <ele>2084.0</ele>
        <time>2015-07-25T14:20:34Z</time>
      </trkpt>
      <trkpt lat="40.459517" lon="-5.482467">
        <ele>2086.0</ele>
        <time>2015-07-25T14:20:35Z</time>
      </trkpt>
      <trkpt lat="40.459583" lon="-5.482400">
        <ele>2087.0</ele>
        <time>2015-07-25T14:20:36Z</time>
      </trkpt>
      <trkpt lat="40.459633" lon="-5.482283">
        <ele>2089.0</ele>
        <time>2015-07-25T14:20:37Z</time>
      </trkpt>
      <trkpt lat="40.459650" lon="-5.482133">
        <ele>2090.0</ele>
        <time>2015-07-25T14:20:38Z</time>
      </trkpt>
      <trkpt lat="40.459633" lon="-5.481983">
        <ele>2091.0</ele>
        <time>2015-07-25T14:20:39Z</time>
      </trkpt>
      <trkpt lat="40.459583" lon="-5.481833">
        <ele>2092.0</ele>
        <time>2015-07-25T14:20:40Z</time>
      </trkpt>
      <trkpt lat="40.459483" lon="-5.481700">
        <ele>2093.0</ele>
        <time>2015-07-25T14:20:41Z</time>
      </trkpt>
      <trkpt lat="40.459350" lon="-5.481600">
        <ele>2094.0</ele>
        <time>2015-07-25T14:20:42Z</time>
      </trkpt>
      <trkpt lat="40.459200" lon="-5.481567">
        <ele>2097.0</ele>
        <time>2015-07-25T14:20:43Z</time>
      </trkpt>
      <trkpt lat="40.459067" lon="-5.481567">
        <ele>2099.0</ele>
        <time>2015-07-25T14:20:44Z</time>
      </trkpt>
      <trkpt lat="40.458950" lon="-5.481617">
        <ele>2101.0</ele>
        <time>2015-07-25T14:20:45Z</time>
      </trkpt>
      <trkpt lat="40.458850" lon="-5.481683">
        <ele>2102.0</ele>
        <time>2015-07-25T14:20:46Z</time>
      </trkpt>
      <trkpt lat="40.458767" lon="-5.481767">
        <ele>2102.0</ele>
        <time>2015-07-25T14:20:47Z</time>
      </trkpt>
      <trkpt lat="40.458683" lon="-5.481867">
        <ele>2103.0</ele>
        <time>2015-07-25T14:20:48Z</time>
      </trkpt>
      <trkpt lat="40.458650" lon="-5.481983">
        <ele>2103.0</ele>
        <time>2015-07-25T14:20:49Z</time>
      </trkpt>
      <trkpt lat="40.458650" lon="-5.482100">
        <ele>2102.0</ele>
        <time>2015-07-25T14:20:50Z</time>
      </trkpt>
      <trkpt lat="40.458700" lon="-5.482217">
        <ele>2101.0</ele>
        <time>2015-07-25T14:20:51Z</time>
      </trkpt>
      <trkpt lat="40.458767" lon="-5.482283">
        <ele>2101.0</ele>
        <time>2015-07-25T14:20:52Z</time>
      </trkpt>
      <trkpt lat="40.458850" lon="-5.482300">
        <ele>2104.0</ele>
        <time>2015-07-25T14:20:53Z</time>
      </trkpt>
      <trkpt lat="40.458933" lon="-5.482283">
        <ele>2106.0</ele>
        <time>2015-07-25T14:20:54Z</time>
      </trkpt>
      <trkpt lat="40.459000" lon="-5.482233">
        <ele>2109.0</ele>
        <time>2015-07-25T14:20:55Z</time>
      </trkpt>
      <trkpt lat="40.459067" lon="-5.482133">
        <ele>2110.0</ele>
        <time>2015-07-25T14:20:56Z</time>
      </trkpt>
      <trkpt lat="40.459100" lon="-5.482000">
        <ele>2111.0</ele>
        <time>2015-07-25T14:20:57Z</time>
      </trkpt>
      <trkpt lat="40.459117" lon="-5.481850">
        <ele>2112.0</ele>
        <time>2015-07-25T14:20:58Z</time>
      </trkpt>
      <trkpt lat="40.459100" lon="-5.481683">
        <ele>2113.0</ele>
        <time>2015-07-25T14:20:59Z</time>
      </trkpt>
      <trkpt lat="40.459050" lon="-5.481533">
        <ele>2114.0</ele>
        <time>2015-07-25T14:21:00Z</time>
      </trkpt>
      <trkpt lat="40.458983" lon="-5.481400">
        <ele>2115.0</ele>
        <time>2015-07-25T14:21:01Z</time>
      </trkpt>
      <trkpt lat="40.458867" lon="-5.481300">
        <ele>2115.0</ele>
        <time>2015-07-25T14:21:02Z</time>
      </trkpt>
      <trkpt lat="40.458750" lon="-5.481250">
        <ele>2116.0</ele>
        <time>2015-07-25T14:21:03Z</time>
      </trkpt>
      <trkpt lat="40.458600" lon="-5.481217">
        <ele>2116.0</ele>
        <time>2015-07-25T14:21:04Z</time>
      </trkpt>
      <trkpt lat="40.458467" lon="-5.481233">
        <ele>2117.0</ele>
        <time>2015-07-25T14:21:05Z</time>
      </trkpt>
      <trkpt lat="40.458367" lon="-5.481300">
        <ele>2118.0</ele>
        <time>2015-07-25T14:21:06Z</time>
      </trkpt>
      <trkpt lat="40.458267" lon="-5.481383">
        <ele>2119.0</ele>
        <time>2015-07-25T14:21:07Z</time>
      </trkpt>
      <trkpt lat="40.458217" lon="-5.481500">
        <ele>2119.0</ele>
        <time>2015-07-25T14:21:08Z</time>
      </trkpt>
      <trkpt lat="40.458183" lon="-5.481617">
        <ele>2119.0</ele>
        <time>2015-07-25T14:21:09Z</time>
      </trkpt>
      <trkpt lat="40.458167" lon="-5.481750">
        <ele>2120.0</ele>
        <time>2015-07-25T14:21:10Z</time>
      </trkpt>
      <trkpt lat="40.458183" lon="-5.481850">
        <ele>2121.0</ele>
        <time>2015-07-25T14:21:11Z</time>
      </trkpt>
      <trkpt lat="40.458200" lon="-5.481933">
        <ele>2121.0</ele>
        <time>2015-07-25T14:21:12Z</time>
      </trkpt>
      <trkpt lat="40.458250" lon="-5.482017">
        <ele>2121.0</ele>
        <time>2015-07-25T14:21:13Z</time>
      </trkpt>
      <trkpt lat="40.458300" lon="-5.482083">
        <ele>2121.0</ele>
        <time>2015-07-25T14:21:14Z</time>
      </trkpt>
      <trkpt lat="40.458367" lon="-5.482150">
        <ele>2122.0</ele>
        <time>2015-07-25T14:21:15Z</time>
      </trkpt>
      <trkpt lat="40.458433" lon="-5.482200">
        <ele>2123.0</ele>
        <time>2015-07-25T14:21:16Z</time>
      </trkpt>
      <trkpt lat="40.458500" lon="-5.482233">
        <ele>2124.0</ele>
        <time>2015-07-25T14:21:17Z</time>
      </trkpt>
      <trkpt lat="40.458567" lon="-5.482283">
        <ele>2125.0</ele>
        <time>2015-07-25T14:21:18Z</time>
      </trkpt>
      <trkpt lat="40.458617" lon="-5.482333">
        <ele>2127.0</ele>
        <time>2015-07-25T14:21:19Z</time>
      </trkpt>
      <trkpt lat="40.458667" lon="-5.482383">
        <ele>2130.0</ele>
        <time>2015-07-25T14:21:20Z</time>
      </trkpt>
      <trkpt lat="40.458733" lon="-5.482417">
        <ele>2131.0</ele>
        <time>2015-07-25T14:21:21Z</time>
      </trkpt>
      <trkpt lat="40.458783" lon="-5.482450">
        <ele>2133.0</ele>
        <time>2015-07-25T14:21:22Z</time>
      </trkpt>
      <trkpt lat="40.458850" lon="-5.482500">
        <ele>2134.0</ele>
        <time>2015-07-25T14:21:23Z</time>
      </trkpt>
      <trkpt lat="40.458900" lon="-5.482550">
        <ele>2136.0</ele>
        <time>2015-07-25T14:21:24Z</time>
      </trkpt>
      <trkpt lat="40.458967" lon="-5.482617">
        <ele>2137.0</ele>
        <time>2015-07-25T14:21:25Z</time>
      </trkpt>
      <trkpt lat="40.459033" lon="-5.482650">
        <ele>2140.0</ele>
        <time>2015-07-25T14:21:26Z</time>
      </trkpt>
      <trkpt lat="40.459100" lon="-5.482667">
        <ele>2141.0</ele>
        <time>2015-07-25T14:21:27Z</time>
      </trkpt>
      <trkpt lat="40.459183" lon="-5.482700">
        <ele>2142.0</ele>
        <time>2015-07-25T14:21:28Z</time>
      </trkpt>
      <trkpt lat="40.459250" lon="-5.482733">
        <ele>2142.0</ele>
        <time>2015-07-25T14:21:29Z</time>
      </trkpt>
      <trkpt lat="40.459350" lon="-5.482767">
        <ele>2142.0</ele>
        <time>2015-07-25T14:21:30Z</time>
      </trkpt>
      <trkpt lat="40.459433" lon="-5.482800">
        <ele>2143.0</ele>
        <time>2015-07-25T14:21:31Z</time>
      </trkpt>
      <trkpt lat="40.459517" lon="-5.482833">
        <ele>2145.0</ele>
        <time>2015-07-25T14:21:32Z</time>
      </trkpt>
      <trkpt lat="40.459600" lon="-5.482867">
        <ele>2148.0</ele>
        <time>2015-07-25T14:21:33Z</time>
      </trkpt>
      <trkpt lat="40.459650" lon="-5.482900">
        <ele>2150.0</ele>
        <time>2015-07-25T14:21:34Z</time>
      </trkpt>
      <trkpt lat="40.459700" lon="-5.482950">
        <ele>2151.0</ele>
        <time>2015-07-25T14:21:35Z</time>
      </trkpt>
      <trkpt lat="40.459750" lon="-5.482983">
        <ele>2151.0</ele>
        <time>2015-07-25T14:21:36Z</time>
      </trkpt>
      <trkpt lat="40.459800" lon="-5.483033">
        <ele>2150.0</ele>
        <time>2015-07-25T14:21:37Z</time>
      </trkpt>
      <trkpt lat="40.459850" lon="-5.483083">
        <ele>2148.0</ele>
        <time>2015-07-25T14:21:38Z</time>
      </trkpt>
      <trkpt lat="40.459917" lon="-5.483150">
        <ele>2147.0</ele>
        <time>2015-07-25T14:21:39Z</time>
      </trkpt>
      <trkpt lat="40.459967" lon="-5.483217">
        <ele>2147.0</ele>
        <time>2015-07-25T14:21:40Z</time>
      </trkpt>
      <trkpt lat="40.460033" lon="-5.483267">
        <ele>2147.0</ele>
        <time>2015-07-25T14:21:41Z</time>
      </trkpt>
      <trkpt lat="40.460100" lon="-5.483317">
        <ele>2147.0</ele>
        <time>2015-07-25T14:21:42Z</time>
      </trkpt>
      <trkpt lat="40.460167" lon="-5.483367">
        <ele>2148.0</ele>
        <time>2015-07-25T14:21:43Z</time>
      </trkpt>
      <trkpt lat="40.460217" lon="-5.483417">
        <ele>2147.0</ele>
        <time>2015-07-25T14:21:44Z</time>
      </trkpt>
      <trkpt lat="40.460267" lon="-5.483467">
        <ele>2147.0</ele>
        <time>2015-07-25T14:21:45Z</time>
      </trkpt>
      <trkpt lat="40.460333" lon="-5.483533">
        <ele>2147.0</ele>
        <time>2015-07-25T14:21:46Z</time>
      </trkpt>
      <trkpt lat="40.460383" lon="-5.483600">
        <ele>2148.0</ele>
        <time>2015-07-25T14:21:47Z</time>
      </trkpt>
      <trkpt lat="40.460450" lon="-5.483667">
        <ele>2148.0</ele>
        <time>2015-07-25T14:21:48Z</time>
      </trkpt>
      <trkpt lat="40.460483" lon="-5.483733">
        <ele>2148.0</ele>
        <time>2015-07-25T14:21:49Z</time>
      </trkpt>
      <trkpt lat="40.460533" lon="-5.483800">
        <ele>2148.0</ele>
        <time>2015-07-25T14:21:50Z</time>
      </trkpt>
      <trkpt lat="40.460583" lon="-5.483900">
        <ele>2147.0</ele>
        <time>2015-07-25T14:21:51Z</time>
      </trkpt>
      <trkpt lat="40.460633" lon="-5.483983">
        <ele>2146.0</ele>
        <time>2015-07-25T14:21:52Z</time>
      </trkpt>
      <trkpt lat="40.460700" lon="-5.484050">
        <ele>2145.0</ele>
        <time>2015-07-25T14:21:53Z</time>
      </trkpt>
      <trkpt lat="40.460783" lon="-5.484100">
        <ele>2143.0</ele>
        <time>2015-07-25T14:21:54Z</time>
      </trkpt>
      <trkpt lat="40.460850" lon="-5.484150">
        <ele>2143.0</ele>
        <time>2015-07-25T14:21:55Z</time>
      </trkpt>
      <trkpt lat="40.460933" lon="-5.484200">
        <ele>2142.0</ele>
        <time>2015-07-25T14:21:56Z</time>
      </trkpt>
      <trkpt lat="40.461017" lon="-5.484267">
        <ele>2142.0</ele>
        <time>2015-07-25T14:21:57Z</time>
      </trkpt>
      <trkpt lat="40.461067" lon="-5.484317">
        <ele>2143.0</ele>
        <time>2015-07-25T14:21:58Z</time>
      </trkpt>
      <trkpt lat="40.461133" lon="-5.484367">
        <ele>2144.0</ele>
        <time>2015-07-25T14:21:59Z</time>
      </trkpt>
      <trkpt lat="40.461183" lon="-5.484417">
        <ele>2143.0</ele>
        <time>2015-07-25T14:22:00Z</time>
      </trkpt>
      <trkpt lat="40.461250" lon="-5.484467">
        <ele>2141.0</ele>
        <time>2015-07-25T14:22:01Z</time>
      </trkpt>
      <trkpt lat="40.461300" lon="-5.484533">
        <ele>2139.0</ele>
        <time>2015-07-25T14:22:02Z</time>
      </trkpt>
      <trkpt lat="40.461367" lon="-5.484617">
        <ele>2136.0</ele>
        <time>2015-07-25T14:22:03Z</time>
      </trkpt>
      <trkpt lat="40.461433" lon="-5.484717">
        <ele>2134.0</ele>
        <time>2015-07-25T14:22:04Z</time>
      </trkpt>
      <trkpt lat="40.461500" lon="-5.484800">
        <ele>2134.0</ele>
        <time>2015-07-25T14:22:05Z</time>
      </trkpt>
      <trkpt lat="40.461550" lon="-5.484883">
        <ele>2134.0</ele>
        <time>2015-07-25T14:22:06Z</time>
      </trkpt>
      <trkpt lat="40.461617" lon="-5.484950">
        <ele>2133.0</ele>
        <time>2015-07-25T14:22:07Z</time>
      </trkpt>
      <trkpt lat="40.461683" lon="-5.485033">
        <ele>2132.0</ele>
        <time>2015-07-25T14:22:08Z</time>
      </trkpt>
      <trkpt lat="40.461733" lon="-5.485100">
        <ele>2131.0</ele>
        <time>2015-07-25T14:22:09Z</time>
      </trkpt>
      <trkpt lat="40.461783" lon="-5.485183">
        <ele>2129.0</ele>
        <time>2015-07-25T14:22:10Z</time>
      </trkpt>
      <trkpt lat="40.461833" lon="-5.485267">
        <ele>2127.0</ele>
        <time>2015-07-25T14:22:11Z</time>
      </trkpt>
      <trkpt lat="40.461883" lon="-5.485333">
        <ele>2124.0</ele>
        <time>2015-07-25T14:22:12Z</time>
      </trkpt>
      <trkpt lat="40.461950" lon="-5.485383">
        <ele>2122.0</ele>
        <time>2015-07-25T14:22:13Z</time>
      </trkpt>
      <trkpt lat="40.462017" lon="-5.485450">
        <ele>2120.0</ele>
        <time>2015-07-25T14:22:14Z</time>
      </trkpt>
      <trkpt lat="40.462050" lon="-5.485533">
        <ele>2119.0</ele>
        <time>2015-07-25T14:22:15Z</time>
      </trkpt>
      <trkpt lat="40.462083" lon="-5.485600">
        <ele>2118.0</ele>
        <time>2015-07-25T14:22:16Z</time>
      </trkpt>
      <trkpt lat="40.462117" lon="-5.485650">
        <ele>2117.0</ele>
        <time>2015-07-25T14:22:17Z</time>
      </trkpt>
      <trkpt lat="40.462167" lon="-5.485700">
        <ele>2114.0</ele>
        <time>2015-07-25T14:22:18Z</time>
      </trkpt>
      <trkpt lat="40.462217" lon="-5.485767">
        <ele>2111.0</ele>
        <time>2015-07-25T14:22:19Z</time>
      </trkpt>
      <trkpt lat="40.462267" lon="-5.485833">
        <ele>2108.0</ele>
        <time>2015-07-25T14:22:20Z</time>
      </trkpt>
      <trkpt lat="40.462317" lon="-5.485900">
        <ele>2106.0</ele>
        <time>2015-07-25T14:22:21Z</time>
      </trkpt>
      <trkpt lat="40.462350" lon="-5.485983">
        <ele>2104.0</ele>
        <time>2015-07-25T14:22:22Z</time>
      </trkpt>
      <trkpt lat="40.462383" lon="-5.486067">
        <ele>2103.0</ele>
        <time>2015-07-25T14:22:23Z</time>
      </trkpt>
      <trkpt lat="40.462400" lon="-5.486150">
        <ele>2102.0</ele>
        <time>2015-07-25T14:22:24Z</time>
      </trkpt>
      <trkpt lat="40.462433" lon="-5.486217">
        <ele>2100.0</ele>
        <time>2015-07-25T14:22:25Z</time>
      </trkpt>
      <trkpt lat="40.462467" lon="-5.486283">
        <ele>2097.0</ele>
        <time>2015-07-25T14:22:26Z</time>
      </trkpt>
      <trkpt lat="40.462500" lon="-5.486367">
        <ele>2095.0</ele>
        <time>2015-07-25T14:22:27Z</time>
      </trkpt>
      <trkpt lat="40.462533" lon="-5.486433">
        <ele>2092.0</ele>
        <time>2015-07-25T14:22:28Z</time>
      </trkpt>
      <trkpt lat="40.462583" lon="-5.486517">
        <ele>2090.0</ele>
        <time>2015-07-25T14:22:29Z</time>
      </trkpt>
      <trkpt lat="40.462617" lon="-5.486583">
        <ele>2087.0</ele>
        <time>2015-07-25T14:22:30Z</time>
      </trkpt>
      <trkpt lat="40.462633" lon="-5.486667">
        <ele>2085.0</ele>
        <time>2015-07-25T14:22:31Z</time>
      </trkpt>
      <trkpt lat="40.462667" lon="-5.486733">
        <ele>2082.0</ele>
        <time>2015-07-25T14:22:32Z</time>
      </trkpt>
      <trkpt lat="40.462717" lon="-5.486817">
        <ele>2079.0</ele>
        <time>2015-07-25T14:22:33Z</time>
      </trkpt>
      <trkpt lat="40.462750" lon="-5.486900">
        <ele>2076.0</ele>
        <time>2015-07-25T14:22:34Z</time>
      </trkpt>
      <trkpt lat="40.462800" lon="-5.486967">
        <ele>2075.0</ele>
        <time>2015-07-25T14:22:35Z</time>
      </trkpt>
      <trkpt lat="40.462833" lon="-5.487033">
        <ele>2073.0</ele>
        <time>2015-07-25T14:22:36Z</time>
      </trkpt>
      <trkpt lat="40.462883" lon="-5.487083">
        <ele>2072.0</ele>
        <time>2015-07-25T14:22:37Z</time>
      </trkpt>
      <trkpt lat="40.462900" lon="-5.487150">
        <ele>2069.0</ele>
        <time>2015-07-25T14:22:38Z</time>
      </trkpt>
      <trkpt lat="40.462933" lon="-5.487233">
        <ele>2066.0</ele>
        <time>2015-07-25T14:22:39Z</time>
      </trkpt>
      <trkpt lat="40.462983" lon="-5.487317">
        <ele>2064.0</ele>
        <time>2015-07-25T14:22:40Z</time>
      </trkpt>
      <trkpt lat="40.463017" lon="-5.487400">
        <ele>2062.0</ele>
        <time>2015-07-25T14:22:41Z</time>
      </trkpt>
      <trkpt lat="40.463050" lon="-5.487467">
        <ele>2060.0</ele>
        <time>2015-07-25T14:22:42Z</time>
      </trkpt>
      <trkpt lat="40.463083" lon="-5.487550">
        <ele>2058.0</ele>
        <time>2015-07-25T14:22:43Z</time>
      </trkpt>
      <trkpt lat="40.463117" lon="-5.487633">
        <ele>2056.0</ele>
        <time>2015-07-25T14:22:44Z</time>
      </trkpt>
      <trkpt lat="40.463150" lon="-5.487733">
        <ele>2053.0</ele>
        <time>2015-07-25T14:22:45Z</time>
      </trkpt>
      <trkpt lat="40.463167" lon="-5.487817">
        <ele>2050.0</ele>
        <time>2015-07-25T14:22:46Z</time>
      </trkpt>
      <trkpt lat="40.463200" lon="-5.487917">
        <ele>2047.0</ele>
        <time>2015-07-25T14:22:47Z</time>
      </trkpt>
      <trkpt lat="40.463233" lon="-5.488017">
        <ele>2045.0</ele>
        <time>2015-07-25T14:22:48Z</time>
      </trkpt>
      <trkpt lat="40.463267" lon="-5.488117">
        <ele>2044.0</ele>
        <time>2015-07-25T14:22:49Z</time>
      </trkpt>
      <trkpt lat="40.463283" lon="-5.488200">
        <ele>2042.0</ele>
        <time>2015-07-25T14:22:50Z</time>
      </trkpt>
      <trkpt lat="40.463300" lon="-5.488283">
        <ele>2040.0</ele>
        <time>2015-07-25T14:22:51Z</time>
      </trkpt>
      <trkpt lat="40.463333" lon="-5.488350">
        <ele>2037.0</ele>
        <time>2015-07-25T14:22:52Z</time>
      </trkpt>
      <trkpt lat="40.463367" lon="-5.488433">
        <ele>2034.0</ele>
        <time>2015-07-25T14:22:53Z</time>
      </trkpt>
      <trkpt lat="40.463417" lon="-5.488517">
        <ele>2031.0</ele>
        <time>2015-07-25T14:22:54Z</time>
      </trkpt>
      <trkpt lat="40.463467" lon="-5.488600">
        <ele>2029.0</ele>
        <time>2015-07-25T14:22:55Z</time>
      </trkpt>
      <trkpt lat="40.463517" lon="-5.488667">
        <ele>2027.0</ele>
        <time>2015-07-25T14:22:56Z</time>
      </trkpt>
      <trkpt lat="40.463567" lon="-5.488750">
        <ele>2025.0</ele>
        <time>2015-07-25T14:22:57Z</time>
      </trkpt>
      <trkpt lat="40.463617" lon="-5.488817">
        <ele>2024.0</ele>
        <time>2015-07-25T14:22:58Z</time>
      </trkpt>
      <trkpt lat="40.463667" lon="-5.488883">
        <ele>2023.0</ele>
        <time>2015-07-25T14:22:59Z</time>
      </trkpt>
      <trkpt lat="40.463733" lon="-5.488967">
        <ele>2021.0</ele>
        <time>2015-07-25T14:23:00Z</time>
      </trkpt>
      <trkpt lat="40.463783" lon="-5.489067">
        <ele>2019.0</ele>
        <time>2015-07-25T14:23:01Z</time>
      </trkpt>
      <trkpt lat="40.463833" lon="-5.489150">
        <ele>2017.0</ele>
        <time>2015-07-25T14:23:02Z</time>
      </trkpt>
      <trkpt lat="40.463900" lon="-5.489250">
        <ele>2016.0</ele>
        <time>2015-07-25T14:23:03Z</time>
      </trkpt>
      <trkpt lat="40.463950" lon="-5.489333">
        <ele>2014.0</ele>
        <time>2015-07-25T14:23:04Z</time>
      </trkpt>
      <trkpt lat="40.464000" lon="-5.489433">
        <ele>2013.0</ele>
        <time>2015-07-25T14:23:05Z</time>
      </trkpt>
      <trkpt lat="40.464050" lon="-5.489500">
        <ele>2012.0</ele>
        <time>2015-07-25T14:23:06Z</time>
      </trkpt>
      <trkpt lat="40.464083" lon="-5.489583">
        <ele>2010.0</ele>
        <time>2015-07-25T14:23:07Z</time>
      </trkpt>
      <trkpt lat="40.464133" lon="-5.489667">
        <ele>2008.0</ele>
        <time>2015-07-25T14:23:08Z</time>
      </trkpt>
      <trkpt lat="40.464183" lon="-5.489767">
        <ele>2005.0</ele>
        <time>2015-07-25T14:23:09Z</time>
      </trkpt>
      <trkpt lat="40.464233" lon="-5.489867">
        <ele>2003.0</ele>
        <time>2015-07-25T14:23:10Z</time>
      </trkpt>
      <trkpt lat="40.464283" lon="-5.489950">
        <ele>2001.0</ele>
        <time>2015-07-25T14:23:11Z</time>
      </trkpt>
      <trkpt lat="40.464350" lon="-5.490017">
        <ele>2000.0</ele>
        <time>2015-07-25T14:23:12Z</time>
      </trkpt>
      <trkpt lat="40.464400" lon="-5.490067">
        <ele>2000.0</ele>
        <time>2015-07-25T14:23:13Z</time>
      </trkpt>
      <trkpt lat="40.464467" lon="-5.490133">
        <ele>1999.0</ele>
        <time>2015-07-25T14:23:14Z</time>
      </trkpt>
      <trkpt lat="40.464517" lon="-5.490183">
        <ele>1998.0</ele>
        <time>2015-07-25T14:23:15Z</time>
      </trkpt>
      <trkpt lat="40.464567" lon="-5.490250">
        <ele>1997.0</ele>
        <time>2015-07-25T14:23:16Z</time>
      </trkpt>
      <trkpt lat="40.464633" lon="-5.490333">
        <ele>1996.0</ele>
        <time>2015-07-25T14:23:17Z</time>
      </trkpt>
      <trkpt lat="40.464700" lon="-5.490400">
        <ele>1995.0</ele>
        <time>2015-07-25T14:23:18Z</time>
      </trkpt>
      <trkpt lat="40.464767" lon="-5.490450">
        <ele>1995.0</ele>
        <time>2015-07-25T14:23:19Z</time>
      </trkpt>
      <trkpt lat="40.464833" lon="-5.490500">
        <ele>1995.0</ele>
        <time>2015-07-25T14:23:20Z</time>
      </trkpt>
      <trkpt lat="40.464883" lon="-5.490533">
        <ele>1993.0</ele>
        <time>2015-07-25T14:23:21Z</time>
      </trkpt>
      <trkpt lat="40.464950" lon="-5.490583">
        <ele>1992.0</ele>
        <time>2015-07-25T14:23:22Z</time>
      </trkpt>
      <trkpt lat="40.465000" lon="-5.490633">
        <ele>1989.0</ele>
        <time>2015-07-25T14:23:23Z</time>
      </trkpt>
      <trkpt lat="40.465083" lon="-5.490683">
        <ele>1987.0</ele>
        <time>2015-07-25T14:23:24Z</time>
      </trkpt>
      <trkpt lat="40.465150" lon="-5.490733">
        <ele>1986.0</ele>
        <time>2015-07-25T14:23:25Z</time>
      </trkpt>
      <trkpt lat="40.465200" lon="-5.490800">
        <ele>1985.0</ele>
        <time>2015-07-25T14:23:26Z</time>
      </trkpt>
      <trkpt lat="40.465250" lon="-5.490867">
        <ele>1984.0</ele>
        <time>2015-07-25T14:23:27Z</time>
      </trkpt>
      <trkpt lat="40.465283" lon="-5.490933">
        <ele>1982.0</ele>
        <time>2015-07-25T14:23:28Z</time>
      </trkpt>
      <trkpt lat="40.465333" lon="-5.491017">
        <ele>1980.0</ele>
        <time>2015-07-25T14:23:29Z</time>
      </trkpt>
      <trkpt lat="40.465383" lon="-5.491100">
        <ele>1979.0</ele>
        <time>2015-07-25T14:23:30Z</time>
      </trkpt>
      <trkpt lat="40.465433" lon="-5.491167">
        <ele>1978.0</ele>
        <time>2015-07-25T14:23:31Z</time>
      </trkpt>
      <trkpt lat="40.465483" lon="-5.491217">
        <ele>1979.0</ele>
        <time>2015-07-25T14:23:32Z</time>
      </trkpt>
      <trkpt lat="40.465517" lon="-5.491267">
        <ele>1979.0</ele>
        <time>2015-07-25T14:23:33Z</time>
      </trkpt>
      <trkpt lat="40.465550" lon="-5.491333">
        <ele>1979.0</ele>
        <time>2015-07-25T14:23:34Z</time>
      </trkpt>
      <trkpt lat="40.465583" lon="-5.491383">
        <ele>1977.0</ele>
        <time>2015-07-25T14:23:35Z</time>
      </trkpt>
      <trkpt lat="40.465617" lon="-5.491450">
        <ele>1975.0</ele>
        <time>2015-07-25T14:23:36Z</time>
      </trkpt>
      <trkpt lat="40.465667" lon="-5.491517">
        <ele>1972.0</ele>
        <time>2015-07-25T14:23:37Z</time>
      </trkpt>
      <trkpt lat="40.465717" lon="-5.491583">
        <ele>1971.0</ele>
        <time>2015-07-25T14:23:38Z</time>
      </trkpt>
      <trkpt lat="40.465767" lon="-5.491667">
        <ele>1970.0</ele>
        <time>2015-07-25T14:23:39Z</time>
      </trkpt>
      <trkpt lat="40.465800" lon="-5.491717">
        <ele>1970.0</ele>
        <time>2015-07-25T14:23:40Z</time>
      </trkpt>
      <trkpt lat="40.465850" lon="-5.491767">
        <ele>1969.0</ele>
        <time>2015-07-25T14:23:41Z</time>
      </trkpt>
      <trkpt lat="40.465883" lon="-5.491817">
        <ele>1967.0</ele>
        <time>2015-07-25T14:23:42Z</time>
      </trkpt>
      <trkpt lat="40.465933" lon="-5.491883">
        <ele>1964.0</ele>
        <time>2015-07-25T14:23:43Z</time>
      </trkpt>
      <trkpt lat="40.465967" lon="-5.491950">
        <ele>1962.0</ele>
        <time>2015-07-25T14:23:44Z</time>
      </trkpt>
      <trkpt lat="40.466017" lon="-5.492017">
        <ele>1960.0</ele>
        <time>2015-07-25T14:23:45Z</time>
      </trkpt>
      <trkpt lat="40.466050" lon="-5.492083">
        <ele>1960.0</ele>
        <time>2015-07-25T14:23:46Z</time>
      </trkpt>
      <trkpt lat="40.466100" lon="-5.492150">
        <ele>1959.0</ele>
        <time>2015-07-25T14:23:47Z</time>
      </trkpt>
      <trkpt lat="40.466117" lon="-5.492200">
        <ele>1959.0</ele>
        <time>2015-07-25T14:23:48Z</time>
      </trkpt>
      <trkpt lat="40.466150" lon="-5.492283">
        <ele>1958.0</ele>
        <time>2015-07-25T14:23:49Z</time>
      </trkpt>
      <trkpt lat="40.466183" lon="-5.492350">
        <ele>1957.0</ele>
        <time>2015-07-25T14:23:50Z</time>
      </trkpt>
      <trkpt lat="40.466217" lon="-5.492417">
        <ele>1956.0</ele>
        <time>2015-07-25T14:23:51Z</time>
      </trkpt>
      <trkpt lat="40.466267" lon="-5.492483">
        <ele>1956.0</ele>
        <time>2015-07-25T14:23:52Z</time>
      </trkpt>
      <trkpt lat="40.466300" lon="-5.492550">
        <ele>1956.0</ele>
        <time>2015-07-25T14:23:53Z</time>
      </trkpt>
      <trkpt lat="40.466350" lon="-5.492617">
        <ele>1955.0</ele>
        <time>2015-07-25T14:23:54Z</time>
      </trkpt>
      <trkpt lat="40.466383" lon="-5.492683">
        <ele>1954.0</ele>
        <time>2015-07-25T14:23:55Z</time>
      </trkpt>
      <trkpt lat="40.466433" lon="-5.492767">
        <ele>1952.0</ele>
        <time>2015-07-25T14:23:56Z</time>
      </trkpt>
      <trkpt lat="40.466467" lon="-5.492833">
        <ele>1951.0</ele>
        <time>2015-07-25T14:23:57Z</time>
      </trkpt>
      <trkpt lat="40.466517" lon="-5.492900">
        <ele>1951.0</ele>
        <time>2015-07-25T14:23:58Z</time>
      </trkpt>
      <trkpt lat="40.466550" lon="-5.492967">
        <ele>1951.0</ele>
        <time>2015-07-25T14:23:59Z</time>
      </trkpt>
      <trkpt lat="40.466600" lon="-5.493033">
        <ele>1952.0</ele>
        <time>2015-07-25T14:24:00Z</time>
      </trkpt>
      <trkpt lat="40.466617" lon="-5.493117">
        <ele>1952.0</ele>
        <time>2015-07-25T14:24:01Z</time>
      </trkpt>
      <trkpt lat="40.466650" lon="-5.493183">
        <ele>1952.0</ele>
        <time>2015-07-25T14:24:02Z</time>
      </trkpt>
      <trkpt lat="40.466683" lon="-5.493267">
        <ele>1952.0</ele>
        <time>2015-07-25T14:24:03Z</time>
      </trkpt>
      <trkpt lat="40.466717" lon="-5.493333">
        <ele>1952.0</ele>
        <time>2015-07-25T14:24:04Z</time>
      </trkpt>
      <trkpt lat="40.466750" lon="-5.493417">
        <ele>1951.0</ele>
        <time>2015-07-25T14:24:05Z</time>
      </trkpt>
      <trkpt lat="40.466783" lon="-5.493483">
        <ele>1950.0</ele>
        <time>2015-07-25T14:24:06Z</time>
      </trkpt>
      <trkpt lat="40.466833" lon="-5.493567">
        <ele>1949.0</ele>
        <time>2015-07-25T14:24:07Z</time>
      </trkpt>
      <trkpt lat="40.466867" lon="-5.493633">
        <ele>1948.0</ele>
        <time>2015-07-25T14:24:08Z</time>
      </trkpt>
      <trkpt lat="40.466933" lon="-5.493683">
        <ele>1947.0</ele>
        <time>2015-07-25T14:24:09Z</time>
      </trkpt>
      <trkpt lat="40.466983" lon="-5.493750">
        <ele>1946.0</ele>
        <time>2015-07-25T14:24:10Z</time>
      </trkpt>
      <trkpt lat="40.467033" lon="-5.493800">
        <ele>1945.0</ele>
        <time>2015-07-25T14:24:11Z</time>
      </trkpt>
      <trkpt lat="40.467100" lon="-5.493850">
        <ele>1944.0</ele>
        <time>2015-07-25T14:24:12Z</time>
      </trkpt>
      <trkpt lat="40.467150" lon="-5.493917">
        <ele>1943.0</ele>
        <time>2015-07-25T14:24:13Z</time>
      </trkpt>
      <trkpt lat="40.467200" lon="-5.493983">
        <ele>1941.0</ele>
        <time>2015-07-25T14:24:14Z</time>
      </trkpt>
      <trkpt lat="40.467233" lon="-5.494033">
        <ele>1939.0</ele>
        <time>2015-07-25T14:24:15Z</time>
      </trkpt>
      <trkpt lat="40.467283" lon="-5.494100">
        <ele>1937.0</ele>
        <time>2015-07-25T14:24:16Z</time>
      </trkpt>
      <trkpt lat="40.467333" lon="-5.494167">
        <ele>1934.0</ele>
        <time>2015-07-25T14:24:17Z</time>
      </trkpt>
      <trkpt lat="40.467383" lon="-5.494233">
        <ele>1930.0</ele>
        <time>2015-07-25T14:24:18Z</time>
      </trkpt>
      <trkpt lat="40.467433" lon="-5.494317">
        <ele>1927.0</ele>
        <time>2015-07-25T14:24:19Z</time>
      </trkpt>
      <trkpt lat="40.467500" lon="-5.494383">
        <ele>1925.0</ele>
        <time>2015-07-25T14:24:20Z</time>
      </trkpt>
      <trkpt lat="40.467550" lon="-5.494450">
        <ele>1924.0</ele>
        <time>2015-07-25T14:24:21Z</time>
      </trkpt>
      <trkpt lat="40.467583" lon="-5.494517">
        <ele>1923.0</ele>
        <time>2015-07-25T14:24:22Z</time>
      </trkpt>
      <trkpt lat="40.467633" lon="-5.494583">
        <ele>1922.0</ele>
        <time>2015-07-25T14:24:23Z</time>
      </trkpt>
      <trkpt lat="40.467683" lon="-5.494667">
        <ele>1920.0</ele>
        <time>2015-07-25T14:24:24Z</time>
      </trkpt>
      <trkpt lat="40.467717" lon="-5.494767">
        <ele>1918.0</ele>
        <time>2015-07-25T14:24:25Z</time>
      </trkpt>
      <trkpt lat="40.467750" lon="-5.494867">
        <ele>1918.0</ele>
        <time>2015-07-25T14:24:26Z</time>
      </trkpt>
      <trkpt lat="40.467800" lon="-5.494967">
        <ele>1918.0</ele>
        <time>2015-07-25T14:24:27Z</time>
      </trkpt>
      <trkpt lat="40.467817" lon="-5.495067">
        <ele>1917.0</ele>
        <time>2015-07-25T14:24:28Z</time>
      </trkpt>
      <trkpt lat="40.467850" lon="-5.495150">
        <ele>1916.0</ele>
        <time>2015-07-25T14:24:29Z</time>
      </trkpt>
      <trkpt lat="40.467883" lon="-5.495233">
        <ele>1914.0</ele>
        <time>2015-07-25T14:24:30Z</time>
      </trkpt>
      <trkpt lat="40.467933" lon="-5.495333">
        <ele>1911.0</ele>
        <time>2015-07-25T14:24:31Z</time>
      </trkpt>
      <trkpt lat="40.467967" lon="-5.495433">
        <ele>1909.0</ele>
        <time>2015-07-25T14:24:32Z</time>
      </trkpt>
      <trkpt lat="40.468000" lon="-5.495567">
        <ele>1907.0</ele>
        <time>2015-07-25T14:24:33Z</time>
      </trkpt>
      <trkpt lat="40.468033" lon="-5.495700">
        <ele>1906.0</ele>
        <time>2015-07-25T14:24:34Z</time>
      </trkpt>
      <trkpt lat="40.468050" lon="-5.495833">
        <ele>1906.0</ele>
        <time>2015-07-25T14:24:35Z</time>
      </trkpt>
      <trkpt lat="40.468067" lon="-5.495950">
        <ele>1906.0</ele>
        <time>2015-07-25T14:24:36Z</time>
      </trkpt>
      <trkpt lat="40.468083" lon="-5.496067">
        <ele>1905.0</ele>
        <time>2015-07-25T14:24:37Z</time>
      </trkpt>
      <trkpt lat="40.468117" lon="-5.496167">
        <ele>1904.0</ele>
        <time>2015-07-25T14:24:38Z</time>
      </trkpt>
      <trkpt lat="40.468150" lon="-5.496283">
        <ele>1903.0</ele>
        <time>2015-07-25T14:24:39Z</time>
      </trkpt>
      <trkpt lat="40.468183" lon="-5.496400">
        <ele>1902.0</ele>
        <time>2015-07-25T14:24:40Z</time>
      </trkpt>
      <trkpt lat="40.468200" lon="-5.496533">
        <ele>1902.0</ele>
        <time>2015-07-25T14:24:41Z</time>
      </trkpt>
      <trkpt lat="40.468233" lon="-5.496650">
        <ele>1902.0</ele>
        <time>2015-07-25T14:24:42Z</time>
      </trkpt>
      <trkpt lat="40.468250" lon="-5.496733">
        <ele>1901.0</ele>
        <time>2015-07-25T14:24:43Z</time>
      </trkpt>
      <trkpt lat="40.468283" lon="-5.496817">
        <ele>1900.0</ele>
        <time>2015-07-25T14:24:44Z</time>
      </trkpt>
      <trkpt lat="40.468333" lon="-5.496917">
        <ele>1899.0</ele>
        <time>2015-07-25T14:24:45Z</time>
      </trkpt>
      <trkpt lat="40.468367" lon="-5.497033">
        <ele>1898.0</ele>
        <time>2015-07-25T14:24:46Z</time>
      </trkpt>
      <trkpt lat="40.468417" lon="-5.497133">
        <ele>1899.0</ele>
        <time>2015-07-25T14:24:47Z</time>
      </trkpt>
      <trkpt lat="40.468467" lon="-5.497200">
        <ele>1901.0</ele>
        <time>2015-07-25T14:24:48Z</time>
      </trkpt>
      <trkpt lat="40.468500" lon="-5.497233">
        <ele>1901.0</ele>
        <time>2015-07-25T14:24:49Z</time>
      </trkpt>
      <trkpt lat="40.468517" lon="-5.497267">
        <ele>1900.0</ele>
        <time>2015-07-25T14:24:50Z</time>
      </trkpt>
      <trkpt lat="40.468533" lon="-5.497317">
        <ele>1899.0</ele>
        <time>2015-07-25T14:24:51Z</time>
      </trkpt>
      <trkpt lat="40.468550" lon="-5.497400">
        <ele>1897.0</ele>
        <time>2015-07-25T14:24:52Z</time>
      </trkpt>
      <trkpt lat="40.468550" lon="-5.497517">
        <ele>1895.0</ele>
        <time>2015-07-25T14:24:53Z</time>
      </trkpt>
      <trkpt lat="40.468567" lon="-5.497617">
        <ele>1893.0</ele>
        <time>2015-07-25T14:24:54Z</time>
      </trkpt>
      <trkpt lat="40.468600" lon="-5.497700">
        <ele>1892.0</ele>
        <time>2015-07-25T14:24:55Z</time>
      </trkpt>
      <trkpt lat="40.468633" lon="-5.497767">
        <ele>1891.0</ele>
        <time>2015-07-25T14:24:56Z</time>
      </trkpt>
      <trkpt lat="40.468683" lon="-5.497817">
        <ele>1890.0</ele>
        <time>2015-07-25T14:24:57Z</time>
      </trkpt>
      <trkpt lat="40.468733" lon="-5.497883">
        <ele>1890.0</ele>
        <time>2015-07-25T14:24:58Z</time>
      </trkpt>
      <trkpt lat="40.468783" lon="-5.497933">
        <ele>1890.0</ele>
        <time>2015-07-25T14:24:59Z</time>
      </trkpt>
      <trkpt lat="40.468817" lon="-5.498000">
        <ele>1890.0</ele>
        <time>2015-07-25T14:25:00Z</time>
      </trkpt>
      <trkpt lat="40.468867" lon="-5.498033">
        <ele>1890.0</ele>
        <time>2015-07-25T14:25:01Z</time>
      </trkpt>
      <trkpt lat="40.468917" lon="-5.498083">
        <ele>1889.0</ele>
        <time>2015-07-25T14:25:02Z</time>
      </trkpt>
      <trkpt lat="40.468967" lon="-5.498133">
        <ele>1888.0</ele>
        <time>2015-07-25T14:25:03Z</time>
      </trkpt>
      <trkpt lat="40.469017" lon="-5.498167">
        <ele>1887.0</ele>
        <time>2015-07-25T14:25:04Z</time>
      </trkpt>
      <trkpt lat="40.469083" lon="-5.498217">
        <ele>1886.0</ele>
        <time>2015-07-25T14:25:05Z</time>
      </trkpt>
      <trkpt lat="40.469133" lon="-5.498250">
        <ele>1884.0</ele>
        <time>2015-07-25T14:25:06Z</time>
      </trkpt>
      <trkpt lat="40.469200" lon="-5.498283">
        <ele>1883.0</ele>
        <time>2015-07-25T14:25:07Z</time>
      </trkpt>
      <trkpt lat="40.469267" lon="-5.498317">
        <ele>1881.0</ele>
        <time>2015-07-25T14:25:08Z</time>
      </trkpt>
      <trkpt lat="40.469317" lon="-5.498367">
        <ele>1881.0</ele>
        <time>2015-07-25T14:25:09Z</time>
      </trkpt>
      <trkpt lat="40.469367" lon="-5.498417">
        <ele>1880.0</ele>
        <time>2015-07-25T14:25:10Z</time>
      </trkpt>
      <trkpt lat="40.469400" lon="-5.498450">
        <ele>1880.0</ele>
        <time>2015-07-25T14:25:11Z</time>
      </trkpt>
      <trkpt lat="40.469450" lon="-5.498467">
        <ele>1878.0</ele>
        <time>2015-07-25T14:25:12Z</time>
      </trkpt>
      <trkpt lat="40.469517" lon="-5.498467">
        <ele>1876.0</ele>
        <time>2015-07-25T14:25:13Z</time>
      </trkpt>
      <trkpt lat="40.469583" lon="-5.498467">
        <ele>1872.0</ele>
        <time>2015-07-25T14:25:14Z</time>
      </trkpt>
      <trkpt lat="40.469650" lon="-5.498483">
        <ele>1869.0</ele>
        <time>2015-07-25T14:25:15Z</time>
      </trkpt>
      <trkpt lat="40.469700" lon="-5.498500">
        <ele>1867.0</ele>
        <time>2015-07-25T14:25:16Z</time>
      </trkpt>
      <trkpt lat="40.469750" lon="-5.498500">
        <ele>1867.0</ele>
        <time>2015-07-25T14:25:17Z</time>
      </trkpt>
      <trkpt lat="40.469800" lon="-5.498483">
        <ele>1867.0</ele>
        <time>2015-07-25T14:25:18Z</time>
      </trkpt>
      <trkpt lat="40.469850" lon="-5.498450">
        <ele>1866.0</ele>
        <time>2015-07-25T14:25:19Z</time>
      </trkpt>
      <trkpt lat="40.469883" lon="-5.498400">
        <ele>1866.0</ele>
        <time>2015-07-25T14:25:20Z</time>
      </trkpt>
      <trkpt lat="40.469917" lon="-5.498383">
        <ele>1865.0</ele>
        <time>2015-07-25T14:25:21Z</time>
      </trkpt>
      <trkpt lat="40.469950" lon="-5.498400">
        <ele>1864.0</ele>
        <time>2015-07-25T14:25:22Z</time>
      </trkpt>
      <trkpt lat="40.469983" lon="-5.498417">
        <ele>1863.0</ele>
        <time>2015-07-25T14:25:23Z</time>
      </trkpt>
      <trkpt lat="40.470017" lon="-5.498433">
        <ele>1863.0</ele>
        <time>2015-07-25T14:25:24Z</time>
      </trkpt>
      <trkpt lat="40.470067" lon="-5.498450">
        <ele>1863.0</ele>
        <time>2015-07-25T14:25:25Z</time>
      </trkpt>
      <trkpt lat="40.470100" lon="-5.498450">
        <ele>1864.0</ele>
        <time>2015-07-25T14:25:26Z</time>
      </trkpt>
      <trkpt lat="40.470133" lon="-5.498467">
        <ele>1863.0</ele>
        <time>2015-07-25T14:25:27Z</time>
      </trkpt>
      <trkpt lat="40.470167" lon="-5.498467">
        <ele>1861.0</ele>
        <time>2015-07-25T14:25:28Z</time>
      </trkpt>
      <trkpt lat="40.470200" lon="-5.498467">
        <ele>1859.0</ele>
        <time>2015-07-25T14:25:29Z</time>
      </trkpt>
      <trkpt lat="40.470250" lon="-5.498483">
        <ele>1856.0</ele>
        <time>2015-07-25T14:25:30Z</time>
      </trkpt>
      <trkpt lat="40.470317" lon="-5.498517">
        <ele>1854.0</ele>
        <time>2015-07-25T14:25:31Z</time>
      </trkpt>
      <trkpt lat="40.470367" lon="-5.498550">
        <ele>1852.0</ele>
        <time>2015-07-25T14:25:32Z</time>
      </trkpt>
      <trkpt lat="40.470433" lon="-5.498567">
        <ele>1851.0</ele>
        <time>2015-07-25T14:25:33Z</time>
      </trkpt>
      <trkpt lat="40.470483" lon="-5.498567">
        <ele>1851.0</ele>
        <time>2015-07-25T14:25:34Z</time>
      </trkpt>
      <trkpt lat="40.470550" lon="-5.498550">
        <ele>1850.0</ele>
        <time>2015-07-25T14:25:35Z</time>
      </trkpt>
      <trkpt lat="40.470617" lon="-5.498517">
        <ele>1848.0</ele>
        <time>2015-07-25T14:25:36Z</time>
      </trkpt>
      <trkpt lat="40.470683" lon="-5.498483">
        <ele>1847.0</ele>
        <time>2015-07-25T14:25:37Z</time>
      </trkpt>
      <trkpt lat="40.470733" lon="-5.498467">
        <ele>1845.0</ele>
        <time>2015-07-25T14:25:38Z</time>
      </trkpt>
      <trkpt lat="40.470800" lon="-5.498450">
        <ele>1842.0</ele>
        <time>2015-07-25T14:25:39Z</time>
      </trkpt>
      <trkpt lat="40.470867" lon="-5.498450">
        <ele>1840.0</ele>
        <time>2015-07-25T14:25:40Z</time>
      </trkpt>
      <trkpt lat="40.470950" lon="-5.498450">
        <ele>1837.0</ele>
        <time>2015-07-25T14:25:41Z</time>
      </trkpt>
      <trkpt lat="40.471017" lon="-5.498467">
        <ele>1836.0</ele>
        <time>2015-07-25T14:25:42Z</time>
      </trkpt>
      <trkpt lat="40.471083" lon="-5.498500">
        <ele>1835.0</ele>
        <time>2015-07-25T14:25:43Z</time>
      </trkpt>
      <trkpt lat="40.471117" lon="-5.498533">
        <ele>1835.0</ele>
        <time>2015-07-25T14:25:44Z</time>
      </trkpt>
      <trkpt lat="40.471133" lon="-5.498567">
        <ele>1833.0</ele>
        <time>2015-07-25T14:25:45Z</time>
      </trkpt>
      <trkpt lat="40.471183" lon="-5.498600">
        <ele>1830.0</ele>
        <time>2015-07-25T14:25:46Z</time>
      </trkpt>
      <trkpt lat="40.471217" lon="-5.498633">
        <ele>1826.0</ele>
        <time>2015-07-25T14:25:47Z</time>
      </trkpt>
      <trkpt lat="40.471283" lon="-5.498683">
        <ele>1823.0</ele>
        <time>2015-07-25T14:25:48Z</time>
      </trkpt>
      <trkpt lat="40.471350" lon="-5.498750">
        <ele>1821.0</ele>
        <time>2015-07-25T14:25:49Z</time>
      </trkpt>
      <trkpt lat="40.471400" lon="-5.498800">
        <ele>1821.0</ele>
        <time>2015-07-25T14:25:50Z</time>
      </trkpt>
      <trkpt lat="40.471450" lon="-5.498850">
        <ele>1822.0</ele>
        <time>2015-07-25T14:25:51Z</time>
      </trkpt>
      <trkpt lat="40.471483" lon="-5.498883">
        <ele>1822.0</ele>
        <time>2015-07-25T14:25:52Z</time>
      </trkpt>
      <trkpt lat="40.471533" lon="-5.498917">
        <ele>1821.0</ele>
        <time>2015-07-25T14:25:53Z</time>
      </trkpt>
      <trkpt lat="40.471583" lon="-5.498933">
        <ele>1820.0</ele>
        <time>2015-07-25T14:25:54Z</time>
      </trkpt>
      <trkpt lat="40.471633" lon="-5.498967">
        <ele>1818.0</ele>
        <time>2015-07-25T14:25:55Z</time>
      </trkpt>
      <trkpt lat="40.471683" lon="-5.498983">
        <ele>1817.0</ele>
        <time>2015-07-25T14:25:56Z</time>
      </trkpt>
      <trkpt lat="40.471750" lon="-5.499033">
        <ele>1817.0</ele>
        <time>2015-07-25T14:25:57Z</time>
      </trkpt>
      <trkpt lat="40.471800" lon="-5.499083">
        <ele>1818.0</ele>
        <time>2015-07-25T14:25:58Z</time>
      </trkpt>
      <trkpt lat="40.471833" lon="-5.499133">
        <ele>1819.0</ele>
        <time>2015-07-25T14:25:59Z</time>
      </trkpt>
      <trkpt lat="40.471883" lon="-5.499167">
        <ele>1820.0</ele>
        <time>2015-07-25T14:26:00Z</time>
      </trkpt>
      <trkpt lat="40.471917" lon="-5.499217">
        <ele>1820.0</ele>
        <time>2015-07-25T14:26:01Z</time>
      </trkpt>
      <trkpt lat="40.471950" lon="-5.499250">
        <ele>1821.0</ele>
        <time>2015-07-25T14:26:02Z</time>
      </trkpt>
      <trkpt lat="40.472000" lon="-5.499283">
        <ele>1821.0</ele>
        <time>2015-07-25T14:26:03Z</time>
      </trkpt>
      <trkpt lat="40.472050" lon="-5.499333">
        <ele>1822.0</ele>
        <time>2015-07-25T14:26:04Z</time>
      </trkpt>
      <trkpt lat="40.472083" lon="-5.499367">
        <ele>1823.0</ele>
        <time>2015-07-25T14:26:05Z</time>
      </trkpt>
      <trkpt lat="40.472117" lon="-5.499367">
        <ele>1823.0</ele>
        <time>2015-07-25T14:26:06Z</time>
      </trkpt>
      <trkpt lat="40.472167" lon="-5.499350">
        <ele>1823.0</ele>
        <time>2015-07-25T14:26:07Z</time>
      </trkpt>
      <trkpt lat="40.472200" lon="-5.499283">
        <ele>1823.0</ele>
        <time>2015-07-25T14:26:08Z</time>
      </trkpt>
      <trkpt lat="40.472233" lon="-5.499183">
        <ele>1823.0</ele>
        <time>2015-07-25T14:26:09Z</time>
      </trkpt>
      <trkpt lat="40.472233" lon="-5.499067">
        <ele>1824.0</ele>
        <time>2015-07-25T14:26:10Z</time>
      </trkpt>
      <trkpt lat="40.472217" lon="-5.498933">
        <ele>1824.0</ele>
        <time>2015-07-25T14:26:11Z</time>
      </trkpt>
      <trkpt lat="40.472150" lon="-5.498800">
        <ele>1824.0</ele>
        <time>2015-07-25T14:26:12Z</time>
      </trkpt>
      <trkpt lat="40.472067" lon="-5.498683">
        <ele>1824.0</ele>
        <time>2015-07-25T14:26:13Z</time>
      </trkpt>
      <trkpt lat="40.471950" lon="-5.498600">
        <ele>1824.0</ele>
        <time>2015-07-25T14:26:14Z</time>
      </trkpt>
      <trkpt lat="40.471817" lon="-5.498550">
        <ele>1823.0</ele>
        <time>2015-07-25T14:26:15Z</time>
      </trkpt>
      <trkpt lat="40.471683" lon="-5.498550">
        <ele>1823.0</ele>
        <time>2015-07-25T14:26:16Z</time>
      </trkpt>
      <trkpt lat="40.471550" lon="-5.498583">
        <ele>1823.0</ele>
        <time>2015-07-25T14:26:17Z</time>
      </trkpt>
      <trkpt lat="40.471450" lon="-5.498650">
        <ele>1824.0</ele>
        <time>2015-07-25T14:26:18Z</time>
      </trkpt>
      <trkpt lat="40.471350" lon="-5.498733">
        <ele>1824.0</ele>
        <time>2015-07-25T14:26:19Z</time>
      </trkpt>
      <trkpt lat="40.471267" lon="-5.498817">
        <ele>1824.0</ele>
        <time>2015-07-25T14:26:20Z</time>
      </trkpt>
      <trkpt lat="40.471183" lon="-5.498917">
        <ele>1823.0</ele>
        <time>2015-07-25T14:26:21Z</time>
      </trkpt>
      <trkpt lat="40.471100" lon="-5.499017">
        <ele>1822.0</ele>
        <time>2015-07-25T14:26:22Z</time>
      </trkpt>
      <trkpt lat="40.471050" lon="-5.499133">
        <ele>1822.0</ele>
        <time>2015-07-25T14:26:23Z</time>
      </trkpt>
      <trkpt lat="40.471000" lon="-5.499267">
        <ele>1822.0</ele>
        <time>2015-07-25T14:26:24Z</time>
      </trkpt>
      <trkpt lat="40.470983" lon="-5.499400">
        <ele>1822.0</ele>
        <time>2015-07-25T14:26:25Z</time>
      </trkpt>
      <trkpt lat="40.470967" lon="-5.499517">
        <ele>1822.0</ele>
        <time>2015-07-25T14:26:26Z</time>
      </trkpt>
      <trkpt lat="40.470933" lon="-5.499617">
        <ele>1823.0</ele>
        <time>2015-07-25T14:26:27Z</time>
      </trkpt>
      <trkpt lat="40.470900" lon="-5.499733">
        <ele>1823.0</ele>
        <time>2015-07-25T14:26:28Z</time>
      </trkpt>
      <trkpt lat="40.470850" lon="-5.499833">
        <ele>1822.0</ele>
        <time>2015-07-25T14:26:29Z</time>
      </trkpt>
      <trkpt lat="40.470817" lon="-5.499950">
        <ele>1819.0</ele>
        <time>2015-07-25T14:26:30Z</time>
      </trkpt>
      <trkpt lat="40.470800" lon="-5.500050">
        <ele>1817.0</ele>
        <time>2015-07-25T14:26:31Z</time>
      </trkpt>
      <trkpt lat="40.470783" lon="-5.500150">
        <ele>1815.0</ele>
        <time>2015-07-25T14:26:32Z</time>
      </trkpt>
      <trkpt lat="40.470767" lon="-5.500250">
        <ele>1812.0</ele>
        <time>2015-07-25T14:26:33Z</time>
      </trkpt>
      <trkpt lat="40.470767" lon="-5.500317">
        <ele>1810.0</ele>
        <time>2015-07-25T14:26:34Z</time>
      </trkpt>
      <trkpt lat="40.470783" lon="-5.500367">
        <ele>1806.0</ele>
        <time>2015-07-25T14:26:35Z</time>
      </trkpt>
      <trkpt lat="40.470817" lon="-5.500400">
        <ele>1802.0</ele>
        <time>2015-07-25T14:26:36Z</time>
      </trkpt>
      <trkpt lat="40.470867" lon="-5.500417">
        <ele>1799.0</ele>
        <time>2015-07-25T14:26:37Z</time>
      </trkpt>
      <trkpt lat="40.470933" lon="-5.500433">
        <ele>1798.0</ele>
        <time>2015-07-25T14:26:38Z</time>
      </trkpt>
      <trkpt lat="40.471000" lon="-5.500450">
        <ele>1797.0</ele>
        <time>2015-07-25T14:26:39Z</time>
      </trkpt>
      <trkpt lat="40.471050" lon="-5.500483">
        <ele>1796.0</ele>
        <time>2015-07-25T14:26:40Z</time>
      </trkpt>
      <trkpt lat="40.471100" lon="-5.500517">
        <ele>1797.0</ele>
        <time>2015-07-25T14:26:41Z</time>
      </trkpt>
      <trkpt lat="40.471133" lon="-5.500550">
        <ele>1797.0</ele>
        <time>2015-07-25T14:26:42Z</time>
      </trkpt>
      <trkpt lat="40.471183" lon="-5.500533">
        <ele>1796.0</ele>
        <time>2015-07-25T14:26:43Z</time>
      </trkpt>
      <trkpt lat="40.471250" lon="-5.500533">
        <ele>1797.0</ele>
        <time>2015-07-25T14:26:44Z</time>
      </trkpt>
      <trkpt lat="40.471300" lon="-5.500550">
        <ele>1797.0</ele>
        <time>2015-07-25T14:26:45Z</time>
      </trkpt>
      <trkpt lat="40.471350" lon="-5.500583">
        <ele>1799.0</ele>
        <time>2015-07-25T14:26:46Z</time>
      </trkpt>
      <trkpt lat="40.471383" lon="-5.500633">
        <ele>1801.0</ele>
        <time>2015-07-25T14:26:47Z</time>
      </trkpt>
      <trkpt lat="40.471400" lon="-5.500683">
        <ele>1803.0</ele>
        <time>2015-07-25T14:26:48Z</time>
      </trkpt>
      <trkpt lat="40.471433" lon="-5.500717">
        <ele>1804.0</ele>
        <time>2015-07-25T14:26:49Z</time>
      </trkpt>
      <trkpt lat="40.471450" lon="-5.500733">
        <ele>1805.0</ele>
        <time>2015-07-25T14:26:50Z</time>
      </trkpt>
      <trkpt lat="40.471483" lon="-5.500733">
        <ele>1805.0</ele>
        <time>2015-07-25T14:26:51Z</time>
      </trkpt>
      <trkpt lat="40.471533" lon="-5.500700">
        <ele>1804.0</ele>
        <time>2015-07-25T14:26:52Z</time>
      </trkpt>
      <trkpt lat="40.471583" lon="-5.500633">
        <ele>1803.0</ele>
        <time>2015-07-25T14:26:53Z</time>
      </trkpt>
      <trkpt lat="40.471600" lon="-5.500500">
        <ele>1802.0</ele>
        <time>2015-07-25T14:26:54Z</time>
      </trkpt>
      <trkpt lat="40.471617" lon="-5.500350">
        <ele>1801.0</ele>
        <time>2015-07-25T14:26:55Z</time>
      </trkpt>
      <trkpt lat="40.471583" lon="-5.500200">
        <ele>1802.0</ele>
        <time>2015-07-25T14:26:56Z</time>
      </trkpt>
      <trkpt lat="40.471517" lon="-5.500050">
        <ele>1804.0</ele>
        <time>2015-07-25T14:26:57Z</time>
      </trkpt>
      <trkpt lat="40.471417" lon="-5.499950">
        <ele>1804.0</ele>
        <time>2015-07-25T14:26:58Z</time>
      </trkpt>
      <trkpt lat="40.471300" lon="-5.499883">
        <ele>1804.0</ele>
        <time>2015-07-25T14:26:59Z</time>
      </trkpt>
      <trkpt lat="40.471183" lon="-5.499833">
        <ele>1803.0</ele>
        <time>2015-07-25T14:27:00Z</time>
      </trkpt>
      <trkpt lat="40.471033" lon="-5.499783">
        <ele>1802.0</ele>
        <time>2015-07-25T14:27:01Z</time>
      </trkpt>
      <trkpt lat="40.470900" lon="-5.499767">
        <ele>1802.0</ele>
        <time>2015-07-25T14:27:02Z</time>
      </trkpt>
      <trkpt lat="40.470750" lon="-5.499800">
        <ele>1802.0</ele>
        <time>2015-07-25T14:27:03Z</time>
      </trkpt>
      <trkpt lat="40.470633" lon="-5.499867">
        <ele>1802.0</ele>
        <time>2015-07-25T14:27:04Z</time>
      </trkpt>
      <trkpt lat="40.470517" lon="-5.499950">
        <ele>1803.0</ele>
        <time>2015-07-25T14:27:05Z</time>
      </trkpt>
      <trkpt lat="40.470417" lon="-5.500017">
        <ele>1805.0</ele>
        <time>2015-07-25T14:27:06Z</time>
      </trkpt>
      <trkpt lat="40.470317" lon="-5.500100">
        <ele>1806.0</ele>
        <time>2015-07-25T14:27:07Z</time>
      </trkpt>
      <trkpt lat="40.470217" lon="-5.500167">
        <ele>1807.0</ele>
        <time>2015-07-25T14:27:08Z</time>
      </trkpt>
      <trkpt lat="40.470133" lon="-5.500250">
        <ele>1808.0</ele>
        <time>2015-07-25T14:27:09Z</time>
      </trkpt>
      <trkpt lat="40.470083" lon="-5.500350">
        <ele>1809.0</ele>
        <time>2015-07-25T14:27:10Z</time>
      </trkpt>
      <trkpt lat="40.470083" lon="-5.500450">
        <ele>1808.0</ele>
        <time>2015-07-25T14:27:11Z</time>
      </trkpt>
      <trkpt lat="40.470100" lon="-5.500533">
        <ele>1808.0</ele>
        <time>2015-07-25T14:27:12Z</time>
      </trkpt>
      <trkpt lat="40.470167" lon="-5.500583">
        <ele>1808.0</ele>
        <time>2015-07-25T14:27:13Z</time>
      </trkpt>
      <trkpt lat="40.470233" lon="-5.500567">
        <ele>1809.0</ele>
        <time>2015-07-25T14:27:14Z</time>
      </trkpt>
      <trkpt lat="40.470283" lon="-5.500500">
        <ele>1810.0</ele>
        <time>2015-07-25T14:27:15Z</time>
      </trkpt>
      <trkpt lat="40.470317" lon="-5.500383">
        <ele>1811.0</ele>
        <time>2015-07-25T14:27:16Z</time>
      </trkpt>
      <trkpt lat="40.470300" lon="-5.500233">
        <ele>1811.0</ele>
        <time>2015-07-25T14:27:17Z</time>
      </trkpt>
      <trkpt lat="40.470267" lon="-5.500083">
        <ele>1810.0</ele>
        <time>2015-07-25T14:27:18Z</time>
      </trkpt>
      <trkpt lat="40.470200" lon="-5.499933">
        <ele>1810.0</ele>
        <time>2015-07-25T14:27:19Z</time>
      </trkpt>
      <trkpt lat="40.470083" lon="-5.499800">
        <ele>1809.0</ele>
        <time>2015-07-25T14:27:20Z</time>
      </trkpt>
      <trkpt lat="40.469950" lon="-5.499700">
        <ele>1808.0</ele>
        <time>2015-07-25T14:27:21Z</time>
      </trkpt>
      <trkpt lat="40.469800" lon="-5.499633">
        <ele>1807.0</ele>
        <time>2015-07-25T14:27:22Z</time>
      </trkpt>
      <trkpt lat="40.469633" lon="-5.499633">
        <ele>1806.0</ele>
        <time>2015-07-25T14:27:23Z</time>
      </trkpt>
      <trkpt lat="40.469483" lon="-5.499683">
        <ele>1806.0</ele>
        <time>2015-07-25T14:27:24Z</time>
      </trkpt>
      <trkpt lat="40.469333" lon="-5.499733">
        <ele>1807.0</ele>
        <time>2015-07-25T14:27:25Z</time>
      </trkpt>
      <trkpt lat="40.469200" lon="-5.499783">
        <ele>1809.0</ele>
        <time>2015-07-25T14:27:26Z</time>
      </trkpt>
      <trkpt lat="40.469067" lon="-5.499817">
        <ele>1810.0</ele>
        <time>2015-07-25T14:27:27Z</time>
      </trkpt>
      <trkpt lat="40.468933" lon="-5.499867">
        <ele>1810.0</ele>
        <time>2015-07-25T14:27:28Z</time>
      </trkpt>
      <trkpt lat="40.468800" lon="-5.499933">
        <ele>1811.0</ele>
        <time>2015-07-25T14:27:29Z</time>
      </trkpt>
      <trkpt lat="40.468683" lon="-5.500033">
        <ele>1811.0</ele>
        <time>2015-07-25T14:27:30Z</time>
      </trkpt>
      <trkpt lat="40.468600" lon="-5.500133">
        <ele>1812.0</ele>
        <time>2015-07-25T14:27:31Z</time>
      </trkpt>
      <trkpt lat="40.468550" lon="-5.500250">
        <ele>1812.0</ele>
        <time>2015-07-25T14:27:32Z</time>
      </trkpt>
      <trkpt lat="40.468517" lon="-5.500367">
        <ele>1813.0</ele>
        <time>2015-07-25T14:27:33Z</time>
      </trkpt>
      <trkpt lat="40.468500" lon="-5.500467">
        <ele>1814.0</ele>
        <time>2015-07-25T14:27:34Z</time>
      </trkpt>
      <trkpt lat="40.468500" lon="-5.500567">
        <ele>1815.0</ele>
        <time>2015-07-25T14:27:35Z</time>
      </trkpt>
      <trkpt lat="40.468517" lon="-5.500633">
        <ele>1816.0</ele>
        <time>2015-07-25T14:27:36Z</time>
      </trkpt>
      <trkpt lat="40.468567" lon="-5.500650">
        <ele>1816.0</ele>
        <time>2015-07-25T14:27:37Z</time>
      </trkpt>
      <trkpt lat="40.468617" lon="-5.500650">
        <ele>1816.0</ele>
        <time>2015-07-25T14:27:38Z</time>
      </trkpt>
      <trkpt lat="40.468683" lon="-5.500617">
        <ele>1818.0</ele>
        <time>2015-07-25T14:27:39Z</time>
      </trkpt>
      <trkpt lat="40.468717" lon="-5.500550">
        <ele>1820.0</ele>
        <time>2015-07-25T14:27:40Z</time>
      </trkpt>
      <trkpt lat="40.468750" lon="-5.500467">
        <ele>1821.0</ele>
        <time>2015-07-25T14:27:41Z</time>
      </trkpt>
      <trkpt lat="40.468750" lon="-5.500350">
        <ele>1821.0</ele>
        <time>2015-07-25T14:27:42Z</time>
      </trkpt>
      <trkpt lat="40.468717" lon="-5.500200">
        <ele>1821.0</ele>
        <time>2015-07-25T14:27:43Z</time>
      </trkpt>
      <trkpt lat="40.468667" lon="-5.500067">
        <ele>1821.0</ele>
        <time>2015-07-25T14:27:44Z</time>
      </trkpt>
      <trkpt lat="40.468567" lon="-5.499933">
        <ele>1822.0</ele>
        <time>2015-07-25T14:27:45Z</time>
      </trkpt>
      <trkpt lat="40.468433" lon="-5.499833">
        <ele>1822.0</ele>
        <time>2015-07-25T14:27:46Z</time>
      </trkpt>
      <trkpt lat="40.468283" lon="-5.499783">
        <ele>1822.0</ele>
        <time>2015-07-25T14:27:47Z</time>
      </trkpt>
      <trkpt lat="40.468133" lon="-5.499783">
        <ele>1822.0</ele>
        <time>2015-07-25T14:27:48Z</time>
      </trkpt>
      <trkpt lat="40.467983" lon="-5.499833">
        <ele>1823.0</ele>
        <time>2015-07-25T14:27:49Z</time>
      </trkpt>
      <trkpt lat="40.467850" lon="-5.499900">
        <ele>1824.0</ele>
        <time>2015-07-25T14:27:50Z</time>
      </trkpt>
      <trkpt lat="40.467750" lon="-5.500000">
        <ele>1825.0</ele>
        <time>2015-07-25T14:27:51Z</time>
      </trkpt>
      <trkpt lat="40.467667" lon="-5.500100">
        <ele>1825.0</ele>
        <time>2015-07-25T14:27:52Z</time>
      </trkpt>
      <trkpt lat="40.467617" lon="-5.500217">
        <ele>1825.0</ele>
        <time>2015-07-25T14:27:53Z</time>
      </trkpt>
      <trkpt lat="40.467600" lon="-5.500333">
        <ele>1824.0</ele>
        <time>2015-07-25T14:27:54Z</time>
      </trkpt>
      <trkpt lat="40.467617" lon="-5.500433">
        <ele>1824.0</ele>
        <time>2015-07-25T14:27:55Z</time>
      </trkpt>
      <trkpt lat="40.467650" lon="-5.500500">
        <ele>1824.0</ele>
        <time>2015-07-25T14:27:56Z</time>
      </trkpt>
      <trkpt lat="40.467700" lon="-5.500533">
        <ele>1824.0</ele>
        <time>2015-07-25T14:27:57Z</time>
      </trkpt>
      <trkpt lat="40.467750" lon="-5.500517">
        <ele>1824.0</ele>
        <time>2015-07-25T14:27:58Z</time>
      </trkpt>
      <trkpt lat="40.467800" lon="-5.500467">
        <ele>1824.0</ele>
        <time>2015-07-25T14:27:59Z</time>
      </trkpt>
      <trkpt lat="40.467850" lon="-5.500383">
        <ele>1825.0</ele>
        <time>2015-07-25T14:28:00Z</time>
      </trkpt>
      <trkpt lat="40.467867" lon="-5.500283">
        <ele>1826.0</ele>
        <time>2015-07-25T14:28:01Z</time>
      </trkpt>
      <trkpt lat="40.467867" lon="-5.500167">
        <ele>1827.0</ele>
        <time>2015-07-25T14:28:02Z</time>
      </trkpt>
      <trkpt lat="40.467850" lon="-5.500033">
        <ele>1828.0</ele>
        <time>2015-07-25T14:28:03Z</time>
      </trkpt>
      <trkpt lat="40.467817" lon="-5.499917">
        <ele>1829.0</ele>
        <time>2015-07-25T14:28:04Z</time>
      </trkpt>
      <trkpt lat="40.467783" lon="-5.499783">
        <ele>1830.0</ele>
        <time>2015-07-25T14:28:05Z</time>
      </trkpt>
      <trkpt lat="40.467700" lon="-5.499667">
        <ele>1831.0</ele>
        <time>2015-07-25T14:28:06Z</time>
      </trkpt>
      <trkpt lat="40.467600" lon="-5.499550">
        <ele>1831.0</ele>
        <time>2015-07-25T14:28:07Z</time>
      </trkpt>
      <trkpt lat="40.467467" lon="-5.499450">
        <ele>1830.0</ele>
        <time>2015-07-25T14:28:08Z</time>
      </trkpt>
      <trkpt lat="40.467317" lon="-5.499383">
        <ele>1830.0</ele>
        <time>2015-07-25T14:28:09Z</time>
      </trkpt>
      <trkpt lat="40.467167" lon="-5.499350">
        <ele>1831.0</ele>
        <time>2015-07-25T14:28:10Z</time>
      </trkpt>
      <trkpt lat="40.467017" lon="-5.499367">
        <ele>1832.0</ele>
        <time>2015-07-25T14:28:11Z</time>
      </trkpt>
      <trkpt lat="40.466883" lon="-5.499400">
        <ele>1833.0</ele>
        <time>2015-07-25T14:28:12Z</time>
      </trkpt>
      <trkpt lat="40.466750" lon="-5.499450">
        <ele>1833.0</ele>
        <time>2015-07-25T14:28:13Z</time>
      </trkpt>
      <trkpt lat="40.466633" lon="-5.499550">
        <ele>1833.0</ele>
        <time>2015-07-25T14:28:14Z</time>
      </trkpt>
      <trkpt lat="40.466533" lon="-5.499650">
        <ele>1833.0</ele>
        <time>2015-07-25T14:28:15Z</time>
      </trkpt>
      <trkpt lat="40.466483" lon="-5.499767">
        <ele>1833.0</ele>
        <time>2015-07-25T14:28:16Z</time>
      </trkpt>
      <trkpt lat="40.466450" lon="-5.499900">
        <ele>1832.0</ele>
        <time>2015-07-25T14:28:17Z</time>
      </trkpt>
      <trkpt lat="40.466450" lon="-5.500000">
        <ele>1832.0</ele>
        <time>2015-07-25T14:28:18Z</time>
      </trkpt>
      <trkpt lat="40.466483" lon="-5.500067">
        <ele>1832.0</ele>
        <time>2015-07-25T14:28:19Z</time>
      </trkpt>
      <trkpt lat="40.466533" lon="-5.500117">
        <ele>1833.0</ele>
        <time>2015-07-25T14:28:20Z</time>
      </trkpt>
      <trkpt lat="40.466567" lon="-5.500133">
        <ele>1834.0</ele>
        <time>2015-07-25T14:28:21Z</time>
      </trkpt>
      <trkpt lat="40.466617" lon="-5.500117">
        <ele>1835.0</ele>
        <time>2015-07-25T14:28:22Z</time>
      </trkpt>
      <trkpt lat="40.466650" lon="-5.500083">
        <ele>1836.0</ele>
        <time>2015-07-25T14:28:23Z</time>
      </trkpt>
      <trkpt lat="40.466683" lon="-5.500017">
        <ele>1836.0</ele>
        <time>2015-07-25T14:28:24Z</time>
      </trkpt>
      <trkpt lat="40.466717" lon="-5.499950">
        <ele>1836.0</ele>
        <time>2015-07-25T14:28:25Z</time>
      </trkpt>
      <trkpt lat="40.466750" lon="-5.499867">
        <ele>1836.0</ele>
        <time>2015-07-25T14:28:26Z</time>
      </trkpt>
      <trkpt lat="40.466800" lon="-5.499800">
        <ele>1836.0</ele>
        <time>2015-07-25T14:28:27Z</time>
      </trkpt>
      <trkpt lat="40.466833" lon="-5.499750">
        <ele>1837.0</ele>
        <time>2015-07-25T14:28:28Z</time>
      </trkpt>
      <trkpt lat="40.466867" lon="-5.499700">
        <ele>1837.0</ele>
        <time>2015-07-25T14:28:29Z</time>
      </trkpt>
      <trkpt lat="40.466900" lon="-5.499650">
        <ele>1837.0</ele>
        <time>2015-07-25T14:28:30Z</time>
      </trkpt>
      <trkpt lat="40.466933" lon="-5.499583">
        <ele>1835.0</ele>
        <time>2015-07-25T14:28:31Z</time>
      </trkpt>
      <trkpt lat="40.466983" lon="-5.499533">
        <ele>1833.0</ele>
        <time>2015-07-25T14:28:32Z</time>
      </trkpt>
      <trkpt lat="40.467033" lon="-5.499500">
        <ele>1832.0</ele>
        <time>2015-07-25T14:28:33Z</time>
      </trkpt>
      <trkpt lat="40.467083" lon="-5.499500">
        <ele>1832.0</ele>
        <time>2015-07-25T14:28:34Z</time>
      </trkpt>
      <trkpt lat="40.467133" lon="-5.499517">
        <ele>1832.0</ele>
        <time>2015-07-25T14:28:35Z</time>
      </trkpt>
      <trkpt lat="40.467183" lon="-5.499550">
        <ele>1833.0</ele>
        <time>2015-07-25T14:28:36Z</time>
      </trkpt>
      <trkpt lat="40.467217" lon="-5.499583">
        <ele>1833.0</ele>
        <time>2015-07-25T14:28:37Z</time>
      </trkpt>
      <trkpt lat="40.467250" lon="-5.499617">
        <ele>1833.0</ele>
        <time>2015-07-25T14:28:38Z</time>
      </trkpt>
      <trkpt lat="40.467283" lon="-5.499667">
        <ele>1832.0</ele>
        <time>2015-07-25T14:28:39Z</time>
      </trkpt>
      <trkpt lat="40.467333" lon="-5.499717">
        <ele>1830.0</ele>
        <time>2015-07-25T14:28:40Z</time>
      </trkpt>
      <trkpt lat="40.467383" lon="-5.499767">
        <ele>1829.0</ele>
        <time>2015-07-25T14:28:41Z</time>
      </trkpt>
      <trkpt lat="40.467417" lon="-5.499817">
        <ele>1829.0</ele>
        <time>2015-07-25T14:28:42Z</time>
      </trkpt>
      <trkpt lat="40.467467" lon="-5.499867">
        <ele>1830.0</ele>
        <time>2015-07-25T14:28:43Z</time>
      </trkpt>
      <trkpt lat="40.467500" lon="-5.499917">
        <ele>1830.0</ele>
        <time>2015-07-25T14:28:44Z</time>
      </trkpt>
      <trkpt lat="40.467533" lon="-5.499967">
        <ele>1830.0</ele>
        <time>2015-07-25T14:28:45Z</time>
      </trkpt>
      <trkpt lat="40.467567" lon="-5.500017">
        <ele>1829.0</ele>
        <time>2015-07-25T14:28:46Z</time>
      </trkpt>
      <trkpt lat="40.467617" lon="-5.500067">
        <ele>1828.0</ele>
        <time>2015-07-25T14:28:47Z</time>
      </trkpt>
      <trkpt lat="40.467667" lon="-5.500117">
        <ele>1826.0</ele>
        <time>2015-07-25T14:28:48Z</time>
      </trkpt>
      <trkpt lat="40.467717" lon="-5.500167">
        <ele>1826.0</ele>
        <time>2015-07-25T14:28:49Z</time>
      </trkpt>
      <trkpt lat="40.467767" lon="-5.500217">
        <ele>1826.0</ele>
        <time>2015-07-25T14:28:50Z</time>
      </trkpt>
      <trkpt lat="40.467817" lon="-5.500283">
        <ele>1826.0</ele>
        <time>2015-07-25T14:28:51Z</time>
      </trkpt>
      <trkpt lat="40.467850" lon="-5.500333">
        <ele>1827.0</ele>
        <time>2015-07-25T14:28:52Z</time>
      </trkpt>
      <trkpt lat="40.467900" lon="-5.500400">
        <ele>1827.0</ele>
        <time>2015-07-25T14:28:53Z</time>
      </trkpt>
      <trkpt lat="40.467950" lon="-5.500450">
        <ele>1827.0</ele>
        <time>2015-07-25T14:28:54Z</time>
      </trkpt>
      <trkpt lat="40.468000" lon="-5.500500">
        <ele>1827.0</ele>
        <time>2015-07-25T14:28:55Z</time>
      </trkpt>
      <trkpt lat="40.468050" lon="-5.500567">
        <ele>1828.0</ele>
        <time>2015-07-25T14:28:56Z</time>
      </trkpt>
      <trkpt lat="40.468083" lon="-5.500633">
        <ele>1829.0</ele>
        <time>2015-07-25T14:28:57Z</time>
      </trkpt>
      <trkpt lat="40.468117" lon="-5.500700">
        <ele>1830.0</ele>
        <time>2015-07-25T14:28:58Z</time>
      </trkpt>
      <trkpt lat="40.468150" lon="-5.500783">
        <ele>1831.0</ele>
        <time>2015-07-25T14:28:59Z</time>
      </trkpt>
      <trkpt lat="40.468167" lon="-5.500867">
        <ele>1833.0</ele>
        <time>2015-07-25T14:29:00Z</time>
      </trkpt>
      <trkpt lat="40.468167" lon="-5.500950">
        <ele>1834.0</ele>
        <time>2015-07-25T14:29:01Z</time>
      </trkpt>
      <trkpt lat="40.468167" lon="-5.501067">
        <ele>1835.0</ele>
        <time>2015-07-25T14:29:02Z</time>
      </trkpt>
      <trkpt lat="40.468133" lon="-5.501183">
        <ele>1836.0</ele>
        <time>2015-07-25T14:29:03Z</time>
      </trkpt>
      <trkpt lat="40.468083" lon="-5.501300">
        <ele>1838.0</ele>
        <time>2015-07-25T14:29:04Z</time>
      </trkpt>
      <trkpt lat="40.468000" lon="-5.501417">
        <ele>1838.0</ele>
        <time>2015-07-25T14:29:05Z</time>
      </trkpt>
      <trkpt lat="40.467883" lon="-5.501500">
        <ele>1838.0</ele>
        <time>2015-07-25T14:29:06Z</time>
      </trkpt>
      <trkpt lat="40.467750" lon="-5.501567">
        <ele>1837.0</ele>
        <time>2015-07-25T14:29:07Z</time>
      </trkpt>
      <trkpt lat="40.467600" lon="-5.501583">
        <ele>1837.0</ele>
        <time>2015-07-25T14:29:08Z</time>
      </trkpt>
      <trkpt lat="40.467467" lon="-5.501550">
        <ele>1835.0</ele>
        <time>2015-07-25T14:29:09Z</time>
      </trkpt>
      <trkpt lat="40.467333" lon="-5.501450">
        <ele>1834.0</ele>
        <time>2015-07-25T14:29:10Z</time>
      </trkpt>
      <trkpt lat="40.467233" lon="-5.501317">
        <ele>1832.0</ele>
        <time>2015-07-25T14:29:11Z</time>
      </trkpt>
      <trkpt lat="40.467167" lon="-5.501183">
        <ele>1832.0</ele>
        <time>2015-07-25T14:29:12Z</time>
      </trkpt>
      <trkpt lat="40.467117" lon="-5.501050">
        <ele>1833.0</ele>
        <time>2015-07-25T14:29:13Z</time>
      </trkpt>
      <trkpt lat="40.467117" lon="-5.500933">
        <ele>1833.0</ele>
        <time>2015-07-25T14:29:14Z</time>
      </trkpt>
      <trkpt lat="40.467133" lon="-5.500833">
        <ele>1832.0</ele>
        <time>2015-07-25T14:29:15Z</time>
      </trkpt>
      <trkpt lat="40.467183" lon="-5.500767">
        <ele>1831.0</ele>
        <time>2015-07-25T14:29:16Z</time>
      </trkpt>
      <trkpt lat="40.467233" lon="-5.500733">
        <ele>1832.0</ele>
        <time>2015-07-25T14:29:17Z</time>
      </trkpt>
      <trkpt lat="40.467283" lon="-5.500717">
        <ele>1832.0</ele>
        <time>2015-07-25T14:29:18Z</time>
      </trkpt>
      <trkpt lat="40.467350" lon="-5.500733">
        <ele>1832.0</ele>
        <time>2015-07-25T14:29:19Z</time>
      </trkpt>
      <trkpt lat="40.467400" lon="-5.500767">
        <ele>1833.0</ele>
        <time>2015-07-25T14:29:20Z</time>
      </trkpt>
      <trkpt lat="40.467433" lon="-5.500800">
        <ele>1835.0</ele>
        <time>2015-07-25T14:29:21Z</time>
      </trkpt>
      <trkpt lat="40.467467" lon="-5.500850">
        <ele>1837.0</ele>
        <time>2015-07-25T14:29:22Z</time>
      </trkpt>
      <trkpt lat="40.467483" lon="-5.500900">
        <ele>1839.0</ele>
        <time>2015-07-25T14:29:23Z</time>
      </trkpt>
      <trkpt lat="40.467483" lon="-5.500950">
        <ele>1839.0</ele>
        <time>2015-07-25T14:29:24Z</time>
      </trkpt>
      <trkpt lat="40.467500" lon="-5.501050">
        <ele>1839.0</ele>
        <time>2015-07-25T14:29:25Z</time>
      </trkpt>
      <trkpt lat="40.467500" lon="-5.501150">
        <ele>1839.0</ele>
        <time>2015-07-25T14:29:26Z</time>
      </trkpt>
      <trkpt lat="40.467483" lon="-5.501283">
        <ele>1840.0</ele>
        <time>2015-07-25T14:29:27Z</time>
      </trkpt>
      <trkpt lat="40.467450" lon="-5.501417">
        <ele>1840.0</ele>
        <time>2015-07-25T14:29:28Z</time>
      </trkpt>
      <trkpt lat="40.467417" lon="-5.501533">
        <ele>1842.0</ele>
        <time>2015-07-25T14:29:29Z</time>
      </trkpt>
      <trkpt lat="40.467400" lon="-5.501650">
        <ele>1843.0</ele>
        <time>2015-07-25T14:29:30Z</time>
      </trkpt>
      <trkpt lat="40.467383" lon="-5.501733">
        <ele>1843.0</ele>
        <time>2015-07-25T14:29:31Z</time>
      </trkpt>
      <trkpt lat="40.467383" lon="-5.501817">
        <ele>1842.0</ele>
        <time>2015-07-25T14:29:32Z</time>
      </trkpt>
      <trkpt lat="40.467367" lon="-5.501900">
        <ele>1838.0</ele>
        <time>2015-07-25T14:29:33Z</time>
      </trkpt>
      <trkpt lat="40.467383" lon="-5.501983">
        <ele>1833.0</ele>
        <time>2015-07-25T14:29:34Z</time>
      </trkpt>
      <trkpt lat="40.467433" lon="-5.502083">
        <ele>1828.0</ele>
        <time>2015-07-25T14:29:35Z</time>
      </trkpt>
      <trkpt lat="40.467500" lon="-5.502183">
        <ele>1823.0</ele>
        <time>2015-07-25T14:29:36Z</time>
      </trkpt>
      <trkpt lat="40.467583" lon="-5.502250">
        <ele>1820.0</ele>
        <time>2015-07-25T14:29:37Z</time>
      </trkpt>
      <trkpt lat="40.467667" lon="-5.502300">
        <ele>1819.0</ele>
        <time>2015-07-25T14:29:38Z</time>
      </trkpt>
      <trkpt lat="40.467733" lon="-5.502333">
        <ele>1818.0</ele>
        <time>2015-07-25T14:29:39Z</time>
      </trkpt>
      <trkpt lat="40.467783" lon="-5.502350">
        <ele>1817.0</ele>
        <time>2015-07-25T14:29:40Z</time>
      </trkpt>
      <trkpt lat="40.467850" lon="-5.502400">
        <ele>1815.0</ele>
        <time>2015-07-25T14:29:41Z</time>
      </trkpt>
      <trkpt lat="40.467900" lon="-5.502433">
        <ele>1812.0</ele>
        <time>2015-07-25T14:29:42Z</time>
      </trkpt>
      <trkpt lat="40.467967" lon="-5.502483">
        <ele>1811.0</ele>
        <time>2015-07-25T14:29:43Z</time>
      </trkpt>
      <trkpt lat="40.468017" lon="-5.502517">
        <ele>1811.0</ele>
        <time>2015-07-25T14:29:44Z</time>
      </trkpt>
      <trkpt lat="40.468083" lon="-5.502550">
        <ele>1809.0</ele>
        <time>2015-07-25T14:29:45Z</time>
      </trkpt>
      <trkpt lat="40.468133" lon="-5.502583">
        <ele>1808.0</ele>
        <time>2015-07-25T14:29:46Z</time>
      </trkpt>
      <trkpt lat="40.468183" lon="-5.502600">
        <ele>1807.0</ele>
        <time>2015-07-25T14:29:47Z</time>
      </trkpt>
      <trkpt lat="40.468233" lon="-5.502583">
        <ele>1806.0</ele>
        <time>2015-07-25T14:29:48Z</time>
      </trkpt>
      <trkpt lat="40.468300" lon="-5.502583">
        <ele>1804.0</ele>
        <time>2015-07-25T14:29:49Z</time>
      </trkpt>
      <trkpt lat="40.468367" lon="-5.502567">
        <ele>1803.0</ele>
        <time>2015-07-25T14:29:50Z</time>
      </trkpt>
      <trkpt lat="40.468417" lon="-5.502567">
        <ele>1802.0</ele>
        <time>2015-07-25T14:29:51Z</time>
      </trkpt>
      <trkpt lat="40.468483" lon="-5.502567">
        <ele>1799.0</ele>
        <time>2015-07-25T14:29:52Z</time>
      </trkpt>
      <trkpt lat="40.468533" lon="-5.502600">
        <ele>1797.0</ele>
        <time>2015-07-25T14:29:53Z</time>
      </trkpt>
      <trkpt lat="40.468600" lon="-5.502633">
        <ele>1795.0</ele>
        <time>2015-07-25T14:29:54Z</time>
      </trkpt>
      <trkpt lat="40.468650" lon="-5.502683">
        <ele>1793.0</ele>
        <time>2015-07-25T14:29:55Z</time>
      </trkpt>
      <trkpt lat="40.468700" lon="-5.502717">
        <ele>1792.0</ele>
        <time>2015-07-25T14:29:56Z</time>
      </trkpt>
      <trkpt lat="40.468750" lon="-5.502767">
        <ele>1792.0</ele>
        <time>2015-07-25T14:29:57Z</time>
      </trkpt>
      <trkpt lat="40.468783" lon="-5.502800">
        <ele>1792.0</ele>
        <time>2015-07-25T14:29:58Z</time>
      </trkpt>
      <trkpt lat="40.468817" lon="-5.502850">
        <ele>1792.0</ele>
        <time>2015-07-25T14:29:59Z</time>
      </trkpt>
      <trkpt lat="40.468850" lon="-5.502883">
        <ele>1791.0</ele>
        <time>2015-07-25T14:30:00Z</time>
      </trkpt>
      <trkpt lat="40.468883" lon="-5.502917">
        <ele>1789.0</ele>
        <time>2015-07-25T14:30:01Z</time>
      </trkpt>
      <trkpt lat="40.468933" lon="-5.502967">
        <ele>1787.0</ele>
        <time>2015-07-25T14:30:02Z</time>
      </trkpt>
      <trkpt lat="40.468983" lon="-5.503033">
        <ele>1785.0</ele>
        <time>2015-07-25T14:30:03Z</time>
      </trkpt>
      <trkpt lat="40.469033" lon="-5.503100">
        <ele>1784.0</ele>
        <time>2015-07-25T14:30:04Z</time>
      </trkpt>
      <trkpt lat="40.469100" lon="-5.503150">
        <ele>1784.0</ele>
        <time>2015-07-25T14:30:05Z</time>
      </trkpt>
      <trkpt lat="40.469133" lon="-5.503200">
        <ele>1785.0</ele>
        <time>2015-07-25T14:30:06Z</time>
      </trkpt>
      <trkpt lat="40.469183" lon="-5.503250">
        <ele>1785.0</ele>
        <time>2015-07-25T14:30:07Z</time>
      </trkpt>
      <trkpt lat="40.469217" lon="-5.503283">
        <ele>1784.0</ele>
        <time>2015-07-25T14:30:08Z</time>
      </trkpt>
      <trkpt lat="40.469250" lon="-5.503350">
        <ele>1783.0</ele>
        <time>2015-07-25T14:30:09Z</time>
      </trkpt>
      <trkpt lat="40.469300" lon="-5.503400">
        <ele>1780.0</ele>
        <time>2015-07-25T14:30:10Z</time>
      </trkpt>
      <trkpt lat="40.469350" lon="-5.503467">
        <ele>1778.0</ele>
        <time>2015-07-25T14:30:11Z</time>
      </trkpt>
      <trkpt lat="40.469400" lon="-5.503550">
        <ele>1776.0</ele>
        <time>2015-07-25T14:30:12Z</time>
      </trkpt>
      <trkpt lat="40.469450" lon="-5.503600">
        <ele>1774.0</ele>
        <time>2015-07-25T14:30:13Z</time>
      </trkpt>
      <trkpt lat="40.469517" lon="-5.503650">
        <ele>1772.0</ele>
        <time>2015-07-25T14:30:14Z</time>
      </trkpt>
      <trkpt lat="40.469583" lon="-5.503683">
        <ele>1771.0</ele>
        <time>2015-07-25T14:30:15Z</time>
      </trkpt>
      <trkpt lat="40.469667" lon="-5.503717">
        <ele>1770.0</ele>
        <time>2015-07-25T14:30:16Z</time>
      </trkpt>
      <trkpt lat="40.469733" lon="-5.503733">
        <ele>1768.0</ele>
        <time>2015-07-25T14:30:17Z</time>
      </trkpt>
      <trkpt lat="40.469800" lon="-5.503767">
        <ele>1767.0</ele>
        <time>2015-07-25T14:30:18Z</time>
      </trkpt>
      <trkpt lat="40.469883" lon="-5.503783">
        <ele>1765.0</ele>
        <time>2015-07-25T14:30:19Z</time>
      </trkpt>
      <trkpt lat="40.469950" lon="-5.503800">
        <ele>1763.0</ele>
        <time>2015-07-25T14:30:20Z</time>
      </trkpt>
      <trkpt lat="40.470033" lon="-5.503800">
        <ele>1763.0</ele>
        <time>2015-07-25T14:30:21Z</time>
      </trkpt>
      <trkpt lat="40.470117" lon="-5.503800">
        <ele>1763.0</ele>
        <time>2015-07-25T14:30:22Z</time>
      </trkpt>
      <trkpt lat="40.470183" lon="-5.503800">
        <ele>1764.0</ele>
        <time>2015-07-25T14:30:23Z</time>
      </trkpt>
      <trkpt lat="40.470250" lon="-5.503800">
        <ele>1766.0</ele>
        <time>2015-07-25T14:30:24Z</time>
      </trkpt>
      <trkpt lat="40.470300" lon="-5.503817">
        <ele>1767.0</ele>
        <time>2015-07-25T14:30:25Z</time>
      </trkpt>
      <trkpt lat="40.470333" lon="-5.503817">
        <ele>1768.0</ele>
        <time>2015-07-25T14:30:26Z</time>
      </trkpt>
      <trkpt lat="40.470367" lon="-5.503833">
        <ele>1768.0</ele>
        <time>2015-07-25T14:30:27Z</time>
      </trkpt>
      <trkpt lat="40.470400" lon="-5.503850">
        <ele>1768.0</ele>
        <time>2015-07-25T14:30:28Z</time>
      </trkpt>
      <trkpt lat="40.470417" lon="-5.503883">
        <ele>1766.0</ele>
        <time>2015-07-25T14:30:29Z</time>
      </trkpt>
      <trkpt lat="40.470450" lon="-5.503950">
        <ele>1764.0</ele>
        <time>2015-07-25T14:30:30Z</time>
      </trkpt>
      <trkpt lat="40.470500" lon="-5.504017">
        <ele>1763.0</ele>
        <time>2015-07-25T14:30:31Z</time>
      </trkpt>
      <trkpt lat="40.470550" lon="-5.504067">
        <ele>1761.0</ele>
        <time>2015-07-25T14:30:32Z</time>
      </trkpt>
      <trkpt lat="40.470617" lon="-5.504100">
        <ele>1761.0</ele>
        <time>2015-07-25T14:30:33Z</time>
      </trkpt>
      <trkpt lat="40.470667" lon="-5.504133">
        <ele>1762.0</ele>
        <time>2015-07-25T14:30:34Z</time>
      </trkpt>
      <trkpt lat="40.470717" lon="-5.504150">
        <ele>1762.0</ele>
        <time>2015-07-25T14:30:35Z</time>
      </trkpt>
      <trkpt lat="40.470767" lon="-5.504167">
        <ele>1762.0</ele>
        <time>2015-07-25T14:30:36Z</time>
      </trkpt>
      <trkpt lat="40.470817" lon="-5.504200">
        <ele>1761.0</ele>
        <time>2015-07-25T14:30:37Z</time>
      </trkpt>
      <trkpt lat="40.470867" lon="-5.504217">
        <ele>1759.0</ele>
        <time>2015-07-25T14:30:38Z</time>
      </trkpt>
      <trkpt lat="40.470917" lon="-5.504250">
        <ele>1757.0</ele>
        <time>2015-07-25T14:30:39Z</time>
      </trkpt>
      <trkpt lat="40.470983" lon="-5.504300">
        <ele>1755.0</ele>
        <time>2015-07-25T14:30:40Z</time>
      </trkpt>
      <trkpt lat="40.471033" lon="-5.504350">
        <ele>1754.0</ele>
        <time>2015-07-25T14:30:41Z</time>
      </trkpt>
      <trkpt lat="40.471083" lon="-5.504400">
        <ele>1754.0</ele>
        <time>2015-07-25T14:30:42Z</time>
      </trkpt>
      <trkpt lat="40.471133" lon="-5.504450">
        <ele>1753.0</ele>
        <time>2015-07-25T14:30:43Z</time>
      </trkpt>
      <trkpt lat="40.471183" lon="-5.504500">
        <ele>1752.0</ele>
        <time>2015-07-25T14:30:44Z</time>
      </trkpt>
      <trkpt lat="40.471233" lon="-5.504550">
        <ele>1750.0</ele>
        <time>2015-07-25T14:30:45Z</time>
      </trkpt>
      <trkpt lat="40.471283" lon="-5.504600">
        <ele>1747.0</ele>
        <time>2015-07-25T14:30:46Z</time>
      </trkpt>
      <trkpt lat="40.471350" lon="-5.504650">
        <ele>1746.0</ele>
        <time>2015-07-25T14:30:47Z</time>
      </trkpt>
      <trkpt lat="40.471400" lon="-5.504700">
        <ele>1745.0</ele>
        <time>2015-07-25T14:30:48Z</time>
      </trkpt>
      <trkpt lat="40.471433" lon="-5.504717">
        <ele>1744.0</ele>
        <time>2015-07-25T14:30:49Z</time>
      </trkpt>
      <trkpt lat="40.471483" lon="-5.504733">
        <ele>1743.0</ele>
        <time>2015-07-25T14:30:50Z</time>
      </trkpt>
      <trkpt lat="40.471517" lon="-5.504767">
        <ele>1740.0</ele>
        <time>2015-07-25T14:30:51Z</time>
      </trkpt>
      <trkpt lat="40.471567" lon="-5.504800">
        <ele>1737.0</ele>
        <time>2015-07-25T14:30:52Z</time>
      </trkpt>
      <trkpt lat="40.471600" lon="-5.504833">
        <ele>1734.0</ele>
        <time>2015-07-25T14:30:53Z</time>
      </trkpt>
      <trkpt lat="40.471650" lon="-5.504900">
        <ele>1730.0</ele>
        <time>2015-07-25T14:30:54Z</time>
      </trkpt>
      <trkpt lat="40.471700" lon="-5.504950">
        <ele>1727.0</ele>
        <time>2015-07-25T14:30:55Z</time>
      </trkpt>
      <trkpt lat="40.471767" lon="-5.505000">
        <ele>1725.0</ele>
        <time>2015-07-25T14:30:56Z</time>
      </trkpt>
      <trkpt lat="40.471817" lon="-5.505050">
        <ele>1723.0</ele>
        <time>2015-07-25T14:30:57Z</time>
      </trkpt>
      <trkpt lat="40.471867" lon="-5.505100">
        <ele>1721.0</ele>
        <time>2015-07-25T14:30:58Z</time>
      </trkpt>
      <trkpt lat="40.471917" lon="-5.505167">
        <ele>1719.0</ele>
        <time>2015-07-25T14:30:59Z</time>
      </trkpt>
      <trkpt lat="40.471967" lon="-5.505233">
        <ele>1717.0</ele>
        <time>2015-07-25T14:31:00Z</time>
      </trkpt>
      <trkpt lat="40.472000" lon="-5.505317">
        <ele>1714.0</ele>
        <time>2015-07-25T14:31:01Z</time>
      </trkpt>
      <trkpt lat="40.472050" lon="-5.505383">
        <ele>1713.0</ele>
        <time>2015-07-25T14:31:02Z</time>
      </trkpt>
      <trkpt lat="40.472100" lon="-5.505450">
        <ele>1711.0</ele>
        <time>2015-07-25T14:31:03Z</time>
      </trkpt>
      <trkpt lat="40.472150" lon="-5.505500">
        <ele>1708.0</ele>
        <time>2015-07-25T14:31:04Z</time>
      </trkpt>
      <trkpt lat="40.472200" lon="-5.505550">
        <ele>1706.0</ele>
        <time>2015-07-25T14:31:05Z</time>
      </trkpt>
      <trkpt lat="40.472250" lon="-5.505600">
        <ele>1703.0</ele>
        <time>2015-07-25T14:31:06Z</time>
      </trkpt>
      <trkpt lat="40.472300" lon="-5.505667">
        <ele>1701.0</ele>
        <time>2015-07-25T14:31:07Z</time>
      </trkpt>
      <trkpt lat="40.472350" lon="-5.505717">
        <ele>1698.0</ele>
        <time>2015-07-25T14:31:08Z</time>
      </trkpt>
      <trkpt lat="40.472383" lon="-5.505800">
        <ele>1696.0</ele>
        <time>2015-07-25T14:31:09Z</time>
      </trkpt>
      <trkpt lat="40.472433" lon="-5.505883">
        <ele>1694.0</ele>
        <time>2015-07-25T14:31:10Z</time>
      </trkpt>
      <trkpt lat="40.472483" lon="-5.505950">
        <ele>1692.0</ele>
        <time>2015-07-25T14:31:11Z</time>
      </trkpt>
      <trkpt lat="40.472533" lon="-5.506033">
        <ele>1691.0</ele>
        <time>2015-07-25T14:31:12Z</time>
      </trkpt>
      <trkpt lat="40.472583" lon="-5.506100">
        <ele>1689.0</ele>
        <time>2015-07-25T14:31:13Z</time>
      </trkpt>
      <trkpt lat="40.472633" lon="-5.506167">
        <ele>1687.0</ele>
        <time>2015-07-25T14:31:14Z</time>
      </trkpt>
      <trkpt lat="40.472683" lon="-5.506233">
        <ele>1685.0</ele>
        <time>2015-07-25T14:31:15Z</time>
      </trkpt>
      <trkpt lat="40.472733" lon="-5.506317">
        <ele>1683.0</ele>
        <time>2015-07-25T14:31:16Z</time>
      </trkpt>
      <trkpt lat="40.472767" lon="-5.506383">
        <ele>1681.0</ele>
        <time>2015-07-25T14:31:17Z</time>
      </trkpt>
      <trkpt lat="40.472817" lon="-5.506467">
        <ele>1679.0</ele>
        <time>2015-07-25T14:31:18Z</time>
      </trkpt>
      <trkpt lat="40.472867" lon="-5.506550">
        <ele>1676.0</ele>
        <time>2015-07-25T14:31:19Z</time>
      </trkpt>
      <trkpt lat="40.472933" lon="-5.506633">
        <ele>1674.0</ele>
        <time>2015-07-25T14:31:20Z</time>
      </trkpt>
      <trkpt lat="40.472983" lon="-5.506700">
        <ele>1673.0</ele>
        <time>2015-07-25T14:31:21Z</time>
      </trkpt>
      <trkpt lat="40.473050" lon="-5.506767">
        <ele>1673.0</ele>
        <time>2015-07-25T14:31:22Z</time>
      </trkpt>
      <trkpt lat="40.473100" lon="-5.506833">
        <ele>1673.0</ele>
        <time>2015-07-25T14:31:23Z</time>
      </trkpt>
      <trkpt lat="40.473150" lon="-5.506917">
        <ele>1671.0</ele>
        <time>2015-07-25T14:31:24Z</time>
      </trkpt>
      <trkpt lat="40.473200" lon="-5.507000">
        <ele>1669.0</ele>
        <time>2015-07-25T14:31:25Z</time>
      </trkpt>
      <trkpt lat="40.473267" lon="-5.507083">
        <ele>1667.0</ele>
        <time>2015-07-25T14:31:26Z</time>
      </trkpt>
      <trkpt lat="40.473333" lon="-5.507167">
        <ele>1665.0</ele>
        <time>2015-07-25T14:31:27Z</time>
      </trkpt>
      <trkpt lat="40.473417" lon="-5.507233">
        <ele>1662.0</ele>
        <time>2015-07-25T14:31:28Z</time>
      </trkpt>
      <trkpt lat="40.473483" lon="-5.507317">
        <ele>1661.0</ele>
        <time>2015-07-25T14:31:29Z</time>
      </trkpt>
      <trkpt lat="40.473550" lon="-5.507400">
        <ele>1659.0</ele>
        <time>2015-07-25T14:31:30Z</time>
      </trkpt>
      <trkpt lat="40.473617" lon="-5.507483">
        <ele>1658.0</ele>
        <time>2015-07-25T14:31:31Z</time>
      </trkpt>
      <trkpt lat="40.473683" lon="-5.507550">
        <ele>1657.0</ele>
        <time>2015-07-25T14:31:32Z</time>
      </trkpt>
      <trkpt lat="40.473750" lon="-5.507617">
        <ele>1655.0</ele>
        <time>2015-07-25T14:31:33Z</time>
      </trkpt>
      <trkpt lat="40.473817" lon="-5.507683">
        <ele>1654.0</ele>
        <time>2015-07-25T14:31:34Z</time>
      </trkpt>
      <trkpt lat="40.473883" lon="-5.507750">
        <ele>1651.0</ele>
        <time>2015-07-25T14:31:35Z</time>
      </trkpt>
      <trkpt lat="40.473950" lon="-5.507833">
        <ele>1649.0</ele>
        <time>2015-07-25T14:31:36Z</time>
      </trkpt>
      <trkpt lat="40.474017" lon="-5.507917">
        <ele>1646.0</ele>
        <time>2015-07-25T14:31:37Z</time>
      </trkpt>
      <trkpt lat="40.474083" lon="-5.508000">
        <ele>1645.0</ele>
        <time>2015-07-25T14:31:38Z</time>
      </trkpt>
      <trkpt lat="40.474133" lon="-5.508083">
        <ele>1642.0</ele>
        <time>2015-07-25T14:31:39Z</time>
      </trkpt>
      <trkpt lat="40.474200" lon="-5.508150">
        <ele>1639.0</ele>
        <time>2015-07-25T14:31:40Z</time>
      </trkpt>
      <trkpt lat="40.474283" lon="-5.508217">
        <ele>1635.0</ele>
        <time>2015-07-25T14:31:41Z</time>
      </trkpt>
      <trkpt lat="40.474350" lon="-5.508300">
        <ele>1632.0</ele>
        <time>2015-07-25T14:31:42Z</time>
      </trkpt>
      <trkpt lat="40.474433" lon="-5.508367">
        <ele>1630.0</ele>
        <time>2015-07-25T14:31:43Z</time>
      </trkpt>
      <trkpt lat="40.474483" lon="-5.508433">
        <ele>1628.0</ele>
        <time>2015-07-25T14:31:44Z</time>
      </trkpt>
      <trkpt lat="40.474533" lon="-5.508483">
        <ele>1626.0</ele>
        <time>2015-07-25T14:31:45Z</time>
      </trkpt>
      <trkpt lat="40.474583" lon="-5.508533">
        <ele>1623.0</ele>
        <time>2015-07-25T14:31:46Z</time>
      </trkpt>
      <trkpt lat="40.474633" lon="-5.508600">
        <ele>1619.0</ele>
        <time>2015-07-25T14:31:47Z</time>
      </trkpt>
      <trkpt lat="40.474700" lon="-5.508667">
        <ele>1615.0</ele>
        <time>2015-07-25T14:31:48Z</time>
      </trkpt>
      <trkpt lat="40.474767" lon="-5.508717">
        <ele>1612.0</ele>
        <time>2015-07-25T14:31:49Z</time>
      </trkpt>
      <trkpt lat="40.474833" lon="-5.508783">
        <ele>1609.0</ele>
        <time>2015-07-25T14:31:50Z</time>
      </trkpt>
      <trkpt lat="40.474900" lon="-5.508833">
        <ele>1606.0</ele>
        <time>2015-07-25T14:31:51Z</time>
      </trkpt>
      <trkpt lat="40.474983" lon="-5.508883">
        <ele>1603.0</ele>
        <time>2015-07-25T14:31:52Z</time>
      </trkpt>
      <trkpt lat="40.475050" lon="-5.508933">
        <ele>1599.0</ele>
        <time>2015-07-25T14:31:53Z</time>
      </trkpt>
      <trkpt lat="40.475117" lon="-5.509000">
        <ele>1596.0</ele>
        <time>2015-07-25T14:31:54Z</time>
      </trkpt>
      <trkpt lat="40.475200" lon="-5.509067">
        <ele>1592.0</ele>
        <time>2015-07-25T14:31:55Z</time>
      </trkpt>
      <trkpt lat="40.475267" lon="-5.509133">
        <ele>1590.0</ele>
        <time>2015-07-25T14:31:56Z</time>
      </trkpt>
      <trkpt lat="40.475333" lon="-5.509200">
        <ele>1587.0</ele>
        <time>2015-07-25T14:31:57Z</time>
      </trkpt>
      <trkpt lat="40.475400" lon="-5.509267">
        <ele>1585.0</ele>
        <time>2015-07-25T14:31:58Z</time>
      </trkpt>
      <trkpt lat="40.475450" lon="-5.509317">
        <ele>1583.0</ele>
        <time>2015-07-25T14:31:59Z</time>
      </trkpt>
      <trkpt lat="40.475517" lon="-5.509383">
        <ele>1580.0</ele>
        <time>2015-07-25T14:32:00Z</time>
      </trkpt>
      <trkpt lat="40.475567" lon="-5.509450">
        <ele>1578.0</ele>
        <time>2015-07-25T14:32:01Z</time>
      </trkpt>
      <trkpt lat="40.475633" lon="-5.509517">
        <ele>1575.0</ele>
        <time>2015-07-25T14:32:02Z</time>
      </trkpt>
      <trkpt lat="40.475683" lon="-5.509583">
        <ele>1571.0</ele>
        <time>2015-07-25T14:32:03Z</time>
      </trkpt>
      <trkpt lat="40.475733" lon="-5.509667">
        <ele>1567.0</ele>
        <time>2015-07-25T14:32:04Z</time>
      </trkpt>
      <trkpt lat="40.475800" lon="-5.509767">
        <ele>1563.0</ele>
        <time>2015-07-25T14:32:05Z</time>
      </trkpt>
      <trkpt lat="40.475883" lon="-5.509850">
        <ele>1559.0</ele>
        <time>2015-07-25T14:32:06Z</time>
      </trkpt>
      <trkpt lat="40.475967" lon="-5.509933">
        <ele>1557.0</ele>
        <time>2015-07-25T14:32:07Z</time>
      </trkpt>
      <trkpt lat="40.476033" lon="-5.510000">
        <ele>1556.0</ele>
        <time>2015-07-25T14:32:08Z</time>
      </trkpt>
      <trkpt lat="40.476067" lon="-5.510067">
        <ele>1556.0</ele>
        <time>2015-07-25T14:32:09Z</time>
      </trkpt>
      <trkpt lat="40.476117" lon="-5.510133">
        <ele>1554.0</ele>
        <time>2015-07-25T14:32:10Z</time>
      </trkpt>
      <trkpt lat="40.476167" lon="-5.510200">
        <ele>1552.0</ele>
        <time>2015-07-25T14:32:11Z</time>
      </trkpt>
      <trkpt lat="40.476217" lon="-5.510233">
        <ele>1549.0</ele>
        <time>2015-07-25T14:32:12Z</time>
      </trkpt>
      <trkpt lat="40.476267" lon="-5.510283">
        <ele>1546.0</ele>
        <time>2015-07-25T14:32:13Z</time>
      </trkpt>
      <trkpt lat="40.476300" lon="-5.510317">
        <ele>1542.0</ele>
        <time>2015-07-25T14:32:14Z</time>
      </trkpt>
      <trkpt lat="40.476350" lon="-5.510367">
        <ele>1537.0</ele>
        <time>2015-07-25T14:32:15Z</time>
      </trkpt>
      <trkpt lat="40.476400" lon="-5.510417">
        <ele>1532.0</ele>
        <time>2015-07-25T14:32:16Z</time>
      </trkpt>
      <trkpt lat="40.476450" lon="-5.510450">
        <ele>1527.0</ele>
        <time>2015-07-25T14:32:17Z</time>
      </trkpt>
      <trkpt lat="40.476517" lon="-5.510483">
        <ele>1522.0</ele>
        <time>2015-07-25T14:32:18Z</time>
      </trkpt>
      <trkpt lat="40.476583" lon="-5.510500">
        <ele>1518.0</ele>
        <time>2015-07-25T14:32:19Z</time>
      </trkpt>
      <trkpt lat="40.476650" lon="-5.510517">
        <ele>1515.0</ele>
        <time>2015-07-25T14:32:20Z</time>
      </trkpt>
      <trkpt lat="40.476717" lon="-5.510533">
        <ele>1511.0</ele>
        <time>2015-07-25T14:32:21Z</time>
      </trkpt>
      <trkpt lat="40.476783" lon="-5.510517">
        <ele>1508.0</ele>
        <time>2015-07-25T14:32:22Z</time>
      </trkpt>
      <trkpt lat="40.476850" lon="-5.510517">
        <ele>1504.0</ele>
        <time>2015-07-25T14:32:23Z</time>
      </trkpt>
      <trkpt lat="40.476917" lon="-5.510517">
        <ele>1499.0</ele>
        <time>2015-07-25T14:32:24Z</time>
      </trkpt>
      <trkpt lat="40.477000" lon="-5.510517">
        <ele>1494.0</ele>
        <time>2015-07-25T14:32:25Z</time>
      </trkpt>
      <trkpt lat="40.477067" lon="-5.510517">
        <ele>1490.0</ele>
        <time>2015-07-25T14:32:26Z</time>
      </trkpt>
      <trkpt lat="40.477150" lon="-5.510533">
        <ele>1486.0</ele>
        <time>2015-07-25T14:32:27Z</time>
      </trkpt>
      <trkpt lat="40.477217" lon="-5.510550">
        <ele>1483.0</ele>
        <time>2015-07-25T14:32:28Z</time>
      </trkpt>
      <trkpt lat="40.477300" lon="-5.510550">
        <ele>1480.0</ele>
        <time>2015-07-25T14:32:29Z</time>
      </trkpt>
      <trkpt lat="40.477367" lon="-5.510550">
        <ele>1477.0</ele>
        <time>2015-07-25T14:32:30Z</time>
      </trkpt>
      <trkpt lat="40.477450" lon="-5.510567">
        <ele>1474.0</ele>
        <time>2015-07-25T14:32:31Z</time>
      </trkpt>
      <trkpt lat="40.477550" lon="-5.510567">
        <ele>1472.0</ele>
        <time>2015-07-25T14:32:32Z</time>
      </trkpt>
      <trkpt lat="40.477633" lon="-5.510583">
        <ele>1471.0</ele>
        <time>2015-07-25T14:32:33Z</time>
      </trkpt>
      <trkpt lat="40.477717" lon="-5.510583">
        <ele>1470.0</ele>
        <time>2015-07-25T14:32:34Z</time>
      </trkpt>
      <trkpt lat="40.477800" lon="-5.510583">
        <ele>1470.0</ele>
        <time>2015-07-25T14:32:35Z</time>
      </trkpt>
      <trkpt lat="40.477883" lon="-5.510567">
        <ele>1470.0</ele>
        <time>2015-07-25T14:32:36Z</time>
      </trkpt>
      <trkpt lat="40.477950" lon="-5.510550">
        <ele>1469.0</ele>
        <time>2015-07-25T14:32:37Z</time>
      </trkpt>
      <trkpt lat="40.478033" lon="-5.510550">
        <ele>1468.0</ele>
        <time>2015-07-25T14:32:38Z</time>
      </trkpt>
      <trkpt lat="40.478117" lon="-5.510550">
        <ele>1467.0</ele>
        <time>2015-07-25T14:32:39Z</time>
      </trkpt>
      <trkpt lat="40.478200" lon="-5.510567">
        <ele>1466.0</ele>
        <time>2015-07-25T14:32:40Z</time>
      </trkpt>
      <trkpt lat="40.478283" lon="-5.510583">
        <ele>1466.0</ele>
        <time>2015-07-25T14:32:41Z</time>
      </trkpt>
      <trkpt lat="40.478350" lon="-5.510617">
        <ele>1465.0</ele>
        <time>2015-07-25T14:32:42Z</time>
      </trkpt>
      <trkpt lat="40.478417" lon="-5.510650">
        <ele>1464.0</ele>
        <time>2015-07-25T14:32:43Z</time>
      </trkpt>
      <trkpt lat="40.478483" lon="-5.510700">
        <ele>1463.0</ele>
        <time>2015-07-25T14:32:44Z</time>
      </trkpt>
      <trkpt lat="40.478550" lon="-5.510750">
        <ele>1462.0</ele>
        <time>2015-07-25T14:32:45Z</time>
      </trkpt>
      <trkpt lat="40.478617" lon="-5.510800">
        <ele>1460.0</ele>
        <time>2015-07-25T14:32:46Z</time>
      </trkpt>
      <trkpt lat="40.478667" lon="-5.510867">
        <ele>1459.0</ele>
        <time>2015-07-25T14:32:47Z</time>
      </trkpt>
      <trkpt lat="40.478733" lon="-5.510933">
        <ele>1457.0</ele>
        <time>2015-07-25T14:32:48Z</time>
      </trkpt>
      <trkpt lat="40.478783" lon="-5.510983">
        <ele>1455.0</ele>
        <time>2015-07-25T14:32:49Z</time>
      </trkpt>
      <trkpt lat="40.478850" lon="-5.511050">
        <ele>1453.0</ele>
        <time>2015-07-25T14:32:50Z</time>
      </trkpt>
      <trkpt lat="40.478933" lon="-5.511117">
        <ele>1451.0</ele>
        <time>2015-07-25T14:32:51Z</time>
      </trkpt>
      <trkpt lat="40.479000" lon="-5.511183">
        <ele>1449.0</ele>
        <time>2015-07-25T14:32:52Z</time>
      </trkpt>
      <trkpt lat="40.479067" lon="-5.511267">
        <ele>1448.0</ele>
        <time>2015-07-25T14:32:53Z</time>
      </trkpt>
      <trkpt lat="40.479117" lon="-5.511333">
        <ele>1447.0</ele>
        <time>2015-07-25T14:32:54Z</time>
      </trkpt>
      <trkpt lat="40.479183" lon="-5.511400">
        <ele>1446.0</ele>
        <time>2015-07-25T14:32:55Z</time>
      </trkpt>
      <trkpt lat="40.479250" lon="-5.511467">
        <ele>1444.0</ele>
        <time>2015-07-25T14:32:56Z</time>
      </trkpt>
      <trkpt lat="40.479300" lon="-5.511517">
        <ele>1441.0</ele>
        <time>2015-07-25T14:32:57Z</time>
      </trkpt>
      <trkpt lat="40.479383" lon="-5.511567">
        <ele>1439.0</ele>
        <time>2015-07-25T14:32:58Z</time>
      </trkpt>
      <trkpt lat="40.479450" lon="-5.511617">
        <ele>1437.0</ele>
        <time>2015-07-25T14:32:59Z</time>
      </trkpt>
      <trkpt lat="40.479533" lon="-5.511667">
        <ele>1436.0</ele>
        <time>2015-07-25T14:33:00Z</time>
      </trkpt>
      <trkpt lat="40.479617" lon="-5.511700">
        <ele>1435.0</ele>
        <time>2015-07-25T14:33:01Z</time>
      </trkpt>
      <trkpt lat="40.479667" lon="-5.511717">
        <ele>1434.0</ele>
        <time>2015-07-25T14:33:02Z</time>
      </trkpt>
      <trkpt lat="40.479733" lon="-5.511733">
        <ele>1432.0</ele>
        <time>2015-07-25T14:33:03Z</time>
      </trkpt>
      <trkpt lat="40.479783" lon="-5.511767">
        <ele>1428.0</ele>
        <time>2015-07-25T14:33:04Z</time>
      </trkpt>
      <trkpt lat="40.479833" lon="-5.511800">
        <ele>1425.0</ele>
        <time>2015-07-25T14:33:05Z</time>
      </trkpt>
      <trkpt lat="40.479900" lon="-5.511850">
        <ele>1422.0</ele>
        <time>2015-07-25T14:33:06Z</time>
      </trkpt>
      <trkpt lat="40.479967" lon="-5.511917">
        <ele>1418.0</ele>
        <time>2015-07-25T14:33:07Z</time>
      </trkpt>
      <trkpt lat="40.480050" lon="-5.511983">
        <ele>1415.0</ele>
        <time>2015-07-25T14:33:08Z</time>
      </trkpt>
      <trkpt lat="40.480133" lon="-5.512050">
        <ele>1414.0</ele>
        <time>2015-07-25T14:33:09Z</time>
      </trkpt>
      <trkpt lat="40.480217" lon="-5.512100">
        <ele>1413.0</ele>
        <time>2015-07-25T14:33:10Z</time>
      </trkpt>
      <trkpt lat="40.480300" lon="-5.512150">
        <ele>1413.0</ele>
        <time>2015-07-25T14:33:11Z</time>
      </trkpt>
      <trkpt lat="40.480367" lon="-5.512200">
        <ele>1412.0</ele>
        <time>2015-07-25T14:33:12Z</time>
      </trkpt>
      <trkpt lat="40.480450" lon="-5.512233">
        <ele>1410.0</ele>
        <time>2015-07-25T14:33:13Z</time>
      </trkpt>
      <trkpt lat="40.480517" lon="-5.512267">
        <ele>1407.0</ele>
        <time>2015-07-25T14:33:14Z</time>
      </trkpt>
      <trkpt lat="40.480617" lon="-5.512317">
        <ele>1404.0</ele>
        <time>2015-07-25T14:33:15Z</time>
      </trkpt>
      <trkpt lat="40.480700" lon="-5.512383">
        <ele>1402.0</ele>
        <time>2015-07-25T14:33:16Z</time>
      </trkpt>
      <trkpt lat="40.480783" lon="-5.512450">
        <ele>1400.0</ele>
        <time>2015-07-25T14:33:17Z</time>
      </trkpt>
      <trkpt lat="40.480867" lon="-5.512517">
        <ele>1399.0</ele>
        <time>2015-07-25T14:33:18Z</time>
      </trkpt>
      <trkpt lat="40.480933" lon="-5.512600">
        <ele>1398.0</ele>
        <time>2015-07-25T14:33:19Z</time>
      </trkpt>
      <trkpt lat="40.481000" lon="-5.512683">
        <ele>1396.0</ele>
        <time>2015-07-25T14:33:20Z</time>
      </trkpt>
      <trkpt lat="40.481083" lon="-5.512767">
        <ele>1394.0</ele>
        <time>2015-07-25T14:33:21Z</time>
      </trkpt>
      <trkpt lat="40.481150" lon="-5.512850">
        <ele>1391.0</ele>
        <time>2015-07-25T14:33:22Z</time>
      </trkpt>
      <trkpt lat="40.481233" lon="-5.512933">
        <ele>1390.0</ele>
        <time>2015-07-25T14:33:23Z</time>
      </trkpt>
      <trkpt lat="40.481300" lon="-5.513033">
        <ele>1389.0</ele>
        <time>2015-07-25T14:33:24Z</time>
      </trkpt>
      <trkpt lat="40.481367" lon="-5.513117">
        <ele>1388.0</ele>
        <time>2015-07-25T14:33:25Z</time>
      </trkpt>
      <trkpt lat="40.481433" lon="-5.513200">
        <ele>1387.0</ele>
        <time>2015-07-25T14:33:26Z</time>
      </trkpt>
      <trkpt lat="40.481500" lon="-5.513267">
        <ele>1386.0</ele>
        <time>2015-07-25T14:33:27Z</time>
      </trkpt>
      <trkpt lat="40.481567" lon="-5.513350">
        <ele>1383.0</ele>
        <time>2015-07-25T14:33:28Z</time>
      </trkpt>
      <trkpt lat="40.481633" lon="-5.513433">
        <ele>1379.0</ele>
        <time>2015-07-25T14:33:29Z</time>
      </trkpt>
      <trkpt lat="40.481700" lon="-5.513533">
        <ele>1376.0</ele>
        <time>2015-07-25T14:33:30Z</time>
      </trkpt>
      <trkpt lat="40.481783" lon="-5.513650">
        <ele>1373.0</ele>
        <time>2015-07-25T14:33:31Z</time>
      </trkpt>
      <trkpt lat="40.481850" lon="-5.513750">
        <ele>1370.0</ele>
        <time>2015-07-25T14:33:32Z</time>
      </trkpt>
      <trkpt lat="40.481933" lon="-5.513850">
        <ele>1369.0</ele>
        <time>2015-07-25T14:33:33Z</time>
      </trkpt>
      <trkpt lat="40.482017" lon="-5.513933">
        <ele>1367.0</ele>
        <time>2015-07-25T14:33:34Z</time>
      </trkpt>
      <trkpt lat="40.482083" lon="-5.514000">
        <ele>1365.0</ele>
        <time>2015-07-25T14:33:35Z</time>
      </trkpt>
      <trkpt lat="40.482150" lon="-5.514100">
        <ele>1363.0</ele>
        <time>2015-07-25T14:33:36Z</time>
      </trkpt>
      <trkpt lat="40.482217" lon="-5.514183">
        <ele>1360.0</ele>
        <time>2015-07-25T14:33:37Z</time>
      </trkpt>
      <trkpt lat="40.482283" lon="-5.514283">
        <ele>1358.0</ele>
        <time>2015-07-25T14:33:38Z</time>
      </trkpt>
      <trkpt lat="40.482333" lon="-5.514367">
        <ele>1355.0</ele>
        <time>2015-07-25T14:33:39Z</time>
      </trkpt>
      <trkpt lat="40.482383" lon="-5.514467">
        <ele>1353.0</ele>
        <time>2015-07-25T14:33:40Z</time>
      </trkpt>
      <trkpt lat="40.482433" lon="-5.514567">
        <ele>1350.0</ele>
        <time>2015-07-25T14:33:41Z</time>
      </trkpt>
      <trkpt lat="40.482500" lon="-5.514683">
        <ele>1347.0</ele>
        <time>2015-07-25T14:33:42Z</time>
      </trkpt>
      <trkpt lat="40.482550" lon="-5.514783">
        <ele>1345.0</ele>
        <time>2015-07-25T14:33:43Z</time>
      </trkpt>
      <trkpt lat="40.482600" lon="-5.514900">
        <ele>1343.0</ele>
        <time>2015-07-25T14:33:44Z</time>
      </trkpt>
      <trkpt lat="40.482667" lon="-5.515000">
        <ele>1342.0</ele>
        <time>2015-07-25T14:33:45Z</time>
      </trkpt>
      <trkpt lat="40.482717" lon="-5.515117">
        <ele>1341.0</ele>
        <time>2015-07-25T14:33:46Z</time>
      </trkpt>
      <trkpt lat="40.482767" lon="-5.515217">
        <ele>1340.0</ele>
        <time>2015-07-25T14:33:47Z</time>
      </trkpt>
      <trkpt lat="40.482817" lon="-5.515317">
        <ele>1338.0</ele>
        <time>2015-07-25T14:33:48Z</time>
      </trkpt>
      <trkpt lat="40.482883" lon="-5.515417">
        <ele>1337.0</ele>
        <time>2015-07-25T14:33:49Z</time>
      </trkpt>
      <trkpt lat="40.482950" lon="-5.515500">
        <ele>1336.0</ele>
        <time>2015-07-25T14:33:50Z</time>
      </trkpt>
      <trkpt lat="40.483000" lon="-5.515583">
        <ele>1335.0</ele>
        <time>2015-07-25T14:33:51Z</time>
      </trkpt>
      <trkpt lat="40.483067" lon="-5.515683">
        <ele>1332.0</ele>
        <time>2015-07-25T14:33:52Z</time>
      </trkpt>
      <trkpt lat="40.483117" lon="-5.515800">
        <ele>1330.0</ele>
        <time>2015-07-25T14:33:53Z</time>
      </trkpt>
      <trkpt lat="40.483167" lon="-5.515900">
        <ele>1328.0</ele>
        <time>2015-07-25T14:33:54Z</time>
      </trkpt>
      <trkpt lat="40.483233" lon="-5.516000">
        <ele>1325.0</ele>
        <time>2015-07-25T14:33:55Z</time>
      </trkpt>
      <trkpt lat="40.483283" lon="-5.516083">
        <ele>1323.0</ele>
        <time>2015-07-25T14:33:56Z</time>
      </trkpt>
      <trkpt lat="40.483333" lon="-5.516183">
        <ele>1321.0</ele>
        <time>2015-07-25T14:33:57Z</time>
      </trkpt>
      <trkpt lat="40.483383" lon="-5.516267">
        <ele>1319.0</ele>
        <time>2015-07-25T14:33:58Z</time>
      </trkpt>
      <trkpt lat="40.483450" lon="-5.516367">
        <ele>1316.0</ele>
        <time>2015-07-25T14:33:59Z</time>
      </trkpt>
      <trkpt lat="40.483500" lon="-5.516450">
        <ele>1312.0</ele>
        <time>2015-07-25T14:34:00Z</time>
      </trkpt>
      <trkpt lat="40.483550" lon="-5.516550">
        <ele>1309.0</ele>
        <time>2015-07-25T14:34:01Z</time>
      </trkpt>
      <trkpt lat="40.483600" lon="-5.516667">
        <ele>1306.0</ele>
        <time>2015-07-25T14:34:02Z</time>
      </trkpt>
      <trkpt lat="40.483633" lon="-5.516783">
        <ele>1304.0</ele>
        <time>2015-07-25T14:34:03Z</time>
      </trkpt>
      <trkpt lat="40.483667" lon="-5.516900">
        <ele>1302.0</ele>
        <time>2015-07-25T14:34:04Z</time>
      </trkpt>
      <trkpt lat="40.483700" lon="-5.517017">
        <ele>1300.0</ele>
        <time>2015-07-25T14:34:05Z</time>
      </trkpt>
      <trkpt lat="40.483733" lon="-5.517117">
        <ele>1298.0</ele>
        <time>2015-07-25T14:34:06Z</time>
      </trkpt>
      <trkpt lat="40.483750" lon="-5.517217">
        <ele>1295.0</ele>
        <time>2015-07-25T14:34:07Z</time>
      </trkpt>
      <trkpt lat="40.483783" lon="-5.517333">
        <ele>1292.0</ele>
        <time>2015-07-25T14:34:08Z</time>
      </trkpt>
      <trkpt lat="40.483800" lon="-5.517450">
        <ele>1289.0</ele>
        <time>2015-07-25T14:34:09Z</time>
      </trkpt>
      <trkpt lat="40.483833" lon="-5.517567">
        <ele>1286.0</ele>
        <time>2015-07-25T14:34:10Z</time>
      </trkpt>
      <trkpt lat="40.483867" lon="-5.517683">
        <ele>1284.0</ele>
        <time>2015-07-25T14:34:11Z</time>
      </trkpt>
      <trkpt lat="40.483917" lon="-5.517783">
        <ele>1282.0</ele>
        <time>2015-07-25T14:34:12Z</time>
      </trkpt>
      <trkpt lat="40.483950" lon="-5.517883">
        <ele>1280.0</ele>
        <time>2015-07-25T14:34:13Z</time>
      </trkpt>
      <trkpt lat="40.484000" lon="-5.517983">
        <ele>1278.0</ele>
        <time>2015-07-25T14:34:14Z</time>
      </trkpt>
      <trkpt lat="40.484033" lon="-5.518083">
        <ele>1276.0</ele>
        <time>2015-07-25T14:34:15Z</time>
      </trkpt>
      <trkpt lat="40.484083" lon="-5.518200">
        <ele>1273.0</ele>
        <time>2015-07-25T14:34:16Z</time>
      </trkpt>
      <trkpt lat="40.484117" lon="-5.518317">
        <ele>1270.0</ele>
        <time>2015-07-25T14:34:17Z</time>
      </trkpt>
      <trkpt lat="40.484167" lon="-5.518417">
        <ele>1268.0</ele>
        <time>2015-07-25T14:34:18Z</time>
      </trkpt>
      <trkpt lat="40.484217" lon="-5.518533">
        <ele>1265.0</ele>
        <time>2015-07-25T14:34:19Z</time>
      </trkpt>
      <trkpt lat="40.484250" lon="-5.518633">
        <ele>1263.0</ele>
        <time>2015-07-25T14:34:20Z</time>
      </trkpt>
      <trkpt lat="40.484283" lon="-5.518733">
        <ele>1260.0</ele>
        <time>2015-07-25T14:34:21Z</time>
      </trkpt>
      <trkpt lat="40.484333" lon="-5.518850">
        <ele>1256.0</ele>
        <time>2015-07-25T14:34:22Z</time>
      </trkpt>
      <trkpt lat="40.484383" lon="-5.518967">
        <ele>1253.0</ele>
        <time>2015-07-25T14:34:23Z</time>
      </trkpt>
      <trkpt lat="40.484433" lon="-5.519100">
        <ele>1250.0</ele>
        <time>2015-07-25T14:34:24Z</time>
      </trkpt>
      <trkpt lat="40.484467" lon="-5.519233">
        <ele>1248.0</ele>
        <time>2015-07-25T14:34:25Z</time>
      </trkpt>
      <trkpt lat="40.484517" lon="-5.519350">
        <ele>1247.0</ele>
        <time>2015-07-25T14:34:26Z</time>
      </trkpt>
      <trkpt lat="40.484550" lon="-5.519467">
        <ele>1245.0</ele>
        <time>2015-07-25T14:34:27Z</time>
      </trkpt>
      <trkpt lat="40.484600" lon="-5.519550">
        <ele>1243.0</ele>
        <time>2015-07-25T14:34:28Z</time>
      </trkpt>
      <trkpt lat="40.484667" lon="-5.519600">
        <ele>1241.0</ele>
        <time>2015-07-25T14:34:29Z</time>
      </trkpt>
      <trkpt lat="40.484733" lon="-5.519650">
        <ele>1238.0</ele>
        <time>2015-07-25T14:34:30Z</time>
      </trkpt>
      <trkpt lat="40.484800" lon="-5.519683">
        <ele>1237.0</ele>
        <time>2015-07-25T14:34:31Z</time>
      </trkpt>
      <trkpt lat="40.484883" lon="-5.519717">
        <ele>1236.0</ele>
        <time>2015-07-25T14:34:32Z</time>
      </trkpt>
      <trkpt lat="40.484950" lon="-5.519700">
        <ele>1235.0</ele>
        <time>2015-07-25T14:34:33Z</time>
      </trkpt>
      <trkpt lat="40.485000" lon="-5.519667">
        <ele>1234.0</ele>
        <time>2015-07-25T14:34:34Z</time>
      </trkpt>
      <trkpt lat="40.485050" lon="-5.519600">
        <ele>1233.0</ele>
        <time>2015-07-25T14:34:35Z</time>
      </trkpt>
      <trkpt lat="40.485100" lon="-5.519517">
        <ele>1232.0</ele>
        <time>2015-07-25T14:34:36Z</time>
      </trkpt>
      <trkpt lat="40.485150" lon="-5.519433">
        <ele>1230.0</ele>
        <time>2015-07-25T14:34:37Z</time>
      </trkpt>
      <trkpt lat="40.485183" lon="-5.519350">
        <ele>1229.0</ele>
        <time>2015-07-25T14:34:38Z</time>
      </trkpt>
      <trkpt lat="40.485233" lon="-5.519267">
        <ele>1227.0</ele>
        <time>2015-07-25T14:34:39Z</time>
      </trkpt>
      <trkpt lat="40.485283" lon="-5.519183">
        <ele>1226.0</ele>
        <time>2015-07-25T14:34:40Z</time>
      </trkpt>
      <trkpt lat="40.485317" lon="-5.519100">
        <ele>1224.0</ele>
        <time>2015-07-25T14:34:41Z</time>
      </trkpt>
      <trkpt lat="40.485350" lon="-5.519017">
        <ele>1223.0</ele>
        <time>2015-07-25T14:34:42Z</time>
      </trkpt>
      <trkpt lat="40.485383" lon="-5.518933">
        <ele>1221.0</ele>
        <time>2015-07-25T14:34:43Z</time>
      </trkpt>
      <trkpt lat="40.485417" lon="-5.518850">
        <ele>1219.0</ele>
        <time>2015-07-25T14:34:44Z</time>
      </trkpt>
      <trkpt lat="40.485433" lon="-5.518750">
        <ele>1217.0</ele>
        <time>2015-07-25T14:34:45Z</time>
      </trkpt>
      <trkpt lat="40.485450" lon="-5.518650">
        <ele>1214.0</ele>
        <time>2015-07-25T14:34:46Z</time>
      </trkpt>
      <trkpt lat="40.485450" lon="-5.518533">
        <ele>1212.0</ele>
        <time>2015-07-25T14:34:47Z</time>
      </trkpt>
      <trkpt lat="40.485467" lon="-5.518417">
        <ele>1210.0</ele>
        <time>2015-07-25T14:34:48Z</time>
      </trkpt>
      <trkpt lat="40.485483" lon="-5.518300">
        <ele>1209.0</ele>
        <time>2015-07-25T14:34:49Z</time>
      </trkpt>
      <trkpt lat="40.485483" lon="-5.518200">
        <ele>1209.0</ele>
        <time>2015-07-25T14:34:50Z</time>
      </trkpt>
      <trkpt lat="40.485483" lon="-5.518100">
        <ele>1208.0</ele>
        <time>2015-07-25T14:34:51Z</time>
      </trkpt>
      <trkpt lat="40.485500" lon="-5.518000">
        <ele>1207.0</ele>
        <time>2015-07-25T14:34:52Z</time>
      </trkpt>
      <trkpt lat="40.485500" lon="-5.517900">
        <ele>1205.0</ele>
        <time>2015-07-25T14:34:53Z</time>
      </trkpt>
      <trkpt lat="40.485500" lon="-5.517783">
        <ele>1203.0</ele>
        <time>2015-07-25T14:34:54Z</time>
      </trkpt>
      <trkpt lat="40.485500" lon="-5.517667">
        <ele>1201.0</ele>
        <time>2015-07-25T14:34:55Z</time>
      </trkpt>
      <trkpt lat="40.485517" lon="-5.517550">
        <ele>1200.0</ele>
        <time>2015-07-25T14:34:56Z</time>
      </trkpt>
      <trkpt lat="40.485517" lon="-5.517450">
        <ele>1199.0</ele>
        <time>2015-07-25T14:34:57Z</time>
      </trkpt>
      <trkpt lat="40.485533" lon="-5.517367">
        <ele>1198.0</ele>
        <time>2015-07-25T14:34:58Z</time>
      </trkpt>
      <trkpt lat="40.485550" lon="-5.517267">
        <ele>1196.0</ele>
        <time>2015-07-25T14:34:59Z</time>
      </trkpt>
      <trkpt lat="40.485550" lon="-5.517183">
        <ele>1194.0</ele>
        <time>2015-07-25T14:35:00Z</time>
      </trkpt>
      <trkpt lat="40.485567" lon="-5.517067">
        <ele>1191.0</ele>
        <time>2015-07-25T14:35:01Z</time>
      </trkpt>
      <trkpt lat="40.485583" lon="-5.516950">
        <ele>1190.0</ele>
        <time>2015-07-25T14:35:02Z</time>
      </trkpt>
      <trkpt lat="40.485583" lon="-5.516833">
        <ele>1189.0</ele>
        <time>2015-07-25T14:35:03Z</time>
      </trkpt>
      <trkpt lat="40.485583" lon="-5.516733">
        <ele>1190.0</ele>
        <time>2015-07-25T14:35:04Z</time>
      </trkpt>
      <trkpt lat="40.485567" lon="-5.516650">
        <ele>1190.0</ele>
        <time>2015-07-25T14:35:05Z</time>
      </trkpt>
      <trkpt lat="40.485567" lon="-5.516550">
        <ele>1189.0</ele>
        <time>2015-07-25T14:35:06Z</time>
      </trkpt>
      <trkpt lat="40.485567" lon="-5.516450">
        <ele>1187.0</ele>
        <time>2015-07-25T14:35:07Z</time>
      </trkpt>
      <trkpt lat="40.485567" lon="-5.516367">
        <ele>1185.0</ele>
        <time>2015-07-25T14:35:08Z</time>
      </trkpt>
      <trkpt lat="40.485583" lon="-5.516267">
        <ele>1183.0</ele>
        <time>2015-07-25T14:35:09Z</time>
      </trkpt>
      <trkpt lat="40.485600" lon="-5.516183">
        <ele>1181.0</ele>
        <time>2015-07-25T14:35:10Z</time>
      </trkpt>
      <trkpt lat="40.485633" lon="-5.516117">
        <ele>1179.0</ele>
        <time>2015-07-25T14:35:11Z</time>
      </trkpt>
      <trkpt lat="40.485667" lon="-5.516067">
        <ele>1177.0</ele>
        <time>2015-07-25T14:35:12Z</time>
      </trkpt>
      <trkpt lat="40.485717" lon="-5.516033">
        <ele>1174.0</ele>
        <time>2015-07-25T14:35:13Z</time>
      </trkpt>
      <trkpt lat="40.485767" lon="-5.516017">
        <ele>1172.0</ele>
        <time>2015-07-25T14:35:14Z</time>
      </trkpt>
      <trkpt lat="40.485817" lon="-5.516000">
        <ele>1169.0</ele>
        <time>2015-07-25T14:35:15Z</time>
      </trkpt>
      <trkpt lat="40.485867" lon="-5.515967">
        <ele>1167.0</ele>
        <time>2015-07-25T14:35:16Z</time>
      </trkpt>
      <trkpt lat="40.485917" lon="-5.515933">
        <ele>1165.0</ele>
        <time>2015-07-25T14:35:17Z</time>
      </trkpt>
      <trkpt lat="40.485967" lon="-5.515900">
        <ele>1162.0</ele>
        <time>2015-07-25T14:35:18Z</time>
      </trkpt>
      <trkpt lat="40.486017" lon="-5.515850">
        <ele>1160.0</ele>
        <time>2015-07-25T14:35:19Z</time>
      </trkpt>
      <trkpt lat="40.486067" lon="-5.515783">
        <ele>1158.0</ele>
        <time>2015-07-25T14:35:20Z</time>
      </trkpt>
      <trkpt lat="40.486117" lon="-5.515733">
        <ele>1157.0</ele>
        <time>2015-07-25T14:35:21Z</time>
      </trkpt>
      <trkpt lat="40.486150" lon="-5.515700">
        <ele>1156.0</ele>
        <time>2015-07-25T14:35:22Z</time>
      </trkpt>
      <trkpt lat="40.486200" lon="-5.515650">
        <ele>1154.0</ele>
        <time>2015-07-25T14:35:23Z</time>
      </trkpt>
      <trkpt lat="40.486233" lon="-5.515617">
        <ele>1152.0</ele>
        <time>2015-07-25T14:35:24Z</time>
      </trkpt>
      <trkpt lat="40.486283" lon="-5.515567">
        <ele>1151.0</ele>
        <time>2015-07-25T14:35:25Z</time>
      </trkpt>
      <trkpt lat="40.486333" lon="-5.515517">
        <ele>1150.0</ele>
        <time>2015-07-25T14:35:26Z</time>
      </trkpt>
      <trkpt lat="40.486383" lon="-5.515483">
        <ele>1149.0</ele>
        <time>2015-07-25T14:35:27Z</time>
      </trkpt>
      <trkpt lat="40.486417" lon="-5.515433">
        <ele>1147.0</ele>
        <time>2015-07-25T14:35:28Z</time>
      </trkpt>
      <trkpt lat="40.486450" lon="-5.515383">
        <ele>1145.0</ele>
        <time>2015-07-25T14:35:29Z</time>
      </trkpt>
      <trkpt lat="40.486483" lon="-5.515317">
        <ele>1142.0</ele>
        <time>2015-07-25T14:35:30Z</time>
      </trkpt>
      <trkpt lat="40.486483" lon="-5.515217">
        <ele>1139.0</ele>
        <time>2015-07-25T14:35:31Z</time>
      </trkpt>
      <trkpt lat="40.486467" lon="-5.515100">
        <ele>1134.0</ele>
        <time>2015-07-25T14:35:32Z</time>
      </trkpt>
      <trkpt lat="40.486417" lon="-5.514950">
        <ele>1130.0</ele>
        <time>2015-07-25T14:35:33Z</time>
      </trkpt>
      <trkpt lat="40.486350" lon="-5.514800">
        <ele>1127.0</ele>
        <time>2015-07-25T14:35:34Z</time>
      </trkpt>
      <trkpt lat="40.486233" lon="-5.514683">
        <ele>1126.0</ele>
        <time>2015-07-25T14:35:35Z</time>
      </trkpt>
      <trkpt lat="40.486117" lon="-5.514600">
        <ele>1125.0</ele>
        <time>2015-07-25T14:35:36Z</time>
      </trkpt>
      <trkpt lat="40.486000" lon="-5.514550">
        <ele>1124.0</ele>
        <time>2015-07-25T14:35:37Z</time>
      </trkpt>
      <trkpt lat="40.485867" lon="-5.514517">
        <ele>1123.0</ele>
        <time>2015-07-25T14:35:38Z</time>
      </trkpt>
      <trkpt lat="40.485733" lon="-5.514500">
        <ele>1122.0</ele>
        <time>2015-07-25T14:35:39Z</time>
      </trkpt>
      <trkpt lat="40.485617" lon="-5.514483">
        <ele>1120.0</ele>
        <time>2015-07-25T14:35:40Z</time>
      </trkpt>
      <trkpt lat="40.485483" lon="-5.514467">
        <ele>1118.0</ele>
        <time>2015-07-25T14:35:41Z</time>
      </trkpt>
      <trkpt lat="40.485333" lon="-5.514433">
        <ele>1115.0</ele>
        <time>2015-07-25T14:35:42Z</time>
      </trkpt>
      <trkpt lat="40.485200" lon="-5.514383">
        <ele>1113.0</ele>
        <time>2015-07-25T14:35:43Z</time>
      </trkpt>
      <trkpt lat="40.485067" lon="-5.514333">
        <ele>1112.0</ele>
        <time>2015-07-25T14:35:44Z</time>
      </trkpt>
      <trkpt lat="40.484933" lon="-5.514283">
        <ele>1111.0</ele>
        <time>2015-07-25T14:35:45Z</time>
      </trkpt>
      <trkpt lat="40.484817" lon="-5.514233">
        <ele>1110.0</ele>
        <time>2015-07-25T14:35:46Z</time>
      </trkpt>
      <trkpt lat="40.484700" lon="-5.514183">
        <ele>1109.0</ele>
        <time>2015-07-25T14:35:47Z</time>
      </trkpt>
      <trkpt lat="40.484600" lon="-5.514100">
        <ele>1106.0</ele>
        <time>2015-07-25T14:35:48Z</time>
      </trkpt>
      <trkpt lat="40.484500" lon="-5.514000">
        <ele>1104.0</ele>
        <time>2015-07-25T14:35:49Z</time>
      </trkpt>
      <trkpt lat="40.484400" lon="-5.513883">
        <ele>1101.0</ele>
        <time>2015-07-25T14:35:50Z</time>
      </trkpt>
      <trkpt lat="40.484300" lon="-5.513767">
        <ele>1099.0</ele>
        <time>2015-07-25T14:35:51Z</time>
      </trkpt>
      <trkpt lat="40.484200" lon="-5.513683">
        <ele>1098.0</ele>
        <time>2015-07-25T14:35:52Z</time>
      </trkpt>
      <trkpt lat="40.484100" lon="-5.513600">
        <ele>1096.0</ele>
        <time>2015-07-25T14:35:53Z</time>
      </trkpt>
      <trkpt lat="40.484017" lon="-5.513517">
        <ele>1094.0</ele>
        <time>2015-07-25T14:35:54Z</time>
      </trkpt>
      <trkpt lat="40.483950" lon="-5.513400">
        <ele>1091.0</ele>
        <time>2015-07-25T14:35:55Z</time>
      </trkpt>
      <trkpt lat="40.483883" lon="-5.513267">
        <ele>1087.0</ele>
        <time>2015-07-25T14:35:56Z</time>
      </trkpt>
      <trkpt lat="40.483833" lon="-5.513100">
        <ele>1085.0</ele>
        <time>2015-07-25T14:35:57Z</time>
      </trkpt>
      <trkpt lat="40.483817" lon="-5.512967">
        <ele>1084.0</ele>
        <time>2015-07-25T14:35:58Z</time>
      </trkpt>
      <trkpt lat="40.483817" lon="-5.512833">
        <ele>1084.0</ele>
        <time>2015-07-25T14:35:59Z</time>
      </trkpt>
      <trkpt lat="40.483833" lon="-5.512750">
        <ele>1083.0</ele>
        <time>2015-07-25T14:36:00Z</time>
      </trkpt>
      <trkpt lat="40.483833" lon="-5.512667">
        <ele>1081.0</ele>
        <time>2015-07-25T14:36:01Z</time>
      </trkpt>
      <trkpt lat="40.483867" lon="-5.512600">
        <ele>1078.0</ele>
        <time>2015-07-25T14:36:02Z</time>
      </trkpt>
      <trkpt lat="40.483917" lon="-5.512533">
        <ele>1074.0</ele>
        <time>2015-07-25T14:36:03Z</time>
      </trkpt>
      <trkpt lat="40.483967" lon="-5.512483">
        <ele>1071.0</ele>
        <time>2015-07-25T14:36:04Z</time>
      </trkpt>
      <trkpt lat="40.484017" lon="-5.512433">
        <ele>1070.0</ele>
        <time>2015-07-25T14:36:05Z</time>
      </trkpt>
      <trkpt lat="40.484067" lon="-5.512417">
        <ele>1068.0</ele>
        <time>2015-07-25T14:36:06Z</time>
      </trkpt>
      <trkpt lat="40.484117" lon="-5.512400">
        <ele>1066.0</ele>
        <time>2015-07-25T14:36:07Z</time>
      </trkpt>
      <trkpt lat="40.484167" lon="-5.512367">
        <ele>1064.0</ele>
        <time>2015-07-25T14:36:08Z</time>
      </trkpt>
      <trkpt lat="40.484217" lon="-5.512333">
        <ele>1061.0</ele>
        <time>2015-07-25T14:36:09Z</time>
      </trkpt>
      <trkpt lat="40.484283" lon="-5.512317">
        <ele>1059.0</ele>
        <time>2015-07-25T14:36:10Z</time>
      </trkpt>
      <trkpt lat="40.484350" lon="-5.512283">
        <ele>1056.0</ele>
        <time>2015-07-25T14:36:11Z</time>
      </trkpt>
      <trkpt lat="40.484433" lon="-5.512267">
        <ele>1054.0</ele>
        <time>2015-07-25T14:36:12Z</time>
      </trkpt>
      <trkpt lat="40.484500" lon="-5.512217">
        <ele>1053.0</ele>
        <time>2015-07-25T14:36:13Z</time>
      </trkpt>
      <trkpt lat="40.484533" lon="-5.512150">
        <ele>1054.0</ele>
        <time>2015-07-25T14:36:14Z</time>
      </trkpt>
      <trkpt lat="40.484567" lon="-5.512067">
        <ele>1054.0</ele>
        <time>2015-07-25T14:36:15Z</time>
      </trkpt>
      <trkpt lat="40.484567" lon="-5.511983">
        <ele>1053.0</ele>
        <time>2015-07-25T14:36:16Z</time>
      </trkpt>
      <trkpt lat="40.484583" lon="-5.511900">
        <ele>1051.0</ele>
        <time>2015-07-25T14:36:17Z</time>
      </trkpt>
      <trkpt lat="40.484617" lon="-5.511817">
        <ele>1047.0</ele>
        <time>2015-07-25T14:36:18Z</time>
      </trkpt>
      <trkpt lat="40.484667" lon="-5.511717">
        <ele>1045.0</ele>
        <time>2015-07-25T14:36:19Z</time>
      </trkpt>
      <trkpt lat="40.484717" lon="-5.511650">
        <ele>1043.0</ele>
        <time>2015-07-25T14:36:20Z</time>
      </trkpt>
      <trkpt lat="40.484767" lon="-5.511600">
        <ele>1043.0</ele>
        <time>2015-07-25T14:36:21Z</time>
      </trkpt>
      <trkpt lat="40.484800" lon="-5.511600">
        <ele>1041.0</ele>
        <time>2015-07-25T14:36:22Z</time>
      </trkpt>
      <trkpt lat="40.484833" lon="-5.511617">
        <ele>1039.0</ele>
        <time>2015-07-25T14:36:23Z</time>
      </trkpt>
      <trkpt lat="40.484867" lon="-5.511667">
        <ele>1037.0</ele>
        <time>2015-07-25T14:36:24Z</time>
      </trkpt>
      <trkpt lat="40.484917" lon="-5.511717">
        <ele>1035.0</ele>
        <time>2015-07-25T14:36:25Z</time>
      </trkpt>
      <trkpt lat="40.484967" lon="-5.511783">
        <ele>1035.0</ele>
        <time>2015-07-25T14:36:26Z</time>
      </trkpt>
      <trkpt lat="40.485000" lon="-5.511867">
        <ele>1035.0</ele>
        <time>2015-07-25T14:36:27Z</time>
      </trkpt>
      <trkpt lat="40.485017" lon="-5.511950">
        <ele>1035.0</ele>
        <time>2015-07-25T14:36:28Z</time>
      </trkpt>
      <trkpt lat="40.485033" lon="-5.512033">
        <ele>1036.0</ele>
        <time>2015-07-25T14:36:29Z</time>
      </trkpt>
      <trkpt lat="40.485033" lon="-5.512100">
        <ele>1035.0</ele>
        <time>2015-07-25T14:36:30Z</time>
      </trkpt>
      <trkpt lat="40.485033" lon="-5.512167">
        <ele>1034.0</ele>
        <time>2015-07-25T14:36:31Z</time>
      </trkpt>
      <trkpt lat="40.485033" lon="-5.512250">
        <ele>1033.0</ele>
        <time>2015-07-25T14:36:32Z</time>
      </trkpt>
      <trkpt lat="40.485033" lon="-5.512350">
        <ele>1030.0</ele>
        <time>2015-07-25T14:36:33Z</time>
      </trkpt>
      <trkpt lat="40.485033" lon="-5.512450">
        <ele>1028.0</ele>
        <time>2015-07-25T14:36:34Z</time>
      </trkpt>
      <trkpt lat="40.485017" lon="-5.512550">
        <ele>1027.0</ele>
        <time>2015-07-25T14:36:35Z</time>
      </trkpt>
      <trkpt lat="40.485000" lon="-5.512633">
        <ele>1025.0</ele>
        <time>2015-07-25T14:36:36Z</time>
      </trkpt>
      <trkpt lat="40.484983" lon="-5.512733">
        <ele>1024.0</ele>
        <time>2015-07-25T14:36:37Z</time>
      </trkpt>
      <trkpt lat="40.484967" lon="-5.512833">
        <ele>1022.0</ele>
        <time>2015-07-25T14:36:38Z</time>
      </trkpt>
      <trkpt lat="40.484950" lon="-5.512933">
        <ele>1020.0</ele>
        <time>2015-07-25T14:36:39Z</time>
      </trkpt>
      <trkpt lat="40.484967" lon="-5.513033">
        <ele>1019.0</ele>
        <time>2015-07-25T14:36:40Z</time>
      </trkpt>
      <trkpt lat="40.484983" lon="-5.513117">
        <ele>1020.0</ele>
        <time>2015-07-25T14:36:41Z</time>
      </trkpt>
      <trkpt lat="40.485000" lon="-5.513200">
        <ele>1020.0</ele>
        <time>2015-07-25T14:36:42Z</time>
      </trkpt>
      <trkpt lat="40.485033" lon="-5.513267">
        <ele>1021.0</ele>
        <time>2015-07-25T14:36:43Z</time>
      </trkpt>
      <trkpt lat="40.485067" lon="-5.513283">
        <ele>1021.0</ele>
        <time>2015-07-25T14:36:44Z</time>
      </trkpt>
      <trkpt lat="40.485117" lon="-5.513283">
        <ele>1020.0</ele>
        <time>2015-07-25T14:36:45Z</time>
      </trkpt>
      <trkpt lat="40.485183" lon="-5.513233">
        <ele>1018.0</ele>
        <time>2015-07-25T14:36:46Z</time>
      </trkpt>
      <trkpt lat="40.485233" lon="-5.513150">
        <ele>1016.0</ele>
        <time>2015-07-25T14:36:47Z</time>
      </trkpt>
      <trkpt lat="40.485250" lon="-5.513033">
        <ele>1013.0</ele>
        <time>2015-07-25T14:36:48Z</time>
      </trkpt>
      <trkpt lat="40.485233" lon="-5.512883">
        <ele>1010.0</ele>
        <time>2015-07-25T14:36:49Z</time>
      </trkpt>
      <trkpt lat="40.485183" lon="-5.512733">
        <ele>1007.0</ele>
        <time>2015-07-25T14:36:50Z</time>
      </trkpt>
      <trkpt lat="40.485133" lon="-5.512583">
        <ele>1007.0</ele>
        <time>2015-07-25T14:36:51Z</time>
      </trkpt>
      <trkpt lat="40.485100" lon="-5.512450">
        <ele>1006.0</ele>
        <time>2015-07-25T14:36:52Z</time>
      </trkpt>
      <trkpt lat="40.485083" lon="-5.512333">
        <ele>1005.0</ele>
        <time>2015-07-25T14:36:53Z</time>
      </trkpt>
      <trkpt lat="40.485100" lon="-5.512217">
        <ele>1003.0</ele>
        <time>2015-07-25T14:36:54Z</time>
      </trkpt>
      <trkpt lat="40.485117" lon="-5.512083">
        <ele>1002.0</ele>
        <time>2015-07-25T14:36:55Z</time>
      </trkpt>
      <trkpt lat="40.485117" lon="-5.511983">
        <ele>1000.0</ele>
        <time>2015-07-25T14:36:56Z</time>
      </trkpt>
      <trkpt lat="40.485150" lon="-5.511900">
        <ele>998.0</ele>
        <time>2015-07-25T14:36:57Z</time>
      </trkpt>
      <trkpt lat="40.485200" lon="-5.511867">
        <ele>995.0</ele>
        <time>2015-07-25T14:36:58Z</time>
      </trkpt>
      <trkpt lat="40.485250" lon="-5.511900">
        <ele>991.0</ele>
        <time>2015-07-25T14:36:59Z</time>
      </trkpt>
      <trkpt lat="40.485267" lon="-5.512017">
        <ele>988.0</ele>
        <time>2015-07-25T14:37:00Z</time>
      </trkpt>
      <trkpt lat="40.485233" lon="-5.512150">
        <ele>985.0</ele>
        <time>2015-07-25T14:37:01Z</time>
      </trkpt>
      <trkpt lat="40.485183" lon="-5.512283">
        <ele>986.0</ele>
        <time>2015-07-25T14:37:02Z</time>
      </trkpt>
      <trkpt lat="40.485150" lon="-5.512367">
        <ele>988.0</ele>
        <time>2015-07-25T14:37:03Z</time>
      </trkpt>
      <trkpt lat="40.485133" lon="-5.512433">
        <ele>989.0</ele>
        <time>2015-07-25T14:37:04Z</time>
      </trkpt>
      <trkpt lat="40.485133" lon="-5.512467">
        <ele>987.0</ele>
        <time>2015-07-25T14:37:05Z</time>
      </trkpt>
      <trkpt lat="40.485133" lon="-5.512533">
        <ele>984.0</ele>
        <time>2015-07-25T14:37:06Z</time>
      </trkpt>
      <trkpt lat="40.485150" lon="-5.512617">
        <ele>979.0</ele>
        <time>2015-07-25T14:37:07Z</time>
      </trkpt>
      <trkpt lat="40.485167" lon="-5.512700">
        <ele>976.0</ele>
        <time>2015-07-25T14:37:08Z</time>
      </trkpt>
      <trkpt lat="40.485200" lon="-5.512783">
        <ele>973.0</ele>
        <time>2015-07-25T14:37:09Z</time>
      </trkpt>
      <trkpt lat="40.485250" lon="-5.512817">
        <ele>970.0</ele>
        <time>2015-07-25T14:37:10Z</time>
      </trkpt>
      <trkpt lat="40.485317" lon="-5.512800">
        <ele>966.0</ele>
        <time>2015-07-25T14:37:11Z</time>
      </trkpt>
      <trkpt lat="40.485367" lon="-5.512733">
        <ele>963.0</ele>
        <time>2015-07-25T14:37:12Z</time>
      </trkpt>
      <trkpt lat="40.485433" lon="-5.512667">
        <ele>961.0</ele>
        <time>2015-07-25T14:37:13Z</time>
      </trkpt>
      <trkpt lat="40.485483" lon="-5.512650">
        <ele>960.0</ele>
        <time>2015-07-25T14:37:14Z</time>
      </trkpt>
      <trkpt lat="40.485550" lon="-5.512650">
        <ele>957.0</ele>
        <time>2015-07-25T14:37:15Z</time>
      </trkpt>
      <trkpt lat="40.485617" lon="-5.512667">
        <ele>954.0</ele>
        <time>2015-07-25T14:37:16Z</time>
      </trkpt>
      <trkpt lat="40.485700" lon="-5.512667">
        <ele>952.0</ele>
        <time>2015-07-25T14:37:17Z</time>
      </trkpt>
      <trkpt lat="40.485783" lon="-5.512633">
        <ele>950.0</ele>
        <time>2015-07-25T14:37:18Z</time>
      </trkpt>
      <trkpt lat="40.485850" lon="-5.512617">
        <ele>949.0</ele>
        <time>2015-07-25T14:37:19Z</time>
      </trkpt>
      <trkpt lat="40.485933" lon="-5.512617">
        <ele>949.0</ele>
        <time>2015-07-25T14:37:20Z</time>
      </trkpt>
      <trkpt lat="40.485983" lon="-5.512617">
        <ele>950.0</ele>
        <time>2015-07-25T14:37:21Z</time>
      </trkpt>
      <trkpt lat="40.486050" lon="-5.512617">
        <ele>950.0</ele>
        <time>2015-07-25T14:37:22Z</time>
      </trkpt>
      <trkpt lat="40.486117" lon="-5.512617">
        <ele>949.0</ele>
        <time>2015-07-25T14:37:23Z</time>
      </trkpt>
      <trkpt lat="40.486183" lon="-5.512617">
        <ele>948.0</ele>
        <time>2015-07-25T14:37:24Z</time>
      </trkpt>
      <trkpt lat="40.486217" lon="-5.512617">
        <ele>947.0</ele>
        <time>2015-07-25T14:37:25Z</time>
      </trkpt>
      <trkpt lat="40.486217" lon="-5.512617">
        <ele>947.0</ele>
        <time>2015-07-25T14:37:26Z</time>
      </trkpt>
      <trkpt lat="40.486217" lon="-5.512617">
        <ele>946.0</ele>
        <time>2015-07-25T14:37:27Z</time>
      </trkpt>
      <trkpt lat="40.486217" lon="-5.512617">
        <ele>946.0</ele>
        <time>2015-07-25T14:37:28Z</time>
      </trkpt>
      <trkpt lat="40.486233" lon="-5.512633">
        <ele>946.0</ele>
        <time>2015-07-25T14:37:29Z</time>
      </trkpt>
      <trkpt lat="40.486233" lon="-5.512650">
        <ele>946.0</ele>
        <time>2015-07-25T14:37:30Z</time>
      </trkpt>
      <trkpt lat="40.486233" lon="-5.512650">
        <ele>946.0</ele>
        <time>2015-07-25T14:37:31Z</time>
      </trkpt>
      <trkpt lat="40.486233" lon="-5.512650">
        <ele>946.0</ele>
        <time>2015-07-25T14:37:32Z</time>
      </trkpt>
      <trkpt lat="40.486233" lon="-5.512650">
        <ele>946.0</ele>
        <time>2015-07-25T14:37:33Z</time>
      </trkpt>
      <trkpt lat="40.486233" lon="-5.512650">
        <ele>945.0</ele>
        <time>2015-07-25T14:37:34Z</time>
      </trkpt>
      <trkpt lat="40.486233" lon="-5.512650">
        <ele>945.0</ele>
        <time>2015-07-25T14:37:35Z</time>
      </trkpt>
      <trkpt lat="40.486233" lon="-5.512650">
        <ele>945.0</ele>
        <time>2015-07-25T14:37:36Z</time>
      </trkpt>
      <trkpt lat="40.486233" lon="-5.512650">
        <ele>944.0</ele>
        <time>2015-07-25T14:37:37Z</time>
      </trkpt>
      <trkpt lat="40.486233" lon="-5.512650">
        <ele>944.0</ele>
        <time>2015-07-25T14:37:38Z</time>
      </trkpt>
      <trkpt lat="40.486233" lon="-5.512650">
        <ele>944.0</ele>
        <time>2015-07-25T14:37:39Z</time>
      </trkpt>
      <trkpt lat="40.486233" lon="-5.512650">
        <ele>944.0</ele>
        <time>2015-07-25T14:37:40Z</time>
      </trkpt>
      <trkpt lat="40.486217" lon="-5.512650">
        <ele>944.0</ele>
        <time>2015-07-25T14:37:41Z</time>
      </trkpt>
      <trkpt lat="40.486217" lon="-5.512650">
        <ele>944.0</ele>
        <time>2015-07-25T14:37:42Z</time>
      </trkpt>
      <trkpt lat="40.486217" lon="-5.512650">
        <ele>943.0</ele>
        <time>2015-07-25T14:37:43Z</time>
      </trkpt>
      <trkpt lat="40.486217" lon="-5.512650">
        <ele>943.0</ele>
        <time>2015-07-25T14:37:44Z</time>
      </trkpt>
      <trkpt lat="40.486217" lon="-5.512650">
        <ele>943.0</ele>
        <time>2015-07-25T14:37:45Z</time>
      </trkpt>
      <trkpt lat="40.486217" lon="-5.512650">
        <ele>943.0</ele>
        <time>2015-07-25T14:37:46Z</time>
      </trkpt>
      <trkpt lat="40.486217" lon="-5.512650">
        <ele>943.0</ele>
        <time>2015-07-25T14:37:47Z</time>
      </trkpt>
      <trkpt lat="40.486217" lon="-5.512650">
        <ele>944.0</ele>
        <time>2015-07-25T14:37:48Z</time>
      </trkpt>
      <trkpt lat="40.486217" lon="-5.512650">
        <ele>944.0</ele>
        <time>2015-07-25T14:37:49Z</time>
      </trkpt>
      <trkpt lat="40.486217" lon="-5.512650">
        <ele>944.0</ele>
        <time>2015-07-25T14:37:50Z</time>
      </trkpt>
      <trkpt lat="40.486217" lon="-5.512650">
        <ele>945.0</ele>
        <time>2015-07-25T14:37:51Z</time>
      </trkpt>
      <trkpt lat="40.486217" lon="-5.512650">
        <ele>945.0</ele>
        <time>2015-07-25T14:37:52Z</time>
      </trkpt>
      <trkpt lat="40.486217" lon="-5.512650">
        <ele>945.0</ele>
        <time>2015-07-25T14:37:53Z</time>
      </trkpt>
      <trkpt lat="40.486217" lon="-5.512650">
        <ele>945.0</ele>
        <time>2015-07-25T14:37:54Z</time>
      </trkpt>
      <trkpt lat="40.486217" lon="-5.512667">
        <ele>945.0</ele>
        <time>2015-07-25T14:37:55Z</time>
      </trkpt>
      <trkpt lat="40.486217" lon="-5.512667">
        <ele>945.0</ele>
        <time>2015-07-25T14:37:56Z</time>
      </trkpt>
      <trkpt lat="40.486200" lon="-5.512667">
        <ele>945.0</ele>
        <time>2015-07-25T14:37:57Z</time>
      </trkpt>
      <trkpt lat="40.486217" lon="-5.512667">
        <ele>945.0</ele>
        <time>2015-07-25T14:37:58Z</time>
      </trkpt>
      <trkpt lat="40.486200" lon="-5.512667">
        <ele>945.0</ele>
        <time>2015-07-25T14:37:59Z</time>
      </trkpt>
      <trkpt lat="40.486200" lon="-5.512667">
        <ele>945.0</ele>
        <time>2015-07-25T14:38:00Z</time>
      </trkpt>
      <trkpt lat="40.486217" lon="-5.512667">
        <ele>946.0</ele>
        <time>2015-07-25T14:38:01Z</time>
      </trkpt>
      <trkpt lat="40.486217" lon="-5.512667">
        <ele>945.0</ele>
        <time>2015-07-25T14:38:02Z</time>
      </trkpt>
      <trkpt lat="40.486217" lon="-5.512667">
        <ele>945.0</ele>
        <time>2015-07-25T14:38:03Z</time>
      </trkpt>
      <trkpt lat="40.486217" lon="-5.512667">
        <ele>944.0</ele>
        <time>2015-07-25T14:38:04Z</time>
      </trkpt>
      <trkpt lat="40.486217" lon="-5.512667">
        <ele>945.0</ele>
        <time>2015-07-25T14:38:05Z</time>
      </trkpt>
      <trkpt lat="40.486217" lon="-5.512667">
        <ele>945.0</ele>
        <time>2015-07-25T14:38:06Z</time>
      </trkpt>
      <trkpt lat="40.486217" lon="-5.512667">
        <ele>945.0</ele>
        <time>2015-07-25T14:38:07Z</time>
      </trkpt>
      <trkpt lat="40.486217" lon="-5.512667">
        <ele>944.0</ele>
        <time>2015-07-25T14:38:08Z</time>
      </trkpt>
      <trkpt lat="40.486217" lon="-5.512667">
        <ele>945.0</ele>
        <time>2015-07-25T14:38:09Z</time>
      </trkpt>
      <trkpt lat="40.486217" lon="-5.512667">
        <ele>944.0</ele>
        <time>2015-07-25T14:38:10Z</time>
      </trkpt>
      <trkpt lat="40.486217" lon="-5.512667">
        <ele>945.0</ele>
        <time>2015-07-25T14:38:11Z</time>
      </trkpt>
      <trkpt lat="40.486217" lon="-5.512650">
        <ele>945.0</ele>
        <time>2015-07-25T14:38:12Z</time>
      </trkpt>
      <trkpt lat="40.486217" lon="-5.512650">
        <ele>945.0</ele>
        <time>2015-07-25T14:38:13Z</time>
      </trkpt>
      <trkpt lat="40.486217" lon="-5.512650">
        <ele>944.0</ele>
        <time>2015-07-25T14:38:14Z</time>
      </trkpt>
      <trkpt lat="40.486217" lon="-5.512650">
        <ele>944.0</ele>
        <time>2015-07-25T14:38:15Z</time>
      </trkpt>
      <trkpt lat="40.486217" lon="-5.512650">
        <ele>945.0</ele>
        <time>2015-07-25T14:38:16Z</time>
      </trkpt>
      <trkpt lat="40.486217" lon="-5.512650">
        <ele>944.0</ele>
        <time>2015-07-25T14:38:17Z</time>
      </trkpt>
      <trkpt lat="40.486217" lon="-5.512650">
        <ele>944.0</ele>
        <time>2015-07-25T14:38:18Z</time>
      </trkpt>
      <trkpt lat="40.486217" lon="-5.512650">
        <ele>944.0</ele>
        <time>2015-07-25T14:38:19Z</time>
      </trkpt>
      <trkpt lat="40.486217" lon="-5.512650">
        <ele>945.0</ele>
        <time>2015-07-25T14:38:20Z</time>
      </trkpt>
      <trkpt lat="40.486217" lon="-5.512650">
        <ele>945.0</ele>
        <time>2015-07-25T14:38:21Z</time>
      </trkpt>
      <trkpt lat="40.486217" lon="-5.512650">
        <ele>945.0</ele>
        <time>2015-07-25T14:38:22Z</time>
      </trkpt>
      <trkpt lat="40.486217" lon="-5.512650">
        <ele>944.0</ele>
        <time>2015-07-25T14:38:23Z</time>
      </trkpt>
      <trkpt lat="40.486217" lon="-5.512650">
        <ele>944.0</ele>
        <time>2015-07-25T14:38:24Z</time>
      </trkpt>
      <trkpt lat="40.486217" lon="-5.512650">
        <ele>944.0</ele>
        <time>2015-07-25T14:38:25Z</time>
      </trkpt>
      <trkpt lat="40.486217" lon="-5.512633">
        <ele>945.0</ele>
        <time>2015-07-25T14:38:26Z</time>
      </trkpt>
      <trkpt lat="40.486217" lon="-5.512633">
        <ele>945.0</ele>
        <time>2015-07-25T14:38:27Z</time>
      </trkpt>
    </trkseg>
  </trk>
</gpx>
